<?xml version="1.0" encoding="UTF-8" standalone="no" ?>
<gpx xmlns="http://www.topografix.com/GPX/1/1" xmlns:xsi="http://www.w3.org/2001/XMLSchema-instance" xsi:schemaLocation="http://www.topografix.com/GPX/1/1 http://www.topografix.com/GPX/1/1/gpx.xsd" version="1.1" creator="VisuGPX - https://www.visugpx.com">
  <metadata>
    <name>Sortie VTT avec Sylvain</name>
    <desc><![CDATA[Sortie VTT avec Sylvain sur Cléry saint André]]></desc>
  </metadata>
  <trk>
    <name><![CDATA[20171108232626-SF6nU]]></name>
    <trkseg>
      <trkpt lat="47.81746" lon="1.76575">
        <ele>92</ele>
        <time>2017-11-08T12:57:04Z</time>
      </trkpt>
      <trkpt lat="47.81748" lon="1.76571">
        <ele>92</ele>
        <time>2017-11-08T12:57:13Z</time>
      </trkpt>
      <trkpt lat="47.81747" lon="1.76558">
        <ele>91</ele>
        <time>2017-11-08T12:58:52Z</time>
      </trkpt>
      <trkpt lat="47.81744" lon="1.76559">
        <ele>91</ele>
        <time>2017-11-08T12:58:54Z</time>
      </trkpt>
      <trkpt lat="47.8174" lon="1.76561">
        <ele>91</ele>
        <time>2017-11-08T12:58:56Z</time>
      </trkpt>
      <trkpt lat="47.81735" lon="1.76564">
        <ele>91</ele>
        <time>2017-11-08T12:58:58Z</time>
      </trkpt>
      <trkpt lat="47.81731" lon="1.76565">
        <ele>91</ele>
        <time>2017-11-08T12:58:59Z</time>
      </trkpt>
      <trkpt lat="47.81728" lon="1.76567">
        <ele>91</ele>
        <time>2017-11-08T12:59:00Z</time>
      </trkpt>
      <trkpt lat="47.81724" lon="1.76568">
        <ele>91</ele>
        <time>2017-11-08T12:59:01Z</time>
      </trkpt>
      <trkpt lat="47.8172" lon="1.76568">
        <ele>91</ele>
        <time>2017-11-08T12:59:02Z</time>
      </trkpt>
      <trkpt lat="47.81716" lon="1.76569">
        <ele>91</ele>
        <time>2017-11-08T12:59:03Z</time>
      </trkpt>
      <trkpt lat="47.81712" lon="1.76571">
        <ele>91</ele>
        <time>2017-11-08T12:59:04Z</time>
      </trkpt>
      <trkpt lat="47.81708" lon="1.76572">
        <ele>91</ele>
        <time>2017-11-08T12:59:05Z</time>
      </trkpt>
      <trkpt lat="47.81704" lon="1.76574">
        <ele>91</ele>
        <time>2017-11-08T12:59:06Z</time>
      </trkpt>
      <trkpt lat="47.817" lon="1.76575">
        <ele>91</ele>
        <time>2017-11-08T12:59:07Z</time>
      </trkpt>
      <trkpt lat="47.81696" lon="1.76577">
        <ele>91</ele>
        <time>2017-11-08T12:59:08Z</time>
      </trkpt>
      <trkpt lat="47.81693" lon="1.76579">
        <ele>91</ele>
        <time>2017-11-08T12:59:09Z</time>
      </trkpt>
      <trkpt lat="47.81689" lon="1.76582">
        <ele>91</ele>
        <time>2017-11-08T12:59:10Z</time>
      </trkpt>
      <trkpt lat="47.81685" lon="1.76583">
        <ele>91</ele>
        <time>2017-11-08T12:59:11Z</time>
      </trkpt>
      <trkpt lat="47.8168" lon="1.76584">
        <ele>91</ele>
        <time>2017-11-08T12:59:13Z</time>
      </trkpt>
      <trkpt lat="47.81677" lon="1.76585">
        <ele>91</ele>
        <time>2017-11-08T12:59:14Z</time>
      </trkpt>
      <trkpt lat="47.81673" lon="1.76586">
        <ele>91</ele>
        <time>2017-11-08T12:59:15Z</time>
      </trkpt>
      <trkpt lat="47.81669" lon="1.76586">
        <ele>91</ele>
        <time>2017-11-08T12:59:16Z</time>
      </trkpt>
      <trkpt lat="47.81666" lon="1.76586">
        <ele>91</ele>
        <time>2017-11-08T12:59:17Z</time>
      </trkpt>
      <trkpt lat="47.81663" lon="1.76586">
        <ele>91</ele>
        <time>2017-11-08T12:59:18Z</time>
      </trkpt>
      <trkpt lat="47.81659" lon="1.76587">
        <ele>91</ele>
        <time>2017-11-08T12:59:19Z</time>
      </trkpt>
      <trkpt lat="47.81656" lon="1.76587">
        <ele>91</ele>
        <time>2017-11-08T12:59:20Z</time>
      </trkpt>
      <trkpt lat="47.81653" lon="1.76586">
        <ele>91</ele>
        <time>2017-11-08T12:59:21Z</time>
      </trkpt>
      <trkpt lat="47.81648" lon="1.76585">
        <ele>91</ele>
        <time>2017-11-08T12:59:23Z</time>
      </trkpt>
      <trkpt lat="47.81645" lon="1.76584">
        <ele>91</ele>
        <time>2017-11-08T12:59:25Z</time>
      </trkpt>
      <trkpt lat="47.81641" lon="1.76581">
        <ele>92</ele>
        <time>2017-11-08T12:59:27Z</time>
      </trkpt>
      <trkpt lat="47.81637" lon="1.76579">
        <ele>92</ele>
        <time>2017-11-08T12:59:29Z</time>
      </trkpt>
      <trkpt lat="47.81634" lon="1.76577">
        <ele>92</ele>
        <time>2017-11-08T12:59:30Z</time>
      </trkpt>
      <trkpt lat="47.81629" lon="1.76574">
        <ele>92</ele>
        <time>2017-11-08T12:59:32Z</time>
      </trkpt>
      <trkpt lat="47.81624" lon="1.76574">
        <ele>92</ele>
        <time>2017-11-08T12:59:34Z</time>
      </trkpt>
      <trkpt lat="47.81621" lon="1.76576">
        <ele>92</ele>
        <time>2017-11-08T12:59:35Z</time>
      </trkpt>
      <trkpt lat="47.8162" lon="1.7658">
        <ele>92</ele>
        <time>2017-11-08T12:59:36Z</time>
      </trkpt>
      <trkpt lat="47.81619" lon="1.76585">
        <ele>92</ele>
        <time>2017-11-08T12:59:37Z</time>
      </trkpt>
      <trkpt lat="47.8162" lon="1.76589">
        <ele>92</ele>
        <time>2017-11-08T12:59:38Z</time>
      </trkpt>
      <trkpt lat="47.81622" lon="1.76594">
        <ele>92</ele>
        <time>2017-11-08T12:59:39Z</time>
      </trkpt>
      <trkpt lat="47.81624" lon="1.766">
        <ele>91</ele>
        <time>2017-11-08T12:59:40Z</time>
      </trkpt>
      <trkpt lat="47.81625" lon="1.76607">
        <ele>91</ele>
        <time>2017-11-08T12:59:41Z</time>
      </trkpt>
      <trkpt lat="47.81626" lon="1.76614">
        <ele>91</ele>
        <time>2017-11-08T12:59:42Z</time>
      </trkpt>
      <trkpt lat="47.81627" lon="1.76618">
        <ele>91</ele>
        <time>2017-11-08T12:59:43Z</time>
      </trkpt>
      <trkpt lat="47.81627" lon="1.76624">
        <ele>91</ele>
        <time>2017-11-08T12:59:44Z</time>
      </trkpt>
      <trkpt lat="47.81629" lon="1.76629">
        <ele>91</ele>
        <time>2017-11-08T12:59:45Z</time>
      </trkpt>
      <trkpt lat="47.8163" lon="1.76634">
        <ele>91</ele>
        <time>2017-11-08T12:59:46Z</time>
      </trkpt>
      <trkpt lat="47.81631" lon="1.76639">
        <ele>91</ele>
        <time>2017-11-08T12:59:47Z</time>
      </trkpt>
      <trkpt lat="47.81632" lon="1.76645">
        <ele>91</ele>
        <time>2017-11-08T12:59:48Z</time>
      </trkpt>
      <trkpt lat="47.81633" lon="1.7665">
        <ele>91</ele>
        <time>2017-11-08T12:59:49Z</time>
      </trkpt>
      <trkpt lat="47.81634" lon="1.76655">
        <ele>91</ele>
        <time>2017-11-08T12:59:50Z</time>
      </trkpt>
      <trkpt lat="47.81634" lon="1.7666">
        <ele>91</ele>
        <time>2017-11-08T12:59:51Z</time>
      </trkpt>
      <trkpt lat="47.81635" lon="1.76666">
        <ele>91</ele>
        <time>2017-11-08T12:59:52Z</time>
      </trkpt>
      <trkpt lat="47.81635" lon="1.76671">
        <ele>91</ele>
        <time>2017-11-08T12:59:53Z</time>
      </trkpt>
      <trkpt lat="47.81636" lon="1.76676">
        <ele>91</ele>
        <time>2017-11-08T12:59:54Z</time>
      </trkpt>
      <trkpt lat="47.81637" lon="1.76682">
        <ele>91</ele>
        <time>2017-11-08T12:59:55Z</time>
      </trkpt>
      <trkpt lat="47.81637" lon="1.76687">
        <ele>91</ele>
        <time>2017-11-08T12:59:56Z</time>
      </trkpt>
      <trkpt lat="47.81637" lon="1.76693">
        <ele>91</ele>
        <time>2017-11-08T12:59:57Z</time>
      </trkpt>
      <trkpt lat="47.81637" lon="1.76699">
        <ele>91</ele>
        <time>2017-11-08T12:59:58Z</time>
      </trkpt>
      <trkpt lat="47.81636" lon="1.76705">
        <ele>91</ele>
        <time>2017-11-08T12:59:59Z</time>
      </trkpt>
      <trkpt lat="47.81635" lon="1.76711">
        <ele>91</ele>
        <time>2017-11-08T13:00:00Z</time>
      </trkpt>
      <trkpt lat="47.81633" lon="1.76717">
        <ele>91</ele>
        <time>2017-11-08T13:00:01Z</time>
      </trkpt>
      <trkpt lat="47.81632" lon="1.76723">
        <ele>91</ele>
        <time>2017-11-08T13:00:02Z</time>
      </trkpt>
      <trkpt lat="47.81631" lon="1.76728">
        <ele>91</ele>
        <time>2017-11-08T13:00:03Z</time>
      </trkpt>
      <trkpt lat="47.8163" lon="1.76734">
        <ele>91</ele>
        <time>2017-11-08T13:00:04Z</time>
      </trkpt>
      <trkpt lat="47.81629" lon="1.76739">
        <ele>91</ele>
        <time>2017-11-08T13:00:05Z</time>
      </trkpt>
      <trkpt lat="47.81629" lon="1.76744">
        <ele>91</ele>
        <time>2017-11-08T13:00:06Z</time>
      </trkpt>
      <trkpt lat="47.81629" lon="1.76749">
        <ele>91</ele>
        <time>2017-11-08T13:00:07Z</time>
      </trkpt>
      <trkpt lat="47.8163" lon="1.76755">
        <ele>92</ele>
        <time>2017-11-08T13:00:08Z</time>
      </trkpt>
      <trkpt lat="47.8163" lon="1.7676">
        <ele>92</ele>
        <time>2017-11-08T13:00:09Z</time>
      </trkpt>
      <trkpt lat="47.8163" lon="1.76766">
        <ele>92</ele>
        <time>2017-11-08T13:00:10Z</time>
      </trkpt>
      <trkpt lat="47.8163" lon="1.76771">
        <ele>92</ele>
        <time>2017-11-08T13:00:11Z</time>
      </trkpt>
      <trkpt lat="47.81631" lon="1.76776">
        <ele>92</ele>
        <time>2017-11-08T13:00:12Z</time>
      </trkpt>
      <trkpt lat="47.81631" lon="1.7678">
        <ele>92</ele>
        <time>2017-11-08T13:00:13Z</time>
      </trkpt>
      <trkpt lat="47.81632" lon="1.76784">
        <ele>92</ele>
        <time>2017-11-08T13:00:14Z</time>
      </trkpt>
      <trkpt lat="47.81632" lon="1.76789">
        <ele>92</ele>
        <time>2017-11-08T13:00:15Z</time>
      </trkpt>
      <trkpt lat="47.81632" lon="1.76793">
        <ele>92</ele>
        <time>2017-11-08T13:00:16Z</time>
      </trkpt>
      <trkpt lat="47.81634" lon="1.76801">
        <ele>92</ele>
        <time>2017-11-08T13:00:18Z</time>
      </trkpt>
      <trkpt lat="47.81635" lon="1.76807">
        <ele>92</ele>
        <time>2017-11-08T13:00:19Z</time>
      </trkpt>
      <trkpt lat="47.81636" lon="1.76813">
        <ele>92</ele>
        <time>2017-11-08T13:00:20Z</time>
      </trkpt>
      <trkpt lat="47.81637" lon="1.76818">
        <ele>92</ele>
        <time>2017-11-08T13:00:21Z</time>
      </trkpt>
      <trkpt lat="47.81638" lon="1.76824">
        <ele>92</ele>
        <time>2017-11-08T13:00:22Z</time>
      </trkpt>
      <trkpt lat="47.81639" lon="1.76829">
        <ele>92</ele>
        <time>2017-11-08T13:00:23Z</time>
      </trkpt>
      <trkpt lat="47.81639" lon="1.76834">
        <ele>92</ele>
        <time>2017-11-08T13:00:24Z</time>
      </trkpt>
      <trkpt lat="47.8164" lon="1.76839">
        <ele>92</ele>
        <time>2017-11-08T13:00:25Z</time>
      </trkpt>
      <trkpt lat="47.8164" lon="1.76843">
        <ele>92</ele>
        <time>2017-11-08T13:00:26Z</time>
      </trkpt>
      <trkpt lat="47.81641" lon="1.76848">
        <ele>92</ele>
        <time>2017-11-08T13:00:27Z</time>
      </trkpt>
      <trkpt lat="47.8164" lon="1.76853">
        <ele>92</ele>
        <time>2017-11-08T13:00:28Z</time>
      </trkpt>
      <trkpt lat="47.81641" lon="1.76857">
        <ele>92</ele>
        <time>2017-11-08T13:00:29Z</time>
      </trkpt>
      <trkpt lat="47.81641" lon="1.76862">
        <ele>92</ele>
        <time>2017-11-08T13:00:30Z</time>
      </trkpt>
      <trkpt lat="47.81642" lon="1.76868">
        <ele>92</ele>
        <time>2017-11-08T13:00:31Z</time>
      </trkpt>
      <trkpt lat="47.81643" lon="1.76874">
        <ele>92</ele>
        <time>2017-11-08T13:00:32Z</time>
      </trkpt>
      <trkpt lat="47.81644" lon="1.7688">
        <ele>92</ele>
        <time>2017-11-08T13:00:33Z</time>
      </trkpt>
      <trkpt lat="47.81644" lon="1.76886">
        <ele>92</ele>
        <time>2017-11-08T13:00:34Z</time>
      </trkpt>
      <trkpt lat="47.81645" lon="1.76892">
        <ele>92</ele>
        <time>2017-11-08T13:00:35Z</time>
      </trkpt>
      <trkpt lat="47.81646" lon="1.76897">
        <ele>92</ele>
        <time>2017-11-08T13:00:36Z</time>
      </trkpt>
      <trkpt lat="47.81647" lon="1.76904">
        <ele>92</ele>
        <time>2017-11-08T13:00:37Z</time>
      </trkpt>
      <trkpt lat="47.81649" lon="1.76909">
        <ele>92</ele>
        <time>2017-11-08T13:00:38Z</time>
      </trkpt>
      <trkpt lat="47.8165" lon="1.76914">
        <ele>92</ele>
        <time>2017-11-08T13:00:39Z</time>
      </trkpt>
      <trkpt lat="47.81651" lon="1.76919">
        <ele>92</ele>
        <time>2017-11-08T13:00:40Z</time>
      </trkpt>
      <trkpt lat="47.81653" lon="1.76924">
        <ele>92</ele>
        <time>2017-11-08T13:00:41Z</time>
      </trkpt>
      <trkpt lat="47.81653" lon="1.7693">
        <ele>92</ele>
        <time>2017-11-08T13:00:42Z</time>
      </trkpt>
      <trkpt lat="47.81654" lon="1.76935">
        <ele>92</ele>
        <time>2017-11-08T13:00:43Z</time>
      </trkpt>
      <trkpt lat="47.81655" lon="1.7694">
        <ele>92</ele>
        <time>2017-11-08T13:00:44Z</time>
      </trkpt>
      <trkpt lat="47.81655" lon="1.76944">
        <ele>92</ele>
        <time>2017-11-08T13:00:45Z</time>
      </trkpt>
      <trkpt lat="47.81655" lon="1.76949">
        <ele>92</ele>
        <time>2017-11-08T13:00:47Z</time>
      </trkpt>
      <trkpt lat="47.81656" lon="1.76958">
        <ele>92</ele>
        <time>2017-11-08T13:00:49Z</time>
      </trkpt>
      <trkpt lat="47.81658" lon="1.76961">
        <ele>91</ele>
        <time>2017-11-08T13:00:51Z</time>
      </trkpt>
      <trkpt lat="47.81661" lon="1.76963">
        <ele>91</ele>
        <time>2017-11-08T13:00:53Z</time>
      </trkpt>
      <trkpt lat="47.81665" lon="1.76963">
        <ele>91</ele>
        <time>2017-11-08T13:00:55Z</time>
      </trkpt>
      <trkpt lat="47.81668" lon="1.76963">
        <ele>91</ele>
        <time>2017-11-08T13:00:56Z</time>
      </trkpt>
      <trkpt lat="47.81673" lon="1.76961">
        <ele>91</ele>
        <time>2017-11-08T13:00:57Z</time>
      </trkpt>
      <trkpt lat="47.81677" lon="1.76961">
        <ele>91</ele>
        <time>2017-11-08T13:00:58Z</time>
      </trkpt>
      <trkpt lat="47.81681" lon="1.7696">
        <ele>91</ele>
        <time>2017-11-08T13:00:59Z</time>
      </trkpt>
      <trkpt lat="47.81685" lon="1.76961">
        <ele>91</ele>
        <time>2017-11-08T13:01:00Z</time>
      </trkpt>
      <trkpt lat="47.81689" lon="1.76962">
        <ele>91</ele>
        <time>2017-11-08T13:01:01Z</time>
      </trkpt>
      <trkpt lat="47.81693" lon="1.76961">
        <ele>91</ele>
        <time>2017-11-08T13:01:02Z</time>
      </trkpt>
      <trkpt lat="47.81696" lon="1.76962">
        <ele>91</ele>
        <time>2017-11-08T13:01:03Z</time>
      </trkpt>
      <trkpt lat="47.817" lon="1.76963">
        <ele>91</ele>
        <time>2017-11-08T13:01:04Z</time>
      </trkpt>
      <trkpt lat="47.81703" lon="1.76964">
        <ele>91</ele>
        <time>2017-11-08T13:01:05Z</time>
      </trkpt>
      <trkpt lat="47.81707" lon="1.76965">
        <ele>91</ele>
        <time>2017-11-08T13:01:06Z</time>
      </trkpt>
      <trkpt lat="47.8171" lon="1.76965">
        <ele>91</ele>
        <time>2017-11-08T13:01:07Z</time>
      </trkpt>
      <trkpt lat="47.81713" lon="1.76965">
        <ele>91</ele>
        <time>2017-11-08T13:01:08Z</time>
      </trkpt>
      <trkpt lat="47.81717" lon="1.76966">
        <ele>91</ele>
        <time>2017-11-08T13:01:09Z</time>
      </trkpt>
      <trkpt lat="47.8172" lon="1.76966">
        <ele>91</ele>
        <time>2017-11-08T13:01:10Z</time>
      </trkpt>
      <trkpt lat="47.81724" lon="1.76966">
        <ele>91</ele>
        <time>2017-11-08T13:01:11Z</time>
      </trkpt>
      <trkpt lat="47.81727" lon="1.76967">
        <ele>91</ele>
        <time>2017-11-08T13:01:12Z</time>
      </trkpt>
      <trkpt lat="47.81731" lon="1.76967">
        <ele>91</ele>
        <time>2017-11-08T13:01:13Z</time>
      </trkpt>
      <trkpt lat="47.81733" lon="1.76967">
        <ele>91</ele>
        <time>2017-11-08T13:01:14Z</time>
      </trkpt>
      <trkpt lat="47.81736" lon="1.76968">
        <ele>91</ele>
        <time>2017-11-08T13:01:15Z</time>
      </trkpt>
      <trkpt lat="47.81739" lon="1.76968">
        <ele>91</ele>
        <time>2017-11-08T13:01:16Z</time>
      </trkpt>
      <trkpt lat="47.81744" lon="1.76971">
        <ele>91</ele>
        <time>2017-11-08T13:01:18Z</time>
      </trkpt>
      <trkpt lat="47.81748" lon="1.76976">
        <ele>91</ele>
        <time>2017-11-08T13:01:20Z</time>
      </trkpt>
      <trkpt lat="47.81752" lon="1.7698">
        <ele>91</ele>
        <time>2017-11-08T13:01:22Z</time>
      </trkpt>
      <trkpt lat="47.81757" lon="1.76988">
        <ele>91</ele>
        <time>2017-11-08T13:01:24Z</time>
      </trkpt>
      <trkpt lat="47.81759" lon="1.76992">
        <ele>91</ele>
        <time>2017-11-08T13:01:25Z</time>
      </trkpt>
      <trkpt lat="47.81761" lon="1.76995">
        <ele>91</ele>
        <time>2017-11-08T13:01:26Z</time>
      </trkpt>
      <trkpt lat="47.81764" lon="1.76999">
        <ele>91</ele>
        <time>2017-11-08T13:01:27Z</time>
      </trkpt>
      <trkpt lat="47.81767" lon="1.77002">
        <ele>91</ele>
        <time>2017-11-08T13:01:28Z</time>
      </trkpt>
      <trkpt lat="47.8177" lon="1.77005">
        <ele>91</ele>
        <time>2017-11-08T13:01:29Z</time>
      </trkpt>
      <trkpt lat="47.81774" lon="1.77008">
        <ele>91</ele>
        <time>2017-11-08T13:01:30Z</time>
      </trkpt>
      <trkpt lat="47.81777" lon="1.77011">
        <ele>91</ele>
        <time>2017-11-08T13:01:31Z</time>
      </trkpt>
      <trkpt lat="47.81781" lon="1.77013">
        <ele>91</ele>
        <time>2017-11-08T13:01:32Z</time>
      </trkpt>
      <trkpt lat="47.81785" lon="1.77015">
        <ele>91</ele>
        <time>2017-11-08T13:01:33Z</time>
      </trkpt>
      <trkpt lat="47.8179" lon="1.77017">
        <ele>91</ele>
        <time>2017-11-08T13:01:34Z</time>
      </trkpt>
      <trkpt lat="47.81794" lon="1.77019">
        <ele>91</ele>
        <time>2017-11-08T13:01:35Z</time>
      </trkpt>
      <trkpt lat="47.81799" lon="1.77021">
        <ele>91</ele>
        <time>2017-11-08T13:01:36Z</time>
      </trkpt>
      <trkpt lat="47.81803" lon="1.77021">
        <ele>91</ele>
        <time>2017-11-08T13:01:37Z</time>
      </trkpt>
      <trkpt lat="47.81807" lon="1.77022">
        <ele>91</ele>
        <time>2017-11-08T13:01:38Z</time>
      </trkpt>
      <trkpt lat="47.81811" lon="1.77022">
        <ele>91</ele>
        <time>2017-11-08T13:01:39Z</time>
      </trkpt>
      <trkpt lat="47.81815" lon="1.77022">
        <ele>91</ele>
        <time>2017-11-08T13:01:40Z</time>
      </trkpt>
      <trkpt lat="47.81818" lon="1.77022">
        <ele>91</ele>
        <time>2017-11-08T13:01:41Z</time>
      </trkpt>
      <trkpt lat="47.81821" lon="1.77022">
        <ele>91</ele>
        <time>2017-11-08T13:01:42Z</time>
      </trkpt>
      <trkpt lat="47.81824" lon="1.77021">
        <ele>91</ele>
        <time>2017-11-08T13:01:43Z</time>
      </trkpt>
      <trkpt lat="47.81827" lon="1.77021">
        <ele>91</ele>
        <time>2017-11-08T13:01:44Z</time>
      </trkpt>
      <trkpt lat="47.8183" lon="1.77021">
        <ele>91</ele>
        <time>2017-11-08T13:01:45Z</time>
      </trkpt>
      <trkpt lat="47.81834" lon="1.77021">
        <ele>92</ele>
        <time>2017-11-08T13:01:46Z</time>
      </trkpt>
      <trkpt lat="47.81837" lon="1.77021">
        <ele>92</ele>
        <time>2017-11-08T13:01:47Z</time>
      </trkpt>
      <trkpt lat="47.8184" lon="1.77021">
        <ele>92</ele>
        <time>2017-11-08T13:01:48Z</time>
      </trkpt>
      <trkpt lat="47.81845" lon="1.77021">
        <ele>92</ele>
        <time>2017-11-08T13:01:50Z</time>
      </trkpt>
      <trkpt lat="47.81848" lon="1.77021">
        <ele>92</ele>
        <time>2017-11-08T13:01:51Z</time>
      </trkpt>
      <trkpt lat="47.81851" lon="1.7702">
        <ele>92</ele>
        <time>2017-11-08T13:01:52Z</time>
      </trkpt>
      <trkpt lat="47.81854" lon="1.7702">
        <ele>92</ele>
        <time>2017-11-08T13:01:53Z</time>
      </trkpt>
      <trkpt lat="47.81857" lon="1.7702">
        <ele>92</ele>
        <time>2017-11-08T13:01:54Z</time>
      </trkpt>
      <trkpt lat="47.8186" lon="1.77022">
        <ele>92</ele>
        <time>2017-11-08T13:01:55Z</time>
      </trkpt>
      <trkpt lat="47.81862" lon="1.77029">
        <ele>92</ele>
        <time>2017-11-08T13:01:57Z</time>
      </trkpt>
      <trkpt lat="47.81864" lon="1.77034">
        <ele>92</ele>
        <time>2017-11-08T13:01:58Z</time>
      </trkpt>
      <trkpt lat="47.81865" lon="1.7704">
        <ele>92</ele>
        <time>2017-11-08T13:01:59Z</time>
      </trkpt>
      <trkpt lat="47.81866" lon="1.77045">
        <ele>92</ele>
        <time>2017-11-08T13:02:00Z</time>
      </trkpt>
      <trkpt lat="47.81868" lon="1.7705">
        <ele>92</ele>
        <time>2017-11-08T13:02:01Z</time>
      </trkpt>
      <trkpt lat="47.81869" lon="1.77056">
        <ele>92</ele>
        <time>2017-11-08T13:02:02Z</time>
      </trkpt>
      <trkpt lat="47.81871" lon="1.77061">
        <ele>92</ele>
        <time>2017-11-08T13:02:03Z</time>
      </trkpt>
      <trkpt lat="47.81873" lon="1.77067">
        <ele>92</ele>
        <time>2017-11-08T13:02:04Z</time>
      </trkpt>
      <trkpt lat="47.81874" lon="1.77073">
        <ele>92</ele>
        <time>2017-11-08T13:02:05Z</time>
      </trkpt>
      <trkpt lat="47.81876" lon="1.77079">
        <ele>92</ele>
        <time>2017-11-08T13:02:06Z</time>
      </trkpt>
      <trkpt lat="47.81877" lon="1.77085">
        <ele>92</ele>
        <time>2017-11-08T13:02:07Z</time>
      </trkpt>
      <trkpt lat="47.81879" lon="1.77091">
        <ele>92</ele>
        <time>2017-11-08T13:02:08Z</time>
      </trkpt>
      <trkpt lat="47.8188" lon="1.77096">
        <ele>92</ele>
        <time>2017-11-08T13:02:09Z</time>
      </trkpt>
      <trkpt lat="47.81881" lon="1.77102">
        <ele>92</ele>
        <time>2017-11-08T13:02:10Z</time>
      </trkpt>
      <trkpt lat="47.81882" lon="1.77108">
        <ele>92</ele>
        <time>2017-11-08T13:02:11Z</time>
      </trkpt>
      <trkpt lat="47.81884" lon="1.77114">
        <ele>92</ele>
        <time>2017-11-08T13:02:12Z</time>
      </trkpt>
      <trkpt lat="47.81885" lon="1.7712">
        <ele>92</ele>
        <time>2017-11-08T13:02:13Z</time>
      </trkpt>
      <trkpt lat="47.81886" lon="1.77125">
        <ele>92</ele>
        <time>2017-11-08T13:02:14Z</time>
      </trkpt>
      <trkpt lat="47.81887" lon="1.77129">
        <ele>92</ele>
        <time>2017-11-08T13:02:15Z</time>
      </trkpt>
      <trkpt lat="47.81887" lon="1.77134">
        <ele>92</ele>
        <time>2017-11-08T13:02:16Z</time>
      </trkpt>
      <trkpt lat="47.81888" lon="1.77138">
        <ele>92</ele>
        <time>2017-11-08T13:02:17Z</time>
      </trkpt>
      <trkpt lat="47.81888" lon="1.77143">
        <ele>92</ele>
        <time>2017-11-08T13:02:18Z</time>
      </trkpt>
      <trkpt lat="47.8189" lon="1.77148">
        <ele>92</ele>
        <time>2017-11-08T13:02:19Z</time>
      </trkpt>
      <trkpt lat="47.81891" lon="1.77153">
        <ele>92</ele>
        <time>2017-11-08T13:02:20Z</time>
      </trkpt>
      <trkpt lat="47.81893" lon="1.77158">
        <ele>92</ele>
        <time>2017-11-08T13:02:21Z</time>
      </trkpt>
      <trkpt lat="47.81894" lon="1.77163">
        <ele>92</ele>
        <time>2017-11-08T13:02:22Z</time>
      </trkpt>
      <trkpt lat="47.81896" lon="1.7717">
        <ele>92</ele>
        <time>2017-11-08T13:02:23Z</time>
      </trkpt>
      <trkpt lat="47.81897" lon="1.77176">
        <ele>92</ele>
        <time>2017-11-08T13:02:24Z</time>
      </trkpt>
      <trkpt lat="47.819" lon="1.77181">
        <ele>92</ele>
        <time>2017-11-08T13:02:25Z</time>
      </trkpt>
      <trkpt lat="47.81901" lon="1.77187">
        <ele>92</ele>
        <time>2017-11-08T13:02:26Z</time>
      </trkpt>
      <trkpt lat="47.81903" lon="1.77192">
        <ele>92</ele>
        <time>2017-11-08T13:02:27Z</time>
      </trkpt>
      <trkpt lat="47.81906" lon="1.77198">
        <ele>92</ele>
        <time>2017-11-08T13:02:28Z</time>
      </trkpt>
      <trkpt lat="47.81908" lon="1.77204">
        <ele>92</ele>
        <time>2017-11-08T13:02:29Z</time>
      </trkpt>
      <trkpt lat="47.8191" lon="1.7721">
        <ele>92</ele>
        <time>2017-11-08T13:02:30Z</time>
      </trkpt>
      <trkpt lat="47.81912" lon="1.77217">
        <ele>92</ele>
        <time>2017-11-08T13:02:31Z</time>
      </trkpt>
      <trkpt lat="47.81914" lon="1.77224">
        <ele>92</ele>
        <time>2017-11-08T13:02:32Z</time>
      </trkpt>
      <trkpt lat="47.81916" lon="1.77229">
        <ele>92</ele>
        <time>2017-11-08T13:02:33Z</time>
      </trkpt>
      <trkpt lat="47.81918" lon="1.77236">
        <ele>92</ele>
        <time>2017-11-08T13:02:34Z</time>
      </trkpt>
      <trkpt lat="47.8192" lon="1.77242">
        <ele>92</ele>
        <time>2017-11-08T13:02:35Z</time>
      </trkpt>
      <trkpt lat="47.81922" lon="1.77248">
        <ele>91</ele>
        <time>2017-11-08T13:02:36Z</time>
      </trkpt>
      <trkpt lat="47.81924" lon="1.77254">
        <ele>91</ele>
        <time>2017-11-08T13:02:37Z</time>
      </trkpt>
      <trkpt lat="47.81926" lon="1.7726">
        <ele>91</ele>
        <time>2017-11-08T13:02:38Z</time>
      </trkpt>
      <trkpt lat="47.81928" lon="1.77266">
        <ele>91</ele>
        <time>2017-11-08T13:02:39Z</time>
      </trkpt>
      <trkpt lat="47.8193" lon="1.77272">
        <ele>91</ele>
        <time>2017-11-08T13:02:40Z</time>
      </trkpt>
      <trkpt lat="47.81932" lon="1.77278">
        <ele>91</ele>
        <time>2017-11-08T13:02:41Z</time>
      </trkpt>
      <trkpt lat="47.81934" lon="1.77285">
        <ele>91</ele>
        <time>2017-11-08T13:02:42Z</time>
      </trkpt>
      <trkpt lat="47.81936" lon="1.77291">
        <ele>91</ele>
        <time>2017-11-08T13:02:43Z</time>
      </trkpt>
      <trkpt lat="47.81938" lon="1.77297">
        <ele>91</ele>
        <time>2017-11-08T13:02:44Z</time>
      </trkpt>
      <trkpt lat="47.8194" lon="1.77304">
        <ele>91</ele>
        <time>2017-11-08T13:02:45Z</time>
      </trkpt>
      <trkpt lat="47.81942" lon="1.7731">
        <ele>91</ele>
        <time>2017-11-08T13:02:46Z</time>
      </trkpt>
      <trkpt lat="47.81944" lon="1.77317">
        <ele>91</ele>
        <time>2017-11-08T13:02:47Z</time>
      </trkpt>
      <trkpt lat="47.81946" lon="1.77324">
        <ele>91</ele>
        <time>2017-11-08T13:02:48Z</time>
      </trkpt>
      <trkpt lat="47.81948" lon="1.7733">
        <ele>91</ele>
        <time>2017-11-08T13:02:49Z</time>
      </trkpt>
      <trkpt lat="47.8195" lon="1.77336">
        <ele>91</ele>
        <time>2017-11-08T13:02:50Z</time>
      </trkpt>
      <trkpt lat="47.81952" lon="1.77342">
        <ele>91</ele>
        <time>2017-11-08T13:02:51Z</time>
      </trkpt>
      <trkpt lat="47.81954" lon="1.77348">
        <ele>91</ele>
        <time>2017-11-08T13:02:52Z</time>
      </trkpt>
      <trkpt lat="47.81956" lon="1.77355">
        <ele>91</ele>
        <time>2017-11-08T13:02:53Z</time>
      </trkpt>
      <trkpt lat="47.81958" lon="1.77361">
        <ele>91</ele>
        <time>2017-11-08T13:02:54Z</time>
      </trkpt>
      <trkpt lat="47.8196" lon="1.77366">
        <ele>91</ele>
        <time>2017-11-08T13:02:55Z</time>
      </trkpt>
      <trkpt lat="47.81961" lon="1.77372">
        <ele>91</ele>
        <time>2017-11-08T13:02:56Z</time>
      </trkpt>
      <trkpt lat="47.81963" lon="1.77378">
        <ele>91</ele>
        <time>2017-11-08T13:02:57Z</time>
      </trkpt>
      <trkpt lat="47.81965" lon="1.77384">
        <ele>91</ele>
        <time>2017-11-08T13:02:58Z</time>
      </trkpt>
      <trkpt lat="47.81966" lon="1.7739">
        <ele>91</ele>
        <time>2017-11-08T13:02:59Z</time>
      </trkpt>
      <trkpt lat="47.81968" lon="1.77395">
        <ele>91</ele>
        <time>2017-11-08T13:03:00Z</time>
      </trkpt>
      <trkpt lat="47.81969" lon="1.77401">
        <ele>91</ele>
        <time>2017-11-08T13:03:01Z</time>
      </trkpt>
      <trkpt lat="47.81971" lon="1.77407">
        <ele>91</ele>
        <time>2017-11-08T13:03:02Z</time>
      </trkpt>
      <trkpt lat="47.81973" lon="1.77414">
        <ele>91</ele>
        <time>2017-11-08T13:03:03Z</time>
      </trkpt>
      <trkpt lat="47.81976" lon="1.7742">
        <ele>92</ele>
        <time>2017-11-08T13:03:04Z</time>
      </trkpt>
      <trkpt lat="47.81978" lon="1.77426">
        <ele>92</ele>
        <time>2017-11-08T13:03:05Z</time>
      </trkpt>
      <trkpt lat="47.8198" lon="1.77432">
        <ele>92</ele>
        <time>2017-11-08T13:03:06Z</time>
      </trkpt>
      <trkpt lat="47.81982" lon="1.77438">
        <ele>92</ele>
        <time>2017-11-08T13:03:07Z</time>
      </trkpt>
      <trkpt lat="47.81984" lon="1.77443">
        <ele>92</ele>
        <time>2017-11-08T13:03:08Z</time>
      </trkpt>
      <trkpt lat="47.81986" lon="1.77448">
        <ele>92</ele>
        <time>2017-11-08T13:03:09Z</time>
      </trkpt>
      <trkpt lat="47.81987" lon="1.77454">
        <ele>92</ele>
        <time>2017-11-08T13:03:10Z</time>
      </trkpt>
      <trkpt lat="47.81988" lon="1.7746">
        <ele>92</ele>
        <time>2017-11-08T13:03:11Z</time>
      </trkpt>
      <trkpt lat="47.8199" lon="1.77466">
        <ele>92</ele>
        <time>2017-11-08T13:03:12Z</time>
      </trkpt>
      <trkpt lat="47.81991" lon="1.77472">
        <ele>92</ele>
        <time>2017-11-08T13:03:13Z</time>
      </trkpt>
      <trkpt lat="47.81992" lon="1.77477">
        <ele>92</ele>
        <time>2017-11-08T13:03:14Z</time>
      </trkpt>
      <trkpt lat="47.81993" lon="1.77483">
        <ele>92</ele>
        <time>2017-11-08T13:03:15Z</time>
      </trkpt>
      <trkpt lat="47.81994" lon="1.77488">
        <ele>92</ele>
        <time>2017-11-08T13:03:16Z</time>
      </trkpt>
      <trkpt lat="47.81995" lon="1.77493">
        <ele>93</ele>
        <time>2017-11-08T13:03:17Z</time>
      </trkpt>
      <trkpt lat="47.81994" lon="1.77497">
        <ele>93</ele>
        <time>2017-11-08T13:03:18Z</time>
      </trkpt>
      <trkpt lat="47.81992" lon="1.77502">
        <ele>92</ele>
        <time>2017-11-08T13:03:20Z</time>
      </trkpt>
      <trkpt lat="47.81987" lon="1.77506">
        <ele>92</ele>
        <time>2017-11-08T13:03:22Z</time>
      </trkpt>
      <trkpt lat="47.81983" lon="1.77509">
        <ele>92</ele>
        <time>2017-11-08T13:03:24Z</time>
      </trkpt>
      <trkpt lat="47.8198" lon="1.77513">
        <ele>92</ele>
        <time>2017-11-08T13:03:25Z</time>
      </trkpt>
      <trkpt lat="47.81976" lon="1.77516">
        <ele>92</ele>
        <time>2017-11-08T13:03:26Z</time>
      </trkpt>
      <trkpt lat="47.81972" lon="1.77518">
        <ele>92</ele>
        <time>2017-11-08T13:03:27Z</time>
      </trkpt>
      <trkpt lat="47.81967" lon="1.77522">
        <ele>92</ele>
        <time>2017-11-08T13:03:28Z</time>
      </trkpt>
      <trkpt lat="47.81963" lon="1.77525">
        <ele>91</ele>
        <time>2017-11-08T13:03:29Z</time>
      </trkpt>
      <trkpt lat="47.81959" lon="1.77528">
        <ele>91</ele>
        <time>2017-11-08T13:03:30Z</time>
      </trkpt>
      <trkpt lat="47.81954" lon="1.77531">
        <ele>91</ele>
        <time>2017-11-08T13:03:31Z</time>
      </trkpt>
      <trkpt lat="47.8195" lon="1.77534">
        <ele>91</ele>
        <time>2017-11-08T13:03:32Z</time>
      </trkpt>
      <trkpt lat="47.81943" lon="1.7754">
        <ele>91</ele>
        <time>2017-11-08T13:03:33Z</time>
      </trkpt>
      <trkpt lat="47.81937" lon="1.77544">
        <ele>91</ele>
        <time>2017-11-08T13:03:34Z</time>
      </trkpt>
      <trkpt lat="47.81932" lon="1.77547">
        <ele>91</ele>
        <time>2017-11-08T13:03:35Z</time>
      </trkpt>
      <trkpt lat="47.81928" lon="1.77548">
        <ele>91</ele>
        <time>2017-11-08T13:03:36Z</time>
      </trkpt>
      <trkpt lat="47.81924" lon="1.77549">
        <ele>91</ele>
        <time>2017-11-08T13:03:37Z</time>
      </trkpt>
      <trkpt lat="47.8192" lon="1.77549">
        <ele>91</ele>
        <time>2017-11-08T13:03:38Z</time>
      </trkpt>
      <trkpt lat="47.81916" lon="1.77552">
        <ele>91</ele>
        <time>2017-11-08T13:03:39Z</time>
      </trkpt>
      <trkpt lat="47.81908" lon="1.77559">
        <ele>91</ele>
        <time>2017-11-08T13:03:40Z</time>
      </trkpt>
      <trkpt lat="47.81904" lon="1.77561">
        <ele>91</ele>
        <time>2017-11-08T13:03:41Z</time>
      </trkpt>
      <trkpt lat="47.81899" lon="1.77564">
        <ele>91</ele>
        <time>2017-11-08T13:03:42Z</time>
      </trkpt>
      <trkpt lat="47.81895" lon="1.77567">
        <ele>91</ele>
        <time>2017-11-08T13:03:43Z</time>
      </trkpt>
      <trkpt lat="47.81892" lon="1.77571">
        <ele>91</ele>
        <time>2017-11-08T13:03:44Z</time>
      </trkpt>
      <trkpt lat="47.81888" lon="1.77574">
        <ele>91</ele>
        <time>2017-11-08T13:03:45Z</time>
      </trkpt>
      <trkpt lat="47.81884" lon="1.77578">
        <ele>91</ele>
        <time>2017-11-08T13:03:46Z</time>
      </trkpt>
      <trkpt lat="47.8188" lon="1.77581">
        <ele>91</ele>
        <time>2017-11-08T13:03:47Z</time>
      </trkpt>
      <trkpt lat="47.81875" lon="1.77585">
        <ele>90</ele>
        <time>2017-11-08T13:03:48Z</time>
      </trkpt>
      <trkpt lat="47.81871" lon="1.77588">
        <ele>91</ele>
        <time>2017-11-08T13:03:49Z</time>
      </trkpt>
      <trkpt lat="47.81867" lon="1.77591">
        <ele>91</ele>
        <time>2017-11-08T13:03:50Z</time>
      </trkpt>
      <trkpt lat="47.81862" lon="1.77594">
        <ele>91</ele>
        <time>2017-11-08T13:03:51Z</time>
      </trkpt>
      <trkpt lat="47.81858" lon="1.77598">
        <ele>91</ele>
        <time>2017-11-08T13:03:52Z</time>
      </trkpt>
      <trkpt lat="47.81854" lon="1.77602">
        <ele>91</ele>
        <time>2017-11-08T13:03:53Z</time>
      </trkpt>
      <trkpt lat="47.81849" lon="1.77605">
        <ele>91</ele>
        <time>2017-11-08T13:03:54Z</time>
      </trkpt>
      <trkpt lat="47.81844" lon="1.77608">
        <ele>91</ele>
        <time>2017-11-08T13:03:55Z</time>
      </trkpt>
      <trkpt lat="47.8184" lon="1.77611">
        <ele>91</ele>
        <time>2017-11-08T13:03:56Z</time>
      </trkpt>
      <trkpt lat="47.81835" lon="1.77614">
        <ele>91</ele>
        <time>2017-11-08T13:03:57Z</time>
      </trkpt>
      <trkpt lat="47.8183" lon="1.77617">
        <ele>92</ele>
        <time>2017-11-08T13:03:58Z</time>
      </trkpt>
      <trkpt lat="47.81825" lon="1.7762">
        <ele>92</ele>
        <time>2017-11-08T13:03:59Z</time>
      </trkpt>
      <trkpt lat="47.8182" lon="1.77623">
        <ele>92</ele>
        <time>2017-11-08T13:04:00Z</time>
      </trkpt>
      <trkpt lat="47.81815" lon="1.77627">
        <ele>92</ele>
        <time>2017-11-08T13:04:01Z</time>
      </trkpt>
      <trkpt lat="47.8181" lon="1.7763">
        <ele>92</ele>
        <time>2017-11-08T13:04:02Z</time>
      </trkpt>
      <trkpt lat="47.81805" lon="1.77633">
        <ele>92</ele>
        <time>2017-11-08T13:04:03Z</time>
      </trkpt>
      <trkpt lat="47.818" lon="1.77635">
        <ele>92</ele>
        <time>2017-11-08T13:04:04Z</time>
      </trkpt>
      <trkpt lat="47.81795" lon="1.77638">
        <ele>92</ele>
        <time>2017-11-08T13:04:05Z</time>
      </trkpt>
      <trkpt lat="47.8179" lon="1.7764">
        <ele>92</ele>
        <time>2017-11-08T13:04:06Z</time>
      </trkpt>
      <trkpt lat="47.81785" lon="1.77643">
        <ele>92</ele>
        <time>2017-11-08T13:04:07Z</time>
      </trkpt>
      <trkpt lat="47.8178" lon="1.77645">
        <ele>92</ele>
        <time>2017-11-08T13:04:08Z</time>
      </trkpt>
      <trkpt lat="47.81775" lon="1.77647">
        <ele>92</ele>
        <time>2017-11-08T13:04:09Z</time>
      </trkpt>
      <trkpt lat="47.8177" lon="1.7765">
        <ele>93</ele>
        <time>2017-11-08T13:04:10Z</time>
      </trkpt>
      <trkpt lat="47.81766" lon="1.77652">
        <ele>93</ele>
        <time>2017-11-08T13:04:11Z</time>
      </trkpt>
      <trkpt lat="47.81762" lon="1.77654">
        <ele>93</ele>
        <time>2017-11-08T13:04:12Z</time>
      </trkpt>
      <trkpt lat="47.81758" lon="1.77655">
        <ele>93</ele>
        <time>2017-11-08T13:04:13Z</time>
      </trkpt>
      <trkpt lat="47.81754" lon="1.77657">
        <ele>93</ele>
        <time>2017-11-08T13:04:14Z</time>
      </trkpt>
      <trkpt lat="47.81749" lon="1.77658">
        <ele>94</ele>
        <time>2017-11-08T13:04:15Z</time>
      </trkpt>
      <trkpt lat="47.81744" lon="1.77659">
        <ele>94</ele>
        <time>2017-11-08T13:04:16Z</time>
      </trkpt>
      <trkpt lat="47.8174" lon="1.77661">
        <ele>94</ele>
        <time>2017-11-08T13:04:17Z</time>
      </trkpt>
      <trkpt lat="47.81735" lon="1.77662">
        <ele>94</ele>
        <time>2017-11-08T13:04:18Z</time>
      </trkpt>
      <trkpt lat="47.8173" lon="1.77664">
        <ele>94</ele>
        <time>2017-11-08T13:04:19Z</time>
      </trkpt>
      <trkpt lat="47.81725" lon="1.77665">
        <ele>95</ele>
        <time>2017-11-08T13:04:20Z</time>
      </trkpt>
      <trkpt lat="47.81721" lon="1.77666">
        <ele>95</ele>
        <time>2017-11-08T13:04:21Z</time>
      </trkpt>
      <trkpt lat="47.81716" lon="1.77667">
        <ele>95</ele>
        <time>2017-11-08T13:04:22Z</time>
      </trkpt>
      <trkpt lat="47.81711" lon="1.77668">
        <ele>95</ele>
        <time>2017-11-08T13:04:23Z</time>
      </trkpt>
      <trkpt lat="47.81707" lon="1.77669">
        <ele>96</ele>
        <time>2017-11-08T13:04:24Z</time>
      </trkpt>
      <trkpt lat="47.81703" lon="1.7767">
        <ele>96</ele>
        <time>2017-11-08T13:04:25Z</time>
      </trkpt>
      <trkpt lat="47.81698" lon="1.77671">
        <ele>96</ele>
        <time>2017-11-08T13:04:26Z</time>
      </trkpt>
      <trkpt lat="47.81693" lon="1.77671">
        <ele>96</ele>
        <time>2017-11-08T13:04:27Z</time>
      </trkpt>
      <trkpt lat="47.81688" lon="1.77672">
        <ele>96</ele>
        <time>2017-11-08T13:04:28Z</time>
      </trkpt>
      <trkpt lat="47.81683" lon="1.77672">
        <ele>96</ele>
        <time>2017-11-08T13:04:29Z</time>
      </trkpt>
      <trkpt lat="47.81678" lon="1.77673">
        <ele>96</ele>
        <time>2017-11-08T13:04:30Z</time>
      </trkpt>
      <trkpt lat="47.81674" lon="1.77673">
        <ele>97</ele>
        <time>2017-11-08T13:04:31Z</time>
      </trkpt>
      <trkpt lat="47.81669" lon="1.77674">
        <ele>97</ele>
        <time>2017-11-08T13:04:32Z</time>
      </trkpt>
      <trkpt lat="47.81665" lon="1.77674">
        <ele>97</ele>
        <time>2017-11-08T13:04:33Z</time>
      </trkpt>
      <trkpt lat="47.8166" lon="1.77675">
        <ele>97</ele>
        <time>2017-11-08T13:04:34Z</time>
      </trkpt>
      <trkpt lat="47.81656" lon="1.77675">
        <ele>97</ele>
        <time>2017-11-08T13:04:35Z</time>
      </trkpt>
      <trkpt lat="47.81651" lon="1.77676">
        <ele>97</ele>
        <time>2017-11-08T13:04:36Z</time>
      </trkpt>
      <trkpt lat="47.81647" lon="1.77677">
        <ele>97</ele>
        <time>2017-11-08T13:04:37Z</time>
      </trkpt>
      <trkpt lat="47.81643" lon="1.77677">
        <ele>97</ele>
        <time>2017-11-08T13:04:38Z</time>
      </trkpt>
      <trkpt lat="47.81639" lon="1.77678">
        <ele>97</ele>
        <time>2017-11-08T13:04:39Z</time>
      </trkpt>
      <trkpt lat="47.81635" lon="1.77679">
        <ele>97</ele>
        <time>2017-11-08T13:04:40Z</time>
      </trkpt>
      <trkpt lat="47.81631" lon="1.77679">
        <ele>97</ele>
        <time>2017-11-08T13:04:41Z</time>
      </trkpt>
      <trkpt lat="47.81627" lon="1.7768">
        <ele>97</ele>
        <time>2017-11-08T13:04:42Z</time>
      </trkpt>
      <trkpt lat="47.81624" lon="1.7768">
        <ele>97</ele>
        <time>2017-11-08T13:04:43Z</time>
      </trkpt>
      <trkpt lat="47.81621" lon="1.77681">
        <ele>97</ele>
        <time>2017-11-08T13:04:44Z</time>
      </trkpt>
      <trkpt lat="47.81618" lon="1.77682">
        <ele>97</ele>
        <time>2017-11-08T13:04:45Z</time>
      </trkpt>
      <trkpt lat="47.81613" lon="1.77684">
        <ele>97</ele>
        <time>2017-11-08T13:04:47Z</time>
      </trkpt>
      <trkpt lat="47.81612" lon="1.77688">
        <ele>97</ele>
        <time>2017-11-08T13:04:49Z</time>
      </trkpt>
      <trkpt lat="47.81609" lon="1.77687">
        <ele>97</ele>
        <time>2017-11-08T13:04:51Z</time>
      </trkpt>
      <trkpt lat="47.81603" lon="1.77687">
        <ele>97</ele>
        <time>2017-11-08T13:04:53Z</time>
      </trkpt>
      <trkpt lat="47.816" lon="1.77687">
        <ele>97</ele>
        <time>2017-11-08T13:04:54Z</time>
      </trkpt>
      <trkpt lat="47.81597" lon="1.77688">
        <ele>97</ele>
        <time>2017-11-08T13:04:55Z</time>
      </trkpt>
      <trkpt lat="47.81594" lon="1.77689">
        <ele>97</ele>
        <time>2017-11-08T13:04:56Z</time>
      </trkpt>
      <trkpt lat="47.81591" lon="1.77689">
        <ele>97</ele>
        <time>2017-11-08T13:04:57Z</time>
      </trkpt>
      <trkpt lat="47.81588" lon="1.7769">
        <ele>97</ele>
        <time>2017-11-08T13:04:58Z</time>
      </trkpt>
      <trkpt lat="47.81584" lon="1.77691">
        <ele>97</ele>
        <time>2017-11-08T13:04:59Z</time>
      </trkpt>
      <trkpt lat="47.8158" lon="1.77691">
        <ele>97</ele>
        <time>2017-11-08T13:05:00Z</time>
      </trkpt>
      <trkpt lat="47.81576" lon="1.77692">
        <ele>97</ele>
        <time>2017-11-08T13:05:01Z</time>
      </trkpt>
      <trkpt lat="47.81572" lon="1.77693">
        <ele>97</ele>
        <time>2017-11-08T13:05:02Z</time>
      </trkpt>
      <trkpt lat="47.81569" lon="1.77695">
        <ele>97</ele>
        <time>2017-11-08T13:05:03Z</time>
      </trkpt>
      <trkpt lat="47.81565" lon="1.77696">
        <ele>97</ele>
        <time>2017-11-08T13:05:04Z</time>
      </trkpt>
      <trkpt lat="47.81561" lon="1.77697">
        <ele>97</ele>
        <time>2017-11-08T13:05:05Z</time>
      </trkpt>
      <trkpt lat="47.81557" lon="1.77697">
        <ele>97</ele>
        <time>2017-11-08T13:05:06Z</time>
      </trkpt>
      <trkpt lat="47.81553" lon="1.77698">
        <ele>97</ele>
        <time>2017-11-08T13:05:07Z</time>
      </trkpt>
      <trkpt lat="47.81549" lon="1.77699">
        <ele>97</ele>
        <time>2017-11-08T13:05:08Z</time>
      </trkpt>
      <trkpt lat="47.81545" lon="1.777">
        <ele>97</ele>
        <time>2017-11-08T13:05:09Z</time>
      </trkpt>
      <trkpt lat="47.8154" lon="1.77701">
        <ele>97</ele>
        <time>2017-11-08T13:05:10Z</time>
      </trkpt>
      <trkpt lat="47.81536" lon="1.77702">
        <ele>97</ele>
        <time>2017-11-08T13:05:11Z</time>
      </trkpt>
      <trkpt lat="47.81531" lon="1.77703">
        <ele>97</ele>
        <time>2017-11-08T13:05:12Z</time>
      </trkpt>
      <trkpt lat="47.81527" lon="1.77703">
        <ele>97</ele>
        <time>2017-11-08T13:05:13Z</time>
      </trkpt>
      <trkpt lat="47.81522" lon="1.77704">
        <ele>97</ele>
        <time>2017-11-08T13:05:14Z</time>
      </trkpt>
      <trkpt lat="47.81517" lon="1.77705">
        <ele>97</ele>
        <time>2017-11-08T13:05:15Z</time>
      </trkpt>
      <trkpt lat="47.81513" lon="1.77707">
        <ele>97</ele>
        <time>2017-11-08T13:05:16Z</time>
      </trkpt>
      <trkpt lat="47.81508" lon="1.77708">
        <ele>97</ele>
        <time>2017-11-08T13:05:17Z</time>
      </trkpt>
      <trkpt lat="47.81504" lon="1.77709">
        <ele>97</ele>
        <time>2017-11-08T13:05:18Z</time>
      </trkpt>
      <trkpt lat="47.815" lon="1.77709">
        <ele>97</ele>
        <time>2017-11-08T13:05:19Z</time>
      </trkpt>
      <trkpt lat="47.81496" lon="1.7771">
        <ele>97</ele>
        <time>2017-11-08T13:05:20Z</time>
      </trkpt>
      <trkpt lat="47.81492" lon="1.77711">
        <ele>98</ele>
        <time>2017-11-08T13:05:21Z</time>
      </trkpt>
      <trkpt lat="47.81487" lon="1.77713">
        <ele>98</ele>
        <time>2017-11-08T13:05:22Z</time>
      </trkpt>
      <trkpt lat="47.81483" lon="1.77713">
        <ele>98</ele>
        <time>2017-11-08T13:05:23Z</time>
      </trkpt>
      <trkpt lat="47.81479" lon="1.77714">
        <ele>98</ele>
        <time>2017-11-08T13:05:24Z</time>
      </trkpt>
      <trkpt lat="47.81475" lon="1.77715">
        <ele>98</ele>
        <time>2017-11-08T13:05:25Z</time>
      </trkpt>
      <trkpt lat="47.8147" lon="1.77716">
        <ele>98</ele>
        <time>2017-11-08T13:05:26Z</time>
      </trkpt>
      <trkpt lat="47.81466" lon="1.77717">
        <ele>98</ele>
        <time>2017-11-08T13:05:27Z</time>
      </trkpt>
      <trkpt lat="47.81461" lon="1.77718">
        <ele>98</ele>
        <time>2017-11-08T13:05:28Z</time>
      </trkpt>
      <trkpt lat="47.81457" lon="1.77718">
        <ele>98</ele>
        <time>2017-11-08T13:05:29Z</time>
      </trkpt>
      <trkpt lat="47.81452" lon="1.77719">
        <ele>98</ele>
        <time>2017-11-08T13:05:30Z</time>
      </trkpt>
      <trkpt lat="47.81447" lon="1.77719">
        <ele>98</ele>
        <time>2017-11-08T13:05:31Z</time>
      </trkpt>
      <trkpt lat="47.81443" lon="1.7772">
        <ele>98</ele>
        <time>2017-11-08T13:05:32Z</time>
      </trkpt>
      <trkpt lat="47.81438" lon="1.77721">
        <ele>98</ele>
        <time>2017-11-08T13:05:33Z</time>
      </trkpt>
      <trkpt lat="47.81434" lon="1.77721">
        <ele>98</ele>
        <time>2017-11-08T13:05:34Z</time>
      </trkpt>
      <trkpt lat="47.81429" lon="1.77722">
        <ele>98</ele>
        <time>2017-11-08T13:05:35Z</time>
      </trkpt>
      <trkpt lat="47.81425" lon="1.77722">
        <ele>98</ele>
        <time>2017-11-08T13:05:36Z</time>
      </trkpt>
      <trkpt lat="47.81421" lon="1.77723">
        <ele>99</ele>
        <time>2017-11-08T13:05:37Z</time>
      </trkpt>
      <trkpt lat="47.81416" lon="1.77723">
        <ele>101</ele>
        <time>2017-11-08T13:05:38Z</time>
      </trkpt>
      <trkpt lat="47.81412" lon="1.77724">
        <ele>101</ele>
        <time>2017-11-08T13:05:39Z</time>
      </trkpt>
      <trkpt lat="47.81407" lon="1.77725">
        <ele>101</ele>
        <time>2017-11-08T13:05:40Z</time>
      </trkpt>
      <trkpt lat="47.81403" lon="1.77725">
        <ele>101</ele>
        <time>2017-11-08T13:05:41Z</time>
      </trkpt>
      <trkpt lat="47.81399" lon="1.77725">
        <ele>101</ele>
        <time>2017-11-08T13:05:42Z</time>
      </trkpt>
      <trkpt lat="47.81395" lon="1.77725">
        <ele>101</ele>
        <time>2017-11-08T13:05:43Z</time>
      </trkpt>
      <trkpt lat="47.81392" lon="1.77725">
        <ele>101</ele>
        <time>2017-11-08T13:05:44Z</time>
      </trkpt>
      <trkpt lat="47.81388" lon="1.77725">
        <ele>101</ele>
        <time>2017-11-08T13:05:45Z</time>
      </trkpt>
      <trkpt lat="47.81385" lon="1.77725">
        <ele>101</ele>
        <time>2017-11-08T13:05:46Z</time>
      </trkpt>
      <trkpt lat="47.81382" lon="1.77725">
        <ele>101</ele>
        <time>2017-11-08T13:05:47Z</time>
      </trkpt>
      <trkpt lat="47.81378" lon="1.77725">
        <ele>101</ele>
        <time>2017-11-08T13:05:48Z</time>
      </trkpt>
      <trkpt lat="47.81376" lon="1.77725">
        <ele>101</ele>
        <time>2017-11-08T13:05:49Z</time>
      </trkpt>
      <trkpt lat="47.81372" lon="1.77726">
        <ele>102</ele>
        <time>2017-11-08T13:05:50Z</time>
      </trkpt>
      <trkpt lat="47.81369" lon="1.77726">
        <ele>102</ele>
        <time>2017-11-08T13:05:51Z</time>
      </trkpt>
      <trkpt lat="47.81366" lon="1.77727">
        <ele>102</ele>
        <time>2017-11-08T13:05:52Z</time>
      </trkpt>
      <trkpt lat="47.81363" lon="1.77728">
        <ele>102</ele>
        <time>2017-11-08T13:05:53Z</time>
      </trkpt>
      <trkpt lat="47.8136" lon="1.77729">
        <ele>102</ele>
        <time>2017-11-08T13:05:54Z</time>
      </trkpt>
      <trkpt lat="47.81356" lon="1.77729">
        <ele>102</ele>
        <time>2017-11-08T13:05:55Z</time>
      </trkpt>
      <trkpt lat="47.81353" lon="1.77729">
        <ele>102</ele>
        <time>2017-11-08T13:05:56Z</time>
      </trkpt>
      <trkpt lat="47.81349" lon="1.77729">
        <ele>102</ele>
        <time>2017-11-08T13:05:57Z</time>
      </trkpt>
      <trkpt lat="47.81345" lon="1.7773">
        <ele>102</ele>
        <time>2017-11-08T13:05:58Z</time>
      </trkpt>
      <trkpt lat="47.81339" lon="1.7773">
        <ele>102</ele>
        <time>2017-11-08T13:06:00Z</time>
      </trkpt>
      <trkpt lat="47.81336" lon="1.77731">
        <ele>102</ele>
        <time>2017-11-08T13:06:01Z</time>
      </trkpt>
      <trkpt lat="47.81332" lon="1.77731">
        <ele>103</ele>
        <time>2017-11-08T13:06:02Z</time>
      </trkpt>
      <trkpt lat="47.81327" lon="1.7773">
        <ele>103</ele>
        <time>2017-11-08T13:06:04Z</time>
      </trkpt>
      <trkpt lat="47.81324" lon="1.77731">
        <ele>103</ele>
        <time>2017-11-08T13:06:05Z</time>
      </trkpt>
      <trkpt lat="47.8132" lon="1.77732">
        <ele>103</ele>
        <time>2017-11-08T13:06:06Z</time>
      </trkpt>
      <trkpt lat="47.81315" lon="1.77734">
        <ele>103</ele>
        <time>2017-11-08T13:06:07Z</time>
      </trkpt>
      <trkpt lat="47.81311" lon="1.77736">
        <ele>103</ele>
        <time>2017-11-08T13:06:08Z</time>
      </trkpt>
      <trkpt lat="47.81306" lon="1.77737">
        <ele>104</ele>
        <time>2017-11-08T13:06:09Z</time>
      </trkpt>
      <trkpt lat="47.81301" lon="1.77738">
        <ele>104</ele>
        <time>2017-11-08T13:06:10Z</time>
      </trkpt>
      <trkpt lat="47.81297" lon="1.77739">
        <ele>104</ele>
        <time>2017-11-08T13:06:11Z</time>
      </trkpt>
      <trkpt lat="47.81293" lon="1.77739">
        <ele>104</ele>
        <time>2017-11-08T13:06:12Z</time>
      </trkpt>
      <trkpt lat="47.81289" lon="1.77739">
        <ele>104</ele>
        <time>2017-11-08T13:06:13Z</time>
      </trkpt>
      <trkpt lat="47.81284" lon="1.77741">
        <ele>104</ele>
        <time>2017-11-08T13:06:14Z</time>
      </trkpt>
      <trkpt lat="47.81279" lon="1.77742">
        <ele>104</ele>
        <time>2017-11-08T13:06:15Z</time>
      </trkpt>
      <trkpt lat="47.81275" lon="1.77744">
        <ele>104</ele>
        <time>2017-11-08T13:06:16Z</time>
      </trkpt>
      <trkpt lat="47.81271" lon="1.77745">
        <ele>104</ele>
        <time>2017-11-08T13:06:17Z</time>
      </trkpt>
      <trkpt lat="47.81267" lon="1.77746">
        <ele>104</ele>
        <time>2017-11-08T13:06:18Z</time>
      </trkpt>
      <trkpt lat="47.81263" lon="1.77748">
        <ele>103</ele>
        <time>2017-11-08T13:06:19Z</time>
      </trkpt>
      <trkpt lat="47.81259" lon="1.7775">
        <ele>103</ele>
        <time>2017-11-08T13:06:20Z</time>
      </trkpt>
      <trkpt lat="47.81254" lon="1.77752">
        <ele>103</ele>
        <time>2017-11-08T13:06:21Z</time>
      </trkpt>
      <trkpt lat="47.8125" lon="1.77753">
        <ele>103</ele>
        <time>2017-11-08T13:06:22Z</time>
      </trkpt>
      <trkpt lat="47.81246" lon="1.77755">
        <ele>103</ele>
        <time>2017-11-08T13:06:23Z</time>
      </trkpt>
      <trkpt lat="47.81242" lon="1.77757">
        <ele>103</ele>
        <time>2017-11-08T13:06:24Z</time>
      </trkpt>
      <trkpt lat="47.81237" lon="1.77759">
        <ele>103</ele>
        <time>2017-11-08T13:06:25Z</time>
      </trkpt>
      <trkpt lat="47.81233" lon="1.7776">
        <ele>103</ele>
        <time>2017-11-08T13:06:26Z</time>
      </trkpt>
      <trkpt lat="47.81229" lon="1.77762">
        <ele>103</ele>
        <time>2017-11-08T13:06:27Z</time>
      </trkpt>
      <trkpt lat="47.81224" lon="1.77763">
        <ele>103</ele>
        <time>2017-11-08T13:06:28Z</time>
      </trkpt>
      <trkpt lat="47.8122" lon="1.77764">
        <ele>103</ele>
        <time>2017-11-08T13:06:29Z</time>
      </trkpt>
      <trkpt lat="47.81215" lon="1.77766">
        <ele>103</ele>
        <time>2017-11-08T13:06:30Z</time>
      </trkpt>
      <trkpt lat="47.8121" lon="1.77769">
        <ele>103</ele>
        <time>2017-11-08T13:06:31Z</time>
      </trkpt>
      <trkpt lat="47.81207" lon="1.77771">
        <ele>103</ele>
        <time>2017-11-08T13:06:32Z</time>
      </trkpt>
      <trkpt lat="47.81203" lon="1.77773">
        <ele>103</ele>
        <time>2017-11-08T13:06:33Z</time>
      </trkpt>
      <trkpt lat="47.81199" lon="1.77774">
        <ele>103</ele>
        <time>2017-11-08T13:06:34Z</time>
      </trkpt>
      <trkpt lat="47.81195" lon="1.77775">
        <ele>103</ele>
        <time>2017-11-08T13:06:35Z</time>
      </trkpt>
      <trkpt lat="47.81191" lon="1.77776">
        <ele>104</ele>
        <time>2017-11-08T13:06:36Z</time>
      </trkpt>
      <trkpt lat="47.81186" lon="1.77777">
        <ele>104</ele>
        <time>2017-11-08T13:06:37Z</time>
      </trkpt>
      <trkpt lat="47.8118" lon="1.7778">
        <ele>104</ele>
        <time>2017-11-08T13:06:38Z</time>
      </trkpt>
      <trkpt lat="47.81177" lon="1.77781">
        <ele>104</ele>
        <time>2017-11-08T13:06:39Z</time>
      </trkpt>
      <trkpt lat="47.81173" lon="1.77782">
        <ele>104</ele>
        <time>2017-11-08T13:06:40Z</time>
      </trkpt>
      <trkpt lat="47.81168" lon="1.77783">
        <ele>104</ele>
        <time>2017-11-08T13:06:41Z</time>
      </trkpt>
      <trkpt lat="47.81163" lon="1.77784">
        <ele>104</ele>
        <time>2017-11-08T13:06:42Z</time>
      </trkpt>
      <trkpt lat="47.81159" lon="1.77785">
        <ele>104</ele>
        <time>2017-11-08T13:06:43Z</time>
      </trkpt>
      <trkpt lat="47.81154" lon="1.77786">
        <ele>104</ele>
        <time>2017-11-08T13:06:44Z</time>
      </trkpt>
      <trkpt lat="47.81149" lon="1.77785">
        <ele>104</ele>
        <time>2017-11-08T13:06:45Z</time>
      </trkpt>
      <trkpt lat="47.81144" lon="1.77787">
        <ele>104</ele>
        <time>2017-11-08T13:06:46Z</time>
      </trkpt>
      <trkpt lat="47.8114" lon="1.77789">
        <ele>104</ele>
        <time>2017-11-08T13:06:47Z</time>
      </trkpt>
      <trkpt lat="47.81135" lon="1.7779">
        <ele>104</ele>
        <time>2017-11-08T13:06:48Z</time>
      </trkpt>
      <trkpt lat="47.81131" lon="1.77792">
        <ele>104</ele>
        <time>2017-11-08T13:06:49Z</time>
      </trkpt>
      <trkpt lat="47.81126" lon="1.77793">
        <ele>104</ele>
        <time>2017-11-08T13:06:50Z</time>
      </trkpt>
      <trkpt lat="47.8112" lon="1.77797">
        <ele>104</ele>
        <time>2017-11-08T13:06:51Z</time>
      </trkpt>
      <trkpt lat="47.81115" lon="1.77798">
        <ele>104</ele>
        <time>2017-11-08T13:06:52Z</time>
      </trkpt>
      <trkpt lat="47.81109" lon="1.77802">
        <ele>104</ele>
        <time>2017-11-08T13:06:53Z</time>
      </trkpt>
      <trkpt lat="47.81104" lon="1.77806">
        <ele>104</ele>
        <time>2017-11-08T13:06:54Z</time>
      </trkpt>
      <trkpt lat="47.81099" lon="1.7781">
        <ele>104</ele>
        <time>2017-11-08T13:06:55Z</time>
      </trkpt>
      <trkpt lat="47.81094" lon="1.77812">
        <ele>104</ele>
        <time>2017-11-08T13:06:56Z</time>
      </trkpt>
      <trkpt lat="47.81089" lon="1.77814">
        <ele>104</ele>
        <time>2017-11-08T13:06:57Z</time>
      </trkpt>
      <trkpt lat="47.81085" lon="1.77816">
        <ele>104</ele>
        <time>2017-11-08T13:06:58Z</time>
      </trkpt>
      <trkpt lat="47.8108" lon="1.77818">
        <ele>104</ele>
        <time>2017-11-08T13:06:59Z</time>
      </trkpt>
      <trkpt lat="47.81076" lon="1.77821">
        <ele>104</ele>
        <time>2017-11-08T13:07:00Z</time>
      </trkpt>
      <trkpt lat="47.81072" lon="1.77822">
        <ele>104</ele>
        <time>2017-11-08T13:07:01Z</time>
      </trkpt>
      <trkpt lat="47.81067" lon="1.77825">
        <ele>104</ele>
        <time>2017-11-08T13:07:02Z</time>
      </trkpt>
      <trkpt lat="47.81062" lon="1.77827">
        <ele>104</ele>
        <time>2017-11-08T13:07:03Z</time>
      </trkpt>
      <trkpt lat="47.81058" lon="1.77828">
        <ele>105</ele>
        <time>2017-11-08T13:07:04Z</time>
      </trkpt>
      <trkpt lat="47.81053" lon="1.7783">
        <ele>105</ele>
        <time>2017-11-08T13:07:05Z</time>
      </trkpt>
      <trkpt lat="47.81048" lon="1.77832">
        <ele>105</ele>
        <time>2017-11-08T13:07:06Z</time>
      </trkpt>
      <trkpt lat="47.81042" lon="1.77834">
        <ele>103</ele>
        <time>2017-11-08T13:07:07Z</time>
      </trkpt>
      <trkpt lat="47.81037" lon="1.77836">
        <ele>103</ele>
        <time>2017-11-08T13:07:08Z</time>
      </trkpt>
      <trkpt lat="47.81033" lon="1.77837">
        <ele>103</ele>
        <time>2017-11-08T13:07:09Z</time>
      </trkpt>
      <trkpt lat="47.81029" lon="1.77837">
        <ele>103</ele>
        <time>2017-11-08T13:07:10Z</time>
      </trkpt>
      <trkpt lat="47.81025" lon="1.77838">
        <ele>104</ele>
        <time>2017-11-08T13:07:11Z</time>
      </trkpt>
      <trkpt lat="47.81021" lon="1.7784">
        <ele>104</ele>
        <time>2017-11-08T13:07:12Z</time>
      </trkpt>
      <trkpt lat="47.81017" lon="1.77841">
        <ele>104</ele>
        <time>2017-11-08T13:07:13Z</time>
      </trkpt>
      <trkpt lat="47.81013" lon="1.77842">
        <ele>104</ele>
        <time>2017-11-08T13:07:14Z</time>
      </trkpt>
      <trkpt lat="47.81009" lon="1.77843">
        <ele>104</ele>
        <time>2017-11-08T13:07:15Z</time>
      </trkpt>
      <trkpt lat="47.81006" lon="1.77844">
        <ele>104</ele>
        <time>2017-11-08T13:07:16Z</time>
      </trkpt>
      <trkpt lat="47.81002" lon="1.77845">
        <ele>105</ele>
        <time>2017-11-08T13:07:17Z</time>
      </trkpt>
      <trkpt lat="47.80998" lon="1.77847">
        <ele>105</ele>
        <time>2017-11-08T13:07:18Z</time>
      </trkpt>
      <trkpt lat="47.80992" lon="1.77848">
        <ele>104</ele>
        <time>2017-11-08T13:07:19Z</time>
      </trkpt>
      <trkpt lat="47.80985" lon="1.77851">
        <ele>104</ele>
        <time>2017-11-08T13:07:20Z</time>
      </trkpt>
      <trkpt lat="47.80978" lon="1.77853">
        <ele>104</ele>
        <time>2017-11-08T13:07:21Z</time>
      </trkpt>
      <trkpt lat="47.80973" lon="1.77855">
        <ele>103</ele>
        <time>2017-11-08T13:07:22Z</time>
      </trkpt>
      <trkpt lat="47.8097" lon="1.77856">
        <ele>103</ele>
        <time>2017-11-08T13:07:23Z</time>
      </trkpt>
      <trkpt lat="47.80965" lon="1.77857">
        <ele>103</ele>
        <time>2017-11-08T13:07:24Z</time>
      </trkpt>
      <trkpt lat="47.8096" lon="1.77858">
        <ele>103</ele>
        <time>2017-11-08T13:07:25Z</time>
      </trkpt>
      <trkpt lat="47.80957" lon="1.77859">
        <ele>103</ele>
        <time>2017-11-08T13:07:26Z</time>
      </trkpt>
      <trkpt lat="47.80954" lon="1.77859">
        <ele>103</ele>
        <time>2017-11-08T13:07:27Z</time>
      </trkpt>
      <trkpt lat="47.8095" lon="1.7786">
        <ele>103</ele>
        <time>2017-11-08T13:07:28Z</time>
      </trkpt>
      <trkpt lat="47.80946" lon="1.77862">
        <ele>103</ele>
        <time>2017-11-08T13:07:29Z</time>
      </trkpt>
      <trkpt lat="47.8094" lon="1.77863">
        <ele>103</ele>
        <time>2017-11-08T13:07:30Z</time>
      </trkpt>
      <trkpt lat="47.80934" lon="1.77866">
        <ele>103</ele>
        <time>2017-11-08T13:07:31Z</time>
      </trkpt>
      <trkpt lat="47.80928" lon="1.77869">
        <ele>103</ele>
        <time>2017-11-08T13:07:32Z</time>
      </trkpt>
      <trkpt lat="47.80923" lon="1.7787">
        <ele>103</ele>
        <time>2017-11-08T13:07:33Z</time>
      </trkpt>
      <trkpt lat="47.80919" lon="1.77871">
        <ele>103</ele>
        <time>2017-11-08T13:07:34Z</time>
      </trkpt>
      <trkpt lat="47.80914" lon="1.77871">
        <ele>101</ele>
        <time>2017-11-08T13:07:35Z</time>
      </trkpt>
      <trkpt lat="47.80908" lon="1.77873">
        <ele>101</ele>
        <time>2017-11-08T13:07:36Z</time>
      </trkpt>
      <trkpt lat="47.809" lon="1.77876">
        <ele>101</ele>
        <time>2017-11-08T13:07:37Z</time>
      </trkpt>
      <trkpt lat="47.80897" lon="1.77876">
        <ele>100</ele>
        <time>2017-11-08T13:07:38Z</time>
      </trkpt>
      <trkpt lat="47.80892" lon="1.77877">
        <ele>100</ele>
        <time>2017-11-08T13:07:39Z</time>
      </trkpt>
      <trkpt lat="47.80887" lon="1.77879">
        <ele>100</ele>
        <time>2017-11-08T13:07:40Z</time>
      </trkpt>
      <trkpt lat="47.80883" lon="1.77879">
        <ele>100</ele>
        <time>2017-11-08T13:07:41Z</time>
      </trkpt>
      <trkpt lat="47.80878" lon="1.7788">
        <ele>100</ele>
        <time>2017-11-08T13:07:42Z</time>
      </trkpt>
      <trkpt lat="47.80874" lon="1.77881">
        <ele>100</ele>
        <time>2017-11-08T13:07:43Z</time>
      </trkpt>
      <trkpt lat="47.80869" lon="1.77883">
        <ele>100</ele>
        <time>2017-11-08T13:07:44Z</time>
      </trkpt>
      <trkpt lat="47.80865" lon="1.77885">
        <ele>100</ele>
        <time>2017-11-08T13:07:45Z</time>
      </trkpt>
      <trkpt lat="47.80861" lon="1.77886">
        <ele>99</ele>
        <time>2017-11-08T13:07:46Z</time>
      </trkpt>
      <trkpt lat="47.80856" lon="1.77889">
        <ele>99</ele>
        <time>2017-11-08T13:07:47Z</time>
      </trkpt>
      <trkpt lat="47.80851" lon="1.77892">
        <ele>99</ele>
        <time>2017-11-08T13:07:48Z</time>
      </trkpt>
      <trkpt lat="47.80847" lon="1.77895">
        <ele>99</ele>
        <time>2017-11-08T13:07:49Z</time>
      </trkpt>
      <trkpt lat="47.80842" lon="1.77897">
        <ele>99</ele>
        <time>2017-11-08T13:07:50Z</time>
      </trkpt>
      <trkpt lat="47.80837" lon="1.77899">
        <ele>98</ele>
        <time>2017-11-08T13:07:51Z</time>
      </trkpt>
      <trkpt lat="47.80833" lon="1.779">
        <ele>98</ele>
        <time>2017-11-08T13:07:52Z</time>
      </trkpt>
      <trkpt lat="47.80828" lon="1.77902">
        <ele>98</ele>
        <time>2017-11-08T13:07:53Z</time>
      </trkpt>
      <trkpt lat="47.80824" lon="1.77903">
        <ele>98</ele>
        <time>2017-11-08T13:07:54Z</time>
      </trkpt>
      <trkpt lat="47.8082" lon="1.77904">
        <ele>98</ele>
        <time>2017-11-08T13:07:55Z</time>
      </trkpt>
      <trkpt lat="47.80816" lon="1.77906">
        <ele>98</ele>
        <time>2017-11-08T13:07:56Z</time>
      </trkpt>
      <trkpt lat="47.80813" lon="1.77908">
        <ele>98</ele>
        <time>2017-11-08T13:07:57Z</time>
      </trkpt>
      <trkpt lat="47.80809" lon="1.77911">
        <ele>98</ele>
        <time>2017-11-08T13:07:58Z</time>
      </trkpt>
      <trkpt lat="47.80805" lon="1.77913">
        <ele>98</ele>
        <time>2017-11-08T13:07:59Z</time>
      </trkpt>
      <trkpt lat="47.80802" lon="1.77916">
        <ele>98</ele>
        <time>2017-11-08T13:08:00Z</time>
      </trkpt>
      <trkpt lat="47.80798" lon="1.77918">
        <ele>98</ele>
        <time>2017-11-08T13:08:01Z</time>
      </trkpt>
      <trkpt lat="47.80794" lon="1.7792">
        <ele>98</ele>
        <time>2017-11-08T13:08:02Z</time>
      </trkpt>
      <trkpt lat="47.8079" lon="1.77922">
        <ele>98</ele>
        <time>2017-11-08T13:08:03Z</time>
      </trkpt>
      <trkpt lat="47.80787" lon="1.77925">
        <ele>98</ele>
        <time>2017-11-08T13:08:04Z</time>
      </trkpt>
      <trkpt lat="47.80782" lon="1.77928">
        <ele>98</ele>
        <time>2017-11-08T13:08:05Z</time>
      </trkpt>
      <trkpt lat="47.80778" lon="1.7793">
        <ele>98</ele>
        <time>2017-11-08T13:08:06Z</time>
      </trkpt>
      <trkpt lat="47.80775" lon="1.77933">
        <ele>98</ele>
        <time>2017-11-08T13:08:07Z</time>
      </trkpt>
      <trkpt lat="47.80771" lon="1.77936">
        <ele>98</ele>
        <time>2017-11-08T13:08:08Z</time>
      </trkpt>
      <trkpt lat="47.80767" lon="1.77939">
        <ele>98</ele>
        <time>2017-11-08T13:08:09Z</time>
      </trkpt>
      <trkpt lat="47.80763" lon="1.77942">
        <ele>98</ele>
        <time>2017-11-08T13:08:10Z</time>
      </trkpt>
      <trkpt lat="47.80759" lon="1.77945">
        <ele>98</ele>
        <time>2017-11-08T13:08:11Z</time>
      </trkpt>
      <trkpt lat="47.80755" lon="1.77948">
        <ele>98</ele>
        <time>2017-11-08T13:08:12Z</time>
      </trkpt>
      <trkpt lat="47.80751" lon="1.7795">
        <ele>98</ele>
        <time>2017-11-08T13:08:13Z</time>
      </trkpt>
      <trkpt lat="47.80747" lon="1.77953">
        <ele>98</ele>
        <time>2017-11-08T13:08:14Z</time>
      </trkpt>
      <trkpt lat="47.80743" lon="1.77955">
        <ele>98</ele>
        <time>2017-11-08T13:08:15Z</time>
      </trkpt>
      <trkpt lat="47.80738" lon="1.77958">
        <ele>98</ele>
        <time>2017-11-08T13:08:16Z</time>
      </trkpt>
      <trkpt lat="47.80735" lon="1.7796">
        <ele>98</ele>
        <time>2017-11-08T13:08:17Z</time>
      </trkpt>
      <trkpt lat="47.80731" lon="1.77963">
        <ele>98</ele>
        <time>2017-11-08T13:08:18Z</time>
      </trkpt>
      <trkpt lat="47.80726" lon="1.77965">
        <ele>98</ele>
        <time>2017-11-08T13:08:19Z</time>
      </trkpt>
      <trkpt lat="47.80722" lon="1.77968">
        <ele>98</ele>
        <time>2017-11-08T13:08:20Z</time>
      </trkpt>
      <trkpt lat="47.80718" lon="1.77971">
        <ele>98</ele>
        <time>2017-11-08T13:08:21Z</time>
      </trkpt>
      <trkpt lat="47.80713" lon="1.77973">
        <ele>98</ele>
        <time>2017-11-08T13:08:22Z</time>
      </trkpt>
      <trkpt lat="47.80709" lon="1.77976">
        <ele>98</ele>
        <time>2017-11-08T13:08:23Z</time>
      </trkpt>
      <trkpt lat="47.80705" lon="1.77979">
        <ele>98</ele>
        <time>2017-11-08T13:08:24Z</time>
      </trkpt>
      <trkpt lat="47.80701" lon="1.77981">
        <ele>98</ele>
        <time>2017-11-08T13:08:25Z</time>
      </trkpt>
      <trkpt lat="47.80697" lon="1.77984">
        <ele>98</ele>
        <time>2017-11-08T13:08:26Z</time>
      </trkpt>
      <trkpt lat="47.80693" lon="1.77986">
        <ele>98</ele>
        <time>2017-11-08T13:08:27Z</time>
      </trkpt>
      <trkpt lat="47.80689" lon="1.77989">
        <ele>98</ele>
        <time>2017-11-08T13:08:28Z</time>
      </trkpt>
      <trkpt lat="47.80685" lon="1.77991">
        <ele>98</ele>
        <time>2017-11-08T13:08:29Z</time>
      </trkpt>
      <trkpt lat="47.80681" lon="1.77993">
        <ele>98</ele>
        <time>2017-11-08T13:08:30Z</time>
      </trkpt>
      <trkpt lat="47.80677" lon="1.77996">
        <ele>97</ele>
        <time>2017-11-08T13:08:31Z</time>
      </trkpt>
      <trkpt lat="47.80673" lon="1.77998">
        <ele>97</ele>
        <time>2017-11-08T13:08:32Z</time>
      </trkpt>
      <trkpt lat="47.80669" lon="1.78001">
        <ele>97</ele>
        <time>2017-11-08T13:08:33Z</time>
      </trkpt>
      <trkpt lat="47.80664" lon="1.78003">
        <ele>97</ele>
        <time>2017-11-08T13:08:34Z</time>
      </trkpt>
      <trkpt lat="47.80661" lon="1.78006">
        <ele>97</ele>
        <time>2017-11-08T13:08:35Z</time>
      </trkpt>
      <trkpt lat="47.80657" lon="1.78008">
        <ele>97</ele>
        <time>2017-11-08T13:08:36Z</time>
      </trkpt>
      <trkpt lat="47.80653" lon="1.7801">
        <ele>97</ele>
        <time>2017-11-08T13:08:37Z</time>
      </trkpt>
      <trkpt lat="47.80649" lon="1.78012">
        <ele>97</ele>
        <time>2017-11-08T13:08:38Z</time>
      </trkpt>
      <trkpt lat="47.80645" lon="1.78015">
        <ele>97</ele>
        <time>2017-11-08T13:08:39Z</time>
      </trkpt>
      <trkpt lat="47.8064" lon="1.78017">
        <ele>97</ele>
        <time>2017-11-08T13:08:40Z</time>
      </trkpt>
      <trkpt lat="47.80636" lon="1.78019">
        <ele>97</ele>
        <time>2017-11-08T13:08:41Z</time>
      </trkpt>
      <trkpt lat="47.80632" lon="1.78021">
        <ele>97</ele>
        <time>2017-11-08T13:08:42Z</time>
      </trkpt>
      <trkpt lat="47.80628" lon="1.78023">
        <ele>97</ele>
        <time>2017-11-08T13:08:43Z</time>
      </trkpt>
      <trkpt lat="47.80624" lon="1.78024">
        <ele>97</ele>
        <time>2017-11-08T13:08:44Z</time>
      </trkpt>
      <trkpt lat="47.8062" lon="1.78024">
        <ele>97</ele>
        <time>2017-11-08T13:08:45Z</time>
      </trkpt>
      <trkpt lat="47.80616" lon="1.78026">
        <ele>97</ele>
        <time>2017-11-08T13:08:46Z</time>
      </trkpt>
      <trkpt lat="47.80612" lon="1.78027">
        <ele>97</ele>
        <time>2017-11-08T13:08:47Z</time>
      </trkpt>
      <trkpt lat="47.80607" lon="1.78028">
        <ele>97</ele>
        <time>2017-11-08T13:08:48Z</time>
      </trkpt>
      <trkpt lat="47.80603" lon="1.7803">
        <ele>97</ele>
        <time>2017-11-08T13:08:49Z</time>
      </trkpt>
      <trkpt lat="47.80599" lon="1.78031">
        <ele>97</ele>
        <time>2017-11-08T13:08:50Z</time>
      </trkpt>
      <trkpt lat="47.80595" lon="1.78033">
        <ele>97</ele>
        <time>2017-11-08T13:08:51Z</time>
      </trkpt>
      <trkpt lat="47.80592" lon="1.78034">
        <ele>97</ele>
        <time>2017-11-08T13:08:52Z</time>
      </trkpt>
      <trkpt lat="47.80588" lon="1.78036">
        <ele>97</ele>
        <time>2017-11-08T13:08:53Z</time>
      </trkpt>
      <trkpt lat="47.80584" lon="1.78037">
        <ele>97</ele>
        <time>2017-11-08T13:08:54Z</time>
      </trkpt>
      <trkpt lat="47.8058" lon="1.78039">
        <ele>98</ele>
        <time>2017-11-08T13:08:55Z</time>
      </trkpt>
      <trkpt lat="47.80576" lon="1.7804">
        <ele>98</ele>
        <time>2017-11-08T13:08:56Z</time>
      </trkpt>
      <trkpt lat="47.80572" lon="1.78042">
        <ele>98</ele>
        <time>2017-11-08T13:08:57Z</time>
      </trkpt>
      <trkpt lat="47.80568" lon="1.78043">
        <ele>98</ele>
        <time>2017-11-08T13:08:58Z</time>
      </trkpt>
      <trkpt lat="47.80564" lon="1.78045">
        <ele>98</ele>
        <time>2017-11-08T13:08:59Z</time>
      </trkpt>
      <trkpt lat="47.8056" lon="1.78046">
        <ele>98</ele>
        <time>2017-11-08T13:09:00Z</time>
      </trkpt>
      <trkpt lat="47.80556" lon="1.78047">
        <ele>98</ele>
        <time>2017-11-08T13:09:01Z</time>
      </trkpt>
      <trkpt lat="47.80551" lon="1.78049">
        <ele>98</ele>
        <time>2017-11-08T13:09:02Z</time>
      </trkpt>
      <trkpt lat="47.80547" lon="1.78051">
        <ele>98</ele>
        <time>2017-11-08T13:09:03Z</time>
      </trkpt>
      <trkpt lat="47.80543" lon="1.78052">
        <ele>98</ele>
        <time>2017-11-08T13:09:04Z</time>
      </trkpt>
      <trkpt lat="47.80539" lon="1.78054">
        <ele>98</ele>
        <time>2017-11-08T13:09:05Z</time>
      </trkpt>
      <trkpt lat="47.80534" lon="1.78055">
        <ele>98</ele>
        <time>2017-11-08T13:09:06Z</time>
      </trkpt>
      <trkpt lat="47.8053" lon="1.78056">
        <ele>99</ele>
        <time>2017-11-08T13:09:07Z</time>
      </trkpt>
      <trkpt lat="47.80526" lon="1.78058">
        <ele>99</ele>
        <time>2017-11-08T13:09:08Z</time>
      </trkpt>
      <trkpt lat="47.80522" lon="1.7806">
        <ele>99</ele>
        <time>2017-11-08T13:09:09Z</time>
      </trkpt>
      <trkpt lat="47.80518" lon="1.78062">
        <ele>99</ele>
        <time>2017-11-08T13:09:10Z</time>
      </trkpt>
      <trkpt lat="47.80514" lon="1.78064">
        <ele>99</ele>
        <time>2017-11-08T13:09:11Z</time>
      </trkpt>
      <trkpt lat="47.80509" lon="1.78065">
        <ele>99</ele>
        <time>2017-11-08T13:09:12Z</time>
      </trkpt>
      <trkpt lat="47.80505" lon="1.78067">
        <ele>99</ele>
        <time>2017-11-08T13:09:13Z</time>
      </trkpt>
      <trkpt lat="47.80501" lon="1.78068">
        <ele>99</ele>
        <time>2017-11-08T13:09:14Z</time>
      </trkpt>
      <trkpt lat="47.80497" lon="1.7807">
        <ele>99</ele>
        <time>2017-11-08T13:09:15Z</time>
      </trkpt>
      <trkpt lat="47.80493" lon="1.78071">
        <ele>99</ele>
        <time>2017-11-08T13:09:16Z</time>
      </trkpt>
      <trkpt lat="47.80489" lon="1.78073">
        <ele>99</ele>
        <time>2017-11-08T13:09:17Z</time>
      </trkpt>
      <trkpt lat="47.80485" lon="1.78075">
        <ele>99</ele>
        <time>2017-11-08T13:09:18Z</time>
      </trkpt>
      <trkpt lat="47.80481" lon="1.78077">
        <ele>99</ele>
        <time>2017-11-08T13:09:19Z</time>
      </trkpt>
      <trkpt lat="47.80477" lon="1.78079">
        <ele>99</ele>
        <time>2017-11-08T13:09:20Z</time>
      </trkpt>
      <trkpt lat="47.80473" lon="1.78081">
        <ele>99</ele>
        <time>2017-11-08T13:09:21Z</time>
      </trkpt>
      <trkpt lat="47.80469" lon="1.78082">
        <ele>99</ele>
        <time>2017-11-08T13:09:22Z</time>
      </trkpt>
      <trkpt lat="47.80466" lon="1.78084">
        <ele>99</ele>
        <time>2017-11-08T13:09:23Z</time>
      </trkpt>
      <trkpt lat="47.80462" lon="1.78086">
        <ele>99</ele>
        <time>2017-11-08T13:09:24Z</time>
      </trkpt>
      <trkpt lat="47.80458" lon="1.78088">
        <ele>99</ele>
        <time>2017-11-08T13:09:25Z</time>
      </trkpt>
      <trkpt lat="47.80454" lon="1.7809">
        <ele>98</ele>
        <time>2017-11-08T13:09:26Z</time>
      </trkpt>
      <trkpt lat="47.8045" lon="1.78091">
        <ele>98</ele>
        <time>2017-11-08T13:09:27Z</time>
      </trkpt>
      <trkpt lat="47.80446" lon="1.78093">
        <ele>98</ele>
        <time>2017-11-08T13:09:28Z</time>
      </trkpt>
      <trkpt lat="47.80442" lon="1.78095">
        <ele>98</ele>
        <time>2017-11-08T13:09:29Z</time>
      </trkpt>
      <trkpt lat="47.80438" lon="1.78097">
        <ele>98</ele>
        <time>2017-11-08T13:09:30Z</time>
      </trkpt>
      <trkpt lat="47.80434" lon="1.78099">
        <ele>98</ele>
        <time>2017-11-08T13:09:31Z</time>
      </trkpt>
      <trkpt lat="47.8043" lon="1.781">
        <ele>98</ele>
        <time>2017-11-08T13:09:32Z</time>
      </trkpt>
      <trkpt lat="47.80426" lon="1.78102">
        <ele>98</ele>
        <time>2017-11-08T13:09:33Z</time>
      </trkpt>
      <trkpt lat="47.80422" lon="1.78103">
        <ele>98</ele>
        <time>2017-11-08T13:09:34Z</time>
      </trkpt>
      <trkpt lat="47.80419" lon="1.78105">
        <ele>98</ele>
        <time>2017-11-08T13:09:35Z</time>
      </trkpt>
      <trkpt lat="47.80415" lon="1.78107">
        <ele>98</ele>
        <time>2017-11-08T13:09:36Z</time>
      </trkpt>
      <trkpt lat="47.80411" lon="1.78109">
        <ele>98</ele>
        <time>2017-11-08T13:09:37Z</time>
      </trkpt>
      <trkpt lat="47.80407" lon="1.7811">
        <ele>98</ele>
        <time>2017-11-08T13:09:38Z</time>
      </trkpt>
      <trkpt lat="47.80403" lon="1.78112">
        <ele>98</ele>
        <time>2017-11-08T13:09:39Z</time>
      </trkpt>
      <trkpt lat="47.80399" lon="1.78114">
        <ele>98</ele>
        <time>2017-11-08T13:09:40Z</time>
      </trkpt>
      <trkpt lat="47.80395" lon="1.78115">
        <ele>99</ele>
        <time>2017-11-08T13:09:41Z</time>
      </trkpt>
      <trkpt lat="47.80391" lon="1.78117">
        <ele>99</ele>
        <time>2017-11-08T13:09:42Z</time>
      </trkpt>
      <trkpt lat="47.80387" lon="1.78119">
        <ele>99</ele>
        <time>2017-11-08T13:09:43Z</time>
      </trkpt>
      <trkpt lat="47.80383" lon="1.78121">
        <ele>99</ele>
        <time>2017-11-08T13:09:44Z</time>
      </trkpt>
      <trkpt lat="47.80379" lon="1.78123">
        <ele>99</ele>
        <time>2017-11-08T13:09:45Z</time>
      </trkpt>
      <trkpt lat="47.80375" lon="1.78125">
        <ele>99</ele>
        <time>2017-11-08T13:09:46Z</time>
      </trkpt>
      <trkpt lat="47.80371" lon="1.78126">
        <ele>99</ele>
        <time>2017-11-08T13:09:47Z</time>
      </trkpt>
      <trkpt lat="47.80367" lon="1.78128">
        <ele>99</ele>
        <time>2017-11-08T13:09:48Z</time>
      </trkpt>
      <trkpt lat="47.80364" lon="1.78129">
        <ele>99</ele>
        <time>2017-11-08T13:09:49Z</time>
      </trkpt>
      <trkpt lat="47.8036" lon="1.78131">
        <ele>99</ele>
        <time>2017-11-08T13:09:50Z</time>
      </trkpt>
      <trkpt lat="47.80357" lon="1.78132">
        <ele>99</ele>
        <time>2017-11-08T13:09:51Z</time>
      </trkpt>
      <trkpt lat="47.80354" lon="1.78134">
        <ele>99</ele>
        <time>2017-11-08T13:09:52Z</time>
      </trkpt>
      <trkpt lat="47.8035" lon="1.78135">
        <ele>99</ele>
        <time>2017-11-08T13:09:53Z</time>
      </trkpt>
      <trkpt lat="47.80347" lon="1.78137">
        <ele>99</ele>
        <time>2017-11-08T13:09:54Z</time>
      </trkpt>
      <trkpt lat="47.80345" lon="1.78139">
        <ele>99</ele>
        <time>2017-11-08T13:09:55Z</time>
      </trkpt>
      <trkpt lat="47.80342" lon="1.7814">
        <ele>99</ele>
        <time>2017-11-08T13:09:56Z</time>
      </trkpt>
      <trkpt lat="47.80339" lon="1.78144">
        <ele>99</ele>
        <time>2017-11-08T13:09:58Z</time>
      </trkpt>
      <trkpt lat="47.80337" lon="1.78146">
        <ele>99</ele>
        <time>2017-11-08T13:10:00Z</time>
      </trkpt>
      <trkpt lat="47.80334" lon="1.78149">
        <ele>99</ele>
        <time>2017-11-08T13:10:02Z</time>
      </trkpt>
      <trkpt lat="47.80335" lon="1.78154">
        <ele>100</ele>
        <time>2017-11-08T13:10:05Z</time>
      </trkpt>
      <trkpt lat="47.8034" lon="1.78157">
        <ele>100</ele>
        <time>2017-11-08T13:10:07Z</time>
      </trkpt>
      <trkpt lat="47.80344" lon="1.78159">
        <ele>99</ele>
        <time>2017-11-08T13:10:08Z</time>
      </trkpt>
      <trkpt lat="47.80347" lon="1.7816">
        <ele>99</ele>
        <time>2017-11-08T13:10:09Z</time>
      </trkpt>
      <trkpt lat="47.80351" lon="1.78162">
        <ele>99</ele>
        <time>2017-11-08T13:10:10Z</time>
      </trkpt>
      <trkpt lat="47.80356" lon="1.78163">
        <ele>99</ele>
        <time>2017-11-08T13:10:11Z</time>
      </trkpt>
      <trkpt lat="47.8036" lon="1.78165">
        <ele>99</ele>
        <time>2017-11-08T13:10:12Z</time>
      </trkpt>
      <trkpt lat="47.80366" lon="1.78166">
        <ele>99</ele>
        <time>2017-11-08T13:10:13Z</time>
      </trkpt>
      <trkpt lat="47.8037" lon="1.78167">
        <ele>98</ele>
        <time>2017-11-08T13:10:14Z</time>
      </trkpt>
      <trkpt lat="47.80374" lon="1.78169">
        <ele>98</ele>
        <time>2017-11-08T13:10:15Z</time>
      </trkpt>
      <trkpt lat="47.8038" lon="1.78171">
        <ele>98</ele>
        <time>2017-11-08T13:10:16Z</time>
      </trkpt>
      <trkpt lat="47.80385" lon="1.78173">
        <ele>98</ele>
        <time>2017-11-08T13:10:17Z</time>
      </trkpt>
      <trkpt lat="47.80391" lon="1.78176">
        <ele>98</ele>
        <time>2017-11-08T13:10:18Z</time>
      </trkpt>
      <trkpt lat="47.80397" lon="1.78178">
        <ele>98</ele>
        <time>2017-11-08T13:10:19Z</time>
      </trkpt>
      <trkpt lat="47.80403" lon="1.7818">
        <ele>98</ele>
        <time>2017-11-08T13:10:20Z</time>
      </trkpt>
      <trkpt lat="47.80408" lon="1.78183">
        <ele>98</ele>
        <time>2017-11-08T13:10:21Z</time>
      </trkpt>
      <trkpt lat="47.80413" lon="1.78185">
        <ele>98</ele>
        <time>2017-11-08T13:10:22Z</time>
      </trkpt>
      <trkpt lat="47.80419" lon="1.78187">
        <ele>97</ele>
        <time>2017-11-08T13:10:23Z</time>
      </trkpt>
      <trkpt lat="47.80424" lon="1.78189">
        <ele>97</ele>
        <time>2017-11-08T13:10:24Z</time>
      </trkpt>
      <trkpt lat="47.80429" lon="1.78191">
        <ele>98</ele>
        <time>2017-11-08T13:10:25Z</time>
      </trkpt>
      <trkpt lat="47.80433" lon="1.78192">
        <ele>98</ele>
        <time>2017-11-08T13:10:26Z</time>
      </trkpt>
      <trkpt lat="47.80438" lon="1.78194">
        <ele>98</ele>
        <time>2017-11-08T13:10:27Z</time>
      </trkpt>
      <trkpt lat="47.80443" lon="1.78196">
        <ele>98</ele>
        <time>2017-11-08T13:10:28Z</time>
      </trkpt>
      <trkpt lat="47.80448" lon="1.78199">
        <ele>98</ele>
        <time>2017-11-08T13:10:29Z</time>
      </trkpt>
      <trkpt lat="47.80453" lon="1.782">
        <ele>98</ele>
        <time>2017-11-08T13:10:30Z</time>
      </trkpt>
      <trkpt lat="47.80458" lon="1.78203">
        <ele>98</ele>
        <time>2017-11-08T13:10:31Z</time>
      </trkpt>
      <trkpt lat="47.80463" lon="1.78204">
        <ele>98</ele>
        <time>2017-11-08T13:10:32Z</time>
      </trkpt>
      <trkpt lat="47.80467" lon="1.78206">
        <ele>98</ele>
        <time>2017-11-08T13:10:33Z</time>
      </trkpt>
      <trkpt lat="47.80472" lon="1.78208">
        <ele>98</ele>
        <time>2017-11-08T13:10:34Z</time>
      </trkpt>
      <trkpt lat="47.80477" lon="1.7821">
        <ele>98</ele>
        <time>2017-11-08T13:10:35Z</time>
      </trkpt>
      <trkpt lat="47.80481" lon="1.78212">
        <ele>98</ele>
        <time>2017-11-08T13:10:36Z</time>
      </trkpt>
      <trkpt lat="47.80486" lon="1.78214">
        <ele>98</ele>
        <time>2017-11-08T13:10:37Z</time>
      </trkpt>
      <trkpt lat="47.80491" lon="1.78216">
        <ele>98</ele>
        <time>2017-11-08T13:10:38Z</time>
      </trkpt>
      <trkpt lat="47.80496" lon="1.78218">
        <ele>98</ele>
        <time>2017-11-08T13:10:39Z</time>
      </trkpt>
      <trkpt lat="47.805" lon="1.7822">
        <ele>98</ele>
        <time>2017-11-08T13:10:40Z</time>
      </trkpt>
      <trkpt lat="47.80504" lon="1.78222">
        <ele>98</ele>
        <time>2017-11-08T13:10:41Z</time>
      </trkpt>
      <trkpt lat="47.80508" lon="1.78224">
        <ele>98</ele>
        <time>2017-11-08T13:10:42Z</time>
      </trkpt>
      <trkpt lat="47.80513" lon="1.78225">
        <ele>98</ele>
        <time>2017-11-08T13:10:43Z</time>
      </trkpt>
      <trkpt lat="47.80517" lon="1.78228">
        <ele>98</ele>
        <time>2017-11-08T13:10:44Z</time>
      </trkpt>
      <trkpt lat="47.80522" lon="1.7823">
        <ele>98</ele>
        <time>2017-11-08T13:10:45Z</time>
      </trkpt>
      <trkpt lat="47.80527" lon="1.78232">
        <ele>98</ele>
        <time>2017-11-08T13:10:46Z</time>
      </trkpt>
      <trkpt lat="47.80532" lon="1.78234">
        <ele>98</ele>
        <time>2017-11-08T13:10:47Z</time>
      </trkpt>
      <trkpt lat="47.80536" lon="1.78236">
        <ele>98</ele>
        <time>2017-11-08T13:10:48Z</time>
      </trkpt>
      <trkpt lat="47.80542" lon="1.78238">
        <ele>98</ele>
        <time>2017-11-08T13:10:49Z</time>
      </trkpt>
      <trkpt lat="47.80547" lon="1.78241">
        <ele>98</ele>
        <time>2017-11-08T13:10:50Z</time>
      </trkpt>
      <trkpt lat="47.80552" lon="1.78243">
        <ele>98</ele>
        <time>2017-11-08T13:10:51Z</time>
      </trkpt>
      <trkpt lat="47.80557" lon="1.78245">
        <ele>98</ele>
        <time>2017-11-08T13:10:52Z</time>
      </trkpt>
      <trkpt lat="47.80563" lon="1.78248">
        <ele>99</ele>
        <time>2017-11-08T13:10:53Z</time>
      </trkpt>
      <trkpt lat="47.80567" lon="1.7825">
        <ele>100</ele>
        <time>2017-11-08T13:10:54Z</time>
      </trkpt>
      <trkpt lat="47.80572" lon="1.78253">
        <ele>100</ele>
        <time>2017-11-08T13:10:55Z</time>
      </trkpt>
      <trkpt lat="47.80576" lon="1.78255">
        <ele>99</ele>
        <time>2017-11-08T13:10:56Z</time>
      </trkpt>
      <trkpt lat="47.80581" lon="1.78257">
        <ele>99</ele>
        <time>2017-11-08T13:10:57Z</time>
      </trkpt>
      <trkpt lat="47.80586" lon="1.7826">
        <ele>100</ele>
        <time>2017-11-08T13:10:58Z</time>
      </trkpt>
      <trkpt lat="47.80591" lon="1.78263">
        <ele>100</ele>
        <time>2017-11-08T13:10:59Z</time>
      </trkpt>
      <trkpt lat="47.80595" lon="1.78265">
        <ele>101</ele>
        <time>2017-11-08T13:11:00Z</time>
      </trkpt>
      <trkpt lat="47.806" lon="1.78268">
        <ele>101</ele>
        <time>2017-11-08T13:11:01Z</time>
      </trkpt>
      <trkpt lat="47.80604" lon="1.78271">
        <ele>101</ele>
        <time>2017-11-08T13:11:02Z</time>
      </trkpt>
      <trkpt lat="47.80609" lon="1.78273">
        <ele>101</ele>
        <time>2017-11-08T13:11:03Z</time>
      </trkpt>
      <trkpt lat="47.80615" lon="1.78276">
        <ele>101</ele>
        <time>2017-11-08T13:11:04Z</time>
      </trkpt>
      <trkpt lat="47.80619" lon="1.78279">
        <ele>101</ele>
        <time>2017-11-08T13:11:05Z</time>
      </trkpt>
      <trkpt lat="47.80624" lon="1.78282">
        <ele>102</ele>
        <time>2017-11-08T13:11:06Z</time>
      </trkpt>
      <trkpt lat="47.80629" lon="1.78285">
        <ele>102</ele>
        <time>2017-11-08T13:11:07Z</time>
      </trkpt>
      <trkpt lat="47.80633" lon="1.78288">
        <ele>102</ele>
        <time>2017-11-08T13:11:08Z</time>
      </trkpt>
      <trkpt lat="47.80638" lon="1.78292">
        <ele>102</ele>
        <time>2017-11-08T13:11:09Z</time>
      </trkpt>
      <trkpt lat="47.80643" lon="1.78296">
        <ele>102</ele>
        <time>2017-11-08T13:11:10Z</time>
      </trkpt>
      <trkpt lat="47.80648" lon="1.78299">
        <ele>102</ele>
        <time>2017-11-08T13:11:11Z</time>
      </trkpt>
      <trkpt lat="47.80653" lon="1.78302">
        <ele>102</ele>
        <time>2017-11-08T13:11:12Z</time>
      </trkpt>
      <trkpt lat="47.80657" lon="1.78305">
        <ele>102</ele>
        <time>2017-11-08T13:11:13Z</time>
      </trkpt>
      <trkpt lat="47.80661" lon="1.78308">
        <ele>102</ele>
        <time>2017-11-08T13:11:14Z</time>
      </trkpt>
      <trkpt lat="47.80664" lon="1.78311">
        <ele>102</ele>
        <time>2017-11-08T13:11:15Z</time>
      </trkpt>
      <trkpt lat="47.80668" lon="1.78314">
        <ele>103</ele>
        <time>2017-11-08T13:11:16Z</time>
      </trkpt>
      <trkpt lat="47.80673" lon="1.78316">
        <ele>103</ele>
        <time>2017-11-08T13:11:17Z</time>
      </trkpt>
      <trkpt lat="47.80676" lon="1.78319">
        <ele>103</ele>
        <time>2017-11-08T13:11:18Z</time>
      </trkpt>
      <trkpt lat="47.8068" lon="1.78322">
        <ele>103</ele>
        <time>2017-11-08T13:11:19Z</time>
      </trkpt>
      <trkpt lat="47.80684" lon="1.78325">
        <ele>103</ele>
        <time>2017-11-08T13:11:20Z</time>
      </trkpt>
      <trkpt lat="47.8069" lon="1.78328">
        <ele>103</ele>
        <time>2017-11-08T13:11:21Z</time>
      </trkpt>
      <trkpt lat="47.80695" lon="1.78331">
        <ele>103</ele>
        <time>2017-11-08T13:11:22Z</time>
      </trkpt>
      <trkpt lat="47.80699" lon="1.78335">
        <ele>103</ele>
        <time>2017-11-08T13:11:23Z</time>
      </trkpt>
      <trkpt lat="47.80704" lon="1.78338">
        <ele>103</ele>
        <time>2017-11-08T13:11:24Z</time>
      </trkpt>
      <trkpt lat="47.8071" lon="1.78341">
        <ele>103</ele>
        <time>2017-11-08T13:11:25Z</time>
      </trkpt>
      <trkpt lat="47.80714" lon="1.78344">
        <ele>103</ele>
        <time>2017-11-08T13:11:26Z</time>
      </trkpt>
      <trkpt lat="47.80719" lon="1.78346">
        <ele>103</ele>
        <time>2017-11-08T13:11:27Z</time>
      </trkpt>
      <trkpt lat="47.80724" lon="1.78349">
        <ele>103</ele>
        <time>2017-11-08T13:11:28Z</time>
      </trkpt>
      <trkpt lat="47.80729" lon="1.78352">
        <ele>103</ele>
        <time>2017-11-08T13:11:29Z</time>
      </trkpt>
      <trkpt lat="47.80735" lon="1.78355">
        <ele>103</ele>
        <time>2017-11-08T13:11:30Z</time>
      </trkpt>
      <trkpt lat="47.8074" lon="1.78359">
        <ele>103</ele>
        <time>2017-11-08T13:11:31Z</time>
      </trkpt>
      <trkpt lat="47.80745" lon="1.78362">
        <ele>103</ele>
        <time>2017-11-08T13:11:32Z</time>
      </trkpt>
      <trkpt lat="47.80751" lon="1.78366">
        <ele>102</ele>
        <time>2017-11-08T13:11:33Z</time>
      </trkpt>
      <trkpt lat="47.80757" lon="1.78369">
        <ele>102</ele>
        <time>2017-11-08T13:11:34Z</time>
      </trkpt>
      <trkpt lat="47.80761" lon="1.78373">
        <ele>102</ele>
        <time>2017-11-08T13:11:35Z</time>
      </trkpt>
      <trkpt lat="47.80766" lon="1.78376">
        <ele>102</ele>
        <time>2017-11-08T13:11:36Z</time>
      </trkpt>
      <trkpt lat="47.80772" lon="1.78379">
        <ele>102</ele>
        <time>2017-11-08T13:11:37Z</time>
      </trkpt>
      <trkpt lat="47.80777" lon="1.78382">
        <ele>102</ele>
        <time>2017-11-08T13:11:38Z</time>
      </trkpt>
      <trkpt lat="47.80782" lon="1.78384">
        <ele>102</ele>
        <time>2017-11-08T13:11:39Z</time>
      </trkpt>
      <trkpt lat="47.80788" lon="1.78388">
        <ele>102</ele>
        <time>2017-11-08T13:11:40Z</time>
      </trkpt>
      <trkpt lat="47.80793" lon="1.7839">
        <ele>102</ele>
        <time>2017-11-08T13:11:41Z</time>
      </trkpt>
      <trkpt lat="47.80798" lon="1.78394">
        <ele>102</ele>
        <time>2017-11-08T13:11:42Z</time>
      </trkpt>
      <trkpt lat="47.80803" lon="1.78398">
        <ele>102</ele>
        <time>2017-11-08T13:11:43Z</time>
      </trkpt>
      <trkpt lat="47.80809" lon="1.78402">
        <ele>102</ele>
        <time>2017-11-08T13:11:44Z</time>
      </trkpt>
      <trkpt lat="47.80815" lon="1.78406">
        <ele>102</ele>
        <time>2017-11-08T13:11:45Z</time>
      </trkpt>
      <trkpt lat="47.8082" lon="1.78409">
        <ele>101</ele>
        <time>2017-11-08T13:11:46Z</time>
      </trkpt>
      <trkpt lat="47.80825" lon="1.78412">
        <ele>101</ele>
        <time>2017-11-08T13:11:47Z</time>
      </trkpt>
      <trkpt lat="47.8083" lon="1.78416">
        <ele>101</ele>
        <time>2017-11-08T13:11:48Z</time>
      </trkpt>
      <trkpt lat="47.80835" lon="1.78418">
        <ele>101</ele>
        <time>2017-11-08T13:11:49Z</time>
      </trkpt>
      <trkpt lat="47.80839" lon="1.78422">
        <ele>101</ele>
        <time>2017-11-08T13:11:50Z</time>
      </trkpt>
      <trkpt lat="47.80843" lon="1.78425">
        <ele>101</ele>
        <time>2017-11-08T13:11:51Z</time>
      </trkpt>
      <trkpt lat="47.80849" lon="1.78428">
        <ele>101</ele>
        <time>2017-11-08T13:11:52Z</time>
      </trkpt>
      <trkpt lat="47.80854" lon="1.78433">
        <ele>101</ele>
        <time>2017-11-08T13:11:53Z</time>
      </trkpt>
      <trkpt lat="47.80858" lon="1.78436">
        <ele>101</ele>
        <time>2017-11-08T13:11:54Z</time>
      </trkpt>
      <trkpt lat="47.80863" lon="1.78439">
        <ele>101</ele>
        <time>2017-11-08T13:11:55Z</time>
      </trkpt>
      <trkpt lat="47.80867" lon="1.78443">
        <ele>101</ele>
        <time>2017-11-08T13:11:56Z</time>
      </trkpt>
      <trkpt lat="47.80872" lon="1.78445">
        <ele>101</ele>
        <time>2017-11-08T13:11:57Z</time>
      </trkpt>
      <trkpt lat="47.80878" lon="1.78448">
        <ele>101</ele>
        <time>2017-11-08T13:11:58Z</time>
      </trkpt>
      <trkpt lat="47.80883" lon="1.78452">
        <ele>101</ele>
        <time>2017-11-08T13:11:59Z</time>
      </trkpt>
      <trkpt lat="47.80888" lon="1.78455">
        <ele>101</ele>
        <time>2017-11-08T13:12:00Z</time>
      </trkpt>
      <trkpt lat="47.80894" lon="1.78459">
        <ele>101</ele>
        <time>2017-11-08T13:12:01Z</time>
      </trkpt>
      <trkpt lat="47.80899" lon="1.78461">
        <ele>101</ele>
        <time>2017-11-08T13:12:02Z</time>
      </trkpt>
      <trkpt lat="47.80905" lon="1.78464">
        <ele>101</ele>
        <time>2017-11-08T13:12:03Z</time>
      </trkpt>
      <trkpt lat="47.80909" lon="1.78466">
        <ele>101</ele>
        <time>2017-11-08T13:12:04Z</time>
      </trkpt>
      <trkpt lat="47.80914" lon="1.78469">
        <ele>101</ele>
        <time>2017-11-08T13:12:05Z</time>
      </trkpt>
      <trkpt lat="47.8092" lon="1.78473">
        <ele>101</ele>
        <time>2017-11-08T13:12:06Z</time>
      </trkpt>
      <trkpt lat="47.80926" lon="1.78477">
        <ele>101</ele>
        <time>2017-11-08T13:12:07Z</time>
      </trkpt>
      <trkpt lat="47.80931" lon="1.78481">
        <ele>101</ele>
        <time>2017-11-08T13:12:08Z</time>
      </trkpt>
      <trkpt lat="47.80937" lon="1.78485">
        <ele>101</ele>
        <time>2017-11-08T13:12:09Z</time>
      </trkpt>
      <trkpt lat="47.80943" lon="1.7849">
        <ele>101</ele>
        <time>2017-11-08T13:12:10Z</time>
      </trkpt>
      <trkpt lat="47.80949" lon="1.78494">
        <ele>101</ele>
        <time>2017-11-08T13:12:11Z</time>
      </trkpt>
      <trkpt lat="47.80956" lon="1.78498">
        <ele>101</ele>
        <time>2017-11-08T13:12:12Z</time>
      </trkpt>
      <trkpt lat="47.80961" lon="1.785">
        <ele>101</ele>
        <time>2017-11-08T13:12:13Z</time>
      </trkpt>
      <trkpt lat="47.80969" lon="1.78503">
        <ele>99</ele>
        <time>2017-11-08T13:12:14Z</time>
      </trkpt>
      <trkpt lat="47.80974" lon="1.78506">
        <ele>99</ele>
        <time>2017-11-08T13:12:15Z</time>
      </trkpt>
      <trkpt lat="47.80979" lon="1.78509">
        <ele>99</ele>
        <time>2017-11-08T13:12:16Z</time>
      </trkpt>
      <trkpt lat="47.80985" lon="1.78512">
        <ele>99</ele>
        <time>2017-11-08T13:12:17Z</time>
      </trkpt>
      <trkpt lat="47.80989" lon="1.78514">
        <ele>99</ele>
        <time>2017-11-08T13:12:18Z</time>
      </trkpt>
      <trkpt lat="47.80994" lon="1.78517">
        <ele>99</ele>
        <time>2017-11-08T13:12:19Z</time>
      </trkpt>
      <trkpt lat="47.80999" lon="1.78521">
        <ele>99</ele>
        <time>2017-11-08T13:12:20Z</time>
      </trkpt>
      <trkpt lat="47.81004" lon="1.78524">
        <ele>98</ele>
        <time>2017-11-08T13:12:21Z</time>
      </trkpt>
      <trkpt lat="47.81009" lon="1.78528">
        <ele>98</ele>
        <time>2017-11-08T13:12:22Z</time>
      </trkpt>
      <trkpt lat="47.81013" lon="1.78533">
        <ele>97</ele>
        <time>2017-11-08T13:12:23Z</time>
      </trkpt>
      <trkpt lat="47.81018" lon="1.78538">
        <ele>97</ele>
        <time>2017-11-08T13:12:24Z</time>
      </trkpt>
      <trkpt lat="47.81023" lon="1.78543">
        <ele>97</ele>
        <time>2017-11-08T13:12:25Z</time>
      </trkpt>
      <trkpt lat="47.81028" lon="1.78549">
        <ele>96</ele>
        <time>2017-11-08T13:12:26Z</time>
      </trkpt>
      <trkpt lat="47.81032" lon="1.78554">
        <ele>96</ele>
        <time>2017-11-08T13:12:27Z</time>
      </trkpt>
      <trkpt lat="47.81037" lon="1.78559">
        <ele>96</ele>
        <time>2017-11-08T13:12:28Z</time>
      </trkpt>
      <trkpt lat="47.81042" lon="1.78564">
        <ele>96</ele>
        <time>2017-11-08T13:12:29Z</time>
      </trkpt>
      <trkpt lat="47.81047" lon="1.78569">
        <ele>96</ele>
        <time>2017-11-08T13:12:30Z</time>
      </trkpt>
      <trkpt lat="47.81052" lon="1.78571">
        <ele>95</ele>
        <time>2017-11-08T13:12:31Z</time>
      </trkpt>
      <trkpt lat="47.81057" lon="1.78574">
        <ele>95</ele>
        <time>2017-11-08T13:12:32Z</time>
      </trkpt>
      <trkpt lat="47.81062" lon="1.78575">
        <ele>95</ele>
        <time>2017-11-08T13:12:33Z</time>
      </trkpt>
      <trkpt lat="47.81067" lon="1.78576">
        <ele>95</ele>
        <time>2017-11-08T13:12:34Z</time>
      </trkpt>
      <trkpt lat="47.81072" lon="1.78576">
        <ele>94</ele>
        <time>2017-11-08T13:12:35Z</time>
      </trkpt>
      <trkpt lat="47.81077" lon="1.78575">
        <ele>94</ele>
        <time>2017-11-08T13:12:36Z</time>
      </trkpt>
      <trkpt lat="47.81082" lon="1.78574">
        <ele>94</ele>
        <time>2017-11-08T13:12:37Z</time>
      </trkpt>
      <trkpt lat="47.81088" lon="1.78573">
        <ele>94</ele>
        <time>2017-11-08T13:12:38Z</time>
      </trkpt>
      <trkpt lat="47.81093" lon="1.78572">
        <ele>94</ele>
        <time>2017-11-08T13:12:39Z</time>
      </trkpt>
      <trkpt lat="47.81098" lon="1.78571">
        <ele>94</ele>
        <time>2017-11-08T13:12:40Z</time>
      </trkpt>
      <trkpt lat="47.81103" lon="1.7857">
        <ele>94</ele>
        <time>2017-11-08T13:12:41Z</time>
      </trkpt>
      <trkpt lat="47.81108" lon="1.7857">
        <ele>94</ele>
        <time>2017-11-08T13:12:42Z</time>
      </trkpt>
      <trkpt lat="47.81112" lon="1.78569">
        <ele>94</ele>
        <time>2017-11-08T13:12:43Z</time>
      </trkpt>
      <trkpt lat="47.81117" lon="1.78569">
        <ele>94</ele>
        <time>2017-11-08T13:12:44Z</time>
      </trkpt>
      <trkpt lat="47.81122" lon="1.7857">
        <ele>94</ele>
        <time>2017-11-08T13:12:45Z</time>
      </trkpt>
      <trkpt lat="47.81126" lon="1.78573">
        <ele>94</ele>
        <time>2017-11-08T13:12:46Z</time>
      </trkpt>
      <trkpt lat="47.8113" lon="1.78578">
        <ele>94</ele>
        <time>2017-11-08T13:12:47Z</time>
      </trkpt>
      <trkpt lat="47.81134" lon="1.78584">
        <ele>93</ele>
        <time>2017-11-08T13:12:48Z</time>
      </trkpt>
      <trkpt lat="47.81138" lon="1.7859">
        <ele>93</ele>
        <time>2017-11-08T13:12:49Z</time>
      </trkpt>
      <trkpt lat="47.8114" lon="1.78599">
        <ele>93</ele>
        <time>2017-11-08T13:12:50Z</time>
      </trkpt>
      <trkpt lat="47.81143" lon="1.78608">
        <ele>93</ele>
        <time>2017-11-08T13:12:51Z</time>
      </trkpt>
      <trkpt lat="47.81145" lon="1.78617">
        <ele>93</ele>
        <time>2017-11-08T13:12:52Z</time>
      </trkpt>
      <trkpt lat="47.81147" lon="1.78626">
        <ele>93</ele>
        <time>2017-11-08T13:12:53Z</time>
      </trkpt>
      <trkpt lat="47.81148" lon="1.78636">
        <ele>93</ele>
        <time>2017-11-08T13:12:54Z</time>
      </trkpt>
      <trkpt lat="47.81149" lon="1.78646">
        <ele>93</ele>
        <time>2017-11-08T13:12:55Z</time>
      </trkpt>
      <trkpt lat="47.81149" lon="1.78656">
        <ele>93</ele>
        <time>2017-11-08T13:12:56Z</time>
      </trkpt>
      <trkpt lat="47.8115" lon="1.78666">
        <ele>93</ele>
        <time>2017-11-08T13:12:57Z</time>
      </trkpt>
      <trkpt lat="47.81149" lon="1.78675">
        <ele>95</ele>
        <time>2017-11-08T13:12:58Z</time>
      </trkpt>
      <trkpt lat="47.8115" lon="1.78683">
        <ele>95</ele>
        <time>2017-11-08T13:12:59Z</time>
      </trkpt>
      <trkpt lat="47.81151" lon="1.78691">
        <ele>95</ele>
        <time>2017-11-08T13:13:00Z</time>
      </trkpt>
      <trkpt lat="47.81152" lon="1.78698">
        <ele>96</ele>
        <time>2017-11-08T13:13:01Z</time>
      </trkpt>
      <trkpt lat="47.81153" lon="1.78705">
        <ele>96</ele>
        <time>2017-11-08T13:13:02Z</time>
      </trkpt>
      <trkpt lat="47.81155" lon="1.78711">
        <ele>96</ele>
        <time>2017-11-08T13:13:03Z</time>
      </trkpt>
      <trkpt lat="47.81157" lon="1.78717">
        <ele>97</ele>
        <time>2017-11-08T13:13:04Z</time>
      </trkpt>
      <trkpt lat="47.81159" lon="1.78722">
        <ele>97</ele>
        <time>2017-11-08T13:13:05Z</time>
      </trkpt>
      <trkpt lat="47.81162" lon="1.78728">
        <ele>98</ele>
        <time>2017-11-08T13:13:06Z</time>
      </trkpt>
      <trkpt lat="47.81166" lon="1.78733">
        <ele>98</ele>
        <time>2017-11-08T13:13:07Z</time>
      </trkpt>
      <trkpt lat="47.8117" lon="1.78739">
        <ele>99</ele>
        <time>2017-11-08T13:13:08Z</time>
      </trkpt>
      <trkpt lat="47.81174" lon="1.78744">
        <ele>99</ele>
        <time>2017-11-08T13:13:09Z</time>
      </trkpt>
      <trkpt lat="47.81177" lon="1.78749">
        <ele>99</ele>
        <time>2017-11-08T13:13:10Z</time>
      </trkpt>
      <trkpt lat="47.8118" lon="1.78754">
        <ele>100</ele>
        <time>2017-11-08T13:13:11Z</time>
      </trkpt>
      <trkpt lat="47.81184" lon="1.78758">
        <ele>101</ele>
        <time>2017-11-08T13:13:12Z</time>
      </trkpt>
      <trkpt lat="47.81187" lon="1.78763">
        <ele>101</ele>
        <time>2017-11-08T13:13:13Z</time>
      </trkpt>
      <trkpt lat="47.8119" lon="1.78769">
        <ele>101</ele>
        <time>2017-11-08T13:13:14Z</time>
      </trkpt>
      <trkpt lat="47.81193" lon="1.78774">
        <ele>101</ele>
        <time>2017-11-08T13:13:15Z</time>
      </trkpt>
      <trkpt lat="47.81195" lon="1.7878">
        <ele>101</ele>
        <time>2017-11-08T13:13:16Z</time>
      </trkpt>
      <trkpt lat="47.81198" lon="1.78785">
        <ele>101</ele>
        <time>2017-11-08T13:13:17Z</time>
      </trkpt>
      <trkpt lat="47.81201" lon="1.7879">
        <ele>101</ele>
        <time>2017-11-08T13:13:18Z</time>
      </trkpt>
      <trkpt lat="47.81203" lon="1.78795">
        <ele>101</ele>
        <time>2017-11-08T13:13:19Z</time>
      </trkpt>
      <trkpt lat="47.81206" lon="1.788">
        <ele>101</ele>
        <time>2017-11-08T13:13:20Z</time>
      </trkpt>
      <trkpt lat="47.81208" lon="1.78805">
        <ele>102</ele>
        <time>2017-11-08T13:13:21Z</time>
      </trkpt>
      <trkpt lat="47.81211" lon="1.7881">
        <ele>102</ele>
        <time>2017-11-08T13:13:22Z</time>
      </trkpt>
      <trkpt lat="47.81214" lon="1.78815">
        <ele>102</ele>
        <time>2017-11-08T13:13:23Z</time>
      </trkpt>
      <trkpt lat="47.81217" lon="1.78821">
        <ele>102</ele>
        <time>2017-11-08T13:13:24Z</time>
      </trkpt>
      <trkpt lat="47.8122" lon="1.78826">
        <ele>102</ele>
        <time>2017-11-08T13:13:25Z</time>
      </trkpt>
      <trkpt lat="47.81222" lon="1.78831">
        <ele>102</ele>
        <time>2017-11-08T13:13:26Z</time>
      </trkpt>
      <trkpt lat="47.81225" lon="1.78836">
        <ele>103</ele>
        <time>2017-11-08T13:13:27Z</time>
      </trkpt>
      <trkpt lat="47.81228" lon="1.78841">
        <ele>103</ele>
        <time>2017-11-08T13:13:28Z</time>
      </trkpt>
      <trkpt lat="47.81231" lon="1.78847">
        <ele>103</ele>
        <time>2017-11-08T13:13:29Z</time>
      </trkpt>
      <trkpt lat="47.81233" lon="1.78852">
        <ele>103</ele>
        <time>2017-11-08T13:13:30Z</time>
      </trkpt>
      <trkpt lat="47.81236" lon="1.78858">
        <ele>103</ele>
        <time>2017-11-08T13:13:31Z</time>
      </trkpt>
      <trkpt lat="47.81239" lon="1.78863">
        <ele>103</ele>
        <time>2017-11-08T13:13:32Z</time>
      </trkpt>
      <trkpt lat="47.81243" lon="1.78869">
        <ele>104</ele>
        <time>2017-11-08T13:13:33Z</time>
      </trkpt>
      <trkpt lat="47.81245" lon="1.78875">
        <ele>104</ele>
        <time>2017-11-08T13:13:34Z</time>
      </trkpt>
      <trkpt lat="47.81249" lon="1.78881">
        <ele>104</ele>
        <time>2017-11-08T13:13:35Z</time>
      </trkpt>
      <trkpt lat="47.81252" lon="1.78887">
        <ele>104</ele>
        <time>2017-11-08T13:13:36Z</time>
      </trkpt>
      <trkpt lat="47.81254" lon="1.78893">
        <ele>104</ele>
        <time>2017-11-08T13:13:37Z</time>
      </trkpt>
      <trkpt lat="47.81257" lon="1.78899">
        <ele>104</ele>
        <time>2017-11-08T13:13:38Z</time>
      </trkpt>
      <trkpt lat="47.81259" lon="1.78904">
        <ele>104</ele>
        <time>2017-11-08T13:13:39Z</time>
      </trkpt>
      <trkpt lat="47.81262" lon="1.7891">
        <ele>104</ele>
        <time>2017-11-08T13:13:40Z</time>
      </trkpt>
      <trkpt lat="47.81264" lon="1.78917">
        <ele>105</ele>
        <time>2017-11-08T13:13:41Z</time>
      </trkpt>
      <trkpt lat="47.81266" lon="1.78923">
        <ele>105</ele>
        <time>2017-11-08T13:13:42Z</time>
      </trkpt>
      <trkpt lat="47.81268" lon="1.78929">
        <ele>105</ele>
        <time>2017-11-08T13:13:43Z</time>
      </trkpt>
      <trkpt lat="47.81271" lon="1.78935">
        <ele>105</ele>
        <time>2017-11-08T13:13:44Z</time>
      </trkpt>
      <trkpt lat="47.81273" lon="1.78941">
        <ele>105</ele>
        <time>2017-11-08T13:13:45Z</time>
      </trkpt>
      <trkpt lat="47.81275" lon="1.78948">
        <ele>105</ele>
        <time>2017-11-08T13:13:46Z</time>
      </trkpt>
      <trkpt lat="47.81278" lon="1.78954">
        <ele>105</ele>
        <time>2017-11-08T13:13:47Z</time>
      </trkpt>
      <trkpt lat="47.81281" lon="1.78959">
        <ele>105</ele>
        <time>2017-11-08T13:13:48Z</time>
      </trkpt>
      <trkpt lat="47.81284" lon="1.78965">
        <ele>105</ele>
        <time>2017-11-08T13:13:49Z</time>
      </trkpt>
      <trkpt lat="47.81287" lon="1.7897">
        <ele>105</ele>
        <time>2017-11-08T13:13:50Z</time>
      </trkpt>
      <trkpt lat="47.8129" lon="1.78975">
        <ele>105</ele>
        <time>2017-11-08T13:13:51Z</time>
      </trkpt>
      <trkpt lat="47.81294" lon="1.78982">
        <ele>105</ele>
        <time>2017-11-08T13:13:52Z</time>
      </trkpt>
      <trkpt lat="47.81296" lon="1.78986">
        <ele>105</ele>
        <time>2017-11-08T13:13:53Z</time>
      </trkpt>
      <trkpt lat="47.81297" lon="1.78989">
        <ele>105</ele>
        <time>2017-11-08T13:13:54Z</time>
      </trkpt>
      <trkpt lat="47.813" lon="1.78995">
        <ele>105</ele>
        <time>2017-11-08T13:13:55Z</time>
      </trkpt>
      <trkpt lat="47.81303" lon="1.78998">
        <ele>106</ele>
        <time>2017-11-08T13:13:56Z</time>
      </trkpt>
      <trkpt lat="47.81306" lon="1.79002">
        <ele>106</ele>
        <time>2017-11-08T13:13:57Z</time>
      </trkpt>
      <trkpt lat="47.81308" lon="1.79007">
        <ele>106</ele>
        <time>2017-11-08T13:13:58Z</time>
      </trkpt>
      <trkpt lat="47.8131" lon="1.79012">
        <ele>106</ele>
        <time>2017-11-08T13:13:59Z</time>
      </trkpt>
      <trkpt lat="47.81312" lon="1.79017">
        <ele>106</ele>
        <time>2017-11-08T13:14:00Z</time>
      </trkpt>
      <trkpt lat="47.81315" lon="1.79022">
        <ele>106</ele>
        <time>2017-11-08T13:14:01Z</time>
      </trkpt>
      <trkpt lat="47.81318" lon="1.79027">
        <ele>106</ele>
        <time>2017-11-08T13:14:02Z</time>
      </trkpt>
      <trkpt lat="47.81321" lon="1.79032">
        <ele>106</ele>
        <time>2017-11-08T13:14:03Z</time>
      </trkpt>
      <trkpt lat="47.81324" lon="1.79036">
        <ele>106</ele>
        <time>2017-11-08T13:14:04Z</time>
      </trkpt>
      <trkpt lat="47.81327" lon="1.7904">
        <ele>107</ele>
        <time>2017-11-08T13:14:05Z</time>
      </trkpt>
      <trkpt lat="47.81329" lon="1.79045">
        <ele>107</ele>
        <time>2017-11-08T13:14:06Z</time>
      </trkpt>
      <trkpt lat="47.81332" lon="1.7905">
        <ele>107</ele>
        <time>2017-11-08T13:14:07Z</time>
      </trkpt>
      <trkpt lat="47.81335" lon="1.79054">
        <ele>107</ele>
        <time>2017-11-08T13:14:08Z</time>
      </trkpt>
      <trkpt lat="47.81339" lon="1.79057">
        <ele>107</ele>
        <time>2017-11-08T13:14:09Z</time>
      </trkpt>
      <trkpt lat="47.81342" lon="1.79062">
        <ele>107</ele>
        <time>2017-11-08T13:14:10Z</time>
      </trkpt>
      <trkpt lat="47.81346" lon="1.79066">
        <ele>107</ele>
        <time>2017-11-08T13:14:11Z</time>
      </trkpt>
      <trkpt lat="47.8135" lon="1.7907">
        <ele>107</ele>
        <time>2017-11-08T13:14:12Z</time>
      </trkpt>
      <trkpt lat="47.81353" lon="1.79075">
        <ele>107</ele>
        <time>2017-11-08T13:14:13Z</time>
      </trkpt>
      <trkpt lat="47.81356" lon="1.79079">
        <ele>107</ele>
        <time>2017-11-08T13:14:14Z</time>
      </trkpt>
      <trkpt lat="47.81359" lon="1.79082">
        <ele>107</ele>
        <time>2017-11-08T13:14:15Z</time>
      </trkpt>
      <trkpt lat="47.81362" lon="1.79087">
        <ele>106</ele>
        <time>2017-11-08T13:14:16Z</time>
      </trkpt>
      <trkpt lat="47.81366" lon="1.79091">
        <ele>106</ele>
        <time>2017-11-08T13:14:17Z</time>
      </trkpt>
      <trkpt lat="47.8137" lon="1.79094">
        <ele>106</ele>
        <time>2017-11-08T13:14:18Z</time>
      </trkpt>
      <trkpt lat="47.81374" lon="1.79097">
        <ele>106</ele>
        <time>2017-11-08T13:14:19Z</time>
      </trkpt>
      <trkpt lat="47.81378" lon="1.79101">
        <ele>106</ele>
        <time>2017-11-08T13:14:20Z</time>
      </trkpt>
      <trkpt lat="47.81381" lon="1.79104">
        <ele>106</ele>
        <time>2017-11-08T13:14:21Z</time>
      </trkpt>
      <trkpt lat="47.81385" lon="1.79106">
        <ele>106</ele>
        <time>2017-11-08T13:14:22Z</time>
      </trkpt>
      <trkpt lat="47.81389" lon="1.79109">
        <ele>105</ele>
        <time>2017-11-08T13:14:23Z</time>
      </trkpt>
      <trkpt lat="47.81394" lon="1.79112">
        <ele>105</ele>
        <time>2017-11-08T13:14:24Z</time>
      </trkpt>
      <trkpt lat="47.81398" lon="1.79117">
        <ele>105</ele>
        <time>2017-11-08T13:14:25Z</time>
      </trkpt>
      <trkpt lat="47.81401" lon="1.79121">
        <ele>105</ele>
        <time>2017-11-08T13:14:26Z</time>
      </trkpt>
      <trkpt lat="47.81401" lon="1.79128">
        <ele>105</ele>
        <time>2017-11-08T13:14:27Z</time>
      </trkpt>
      <trkpt lat="47.814" lon="1.79132">
        <ele>105</ele>
        <time>2017-11-08T13:14:28Z</time>
      </trkpt>
      <trkpt lat="47.81398" lon="1.79137">
        <ele>105</ele>
        <time>2017-11-08T13:14:29Z</time>
      </trkpt>
      <trkpt lat="47.81396" lon="1.79142">
        <ele>105</ele>
        <time>2017-11-08T13:14:30Z</time>
      </trkpt>
      <trkpt lat="47.81394" lon="1.79147">
        <ele>105</ele>
        <time>2017-11-08T13:14:31Z</time>
      </trkpt>
      <trkpt lat="47.81392" lon="1.79153">
        <ele>105</ele>
        <time>2017-11-08T13:14:32Z</time>
      </trkpt>
      <trkpt lat="47.81389" lon="1.7916">
        <ele>105</ele>
        <time>2017-11-08T13:14:33Z</time>
      </trkpt>
      <trkpt lat="47.81386" lon="1.79166">
        <ele>105</ele>
        <time>2017-11-08T13:14:34Z</time>
      </trkpt>
      <trkpt lat="47.81383" lon="1.79172">
        <ele>105</ele>
        <time>2017-11-08T13:14:35Z</time>
      </trkpt>
      <trkpt lat="47.8138" lon="1.79179">
        <ele>105</ele>
        <time>2017-11-08T13:14:36Z</time>
      </trkpt>
      <trkpt lat="47.81377" lon="1.79184">
        <ele>105</ele>
        <time>2017-11-08T13:14:37Z</time>
      </trkpt>
      <trkpt lat="47.81373" lon="1.79189">
        <ele>105</ele>
        <time>2017-11-08T13:14:38Z</time>
      </trkpt>
      <trkpt lat="47.81368" lon="1.79195">
        <ele>105</ele>
        <time>2017-11-08T13:14:39Z</time>
      </trkpt>
      <trkpt lat="47.81364" lon="1.792">
        <ele>105</ele>
        <time>2017-11-08T13:14:40Z</time>
      </trkpt>
      <trkpt lat="47.81361" lon="1.79206">
        <ele>105</ele>
        <time>2017-11-08T13:14:41Z</time>
      </trkpt>
      <trkpt lat="47.81356" lon="1.79211">
        <ele>105</ele>
        <time>2017-11-08T13:14:42Z</time>
      </trkpt>
      <trkpt lat="47.81352" lon="1.79219">
        <ele>105</ele>
        <time>2017-11-08T13:14:43Z</time>
      </trkpt>
      <trkpt lat="47.81348" lon="1.79225">
        <ele>105</ele>
        <time>2017-11-08T13:14:44Z</time>
      </trkpt>
      <trkpt lat="47.81345" lon="1.79232">
        <ele>104</ele>
        <time>2017-11-08T13:14:45Z</time>
      </trkpt>
      <trkpt lat="47.8134" lon="1.79238">
        <ele>104</ele>
        <time>2017-11-08T13:14:46Z</time>
      </trkpt>
      <trkpt lat="47.81336" lon="1.79245">
        <ele>104</ele>
        <time>2017-11-08T13:14:47Z</time>
      </trkpt>
      <trkpt lat="47.81331" lon="1.79252">
        <ele>104</ele>
        <time>2017-11-08T13:14:48Z</time>
      </trkpt>
      <trkpt lat="47.81327" lon="1.79258">
        <ele>104</ele>
        <time>2017-11-08T13:14:49Z</time>
      </trkpt>
      <trkpt lat="47.81323" lon="1.79264">
        <ele>104</ele>
        <time>2017-11-08T13:14:50Z</time>
      </trkpt>
      <trkpt lat="47.8132" lon="1.7927">
        <ele>104</ele>
        <time>2017-11-08T13:14:51Z</time>
      </trkpt>
      <trkpt lat="47.81315" lon="1.79276">
        <ele>104</ele>
        <time>2017-11-08T13:14:52Z</time>
      </trkpt>
      <trkpt lat="47.81311" lon="1.79283">
        <ele>104</ele>
        <time>2017-11-08T13:14:53Z</time>
      </trkpt>
      <trkpt lat="47.81306" lon="1.79288">
        <ele>104</ele>
        <time>2017-11-08T13:14:54Z</time>
      </trkpt>
      <trkpt lat="47.81303" lon="1.79294">
        <ele>104</ele>
        <time>2017-11-08T13:14:55Z</time>
      </trkpt>
      <trkpt lat="47.81299" lon="1.79299">
        <ele>104</ele>
        <time>2017-11-08T13:14:56Z</time>
      </trkpt>
      <trkpt lat="47.81294" lon="1.79305">
        <ele>104</ele>
        <time>2017-11-08T13:14:57Z</time>
      </trkpt>
      <trkpt lat="47.81287" lon="1.79314">
        <ele>104</ele>
        <time>2017-11-08T13:14:58Z</time>
      </trkpt>
      <trkpt lat="47.81283" lon="1.7932">
        <ele>104</ele>
        <time>2017-11-08T13:14:59Z</time>
      </trkpt>
      <trkpt lat="47.81278" lon="1.79326">
        <ele>104</ele>
        <time>2017-11-08T13:15:00Z</time>
      </trkpt>
      <trkpt lat="47.81272" lon="1.79334">
        <ele>104</ele>
        <time>2017-11-08T13:15:01Z</time>
      </trkpt>
      <trkpt lat="47.81267" lon="1.79342">
        <ele>104</ele>
        <time>2017-11-08T13:15:02Z</time>
      </trkpt>
      <trkpt lat="47.81261" lon="1.79348">
        <ele>104</ele>
        <time>2017-11-08T13:15:03Z</time>
      </trkpt>
      <trkpt lat="47.81256" lon="1.79355">
        <ele>104</ele>
        <time>2017-11-08T13:15:04Z</time>
      </trkpt>
      <trkpt lat="47.81251" lon="1.79361">
        <ele>104</ele>
        <time>2017-11-08T13:15:05Z</time>
      </trkpt>
      <trkpt lat="47.81246" lon="1.79368">
        <ele>103</ele>
        <time>2017-11-08T13:15:06Z</time>
      </trkpt>
      <trkpt lat="47.81242" lon="1.79375">
        <ele>103</ele>
        <time>2017-11-08T13:15:07Z</time>
      </trkpt>
      <trkpt lat="47.81237" lon="1.79382">
        <ele>103</ele>
        <time>2017-11-08T13:15:08Z</time>
      </trkpt>
      <trkpt lat="47.81233" lon="1.79389">
        <ele>103</ele>
        <time>2017-11-08T13:15:09Z</time>
      </trkpt>
      <trkpt lat="47.81228" lon="1.79395">
        <ele>103</ele>
        <time>2017-11-08T13:15:10Z</time>
      </trkpt>
      <trkpt lat="47.81224" lon="1.79402">
        <ele>103</ele>
        <time>2017-11-08T13:15:11Z</time>
      </trkpt>
      <trkpt lat="47.81219" lon="1.79407">
        <ele>103</ele>
        <time>2017-11-08T13:15:12Z</time>
      </trkpt>
      <trkpt lat="47.81215" lon="1.79413">
        <ele>103</ele>
        <time>2017-11-08T13:15:13Z</time>
      </trkpt>
      <trkpt lat="47.81211" lon="1.7942">
        <ele>104</ele>
        <time>2017-11-08T13:15:14Z</time>
      </trkpt>
      <trkpt lat="47.81206" lon="1.79426">
        <ele>104</ele>
        <time>2017-11-08T13:15:15Z</time>
      </trkpt>
      <trkpt lat="47.81202" lon="1.79433">
        <ele>104</ele>
        <time>2017-11-08T13:15:16Z</time>
      </trkpt>
      <trkpt lat="47.81197" lon="1.7944">
        <ele>104</ele>
        <time>2017-11-08T13:15:17Z</time>
      </trkpt>
      <trkpt lat="47.81192" lon="1.79446">
        <ele>104</ele>
        <time>2017-11-08T13:15:18Z</time>
      </trkpt>
      <trkpt lat="47.81187" lon="1.79453">
        <ele>104</ele>
        <time>2017-11-08T13:15:19Z</time>
      </trkpt>
      <trkpt lat="47.81182" lon="1.7946">
        <ele>104</ele>
        <time>2017-11-08T13:15:20Z</time>
      </trkpt>
      <trkpt lat="47.81177" lon="1.79466">
        <ele>104</ele>
        <time>2017-11-08T13:15:21Z</time>
      </trkpt>
      <trkpt lat="47.81173" lon="1.79472">
        <ele>104</ele>
        <time>2017-11-08T13:15:22Z</time>
      </trkpt>
      <trkpt lat="47.81168" lon="1.79479">
        <ele>104</ele>
        <time>2017-11-08T13:15:23Z</time>
      </trkpt>
      <trkpt lat="47.81163" lon="1.79486">
        <ele>103</ele>
        <time>2017-11-08T13:15:24Z</time>
      </trkpt>
      <trkpt lat="47.81159" lon="1.79492">
        <ele>103</ele>
        <time>2017-11-08T13:15:25Z</time>
      </trkpt>
      <trkpt lat="47.81154" lon="1.79499">
        <ele>103</ele>
        <time>2017-11-08T13:15:26Z</time>
      </trkpt>
      <trkpt lat="47.81149" lon="1.79506">
        <ele>104</ele>
        <time>2017-11-08T13:15:27Z</time>
      </trkpt>
      <trkpt lat="47.81143" lon="1.79514">
        <ele>104</ele>
        <time>2017-11-08T13:15:28Z</time>
      </trkpt>
      <trkpt lat="47.81138" lon="1.79522">
        <ele>104</ele>
        <time>2017-11-08T13:15:29Z</time>
      </trkpt>
      <trkpt lat="47.81132" lon="1.79529">
        <ele>104</ele>
        <time>2017-11-08T13:15:30Z</time>
      </trkpt>
      <trkpt lat="47.81126" lon="1.79536">
        <ele>104</ele>
        <time>2017-11-08T13:15:31Z</time>
      </trkpt>
      <trkpt lat="47.81121" lon="1.79543">
        <ele>104</ele>
        <time>2017-11-08T13:15:32Z</time>
      </trkpt>
      <trkpt lat="47.81115" lon="1.79549">
        <ele>104</ele>
        <time>2017-11-08T13:15:33Z</time>
      </trkpt>
      <trkpt lat="47.8111" lon="1.79555">
        <ele>104</ele>
        <time>2017-11-08T13:15:34Z</time>
      </trkpt>
      <trkpt lat="47.81106" lon="1.7956">
        <ele>104</ele>
        <time>2017-11-08T13:15:35Z</time>
      </trkpt>
      <trkpt lat="47.81102" lon="1.79566">
        <ele>104</ele>
        <time>2017-11-08T13:15:36Z</time>
      </trkpt>
      <trkpt lat="47.81099" lon="1.79574">
        <ele>104</ele>
        <time>2017-11-08T13:15:37Z</time>
      </trkpt>
      <trkpt lat="47.81094" lon="1.7958">
        <ele>104</ele>
        <time>2017-11-08T13:15:38Z</time>
      </trkpt>
      <trkpt lat="47.8109" lon="1.79586">
        <ele>104</ele>
        <time>2017-11-08T13:15:39Z</time>
      </trkpt>
      <trkpt lat="47.81086" lon="1.79593">
        <ele>105</ele>
        <time>2017-11-08T13:15:40Z</time>
      </trkpt>
      <trkpt lat="47.81082" lon="1.79599">
        <ele>104</ele>
        <time>2017-11-08T13:15:41Z</time>
      </trkpt>
      <trkpt lat="47.81077" lon="1.79605">
        <ele>104</ele>
        <time>2017-11-08T13:15:42Z</time>
      </trkpt>
      <trkpt lat="47.81073" lon="1.79612">
        <ele>104</ele>
        <time>2017-11-08T13:15:43Z</time>
      </trkpt>
      <trkpt lat="47.81068" lon="1.79618">
        <ele>104</ele>
        <time>2017-11-08T13:15:44Z</time>
      </trkpt>
      <trkpt lat="47.81064" lon="1.79625">
        <ele>104</ele>
        <time>2017-11-08T13:15:45Z</time>
      </trkpt>
      <trkpt lat="47.81059" lon="1.79631">
        <ele>104</ele>
        <time>2017-11-08T13:15:46Z</time>
      </trkpt>
      <trkpt lat="47.81053" lon="1.79638">
        <ele>104</ele>
        <time>2017-11-08T13:15:47Z</time>
      </trkpt>
      <trkpt lat="47.81048" lon="1.79644">
        <ele>104</ele>
        <time>2017-11-08T13:15:48Z</time>
      </trkpt>
      <trkpt lat="47.81044" lon="1.7965">
        <ele>104</ele>
        <time>2017-11-08T13:15:49Z</time>
      </trkpt>
      <trkpt lat="47.8104" lon="1.79657">
        <ele>104</ele>
        <time>2017-11-08T13:15:50Z</time>
      </trkpt>
      <trkpt lat="47.81036" lon="1.79662">
        <ele>104</ele>
        <time>2017-11-08T13:15:51Z</time>
      </trkpt>
      <trkpt lat="47.81032" lon="1.79668">
        <ele>105</ele>
        <time>2017-11-08T13:15:52Z</time>
      </trkpt>
      <trkpt lat="47.81028" lon="1.79674">
        <ele>105</ele>
        <time>2017-11-08T13:15:53Z</time>
      </trkpt>
      <trkpt lat="47.81024" lon="1.7968">
        <ele>105</ele>
        <time>2017-11-08T13:15:54Z</time>
      </trkpt>
      <trkpt lat="47.8102" lon="1.79685">
        <ele>105</ele>
        <time>2017-11-08T13:15:55Z</time>
      </trkpt>
      <trkpt lat="47.81015" lon="1.79692">
        <ele>105</ele>
        <time>2017-11-08T13:15:56Z</time>
      </trkpt>
      <trkpt lat="47.8101" lon="1.79699">
        <ele>104</ele>
        <time>2017-11-08T13:15:57Z</time>
      </trkpt>
      <trkpt lat="47.81004" lon="1.79706">
        <ele>104</ele>
        <time>2017-11-08T13:15:58Z</time>
      </trkpt>
      <trkpt lat="47.80999" lon="1.79713">
        <ele>103</ele>
        <time>2017-11-08T13:15:59Z</time>
      </trkpt>
      <trkpt lat="47.80994" lon="1.7972">
        <ele>103</ele>
        <time>2017-11-08T13:16:00Z</time>
      </trkpt>
      <trkpt lat="47.8099" lon="1.79727">
        <ele>103</ele>
        <time>2017-11-08T13:16:01Z</time>
      </trkpt>
      <trkpt lat="47.80986" lon="1.79734">
        <ele>103</ele>
        <time>2017-11-08T13:16:02Z</time>
      </trkpt>
      <trkpt lat="47.80981" lon="1.79741">
        <ele>103</ele>
        <time>2017-11-08T13:16:03Z</time>
      </trkpt>
      <trkpt lat="47.80976" lon="1.79747">
        <ele>103</ele>
        <time>2017-11-08T13:16:04Z</time>
      </trkpt>
      <trkpt lat="47.8097" lon="1.79755">
        <ele>103</ele>
        <time>2017-11-08T13:16:05Z</time>
      </trkpt>
      <trkpt lat="47.80964" lon="1.79763">
        <ele>103</ele>
        <time>2017-11-08T13:16:06Z</time>
      </trkpt>
      <trkpt lat="47.80958" lon="1.79772">
        <ele>103</ele>
        <time>2017-11-08T13:16:07Z</time>
      </trkpt>
      <trkpt lat="47.80951" lon="1.79779">
        <ele>103</ele>
        <time>2017-11-08T13:16:08Z</time>
      </trkpt>
      <trkpt lat="47.80946" lon="1.79785">
        <ele>103</ele>
        <time>2017-11-08T13:16:09Z</time>
      </trkpt>
      <trkpt lat="47.80941" lon="1.79792">
        <ele>103</ele>
        <time>2017-11-08T13:16:10Z</time>
      </trkpt>
      <trkpt lat="47.80935" lon="1.79799">
        <ele>103</ele>
        <time>2017-11-08T13:16:11Z</time>
      </trkpt>
      <trkpt lat="47.8093" lon="1.79807">
        <ele>103</ele>
        <time>2017-11-08T13:16:12Z</time>
      </trkpt>
      <trkpt lat="47.80925" lon="1.79813">
        <ele>103</ele>
        <time>2017-11-08T13:16:13Z</time>
      </trkpt>
      <trkpt lat="47.80922" lon="1.79819">
        <ele>102</ele>
        <time>2017-11-08T13:16:14Z</time>
      </trkpt>
      <trkpt lat="47.80918" lon="1.79824">
        <ele>102</ele>
        <time>2017-11-08T13:16:15Z</time>
      </trkpt>
      <trkpt lat="47.80913" lon="1.79831">
        <ele>102</ele>
        <time>2017-11-08T13:16:16Z</time>
      </trkpt>
      <trkpt lat="47.80908" lon="1.79839">
        <ele>102</ele>
        <time>2017-11-08T13:16:17Z</time>
      </trkpt>
      <trkpt lat="47.80903" lon="1.79846">
        <ele>102</ele>
        <time>2017-11-08T13:16:18Z</time>
      </trkpt>
      <trkpt lat="47.809" lon="1.79852">
        <ele>102</ele>
        <time>2017-11-08T13:16:19Z</time>
      </trkpt>
      <trkpt lat="47.80895" lon="1.7986">
        <ele>102</ele>
        <time>2017-11-08T13:16:20Z</time>
      </trkpt>
      <trkpt lat="47.80889" lon="1.79867">
        <ele>102</ele>
        <time>2017-11-08T13:16:21Z</time>
      </trkpt>
      <trkpt lat="47.80884" lon="1.79875">
        <ele>102</ele>
        <time>2017-11-08T13:16:22Z</time>
      </trkpt>
      <trkpt lat="47.80879" lon="1.79883">
        <ele>102</ele>
        <time>2017-11-08T13:16:23Z</time>
      </trkpt>
      <trkpt lat="47.80873" lon="1.7989">
        <ele>102</ele>
        <time>2017-11-08T13:16:24Z</time>
      </trkpt>
      <trkpt lat="47.80867" lon="1.79898">
        <ele>102</ele>
        <time>2017-11-08T13:16:25Z</time>
      </trkpt>
      <trkpt lat="47.80864" lon="1.79904">
        <ele>102</ele>
        <time>2017-11-08T13:16:26Z</time>
      </trkpt>
      <trkpt lat="47.80859" lon="1.79911">
        <ele>102</ele>
        <time>2017-11-08T13:16:27Z</time>
      </trkpt>
      <trkpt lat="47.80854" lon="1.79917">
        <ele>102</ele>
        <time>2017-11-08T13:16:28Z</time>
      </trkpt>
      <trkpt lat="47.80849" lon="1.79924">
        <ele>102</ele>
        <time>2017-11-08T13:16:29Z</time>
      </trkpt>
      <trkpt lat="47.80843" lon="1.79931">
        <ele>102</ele>
        <time>2017-11-08T13:16:30Z</time>
      </trkpt>
      <trkpt lat="47.80838" lon="1.79937">
        <ele>102</ele>
        <time>2017-11-08T13:16:31Z</time>
      </trkpt>
      <trkpt lat="47.80833" lon="1.79944">
        <ele>102</ele>
        <time>2017-11-08T13:16:32Z</time>
      </trkpt>
      <trkpt lat="47.80828" lon="1.79949">
        <ele>102</ele>
        <time>2017-11-08T13:16:33Z</time>
      </trkpt>
      <trkpt lat="47.80823" lon="1.79955">
        <ele>102</ele>
        <time>2017-11-08T13:16:34Z</time>
      </trkpt>
      <trkpt lat="47.80819" lon="1.79963">
        <ele>102</ele>
        <time>2017-11-08T13:16:35Z</time>
      </trkpt>
      <trkpt lat="47.80814" lon="1.79969">
        <ele>102</ele>
        <time>2017-11-08T13:16:36Z</time>
      </trkpt>
      <trkpt lat="47.8081" lon="1.79975">
        <ele>102</ele>
        <time>2017-11-08T13:16:37Z</time>
      </trkpt>
      <trkpt lat="47.80806" lon="1.7998">
        <ele>102</ele>
        <time>2017-11-08T13:16:38Z</time>
      </trkpt>
      <trkpt lat="47.80802" lon="1.79985">
        <ele>102</ele>
        <time>2017-11-08T13:16:39Z</time>
      </trkpt>
      <trkpt lat="47.80798" lon="1.7999">
        <ele>102</ele>
        <time>2017-11-08T13:16:40Z</time>
      </trkpt>
      <trkpt lat="47.80794" lon="1.79995">
        <ele>102</ele>
        <time>2017-11-08T13:16:41Z</time>
      </trkpt>
      <trkpt lat="47.80791" lon="1.8">
        <ele>103</ele>
        <time>2017-11-08T13:16:42Z</time>
      </trkpt>
      <trkpt lat="47.80788" lon="1.80006">
        <ele>103</ele>
        <time>2017-11-08T13:16:43Z</time>
      </trkpt>
      <trkpt lat="47.80784" lon="1.80012">
        <ele>103</ele>
        <time>2017-11-08T13:16:44Z</time>
      </trkpt>
      <trkpt lat="47.8078" lon="1.80018">
        <ele>103</ele>
        <time>2017-11-08T13:16:45Z</time>
      </trkpt>
      <trkpt lat="47.80775" lon="1.80024">
        <ele>103</ele>
        <time>2017-11-08T13:16:46Z</time>
      </trkpt>
      <trkpt lat="47.80771" lon="1.8003">
        <ele>103</ele>
        <time>2017-11-08T13:16:47Z</time>
      </trkpt>
      <trkpt lat="47.80766" lon="1.80036">
        <ele>103</ele>
        <time>2017-11-08T13:16:48Z</time>
      </trkpt>
      <trkpt lat="47.80761" lon="1.80042">
        <ele>103</ele>
        <time>2017-11-08T13:16:49Z</time>
      </trkpt>
      <trkpt lat="47.80756" lon="1.8005">
        <ele>103</ele>
        <time>2017-11-08T13:16:50Z</time>
      </trkpt>
      <trkpt lat="47.80751" lon="1.80057">
        <ele>103</ele>
        <time>2017-11-08T13:16:51Z</time>
      </trkpt>
      <trkpt lat="47.80745" lon="1.80064">
        <ele>106</ele>
        <time>2017-11-08T13:16:52Z</time>
      </trkpt>
      <trkpt lat="47.8074" lon="1.8007">
        <ele>106</ele>
        <time>2017-11-08T13:16:53Z</time>
      </trkpt>
      <trkpt lat="47.80736" lon="1.80075">
        <ele>106</ele>
        <time>2017-11-08T13:16:54Z</time>
      </trkpt>
      <trkpt lat="47.80732" lon="1.8008">
        <ele>106</ele>
        <time>2017-11-08T13:16:55Z</time>
      </trkpt>
      <trkpt lat="47.80729" lon="1.80086">
        <ele>106</ele>
        <time>2017-11-08T13:16:56Z</time>
      </trkpt>
      <trkpt lat="47.80725" lon="1.80092">
        <ele>107</ele>
        <time>2017-11-08T13:16:57Z</time>
      </trkpt>
      <trkpt lat="47.80722" lon="1.80098">
        <ele>107</ele>
        <time>2017-11-08T13:16:58Z</time>
      </trkpt>
      <trkpt lat="47.80718" lon="1.80104">
        <ele>107</ele>
        <time>2017-11-08T13:16:59Z</time>
      </trkpt>
      <trkpt lat="47.80714" lon="1.8011">
        <ele>107</ele>
        <time>2017-11-08T13:17:00Z</time>
      </trkpt>
      <trkpt lat="47.80711" lon="1.80117">
        <ele>107</ele>
        <time>2017-11-08T13:17:01Z</time>
      </trkpt>
      <trkpt lat="47.80707" lon="1.80123">
        <ele>108</ele>
        <time>2017-11-08T13:17:02Z</time>
      </trkpt>
      <trkpt lat="47.80703" lon="1.8013">
        <ele>108</ele>
        <time>2017-11-08T13:17:03Z</time>
      </trkpt>
      <trkpt lat="47.807" lon="1.80136">
        <ele>108</ele>
        <time>2017-11-08T13:17:04Z</time>
      </trkpt>
      <trkpt lat="47.80695" lon="1.80142">
        <ele>108</ele>
        <time>2017-11-08T13:17:05Z</time>
      </trkpt>
      <trkpt lat="47.80691" lon="1.80148">
        <ele>108</ele>
        <time>2017-11-08T13:17:06Z</time>
      </trkpt>
      <trkpt lat="47.80688" lon="1.80153">
        <ele>108</ele>
        <time>2017-11-08T13:17:07Z</time>
      </trkpt>
      <trkpt lat="47.80682" lon="1.8016">
        <ele>109</ele>
        <time>2017-11-08T13:17:08Z</time>
      </trkpt>
      <trkpt lat="47.80677" lon="1.80167">
        <ele>109</ele>
        <time>2017-11-08T13:17:09Z</time>
      </trkpt>
      <trkpt lat="47.80673" lon="1.80173">
        <ele>109</ele>
        <time>2017-11-08T13:17:10Z</time>
      </trkpt>
      <trkpt lat="47.80669" lon="1.80178">
        <ele>108</ele>
        <time>2017-11-08T13:17:11Z</time>
      </trkpt>
      <trkpt lat="47.80666" lon="1.80183">
        <ele>109</ele>
        <time>2017-11-08T13:17:12Z</time>
      </trkpt>
      <trkpt lat="47.80662" lon="1.80189">
        <ele>109</ele>
        <time>2017-11-08T13:17:13Z</time>
      </trkpt>
      <trkpt lat="47.80658" lon="1.80194">
        <ele>109</ele>
        <time>2017-11-08T13:17:14Z</time>
      </trkpt>
      <trkpt lat="47.80655" lon="1.80198">
        <ele>109</ele>
        <time>2017-11-08T13:17:15Z</time>
      </trkpt>
      <trkpt lat="47.80652" lon="1.80202">
        <ele>109</ele>
        <time>2017-11-08T13:17:16Z</time>
      </trkpt>
      <trkpt lat="47.80649" lon="1.80206">
        <ele>109</ele>
        <time>2017-11-08T13:17:17Z</time>
      </trkpt>
      <trkpt lat="47.80646" lon="1.8021">
        <ele>108</ele>
        <time>2017-11-08T13:17:18Z</time>
      </trkpt>
      <trkpt lat="47.80641" lon="1.80215">
        <ele>108</ele>
        <time>2017-11-08T13:17:19Z</time>
      </trkpt>
      <trkpt lat="47.80636" lon="1.80222">
        <ele>108</ele>
        <time>2017-11-08T13:17:20Z</time>
      </trkpt>
      <trkpt lat="47.80631" lon="1.8023">
        <ele>108</ele>
        <time>2017-11-08T13:17:21Z</time>
      </trkpt>
      <trkpt lat="47.80622" lon="1.80241">
        <ele>108</ele>
        <time>2017-11-08T13:17:22Z</time>
      </trkpt>
      <trkpt lat="47.80617" lon="1.80248">
        <ele>108</ele>
        <time>2017-11-08T13:17:23Z</time>
      </trkpt>
      <trkpt lat="47.80612" lon="1.80254">
        <ele>107</ele>
        <time>2017-11-08T13:17:24Z</time>
      </trkpt>
      <trkpt lat="47.80608" lon="1.8026">
        <ele>107</ele>
        <time>2017-11-08T13:17:25Z</time>
      </trkpt>
      <trkpt lat="47.80603" lon="1.80266">
        <ele>107</ele>
        <time>2017-11-08T13:17:26Z</time>
      </trkpt>
      <trkpt lat="47.80598" lon="1.80273">
        <ele>107</ele>
        <time>2017-11-08T13:17:27Z</time>
      </trkpt>
      <trkpt lat="47.80593" lon="1.80281">
        <ele>107</ele>
        <time>2017-11-08T13:17:28Z</time>
      </trkpt>
      <trkpt lat="47.8059" lon="1.80288">
        <ele>107</ele>
        <time>2017-11-08T13:17:29Z</time>
      </trkpt>
      <trkpt lat="47.80586" lon="1.80297">
        <ele>107</ele>
        <time>2017-11-08T13:17:30Z</time>
      </trkpt>
      <trkpt lat="47.80583" lon="1.80306">
        <ele>107</ele>
        <time>2017-11-08T13:17:31Z</time>
      </trkpt>
      <trkpt lat="47.80579" lon="1.80315">
        <ele>107</ele>
        <time>2017-11-08T13:17:32Z</time>
      </trkpt>
      <trkpt lat="47.80576" lon="1.80324">
        <ele>107</ele>
        <time>2017-11-08T13:17:33Z</time>
      </trkpt>
      <trkpt lat="47.80574" lon="1.80333">
        <ele>107</ele>
        <time>2017-11-08T13:17:34Z</time>
      </trkpt>
      <trkpt lat="47.80572" lon="1.80341">
        <ele>107</ele>
        <time>2017-11-08T13:17:35Z</time>
      </trkpt>
      <trkpt lat="47.80569" lon="1.80351">
        <ele>107</ele>
        <time>2017-11-08T13:17:36Z</time>
      </trkpt>
      <trkpt lat="47.80565" lon="1.80363">
        <ele>107</ele>
        <time>2017-11-08T13:17:37Z</time>
      </trkpt>
      <trkpt lat="47.80561" lon="1.80373">
        <ele>107</ele>
        <time>2017-11-08T13:17:38Z</time>
      </trkpt>
      <trkpt lat="47.80558" lon="1.80381">
        <ele>107</ele>
        <time>2017-11-08T13:17:39Z</time>
      </trkpt>
      <trkpt lat="47.80556" lon="1.80389">
        <ele>107</ele>
        <time>2017-11-08T13:17:40Z</time>
      </trkpt>
      <trkpt lat="47.80554" lon="1.80397">
        <ele>107</ele>
        <time>2017-11-08T13:17:41Z</time>
      </trkpt>
      <trkpt lat="47.80553" lon="1.80406">
        <ele>107</ele>
        <time>2017-11-08T13:17:42Z</time>
      </trkpt>
      <trkpt lat="47.80548" lon="1.80423">
        <ele>107</ele>
        <time>2017-11-08T13:17:43Z</time>
      </trkpt>
      <trkpt lat="47.80544" lon="1.80435">
        <ele>107</ele>
        <time>2017-11-08T13:17:44Z</time>
      </trkpt>
      <trkpt lat="47.80542" lon="1.80446">
        <ele>107</ele>
        <time>2017-11-08T13:17:45Z</time>
      </trkpt>
      <trkpt lat="47.80541" lon="1.80454">
        <ele>107</ele>
        <time>2017-11-08T13:17:46Z</time>
      </trkpt>
      <trkpt lat="47.80538" lon="1.80466">
        <ele>107</ele>
        <time>2017-11-08T13:17:47Z</time>
      </trkpt>
      <trkpt lat="47.80535" lon="1.80477">
        <ele>107</ele>
        <time>2017-11-08T13:17:48Z</time>
      </trkpt>
      <trkpt lat="47.80532" lon="1.80487">
        <ele>107</ele>
        <time>2017-11-08T13:17:49Z</time>
      </trkpt>
      <trkpt lat="47.8053" lon="1.80496">
        <ele>107</ele>
        <time>2017-11-08T13:17:50Z</time>
      </trkpt>
      <trkpt lat="47.80528" lon="1.80506">
        <ele>107</ele>
        <time>2017-11-08T13:17:51Z</time>
      </trkpt>
      <trkpt lat="47.80525" lon="1.80517">
        <ele>107</ele>
        <time>2017-11-08T13:17:52Z</time>
      </trkpt>
      <trkpt lat="47.80524" lon="1.80526">
        <ele>107</ele>
        <time>2017-11-08T13:17:53Z</time>
      </trkpt>
      <trkpt lat="47.80522" lon="1.80535">
        <ele>107</ele>
        <time>2017-11-08T13:17:54Z</time>
      </trkpt>
      <trkpt lat="47.80521" lon="1.80545">
        <ele>108</ele>
        <time>2017-11-08T13:17:55Z</time>
      </trkpt>
      <trkpt lat="47.8052" lon="1.80556">
        <ele>108</ele>
        <time>2017-11-08T13:17:56Z</time>
      </trkpt>
      <trkpt lat="47.80519" lon="1.80566">
        <ele>108</ele>
        <time>2017-11-08T13:17:57Z</time>
      </trkpt>
      <trkpt lat="47.80518" lon="1.80575">
        <ele>108</ele>
        <time>2017-11-08T13:17:58Z</time>
      </trkpt>
      <trkpt lat="47.80517" lon="1.80584">
        <ele>108</ele>
        <time>2017-11-08T13:17:59Z</time>
      </trkpt>
      <trkpt lat="47.80516" lon="1.80592">
        <ele>108</ele>
        <time>2017-11-08T13:18:00Z</time>
      </trkpt>
      <trkpt lat="47.80514" lon="1.80601">
        <ele>108</ele>
        <time>2017-11-08T13:18:01Z</time>
      </trkpt>
      <trkpt lat="47.80512" lon="1.80608">
        <ele>108</ele>
        <time>2017-11-08T13:18:02Z</time>
      </trkpt>
      <trkpt lat="47.80511" lon="1.80616">
        <ele>108</ele>
        <time>2017-11-08T13:18:03Z</time>
      </trkpt>
      <trkpt lat="47.8051" lon="1.80625">
        <ele>108</ele>
        <time>2017-11-08T13:18:04Z</time>
      </trkpt>
      <trkpt lat="47.80508" lon="1.80635">
        <ele>108</ele>
        <time>2017-11-08T13:18:05Z</time>
      </trkpt>
      <trkpt lat="47.80507" lon="1.80642">
        <ele>108</ele>
        <time>2017-11-08T13:18:06Z</time>
      </trkpt>
      <trkpt lat="47.80506" lon="1.8065">
        <ele>109</ele>
        <time>2017-11-08T13:18:07Z</time>
      </trkpt>
      <trkpt lat="47.80504" lon="1.8066">
        <ele>109</ele>
        <time>2017-11-08T13:18:08Z</time>
      </trkpt>
      <trkpt lat="47.80502" lon="1.80669">
        <ele>109</ele>
        <time>2017-11-08T13:18:09Z</time>
      </trkpt>
      <trkpt lat="47.805" lon="1.80679">
        <ele>110</ele>
        <time>2017-11-08T13:18:10Z</time>
      </trkpt>
      <trkpt lat="47.80498" lon="1.80689">
        <ele>110</ele>
        <time>2017-11-08T13:18:11Z</time>
      </trkpt>
      <trkpt lat="47.80496" lon="1.80698">
        <ele>111</ele>
        <time>2017-11-08T13:18:12Z</time>
      </trkpt>
      <trkpt lat="47.80494" lon="1.80707">
        <ele>111</ele>
        <time>2017-11-08T13:18:13Z</time>
      </trkpt>
      <trkpt lat="47.80491" lon="1.80715">
        <ele>111</ele>
        <time>2017-11-08T13:18:14Z</time>
      </trkpt>
      <trkpt lat="47.8049" lon="1.80724">
        <ele>111</ele>
        <time>2017-11-08T13:18:15Z</time>
      </trkpt>
      <trkpt lat="47.80487" lon="1.80733">
        <ele>110</ele>
        <time>2017-11-08T13:18:16Z</time>
      </trkpt>
      <trkpt lat="47.80485" lon="1.80743">
        <ele>110</ele>
        <time>2017-11-08T13:18:17Z</time>
      </trkpt>
      <trkpt lat="47.80484" lon="1.80751">
        <ele>110</ele>
        <time>2017-11-08T13:18:18Z</time>
      </trkpt>
      <trkpt lat="47.80482" lon="1.80758">
        <ele>111</ele>
        <time>2017-11-08T13:18:19Z</time>
      </trkpt>
      <trkpt lat="47.80481" lon="1.80766">
        <ele>111</ele>
        <time>2017-11-08T13:18:20Z</time>
      </trkpt>
      <trkpt lat="47.80479" lon="1.80776">
        <ele>111</ele>
        <time>2017-11-08T13:18:21Z</time>
      </trkpt>
      <trkpt lat="47.80479" lon="1.80784">
        <ele>111</ele>
        <time>2017-11-08T13:18:22Z</time>
      </trkpt>
      <trkpt lat="47.80479" lon="1.80792">
        <ele>111</ele>
        <time>2017-11-08T13:18:23Z</time>
      </trkpt>
      <trkpt lat="47.80478" lon="1.80801">
        <ele>111</ele>
        <time>2017-11-08T13:18:24Z</time>
      </trkpt>
      <trkpt lat="47.80476" lon="1.8081">
        <ele>111</ele>
        <time>2017-11-08T13:18:25Z</time>
      </trkpt>
      <trkpt lat="47.80474" lon="1.8082">
        <ele>111</ele>
        <time>2017-11-08T13:18:26Z</time>
      </trkpt>
      <trkpt lat="47.80473" lon="1.80829">
        <ele>111</ele>
        <time>2017-11-08T13:18:27Z</time>
      </trkpt>
      <trkpt lat="47.80471" lon="1.80836">
        <ele>111</ele>
        <time>2017-11-08T13:18:28Z</time>
      </trkpt>
      <trkpt lat="47.80469" lon="1.80844">
        <ele>111</ele>
        <time>2017-11-08T13:18:29Z</time>
      </trkpt>
      <trkpt lat="47.80467" lon="1.80853">
        <ele>111</ele>
        <time>2017-11-08T13:18:30Z</time>
      </trkpt>
      <trkpt lat="47.80464" lon="1.80863">
        <ele>111</ele>
        <time>2017-11-08T13:18:31Z</time>
      </trkpt>
      <trkpt lat="47.80463" lon="1.80872">
        <ele>111</ele>
        <time>2017-11-08T13:18:32Z</time>
      </trkpt>
      <trkpt lat="47.80463" lon="1.80879">
        <ele>111</ele>
        <time>2017-11-08T13:18:33Z</time>
      </trkpt>
      <trkpt lat="47.80461" lon="1.80886">
        <ele>111</ele>
        <time>2017-11-08T13:18:34Z</time>
      </trkpt>
      <trkpt lat="47.80459" lon="1.80894">
        <ele>111</ele>
        <time>2017-11-08T13:18:35Z</time>
      </trkpt>
      <trkpt lat="47.80457" lon="1.809">
        <ele>111</ele>
        <time>2017-11-08T13:18:36Z</time>
      </trkpt>
      <trkpt lat="47.80457" lon="1.80906">
        <ele>111</ele>
        <time>2017-11-08T13:18:37Z</time>
      </trkpt>
      <trkpt lat="47.80456" lon="1.80915">
        <ele>111</ele>
        <time>2017-11-08T13:18:38Z</time>
      </trkpt>
      <trkpt lat="47.80456" lon="1.80921">
        <ele>111</ele>
        <time>2017-11-08T13:18:39Z</time>
      </trkpt>
      <trkpt lat="47.80456" lon="1.80927">
        <ele>111</ele>
        <time>2017-11-08T13:18:40Z</time>
      </trkpt>
      <trkpt lat="47.80454" lon="1.80933">
        <ele>111</ele>
        <time>2017-11-08T13:18:41Z</time>
      </trkpt>
      <trkpt lat="47.80452" lon="1.80939">
        <ele>112</ele>
        <time>2017-11-08T13:18:42Z</time>
      </trkpt>
      <trkpt lat="47.8045" lon="1.80945">
        <ele>112</ele>
        <time>2017-11-08T13:18:43Z</time>
      </trkpt>
      <trkpt lat="47.80448" lon="1.80953">
        <ele>112</ele>
        <time>2017-11-08T13:18:44Z</time>
      </trkpt>
      <trkpt lat="47.80447" lon="1.8096">
        <ele>112</ele>
        <time>2017-11-08T13:18:45Z</time>
      </trkpt>
      <trkpt lat="47.80446" lon="1.80966">
        <ele>112</ele>
        <time>2017-11-08T13:18:46Z</time>
      </trkpt>
      <trkpt lat="47.80444" lon="1.80972">
        <ele>112</ele>
        <time>2017-11-08T13:18:47Z</time>
      </trkpt>
      <trkpt lat="47.80443" lon="1.80978">
        <ele>112</ele>
        <time>2017-11-08T13:18:48Z</time>
      </trkpt>
      <trkpt lat="47.80441" lon="1.80984">
        <ele>112</ele>
        <time>2017-11-08T13:18:49Z</time>
      </trkpt>
      <trkpt lat="47.80439" lon="1.80991">
        <ele>112</ele>
        <time>2017-11-08T13:18:50Z</time>
      </trkpt>
      <trkpt lat="47.80437" lon="1.81">
        <ele>112</ele>
        <time>2017-11-08T13:18:51Z</time>
      </trkpt>
      <trkpt lat="47.80436" lon="1.81007">
        <ele>112</ele>
        <time>2017-11-08T13:18:52Z</time>
      </trkpt>
      <trkpt lat="47.80433" lon="1.81015">
        <ele>112</ele>
        <time>2017-11-08T13:18:53Z</time>
      </trkpt>
      <trkpt lat="47.80432" lon="1.81022">
        <ele>112</ele>
        <time>2017-11-08T13:18:54Z</time>
      </trkpt>
      <trkpt lat="47.8043" lon="1.81028">
        <ele>112</ele>
        <time>2017-11-08T13:18:55Z</time>
      </trkpt>
      <trkpt lat="47.80427" lon="1.81036">
        <ele>112</ele>
        <time>2017-11-08T13:18:56Z</time>
      </trkpt>
      <trkpt lat="47.80424" lon="1.81043">
        <ele>112</ele>
        <time>2017-11-08T13:18:57Z</time>
      </trkpt>
      <trkpt lat="47.80421" lon="1.8105">
        <ele>112</ele>
        <time>2017-11-08T13:18:58Z</time>
      </trkpt>
      <trkpt lat="47.80419" lon="1.81057">
        <ele>112</ele>
        <time>2017-11-08T13:18:59Z</time>
      </trkpt>
      <trkpt lat="47.80417" lon="1.81062">
        <ele>112</ele>
        <time>2017-11-08T13:19:00Z</time>
      </trkpt>
      <trkpt lat="47.80414" lon="1.8107">
        <ele>113</ele>
        <time>2017-11-08T13:19:01Z</time>
      </trkpt>
      <trkpt lat="47.80412" lon="1.81077">
        <ele>113</ele>
        <time>2017-11-08T13:19:02Z</time>
      </trkpt>
      <trkpt lat="47.80411" lon="1.81083">
        <ele>113</ele>
        <time>2017-11-08T13:19:03Z</time>
      </trkpt>
      <trkpt lat="47.80408" lon="1.81091">
        <ele>112</ele>
        <time>2017-11-08T13:19:04Z</time>
      </trkpt>
      <trkpt lat="47.80407" lon="1.81098">
        <ele>113</ele>
        <time>2017-11-08T13:19:05Z</time>
      </trkpt>
      <trkpt lat="47.80406" lon="1.81106">
        <ele>113</ele>
        <time>2017-11-08T13:19:06Z</time>
      </trkpt>
      <trkpt lat="47.80405" lon="1.81111">
        <ele>113</ele>
        <time>2017-11-08T13:19:07Z</time>
      </trkpt>
      <trkpt lat="47.80404" lon="1.81118">
        <ele>113</ele>
        <time>2017-11-08T13:19:08Z</time>
      </trkpt>
      <trkpt lat="47.80402" lon="1.81125">
        <ele>113</ele>
        <time>2017-11-08T13:19:09Z</time>
      </trkpt>
      <trkpt lat="47.804" lon="1.81133">
        <ele>113</ele>
        <time>2017-11-08T13:19:10Z</time>
      </trkpt>
      <trkpt lat="47.80399" lon="1.81141">
        <ele>113</ele>
        <time>2017-11-08T13:19:11Z</time>
      </trkpt>
      <trkpt lat="47.80398" lon="1.81148">
        <ele>113</ele>
        <time>2017-11-08T13:19:12Z</time>
      </trkpt>
      <trkpt lat="47.80396" lon="1.81156">
        <ele>113</ele>
        <time>2017-11-08T13:19:13Z</time>
      </trkpt>
      <trkpt lat="47.80395" lon="1.81164">
        <ele>113</ele>
        <time>2017-11-08T13:19:14Z</time>
      </trkpt>
      <trkpt lat="47.80393" lon="1.81172">
        <ele>113</ele>
        <time>2017-11-08T13:19:15Z</time>
      </trkpt>
      <trkpt lat="47.80392" lon="1.8118">
        <ele>113</ele>
        <time>2017-11-08T13:19:16Z</time>
      </trkpt>
      <trkpt lat="47.80391" lon="1.81187">
        <ele>113</ele>
        <time>2017-11-08T13:19:17Z</time>
      </trkpt>
      <trkpt lat="47.80389" lon="1.81195">
        <ele>113</ele>
        <time>2017-11-08T13:19:18Z</time>
      </trkpt>
      <trkpt lat="47.80387" lon="1.81202">
        <ele>113</ele>
        <time>2017-11-08T13:19:19Z</time>
      </trkpt>
      <trkpt lat="47.80386" lon="1.81208">
        <ele>113</ele>
        <time>2017-11-08T13:19:20Z</time>
      </trkpt>
      <trkpt lat="47.80385" lon="1.81216">
        <ele>113</ele>
        <time>2017-11-08T13:19:21Z</time>
      </trkpt>
      <trkpt lat="47.80382" lon="1.81225">
        <ele>113</ele>
        <time>2017-11-08T13:19:22Z</time>
      </trkpt>
      <trkpt lat="47.80379" lon="1.81232">
        <ele>112</ele>
        <time>2017-11-08T13:19:23Z</time>
      </trkpt>
      <trkpt lat="47.80378" lon="1.8124">
        <ele>112</ele>
        <time>2017-11-08T13:19:24Z</time>
      </trkpt>
      <trkpt lat="47.80377" lon="1.81247">
        <ele>112</ele>
        <time>2017-11-08T13:19:25Z</time>
      </trkpt>
      <trkpt lat="47.80376" lon="1.81254">
        <ele>111</ele>
        <time>2017-11-08T13:19:26Z</time>
      </trkpt>
      <trkpt lat="47.80375" lon="1.81264">
        <ele>111</ele>
        <time>2017-11-08T13:19:27Z</time>
      </trkpt>
      <trkpt lat="47.80374" lon="1.81272">
        <ele>110</ele>
        <time>2017-11-08T13:19:28Z</time>
      </trkpt>
      <trkpt lat="47.80372" lon="1.81281">
        <ele>110</ele>
        <time>2017-11-08T13:19:29Z</time>
      </trkpt>
      <trkpt lat="47.8037" lon="1.81289">
        <ele>110</ele>
        <time>2017-11-08T13:19:30Z</time>
      </trkpt>
      <trkpt lat="47.80369" lon="1.81295">
        <ele>110</ele>
        <time>2017-11-08T13:19:31Z</time>
      </trkpt>
      <trkpt lat="47.80367" lon="1.81304">
        <ele>110</ele>
        <time>2017-11-08T13:19:32Z</time>
      </trkpt>
      <trkpt lat="47.80366" lon="1.81312">
        <ele>110</ele>
        <time>2017-11-08T13:19:33Z</time>
      </trkpt>
      <trkpt lat="47.80363" lon="1.81319">
        <ele>109</ele>
        <time>2017-11-08T13:19:34Z</time>
      </trkpt>
      <trkpt lat="47.80362" lon="1.81327">
        <ele>109</ele>
        <time>2017-11-08T13:19:35Z</time>
      </trkpt>
      <trkpt lat="47.80361" lon="1.81333">
        <ele>109</ele>
        <time>2017-11-08T13:19:36Z</time>
      </trkpt>
      <trkpt lat="47.8036" lon="1.81341">
        <ele>108</ele>
        <time>2017-11-08T13:19:37Z</time>
      </trkpt>
      <trkpt lat="47.80358" lon="1.81349">
        <ele>108</ele>
        <time>2017-11-08T13:19:38Z</time>
      </trkpt>
      <trkpt lat="47.80357" lon="1.81357">
        <ele>108</ele>
        <time>2017-11-08T13:19:39Z</time>
      </trkpt>
      <trkpt lat="47.80356" lon="1.81364">
        <ele>108</ele>
        <time>2017-11-08T13:19:40Z</time>
      </trkpt>
      <trkpt lat="47.80355" lon="1.81371">
        <ele>108</ele>
        <time>2017-11-08T13:19:41Z</time>
      </trkpt>
      <trkpt lat="47.80354" lon="1.81378">
        <ele>108</ele>
        <time>2017-11-08T13:19:42Z</time>
      </trkpt>
      <trkpt lat="47.80352" lon="1.81386">
        <ele>108</ele>
        <time>2017-11-08T13:19:43Z</time>
      </trkpt>
      <trkpt lat="47.8035" lon="1.81394">
        <ele>108</ele>
        <time>2017-11-08T13:19:44Z</time>
      </trkpt>
      <trkpt lat="47.80349" lon="1.81401">
        <ele>108</ele>
        <time>2017-11-08T13:19:45Z</time>
      </trkpt>
      <trkpt lat="47.80348" lon="1.81409">
        <ele>107</ele>
        <time>2017-11-08T13:19:46Z</time>
      </trkpt>
      <trkpt lat="47.80347" lon="1.81417">
        <ele>107</ele>
        <time>2017-11-08T13:19:47Z</time>
      </trkpt>
      <trkpt lat="47.80343" lon="1.81424">
        <ele>107</ele>
        <time>2017-11-08T13:19:48Z</time>
      </trkpt>
      <trkpt lat="47.8034" lon="1.81431">
        <ele>107</ele>
        <time>2017-11-08T13:19:49Z</time>
      </trkpt>
      <trkpt lat="47.80336" lon="1.81438">
        <ele>107</ele>
        <time>2017-11-08T13:19:50Z</time>
      </trkpt>
      <trkpt lat="47.80333" lon="1.81445">
        <ele>108</ele>
        <time>2017-11-08T13:19:51Z</time>
      </trkpt>
      <trkpt lat="47.8033" lon="1.81454">
        <ele>108</ele>
        <time>2017-11-08T13:19:52Z</time>
      </trkpt>
      <trkpt lat="47.80328" lon="1.81464">
        <ele>108</ele>
        <time>2017-11-08T13:19:53Z</time>
      </trkpt>
      <trkpt lat="47.80323" lon="1.81471">
        <ele>108</ele>
        <time>2017-11-08T13:19:54Z</time>
      </trkpt>
      <trkpt lat="47.80318" lon="1.81475">
        <ele>108</ele>
        <time>2017-11-08T13:19:55Z</time>
      </trkpt>
      <trkpt lat="47.80313" lon="1.8148">
        <ele>108</ele>
        <time>2017-11-08T13:19:56Z</time>
      </trkpt>
      <trkpt lat="47.80309" lon="1.81484">
        <ele>108</ele>
        <time>2017-11-08T13:19:57Z</time>
      </trkpt>
      <trkpt lat="47.80303" lon="1.81488">
        <ele>109</ele>
        <time>2017-11-08T13:19:58Z</time>
      </trkpt>
      <trkpt lat="47.80298" lon="1.81491">
        <ele>109</ele>
        <time>2017-11-08T13:19:59Z</time>
      </trkpt>
      <trkpt lat="47.80292" lon="1.81496">
        <ele>109</ele>
        <time>2017-11-08T13:20:00Z</time>
      </trkpt>
      <trkpt lat="47.80287" lon="1.81501">
        <ele>111</ele>
        <time>2017-11-08T13:20:01Z</time>
      </trkpt>
      <trkpt lat="47.80282" lon="1.81506">
        <ele>111</ele>
        <time>2017-11-08T13:20:02Z</time>
      </trkpt>
      <trkpt lat="47.80278" lon="1.81511">
        <ele>111</ele>
        <time>2017-11-08T13:20:03Z</time>
      </trkpt>
      <trkpt lat="47.80272" lon="1.81517">
        <ele>112</ele>
        <time>2017-11-08T13:20:04Z</time>
      </trkpt>
      <trkpt lat="47.80268" lon="1.81522">
        <ele>112</ele>
        <time>2017-11-08T13:20:05Z</time>
      </trkpt>
      <trkpt lat="47.80263" lon="1.81527">
        <ele>112</ele>
        <time>2017-11-08T13:20:06Z</time>
      </trkpt>
      <trkpt lat="47.80258" lon="1.81532">
        <ele>112</ele>
        <time>2017-11-08T13:20:07Z</time>
      </trkpt>
      <trkpt lat="47.80254" lon="1.81536">
        <ele>112</ele>
        <time>2017-11-08T13:20:08Z</time>
      </trkpt>
      <trkpt lat="47.80249" lon="1.8154">
        <ele>114</ele>
        <time>2017-11-08T13:20:09Z</time>
      </trkpt>
      <trkpt lat="47.80245" lon="1.81544">
        <ele>114</ele>
        <time>2017-11-08T13:20:10Z</time>
      </trkpt>
      <trkpt lat="47.8024" lon="1.81548">
        <ele>114</ele>
        <time>2017-11-08T13:20:11Z</time>
      </trkpt>
      <trkpt lat="47.80235" lon="1.81552">
        <ele>114</ele>
        <time>2017-11-08T13:20:12Z</time>
      </trkpt>
      <trkpt lat="47.8023" lon="1.81555">
        <ele>115</ele>
        <time>2017-11-08T13:20:13Z</time>
      </trkpt>
      <trkpt lat="47.80226" lon="1.8156">
        <ele>115</ele>
        <time>2017-11-08T13:20:14Z</time>
      </trkpt>
      <trkpt lat="47.80221" lon="1.81565">
        <ele>115</ele>
        <time>2017-11-08T13:20:15Z</time>
      </trkpt>
      <trkpt lat="47.80216" lon="1.81569">
        <ele>115</ele>
        <time>2017-11-08T13:20:16Z</time>
      </trkpt>
      <trkpt lat="47.80211" lon="1.81574">
        <ele>115</ele>
        <time>2017-11-08T13:20:17Z</time>
      </trkpt>
      <trkpt lat="47.80207" lon="1.81579">
        <ele>115</ele>
        <time>2017-11-08T13:20:18Z</time>
      </trkpt>
      <trkpt lat="47.80202" lon="1.81582">
        <ele>114</ele>
        <time>2017-11-08T13:20:19Z</time>
      </trkpt>
      <trkpt lat="47.80198" lon="1.81587">
        <ele>115</ele>
        <time>2017-11-08T13:20:20Z</time>
      </trkpt>
      <trkpt lat="47.80193" lon="1.81591">
        <ele>115</ele>
        <time>2017-11-08T13:20:21Z</time>
      </trkpt>
      <trkpt lat="47.80188" lon="1.81595">
        <ele>114</ele>
        <time>2017-11-08T13:20:22Z</time>
      </trkpt>
      <trkpt lat="47.80183" lon="1.81599">
        <ele>114</ele>
        <time>2017-11-08T13:20:23Z</time>
      </trkpt>
      <trkpt lat="47.80178" lon="1.81604">
        <ele>114</ele>
        <time>2017-11-08T13:20:24Z</time>
      </trkpt>
      <trkpt lat="47.80173" lon="1.81608">
        <ele>114</ele>
        <time>2017-11-08T13:20:25Z</time>
      </trkpt>
      <trkpt lat="47.80169" lon="1.81612">
        <ele>114</ele>
        <time>2017-11-08T13:20:26Z</time>
      </trkpt>
      <trkpt lat="47.80164" lon="1.81616">
        <ele>114</ele>
        <time>2017-11-08T13:20:27Z</time>
      </trkpt>
      <trkpt lat="47.80159" lon="1.8162">
        <ele>114</ele>
        <time>2017-11-08T13:20:28Z</time>
      </trkpt>
      <trkpt lat="47.80154" lon="1.81624">
        <ele>114</ele>
        <time>2017-11-08T13:20:29Z</time>
      </trkpt>
      <trkpt lat="47.8015" lon="1.8163">
        <ele>113</ele>
        <time>2017-11-08T13:20:30Z</time>
      </trkpt>
      <trkpt lat="47.80146" lon="1.81634">
        <ele>113</ele>
        <time>2017-11-08T13:20:31Z</time>
      </trkpt>
      <trkpt lat="47.80142" lon="1.81638">
        <ele>113</ele>
        <time>2017-11-08T13:20:32Z</time>
      </trkpt>
      <trkpt lat="47.80138" lon="1.81641">
        <ele>113</ele>
        <time>2017-11-08T13:20:33Z</time>
      </trkpt>
      <trkpt lat="47.80134" lon="1.81645">
        <ele>113</ele>
        <time>2017-11-08T13:20:34Z</time>
      </trkpt>
      <trkpt lat="47.80129" lon="1.81649">
        <ele>113</ele>
        <time>2017-11-08T13:20:35Z</time>
      </trkpt>
      <trkpt lat="47.80125" lon="1.81653">
        <ele>113</ele>
        <time>2017-11-08T13:20:36Z</time>
      </trkpt>
      <trkpt lat="47.8012" lon="1.81657">
        <ele>113</ele>
        <time>2017-11-08T13:20:37Z</time>
      </trkpt>
      <trkpt lat="47.80115" lon="1.81661">
        <ele>113</ele>
        <time>2017-11-08T13:20:38Z</time>
      </trkpt>
      <trkpt lat="47.8011" lon="1.81666">
        <ele>113</ele>
        <time>2017-11-08T13:20:39Z</time>
      </trkpt>
      <trkpt lat="47.80106" lon="1.81671">
        <ele>112</ele>
        <time>2017-11-08T13:20:40Z</time>
      </trkpt>
      <trkpt lat="47.80101" lon="1.81675">
        <ele>112</ele>
        <time>2017-11-08T13:20:41Z</time>
      </trkpt>
      <trkpt lat="47.80097" lon="1.8168">
        <ele>112</ele>
        <time>2017-11-08T13:20:42Z</time>
      </trkpt>
      <trkpt lat="47.80092" lon="1.81684">
        <ele>112</ele>
        <time>2017-11-08T13:20:43Z</time>
      </trkpt>
      <trkpt lat="47.80088" lon="1.81689">
        <ele>112</ele>
        <time>2017-11-08T13:20:44Z</time>
      </trkpt>
      <trkpt lat="47.80084" lon="1.81693">
        <ele>112</ele>
        <time>2017-11-08T13:20:45Z</time>
      </trkpt>
      <trkpt lat="47.80079" lon="1.81697">
        <ele>112</ele>
        <time>2017-11-08T13:20:46Z</time>
      </trkpt>
      <trkpt lat="47.80075" lon="1.81701">
        <ele>112</ele>
        <time>2017-11-08T13:20:47Z</time>
      </trkpt>
      <trkpt lat="47.8007" lon="1.81706">
        <ele>112</ele>
        <time>2017-11-08T13:20:48Z</time>
      </trkpt>
      <trkpt lat="47.80064" lon="1.81709">
        <ele>112</ele>
        <time>2017-11-08T13:20:49Z</time>
      </trkpt>
      <trkpt lat="47.8006" lon="1.81713">
        <ele>112</ele>
        <time>2017-11-08T13:20:50Z</time>
      </trkpt>
      <trkpt lat="47.80055" lon="1.81717">
        <ele>112</ele>
        <time>2017-11-08T13:20:51Z</time>
      </trkpt>
      <trkpt lat="47.8005" lon="1.8172">
        <ele>112</ele>
        <time>2017-11-08T13:20:52Z</time>
      </trkpt>
      <trkpt lat="47.80046" lon="1.81723">
        <ele>112</ele>
        <time>2017-11-08T13:20:53Z</time>
      </trkpt>
      <trkpt lat="47.80043" lon="1.81727">
        <ele>112</ele>
        <time>2017-11-08T13:20:54Z</time>
      </trkpt>
      <trkpt lat="47.8004" lon="1.81731">
        <ele>112</ele>
        <time>2017-11-08T13:20:55Z</time>
      </trkpt>
      <trkpt lat="47.80036" lon="1.81736">
        <ele>112</ele>
        <time>2017-11-08T13:20:56Z</time>
      </trkpt>
      <trkpt lat="47.80033" lon="1.81742">
        <ele>112</ele>
        <time>2017-11-08T13:20:57Z</time>
      </trkpt>
      <trkpt lat="47.80032" lon="1.81747">
        <ele>112</ele>
        <time>2017-11-08T13:20:58Z</time>
      </trkpt>
      <trkpt lat="47.80031" lon="1.81752">
        <ele>112</ele>
        <time>2017-11-08T13:20:59Z</time>
      </trkpt>
      <trkpt lat="47.8003" lon="1.81757">
        <ele>112</ele>
        <time>2017-11-08T13:21:00Z</time>
      </trkpt>
      <trkpt lat="47.80027" lon="1.81765">
        <ele>112</ele>
        <time>2017-11-08T13:21:02Z</time>
      </trkpt>
      <trkpt lat="47.80027" lon="1.81771">
        <ele>112</ele>
        <time>2017-11-08T13:21:03Z</time>
      </trkpt>
      <trkpt lat="47.80027" lon="1.81777">
        <ele>112</ele>
        <time>2017-11-08T13:21:04Z</time>
      </trkpt>
      <trkpt lat="47.80025" lon="1.81783">
        <ele>113</ele>
        <time>2017-11-08T13:21:05Z</time>
      </trkpt>
      <trkpt lat="47.80021" lon="1.8179">
        <ele>113</ele>
        <time>2017-11-08T13:21:06Z</time>
      </trkpt>
      <trkpt lat="47.80019" lon="1.81794">
        <ele>113</ele>
        <time>2017-11-08T13:21:07Z</time>
      </trkpt>
      <trkpt lat="47.8002" lon="1.818">
        <ele>113</ele>
        <time>2017-11-08T13:21:08Z</time>
      </trkpt>
      <trkpt lat="47.80023" lon="1.81806">
        <ele>113</ele>
        <time>2017-11-08T13:21:09Z</time>
      </trkpt>
      <trkpt lat="47.80024" lon="1.81811">
        <ele>113</ele>
        <time>2017-11-08T13:21:10Z</time>
      </trkpt>
      <trkpt lat="47.80025" lon="1.81815">
        <ele>113</ele>
        <time>2017-11-08T13:21:11Z</time>
      </trkpt>
      <trkpt lat="47.80026" lon="1.8182">
        <ele>113</ele>
        <time>2017-11-08T13:21:12Z</time>
      </trkpt>
      <trkpt lat="47.80023" lon="1.81827">
        <ele>113</ele>
        <time>2017-11-08T13:21:13Z</time>
      </trkpt>
      <trkpt lat="47.80022" lon="1.81833">
        <ele>113</ele>
        <time>2017-11-08T13:21:14Z</time>
      </trkpt>
      <trkpt lat="47.8002" lon="1.81838">
        <ele>114</ele>
        <time>2017-11-08T13:21:15Z</time>
      </trkpt>
      <trkpt lat="47.80015" lon="1.81845">
        <ele>114</ele>
        <time>2017-11-08T13:21:16Z</time>
      </trkpt>
      <trkpt lat="47.80011" lon="1.81854">
        <ele>114</ele>
        <time>2017-11-08T13:21:17Z</time>
      </trkpt>
      <trkpt lat="47.80006" lon="1.81863">
        <ele>114</ele>
        <time>2017-11-08T13:21:18Z</time>
      </trkpt>
      <trkpt lat="47.80002" lon="1.8187">
        <ele>114</ele>
        <time>2017-11-08T13:21:19Z</time>
      </trkpt>
      <trkpt lat="47.79996" lon="1.81881">
        <ele>115</ele>
        <time>2017-11-08T13:21:20Z</time>
      </trkpt>
      <trkpt lat="47.7999" lon="1.81888">
        <ele>115</ele>
        <time>2017-11-08T13:21:21Z</time>
      </trkpt>
      <trkpt lat="47.79986" lon="1.81897">
        <ele>116</ele>
        <time>2017-11-08T13:21:22Z</time>
      </trkpt>
      <trkpt lat="47.79982" lon="1.81905">
        <ele>116</ele>
        <time>2017-11-08T13:21:23Z</time>
      </trkpt>
      <trkpt lat="47.79977" lon="1.81914">
        <ele>116</ele>
        <time>2017-11-08T13:21:24Z</time>
      </trkpt>
      <trkpt lat="47.79974" lon="1.8192">
        <ele>116</ele>
        <time>2017-11-08T13:21:25Z</time>
      </trkpt>
      <trkpt lat="47.79971" lon="1.81928">
        <ele>116</ele>
        <time>2017-11-08T13:21:26Z</time>
      </trkpt>
      <trkpt lat="47.79968" lon="1.81933">
        <ele>116</ele>
        <time>2017-11-08T13:21:27Z</time>
      </trkpt>
      <trkpt lat="47.79963" lon="1.81945">
        <ele>116</ele>
        <time>2017-11-08T13:21:28Z</time>
      </trkpt>
      <trkpt lat="47.79957" lon="1.81956">
        <ele>116</ele>
        <time>2017-11-08T13:21:29Z</time>
      </trkpt>
      <trkpt lat="47.79952" lon="1.81966">
        <ele>116</ele>
        <time>2017-11-08T13:21:30Z</time>
      </trkpt>
      <trkpt lat="47.79948" lon="1.81975">
        <ele>116</ele>
        <time>2017-11-08T13:21:31Z</time>
      </trkpt>
      <trkpt lat="47.79947" lon="1.81985">
        <ele>116</ele>
        <time>2017-11-08T13:21:32Z</time>
      </trkpt>
      <trkpt lat="47.79944" lon="1.8199">
        <ele>116</ele>
        <time>2017-11-08T13:21:33Z</time>
      </trkpt>
      <trkpt lat="47.79945" lon="1.81997">
        <ele>116</ele>
        <time>2017-11-08T13:21:34Z</time>
      </trkpt>
      <trkpt lat="47.79945" lon="1.82002">
        <ele>116</ele>
        <time>2017-11-08T13:21:35Z</time>
      </trkpt>
      <trkpt lat="47.79944" lon="1.82008">
        <ele>116</ele>
        <time>2017-11-08T13:21:36Z</time>
      </trkpt>
      <trkpt lat="47.79941" lon="1.82015">
        <ele>116</ele>
        <time>2017-11-08T13:21:37Z</time>
      </trkpt>
      <trkpt lat="47.7994" lon="1.8202">
        <ele>116</ele>
        <time>2017-11-08T13:21:38Z</time>
      </trkpt>
      <trkpt lat="47.79936" lon="1.82027">
        <ele>116</ele>
        <time>2017-11-08T13:21:39Z</time>
      </trkpt>
      <trkpt lat="47.79935" lon="1.82032">
        <ele>116</ele>
        <time>2017-11-08T13:21:40Z</time>
      </trkpt>
      <trkpt lat="47.79934" lon="1.82038">
        <ele>116</ele>
        <time>2017-11-08T13:21:41Z</time>
      </trkpt>
      <trkpt lat="47.79932" lon="1.82046">
        <ele>115</ele>
        <time>2017-11-08T13:21:42Z</time>
      </trkpt>
      <trkpt lat="47.79931" lon="1.82052">
        <ele>115</ele>
        <time>2017-11-08T13:21:43Z</time>
      </trkpt>
      <trkpt lat="47.79927" lon="1.82062">
        <ele>115</ele>
        <time>2017-11-08T13:21:44Z</time>
      </trkpt>
      <trkpt lat="47.79925" lon="1.8207">
        <ele>115</ele>
        <time>2017-11-08T13:21:45Z</time>
      </trkpt>
      <trkpt lat="47.79921" lon="1.82082">
        <ele>115</ele>
        <time>2017-11-08T13:21:46Z</time>
      </trkpt>
      <trkpt lat="47.79918" lon="1.8209">
        <ele>115</ele>
        <time>2017-11-08T13:21:47Z</time>
      </trkpt>
      <trkpt lat="47.79917" lon="1.82094">
        <ele>115</ele>
        <time>2017-11-08T13:21:48Z</time>
      </trkpt>
      <trkpt lat="47.79914" lon="1.82099">
        <ele>115</ele>
        <time>2017-11-08T13:21:49Z</time>
      </trkpt>
      <trkpt lat="47.79912" lon="1.82105">
        <ele>115</ele>
        <time>2017-11-08T13:21:50Z</time>
      </trkpt>
      <trkpt lat="47.7991" lon="1.82111">
        <ele>115</ele>
        <time>2017-11-08T13:21:51Z</time>
      </trkpt>
      <trkpt lat="47.79906" lon="1.82119">
        <ele>115</ele>
        <time>2017-11-08T13:21:52Z</time>
      </trkpt>
      <trkpt lat="47.79904" lon="1.82127">
        <ele>115</ele>
        <time>2017-11-08T13:21:53Z</time>
      </trkpt>
      <trkpt lat="47.79902" lon="1.82135">
        <ele>115</ele>
        <time>2017-11-08T13:21:54Z</time>
      </trkpt>
      <trkpt lat="47.79901" lon="1.82143">
        <ele>114</ele>
        <time>2017-11-08T13:21:55Z</time>
      </trkpt>
      <trkpt lat="47.79899" lon="1.8215">
        <ele>114</ele>
        <time>2017-11-08T13:21:56Z</time>
      </trkpt>
      <trkpt lat="47.79898" lon="1.82157">
        <ele>114</ele>
        <time>2017-11-08T13:21:57Z</time>
      </trkpt>
      <trkpt lat="47.79897" lon="1.82164">
        <ele>114</ele>
        <time>2017-11-08T13:21:58Z</time>
      </trkpt>
      <trkpt lat="47.79894" lon="1.82172">
        <ele>113</ele>
        <time>2017-11-08T13:21:59Z</time>
      </trkpt>
      <trkpt lat="47.79893" lon="1.82179">
        <ele>113</ele>
        <time>2017-11-08T13:22:00Z</time>
      </trkpt>
      <trkpt lat="47.79892" lon="1.82185">
        <ele>113</ele>
        <time>2017-11-08T13:22:01Z</time>
      </trkpt>
      <trkpt lat="47.7989" lon="1.82192">
        <ele>113</ele>
        <time>2017-11-08T13:22:02Z</time>
      </trkpt>
      <trkpt lat="47.79889" lon="1.82198">
        <ele>113</ele>
        <time>2017-11-08T13:22:03Z</time>
      </trkpt>
      <trkpt lat="47.79888" lon="1.82205">
        <ele>113</ele>
        <time>2017-11-08T13:22:04Z</time>
      </trkpt>
      <trkpt lat="47.79886" lon="1.82213">
        <ele>113</ele>
        <time>2017-11-08T13:22:05Z</time>
      </trkpt>
      <trkpt lat="47.79884" lon="1.8222">
        <ele>113</ele>
        <time>2017-11-08T13:22:06Z</time>
      </trkpt>
      <trkpt lat="47.79883" lon="1.82228">
        <ele>113</ele>
        <time>2017-11-08T13:22:07Z</time>
      </trkpt>
      <trkpt lat="47.79882" lon="1.82234">
        <ele>113</ele>
        <time>2017-11-08T13:22:08Z</time>
      </trkpt>
      <trkpt lat="47.7988" lon="1.82241">
        <ele>113</ele>
        <time>2017-11-08T13:22:09Z</time>
      </trkpt>
      <trkpt lat="47.79878" lon="1.82249">
        <ele>113</ele>
        <time>2017-11-08T13:22:10Z</time>
      </trkpt>
      <trkpt lat="47.79876" lon="1.82257">
        <ele>112</ele>
        <time>2017-11-08T13:22:11Z</time>
      </trkpt>
      <trkpt lat="47.79874" lon="1.82266">
        <ele>112</ele>
        <time>2017-11-08T13:22:12Z</time>
      </trkpt>
      <trkpt lat="47.79872" lon="1.82273">
        <ele>112</ele>
        <time>2017-11-08T13:22:13Z</time>
      </trkpt>
      <trkpt lat="47.7987" lon="1.82281">
        <ele>112</ele>
        <time>2017-11-08T13:22:14Z</time>
      </trkpt>
      <trkpt lat="47.79868" lon="1.82288">
        <ele>112</ele>
        <time>2017-11-08T13:22:15Z</time>
      </trkpt>
      <trkpt lat="47.79865" lon="1.82295">
        <ele>112</ele>
        <time>2017-11-08T13:22:16Z</time>
      </trkpt>
      <trkpt lat="47.79863" lon="1.82301">
        <ele>112</ele>
        <time>2017-11-08T13:22:17Z</time>
      </trkpt>
      <trkpt lat="47.79861" lon="1.82308">
        <ele>112</ele>
        <time>2017-11-08T13:22:18Z</time>
      </trkpt>
      <trkpt lat="47.79859" lon="1.82316">
        <ele>112</ele>
        <time>2017-11-08T13:22:19Z</time>
      </trkpt>
      <trkpt lat="47.79857" lon="1.82324">
        <ele>112</ele>
        <time>2017-11-08T13:22:20Z</time>
      </trkpt>
      <trkpt lat="47.79855" lon="1.82332">
        <ele>112</ele>
        <time>2017-11-08T13:22:21Z</time>
      </trkpt>
      <trkpt lat="47.79855" lon="1.8234">
        <ele>110</ele>
        <time>2017-11-08T13:22:22Z</time>
      </trkpt>
      <trkpt lat="47.79855" lon="1.82348">
        <ele>110</ele>
        <time>2017-11-08T13:22:23Z</time>
      </trkpt>
      <trkpt lat="47.79856" lon="1.82355">
        <ele>110</ele>
        <time>2017-11-08T13:22:24Z</time>
      </trkpt>
      <trkpt lat="47.79856" lon="1.82361">
        <ele>110</ele>
        <time>2017-11-08T13:22:25Z</time>
      </trkpt>
      <trkpt lat="47.79855" lon="1.82367">
        <ele>109</ele>
        <time>2017-11-08T13:22:26Z</time>
      </trkpt>
      <trkpt lat="47.79854" lon="1.82373">
        <ele>109</ele>
        <time>2017-11-08T13:22:27Z</time>
      </trkpt>
      <trkpt lat="47.79851" lon="1.82379">
        <ele>109</ele>
        <time>2017-11-08T13:22:28Z</time>
      </trkpt>
      <trkpt lat="47.79849" lon="1.82385">
        <ele>109</ele>
        <time>2017-11-08T13:22:29Z</time>
      </trkpt>
      <trkpt lat="47.79847" lon="1.82392">
        <ele>109</ele>
        <time>2017-11-08T13:22:30Z</time>
      </trkpt>
      <trkpt lat="47.79845" lon="1.82398">
        <ele>109</ele>
        <time>2017-11-08T13:22:31Z</time>
      </trkpt>
      <trkpt lat="47.79841" lon="1.82402">
        <ele>109</ele>
        <time>2017-11-08T13:22:32Z</time>
      </trkpt>
      <trkpt lat="47.79838" lon="1.82407">
        <ele>108</ele>
        <time>2017-11-08T13:22:33Z</time>
      </trkpt>
      <trkpt lat="47.79835" lon="1.82412">
        <ele>108</ele>
        <time>2017-11-08T13:22:34Z</time>
      </trkpt>
      <trkpt lat="47.79831" lon="1.82417">
        <ele>108</ele>
        <time>2017-11-08T13:22:35Z</time>
      </trkpt>
      <trkpt lat="47.79827" lon="1.82422">
        <ele>108</ele>
        <time>2017-11-08T13:22:36Z</time>
      </trkpt>
      <trkpt lat="47.79823" lon="1.82426">
        <ele>108</ele>
        <time>2017-11-08T13:22:37Z</time>
      </trkpt>
      <trkpt lat="47.7982" lon="1.82432">
        <ele>108</ele>
        <time>2017-11-08T13:22:38Z</time>
      </trkpt>
      <trkpt lat="47.79816" lon="1.82438">
        <ele>108</ele>
        <time>2017-11-08T13:22:39Z</time>
      </trkpt>
      <trkpt lat="47.79812" lon="1.82444">
        <ele>108</ele>
        <time>2017-11-08T13:22:40Z</time>
      </trkpt>
      <trkpt lat="47.79809" lon="1.8245">
        <ele>108</ele>
        <time>2017-11-08T13:22:41Z</time>
      </trkpt>
      <trkpt lat="47.79806" lon="1.82457">
        <ele>108</ele>
        <time>2017-11-08T13:22:42Z</time>
      </trkpt>
      <trkpt lat="47.79802" lon="1.82463">
        <ele>108</ele>
        <time>2017-11-08T13:22:43Z</time>
      </trkpt>
      <trkpt lat="47.79799" lon="1.82468">
        <ele>108</ele>
        <time>2017-11-08T13:22:44Z</time>
      </trkpt>
      <trkpt lat="47.79796" lon="1.82475">
        <ele>108</ele>
        <time>2017-11-08T13:22:45Z</time>
      </trkpt>
      <trkpt lat="47.79793" lon="1.82481">
        <ele>108</ele>
        <time>2017-11-08T13:22:46Z</time>
      </trkpt>
      <trkpt lat="47.79791" lon="1.82488">
        <ele>108</ele>
        <time>2017-11-08T13:22:47Z</time>
      </trkpt>
      <trkpt lat="47.79788" lon="1.82495">
        <ele>108</ele>
        <time>2017-11-08T13:22:48Z</time>
      </trkpt>
      <trkpt lat="47.79785" lon="1.82502">
        <ele>109</ele>
        <time>2017-11-08T13:22:49Z</time>
      </trkpt>
      <trkpt lat="47.79782" lon="1.82507">
        <ele>109</ele>
        <time>2017-11-08T13:22:50Z</time>
      </trkpt>
      <trkpt lat="47.79778" lon="1.82513">
        <ele>110</ele>
        <time>2017-11-08T13:22:51Z</time>
      </trkpt>
      <trkpt lat="47.79776" lon="1.82519">
        <ele>110</ele>
        <time>2017-11-08T13:22:52Z</time>
      </trkpt>
      <trkpt lat="47.79775" lon="1.82526">
        <ele>110</ele>
        <time>2017-11-08T13:22:53Z</time>
      </trkpt>
      <trkpt lat="47.79774" lon="1.8253">
        <ele>110</ele>
        <time>2017-11-08T13:22:54Z</time>
      </trkpt>
      <trkpt lat="47.79774" lon="1.82537">
        <ele>110</ele>
        <time>2017-11-08T13:22:56Z</time>
      </trkpt>
      <trkpt lat="47.79773" lon="1.82543">
        <ele>110</ele>
        <time>2017-11-08T13:22:58Z</time>
      </trkpt>
      <trkpt lat="47.79772" lon="1.82547">
        <ele>110</ele>
        <time>2017-11-08T13:22:59Z</time>
      </trkpt>
      <trkpt lat="47.79771" lon="1.82552">
        <ele>110</ele>
        <time>2017-11-08T13:23:00Z</time>
      </trkpt>
      <trkpt lat="47.7977" lon="1.82557">
        <ele>110</ele>
        <time>2017-11-08T13:23:01Z</time>
      </trkpt>
      <trkpt lat="47.7977" lon="1.82562">
        <ele>110</ele>
        <time>2017-11-08T13:23:02Z</time>
      </trkpt>
      <trkpt lat="47.79772" lon="1.82568">
        <ele>111</ele>
        <time>2017-11-08T13:23:04Z</time>
      </trkpt>
      <trkpt lat="47.79774" lon="1.82574">
        <ele>111</ele>
        <time>2017-11-08T13:23:06Z</time>
      </trkpt>
      <trkpt lat="47.79777" lon="1.82581">
        <ele>111</ele>
        <time>2017-11-08T13:23:08Z</time>
      </trkpt>
      <trkpt lat="47.7978" lon="1.82585">
        <ele>112</ele>
        <time>2017-11-08T13:23:09Z</time>
      </trkpt>
      <trkpt lat="47.79782" lon="1.82591">
        <ele>112</ele>
        <time>2017-11-08T13:23:10Z</time>
      </trkpt>
      <trkpt lat="47.79784" lon="1.82596">
        <ele>112</ele>
        <time>2017-11-08T13:23:11Z</time>
      </trkpt>
      <trkpt lat="47.79788" lon="1.82601">
        <ele>112</ele>
        <time>2017-11-08T13:23:12Z</time>
      </trkpt>
      <trkpt lat="47.79791" lon="1.82606">
        <ele>111</ele>
        <time>2017-11-08T13:23:13Z</time>
      </trkpt>
      <trkpt lat="47.79794" lon="1.82612">
        <ele>111</ele>
        <time>2017-11-08T13:23:14Z</time>
      </trkpt>
      <trkpt lat="47.79798" lon="1.82618">
        <ele>112</ele>
        <time>2017-11-08T13:23:15Z</time>
      </trkpt>
      <trkpt lat="47.79801" lon="1.82623">
        <ele>112</ele>
        <time>2017-11-08T13:23:16Z</time>
      </trkpt>
      <trkpt lat="47.79805" lon="1.82628">
        <ele>112</ele>
        <time>2017-11-08T13:23:17Z</time>
      </trkpt>
      <trkpt lat="47.79808" lon="1.82634">
        <ele>112</ele>
        <time>2017-11-08T13:23:18Z</time>
      </trkpt>
      <trkpt lat="47.79812" lon="1.8264">
        <ele>112</ele>
        <time>2017-11-08T13:23:19Z</time>
      </trkpt>
      <trkpt lat="47.79815" lon="1.82646">
        <ele>112</ele>
        <time>2017-11-08T13:23:20Z</time>
      </trkpt>
      <trkpt lat="47.79819" lon="1.82651">
        <ele>112</ele>
        <time>2017-11-08T13:23:21Z</time>
      </trkpt>
      <trkpt lat="47.79823" lon="1.82657">
        <ele>112</ele>
        <time>2017-11-08T13:23:22Z</time>
      </trkpt>
      <trkpt lat="47.79827" lon="1.82662">
        <ele>113</ele>
        <time>2017-11-08T13:23:23Z</time>
      </trkpt>
      <trkpt lat="47.79831" lon="1.82667">
        <ele>113</ele>
        <time>2017-11-08T13:23:24Z</time>
      </trkpt>
      <trkpt lat="47.79834" lon="1.82674">
        <ele>112</ele>
        <time>2017-11-08T13:23:25Z</time>
      </trkpt>
      <trkpt lat="47.79838" lon="1.82681">
        <ele>112</ele>
        <time>2017-11-08T13:23:26Z</time>
      </trkpt>
      <trkpt lat="47.79842" lon="1.82688">
        <ele>112</ele>
        <time>2017-11-08T13:23:27Z</time>
      </trkpt>
      <trkpt lat="47.79846" lon="1.82695">
        <ele>112</ele>
        <time>2017-11-08T13:23:28Z</time>
      </trkpt>
      <trkpt lat="47.7985" lon="1.82701">
        <ele>111</ele>
        <time>2017-11-08T13:23:29Z</time>
      </trkpt>
      <trkpt lat="47.79853" lon="1.82707">
        <ele>111</ele>
        <time>2017-11-08T13:23:30Z</time>
      </trkpt>
      <trkpt lat="47.79856" lon="1.82714">
        <ele>111</ele>
        <time>2017-11-08T13:23:31Z</time>
      </trkpt>
      <trkpt lat="47.79859" lon="1.82721">
        <ele>111</ele>
        <time>2017-11-08T13:23:32Z</time>
      </trkpt>
      <trkpt lat="47.79862" lon="1.82727">
        <ele>111</ele>
        <time>2017-11-08T13:23:33Z</time>
      </trkpt>
      <trkpt lat="47.79865" lon="1.82733">
        <ele>111</ele>
        <time>2017-11-08T13:23:34Z</time>
      </trkpt>
      <trkpt lat="47.79869" lon="1.82739">
        <ele>111</ele>
        <time>2017-11-08T13:23:35Z</time>
      </trkpt>
      <trkpt lat="47.79872" lon="1.82745">
        <ele>111</ele>
        <time>2017-11-08T13:23:36Z</time>
      </trkpt>
      <trkpt lat="47.79875" lon="1.82751">
        <ele>111</ele>
        <time>2017-11-08T13:23:37Z</time>
      </trkpt>
      <trkpt lat="47.79878" lon="1.82756">
        <ele>111</ele>
        <time>2017-11-08T13:23:38Z</time>
      </trkpt>
      <trkpt lat="47.79881" lon="1.82761">
        <ele>111</ele>
        <time>2017-11-08T13:23:39Z</time>
      </trkpt>
      <trkpt lat="47.79884" lon="1.82766">
        <ele>111</ele>
        <time>2017-11-08T13:23:40Z</time>
      </trkpt>
      <trkpt lat="47.79886" lon="1.82772">
        <ele>111</ele>
        <time>2017-11-08T13:23:41Z</time>
      </trkpt>
      <trkpt lat="47.79888" lon="1.82778">
        <ele>110</ele>
        <time>2017-11-08T13:23:42Z</time>
      </trkpt>
      <trkpt lat="47.79889" lon="1.82785">
        <ele>110</ele>
        <time>2017-11-08T13:23:43Z</time>
      </trkpt>
      <trkpt lat="47.79888" lon="1.8279">
        <ele>110</ele>
        <time>2017-11-08T13:23:44Z</time>
      </trkpt>
      <trkpt lat="47.79886" lon="1.82797">
        <ele>111</ele>
        <time>2017-11-08T13:23:45Z</time>
      </trkpt>
      <trkpt lat="47.79885" lon="1.82804">
        <ele>111</ele>
        <time>2017-11-08T13:23:46Z</time>
      </trkpt>
      <trkpt lat="47.79884" lon="1.82812">
        <ele>111</ele>
        <time>2017-11-08T13:23:47Z</time>
      </trkpt>
      <trkpt lat="47.79882" lon="1.82819">
        <ele>111</ele>
        <time>2017-11-08T13:23:48Z</time>
      </trkpt>
      <trkpt lat="47.7988" lon="1.82827">
        <ele>111</ele>
        <time>2017-11-08T13:23:49Z</time>
      </trkpt>
      <trkpt lat="47.79879" lon="1.82834">
        <ele>111</ele>
        <time>2017-11-08T13:23:50Z</time>
      </trkpt>
      <trkpt lat="47.79878" lon="1.82841">
        <ele>111</ele>
        <time>2017-11-08T13:23:51Z</time>
      </trkpt>
      <trkpt lat="47.79876" lon="1.82848">
        <ele>111</ele>
        <time>2017-11-08T13:23:52Z</time>
      </trkpt>
      <trkpt lat="47.79874" lon="1.82854">
        <ele>111</ele>
        <time>2017-11-08T13:23:53Z</time>
      </trkpt>
      <trkpt lat="47.79871" lon="1.82862">
        <ele>111</ele>
        <time>2017-11-08T13:23:54Z</time>
      </trkpt>
      <trkpt lat="47.7987" lon="1.82869">
        <ele>111</ele>
        <time>2017-11-08T13:23:55Z</time>
      </trkpt>
      <trkpt lat="47.79869" lon="1.82876">
        <ele>111</ele>
        <time>2017-11-08T13:23:56Z</time>
      </trkpt>
      <trkpt lat="47.79867" lon="1.82882">
        <ele>111</ele>
        <time>2017-11-08T13:23:57Z</time>
      </trkpt>
      <trkpt lat="47.79865" lon="1.82889">
        <ele>111</ele>
        <time>2017-11-08T13:23:58Z</time>
      </trkpt>
      <trkpt lat="47.79863" lon="1.82897">
        <ele>112</ele>
        <time>2017-11-08T13:23:59Z</time>
      </trkpt>
      <trkpt lat="47.7986" lon="1.82903">
        <ele>112</ele>
        <time>2017-11-08T13:24:00Z</time>
      </trkpt>
      <trkpt lat="47.79858" lon="1.82911">
        <ele>112</ele>
        <time>2017-11-08T13:24:01Z</time>
      </trkpt>
      <trkpt lat="47.79857" lon="1.82917">
        <ele>112</ele>
        <time>2017-11-08T13:24:02Z</time>
      </trkpt>
      <trkpt lat="47.79855" lon="1.82923">
        <ele>112</ele>
        <time>2017-11-08T13:24:03Z</time>
      </trkpt>
      <trkpt lat="47.79853" lon="1.8293">
        <ele>112</ele>
        <time>2017-11-08T13:24:04Z</time>
      </trkpt>
      <trkpt lat="47.79851" lon="1.82936">
        <ele>112</ele>
        <time>2017-11-08T13:24:05Z</time>
      </trkpt>
      <trkpt lat="47.79849" lon="1.82942">
        <ele>112</ele>
        <time>2017-11-08T13:24:06Z</time>
      </trkpt>
      <trkpt lat="47.79847" lon="1.8295">
        <ele>112</ele>
        <time>2017-11-08T13:24:07Z</time>
      </trkpt>
      <trkpt lat="47.79846" lon="1.82958">
        <ele>112</ele>
        <time>2017-11-08T13:24:08Z</time>
      </trkpt>
      <trkpt lat="47.79845" lon="1.82964">
        <ele>112</ele>
        <time>2017-11-08T13:24:09Z</time>
      </trkpt>
      <trkpt lat="47.79844" lon="1.8297">
        <ele>112</ele>
        <time>2017-11-08T13:24:10Z</time>
      </trkpt>
      <trkpt lat="47.79842" lon="1.82978">
        <ele>113</ele>
        <time>2017-11-08T13:24:11Z</time>
      </trkpt>
      <trkpt lat="47.79839" lon="1.82984">
        <ele>113</ele>
        <time>2017-11-08T13:24:12Z</time>
      </trkpt>
      <trkpt lat="47.79837" lon="1.82992">
        <ele>113</ele>
        <time>2017-11-08T13:24:13Z</time>
      </trkpt>
      <trkpt lat="47.79835" lon="1.82998">
        <ele>114</ele>
        <time>2017-11-08T13:24:14Z</time>
      </trkpt>
      <trkpt lat="47.79833" lon="1.83005">
        <ele>114</ele>
        <time>2017-11-08T13:24:15Z</time>
      </trkpt>
      <trkpt lat="47.7983" lon="1.83012">
        <ele>115</ele>
        <time>2017-11-08T13:24:16Z</time>
      </trkpt>
      <trkpt lat="47.7983" lon="1.83017">
        <ele>115</ele>
        <time>2017-11-08T13:24:17Z</time>
      </trkpt>
      <trkpt lat="47.79828" lon="1.83025">
        <ele>115</ele>
        <time>2017-11-08T13:24:18Z</time>
      </trkpt>
      <trkpt lat="47.79825" lon="1.83033">
        <ele>115</ele>
        <time>2017-11-08T13:24:19Z</time>
      </trkpt>
      <trkpt lat="47.79824" lon="1.83041">
        <ele>115</ele>
        <time>2017-11-08T13:24:20Z</time>
      </trkpt>
      <trkpt lat="47.79821" lon="1.83048">
        <ele>116</ele>
        <time>2017-11-08T13:24:21Z</time>
      </trkpt>
      <trkpt lat="47.79818" lon="1.83056">
        <ele>116</ele>
        <time>2017-11-08T13:24:22Z</time>
      </trkpt>
      <trkpt lat="47.79817" lon="1.83064">
        <ele>116</ele>
        <time>2017-11-08T13:24:23Z</time>
      </trkpt>
      <trkpt lat="47.79814" lon="1.83071">
        <ele>116</ele>
        <time>2017-11-08T13:24:24Z</time>
      </trkpt>
      <trkpt lat="47.79812" lon="1.83077">
        <ele>116</ele>
        <time>2017-11-08T13:24:25Z</time>
      </trkpt>
      <trkpt lat="47.7981" lon="1.83084">
        <ele>117</ele>
        <time>2017-11-08T13:24:26Z</time>
      </trkpt>
      <trkpt lat="47.79808" lon="1.8309">
        <ele>117</ele>
        <time>2017-11-08T13:24:27Z</time>
      </trkpt>
      <trkpt lat="47.79806" lon="1.83095">
        <ele>117</ele>
        <time>2017-11-08T13:24:28Z</time>
      </trkpt>
      <trkpt lat="47.79804" lon="1.83101">
        <ele>117</ele>
        <time>2017-11-08T13:24:29Z</time>
      </trkpt>
      <trkpt lat="47.798" lon="1.83108">
        <ele>117</ele>
        <time>2017-11-08T13:24:30Z</time>
      </trkpt>
      <trkpt lat="47.79798" lon="1.83114">
        <ele>117</ele>
        <time>2017-11-08T13:24:31Z</time>
      </trkpt>
      <trkpt lat="47.79796" lon="1.83121">
        <ele>117</ele>
        <time>2017-11-08T13:24:32Z</time>
      </trkpt>
      <trkpt lat="47.79793" lon="1.83127">
        <ele>117</ele>
        <time>2017-11-08T13:24:33Z</time>
      </trkpt>
      <trkpt lat="47.79791" lon="1.83134">
        <ele>117</ele>
        <time>2017-11-08T13:24:34Z</time>
      </trkpt>
      <trkpt lat="47.79788" lon="1.83141">
        <ele>117</ele>
        <time>2017-11-08T13:24:35Z</time>
      </trkpt>
      <trkpt lat="47.79786" lon="1.83147">
        <ele>117</ele>
        <time>2017-11-08T13:24:36Z</time>
      </trkpt>
      <trkpt lat="47.79784" lon="1.83153">
        <ele>117</ele>
        <time>2017-11-08T13:24:37Z</time>
      </trkpt>
      <trkpt lat="47.79783" lon="1.83159">
        <ele>117</ele>
        <time>2017-11-08T13:24:38Z</time>
      </trkpt>
      <trkpt lat="47.79781" lon="1.83166">
        <ele>117</ele>
        <time>2017-11-08T13:24:39Z</time>
      </trkpt>
      <trkpt lat="47.79778" lon="1.83172">
        <ele>116</ele>
        <time>2017-11-08T13:24:40Z</time>
      </trkpt>
      <trkpt lat="47.79776" lon="1.83177">
        <ele>116</ele>
        <time>2017-11-08T13:24:41Z</time>
      </trkpt>
      <trkpt lat="47.79774" lon="1.83184">
        <ele>116</ele>
        <time>2017-11-08T13:24:42Z</time>
      </trkpt>
      <trkpt lat="47.7977" lon="1.83191">
        <ele>116</ele>
        <time>2017-11-08T13:24:43Z</time>
      </trkpt>
      <trkpt lat="47.79768" lon="1.83198">
        <ele>116</ele>
        <time>2017-11-08T13:24:44Z</time>
      </trkpt>
      <trkpt lat="47.79765" lon="1.83205">
        <ele>116</ele>
        <time>2017-11-08T13:24:45Z</time>
      </trkpt>
      <trkpt lat="47.79762" lon="1.83213">
        <ele>116</ele>
        <time>2017-11-08T13:24:46Z</time>
      </trkpt>
      <trkpt lat="47.7976" lon="1.83221">
        <ele>116</ele>
        <time>2017-11-08T13:24:47Z</time>
      </trkpt>
      <trkpt lat="47.79757" lon="1.83228">
        <ele>116</ele>
        <time>2017-11-08T13:24:48Z</time>
      </trkpt>
      <trkpt lat="47.79755" lon="1.83236">
        <ele>116</ele>
        <time>2017-11-08T13:24:49Z</time>
      </trkpt>
      <trkpt lat="47.79754" lon="1.83243">
        <ele>116</ele>
        <time>2017-11-08T13:24:50Z</time>
      </trkpt>
      <trkpt lat="47.79751" lon="1.8325">
        <ele>116</ele>
        <time>2017-11-08T13:24:51Z</time>
      </trkpt>
      <trkpt lat="47.79748" lon="1.83256">
        <ele>116</ele>
        <time>2017-11-08T13:24:52Z</time>
      </trkpt>
      <trkpt lat="47.79746" lon="1.83263">
        <ele>116</ele>
        <time>2017-11-08T13:24:53Z</time>
      </trkpt>
      <trkpt lat="47.79744" lon="1.83269">
        <ele>116</ele>
        <time>2017-11-08T13:24:54Z</time>
      </trkpt>
      <trkpt lat="47.79741" lon="1.83275">
        <ele>116</ele>
        <time>2017-11-08T13:24:55Z</time>
      </trkpt>
      <trkpt lat="47.79739" lon="1.83282">
        <ele>116</ele>
        <time>2017-11-08T13:24:56Z</time>
      </trkpt>
      <trkpt lat="47.79736" lon="1.83288">
        <ele>116</ele>
        <time>2017-11-08T13:24:57Z</time>
      </trkpt>
      <trkpt lat="47.79734" lon="1.83295">
        <ele>116</ele>
        <time>2017-11-08T13:24:58Z</time>
      </trkpt>
      <trkpt lat="47.79732" lon="1.83301">
        <ele>115</ele>
        <time>2017-11-08T13:24:59Z</time>
      </trkpt>
      <trkpt lat="47.7973" lon="1.83307">
        <ele>115</ele>
        <time>2017-11-08T13:25:00Z</time>
      </trkpt>
      <trkpt lat="47.79728" lon="1.83313">
        <ele>115</ele>
        <time>2017-11-08T13:25:01Z</time>
      </trkpt>
      <trkpt lat="47.79725" lon="1.83319">
        <ele>115</ele>
        <time>2017-11-08T13:25:02Z</time>
      </trkpt>
      <trkpt lat="47.79722" lon="1.83326">
        <ele>115</ele>
        <time>2017-11-08T13:25:03Z</time>
      </trkpt>
      <trkpt lat="47.79719" lon="1.83332">
        <ele>115</ele>
        <time>2017-11-08T13:25:04Z</time>
      </trkpt>
      <trkpt lat="47.79716" lon="1.83336">
        <ele>114</ele>
        <time>2017-11-08T13:25:05Z</time>
      </trkpt>
      <trkpt lat="47.79715" lon="1.83343">
        <ele>114</ele>
        <time>2017-11-08T13:25:06Z</time>
      </trkpt>
      <trkpt lat="47.79714" lon="1.83349">
        <ele>114</ele>
        <time>2017-11-08T13:25:07Z</time>
      </trkpt>
      <trkpt lat="47.79712" lon="1.83357">
        <ele>114</ele>
        <time>2017-11-08T13:25:08Z</time>
      </trkpt>
      <trkpt lat="47.7971" lon="1.83364">
        <ele>114</ele>
        <time>2017-11-08T13:25:09Z</time>
      </trkpt>
      <trkpt lat="47.79708" lon="1.83371">
        <ele>114</ele>
        <time>2017-11-08T13:25:10Z</time>
      </trkpt>
      <trkpt lat="47.79706" lon="1.83376">
        <ele>114</ele>
        <time>2017-11-08T13:25:11Z</time>
      </trkpt>
      <trkpt lat="47.79704" lon="1.83382">
        <ele>114</ele>
        <time>2017-11-08T13:25:12Z</time>
      </trkpt>
      <trkpt lat="47.79701" lon="1.8339">
        <ele>114</ele>
        <time>2017-11-08T13:25:13Z</time>
      </trkpt>
      <trkpt lat="47.79699" lon="1.83396">
        <ele>114</ele>
        <time>2017-11-08T13:25:14Z</time>
      </trkpt>
      <trkpt lat="47.79697" lon="1.83403">
        <ele>114</ele>
        <time>2017-11-08T13:25:15Z</time>
      </trkpt>
      <trkpt lat="47.79694" lon="1.8341">
        <ele>114</ele>
        <time>2017-11-08T13:25:16Z</time>
      </trkpt>
      <trkpt lat="47.7969" lon="1.83416">
        <ele>114</ele>
        <time>2017-11-08T13:25:17Z</time>
      </trkpt>
      <trkpt lat="47.79688" lon="1.83424">
        <ele>114</ele>
        <time>2017-11-08T13:25:18Z</time>
      </trkpt>
      <trkpt lat="47.79685" lon="1.8343">
        <ele>114</ele>
        <time>2017-11-08T13:25:19Z</time>
      </trkpt>
      <trkpt lat="47.79683" lon="1.83437">
        <ele>113</ele>
        <time>2017-11-08T13:25:20Z</time>
      </trkpt>
      <trkpt lat="47.7968" lon="1.83444">
        <ele>113</ele>
        <time>2017-11-08T13:25:21Z</time>
      </trkpt>
      <trkpt lat="47.79677" lon="1.83451">
        <ele>113</ele>
        <time>2017-11-08T13:25:22Z</time>
      </trkpt>
      <trkpt lat="47.79675" lon="1.83458">
        <ele>113</ele>
        <time>2017-11-08T13:25:23Z</time>
      </trkpt>
      <trkpt lat="47.79673" lon="1.83465">
        <ele>113</ele>
        <time>2017-11-08T13:25:24Z</time>
      </trkpt>
      <trkpt lat="47.79671" lon="1.83473">
        <ele>113</ele>
        <time>2017-11-08T13:25:25Z</time>
      </trkpt>
      <trkpt lat="47.79669" lon="1.83479">
        <ele>113</ele>
        <time>2017-11-08T13:25:26Z</time>
      </trkpt>
      <trkpt lat="47.79667" lon="1.83486">
        <ele>113</ele>
        <time>2017-11-08T13:25:27Z</time>
      </trkpt>
      <trkpt lat="47.79665" lon="1.83493">
        <ele>113</ele>
        <time>2017-11-08T13:25:28Z</time>
      </trkpt>
      <trkpt lat="47.79663" lon="1.83502">
        <ele>113</ele>
        <time>2017-11-08T13:25:29Z</time>
      </trkpt>
      <trkpt lat="47.79661" lon="1.8351">
        <ele>112</ele>
        <time>2017-11-08T13:25:30Z</time>
      </trkpt>
      <trkpt lat="47.79659" lon="1.83518">
        <ele>112</ele>
        <time>2017-11-08T13:25:31Z</time>
      </trkpt>
      <trkpt lat="47.79658" lon="1.83525">
        <ele>112</ele>
        <time>2017-11-08T13:25:32Z</time>
      </trkpt>
      <trkpt lat="47.79656" lon="1.83531">
        <ele>112</ele>
        <time>2017-11-08T13:25:33Z</time>
      </trkpt>
      <trkpt lat="47.79655" lon="1.83538">
        <ele>112</ele>
        <time>2017-11-08T13:25:34Z</time>
      </trkpt>
      <trkpt lat="47.79654" lon="1.83546">
        <ele>112</ele>
        <time>2017-11-08T13:25:35Z</time>
      </trkpt>
      <trkpt lat="47.79653" lon="1.83553">
        <ele>112</ele>
        <time>2017-11-08T13:25:36Z</time>
      </trkpt>
      <trkpt lat="47.79651" lon="1.8356">
        <ele>112</ele>
        <time>2017-11-08T13:25:37Z</time>
      </trkpt>
      <trkpt lat="47.79651" lon="1.83566">
        <ele>112</ele>
        <time>2017-11-08T13:25:38Z</time>
      </trkpt>
      <trkpt lat="47.7965" lon="1.83575">
        <ele>112</ele>
        <time>2017-11-08T13:25:39Z</time>
      </trkpt>
      <trkpt lat="47.79648" lon="1.83583">
        <ele>112</ele>
        <time>2017-11-08T13:25:40Z</time>
      </trkpt>
      <trkpt lat="47.79647" lon="1.83589">
        <ele>111</ele>
        <time>2017-11-08T13:25:41Z</time>
      </trkpt>
      <trkpt lat="47.79645" lon="1.83596">
        <ele>111</ele>
        <time>2017-11-08T13:25:42Z</time>
      </trkpt>
      <trkpt lat="47.79644" lon="1.83603">
        <ele>111</ele>
        <time>2017-11-08T13:25:43Z</time>
      </trkpt>
      <trkpt lat="47.79643" lon="1.83608">
        <ele>111</ele>
        <time>2017-11-08T13:25:44Z</time>
      </trkpt>
      <trkpt lat="47.79641" lon="1.83615">
        <ele>111</ele>
        <time>2017-11-08T13:25:45Z</time>
      </trkpt>
      <trkpt lat="47.79639" lon="1.83623">
        <ele>111</ele>
        <time>2017-11-08T13:25:46Z</time>
      </trkpt>
      <trkpt lat="47.79637" lon="1.83629">
        <ele>110</ele>
        <time>2017-11-08T13:25:47Z</time>
      </trkpt>
      <trkpt lat="47.79636" lon="1.83636">
        <ele>110</ele>
        <time>2017-11-08T13:25:48Z</time>
      </trkpt>
      <trkpt lat="47.79634" lon="1.83643">
        <ele>110</ele>
        <time>2017-11-08T13:25:49Z</time>
      </trkpt>
      <trkpt lat="47.79632" lon="1.8365">
        <ele>110</ele>
        <time>2017-11-08T13:25:50Z</time>
      </trkpt>
      <trkpt lat="47.7963" lon="1.83659">
        <ele>110</ele>
        <time>2017-11-08T13:25:51Z</time>
      </trkpt>
      <trkpt lat="47.79629" lon="1.83666">
        <ele>110</ele>
        <time>2017-11-08T13:25:52Z</time>
      </trkpt>
      <trkpt lat="47.79628" lon="1.83674">
        <ele>110</ele>
        <time>2017-11-08T13:25:53Z</time>
      </trkpt>
      <trkpt lat="47.79626" lon="1.83683">
        <ele>110</ele>
        <time>2017-11-08T13:25:54Z</time>
      </trkpt>
      <trkpt lat="47.79624" lon="1.83694">
        <ele>110</ele>
        <time>2017-11-08T13:25:55Z</time>
      </trkpt>
      <trkpt lat="47.79623" lon="1.83701">
        <ele>110</ele>
        <time>2017-11-08T13:25:56Z</time>
      </trkpt>
      <trkpt lat="47.7962" lon="1.83707">
        <ele>110</ele>
        <time>2017-11-08T13:25:57Z</time>
      </trkpt>
      <trkpt lat="47.79619" lon="1.83715">
        <ele>110</ele>
        <time>2017-11-08T13:25:58Z</time>
      </trkpt>
      <trkpt lat="47.79619" lon="1.83723">
        <ele>110</ele>
        <time>2017-11-08T13:25:59Z</time>
      </trkpt>
      <trkpt lat="47.79618" lon="1.83731">
        <ele>110</ele>
        <time>2017-11-08T13:26:00Z</time>
      </trkpt>
      <trkpt lat="47.79617" lon="1.83738">
        <ele>110</ele>
        <time>2017-11-08T13:26:01Z</time>
      </trkpt>
      <trkpt lat="47.79616" lon="1.83746">
        <ele>110</ele>
        <time>2017-11-08T13:26:02Z</time>
      </trkpt>
      <trkpt lat="47.79614" lon="1.83753">
        <ele>110</ele>
        <time>2017-11-08T13:26:03Z</time>
      </trkpt>
      <trkpt lat="47.79612" lon="1.8376">
        <ele>110</ele>
        <time>2017-11-08T13:26:04Z</time>
      </trkpt>
      <trkpt lat="47.79611" lon="1.83767">
        <ele>110</ele>
        <time>2017-11-08T13:26:05Z</time>
      </trkpt>
      <trkpt lat="47.79609" lon="1.83773">
        <ele>110</ele>
        <time>2017-11-08T13:26:06Z</time>
      </trkpt>
      <trkpt lat="47.79608" lon="1.83779">
        <ele>110</ele>
        <time>2017-11-08T13:26:07Z</time>
      </trkpt>
      <trkpt lat="47.79606" lon="1.83785">
        <ele>110</ele>
        <time>2017-11-08T13:26:08Z</time>
      </trkpt>
      <trkpt lat="47.79604" lon="1.83793">
        <ele>110</ele>
        <time>2017-11-08T13:26:09Z</time>
      </trkpt>
      <trkpt lat="47.79601" lon="1.83802">
        <ele>110</ele>
        <time>2017-11-08T13:26:10Z</time>
      </trkpt>
      <trkpt lat="47.79599" lon="1.83809">
        <ele>110</ele>
        <time>2017-11-08T13:26:11Z</time>
      </trkpt>
      <trkpt lat="47.79598" lon="1.83816">
        <ele>110</ele>
        <time>2017-11-08T13:26:12Z</time>
      </trkpt>
      <trkpt lat="47.79597" lon="1.83826">
        <ele>110</ele>
        <time>2017-11-08T13:26:13Z</time>
      </trkpt>
      <trkpt lat="47.79596" lon="1.83834">
        <ele>111</ele>
        <time>2017-11-08T13:26:14Z</time>
      </trkpt>
      <trkpt lat="47.79593" lon="1.83843">
        <ele>111</ele>
        <time>2017-11-08T13:26:15Z</time>
      </trkpt>
      <trkpt lat="47.79592" lon="1.83851">
        <ele>111</ele>
        <time>2017-11-08T13:26:16Z</time>
      </trkpt>
      <trkpt lat="47.79591" lon="1.83858">
        <ele>112</ele>
        <time>2017-11-08T13:26:17Z</time>
      </trkpt>
      <trkpt lat="47.79589" lon="1.83865">
        <ele>112</ele>
        <time>2017-11-08T13:26:18Z</time>
      </trkpt>
      <trkpt lat="47.79588" lon="1.83872">
        <ele>112</ele>
        <time>2017-11-08T13:26:19Z</time>
      </trkpt>
      <trkpt lat="47.79588" lon="1.83879">
        <ele>112</ele>
        <time>2017-11-08T13:26:20Z</time>
      </trkpt>
      <trkpt lat="47.79588" lon="1.83885">
        <ele>112</ele>
        <time>2017-11-08T13:26:21Z</time>
      </trkpt>
      <trkpt lat="47.79588" lon="1.83891">
        <ele>113</ele>
        <time>2017-11-08T13:26:22Z</time>
      </trkpt>
      <trkpt lat="47.79588" lon="1.83896">
        <ele>113</ele>
        <time>2017-11-08T13:26:23Z</time>
      </trkpt>
      <trkpt lat="47.79587" lon="1.839">
        <ele>113</ele>
        <time>2017-11-08T13:26:24Z</time>
      </trkpt>
      <trkpt lat="47.79587" lon="1.83905">
        <ele>113</ele>
        <time>2017-11-08T13:26:25Z</time>
      </trkpt>
      <trkpt lat="47.79587" lon="1.83911">
        <ele>114</ele>
        <time>2017-11-08T13:26:26Z</time>
      </trkpt>
      <trkpt lat="47.79587" lon="1.83918">
        <ele>114</ele>
        <time>2017-11-08T13:26:27Z</time>
      </trkpt>
      <trkpt lat="47.79586" lon="1.83928">
        <ele>113</ele>
        <time>2017-11-08T13:26:28Z</time>
      </trkpt>
      <trkpt lat="47.79584" lon="1.83943">
        <ele>113</ele>
        <time>2017-11-08T13:26:29Z</time>
      </trkpt>
      <trkpt lat="47.79585" lon="1.83957">
        <ele>113</ele>
        <time>2017-11-08T13:26:30Z</time>
      </trkpt>
      <trkpt lat="47.79585" lon="1.83968">
        <ele>113</ele>
        <time>2017-11-08T13:26:31Z</time>
      </trkpt>
      <trkpt lat="47.79585" lon="1.83978">
        <ele>112</ele>
        <time>2017-11-08T13:26:32Z</time>
      </trkpt>
      <trkpt lat="47.79583" lon="1.83988">
        <ele>112</ele>
        <time>2017-11-08T13:26:33Z</time>
      </trkpt>
      <trkpt lat="47.79581" lon="1.83997">
        <ele>112</ele>
        <time>2017-11-08T13:26:34Z</time>
      </trkpt>
      <trkpt lat="47.79579" lon="1.84004">
        <ele>111</ele>
        <time>2017-11-08T13:26:35Z</time>
      </trkpt>
      <trkpt lat="47.79577" lon="1.84012">
        <ele>111</ele>
        <time>2017-11-08T13:26:36Z</time>
      </trkpt>
      <trkpt lat="47.79576" lon="1.8402">
        <ele>110</ele>
        <time>2017-11-08T13:26:37Z</time>
      </trkpt>
      <trkpt lat="47.79574" lon="1.84026">
        <ele>110</ele>
        <time>2017-11-08T13:26:38Z</time>
      </trkpt>
      <trkpt lat="47.79572" lon="1.84033">
        <ele>110</ele>
        <time>2017-11-08T13:26:39Z</time>
      </trkpt>
      <trkpt lat="47.7957" lon="1.84041">
        <ele>109</ele>
        <time>2017-11-08T13:26:40Z</time>
      </trkpt>
      <trkpt lat="47.79569" lon="1.84049">
        <ele>109</ele>
        <time>2017-11-08T13:26:41Z</time>
      </trkpt>
      <trkpt lat="47.79568" lon="1.84057">
        <ele>109</ele>
        <time>2017-11-08T13:26:42Z</time>
      </trkpt>
      <trkpt lat="47.79567" lon="1.84065">
        <ele>109</ele>
        <time>2017-11-08T13:26:43Z</time>
      </trkpt>
      <trkpt lat="47.79566" lon="1.84073">
        <ele>109</ele>
        <time>2017-11-08T13:26:44Z</time>
      </trkpt>
      <trkpt lat="47.79565" lon="1.84081">
        <ele>109</ele>
        <time>2017-11-08T13:26:45Z</time>
      </trkpt>
      <trkpt lat="47.79564" lon="1.8409">
        <ele>109</ele>
        <time>2017-11-08T13:26:46Z</time>
      </trkpt>
      <trkpt lat="47.79563" lon="1.84098">
        <ele>109</ele>
        <time>2017-11-08T13:26:47Z</time>
      </trkpt>
      <trkpt lat="47.79562" lon="1.84106">
        <ele>109</ele>
        <time>2017-11-08T13:26:48Z</time>
      </trkpt>
      <trkpt lat="47.79561" lon="1.84114">
        <ele>109</ele>
        <time>2017-11-08T13:26:49Z</time>
      </trkpt>
      <trkpt lat="47.79561" lon="1.84122">
        <ele>109</ele>
        <time>2017-11-08T13:26:50Z</time>
      </trkpt>
      <trkpt lat="47.7956" lon="1.8413">
        <ele>109</ele>
        <time>2017-11-08T13:26:51Z</time>
      </trkpt>
      <trkpt lat="47.79559" lon="1.84138">
        <ele>109</ele>
        <time>2017-11-08T13:26:52Z</time>
      </trkpt>
      <trkpt lat="47.79559" lon="1.84146">
        <ele>109</ele>
        <time>2017-11-08T13:26:53Z</time>
      </trkpt>
      <trkpt lat="47.79558" lon="1.84153">
        <ele>110</ele>
        <time>2017-11-08T13:26:54Z</time>
      </trkpt>
      <trkpt lat="47.79558" lon="1.84161">
        <ele>110</ele>
        <time>2017-11-08T13:26:55Z</time>
      </trkpt>
      <trkpt lat="47.79557" lon="1.84168">
        <ele>111</ele>
        <time>2017-11-08T13:26:56Z</time>
      </trkpt>
      <trkpt lat="47.79556" lon="1.84175">
        <ele>111</ele>
        <time>2017-11-08T13:26:57Z</time>
      </trkpt>
      <trkpt lat="47.79556" lon="1.84183">
        <ele>111</ele>
        <time>2017-11-08T13:26:58Z</time>
      </trkpt>
      <trkpt lat="47.79556" lon="1.84191">
        <ele>111</ele>
        <time>2017-11-08T13:26:59Z</time>
      </trkpt>
      <trkpt lat="47.79555" lon="1.84198">
        <ele>111</ele>
        <time>2017-11-08T13:27:00Z</time>
      </trkpt>
      <trkpt lat="47.79554" lon="1.84207">
        <ele>111</ele>
        <time>2017-11-08T13:27:01Z</time>
      </trkpt>
      <trkpt lat="47.79553" lon="1.84215">
        <ele>111</ele>
        <time>2017-11-08T13:27:02Z</time>
      </trkpt>
      <trkpt lat="47.79552" lon="1.84223">
        <ele>111</ele>
        <time>2017-11-08T13:27:03Z</time>
      </trkpt>
      <trkpt lat="47.79552" lon="1.8423">
        <ele>111</ele>
        <time>2017-11-08T13:27:04Z</time>
      </trkpt>
      <trkpt lat="47.79552" lon="1.84238">
        <ele>111</ele>
        <time>2017-11-08T13:27:05Z</time>
      </trkpt>
      <trkpt lat="47.79551" lon="1.84247">
        <ele>111</ele>
        <time>2017-11-08T13:27:06Z</time>
      </trkpt>
      <trkpt lat="47.79551" lon="1.84254">
        <ele>111</ele>
        <time>2017-11-08T13:27:07Z</time>
      </trkpt>
      <trkpt lat="47.7955" lon="1.84261">
        <ele>111</ele>
        <time>2017-11-08T13:27:08Z</time>
      </trkpt>
      <trkpt lat="47.79549" lon="1.84269">
        <ele>111</ele>
        <time>2017-11-08T13:27:09Z</time>
      </trkpt>
      <trkpt lat="47.79548" lon="1.84277">
        <ele>111</ele>
        <time>2017-11-08T13:27:10Z</time>
      </trkpt>
      <trkpt lat="47.79547" lon="1.84284">
        <ele>110</ele>
        <time>2017-11-08T13:27:11Z</time>
      </trkpt>
      <trkpt lat="47.79546" lon="1.84292">
        <ele>110</ele>
        <time>2017-11-08T13:27:12Z</time>
      </trkpt>
      <trkpt lat="47.79546" lon="1.843">
        <ele>110</ele>
        <time>2017-11-08T13:27:13Z</time>
      </trkpt>
      <trkpt lat="47.79545" lon="1.84307">
        <ele>110</ele>
        <time>2017-11-08T13:27:14Z</time>
      </trkpt>
      <trkpt lat="47.79544" lon="1.84316">
        <ele>110</ele>
        <time>2017-11-08T13:27:15Z</time>
      </trkpt>
      <trkpt lat="47.79543" lon="1.84323">
        <ele>110</ele>
        <time>2017-11-08T13:27:16Z</time>
      </trkpt>
      <trkpt lat="47.79543" lon="1.84331">
        <ele>110</ele>
        <time>2017-11-08T13:27:17Z</time>
      </trkpt>
      <trkpt lat="47.79542" lon="1.84339">
        <ele>110</ele>
        <time>2017-11-08T13:27:18Z</time>
      </trkpt>
      <trkpt lat="47.79542" lon="1.84348">
        <ele>110</ele>
        <time>2017-11-08T13:27:19Z</time>
      </trkpt>
      <trkpt lat="47.79541" lon="1.84356">
        <ele>110</ele>
        <time>2017-11-08T13:27:20Z</time>
      </trkpt>
      <trkpt lat="47.7954" lon="1.84364">
        <ele>110</ele>
        <time>2017-11-08T13:27:21Z</time>
      </trkpt>
      <trkpt lat="47.7954" lon="1.84371">
        <ele>110</ele>
        <time>2017-11-08T13:27:22Z</time>
      </trkpt>
      <trkpt lat="47.79539" lon="1.84378">
        <ele>110</ele>
        <time>2017-11-08T13:27:23Z</time>
      </trkpt>
      <trkpt lat="47.79539" lon="1.84385">
        <ele>110</ele>
        <time>2017-11-08T13:27:24Z</time>
      </trkpt>
      <trkpt lat="47.79539" lon="1.84392">
        <ele>110</ele>
        <time>2017-11-08T13:27:25Z</time>
      </trkpt>
      <trkpt lat="47.79538" lon="1.844">
        <ele>110</ele>
        <time>2017-11-08T13:27:26Z</time>
      </trkpt>
      <trkpt lat="47.79537" lon="1.84409">
        <ele>110</ele>
        <time>2017-11-08T13:27:27Z</time>
      </trkpt>
      <trkpt lat="47.79537" lon="1.84417">
        <ele>110</ele>
        <time>2017-11-08T13:27:28Z</time>
      </trkpt>
      <trkpt lat="47.79535" lon="1.84425">
        <ele>110</ele>
        <time>2017-11-08T13:27:29Z</time>
      </trkpt>
      <trkpt lat="47.79534" lon="1.84434">
        <ele>110</ele>
        <time>2017-11-08T13:27:30Z</time>
      </trkpt>
      <trkpt lat="47.79533" lon="1.84443">
        <ele>110</ele>
        <time>2017-11-08T13:27:31Z</time>
      </trkpt>
      <trkpt lat="47.79533" lon="1.84451">
        <ele>110</ele>
        <time>2017-11-08T13:27:32Z</time>
      </trkpt>
      <trkpt lat="47.79532" lon="1.8446">
        <ele>110</ele>
        <time>2017-11-08T13:27:33Z</time>
      </trkpt>
      <trkpt lat="47.79531" lon="1.84469">
        <ele>110</ele>
        <time>2017-11-08T13:27:34Z</time>
      </trkpt>
      <trkpt lat="47.7953" lon="1.84477">
        <ele>110</ele>
        <time>2017-11-08T13:27:35Z</time>
      </trkpt>
      <trkpt lat="47.79528" lon="1.84486">
        <ele>109</ele>
        <time>2017-11-08T13:27:36Z</time>
      </trkpt>
      <trkpt lat="47.79527" lon="1.84495">
        <ele>109</ele>
        <time>2017-11-08T13:27:37Z</time>
      </trkpt>
      <trkpt lat="47.79527" lon="1.84504">
        <ele>109</ele>
        <time>2017-11-08T13:27:38Z</time>
      </trkpt>
      <trkpt lat="47.79526" lon="1.84512">
        <ele>109</ele>
        <time>2017-11-08T13:27:39Z</time>
      </trkpt>
      <trkpt lat="47.79525" lon="1.8452">
        <ele>109</ele>
        <time>2017-11-08T13:27:40Z</time>
      </trkpt>
      <trkpt lat="47.79523" lon="1.84529">
        <ele>109</ele>
        <time>2017-11-08T13:27:41Z</time>
      </trkpt>
      <trkpt lat="47.79522" lon="1.84538">
        <ele>109</ele>
        <time>2017-11-08T13:27:42Z</time>
      </trkpt>
      <trkpt lat="47.79521" lon="1.84546">
        <ele>109</ele>
        <time>2017-11-08T13:27:43Z</time>
      </trkpt>
      <trkpt lat="47.7952" lon="1.84554">
        <ele>109</ele>
        <time>2017-11-08T13:27:44Z</time>
      </trkpt>
      <trkpt lat="47.7952" lon="1.84563">
        <ele>109</ele>
        <time>2017-11-08T13:27:45Z</time>
      </trkpt>
      <trkpt lat="47.79519" lon="1.84571">
        <ele>108</ele>
        <time>2017-11-08T13:27:46Z</time>
      </trkpt>
      <trkpt lat="47.79519" lon="1.84579">
        <ele>108</ele>
        <time>2017-11-08T13:27:47Z</time>
      </trkpt>
      <trkpt lat="47.79518" lon="1.84587">
        <ele>109</ele>
        <time>2017-11-08T13:27:48Z</time>
      </trkpt>
      <trkpt lat="47.79517" lon="1.84595">
        <ele>109</ele>
        <time>2017-11-08T13:27:49Z</time>
      </trkpt>
      <trkpt lat="47.79516" lon="1.84603">
        <ele>109</ele>
        <time>2017-11-08T13:27:50Z</time>
      </trkpt>
      <trkpt lat="47.79515" lon="1.84611">
        <ele>110</ele>
        <time>2017-11-08T13:27:51Z</time>
      </trkpt>
      <trkpt lat="47.79514" lon="1.84619">
        <ele>110</ele>
        <time>2017-11-08T13:27:52Z</time>
      </trkpt>
      <trkpt lat="47.79513" lon="1.84627">
        <ele>110</ele>
        <time>2017-11-08T13:27:53Z</time>
      </trkpt>
      <trkpt lat="47.79513" lon="1.84635">
        <ele>110</ele>
        <time>2017-11-08T13:27:54Z</time>
      </trkpt>
      <trkpt lat="47.79512" lon="1.84643">
        <ele>110</ele>
        <time>2017-11-08T13:27:55Z</time>
      </trkpt>
      <trkpt lat="47.79511" lon="1.84651">
        <ele>110</ele>
        <time>2017-11-08T13:27:56Z</time>
      </trkpt>
      <trkpt lat="47.7951" lon="1.84658">
        <ele>109</ele>
        <time>2017-11-08T13:27:57Z</time>
      </trkpt>
      <trkpt lat="47.7951" lon="1.84665">
        <ele>109</ele>
        <time>2017-11-08T13:27:58Z</time>
      </trkpt>
      <trkpt lat="47.79508" lon="1.84673">
        <ele>109</ele>
        <time>2017-11-08T13:27:59Z</time>
      </trkpt>
      <trkpt lat="47.79507" lon="1.8468">
        <ele>110</ele>
        <time>2017-11-08T13:28:00Z</time>
      </trkpt>
      <trkpt lat="47.79506" lon="1.84688">
        <ele>110</ele>
        <time>2017-11-08T13:28:01Z</time>
      </trkpt>
      <trkpt lat="47.79505" lon="1.84696">
        <ele>110</ele>
        <time>2017-11-08T13:28:02Z</time>
      </trkpt>
      <trkpt lat="47.79505" lon="1.84704">
        <ele>111</ele>
        <time>2017-11-08T13:28:03Z</time>
      </trkpt>
      <trkpt lat="47.79504" lon="1.84711">
        <ele>111</ele>
        <time>2017-11-08T13:28:04Z</time>
      </trkpt>
      <trkpt lat="47.79505" lon="1.84719">
        <ele>111</ele>
        <time>2017-11-08T13:28:05Z</time>
      </trkpt>
      <trkpt lat="47.79505" lon="1.84725">
        <ele>110</ele>
        <time>2017-11-08T13:28:06Z</time>
      </trkpt>
      <trkpt lat="47.79505" lon="1.84732">
        <ele>110</ele>
        <time>2017-11-08T13:28:07Z</time>
      </trkpt>
      <trkpt lat="47.79504" lon="1.84739">
        <ele>110</ele>
        <time>2017-11-08T13:28:08Z</time>
      </trkpt>
      <trkpt lat="47.79503" lon="1.84746">
        <ele>110</ele>
        <time>2017-11-08T13:28:09Z</time>
      </trkpt>
      <trkpt lat="47.79503" lon="1.84751">
        <ele>109</ele>
        <time>2017-11-08T13:28:10Z</time>
      </trkpt>
      <trkpt lat="47.79502" lon="1.84756">
        <ele>109</ele>
        <time>2017-11-08T13:28:11Z</time>
      </trkpt>
      <trkpt lat="47.79499" lon="1.8476">
        <ele>109</ele>
        <time>2017-11-08T13:28:12Z</time>
      </trkpt>
      <trkpt lat="47.79495" lon="1.84763">
        <ele>109</ele>
        <time>2017-11-08T13:28:13Z</time>
      </trkpt>
      <trkpt lat="47.7949" lon="1.84763">
        <ele>109</ele>
        <time>2017-11-08T13:28:14Z</time>
      </trkpt>
      <trkpt lat="47.79486" lon="1.84761">
        <ele>109</ele>
        <time>2017-11-08T13:28:15Z</time>
      </trkpt>
      <trkpt lat="47.79482" lon="1.84759">
        <ele>109</ele>
        <time>2017-11-08T13:28:16Z</time>
      </trkpt>
      <trkpt lat="47.79477" lon="1.84758">
        <ele>109</ele>
        <time>2017-11-08T13:28:17Z</time>
      </trkpt>
      <trkpt lat="47.79474" lon="1.84757">
        <ele>109</ele>
        <time>2017-11-08T13:28:18Z</time>
      </trkpt>
      <trkpt lat="47.7947" lon="1.84755">
        <ele>109</ele>
        <time>2017-11-08T13:28:19Z</time>
      </trkpt>
      <trkpt lat="47.79465" lon="1.84754">
        <ele>109</ele>
        <time>2017-11-08T13:28:20Z</time>
      </trkpt>
      <trkpt lat="47.7946" lon="1.84752">
        <ele>109</ele>
        <time>2017-11-08T13:28:21Z</time>
      </trkpt>
      <trkpt lat="47.79456" lon="1.84751">
        <ele>109</ele>
        <time>2017-11-08T13:28:22Z</time>
      </trkpt>
      <trkpt lat="47.79451" lon="1.8475">
        <ele>109</ele>
        <time>2017-11-08T13:28:23Z</time>
      </trkpt>
      <trkpt lat="47.79447" lon="1.84749">
        <ele>108</ele>
        <time>2017-11-08T13:28:24Z</time>
      </trkpt>
      <trkpt lat="47.79442" lon="1.84748">
        <ele>108</ele>
        <time>2017-11-08T13:28:25Z</time>
      </trkpt>
      <trkpt lat="47.79437" lon="1.84746">
        <ele>108</ele>
        <time>2017-11-08T13:28:26Z</time>
      </trkpt>
      <trkpt lat="47.79432" lon="1.84744">
        <ele>109</ele>
        <time>2017-11-08T13:28:27Z</time>
      </trkpt>
      <trkpt lat="47.79425" lon="1.84742">
        <ele>109</ele>
        <time>2017-11-08T13:28:28Z</time>
      </trkpt>
      <trkpt lat="47.7942" lon="1.8474">
        <ele>109</ele>
        <time>2017-11-08T13:28:29Z</time>
      </trkpt>
      <trkpt lat="47.79412" lon="1.84741">
        <ele>108</ele>
        <time>2017-11-08T13:28:30Z</time>
      </trkpt>
      <trkpt lat="47.79408" lon="1.84739">
        <ele>108</ele>
        <time>2017-11-08T13:28:31Z</time>
      </trkpt>
      <trkpt lat="47.79404" lon="1.84737">
        <ele>108</ele>
        <time>2017-11-08T13:28:32Z</time>
      </trkpt>
      <trkpt lat="47.79397" lon="1.84736">
        <ele>108</ele>
        <time>2017-11-08T13:28:33Z</time>
      </trkpt>
      <trkpt lat="47.79393" lon="1.84733">
        <ele>108</ele>
        <time>2017-11-08T13:28:34Z</time>
      </trkpt>
      <trkpt lat="47.79387" lon="1.84732">
        <ele>107</ele>
        <time>2017-11-08T13:28:35Z</time>
      </trkpt>
      <trkpt lat="47.79381" lon="1.84732">
        <ele>107</ele>
        <time>2017-11-08T13:28:36Z</time>
      </trkpt>
      <trkpt lat="47.79377" lon="1.8473">
        <ele>107</ele>
        <time>2017-11-08T13:28:37Z</time>
      </trkpt>
      <trkpt lat="47.79373" lon="1.84728">
        <ele>107</ele>
        <time>2017-11-08T13:28:38Z</time>
      </trkpt>
      <trkpt lat="47.79368" lon="1.84726">
        <ele>107</ele>
        <time>2017-11-08T13:28:39Z</time>
      </trkpt>
      <trkpt lat="47.79364" lon="1.84725">
        <ele>107</ele>
        <time>2017-11-08T13:28:40Z</time>
      </trkpt>
      <trkpt lat="47.79358" lon="1.84723">
        <ele>107</ele>
        <time>2017-11-08T13:28:41Z</time>
      </trkpt>
      <trkpt lat="47.79351" lon="1.84721">
        <ele>107</ele>
        <time>2017-11-08T13:28:42Z</time>
      </trkpt>
      <trkpt lat="47.79345" lon="1.84719">
        <ele>107</ele>
        <time>2017-11-08T13:28:43Z</time>
      </trkpt>
      <trkpt lat="47.7934" lon="1.84718">
        <ele>107</ele>
        <time>2017-11-08T13:28:44Z</time>
      </trkpt>
      <trkpt lat="47.79333" lon="1.84716">
        <ele>107</ele>
        <time>2017-11-08T13:28:45Z</time>
      </trkpt>
      <trkpt lat="47.79328" lon="1.84714">
        <ele>107</ele>
        <time>2017-11-08T13:28:46Z</time>
      </trkpt>
      <trkpt lat="47.79323" lon="1.84712">
        <ele>107</ele>
        <time>2017-11-08T13:28:47Z</time>
      </trkpt>
      <trkpt lat="47.79319" lon="1.8471">
        <ele>107</ele>
        <time>2017-11-08T13:28:48Z</time>
      </trkpt>
      <trkpt lat="47.79315" lon="1.84707">
        <ele>106</ele>
        <time>2017-11-08T13:28:49Z</time>
      </trkpt>
      <trkpt lat="47.79309" lon="1.84704">
        <ele>106</ele>
        <time>2017-11-08T13:28:50Z</time>
      </trkpt>
      <trkpt lat="47.79304" lon="1.84702">
        <ele>106</ele>
        <time>2017-11-08T13:28:51Z</time>
      </trkpt>
      <trkpt lat="47.79298" lon="1.847">
        <ele>106</ele>
        <time>2017-11-08T13:28:52Z</time>
      </trkpt>
      <trkpt lat="47.79293" lon="1.84699">
        <ele>106</ele>
        <time>2017-11-08T13:28:53Z</time>
      </trkpt>
      <trkpt lat="47.79288" lon="1.84698">
        <ele>107</ele>
        <time>2017-11-08T13:28:54Z</time>
      </trkpt>
      <trkpt lat="47.79283" lon="1.84697">
        <ele>107</ele>
        <time>2017-11-08T13:28:55Z</time>
      </trkpt>
      <trkpt lat="47.79277" lon="1.84695">
        <ele>107</ele>
        <time>2017-11-08T13:28:56Z</time>
      </trkpt>
      <trkpt lat="47.79272" lon="1.84694">
        <ele>107</ele>
        <time>2017-11-08T13:28:57Z</time>
      </trkpt>
      <trkpt lat="47.79265" lon="1.84694">
        <ele>107</ele>
        <time>2017-11-08T13:28:58Z</time>
      </trkpt>
      <trkpt lat="47.7926" lon="1.84692">
        <ele>107</ele>
        <time>2017-11-08T13:28:59Z</time>
      </trkpt>
      <trkpt lat="47.79254" lon="1.8469">
        <ele>107</ele>
        <time>2017-11-08T13:29:00Z</time>
      </trkpt>
      <trkpt lat="47.79249" lon="1.84688">
        <ele>107</ele>
        <time>2017-11-08T13:29:01Z</time>
      </trkpt>
      <trkpt lat="47.79243" lon="1.84687">
        <ele>107</ele>
        <time>2017-11-08T13:29:02Z</time>
      </trkpt>
      <trkpt lat="47.79237" lon="1.84685">
        <ele>107</ele>
        <time>2017-11-08T13:29:03Z</time>
      </trkpt>
      <trkpt lat="47.7923" lon="1.84683">
        <ele>107</ele>
        <time>2017-11-08T13:29:04Z</time>
      </trkpt>
      <trkpt lat="47.79225" lon="1.84681">
        <ele>107</ele>
        <time>2017-11-08T13:29:05Z</time>
      </trkpt>
      <trkpt lat="47.79219" lon="1.84679">
        <ele>107</ele>
        <time>2017-11-08T13:29:06Z</time>
      </trkpt>
      <trkpt lat="47.79213" lon="1.84677">
        <ele>107</ele>
        <time>2017-11-08T13:29:07Z</time>
      </trkpt>
      <trkpt lat="47.79208" lon="1.84675">
        <ele>107</ele>
        <time>2017-11-08T13:29:08Z</time>
      </trkpt>
      <trkpt lat="47.79202" lon="1.84673">
        <ele>107</ele>
        <time>2017-11-08T13:29:09Z</time>
      </trkpt>
      <trkpt lat="47.79197" lon="1.8467">
        <ele>107</ele>
        <time>2017-11-08T13:29:10Z</time>
      </trkpt>
      <trkpt lat="47.79193" lon="1.84669">
        <ele>107</ele>
        <time>2017-11-08T13:29:11Z</time>
      </trkpt>
      <trkpt lat="47.79188" lon="1.84667">
        <ele>107</ele>
        <time>2017-11-08T13:29:12Z</time>
      </trkpt>
      <trkpt lat="47.79183" lon="1.84665">
        <ele>107</ele>
        <time>2017-11-08T13:29:13Z</time>
      </trkpt>
      <trkpt lat="47.79178" lon="1.84665">
        <ele>107</ele>
        <time>2017-11-08T13:29:14Z</time>
      </trkpt>
      <trkpt lat="47.79173" lon="1.84663">
        <ele>108</ele>
        <time>2017-11-08T13:29:15Z</time>
      </trkpt>
      <trkpt lat="47.79167" lon="1.84662">
        <ele>108</ele>
        <time>2017-11-08T13:29:16Z</time>
      </trkpt>
      <trkpt lat="47.79162" lon="1.84659">
        <ele>108</ele>
        <time>2017-11-08T13:29:17Z</time>
      </trkpt>
      <trkpt lat="47.79157" lon="1.84657">
        <ele>107</ele>
        <time>2017-11-08T13:29:18Z</time>
      </trkpt>
      <trkpt lat="47.79151" lon="1.84655">
        <ele>107</ele>
        <time>2017-11-08T13:29:19Z</time>
      </trkpt>
      <trkpt lat="47.79145" lon="1.84652">
        <ele>107</ele>
        <time>2017-11-08T13:29:20Z</time>
      </trkpt>
      <trkpt lat="47.7914" lon="1.84649">
        <ele>107</ele>
        <time>2017-11-08T13:29:21Z</time>
      </trkpt>
      <trkpt lat="47.79134" lon="1.84645">
        <ele>107</ele>
        <time>2017-11-08T13:29:22Z</time>
      </trkpt>
      <trkpt lat="47.79129" lon="1.84642">
        <ele>107</ele>
        <time>2017-11-08T13:29:23Z</time>
      </trkpt>
      <trkpt lat="47.79123" lon="1.84639">
        <ele>107</ele>
        <time>2017-11-08T13:29:24Z</time>
      </trkpt>
      <trkpt lat="47.79118" lon="1.84636">
        <ele>107</ele>
        <time>2017-11-08T13:29:25Z</time>
      </trkpt>
      <trkpt lat="47.79113" lon="1.84634">
        <ele>106</ele>
        <time>2017-11-08T13:29:26Z</time>
      </trkpt>
      <trkpt lat="47.79108" lon="1.84631">
        <ele>106</ele>
        <time>2017-11-08T13:29:27Z</time>
      </trkpt>
      <trkpt lat="47.79103" lon="1.8463">
        <ele>106</ele>
        <time>2017-11-08T13:29:28Z</time>
      </trkpt>
      <trkpt lat="47.79098" lon="1.84628">
        <ele>106</ele>
        <time>2017-11-08T13:29:29Z</time>
      </trkpt>
      <trkpt lat="47.79094" lon="1.84626">
        <ele>106</ele>
        <time>2017-11-08T13:29:30Z</time>
      </trkpt>
      <trkpt lat="47.7909" lon="1.84624">
        <ele>106</ele>
        <time>2017-11-08T13:29:31Z</time>
      </trkpt>
      <trkpt lat="47.79086" lon="1.84623">
        <ele>106</ele>
        <time>2017-11-08T13:29:32Z</time>
      </trkpt>
      <trkpt lat="47.79081" lon="1.8462">
        <ele>104</ele>
        <time>2017-11-08T13:29:33Z</time>
      </trkpt>
      <trkpt lat="47.79078" lon="1.84618">
        <ele>104</ele>
        <time>2017-11-08T13:29:34Z</time>
      </trkpt>
      <trkpt lat="47.79073" lon="1.84617">
        <ele>104</ele>
        <time>2017-11-08T13:29:35Z</time>
      </trkpt>
      <trkpt lat="47.79068" lon="1.84616">
        <ele>104</ele>
        <time>2017-11-08T13:29:36Z</time>
      </trkpt>
      <trkpt lat="47.79061" lon="1.84617">
        <ele>104</ele>
        <time>2017-11-08T13:29:37Z</time>
      </trkpt>
      <trkpt lat="47.79054" lon="1.8462">
        <ele>104</ele>
        <time>2017-11-08T13:29:38Z</time>
      </trkpt>
      <trkpt lat="47.79047" lon="1.84626">
        <ele>104</ele>
        <time>2017-11-08T13:29:39Z</time>
      </trkpt>
      <trkpt lat="47.79041" lon="1.84632">
        <ele>103</ele>
        <time>2017-11-08T13:29:40Z</time>
      </trkpt>
      <trkpt lat="47.79035" lon="1.84639">
        <ele>103</ele>
        <time>2017-11-08T13:29:41Z</time>
      </trkpt>
      <trkpt lat="47.79031" lon="1.84646">
        <ele>103</ele>
        <time>2017-11-08T13:29:42Z</time>
      </trkpt>
      <trkpt lat="47.79025" lon="1.84655">
        <ele>103</ele>
        <time>2017-11-08T13:29:43Z</time>
      </trkpt>
      <trkpt lat="47.79019" lon="1.8466">
        <ele>102</ele>
        <time>2017-11-08T13:29:44Z</time>
      </trkpt>
      <trkpt lat="47.79013" lon="1.84665">
        <ele>101</ele>
        <time>2017-11-08T13:29:45Z</time>
      </trkpt>
      <trkpt lat="47.79007" lon="1.84666">
        <ele>101</ele>
        <time>2017-11-08T13:29:46Z</time>
      </trkpt>
      <trkpt lat="47.79001" lon="1.84666">
        <ele>100</ele>
        <time>2017-11-08T13:29:47Z</time>
      </trkpt>
      <trkpt lat="47.78995" lon="1.84666">
        <ele>100</ele>
        <time>2017-11-08T13:29:48Z</time>
      </trkpt>
      <trkpt lat="47.78988" lon="1.84664">
        <ele>100</ele>
        <time>2017-11-08T13:29:49Z</time>
      </trkpt>
      <trkpt lat="47.78983" lon="1.84661">
        <ele>101</ele>
        <time>2017-11-08T13:29:50Z</time>
      </trkpt>
      <trkpt lat="47.78978" lon="1.84657">
        <ele>101</ele>
        <time>2017-11-08T13:29:51Z</time>
      </trkpt>
      <trkpt lat="47.78974" lon="1.84654">
        <ele>101</ele>
        <time>2017-11-08T13:29:52Z</time>
      </trkpt>
      <trkpt lat="47.78969" lon="1.84651">
        <ele>101</ele>
        <time>2017-11-08T13:29:53Z</time>
      </trkpt>
      <trkpt lat="47.78965" lon="1.84646">
        <ele>101</ele>
        <time>2017-11-08T13:29:54Z</time>
      </trkpt>
      <trkpt lat="47.7896" lon="1.84641">
        <ele>101</ele>
        <time>2017-11-08T13:29:55Z</time>
      </trkpt>
      <trkpt lat="47.78956" lon="1.84636">
        <ele>101</ele>
        <time>2017-11-08T13:29:56Z</time>
      </trkpt>
      <trkpt lat="47.78952" lon="1.84631">
        <ele>101</ele>
        <time>2017-11-08T13:29:57Z</time>
      </trkpt>
      <trkpt lat="47.78947" lon="1.84627">
        <ele>101</ele>
        <time>2017-11-08T13:29:58Z</time>
      </trkpt>
      <trkpt lat="47.78943" lon="1.84622">
        <ele>101</ele>
        <time>2017-11-08T13:29:59Z</time>
      </trkpt>
      <trkpt lat="47.7894" lon="1.84616">
        <ele>101</ele>
        <time>2017-11-08T13:30:00Z</time>
      </trkpt>
      <trkpt lat="47.78938" lon="1.84609">
        <ele>101</ele>
        <time>2017-11-08T13:30:01Z</time>
      </trkpt>
      <trkpt lat="47.78935" lon="1.84602">
        <ele>102</ele>
        <time>2017-11-08T13:30:02Z</time>
      </trkpt>
      <trkpt lat="47.78931" lon="1.84597">
        <ele>102</ele>
        <time>2017-11-08T13:30:03Z</time>
      </trkpt>
      <trkpt lat="47.78927" lon="1.84592">
        <ele>102</ele>
        <time>2017-11-08T13:30:04Z</time>
      </trkpt>
      <trkpt lat="47.78923" lon="1.84588">
        <ele>102</ele>
        <time>2017-11-08T13:30:05Z</time>
      </trkpt>
      <trkpt lat="47.7892" lon="1.84585">
        <ele>102</ele>
        <time>2017-11-08T13:30:06Z</time>
      </trkpt>
      <trkpt lat="47.78916" lon="1.84582">
        <ele>102</ele>
        <time>2017-11-08T13:30:07Z</time>
      </trkpt>
      <trkpt lat="47.78914" lon="1.84576">
        <ele>102</ele>
        <time>2017-11-08T13:30:08Z</time>
      </trkpt>
      <trkpt lat="47.78913" lon="1.84569">
        <ele>102</ele>
        <time>2017-11-08T13:30:09Z</time>
      </trkpt>
      <trkpt lat="47.7891" lon="1.84561">
        <ele>103</ele>
        <time>2017-11-08T13:30:10Z</time>
      </trkpt>
      <trkpt lat="47.78906" lon="1.84557">
        <ele>103</ele>
        <time>2017-11-08T13:30:11Z</time>
      </trkpt>
      <trkpt lat="47.78904" lon="1.84556">
        <ele>103</ele>
        <time>2017-11-08T13:30:12Z</time>
      </trkpt>
      <trkpt lat="47.78899" lon="1.84552">
        <ele>103</ele>
        <time>2017-11-08T13:30:14Z</time>
      </trkpt>
      <trkpt lat="47.78896" lon="1.8455">
        <ele>103</ele>
        <time>2017-11-08T13:30:15Z</time>
      </trkpt>
      <trkpt lat="47.78887" lon="1.84549">
        <ele>103</ele>
        <time>2017-11-08T13:30:16Z</time>
      </trkpt>
      <trkpt lat="47.7888" lon="1.84546">
        <ele>103</ele>
        <time>2017-11-08T13:30:17Z</time>
      </trkpt>
      <trkpt lat="47.78876" lon="1.84545">
        <ele>103</ele>
        <time>2017-11-08T13:30:18Z</time>
      </trkpt>
      <trkpt lat="47.78872" lon="1.84543">
        <ele>103</ele>
        <time>2017-11-08T13:30:19Z</time>
      </trkpt>
      <trkpt lat="47.78869" lon="1.84541">
        <ele>103</ele>
        <time>2017-11-08T13:30:20Z</time>
      </trkpt>
      <trkpt lat="47.78866" lon="1.84542">
        <ele>103</ele>
        <time>2017-11-08T13:30:21Z</time>
      </trkpt>
      <trkpt lat="47.78862" lon="1.84541">
        <ele>103</ele>
        <time>2017-11-08T13:30:22Z</time>
      </trkpt>
      <trkpt lat="47.78858" lon="1.84542">
        <ele>103</ele>
        <time>2017-11-08T13:30:23Z</time>
      </trkpt>
      <trkpt lat="47.78853" lon="1.84545">
        <ele>103</ele>
        <time>2017-11-08T13:30:24Z</time>
      </trkpt>
      <trkpt lat="47.78848" lon="1.84544">
        <ele>103</ele>
        <time>2017-11-08T13:30:25Z</time>
      </trkpt>
      <trkpt lat="47.78844" lon="1.84543">
        <ele>103</ele>
        <time>2017-11-08T13:30:26Z</time>
      </trkpt>
      <trkpt lat="47.78838" lon="1.84544">
        <ele>104</ele>
        <time>2017-11-08T13:30:28Z</time>
      </trkpt>
      <trkpt lat="47.78835" lon="1.84546">
        <ele>104</ele>
        <time>2017-11-08T13:30:29Z</time>
      </trkpt>
      <trkpt lat="47.78826" lon="1.84551">
        <ele>105</ele>
        <time>2017-11-08T13:30:31Z</time>
      </trkpt>
      <trkpt lat="47.7882" lon="1.84552">
        <ele>105</ele>
        <time>2017-11-08T13:30:33Z</time>
      </trkpt>
      <trkpt lat="47.78815" lon="1.84555">
        <ele>105</ele>
        <time>2017-11-08T13:30:34Z</time>
      </trkpt>
      <trkpt lat="47.7881" lon="1.84559">
        <ele>105</ele>
        <time>2017-11-08T13:30:35Z</time>
      </trkpt>
      <trkpt lat="47.78806" lon="1.84562">
        <ele>105</ele>
        <time>2017-11-08T13:30:36Z</time>
      </trkpt>
      <trkpt lat="47.78802" lon="1.84565">
        <ele>105</ele>
        <time>2017-11-08T13:30:37Z</time>
      </trkpt>
      <trkpt lat="47.78797" lon="1.8457">
        <ele>105</ele>
        <time>2017-11-08T13:30:38Z</time>
      </trkpt>
      <trkpt lat="47.78792" lon="1.84574">
        <ele>105</ele>
        <time>2017-11-08T13:30:39Z</time>
      </trkpt>
      <trkpt lat="47.78789" lon="1.84579">
        <ele>105</ele>
        <time>2017-11-08T13:30:40Z</time>
      </trkpt>
      <trkpt lat="47.78784" lon="1.84584">
        <ele>105</ele>
        <time>2017-11-08T13:30:41Z</time>
      </trkpt>
      <trkpt lat="47.78781" lon="1.84585">
        <ele>105</ele>
        <time>2017-11-08T13:30:42Z</time>
      </trkpt>
      <trkpt lat="47.78777" lon="1.84586">
        <ele>105</ele>
        <time>2017-11-08T13:30:43Z</time>
      </trkpt>
      <trkpt lat="47.78769" lon="1.84589">
        <ele>105</ele>
        <time>2017-11-08T13:30:44Z</time>
      </trkpt>
      <trkpt lat="47.78765" lon="1.84588">
        <ele>105</ele>
        <time>2017-11-08T13:30:45Z</time>
      </trkpt>
      <trkpt lat="47.78761" lon="1.84587">
        <ele>105</ele>
        <time>2017-11-08T13:30:46Z</time>
      </trkpt>
      <trkpt lat="47.78756" lon="1.84586">
        <ele>105</ele>
        <time>2017-11-08T13:30:47Z</time>
      </trkpt>
      <trkpt lat="47.78751" lon="1.84587">
        <ele>105</ele>
        <time>2017-11-08T13:30:48Z</time>
      </trkpt>
      <trkpt lat="47.78745" lon="1.84588">
        <ele>105</ele>
        <time>2017-11-08T13:30:49Z</time>
      </trkpt>
      <trkpt lat="47.7874" lon="1.84588">
        <ele>105</ele>
        <time>2017-11-08T13:30:50Z</time>
      </trkpt>
      <trkpt lat="47.78735" lon="1.84588">
        <ele>105</ele>
        <time>2017-11-08T13:30:51Z</time>
      </trkpt>
      <trkpt lat="47.78723" lon="1.84593">
        <ele>105</ele>
        <time>2017-11-08T13:30:52Z</time>
      </trkpt>
      <trkpt lat="47.78719" lon="1.84591">
        <ele>105</ele>
        <time>2017-11-08T13:30:53Z</time>
      </trkpt>
      <trkpt lat="47.78715" lon="1.84591">
        <ele>105</ele>
        <time>2017-11-08T13:30:54Z</time>
      </trkpt>
      <trkpt lat="47.7871" lon="1.8459">
        <ele>105</ele>
        <time>2017-11-08T13:30:55Z</time>
      </trkpt>
      <trkpt lat="47.78707" lon="1.84589">
        <ele>105</ele>
        <time>2017-11-08T13:30:56Z</time>
      </trkpt>
      <trkpt lat="47.78703" lon="1.84588">
        <ele>105</ele>
        <time>2017-11-08T13:30:57Z</time>
      </trkpt>
      <trkpt lat="47.78699" lon="1.84588">
        <ele>105</ele>
        <time>2017-11-08T13:30:58Z</time>
      </trkpt>
      <trkpt lat="47.78693" lon="1.84588">
        <ele>105</ele>
        <time>2017-11-08T13:30:59Z</time>
      </trkpt>
      <trkpt lat="47.7869" lon="1.84588">
        <ele>106</ele>
        <time>2017-11-08T13:31:00Z</time>
      </trkpt>
      <trkpt lat="47.78687" lon="1.84588">
        <ele>106</ele>
        <time>2017-11-08T13:31:01Z</time>
      </trkpt>
      <trkpt lat="47.78683" lon="1.84589">
        <ele>106</ele>
        <time>2017-11-08T13:31:02Z</time>
      </trkpt>
      <trkpt lat="47.78679" lon="1.84588">
        <ele>106</ele>
        <time>2017-11-08T13:31:03Z</time>
      </trkpt>
      <trkpt lat="47.78674" lon="1.84589">
        <ele>106</ele>
        <time>2017-11-08T13:31:04Z</time>
      </trkpt>
      <trkpt lat="47.7867" lon="1.84589">
        <ele>106</ele>
        <time>2017-11-08T13:31:05Z</time>
      </trkpt>
      <trkpt lat="47.78666" lon="1.84588">
        <ele>106</ele>
        <time>2017-11-08T13:31:07Z</time>
      </trkpt>
      <trkpt lat="47.78662" lon="1.84588">
        <ele>106</ele>
        <time>2017-11-08T13:31:08Z</time>
      </trkpt>
      <trkpt lat="47.78659" lon="1.84587">
        <ele>106</ele>
        <time>2017-11-08T13:31:09Z</time>
      </trkpt>
      <trkpt lat="47.78655" lon="1.84586">
        <ele>106</ele>
        <time>2017-11-08T13:31:10Z</time>
      </trkpt>
      <trkpt lat="47.78651" lon="1.84585">
        <ele>106</ele>
        <time>2017-11-08T13:31:11Z</time>
      </trkpt>
      <trkpt lat="47.78648" lon="1.84585">
        <ele>106</ele>
        <time>2017-11-08T13:31:12Z</time>
      </trkpt>
      <trkpt lat="47.78644" lon="1.84586">
        <ele>106</ele>
        <time>2017-11-08T13:31:13Z</time>
      </trkpt>
      <trkpt lat="47.7864" lon="1.84586">
        <ele>106</ele>
        <time>2017-11-08T13:31:14Z</time>
      </trkpt>
      <trkpt lat="47.78636" lon="1.84586">
        <ele>106</ele>
        <time>2017-11-08T13:31:15Z</time>
      </trkpt>
      <trkpt lat="47.78631" lon="1.84585">
        <ele>106</ele>
        <time>2017-11-08T13:31:16Z</time>
      </trkpt>
      <trkpt lat="47.78627" lon="1.84585">
        <ele>106</ele>
        <time>2017-11-08T13:31:17Z</time>
      </trkpt>
      <trkpt lat="47.78624" lon="1.84584">
        <ele>106</ele>
        <time>2017-11-08T13:31:18Z</time>
      </trkpt>
      <trkpt lat="47.7862" lon="1.84584">
        <ele>106</ele>
        <time>2017-11-08T13:31:19Z</time>
      </trkpt>
      <trkpt lat="47.78615" lon="1.84584">
        <ele>106</ele>
        <time>2017-11-08T13:31:20Z</time>
      </trkpt>
      <trkpt lat="47.78611" lon="1.84583">
        <ele>108</ele>
        <time>2017-11-08T13:31:21Z</time>
      </trkpt>
      <trkpt lat="47.78607" lon="1.84582">
        <ele>108</ele>
        <time>2017-11-08T13:31:22Z</time>
      </trkpt>
      <trkpt lat="47.78603" lon="1.84581">
        <ele>108</ele>
        <time>2017-11-08T13:31:23Z</time>
      </trkpt>
      <trkpt lat="47.78598" lon="1.84581">
        <ele>108</ele>
        <time>2017-11-08T13:31:24Z</time>
      </trkpt>
      <trkpt lat="47.78594" lon="1.8458">
        <ele>108</ele>
        <time>2017-11-08T13:31:25Z</time>
      </trkpt>
      <trkpt lat="47.78589" lon="1.84579">
        <ele>108</ele>
        <time>2017-11-08T13:31:26Z</time>
      </trkpt>
      <trkpt lat="47.78585" lon="1.84578">
        <ele>107</ele>
        <time>2017-11-08T13:31:27Z</time>
      </trkpt>
      <trkpt lat="47.78579" lon="1.84579">
        <ele>108</ele>
        <time>2017-11-08T13:31:28Z</time>
      </trkpt>
      <trkpt lat="47.78574" lon="1.8458">
        <ele>108</ele>
        <time>2017-11-08T13:31:29Z</time>
      </trkpt>
      <trkpt lat="47.78568" lon="1.8458">
        <ele>108</ele>
        <time>2017-11-08T13:31:30Z</time>
      </trkpt>
      <trkpt lat="47.78564" lon="1.84581">
        <ele>108</ele>
        <time>2017-11-08T13:31:31Z</time>
      </trkpt>
      <trkpt lat="47.7856" lon="1.84581">
        <ele>108</ele>
        <time>2017-11-08T13:31:32Z</time>
      </trkpt>
      <trkpt lat="47.78557" lon="1.84581">
        <ele>108</ele>
        <time>2017-11-08T13:31:33Z</time>
      </trkpt>
      <trkpt lat="47.78552" lon="1.8458">
        <ele>109</ele>
        <time>2017-11-08T13:31:34Z</time>
      </trkpt>
      <trkpt lat="47.78541" lon="1.84583">
        <ele>109</ele>
        <time>2017-11-08T13:31:35Z</time>
      </trkpt>
      <trkpt lat="47.78538" lon="1.84582">
        <ele>109</ele>
        <time>2017-11-08T13:31:36Z</time>
      </trkpt>
      <trkpt lat="47.78535" lon="1.8458">
        <ele>109</ele>
        <time>2017-11-08T13:31:37Z</time>
      </trkpt>
      <trkpt lat="47.78532" lon="1.84579">
        <ele>109</ele>
        <time>2017-11-08T13:31:38Z</time>
      </trkpt>
      <trkpt lat="47.78528" lon="1.84578">
        <ele>108</ele>
        <time>2017-11-08T13:31:39Z</time>
      </trkpt>
      <trkpt lat="47.78523" lon="1.84576">
        <ele>108</ele>
        <time>2017-11-08T13:31:40Z</time>
      </trkpt>
      <trkpt lat="47.7852" lon="1.84575">
        <ele>108</ele>
        <time>2017-11-08T13:31:41Z</time>
      </trkpt>
      <trkpt lat="47.78516" lon="1.84576">
        <ele>108</ele>
        <time>2017-11-08T13:31:42Z</time>
      </trkpt>
      <trkpt lat="47.78509" lon="1.84577">
        <ele>108</ele>
        <time>2017-11-08T13:31:43Z</time>
      </trkpt>
      <trkpt lat="47.78502" lon="1.84577">
        <ele>108</ele>
        <time>2017-11-08T13:31:44Z</time>
      </trkpt>
      <trkpt lat="47.78496" lon="1.84578">
        <ele>108</ele>
        <time>2017-11-08T13:31:45Z</time>
      </trkpt>
      <trkpt lat="47.7849" lon="1.84579">
        <ele>108</ele>
        <time>2017-11-08T13:31:46Z</time>
      </trkpt>
      <trkpt lat="47.78486" lon="1.8458">
        <ele>108</ele>
        <time>2017-11-08T13:31:47Z</time>
      </trkpt>
      <trkpt lat="47.78482" lon="1.84581">
        <ele>108</ele>
        <time>2017-11-08T13:31:48Z</time>
      </trkpt>
      <trkpt lat="47.78477" lon="1.84582">
        <ele>108</ele>
        <time>2017-11-08T13:31:49Z</time>
      </trkpt>
      <trkpt lat="47.78473" lon="1.84582">
        <ele>108</ele>
        <time>2017-11-08T13:31:50Z</time>
      </trkpt>
      <trkpt lat="47.78465" lon="1.84582">
        <ele>108</ele>
        <time>2017-11-08T13:31:51Z</time>
      </trkpt>
      <trkpt lat="47.7846" lon="1.84582">
        <ele>108</ele>
        <time>2017-11-08T13:31:52Z</time>
      </trkpt>
      <trkpt lat="47.78454" lon="1.84581">
        <ele>108</ele>
        <time>2017-11-08T13:31:53Z</time>
      </trkpt>
      <trkpt lat="47.78449" lon="1.84582">
        <ele>108</ele>
        <time>2017-11-08T13:31:54Z</time>
      </trkpt>
      <trkpt lat="47.78444" lon="1.84582">
        <ele>108</ele>
        <time>2017-11-08T13:31:55Z</time>
      </trkpt>
      <trkpt lat="47.78438" lon="1.84582">
        <ele>108</ele>
        <time>2017-11-08T13:31:56Z</time>
      </trkpt>
      <trkpt lat="47.78432" lon="1.84582">
        <ele>108</ele>
        <time>2017-11-08T13:31:57Z</time>
      </trkpt>
      <trkpt lat="47.78428" lon="1.84582">
        <ele>108</ele>
        <time>2017-11-08T13:31:58Z</time>
      </trkpt>
      <trkpt lat="47.78423" lon="1.84583">
        <ele>108</ele>
        <time>2017-11-08T13:31:59Z</time>
      </trkpt>
      <trkpt lat="47.78417" lon="1.84587">
        <ele>108</ele>
        <time>2017-11-08T13:32:00Z</time>
      </trkpt>
      <trkpt lat="47.78411" lon="1.84591">
        <ele>108</ele>
        <time>2017-11-08T13:32:01Z</time>
      </trkpt>
      <trkpt lat="47.78406" lon="1.84594">
        <ele>108</ele>
        <time>2017-11-08T13:32:02Z</time>
      </trkpt>
      <trkpt lat="47.78401" lon="1.84596">
        <ele>108</ele>
        <time>2017-11-08T13:32:03Z</time>
      </trkpt>
      <trkpt lat="47.78396" lon="1.84596">
        <ele>108</ele>
        <time>2017-11-08T13:32:04Z</time>
      </trkpt>
      <trkpt lat="47.78389" lon="1.84596">
        <ele>108</ele>
        <time>2017-11-08T13:32:05Z</time>
      </trkpt>
      <trkpt lat="47.78384" lon="1.84595">
        <ele>108</ele>
        <time>2017-11-08T13:32:06Z</time>
      </trkpt>
      <trkpt lat="47.7838" lon="1.84596">
        <ele>108</ele>
        <time>2017-11-08T13:32:07Z</time>
      </trkpt>
      <trkpt lat="47.78375" lon="1.84598">
        <ele>108</ele>
        <time>2017-11-08T13:32:08Z</time>
      </trkpt>
      <trkpt lat="47.78371" lon="1.84599">
        <ele>108</ele>
        <time>2017-11-08T13:32:09Z</time>
      </trkpt>
      <trkpt lat="47.78367" lon="1.84598">
        <ele>108</ele>
        <time>2017-11-08T13:32:10Z</time>
      </trkpt>
      <trkpt lat="47.78363" lon="1.84598">
        <ele>108</ele>
        <time>2017-11-08T13:32:11Z</time>
      </trkpt>
      <trkpt lat="47.78358" lon="1.84599">
        <ele>108</ele>
        <time>2017-11-08T13:32:12Z</time>
      </trkpt>
      <trkpt lat="47.78353" lon="1.846">
        <ele>108</ele>
        <time>2017-11-08T13:32:13Z</time>
      </trkpt>
      <trkpt lat="47.78348" lon="1.846">
        <ele>108</ele>
        <time>2017-11-08T13:32:14Z</time>
      </trkpt>
      <trkpt lat="47.78344" lon="1.84601">
        <ele>109</ele>
        <time>2017-11-08T13:32:15Z</time>
      </trkpt>
      <trkpt lat="47.78339" lon="1.84602">
        <ele>109</ele>
        <time>2017-11-08T13:32:16Z</time>
      </trkpt>
      <trkpt lat="47.78335" lon="1.84603">
        <ele>109</ele>
        <time>2017-11-08T13:32:17Z</time>
      </trkpt>
      <trkpt lat="47.78331" lon="1.84605">
        <ele>109</ele>
        <time>2017-11-08T13:32:18Z</time>
      </trkpt>
      <trkpt lat="47.78326" lon="1.84606">
        <ele>109</ele>
        <time>2017-11-08T13:32:19Z</time>
      </trkpt>
      <trkpt lat="47.78321" lon="1.84607">
        <ele>109</ele>
        <time>2017-11-08T13:32:20Z</time>
      </trkpt>
      <trkpt lat="47.78316" lon="1.8461">
        <ele>109</ele>
        <time>2017-11-08T13:32:21Z</time>
      </trkpt>
      <trkpt lat="47.78311" lon="1.84613">
        <ele>109</ele>
        <time>2017-11-08T13:32:22Z</time>
      </trkpt>
      <trkpt lat="47.78307" lon="1.84614">
        <ele>109</ele>
        <time>2017-11-08T13:32:23Z</time>
      </trkpt>
      <trkpt lat="47.78302" lon="1.84615">
        <ele>108</ele>
        <time>2017-11-08T13:32:24Z</time>
      </trkpt>
      <trkpt lat="47.78296" lon="1.84616">
        <ele>108</ele>
        <time>2017-11-08T13:32:25Z</time>
      </trkpt>
      <trkpt lat="47.78291" lon="1.84618">
        <ele>108</ele>
        <time>2017-11-08T13:32:26Z</time>
      </trkpt>
      <trkpt lat="47.78286" lon="1.84619">
        <ele>108</ele>
        <time>2017-11-08T13:32:27Z</time>
      </trkpt>
      <trkpt lat="47.78281" lon="1.84621">
        <ele>108</ele>
        <time>2017-11-08T13:32:28Z</time>
      </trkpt>
      <trkpt lat="47.78276" lon="1.84622">
        <ele>108</ele>
        <time>2017-11-08T13:32:29Z</time>
      </trkpt>
      <trkpt lat="47.78271" lon="1.84623">
        <ele>108</ele>
        <time>2017-11-08T13:32:30Z</time>
      </trkpt>
      <trkpt lat="47.78267" lon="1.84624">
        <ele>108</ele>
        <time>2017-11-08T13:32:31Z</time>
      </trkpt>
      <trkpt lat="47.78262" lon="1.84625">
        <ele>108</ele>
        <time>2017-11-08T13:32:32Z</time>
      </trkpt>
      <trkpt lat="47.78258" lon="1.84626">
        <ele>108</ele>
        <time>2017-11-08T13:32:33Z</time>
      </trkpt>
      <trkpt lat="47.78253" lon="1.84628">
        <ele>108</ele>
        <time>2017-11-08T13:32:34Z</time>
      </trkpt>
      <trkpt lat="47.78248" lon="1.8463">
        <ele>109</ele>
        <time>2017-11-08T13:32:35Z</time>
      </trkpt>
      <trkpt lat="47.78244" lon="1.8463">
        <ele>109</ele>
        <time>2017-11-08T13:32:36Z</time>
      </trkpt>
      <trkpt lat="47.78239" lon="1.84632">
        <ele>109</ele>
        <time>2017-11-08T13:32:37Z</time>
      </trkpt>
      <trkpt lat="47.78234" lon="1.84634">
        <ele>108</ele>
        <time>2017-11-08T13:32:38Z</time>
      </trkpt>
      <trkpt lat="47.78229" lon="1.84636">
        <ele>108</ele>
        <time>2017-11-08T13:32:39Z</time>
      </trkpt>
      <trkpt lat="47.78224" lon="1.84637">
        <ele>108</ele>
        <time>2017-11-08T13:32:40Z</time>
      </trkpt>
      <trkpt lat="47.78219" lon="1.84639">
        <ele>109</ele>
        <time>2017-11-08T13:32:41Z</time>
      </trkpt>
      <trkpt lat="47.78215" lon="1.84639">
        <ele>109</ele>
        <time>2017-11-08T13:32:42Z</time>
      </trkpt>
      <trkpt lat="47.78212" lon="1.8464">
        <ele>109</ele>
        <time>2017-11-08T13:32:43Z</time>
      </trkpt>
      <trkpt lat="47.78208" lon="1.8464">
        <ele>109</ele>
        <time>2017-11-08T13:32:44Z</time>
      </trkpt>
      <trkpt lat="47.78204" lon="1.84642">
        <ele>109</ele>
        <time>2017-11-08T13:32:45Z</time>
      </trkpt>
      <trkpt lat="47.78199" lon="1.84647">
        <ele>108</ele>
        <time>2017-11-08T13:32:46Z</time>
      </trkpt>
      <trkpt lat="47.78195" lon="1.84646">
        <ele>108</ele>
        <time>2017-11-08T13:32:47Z</time>
      </trkpt>
      <trkpt lat="47.78191" lon="1.84646">
        <ele>108</ele>
        <time>2017-11-08T13:32:48Z</time>
      </trkpt>
      <trkpt lat="47.78185" lon="1.84649">
        <ele>108</ele>
        <time>2017-11-08T13:32:49Z</time>
      </trkpt>
      <trkpt lat="47.78182" lon="1.8465">
        <ele>108</ele>
        <time>2017-11-08T13:32:50Z</time>
      </trkpt>
      <trkpt lat="47.78177" lon="1.84651">
        <ele>108</ele>
        <time>2017-11-08T13:32:52Z</time>
      </trkpt>
      <trkpt lat="47.78171" lon="1.84654">
        <ele>108</ele>
        <time>2017-11-08T13:32:54Z</time>
      </trkpt>
      <trkpt lat="47.78168" lon="1.84653">
        <ele>108</ele>
        <time>2017-11-08T13:32:55Z</time>
      </trkpt>
      <trkpt lat="47.78163" lon="1.84654">
        <ele>109</ele>
        <time>2017-11-08T13:32:56Z</time>
      </trkpt>
      <trkpt lat="47.78161" lon="1.84655">
        <ele>109</ele>
        <time>2017-11-08T13:32:57Z</time>
      </trkpt>
      <trkpt lat="47.78155" lon="1.84655">
        <ele>109</ele>
        <time>2017-11-08T13:32:59Z</time>
      </trkpt>
      <trkpt lat="47.78152" lon="1.84657">
        <ele>109</ele>
        <time>2017-11-08T13:33:00Z</time>
      </trkpt>
      <trkpt lat="47.78146" lon="1.84658">
        <ele>110</ele>
        <time>2017-11-08T13:33:02Z</time>
      </trkpt>
      <trkpt lat="47.78142" lon="1.84659">
        <ele>110</ele>
        <time>2017-11-08T13:33:03Z</time>
      </trkpt>
      <trkpt lat="47.78138" lon="1.8466">
        <ele>110</ele>
        <time>2017-11-08T13:33:04Z</time>
      </trkpt>
      <trkpt lat="47.78132" lon="1.84664">
        <ele>110</ele>
        <time>2017-11-08T13:33:05Z</time>
      </trkpt>
      <trkpt lat="47.78128" lon="1.84664">
        <ele>110</ele>
        <time>2017-11-08T13:33:06Z</time>
      </trkpt>
      <trkpt lat="47.78124" lon="1.84667">
        <ele>110</ele>
        <time>2017-11-08T13:33:07Z</time>
      </trkpt>
      <trkpt lat="47.7812" lon="1.8467">
        <ele>108</ele>
        <time>2017-11-08T13:33:08Z</time>
      </trkpt>
      <trkpt lat="47.78116" lon="1.84673">
        <ele>108</ele>
        <time>2017-11-08T13:33:09Z</time>
      </trkpt>
      <trkpt lat="47.78112" lon="1.84674">
        <ele>108</ele>
        <time>2017-11-08T13:33:10Z</time>
      </trkpt>
      <trkpt lat="47.78108" lon="1.84674">
        <ele>109</ele>
        <time>2017-11-08T13:33:11Z</time>
      </trkpt>
      <trkpt lat="47.78105" lon="1.84676">
        <ele>109</ele>
        <time>2017-11-08T13:33:12Z</time>
      </trkpt>
      <trkpt lat="47.78102" lon="1.84676">
        <ele>109</ele>
        <time>2017-11-08T13:33:13Z</time>
      </trkpt>
      <trkpt lat="47.78099" lon="1.84678">
        <ele>109</ele>
        <time>2017-11-08T13:33:14Z</time>
      </trkpt>
      <trkpt lat="47.78096" lon="1.84679">
        <ele>109</ele>
        <time>2017-11-08T13:33:15Z</time>
      </trkpt>
      <trkpt lat="47.78093" lon="1.8468">
        <ele>109</ele>
        <time>2017-11-08T13:33:16Z</time>
      </trkpt>
      <trkpt lat="47.78088" lon="1.84682">
        <ele>109</ele>
        <time>2017-11-08T13:33:17Z</time>
      </trkpt>
      <trkpt lat="47.78084" lon="1.84684">
        <ele>109</ele>
        <time>2017-11-08T13:33:18Z</time>
      </trkpt>
      <trkpt lat="47.78079" lon="1.84686">
        <ele>110</ele>
        <time>2017-11-08T13:33:19Z</time>
      </trkpt>
      <trkpt lat="47.78074" lon="1.84688">
        <ele>110</ele>
        <time>2017-11-08T13:33:20Z</time>
      </trkpt>
      <trkpt lat="47.78069" lon="1.84691">
        <ele>109</ele>
        <time>2017-11-08T13:33:21Z</time>
      </trkpt>
      <trkpt lat="47.78064" lon="1.84693">
        <ele>109</ele>
        <time>2017-11-08T13:33:22Z</time>
      </trkpt>
      <trkpt lat="47.78061" lon="1.84695">
        <ele>109</ele>
        <time>2017-11-08T13:33:23Z</time>
      </trkpt>
      <trkpt lat="47.78057" lon="1.84697">
        <ele>109</ele>
        <time>2017-11-08T13:33:24Z</time>
      </trkpt>
      <trkpt lat="47.78053" lon="1.84698">
        <ele>109</ele>
        <time>2017-11-08T13:33:25Z</time>
      </trkpt>
      <trkpt lat="47.78048" lon="1.84699">
        <ele>109</ele>
        <time>2017-11-08T13:33:26Z</time>
      </trkpt>
      <trkpt lat="47.78044" lon="1.84702">
        <ele>109</ele>
        <time>2017-11-08T13:33:27Z</time>
      </trkpt>
      <trkpt lat="47.7804" lon="1.84704">
        <ele>109</ele>
        <time>2017-11-08T13:33:28Z</time>
      </trkpt>
      <trkpt lat="47.78036" lon="1.84705">
        <ele>109</ele>
        <time>2017-11-08T13:33:29Z</time>
      </trkpt>
      <trkpt lat="47.78032" lon="1.84707">
        <ele>109</ele>
        <time>2017-11-08T13:33:30Z</time>
      </trkpt>
      <trkpt lat="47.78028" lon="1.84709">
        <ele>109</ele>
        <time>2017-11-08T13:33:31Z</time>
      </trkpt>
      <trkpt lat="47.78023" lon="1.84711">
        <ele>109</ele>
        <time>2017-11-08T13:33:32Z</time>
      </trkpt>
      <trkpt lat="47.7802" lon="1.84712">
        <ele>109</ele>
        <time>2017-11-08T13:33:33Z</time>
      </trkpt>
      <trkpt lat="47.78015" lon="1.84714">
        <ele>109</ele>
        <time>2017-11-08T13:33:34Z</time>
      </trkpt>
      <trkpt lat="47.78011" lon="1.84717">
        <ele>108</ele>
        <time>2017-11-08T13:33:35Z</time>
      </trkpt>
      <trkpt lat="47.78005" lon="1.84719">
        <ele>108</ele>
        <time>2017-11-08T13:33:36Z</time>
      </trkpt>
      <trkpt lat="47.78" lon="1.84722">
        <ele>108</ele>
        <time>2017-11-08T13:33:37Z</time>
      </trkpt>
      <trkpt lat="47.77995" lon="1.84724">
        <ele>108</ele>
        <time>2017-11-08T13:33:38Z</time>
      </trkpt>
      <trkpt lat="47.77991" lon="1.84726">
        <ele>108</ele>
        <time>2017-11-08T13:33:39Z</time>
      </trkpt>
      <trkpt lat="47.77987" lon="1.84728">
        <ele>108</ele>
        <time>2017-11-08T13:33:40Z</time>
      </trkpt>
      <trkpt lat="47.77982" lon="1.8473">
        <ele>108</ele>
        <time>2017-11-08T13:33:41Z</time>
      </trkpt>
      <trkpt lat="47.77977" lon="1.84732">
        <ele>108</ele>
        <time>2017-11-08T13:33:42Z</time>
      </trkpt>
      <trkpt lat="47.77973" lon="1.84734">
        <ele>108</ele>
        <time>2017-11-08T13:33:43Z</time>
      </trkpt>
      <trkpt lat="47.77968" lon="1.84735">
        <ele>108</ele>
        <time>2017-11-08T13:33:44Z</time>
      </trkpt>
      <trkpt lat="47.77964" lon="1.84736">
        <ele>108</ele>
        <time>2017-11-08T13:33:45Z</time>
      </trkpt>
      <trkpt lat="47.7796" lon="1.84738">
        <ele>108</ele>
        <time>2017-11-08T13:33:46Z</time>
      </trkpt>
      <trkpt lat="47.77956" lon="1.84739">
        <ele>108</ele>
        <time>2017-11-08T13:33:47Z</time>
      </trkpt>
      <trkpt lat="47.77952" lon="1.84741">
        <ele>108</ele>
        <time>2017-11-08T13:33:48Z</time>
      </trkpt>
      <trkpt lat="47.77948" lon="1.84742">
        <ele>108</ele>
        <time>2017-11-08T13:33:49Z</time>
      </trkpt>
      <trkpt lat="47.77945" lon="1.84744">
        <ele>108</ele>
        <time>2017-11-08T13:33:50Z</time>
      </trkpt>
      <trkpt lat="47.77942" lon="1.84745">
        <ele>108</ele>
        <time>2017-11-08T13:33:51Z</time>
      </trkpt>
      <trkpt lat="47.77938" lon="1.84747">
        <ele>108</ele>
        <time>2017-11-08T13:33:52Z</time>
      </trkpt>
      <trkpt lat="47.77934" lon="1.8475">
        <ele>107</ele>
        <time>2017-11-08T13:33:53Z</time>
      </trkpt>
      <trkpt lat="47.7793" lon="1.84752">
        <ele>107</ele>
        <time>2017-11-08T13:33:54Z</time>
      </trkpt>
      <trkpt lat="47.77926" lon="1.84753">
        <ele>107</ele>
        <time>2017-11-08T13:33:55Z</time>
      </trkpt>
      <trkpt lat="47.77922" lon="1.84755">
        <ele>107</ele>
        <time>2017-11-08T13:33:56Z</time>
      </trkpt>
      <trkpt lat="47.77917" lon="1.84757">
        <ele>107</ele>
        <time>2017-11-08T13:33:57Z</time>
      </trkpt>
      <trkpt lat="47.77913" lon="1.8476">
        <ele>107</ele>
        <time>2017-11-08T13:33:58Z</time>
      </trkpt>
      <trkpt lat="47.77908" lon="1.84761">
        <ele>107</ele>
        <time>2017-11-08T13:33:59Z</time>
      </trkpt>
      <trkpt lat="47.77904" lon="1.84762">
        <ele>108</ele>
        <time>2017-11-08T13:34:00Z</time>
      </trkpt>
      <trkpt lat="47.77899" lon="1.84764">
        <ele>108</ele>
        <time>2017-11-08T13:34:01Z</time>
      </trkpt>
      <trkpt lat="47.77895" lon="1.84766">
        <ele>108</ele>
        <time>2017-11-08T13:34:02Z</time>
      </trkpt>
      <trkpt lat="47.7789" lon="1.84769">
        <ele>108</ele>
        <time>2017-11-08T13:34:03Z</time>
      </trkpt>
      <trkpt lat="47.77885" lon="1.84771">
        <ele>108</ele>
        <time>2017-11-08T13:34:04Z</time>
      </trkpt>
      <trkpt lat="47.77881" lon="1.84774">
        <ele>108</ele>
        <time>2017-11-08T13:34:05Z</time>
      </trkpt>
      <trkpt lat="47.77876" lon="1.84776">
        <ele>108</ele>
        <time>2017-11-08T13:34:06Z</time>
      </trkpt>
      <trkpt lat="47.77872" lon="1.84778">
        <ele>108</ele>
        <time>2017-11-08T13:34:07Z</time>
      </trkpt>
      <trkpt lat="47.77869" lon="1.84779">
        <ele>108</ele>
        <time>2017-11-08T13:34:08Z</time>
      </trkpt>
      <trkpt lat="47.77865" lon="1.8478">
        <ele>108</ele>
        <time>2017-11-08T13:34:09Z</time>
      </trkpt>
      <trkpt lat="47.7786" lon="1.84781">
        <ele>108</ele>
        <time>2017-11-08T13:34:10Z</time>
      </trkpt>
      <trkpt lat="47.77854" lon="1.84782">
        <ele>108</ele>
        <time>2017-11-08T13:34:11Z</time>
      </trkpt>
      <trkpt lat="47.77849" lon="1.84784">
        <ele>109</ele>
        <time>2017-11-08T13:34:12Z</time>
      </trkpt>
      <trkpt lat="47.77844" lon="1.84786">
        <ele>109</ele>
        <time>2017-11-08T13:34:13Z</time>
      </trkpt>
      <trkpt lat="47.77838" lon="1.84788">
        <ele>109</ele>
        <time>2017-11-08T13:34:14Z</time>
      </trkpt>
      <trkpt lat="47.77834" lon="1.8479">
        <ele>109</ele>
        <time>2017-11-08T13:34:15Z</time>
      </trkpt>
      <trkpt lat="47.77829" lon="1.84792">
        <ele>110</ele>
        <time>2017-11-08T13:34:16Z</time>
      </trkpt>
      <trkpt lat="47.77824" lon="1.84793">
        <ele>110</ele>
        <time>2017-11-08T13:34:17Z</time>
      </trkpt>
      <trkpt lat="47.77819" lon="1.84796">
        <ele>111</ele>
        <time>2017-11-08T13:34:18Z</time>
      </trkpt>
      <trkpt lat="47.77813" lon="1.848">
        <ele>111</ele>
        <time>2017-11-08T13:34:19Z</time>
      </trkpt>
      <trkpt lat="47.77808" lon="1.84803">
        <ele>111</ele>
        <time>2017-11-08T13:34:20Z</time>
      </trkpt>
      <trkpt lat="47.77804" lon="1.84805">
        <ele>111</ele>
        <time>2017-11-08T13:34:21Z</time>
      </trkpt>
      <trkpt lat="47.77799" lon="1.84806">
        <ele>111</ele>
        <time>2017-11-08T13:34:22Z</time>
      </trkpt>
      <trkpt lat="47.77796" lon="1.84808">
        <ele>111</ele>
        <time>2017-11-08T13:34:23Z</time>
      </trkpt>
      <trkpt lat="47.7779" lon="1.84811">
        <ele>111</ele>
        <time>2017-11-08T13:34:24Z</time>
      </trkpt>
      <trkpt lat="47.77787" lon="1.84812">
        <ele>111</ele>
        <time>2017-11-08T13:34:25Z</time>
      </trkpt>
      <trkpt lat="47.77784" lon="1.84814">
        <ele>111</ele>
        <time>2017-11-08T13:34:26Z</time>
      </trkpt>
      <trkpt lat="47.77781" lon="1.84816">
        <ele>111</ele>
        <time>2017-11-08T13:34:27Z</time>
      </trkpt>
      <trkpt lat="47.77778" lon="1.84818">
        <ele>111</ele>
        <time>2017-11-08T13:34:28Z</time>
      </trkpt>
      <trkpt lat="47.77774" lon="1.84819">
        <ele>111</ele>
        <time>2017-11-08T13:34:29Z</time>
      </trkpt>
      <trkpt lat="47.7777" lon="1.84819">
        <ele>111</ele>
        <time>2017-11-08T13:34:30Z</time>
      </trkpt>
      <trkpt lat="47.77766" lon="1.84819">
        <ele>111</ele>
        <time>2017-11-08T13:34:31Z</time>
      </trkpt>
      <trkpt lat="47.77763" lon="1.84819">
        <ele>111</ele>
        <time>2017-11-08T13:34:32Z</time>
      </trkpt>
      <trkpt lat="47.7776" lon="1.84822">
        <ele>111</ele>
        <time>2017-11-08T13:34:33Z</time>
      </trkpt>
      <trkpt lat="47.77755" lon="1.84824">
        <ele>110</ele>
        <time>2017-11-08T13:34:34Z</time>
      </trkpt>
      <trkpt lat="47.77751" lon="1.84825">
        <ele>110</ele>
        <time>2017-11-08T13:34:35Z</time>
      </trkpt>
      <trkpt lat="47.77747" lon="1.84826">
        <ele>111</ele>
        <time>2017-11-08T13:34:36Z</time>
      </trkpt>
      <trkpt lat="47.77743" lon="1.8483">
        <ele>111</ele>
        <time>2017-11-08T13:34:38Z</time>
      </trkpt>
      <trkpt lat="47.77738" lon="1.84832">
        <ele>111</ele>
        <time>2017-11-08T13:34:39Z</time>
      </trkpt>
      <trkpt lat="47.77734" lon="1.84834">
        <ele>110</ele>
        <time>2017-11-08T13:34:40Z</time>
      </trkpt>
      <trkpt lat="47.77731" lon="1.84837">
        <ele>110</ele>
        <time>2017-11-08T13:34:42Z</time>
      </trkpt>
      <trkpt lat="47.77727" lon="1.84839">
        <ele>110</ele>
        <time>2017-11-08T13:34:44Z</time>
      </trkpt>
      <trkpt lat="47.77724" lon="1.84841">
        <ele>110</ele>
        <time>2017-11-08T13:34:45Z</time>
      </trkpt>
      <trkpt lat="47.7772" lon="1.84844">
        <ele>110</ele>
        <time>2017-11-08T13:34:46Z</time>
      </trkpt>
      <trkpt lat="47.77714" lon="1.84846">
        <ele>110</ele>
        <time>2017-11-08T13:34:47Z</time>
      </trkpt>
      <trkpt lat="47.77708" lon="1.84849">
        <ele>110</ele>
        <time>2017-11-08T13:34:48Z</time>
      </trkpt>
      <trkpt lat="47.77702" lon="1.84852">
        <ele>110</ele>
        <time>2017-11-08T13:34:49Z</time>
      </trkpt>
      <trkpt lat="47.77696" lon="1.84855">
        <ele>110</ele>
        <time>2017-11-08T13:34:50Z</time>
      </trkpt>
      <trkpt lat="47.7769" lon="1.84858">
        <ele>110</ele>
        <time>2017-11-08T13:34:51Z</time>
      </trkpt>
      <trkpt lat="47.77684" lon="1.8486">
        <ele>110</ele>
        <time>2017-11-08T13:34:52Z</time>
      </trkpt>
      <trkpt lat="47.77674" lon="1.84866">
        <ele>110</ele>
        <time>2017-11-08T13:34:53Z</time>
      </trkpt>
      <trkpt lat="47.77669" lon="1.84867">
        <ele>110</ele>
        <time>2017-11-08T13:34:54Z</time>
      </trkpt>
      <trkpt lat="47.77663" lon="1.84867">
        <ele>110</ele>
        <time>2017-11-08T13:34:55Z</time>
      </trkpt>
      <trkpt lat="47.77658" lon="1.84866">
        <ele>110</ele>
        <time>2017-11-08T13:34:56Z</time>
      </trkpt>
      <trkpt lat="47.77655" lon="1.84859">
        <ele>110</ele>
        <time>2017-11-08T13:34:57Z</time>
      </trkpt>
      <trkpt lat="47.77645" lon="1.84862">
        <ele>110</ele>
        <time>2017-11-08T13:34:58Z</time>
      </trkpt>
      <trkpt lat="47.77642" lon="1.84859">
        <ele>110</ele>
        <time>2017-11-08T13:34:59Z</time>
      </trkpt>
      <trkpt lat="47.77638" lon="1.84858">
        <ele>110</ele>
        <time>2017-11-08T13:35:00Z</time>
      </trkpt>
      <trkpt lat="47.77628" lon="1.84861">
        <ele>110</ele>
        <time>2017-11-08T13:35:02Z</time>
      </trkpt>
      <trkpt lat="47.7762" lon="1.84862">
        <ele>110</ele>
        <time>2017-11-08T13:35:03Z</time>
      </trkpt>
      <trkpt lat="47.77616" lon="1.84858">
        <ele>110</ele>
        <time>2017-11-08T13:35:05Z</time>
      </trkpt>
      <trkpt lat="47.77608" lon="1.8486">
        <ele>110</ele>
        <time>2017-11-08T13:35:06Z</time>
      </trkpt>
      <trkpt lat="47.77601" lon="1.8486">
        <ele>110</ele>
        <time>2017-11-08T13:35:07Z</time>
      </trkpt>
      <trkpt lat="47.77594" lon="1.8486">
        <ele>110</ele>
        <time>2017-11-08T13:35:08Z</time>
      </trkpt>
      <trkpt lat="47.7759" lon="1.84857">
        <ele>110</ele>
        <time>2017-11-08T13:35:09Z</time>
      </trkpt>
      <trkpt lat="47.77586" lon="1.84855">
        <ele>110</ele>
        <time>2017-11-08T13:35:10Z</time>
      </trkpt>
      <trkpt lat="47.77582" lon="1.84855">
        <ele>110</ele>
        <time>2017-11-08T13:35:13Z</time>
      </trkpt>
      <trkpt lat="47.77578" lon="1.84857">
        <ele>110</ele>
        <time>2017-11-08T13:35:15Z</time>
      </trkpt>
      <trkpt lat="47.77573" lon="1.84861">
        <ele>110</ele>
        <time>2017-11-08T13:35:17Z</time>
      </trkpt>
      <trkpt lat="47.77548" lon="1.84868">
        <ele>110</ele>
        <time>2017-11-08T13:35:19Z</time>
      </trkpt>
      <trkpt lat="47.77544" lon="1.84867">
        <ele>110</ele>
        <time>2017-11-08T13:35:20Z</time>
      </trkpt>
      <trkpt lat="47.77541" lon="1.84865">
        <ele>110</ele>
        <time>2017-11-08T13:35:21Z</time>
      </trkpt>
      <trkpt lat="47.77539" lon="1.8486">
        <ele>110</ele>
        <time>2017-11-08T13:35:23Z</time>
      </trkpt>
      <trkpt lat="47.77535" lon="1.8486">
        <ele>110</ele>
        <time>2017-11-08T13:35:27Z</time>
      </trkpt>
      <trkpt lat="47.77532" lon="1.8486">
        <ele>110</ele>
        <time>2017-11-08T13:35:30Z</time>
      </trkpt>
      <trkpt lat="47.77529" lon="1.84859">
        <ele>110</ele>
        <time>2017-11-08T13:35:32Z</time>
      </trkpt>
      <trkpt lat="47.77524" lon="1.84857">
        <ele>110</ele>
        <time>2017-11-08T13:35:34Z</time>
      </trkpt>
      <trkpt lat="47.77522" lon="1.84856">
        <ele>110</ele>
        <time>2017-11-08T13:35:35Z</time>
      </trkpt>
      <trkpt lat="47.77517" lon="1.84852">
        <ele>110</ele>
        <time>2017-11-08T13:35:37Z</time>
      </trkpt>
      <trkpt lat="47.77515" lon="1.8485">
        <ele>111</ele>
        <time>2017-11-08T13:35:38Z</time>
      </trkpt>
      <trkpt lat="47.77513" lon="1.84847">
        <ele>111</ele>
        <time>2017-11-08T13:35:39Z</time>
      </trkpt>
      <trkpt lat="47.77508" lon="1.84843">
        <ele>111</ele>
        <time>2017-11-08T13:35:41Z</time>
      </trkpt>
      <trkpt lat="47.77504" lon="1.8484">
        <ele>111</ele>
        <time>2017-11-08T13:35:43Z</time>
      </trkpt>
      <trkpt lat="47.77499" lon="1.84838">
        <ele>112</ele>
        <time>2017-11-08T13:35:45Z</time>
      </trkpt>
      <trkpt lat="47.77496" lon="1.84837">
        <ele>112</ele>
        <time>2017-11-08T13:35:46Z</time>
      </trkpt>
      <trkpt lat="47.77493" lon="1.84836">
        <ele>112</ele>
        <time>2017-11-08T13:35:47Z</time>
      </trkpt>
      <trkpt lat="47.7749" lon="1.84835">
        <ele>112</ele>
        <time>2017-11-08T13:35:48Z</time>
      </trkpt>
      <trkpt lat="47.77486" lon="1.84832">
        <ele>112</ele>
        <time>2017-11-08T13:35:50Z</time>
      </trkpt>
      <trkpt lat="47.77481" lon="1.8483">
        <ele>112</ele>
        <time>2017-11-08T13:35:52Z</time>
      </trkpt>
      <trkpt lat="47.77478" lon="1.84829">
        <ele>113</ele>
        <time>2017-11-08T13:35:54Z</time>
      </trkpt>
      <trkpt lat="47.77474" lon="1.84829">
        <ele>113</ele>
        <time>2017-11-08T13:35:56Z</time>
      </trkpt>
      <trkpt lat="47.7747" lon="1.84829">
        <ele>113</ele>
        <time>2017-11-08T13:35:58Z</time>
      </trkpt>
      <trkpt lat="47.77465" lon="1.84828">
        <ele>113</ele>
        <time>2017-11-08T13:36:00Z</time>
      </trkpt>
      <trkpt lat="47.77462" lon="1.84827">
        <ele>113</ele>
        <time>2017-11-08T13:36:01Z</time>
      </trkpt>
      <trkpt lat="47.77458" lon="1.84827">
        <ele>113</ele>
        <time>2017-11-08T13:36:03Z</time>
      </trkpt>
      <trkpt lat="47.77453" lon="1.84825">
        <ele>113</ele>
        <time>2017-11-08T13:36:05Z</time>
      </trkpt>
      <trkpt lat="47.77451" lon="1.84822">
        <ele>113</ele>
        <time>2017-11-08T13:36:06Z</time>
      </trkpt>
      <trkpt lat="47.77449" lon="1.8482">
        <ele>113</ele>
        <time>2017-11-08T13:36:07Z</time>
      </trkpt>
      <trkpt lat="47.77446" lon="1.84818">
        <ele>113</ele>
        <time>2017-11-08T13:36:08Z</time>
      </trkpt>
      <trkpt lat="47.77443" lon="1.84815">
        <ele>113</ele>
        <time>2017-11-08T13:36:09Z</time>
      </trkpt>
      <trkpt lat="47.7744" lon="1.84813">
        <ele>113</ele>
        <time>2017-11-08T13:36:10Z</time>
      </trkpt>
      <trkpt lat="47.77436" lon="1.84811">
        <ele>113</ele>
        <time>2017-11-08T13:36:11Z</time>
      </trkpt>
      <trkpt lat="47.77432" lon="1.84808">
        <ele>113</ele>
        <time>2017-11-08T13:36:12Z</time>
      </trkpt>
      <trkpt lat="47.77429" lon="1.84805">
        <ele>113</ele>
        <time>2017-11-08T13:36:13Z</time>
      </trkpt>
      <trkpt lat="47.77426" lon="1.84803">
        <ele>113</ele>
        <time>2017-11-08T13:36:14Z</time>
      </trkpt>
      <trkpt lat="47.77423" lon="1.84801">
        <ele>113</ele>
        <time>2017-11-08T13:36:15Z</time>
      </trkpt>
      <trkpt lat="47.77421" lon="1.84799">
        <ele>113</ele>
        <time>2017-11-08T13:36:16Z</time>
      </trkpt>
      <trkpt lat="47.77418" lon="1.84796">
        <ele>113</ele>
        <time>2017-11-08T13:36:17Z</time>
      </trkpt>
      <trkpt lat="47.77415" lon="1.84793">
        <ele>112</ele>
        <time>2017-11-08T13:36:18Z</time>
      </trkpt>
      <trkpt lat="47.77413" lon="1.84789">
        <ele>112</ele>
        <time>2017-11-08T13:36:19Z</time>
      </trkpt>
      <trkpt lat="47.7741" lon="1.84785">
        <ele>112</ele>
        <time>2017-11-08T13:36:20Z</time>
      </trkpt>
      <trkpt lat="47.77406" lon="1.84781">
        <ele>113</ele>
        <time>2017-11-08T13:36:21Z</time>
      </trkpt>
      <trkpt lat="47.77403" lon="1.84774">
        <ele>113</ele>
        <time>2017-11-08T13:36:22Z</time>
      </trkpt>
      <trkpt lat="47.77401" lon="1.8477">
        <ele>113</ele>
        <time>2017-11-08T13:36:23Z</time>
      </trkpt>
      <trkpt lat="47.77399" lon="1.84767">
        <ele>113</ele>
        <time>2017-11-08T13:36:24Z</time>
      </trkpt>
      <trkpt lat="47.77397" lon="1.84765">
        <ele>113</ele>
        <time>2017-11-08T13:36:25Z</time>
      </trkpt>
      <trkpt lat="47.77394" lon="1.84763">
        <ele>113</ele>
        <time>2017-11-08T13:36:26Z</time>
      </trkpt>
      <trkpt lat="47.77391" lon="1.84761">
        <ele>113</ele>
        <time>2017-11-08T13:36:27Z</time>
      </trkpt>
      <trkpt lat="47.77387" lon="1.84756">
        <ele>113</ele>
        <time>2017-11-08T13:36:28Z</time>
      </trkpt>
      <trkpt lat="47.77384" lon="1.84751">
        <ele>113</ele>
        <time>2017-11-08T13:36:29Z</time>
      </trkpt>
      <trkpt lat="47.77381" lon="1.84746">
        <ele>113</ele>
        <time>2017-11-08T13:36:30Z</time>
      </trkpt>
      <trkpt lat="47.77378" lon="1.84743">
        <ele>113</ele>
        <time>2017-11-08T13:36:31Z</time>
      </trkpt>
      <trkpt lat="47.77375" lon="1.8474">
        <ele>113</ele>
        <time>2017-11-08T13:36:32Z</time>
      </trkpt>
      <trkpt lat="47.77373" lon="1.84737">
        <ele>113</ele>
        <time>2017-11-08T13:36:33Z</time>
      </trkpt>
      <trkpt lat="47.77371" lon="1.84734">
        <ele>113</ele>
        <time>2017-11-08T13:36:34Z</time>
      </trkpt>
      <trkpt lat="47.77369" lon="1.8473">
        <ele>113</ele>
        <time>2017-11-08T13:36:35Z</time>
      </trkpt>
      <trkpt lat="47.77366" lon="1.84727">
        <ele>113</ele>
        <time>2017-11-08T13:36:36Z</time>
      </trkpt>
      <trkpt lat="47.77364" lon="1.84724">
        <ele>113</ele>
        <time>2017-11-08T13:36:37Z</time>
      </trkpt>
      <trkpt lat="47.7736" lon="1.84719">
        <ele>113</ele>
        <time>2017-11-08T13:36:39Z</time>
      </trkpt>
      <trkpt lat="47.77358" lon="1.84716">
        <ele>113</ele>
        <time>2017-11-08T13:36:40Z</time>
      </trkpt>
      <trkpt lat="47.77355" lon="1.84706">
        <ele>113</ele>
        <time>2017-11-08T13:36:41Z</time>
      </trkpt>
      <trkpt lat="47.77353" lon="1.84703">
        <ele>113</ele>
        <time>2017-11-08T13:36:42Z</time>
      </trkpt>
      <trkpt lat="47.77351" lon="1.84699">
        <ele>113</ele>
        <time>2017-11-08T13:36:43Z</time>
      </trkpt>
      <trkpt lat="47.77348" lon="1.84695">
        <ele>113</ele>
        <time>2017-11-08T13:36:44Z</time>
      </trkpt>
      <trkpt lat="47.77345" lon="1.84691">
        <ele>113</ele>
        <time>2017-11-08T13:36:45Z</time>
      </trkpt>
      <trkpt lat="47.77343" lon="1.84687">
        <ele>113</ele>
        <time>2017-11-08T13:36:46Z</time>
      </trkpt>
      <trkpt lat="47.7734" lon="1.84683">
        <ele>113</ele>
        <time>2017-11-08T13:36:47Z</time>
      </trkpt>
      <trkpt lat="47.77337" lon="1.84677">
        <ele>113</ele>
        <time>2017-11-08T13:36:48Z</time>
      </trkpt>
      <trkpt lat="47.77335" lon="1.84673">
        <ele>113</ele>
        <time>2017-11-08T13:36:49Z</time>
      </trkpt>
      <trkpt lat="47.77333" lon="1.84668">
        <ele>113</ele>
        <time>2017-11-08T13:36:50Z</time>
      </trkpt>
      <trkpt lat="47.77331" lon="1.84663">
        <ele>113</ele>
        <time>2017-11-08T13:36:51Z</time>
      </trkpt>
      <trkpt lat="47.77328" lon="1.84658">
        <ele>113</ele>
        <time>2017-11-08T13:36:52Z</time>
      </trkpt>
      <trkpt lat="47.77326" lon="1.84653">
        <ele>113</ele>
        <time>2017-11-08T13:36:53Z</time>
      </trkpt>
      <trkpt lat="47.77324" lon="1.84649">
        <ele>113</ele>
        <time>2017-11-08T13:36:54Z</time>
      </trkpt>
      <trkpt lat="47.77322" lon="1.84644">
        <ele>113</ele>
        <time>2017-11-08T13:36:55Z</time>
      </trkpt>
      <trkpt lat="47.7732" lon="1.84638">
        <ele>113</ele>
        <time>2017-11-08T13:36:56Z</time>
      </trkpt>
      <trkpt lat="47.77318" lon="1.84633">
        <ele>113</ele>
        <time>2017-11-08T13:36:57Z</time>
      </trkpt>
      <trkpt lat="47.77316" lon="1.84628">
        <ele>113</ele>
        <time>2017-11-08T13:36:58Z</time>
      </trkpt>
      <trkpt lat="47.77314" lon="1.84623">
        <ele>113</ele>
        <time>2017-11-08T13:36:59Z</time>
      </trkpt>
      <trkpt lat="47.77311" lon="1.84618">
        <ele>113</ele>
        <time>2017-11-08T13:37:00Z</time>
      </trkpt>
      <trkpt lat="47.77308" lon="1.84614">
        <ele>113</ele>
        <time>2017-11-08T13:37:01Z</time>
      </trkpt>
      <trkpt lat="47.77305" lon="1.8461">
        <ele>113</ele>
        <time>2017-11-08T13:37:02Z</time>
      </trkpt>
      <trkpt lat="47.77302" lon="1.84609">
        <ele>113</ele>
        <time>2017-11-08T13:37:03Z</time>
      </trkpt>
      <trkpt lat="47.773" lon="1.84609">
        <ele>113</ele>
        <time>2017-11-08T13:37:04Z</time>
      </trkpt>
      <trkpt lat="47.77296" lon="1.84608">
        <ele>113</ele>
        <time>2017-11-08T13:37:05Z</time>
      </trkpt>
      <trkpt lat="47.77292" lon="1.84606">
        <ele>113</ele>
        <time>2017-11-08T13:37:06Z</time>
      </trkpt>
      <trkpt lat="47.77287" lon="1.84605">
        <ele>113</ele>
        <time>2017-11-08T13:37:07Z</time>
      </trkpt>
      <trkpt lat="47.77284" lon="1.84604">
        <ele>113</ele>
        <time>2017-11-08T13:37:08Z</time>
      </trkpt>
      <trkpt lat="47.77281" lon="1.84604">
        <ele>113</ele>
        <time>2017-11-08T13:37:09Z</time>
      </trkpt>
      <trkpt lat="47.77277" lon="1.84603">
        <ele>113</ele>
        <time>2017-11-08T13:37:11Z</time>
      </trkpt>
      <trkpt lat="47.77273" lon="1.84604">
        <ele>113</ele>
        <time>2017-11-08T13:37:13Z</time>
      </trkpt>
      <trkpt lat="47.77264" lon="1.84607">
        <ele>113</ele>
        <time>2017-11-08T13:37:15Z</time>
      </trkpt>
      <trkpt lat="47.77262" lon="1.84605">
        <ele>113</ele>
        <time>2017-11-08T13:37:16Z</time>
      </trkpt>
      <trkpt lat="47.77257" lon="1.84606">
        <ele>113</ele>
        <time>2017-11-08T13:37:20Z</time>
      </trkpt>
      <trkpt lat="47.77254" lon="1.84607">
        <ele>113</ele>
        <time>2017-11-08T13:37:21Z</time>
      </trkpt>
      <trkpt lat="47.77249" lon="1.84607">
        <ele>113</ele>
        <time>2017-11-08T13:37:22Z</time>
      </trkpt>
      <trkpt lat="47.77245" lon="1.84607">
        <ele>113</ele>
        <time>2017-11-08T13:37:23Z</time>
      </trkpt>
      <trkpt lat="47.77242" lon="1.84608">
        <ele>113</ele>
        <time>2017-11-08T13:37:24Z</time>
      </trkpt>
      <trkpt lat="47.77238" lon="1.84607">
        <ele>113</ele>
        <time>2017-11-08T13:37:25Z</time>
      </trkpt>
      <trkpt lat="47.77234" lon="1.84607">
        <ele>113</ele>
        <time>2017-11-08T13:37:26Z</time>
      </trkpt>
      <trkpt lat="47.77232" lon="1.84607">
        <ele>113</ele>
        <time>2017-11-08T13:37:27Z</time>
      </trkpt>
      <trkpt lat="47.77228" lon="1.84606">
        <ele>113</ele>
        <time>2017-11-08T13:37:28Z</time>
      </trkpt>
      <trkpt lat="47.77224" lon="1.84604">
        <ele>113</ele>
        <time>2017-11-08T13:37:29Z</time>
      </trkpt>
      <trkpt lat="47.7722" lon="1.84601">
        <ele>113</ele>
        <time>2017-11-08T13:37:30Z</time>
      </trkpt>
      <trkpt lat="47.7721" lon="1.84602">
        <ele>113</ele>
        <time>2017-11-08T13:37:31Z</time>
      </trkpt>
      <trkpt lat="47.77195" lon="1.84605">
        <ele>112</ele>
        <time>2017-11-08T13:37:32Z</time>
      </trkpt>
      <trkpt lat="47.77191" lon="1.84603">
        <ele>112</ele>
        <time>2017-11-08T13:37:33Z</time>
      </trkpt>
      <trkpt lat="47.77189" lon="1.846">
        <ele>112</ele>
        <time>2017-11-08T13:37:34Z</time>
      </trkpt>
      <trkpt lat="47.77181" lon="1.84601">
        <ele>112</ele>
        <time>2017-11-08T13:37:35Z</time>
      </trkpt>
      <trkpt lat="47.77176" lon="1.84598">
        <ele>112</ele>
        <time>2017-11-08T13:37:36Z</time>
      </trkpt>
      <trkpt lat="47.77171" lon="1.84595">
        <ele>112</ele>
        <time>2017-11-08T13:37:37Z</time>
      </trkpt>
      <trkpt lat="47.77166" lon="1.84592">
        <ele>111</ele>
        <time>2017-11-08T13:37:38Z</time>
      </trkpt>
      <trkpt lat="47.77162" lon="1.84588">
        <ele>111</ele>
        <time>2017-11-08T13:37:39Z</time>
      </trkpt>
      <trkpt lat="47.77158" lon="1.84586">
        <ele>111</ele>
        <time>2017-11-08T13:37:40Z</time>
      </trkpt>
      <trkpt lat="47.77154" lon="1.84584">
        <ele>111</ele>
        <time>2017-11-08T13:37:41Z</time>
      </trkpt>
      <trkpt lat="47.7715" lon="1.84585">
        <ele>112</ele>
        <time>2017-11-08T13:37:42Z</time>
      </trkpt>
      <trkpt lat="47.77147" lon="1.84585">
        <ele>112</ele>
        <time>2017-11-08T13:37:43Z</time>
      </trkpt>
      <trkpt lat="47.77143" lon="1.84585">
        <ele>112</ele>
        <time>2017-11-08T13:37:44Z</time>
      </trkpt>
      <trkpt lat="47.7714" lon="1.84586">
        <ele>112</ele>
        <time>2017-11-08T13:37:45Z</time>
      </trkpt>
      <trkpt lat="47.77137" lon="1.84586">
        <ele>112</ele>
        <time>2017-11-08T13:37:46Z</time>
      </trkpt>
      <trkpt lat="47.77134" lon="1.84587">
        <ele>112</ele>
        <time>2017-11-08T13:37:47Z</time>
      </trkpt>
      <trkpt lat="47.77131" lon="1.84588">
        <ele>112</ele>
        <time>2017-11-08T13:37:48Z</time>
      </trkpt>
      <trkpt lat="47.77128" lon="1.84588">
        <ele>112</ele>
        <time>2017-11-08T13:37:49Z</time>
      </trkpt>
      <trkpt lat="47.77124" lon="1.8459">
        <ele>112</ele>
        <time>2017-11-08T13:37:51Z</time>
      </trkpt>
      <trkpt lat="47.77122" lon="1.84591">
        <ele>112</ele>
        <time>2017-11-08T13:37:52Z</time>
      </trkpt>
      <trkpt lat="47.77119" lon="1.84592">
        <ele>112</ele>
        <time>2017-11-08T13:37:53Z</time>
      </trkpt>
      <trkpt lat="47.77116" lon="1.84594">
        <ele>112</ele>
        <time>2017-11-08T13:37:54Z</time>
      </trkpt>
      <trkpt lat="47.77112" lon="1.84595">
        <ele>112</ele>
        <time>2017-11-08T13:37:55Z</time>
      </trkpt>
      <trkpt lat="47.77109" lon="1.84596">
        <ele>112</ele>
        <time>2017-11-08T13:37:56Z</time>
      </trkpt>
      <trkpt lat="47.77105" lon="1.84598">
        <ele>112</ele>
        <time>2017-11-08T13:37:57Z</time>
      </trkpt>
      <trkpt lat="47.771" lon="1.846">
        <ele>112</ele>
        <time>2017-11-08T13:37:58Z</time>
      </trkpt>
      <trkpt lat="47.77097" lon="1.84602">
        <ele>112</ele>
        <time>2017-11-08T13:37:59Z</time>
      </trkpt>
      <trkpt lat="47.77093" lon="1.84604">
        <ele>112</ele>
        <time>2017-11-08T13:38:00Z</time>
      </trkpt>
      <trkpt lat="47.77089" lon="1.84605">
        <ele>112</ele>
        <time>2017-11-08T13:38:01Z</time>
      </trkpt>
      <trkpt lat="47.77084" lon="1.84607">
        <ele>112</ele>
        <time>2017-11-08T13:38:02Z</time>
      </trkpt>
      <trkpt lat="47.77081" lon="1.84609">
        <ele>113</ele>
        <time>2017-11-08T13:38:03Z</time>
      </trkpt>
      <trkpt lat="47.77076" lon="1.84611">
        <ele>113</ele>
        <time>2017-11-08T13:38:04Z</time>
      </trkpt>
      <trkpt lat="47.7707" lon="1.84612">
        <ele>114</ele>
        <time>2017-11-08T13:38:05Z</time>
      </trkpt>
      <trkpt lat="47.77067" lon="1.84613">
        <ele>114</ele>
        <time>2017-11-08T13:38:06Z</time>
      </trkpt>
      <trkpt lat="47.77063" lon="1.84615">
        <ele>114</ele>
        <time>2017-11-08T13:38:07Z</time>
      </trkpt>
      <trkpt lat="47.7706" lon="1.84616">
        <ele>114</ele>
        <time>2017-11-08T13:38:08Z</time>
      </trkpt>
      <trkpt lat="47.77056" lon="1.84617">
        <ele>114</ele>
        <time>2017-11-08T13:38:09Z</time>
      </trkpt>
      <trkpt lat="47.77052" lon="1.84618">
        <ele>114</ele>
        <time>2017-11-08T13:38:10Z</time>
      </trkpt>
      <trkpt lat="47.77048" lon="1.8462">
        <ele>114</ele>
        <time>2017-11-08T13:38:11Z</time>
      </trkpt>
      <trkpt lat="47.77042" lon="1.84621">
        <ele>114</ele>
        <time>2017-11-08T13:38:12Z</time>
      </trkpt>
      <trkpt lat="47.77037" lon="1.84623">
        <ele>115</ele>
        <time>2017-11-08T13:38:13Z</time>
      </trkpt>
      <trkpt lat="47.77031" lon="1.84625">
        <ele>115</ele>
        <time>2017-11-08T13:38:14Z</time>
      </trkpt>
      <trkpt lat="47.77026" lon="1.84627">
        <ele>115</ele>
        <time>2017-11-08T13:38:15Z</time>
      </trkpt>
      <trkpt lat="47.77014" lon="1.84635">
        <ele>115</ele>
        <time>2017-11-08T13:38:16Z</time>
      </trkpt>
      <trkpt lat="47.77007" lon="1.84638">
        <ele>116</ele>
        <time>2017-11-08T13:38:17Z</time>
      </trkpt>
      <trkpt lat="47.77002" lon="1.8464">
        <ele>116</ele>
        <time>2017-11-08T13:38:18Z</time>
      </trkpt>
      <trkpt lat="47.76997" lon="1.84642">
        <ele>117</ele>
        <time>2017-11-08T13:38:19Z</time>
      </trkpt>
      <trkpt lat="47.76993" lon="1.84643">
        <ele>117</ele>
        <time>2017-11-08T13:38:20Z</time>
      </trkpt>
      <trkpt lat="47.76989" lon="1.84644">
        <ele>117</ele>
        <time>2017-11-08T13:38:21Z</time>
      </trkpt>
      <trkpt lat="47.76985" lon="1.84647">
        <ele>117</ele>
        <time>2017-11-08T13:38:22Z</time>
      </trkpt>
      <trkpt lat="47.76981" lon="1.84648">
        <ele>117</ele>
        <time>2017-11-08T13:38:23Z</time>
      </trkpt>
      <trkpt lat="47.76977" lon="1.8465">
        <ele>117</ele>
        <time>2017-11-08T13:38:24Z</time>
      </trkpt>
      <trkpt lat="47.76973" lon="1.84652">
        <ele>117</ele>
        <time>2017-11-08T13:38:25Z</time>
      </trkpt>
      <trkpt lat="47.76968" lon="1.84654">
        <ele>116</ele>
        <time>2017-11-08T13:38:26Z</time>
      </trkpt>
      <trkpt lat="47.76964" lon="1.84656">
        <ele>116</ele>
        <time>2017-11-08T13:38:27Z</time>
      </trkpt>
      <trkpt lat="47.7696" lon="1.84657">
        <ele>116</ele>
        <time>2017-11-08T13:38:28Z</time>
      </trkpt>
      <trkpt lat="47.76956" lon="1.84659">
        <ele>116</ele>
        <time>2017-11-08T13:38:29Z</time>
      </trkpt>
      <trkpt lat="47.76952" lon="1.84661">
        <ele>116</ele>
        <time>2017-11-08T13:38:31Z</time>
      </trkpt>
      <trkpt lat="47.76948" lon="1.84661">
        <ele>116</ele>
        <time>2017-11-08T13:38:33Z</time>
      </trkpt>
      <trkpt lat="47.76943" lon="1.84662">
        <ele>116</ele>
        <time>2017-11-08T13:38:35Z</time>
      </trkpt>
      <trkpt lat="47.7694" lon="1.84662">
        <ele>116</ele>
        <time>2017-11-08T13:38:36Z</time>
      </trkpt>
      <trkpt lat="47.76937" lon="1.84663">
        <ele>116</ele>
        <time>2017-11-08T13:38:37Z</time>
      </trkpt>
      <trkpt lat="47.76933" lon="1.84664">
        <ele>116</ele>
        <time>2017-11-08T13:38:38Z</time>
      </trkpt>
      <trkpt lat="47.76929" lon="1.84665">
        <ele>116</ele>
        <time>2017-11-08T13:38:39Z</time>
      </trkpt>
      <trkpt lat="47.76925" lon="1.84667">
        <ele>116</ele>
        <time>2017-11-08T13:38:40Z</time>
      </trkpt>
      <trkpt lat="47.76921" lon="1.84668">
        <ele>116</ele>
        <time>2017-11-08T13:38:41Z</time>
      </trkpt>
      <trkpt lat="47.76912" lon="1.84671">
        <ele>116</ele>
        <time>2017-11-08T13:38:42Z</time>
      </trkpt>
      <trkpt lat="47.76906" lon="1.84672">
        <ele>116</ele>
        <time>2017-11-08T13:38:43Z</time>
      </trkpt>
      <trkpt lat="47.76901" lon="1.84673">
        <ele>116</ele>
        <time>2017-11-08T13:38:44Z</time>
      </trkpt>
      <trkpt lat="47.76897" lon="1.84673">
        <ele>116</ele>
        <time>2017-11-08T13:38:45Z</time>
      </trkpt>
      <trkpt lat="47.76893" lon="1.84672">
        <ele>116</ele>
        <time>2017-11-08T13:38:46Z</time>
      </trkpt>
      <trkpt lat="47.7689" lon="1.84671">
        <ele>116</ele>
        <time>2017-11-08T13:38:47Z</time>
      </trkpt>
      <trkpt lat="47.76887" lon="1.8467">
        <ele>116</ele>
        <time>2017-11-08T13:38:48Z</time>
      </trkpt>
      <trkpt lat="47.76884" lon="1.8467">
        <ele>116</ele>
        <time>2017-11-08T13:38:49Z</time>
      </trkpt>
      <trkpt lat="47.7688" lon="1.8467">
        <ele>116</ele>
        <time>2017-11-08T13:38:50Z</time>
      </trkpt>
      <trkpt lat="47.76876" lon="1.84671">
        <ele>116</ele>
        <time>2017-11-08T13:38:51Z</time>
      </trkpt>
      <trkpt lat="47.76872" lon="1.84671">
        <ele>116</ele>
        <time>2017-11-08T13:38:52Z</time>
      </trkpt>
      <trkpt lat="47.76869" lon="1.84673">
        <ele>115</ele>
        <time>2017-11-08T13:38:53Z</time>
      </trkpt>
      <trkpt lat="47.76865" lon="1.84676">
        <ele>115</ele>
        <time>2017-11-08T13:38:55Z</time>
      </trkpt>
      <trkpt lat="47.76861" lon="1.84677">
        <ele>115</ele>
        <time>2017-11-08T13:38:57Z</time>
      </trkpt>
      <trkpt lat="47.76856" lon="1.84679">
        <ele>115</ele>
        <time>2017-11-08T13:38:59Z</time>
      </trkpt>
      <trkpt lat="47.76853" lon="1.84682">
        <ele>115</ele>
        <time>2017-11-08T13:39:01Z</time>
      </trkpt>
      <trkpt lat="47.76847" lon="1.84686">
        <ele>115</ele>
        <time>2017-11-08T13:39:03Z</time>
      </trkpt>
      <trkpt lat="47.76839" lon="1.84691">
        <ele>115</ele>
        <time>2017-11-08T13:39:04Z</time>
      </trkpt>
      <trkpt lat="47.76834" lon="1.84695">
        <ele>115</ele>
        <time>2017-11-08T13:39:06Z</time>
      </trkpt>
      <trkpt lat="47.7683" lon="1.84698">
        <ele>115</ele>
        <time>2017-11-08T13:39:07Z</time>
      </trkpt>
      <trkpt lat="47.76826" lon="1.84703">
        <ele>115</ele>
        <time>2017-11-08T13:39:08Z</time>
      </trkpt>
      <trkpt lat="47.76822" lon="1.84706">
        <ele>115</ele>
        <time>2017-11-08T13:39:09Z</time>
      </trkpt>
      <trkpt lat="47.76818" lon="1.84709">
        <ele>115</ele>
        <time>2017-11-08T13:39:10Z</time>
      </trkpt>
      <trkpt lat="47.76813" lon="1.84715">
        <ele>115</ele>
        <time>2017-11-08T13:39:11Z</time>
      </trkpt>
      <trkpt lat="47.76809" lon="1.84722">
        <ele>115</ele>
        <time>2017-11-08T13:39:12Z</time>
      </trkpt>
      <trkpt lat="47.76804" lon="1.84725">
        <ele>115</ele>
        <time>2017-11-08T13:39:13Z</time>
      </trkpt>
      <trkpt lat="47.768" lon="1.84732">
        <ele>115</ele>
        <time>2017-11-08T13:39:14Z</time>
      </trkpt>
      <trkpt lat="47.76795" lon="1.84737">
        <ele>115</ele>
        <time>2017-11-08T13:39:15Z</time>
      </trkpt>
      <trkpt lat="47.76791" lon="1.84741">
        <ele>115</ele>
        <time>2017-11-08T13:39:16Z</time>
      </trkpt>
      <trkpt lat="47.76789" lon="1.84747">
        <ele>115</ele>
        <time>2017-11-08T13:39:17Z</time>
      </trkpt>
      <trkpt lat="47.76785" lon="1.84751">
        <ele>117</ele>
        <time>2017-11-08T13:39:18Z</time>
      </trkpt>
      <trkpt lat="47.7678" lon="1.84753">
        <ele>117</ele>
        <time>2017-11-08T13:39:19Z</time>
      </trkpt>
      <trkpt lat="47.76774" lon="1.84756">
        <ele>116</ele>
        <time>2017-11-08T13:39:20Z</time>
      </trkpt>
      <trkpt lat="47.76769" lon="1.84761">
        <ele>116</ele>
        <time>2017-11-08T13:39:21Z</time>
      </trkpt>
      <trkpt lat="47.76763" lon="1.84765">
        <ele>116</ele>
        <time>2017-11-08T13:39:22Z</time>
      </trkpt>
      <trkpt lat="47.76759" lon="1.84771">
        <ele>116</ele>
        <time>2017-11-08T13:39:23Z</time>
      </trkpt>
      <trkpt lat="47.76755" lon="1.84773">
        <ele>116</ele>
        <time>2017-11-08T13:39:24Z</time>
      </trkpt>
      <trkpt lat="47.76753" lon="1.84777">
        <ele>116</ele>
        <time>2017-11-08T13:39:25Z</time>
      </trkpt>
      <trkpt lat="47.76749" lon="1.84781">
        <ele>115</ele>
        <time>2017-11-08T13:39:26Z</time>
      </trkpt>
      <trkpt lat="47.76743" lon="1.84785">
        <ele>115</ele>
        <time>2017-11-08T13:39:27Z</time>
      </trkpt>
      <trkpt lat="47.76737" lon="1.84789">
        <ele>115</ele>
        <time>2017-11-08T13:39:28Z</time>
      </trkpt>
      <trkpt lat="47.76734" lon="1.84792">
        <ele>115</ele>
        <time>2017-11-08T13:39:29Z</time>
      </trkpt>
      <trkpt lat="47.76729" lon="1.84795">
        <ele>115</ele>
        <time>2017-11-08T13:39:30Z</time>
      </trkpt>
      <trkpt lat="47.76724" lon="1.84799">
        <ele>115</ele>
        <time>2017-11-08T13:39:31Z</time>
      </trkpt>
      <trkpt lat="47.7672" lon="1.84802">
        <ele>115</ele>
        <time>2017-11-08T13:39:32Z</time>
      </trkpt>
      <trkpt lat="47.76716" lon="1.84805">
        <ele>115</ele>
        <time>2017-11-08T13:39:33Z</time>
      </trkpt>
      <trkpt lat="47.76711" lon="1.84809">
        <ele>115</ele>
        <time>2017-11-08T13:39:34Z</time>
      </trkpt>
      <trkpt lat="47.76707" lon="1.84813">
        <ele>115</ele>
        <time>2017-11-08T13:39:35Z</time>
      </trkpt>
      <trkpt lat="47.76703" lon="1.84816">
        <ele>115</ele>
        <time>2017-11-08T13:39:36Z</time>
      </trkpt>
      <trkpt lat="47.76697" lon="1.84817">
        <ele>114</ele>
        <time>2017-11-08T13:39:37Z</time>
      </trkpt>
      <trkpt lat="47.76692" lon="1.84819">
        <ele>114</ele>
        <time>2017-11-08T13:39:38Z</time>
      </trkpt>
      <trkpt lat="47.76686" lon="1.84825">
        <ele>114</ele>
        <time>2017-11-08T13:39:39Z</time>
      </trkpt>
      <trkpt lat="47.7668" lon="1.8483">
        <ele>114</ele>
        <time>2017-11-08T13:39:40Z</time>
      </trkpt>
      <trkpt lat="47.76674" lon="1.84834">
        <ele>114</ele>
        <time>2017-11-08T13:39:41Z</time>
      </trkpt>
      <trkpt lat="47.76664" lon="1.84841">
        <ele>114</ele>
        <time>2017-11-08T13:39:42Z</time>
      </trkpt>
      <trkpt lat="47.76658" lon="1.84845">
        <ele>114</ele>
        <time>2017-11-08T13:39:43Z</time>
      </trkpt>
      <trkpt lat="47.76654" lon="1.84848">
        <ele>114</ele>
        <time>2017-11-08T13:39:44Z</time>
      </trkpt>
      <trkpt lat="47.76649" lon="1.8485">
        <ele>114</ele>
        <time>2017-11-08T13:39:45Z</time>
      </trkpt>
      <trkpt lat="47.76644" lon="1.84854">
        <ele>114</ele>
        <time>2017-11-08T13:39:46Z</time>
      </trkpt>
      <trkpt lat="47.76639" lon="1.84857">
        <ele>114</ele>
        <time>2017-11-08T13:39:47Z</time>
      </trkpt>
      <trkpt lat="47.76636" lon="1.8486">
        <ele>114</ele>
        <time>2017-11-08T13:39:48Z</time>
      </trkpt>
      <trkpt lat="47.76632" lon="1.84862">
        <ele>114</ele>
        <time>2017-11-08T13:39:49Z</time>
      </trkpt>
      <trkpt lat="47.76629" lon="1.84864">
        <ele>114</ele>
        <time>2017-11-08T13:39:50Z</time>
      </trkpt>
      <trkpt lat="47.76626" lon="1.84866">
        <ele>114</ele>
        <time>2017-11-08T13:39:51Z</time>
      </trkpt>
      <trkpt lat="47.76623" lon="1.84869">
        <ele>114</ele>
        <time>2017-11-08T13:39:52Z</time>
      </trkpt>
      <trkpt lat="47.7662" lon="1.84871">
        <ele>114</ele>
        <time>2017-11-08T13:39:53Z</time>
      </trkpt>
      <trkpt lat="47.76616" lon="1.84874">
        <ele>114</ele>
        <time>2017-11-08T13:39:55Z</time>
      </trkpt>
      <trkpt lat="47.76612" lon="1.84877">
        <ele>114</ele>
        <time>2017-11-08T13:39:57Z</time>
      </trkpt>
      <trkpt lat="47.76609" lon="1.84878">
        <ele>114</ele>
        <time>2017-11-08T13:39:58Z</time>
      </trkpt>
      <trkpt lat="47.76605" lon="1.84881">
        <ele>114</ele>
        <time>2017-11-08T13:39:59Z</time>
      </trkpt>
      <trkpt lat="47.76603" lon="1.84883">
        <ele>114</ele>
        <time>2017-11-08T13:40:00Z</time>
      </trkpt>
      <trkpt lat="47.76599" lon="1.84886">
        <ele>114</ele>
        <time>2017-11-08T13:40:01Z</time>
      </trkpt>
      <trkpt lat="47.76595" lon="1.84888">
        <ele>114</ele>
        <time>2017-11-08T13:40:02Z</time>
      </trkpt>
      <trkpt lat="47.7659" lon="1.8489">
        <ele>114</ele>
        <time>2017-11-08T13:40:03Z</time>
      </trkpt>
      <trkpt lat="47.76586" lon="1.8489">
        <ele>114</ele>
        <time>2017-11-08T13:40:04Z</time>
      </trkpt>
      <trkpt lat="47.76582" lon="1.84891">
        <ele>114</ele>
        <time>2017-11-08T13:40:05Z</time>
      </trkpt>
      <trkpt lat="47.76578" lon="1.84891">
        <ele>114</ele>
        <time>2017-11-08T13:40:06Z</time>
      </trkpt>
      <trkpt lat="47.76574" lon="1.84893">
        <ele>114</ele>
        <time>2017-11-08T13:40:07Z</time>
      </trkpt>
      <trkpt lat="47.76571" lon="1.84894">
        <ele>114</ele>
        <time>2017-11-08T13:40:08Z</time>
      </trkpt>
      <trkpt lat="47.76567" lon="1.84895">
        <ele>114</ele>
        <time>2017-11-08T13:40:09Z</time>
      </trkpt>
      <trkpt lat="47.76564" lon="1.84896">
        <ele>114</ele>
        <time>2017-11-08T13:40:10Z</time>
      </trkpt>
      <trkpt lat="47.7656" lon="1.84897">
        <ele>115</ele>
        <time>2017-11-08T13:40:11Z</time>
      </trkpt>
      <trkpt lat="47.76557" lon="1.84898">
        <ele>115</ele>
        <time>2017-11-08T13:40:12Z</time>
      </trkpt>
      <trkpt lat="47.7655" lon="1.84903">
        <ele>115</ele>
        <time>2017-11-08T13:40:13Z</time>
      </trkpt>
      <trkpt lat="47.76546" lon="1.84902">
        <ele>115</ele>
        <time>2017-11-08T13:40:14Z</time>
      </trkpt>
      <trkpt lat="47.76541" lon="1.84904">
        <ele>115</ele>
        <time>2017-11-08T13:40:15Z</time>
      </trkpt>
      <trkpt lat="47.76536" lon="1.84905">
        <ele>115</ele>
        <time>2017-11-08T13:40:17Z</time>
      </trkpt>
      <trkpt lat="47.76531" lon="1.84907">
        <ele>115</ele>
        <time>2017-11-08T13:40:18Z</time>
      </trkpt>
      <trkpt lat="47.76527" lon="1.84909">
        <ele>115</ele>
        <time>2017-11-08T13:40:19Z</time>
      </trkpt>
      <trkpt lat="47.76522" lon="1.8491">
        <ele>115</ele>
        <time>2017-11-08T13:40:20Z</time>
      </trkpt>
      <trkpt lat="47.76517" lon="1.84913">
        <ele>115</ele>
        <time>2017-11-08T13:40:21Z</time>
      </trkpt>
      <trkpt lat="47.76511" lon="1.84916">
        <ele>115</ele>
        <time>2017-11-08T13:40:22Z</time>
      </trkpt>
      <trkpt lat="47.76506" lon="1.84918">
        <ele>115</ele>
        <time>2017-11-08T13:40:23Z</time>
      </trkpt>
      <trkpt lat="47.76502" lon="1.84918">
        <ele>115</ele>
        <time>2017-11-08T13:40:24Z</time>
      </trkpt>
      <trkpt lat="47.76498" lon="1.84919">
        <ele>115</ele>
        <time>2017-11-08T13:40:25Z</time>
      </trkpt>
      <trkpt lat="47.76495" lon="1.8492">
        <ele>115</ele>
        <time>2017-11-08T13:40:26Z</time>
      </trkpt>
      <trkpt lat="47.76489" lon="1.84922">
        <ele>115</ele>
        <time>2017-11-08T13:40:27Z</time>
      </trkpt>
      <trkpt lat="47.76485" lon="1.84923">
        <ele>115</ele>
        <time>2017-11-08T13:40:28Z</time>
      </trkpt>
      <trkpt lat="47.76481" lon="1.84924">
        <ele>115</ele>
        <time>2017-11-08T13:40:29Z</time>
      </trkpt>
      <trkpt lat="47.76477" lon="1.84925">
        <ele>115</ele>
        <time>2017-11-08T13:40:30Z</time>
      </trkpt>
      <trkpt lat="47.76473" lon="1.84925">
        <ele>115</ele>
        <time>2017-11-08T13:40:31Z</time>
      </trkpt>
      <trkpt lat="47.76469" lon="1.84926">
        <ele>115</ele>
        <time>2017-11-08T13:40:32Z</time>
      </trkpt>
      <trkpt lat="47.76464" lon="1.84929">
        <ele>114</ele>
        <time>2017-11-08T13:40:33Z</time>
      </trkpt>
      <trkpt lat="47.7646" lon="1.8493">
        <ele>114</ele>
        <time>2017-11-08T13:40:34Z</time>
      </trkpt>
      <trkpt lat="47.76455" lon="1.84931">
        <ele>114</ele>
        <time>2017-11-08T13:40:35Z</time>
      </trkpt>
      <trkpt lat="47.76451" lon="1.84932">
        <ele>114</ele>
        <time>2017-11-08T13:40:36Z</time>
      </trkpt>
      <trkpt lat="47.76446" lon="1.84933">
        <ele>114</ele>
        <time>2017-11-08T13:40:37Z</time>
      </trkpt>
      <trkpt lat="47.76442" lon="1.84934">
        <ele>115</ele>
        <time>2017-11-08T13:40:38Z</time>
      </trkpt>
      <trkpt lat="47.76438" lon="1.84935">
        <ele>115</ele>
        <time>2017-11-08T13:40:39Z</time>
      </trkpt>
      <trkpt lat="47.76434" lon="1.84937">
        <ele>115</ele>
        <time>2017-11-08T13:40:40Z</time>
      </trkpt>
      <trkpt lat="47.76428" lon="1.84939">
        <ele>115</ele>
        <time>2017-11-08T13:40:41Z</time>
      </trkpt>
      <trkpt lat="47.76424" lon="1.84939">
        <ele>115</ele>
        <time>2017-11-08T13:40:42Z</time>
      </trkpt>
      <trkpt lat="47.7642" lon="1.8494">
        <ele>115</ele>
        <time>2017-11-08T13:40:43Z</time>
      </trkpt>
      <trkpt lat="47.76414" lon="1.84942">
        <ele>115</ele>
        <time>2017-11-08T13:40:44Z</time>
      </trkpt>
      <trkpt lat="47.76409" lon="1.84944">
        <ele>115</ele>
        <time>2017-11-08T13:40:45Z</time>
      </trkpt>
      <trkpt lat="47.76404" lon="1.84945">
        <ele>115</ele>
        <time>2017-11-08T13:40:46Z</time>
      </trkpt>
      <trkpt lat="47.76401" lon="1.84946">
        <ele>115</ele>
        <time>2017-11-08T13:40:47Z</time>
      </trkpt>
      <trkpt lat="47.76397" lon="1.84947">
        <ele>115</ele>
        <time>2017-11-08T13:40:48Z</time>
      </trkpt>
      <trkpt lat="47.76394" lon="1.84947">
        <ele>115</ele>
        <time>2017-11-08T13:40:49Z</time>
      </trkpt>
      <trkpt lat="47.76391" lon="1.84948">
        <ele>115</ele>
        <time>2017-11-08T13:40:50Z</time>
      </trkpt>
      <trkpt lat="47.76387" lon="1.84949">
        <ele>115</ele>
        <time>2017-11-08T13:40:51Z</time>
      </trkpt>
      <trkpt lat="47.76383" lon="1.84949">
        <ele>115</ele>
        <time>2017-11-08T13:40:52Z</time>
      </trkpt>
      <trkpt lat="47.76379" lon="1.8495">
        <ele>116</ele>
        <time>2017-11-08T13:40:53Z</time>
      </trkpt>
      <trkpt lat="47.76374" lon="1.84951">
        <ele>116</ele>
        <time>2017-11-08T13:40:54Z</time>
      </trkpt>
      <trkpt lat="47.76369" lon="1.84953">
        <ele>116</ele>
        <time>2017-11-08T13:40:55Z</time>
      </trkpt>
      <trkpt lat="47.76358" lon="1.8496">
        <ele>116</ele>
        <time>2017-11-08T13:40:56Z</time>
      </trkpt>
      <trkpt lat="47.76354" lon="1.8496">
        <ele>116</ele>
        <time>2017-11-08T13:40:57Z</time>
      </trkpt>
      <trkpt lat="47.7635" lon="1.84961">
        <ele>116</ele>
        <time>2017-11-08T13:40:58Z</time>
      </trkpt>
      <trkpt lat="47.76346" lon="1.84962">
        <ele>116</ele>
        <time>2017-11-08T13:40:59Z</time>
      </trkpt>
      <trkpt lat="47.76341" lon="1.84963">
        <ele>116</ele>
        <time>2017-11-08T13:41:00Z</time>
      </trkpt>
      <trkpt lat="47.76337" lon="1.84963">
        <ele>116</ele>
        <time>2017-11-08T13:41:01Z</time>
      </trkpt>
      <trkpt lat="47.7633" lon="1.84967">
        <ele>117</ele>
        <time>2017-11-08T13:41:02Z</time>
      </trkpt>
      <trkpt lat="47.76326" lon="1.84968">
        <ele>117</ele>
        <time>2017-11-08T13:41:03Z</time>
      </trkpt>
      <trkpt lat="47.76323" lon="1.84968">
        <ele>117</ele>
        <time>2017-11-08T13:41:04Z</time>
      </trkpt>
      <trkpt lat="47.76319" lon="1.84969">
        <ele>117</ele>
        <time>2017-11-08T13:41:05Z</time>
      </trkpt>
      <trkpt lat="47.76316" lon="1.84969">
        <ele>117</ele>
        <time>2017-11-08T13:41:06Z</time>
      </trkpt>
      <trkpt lat="47.76306" lon="1.84974">
        <ele>117</ele>
        <time>2017-11-08T13:41:07Z</time>
      </trkpt>
      <trkpt lat="47.76301" lon="1.84971">
        <ele>117</ele>
        <time>2017-11-08T13:41:09Z</time>
      </trkpt>
      <trkpt lat="47.76295" lon="1.84975">
        <ele>117</ele>
        <time>2017-11-08T13:41:10Z</time>
      </trkpt>
      <trkpt lat="47.76292" lon="1.84976">
        <ele>117</ele>
        <time>2017-11-08T13:41:11Z</time>
      </trkpt>
      <trkpt lat="47.76288" lon="1.84977">
        <ele>118</ele>
        <time>2017-11-08T13:41:12Z</time>
      </trkpt>
      <trkpt lat="47.76284" lon="1.84979">
        <ele>118</ele>
        <time>2017-11-08T13:41:13Z</time>
      </trkpt>
      <trkpt lat="47.7628" lon="1.84981">
        <ele>118</ele>
        <time>2017-11-08T13:41:14Z</time>
      </trkpt>
      <trkpt lat="47.76275" lon="1.84983">
        <ele>118</ele>
        <time>2017-11-08T13:41:15Z</time>
      </trkpt>
      <trkpt lat="47.76269" lon="1.84987">
        <ele>118</ele>
        <time>2017-11-08T13:41:16Z</time>
      </trkpt>
      <trkpt lat="47.76263" lon="1.8499">
        <ele>118</ele>
        <time>2017-11-08T13:41:17Z</time>
      </trkpt>
      <trkpt lat="47.76259" lon="1.84991">
        <ele>118</ele>
        <time>2017-11-08T13:41:18Z</time>
      </trkpt>
      <trkpt lat="47.76255" lon="1.84992">
        <ele>118</ele>
        <time>2017-11-08T13:41:19Z</time>
      </trkpt>
      <trkpt lat="47.76251" lon="1.84993">
        <ele>119</ele>
        <time>2017-11-08T13:41:20Z</time>
      </trkpt>
      <trkpt lat="47.76248" lon="1.84995">
        <ele>119</ele>
        <time>2017-11-08T13:41:21Z</time>
      </trkpt>
      <trkpt lat="47.76244" lon="1.84996">
        <ele>119</ele>
        <time>2017-11-08T13:41:22Z</time>
      </trkpt>
      <trkpt lat="47.76239" lon="1.84997">
        <ele>119</ele>
        <time>2017-11-08T13:41:23Z</time>
      </trkpt>
      <trkpt lat="47.76235" lon="1.84999">
        <ele>119</ele>
        <time>2017-11-08T13:41:24Z</time>
      </trkpt>
      <trkpt lat="47.7623" lon="1.85">
        <ele>119</ele>
        <time>2017-11-08T13:41:25Z</time>
      </trkpt>
      <trkpt lat="47.76227" lon="1.85002">
        <ele>119</ele>
        <time>2017-11-08T13:41:26Z</time>
      </trkpt>
      <trkpt lat="47.76222" lon="1.85003">
        <ele>119</ele>
        <time>2017-11-08T13:41:27Z</time>
      </trkpt>
      <trkpt lat="47.76218" lon="1.85005">
        <ele>119</ele>
        <time>2017-11-08T13:41:28Z</time>
      </trkpt>
      <trkpt lat="47.76214" lon="1.85007">
        <ele>119</ele>
        <time>2017-11-08T13:41:29Z</time>
      </trkpt>
      <trkpt lat="47.7621" lon="1.85009">
        <ele>119</ele>
        <time>2017-11-08T13:41:30Z</time>
      </trkpt>
      <trkpt lat="47.76206" lon="1.85011">
        <ele>119</ele>
        <time>2017-11-08T13:41:31Z</time>
      </trkpt>
      <trkpt lat="47.76201" lon="1.85013">
        <ele>119</ele>
        <time>2017-11-08T13:41:32Z</time>
      </trkpt>
      <trkpt lat="47.76196" lon="1.85016">
        <ele>119</ele>
        <time>2017-11-08T13:41:33Z</time>
      </trkpt>
      <trkpt lat="47.76192" lon="1.85017">
        <ele>119</ele>
        <time>2017-11-08T13:41:34Z</time>
      </trkpt>
      <trkpt lat="47.76188" lon="1.85019">
        <ele>119</ele>
        <time>2017-11-08T13:41:35Z</time>
      </trkpt>
      <trkpt lat="47.76184" lon="1.85021">
        <ele>119</ele>
        <time>2017-11-08T13:41:36Z</time>
      </trkpt>
      <trkpt lat="47.7618" lon="1.85023">
        <ele>119</ele>
        <time>2017-11-08T13:41:37Z</time>
      </trkpt>
      <trkpt lat="47.76176" lon="1.85025">
        <ele>119</ele>
        <time>2017-11-08T13:41:38Z</time>
      </trkpt>
      <trkpt lat="47.76171" lon="1.85026">
        <ele>119</ele>
        <time>2017-11-08T13:41:39Z</time>
      </trkpt>
      <trkpt lat="47.76166" lon="1.85029">
        <ele>119</ele>
        <time>2017-11-08T13:41:40Z</time>
      </trkpt>
      <trkpt lat="47.76162" lon="1.8503">
        <ele>119</ele>
        <time>2017-11-08T13:41:41Z</time>
      </trkpt>
      <trkpt lat="47.76157" lon="1.85032">
        <ele>119</ele>
        <time>2017-11-08T13:41:42Z</time>
      </trkpt>
      <trkpt lat="47.76153" lon="1.85033">
        <ele>119</ele>
        <time>2017-11-08T13:41:43Z</time>
      </trkpt>
      <trkpt lat="47.76149" lon="1.85035">
        <ele>119</ele>
        <time>2017-11-08T13:41:44Z</time>
      </trkpt>
      <trkpt lat="47.76145" lon="1.85037">
        <ele>119</ele>
        <time>2017-11-08T13:41:45Z</time>
      </trkpt>
      <trkpt lat="47.76141" lon="1.85039">
        <ele>119</ele>
        <time>2017-11-08T13:41:46Z</time>
      </trkpt>
      <trkpt lat="47.76137" lon="1.85041">
        <ele>119</ele>
        <time>2017-11-08T13:41:47Z</time>
      </trkpt>
      <trkpt lat="47.76133" lon="1.85042">
        <ele>119</ele>
        <time>2017-11-08T13:41:48Z</time>
      </trkpt>
      <trkpt lat="47.7613" lon="1.85043">
        <ele>119</ele>
        <time>2017-11-08T13:41:49Z</time>
      </trkpt>
      <trkpt lat="47.76126" lon="1.85044">
        <ele>119</ele>
        <time>2017-11-08T13:41:50Z</time>
      </trkpt>
      <trkpt lat="47.76121" lon="1.85045">
        <ele>120</ele>
        <time>2017-11-08T13:41:51Z</time>
      </trkpt>
      <trkpt lat="47.76117" lon="1.85045">
        <ele>120</ele>
        <time>2017-11-08T13:41:52Z</time>
      </trkpt>
      <trkpt lat="47.76114" lon="1.85045">
        <ele>120</ele>
        <time>2017-11-08T13:41:53Z</time>
      </trkpt>
      <trkpt lat="47.7611" lon="1.85045">
        <ele>120</ele>
        <time>2017-11-08T13:41:54Z</time>
      </trkpt>
      <trkpt lat="47.76107" lon="1.85045">
        <ele>120</ele>
        <time>2017-11-08T13:41:55Z</time>
      </trkpt>
      <trkpt lat="47.76102" lon="1.85045">
        <ele>120</ele>
        <time>2017-11-08T13:41:56Z</time>
      </trkpt>
      <trkpt lat="47.76098" lon="1.85045">
        <ele>120</ele>
        <time>2017-11-08T13:41:57Z</time>
      </trkpt>
      <trkpt lat="47.76093" lon="1.85046">
        <ele>120</ele>
        <time>2017-11-08T13:41:58Z</time>
      </trkpt>
      <trkpt lat="47.76089" lon="1.85047">
        <ele>120</ele>
        <time>2017-11-08T13:41:59Z</time>
      </trkpt>
      <trkpt lat="47.76076" lon="1.85056">
        <ele>120</ele>
        <time>2017-11-08T13:42:00Z</time>
      </trkpt>
      <trkpt lat="47.76072" lon="1.85057">
        <ele>120</ele>
        <time>2017-11-08T13:42:01Z</time>
      </trkpt>
      <trkpt lat="47.76068" lon="1.85061">
        <ele>120</ele>
        <time>2017-11-08T13:42:02Z</time>
      </trkpt>
      <trkpt lat="47.76063" lon="1.85064">
        <ele>121</ele>
        <time>2017-11-08T13:42:03Z</time>
      </trkpt>
      <trkpt lat="47.76059" lon="1.85068">
        <ele>121</ele>
        <time>2017-11-08T13:42:04Z</time>
      </trkpt>
      <trkpt lat="47.76056" lon="1.8507">
        <ele>121</ele>
        <time>2017-11-08T13:42:05Z</time>
      </trkpt>
      <trkpt lat="47.76054" lon="1.85073">
        <ele>121</ele>
        <time>2017-11-08T13:42:06Z</time>
      </trkpt>
      <trkpt lat="47.7605" lon="1.85079">
        <ele>121</ele>
        <time>2017-11-08T13:42:08Z</time>
      </trkpt>
      <trkpt lat="47.76047" lon="1.85082">
        <ele>121</ele>
        <time>2017-11-08T13:42:09Z</time>
      </trkpt>
      <trkpt lat="47.76045" lon="1.85085">
        <ele>122</ele>
        <time>2017-11-08T13:42:10Z</time>
      </trkpt>
      <trkpt lat="47.76043" lon="1.85089">
        <ele>122</ele>
        <time>2017-11-08T13:42:11Z</time>
      </trkpt>
      <trkpt lat="47.76041" lon="1.85092">
        <ele>122</ele>
        <time>2017-11-08T13:42:12Z</time>
      </trkpt>
      <trkpt lat="47.76039" lon="1.85096">
        <ele>122</ele>
        <time>2017-11-08T13:42:13Z</time>
      </trkpt>
      <trkpt lat="47.76036" lon="1.851">
        <ele>122</ele>
        <time>2017-11-08T13:42:14Z</time>
      </trkpt>
      <trkpt lat="47.76034" lon="1.85105">
        <ele>122</ele>
        <time>2017-11-08T13:42:15Z</time>
      </trkpt>
      <trkpt lat="47.76031" lon="1.85109">
        <ele>122</ele>
        <time>2017-11-08T13:42:16Z</time>
      </trkpt>
      <trkpt lat="47.76027" lon="1.85114">
        <ele>122</ele>
        <time>2017-11-08T13:42:17Z</time>
      </trkpt>
      <trkpt lat="47.76023" lon="1.85118">
        <ele>122</ele>
        <time>2017-11-08T13:42:18Z</time>
      </trkpt>
      <trkpt lat="47.76019" lon="1.85122">
        <ele>122</ele>
        <time>2017-11-08T13:42:19Z</time>
      </trkpt>
      <trkpt lat="47.76014" lon="1.85125">
        <ele>122</ele>
        <time>2017-11-08T13:42:20Z</time>
      </trkpt>
      <trkpt lat="47.76009" lon="1.85129">
        <ele>122</ele>
        <time>2017-11-08T13:42:21Z</time>
      </trkpt>
      <trkpt lat="47.76006" lon="1.85134">
        <ele>122</ele>
        <time>2017-11-08T13:42:22Z</time>
      </trkpt>
      <trkpt lat="47.76002" lon="1.85138">
        <ele>122</ele>
        <time>2017-11-08T13:42:23Z</time>
      </trkpt>
      <trkpt lat="47.75999" lon="1.85142">
        <ele>121</ele>
        <time>2017-11-08T13:42:24Z</time>
      </trkpt>
      <trkpt lat="47.75996" lon="1.85146">
        <ele>121</ele>
        <time>2017-11-08T13:42:25Z</time>
      </trkpt>
      <trkpt lat="47.75993" lon="1.8515">
        <ele>121</ele>
        <time>2017-11-08T13:42:26Z</time>
      </trkpt>
      <trkpt lat="47.75989" lon="1.85155">
        <ele>121</ele>
        <time>2017-11-08T13:42:27Z</time>
      </trkpt>
      <trkpt lat="47.75984" lon="1.85161">
        <ele>121</ele>
        <time>2017-11-08T13:42:28Z</time>
      </trkpt>
      <trkpt lat="47.75979" lon="1.85166">
        <ele>121</ele>
        <time>2017-11-08T13:42:29Z</time>
      </trkpt>
      <trkpt lat="47.75975" lon="1.85172">
        <ele>121</ele>
        <time>2017-11-08T13:42:30Z</time>
      </trkpt>
      <trkpt lat="47.75972" lon="1.85176">
        <ele>121</ele>
        <time>2017-11-08T13:42:31Z</time>
      </trkpt>
      <trkpt lat="47.75968" lon="1.85182">
        <ele>121</ele>
        <time>2017-11-08T13:42:32Z</time>
      </trkpt>
      <trkpt lat="47.75965" lon="1.85187">
        <ele>121</ele>
        <time>2017-11-08T13:42:33Z</time>
      </trkpt>
      <trkpt lat="47.75962" lon="1.85191">
        <ele>121</ele>
        <time>2017-11-08T13:42:34Z</time>
      </trkpt>
      <trkpt lat="47.75957" lon="1.85196">
        <ele>121</ele>
        <time>2017-11-08T13:42:35Z</time>
      </trkpt>
      <trkpt lat="47.75953" lon="1.85202">
        <ele>121</ele>
        <time>2017-11-08T13:42:36Z</time>
      </trkpt>
      <trkpt lat="47.7595" lon="1.85207">
        <ele>121</ele>
        <time>2017-11-08T13:42:37Z</time>
      </trkpt>
      <trkpt lat="47.75947" lon="1.85211">
        <ele>121</ele>
        <time>2017-11-08T13:42:38Z</time>
      </trkpt>
      <trkpt lat="47.75943" lon="1.85216">
        <ele>121</ele>
        <time>2017-11-08T13:42:39Z</time>
      </trkpt>
      <trkpt lat="47.7594" lon="1.85219">
        <ele>121</ele>
        <time>2017-11-08T13:42:40Z</time>
      </trkpt>
      <trkpt lat="47.75937" lon="1.85224">
        <ele>121</ele>
        <time>2017-11-08T13:42:41Z</time>
      </trkpt>
      <trkpt lat="47.75934" lon="1.85233">
        <ele>121</ele>
        <time>2017-11-08T13:42:42Z</time>
      </trkpt>
      <trkpt lat="47.75932" lon="1.85237">
        <ele>121</ele>
        <time>2017-11-08T13:42:43Z</time>
      </trkpt>
      <trkpt lat="47.75929" lon="1.85241">
        <ele>121</ele>
        <time>2017-11-08T13:42:44Z</time>
      </trkpt>
      <trkpt lat="47.75927" lon="1.85246">
        <ele>121</ele>
        <time>2017-11-08T13:42:45Z</time>
      </trkpt>
      <trkpt lat="47.75924" lon="1.85251">
        <ele>121</ele>
        <time>2017-11-08T13:42:46Z</time>
      </trkpt>
      <trkpt lat="47.7592" lon="1.85257">
        <ele>121</ele>
        <time>2017-11-08T13:42:47Z</time>
      </trkpt>
      <trkpt lat="47.75916" lon="1.85262">
        <ele>121</ele>
        <time>2017-11-08T13:42:48Z</time>
      </trkpt>
      <trkpt lat="47.75912" lon="1.85268">
        <ele>121</ele>
        <time>2017-11-08T13:42:49Z</time>
      </trkpt>
      <trkpt lat="47.75908" lon="1.85274">
        <ele>121</ele>
        <time>2017-11-08T13:42:50Z</time>
      </trkpt>
      <trkpt lat="47.75904" lon="1.85279">
        <ele>121</ele>
        <time>2017-11-08T13:42:51Z</time>
      </trkpt>
      <trkpt lat="47.759" lon="1.85284">
        <ele>121</ele>
        <time>2017-11-08T13:42:52Z</time>
      </trkpt>
      <trkpt lat="47.75896" lon="1.85288">
        <ele>121</ele>
        <time>2017-11-08T13:42:53Z</time>
      </trkpt>
      <trkpt lat="47.75892" lon="1.85293">
        <ele>120</ele>
        <time>2017-11-08T13:42:54Z</time>
      </trkpt>
      <trkpt lat="47.75882" lon="1.85305">
        <ele>120</ele>
        <time>2017-11-08T13:42:55Z</time>
      </trkpt>
      <trkpt lat="47.75879" lon="1.85308">
        <ele>120</ele>
        <time>2017-11-08T13:42:56Z</time>
      </trkpt>
      <trkpt lat="47.75874" lon="1.85315">
        <ele>120</ele>
        <time>2017-11-08T13:42:57Z</time>
      </trkpt>
      <trkpt lat="47.75872" lon="1.85318">
        <ele>120</ele>
        <time>2017-11-08T13:42:58Z</time>
      </trkpt>
      <trkpt lat="47.75868" lon="1.85324">
        <ele>120</ele>
        <time>2017-11-08T13:42:59Z</time>
      </trkpt>
      <trkpt lat="47.75865" lon="1.85328">
        <ele>120</ele>
        <time>2017-11-08T13:43:00Z</time>
      </trkpt>
      <trkpt lat="47.75861" lon="1.85332">
        <ele>120</ele>
        <time>2017-11-08T13:43:01Z</time>
      </trkpt>
      <trkpt lat="47.75858" lon="1.85337">
        <ele>119</ele>
        <time>2017-11-08T13:43:02Z</time>
      </trkpt>
      <trkpt lat="47.75855" lon="1.85343">
        <ele>119</ele>
        <time>2017-11-08T13:43:03Z</time>
      </trkpt>
      <trkpt lat="47.75851" lon="1.85349">
        <ele>119</ele>
        <time>2017-11-08T13:43:04Z</time>
      </trkpt>
      <trkpt lat="47.75847" lon="1.85354">
        <ele>119</ele>
        <time>2017-11-08T13:43:05Z</time>
      </trkpt>
      <trkpt lat="47.75845" lon="1.8536">
        <ele>119</ele>
        <time>2017-11-08T13:43:06Z</time>
      </trkpt>
      <trkpt lat="47.75838" lon="1.85367">
        <ele>119</ele>
        <time>2017-11-08T13:43:07Z</time>
      </trkpt>
      <trkpt lat="47.75835" lon="1.85371">
        <ele>119</ele>
        <time>2017-11-08T13:43:08Z</time>
      </trkpt>
      <trkpt lat="47.75833" lon="1.85375">
        <ele>118</ele>
        <time>2017-11-08T13:43:09Z</time>
      </trkpt>
      <trkpt lat="47.75827" lon="1.85383">
        <ele>118</ele>
        <time>2017-11-08T13:43:10Z</time>
      </trkpt>
      <trkpt lat="47.75823" lon="1.85389">
        <ele>118</ele>
        <time>2017-11-08T13:43:11Z</time>
      </trkpt>
      <trkpt lat="47.75819" lon="1.85395">
        <ele>118</ele>
        <time>2017-11-08T13:43:12Z</time>
      </trkpt>
      <trkpt lat="47.75816" lon="1.85399">
        <ele>118</ele>
        <time>2017-11-08T13:43:13Z</time>
      </trkpt>
      <trkpt lat="47.75812" lon="1.85405">
        <ele>118</ele>
        <time>2017-11-08T13:43:14Z</time>
      </trkpt>
      <trkpt lat="47.75808" lon="1.85411">
        <ele>118</ele>
        <time>2017-11-08T13:43:15Z</time>
      </trkpt>
      <trkpt lat="47.75806" lon="1.85415">
        <ele>118</ele>
        <time>2017-11-08T13:43:16Z</time>
      </trkpt>
      <trkpt lat="47.75803" lon="1.85419">
        <ele>117</ele>
        <time>2017-11-08T13:43:17Z</time>
      </trkpt>
      <trkpt lat="47.75799" lon="1.85422">
        <ele>117</ele>
        <time>2017-11-08T13:43:18Z</time>
      </trkpt>
      <trkpt lat="47.75795" lon="1.85425">
        <ele>117</ele>
        <time>2017-11-08T13:43:19Z</time>
      </trkpt>
      <trkpt lat="47.75791" lon="1.85427">
        <ele>117</ele>
        <time>2017-11-08T13:43:20Z</time>
      </trkpt>
      <trkpt lat="47.75786" lon="1.85429">
        <ele>117</ele>
        <time>2017-11-08T13:43:21Z</time>
      </trkpt>
      <trkpt lat="47.75782" lon="1.85431">
        <ele>117</ele>
        <time>2017-11-08T13:43:22Z</time>
      </trkpt>
      <trkpt lat="47.75777" lon="1.85432">
        <ele>117</ele>
        <time>2017-11-08T13:43:23Z</time>
      </trkpt>
      <trkpt lat="47.75774" lon="1.85433">
        <ele>117</ele>
        <time>2017-11-08T13:43:24Z</time>
      </trkpt>
      <trkpt lat="47.75769" lon="1.85435">
        <ele>117</ele>
        <time>2017-11-08T13:43:25Z</time>
      </trkpt>
      <trkpt lat="47.75765" lon="1.85436">
        <ele>117</ele>
        <time>2017-11-08T13:43:26Z</time>
      </trkpt>
      <trkpt lat="47.75759" lon="1.85438">
        <ele>117</ele>
        <time>2017-11-08T13:43:27Z</time>
      </trkpt>
      <trkpt lat="47.75754" lon="1.85439">
        <ele>117</ele>
        <time>2017-11-08T13:43:28Z</time>
      </trkpt>
      <trkpt lat="47.75749" lon="1.85441">
        <ele>117</ele>
        <time>2017-11-08T13:43:29Z</time>
      </trkpt>
      <trkpt lat="47.75744" lon="1.85442">
        <ele>117</ele>
        <time>2017-11-08T13:43:30Z</time>
      </trkpt>
      <trkpt lat="47.75738" lon="1.85442">
        <ele>117</ele>
        <time>2017-11-08T13:43:31Z</time>
      </trkpt>
      <trkpt lat="47.75734" lon="1.85443">
        <ele>117</ele>
        <time>2017-11-08T13:43:32Z</time>
      </trkpt>
      <trkpt lat="47.7573" lon="1.85444">
        <ele>117</ele>
        <time>2017-11-08T13:43:33Z</time>
      </trkpt>
      <trkpt lat="47.75725" lon="1.85445">
        <ele>117</ele>
        <time>2017-11-08T13:43:34Z</time>
      </trkpt>
      <trkpt lat="47.75721" lon="1.85446">
        <ele>117</ele>
        <time>2017-11-08T13:43:35Z</time>
      </trkpt>
      <trkpt lat="47.75716" lon="1.85447">
        <ele>117</ele>
        <time>2017-11-08T13:43:36Z</time>
      </trkpt>
      <trkpt lat="47.75712" lon="1.85449">
        <ele>117</ele>
        <time>2017-11-08T13:43:37Z</time>
      </trkpt>
      <trkpt lat="47.75707" lon="1.8545">
        <ele>117</ele>
        <time>2017-11-08T13:43:38Z</time>
      </trkpt>
      <trkpt lat="47.75704" lon="1.85451">
        <ele>117</ele>
        <time>2017-11-08T13:43:39Z</time>
      </trkpt>
      <trkpt lat="47.75699" lon="1.85453">
        <ele>117</ele>
        <time>2017-11-08T13:43:40Z</time>
      </trkpt>
      <trkpt lat="47.75695" lon="1.85456">
        <ele>117</ele>
        <time>2017-11-08T13:43:41Z</time>
      </trkpt>
      <trkpt lat="47.7569" lon="1.85458">
        <ele>117</ele>
        <time>2017-11-08T13:43:42Z</time>
      </trkpt>
      <trkpt lat="47.75685" lon="1.8546">
        <ele>117</ele>
        <time>2017-11-08T13:43:43Z</time>
      </trkpt>
      <trkpt lat="47.75681" lon="1.85462">
        <ele>117</ele>
        <time>2017-11-08T13:43:44Z</time>
      </trkpt>
      <trkpt lat="47.75677" lon="1.85463">
        <ele>117</ele>
        <time>2017-11-08T13:43:45Z</time>
      </trkpt>
      <trkpt lat="47.75673" lon="1.85464">
        <ele>117</ele>
        <time>2017-11-08T13:43:46Z</time>
      </trkpt>
      <trkpt lat="47.75669" lon="1.85466">
        <ele>117</ele>
        <time>2017-11-08T13:43:47Z</time>
      </trkpt>
      <trkpt lat="47.75665" lon="1.85466">
        <ele>118</ele>
        <time>2017-11-08T13:43:48Z</time>
      </trkpt>
      <trkpt lat="47.75661" lon="1.85465">
        <ele>118</ele>
        <time>2017-11-08T13:43:49Z</time>
      </trkpt>
      <trkpt lat="47.75657" lon="1.85465">
        <ele>118</ele>
        <time>2017-11-08T13:43:50Z</time>
      </trkpt>
      <trkpt lat="47.75652" lon="1.85465">
        <ele>118</ele>
        <time>2017-11-08T13:43:51Z</time>
      </trkpt>
      <trkpt lat="47.75648" lon="1.85467">
        <ele>118</ele>
        <time>2017-11-08T13:43:52Z</time>
      </trkpt>
      <trkpt lat="47.75645" lon="1.85468">
        <ele>118</ele>
        <time>2017-11-08T13:43:53Z</time>
      </trkpt>
      <trkpt lat="47.75641" lon="1.8547">
        <ele>118</ele>
        <time>2017-11-08T13:43:54Z</time>
      </trkpt>
      <trkpt lat="47.75638" lon="1.85472">
        <ele>118</ele>
        <time>2017-11-08T13:43:55Z</time>
      </trkpt>
      <trkpt lat="47.75634" lon="1.85474">
        <ele>118</ele>
        <time>2017-11-08T13:43:56Z</time>
      </trkpt>
      <trkpt lat="47.75631" lon="1.85475">
        <ele>118</ele>
        <time>2017-11-08T13:43:57Z</time>
      </trkpt>
      <trkpt lat="47.75627" lon="1.85477">
        <ele>118</ele>
        <time>2017-11-08T13:43:58Z</time>
      </trkpt>
      <trkpt lat="47.75623" lon="1.85478">
        <ele>118</ele>
        <time>2017-11-08T13:43:59Z</time>
      </trkpt>
      <trkpt lat="47.75618" lon="1.8548">
        <ele>118</ele>
        <time>2017-11-08T13:44:00Z</time>
      </trkpt>
      <trkpt lat="47.75615" lon="1.85482">
        <ele>119</ele>
        <time>2017-11-08T13:44:01Z</time>
      </trkpt>
      <trkpt lat="47.75611" lon="1.85484">
        <ele>119</ele>
        <time>2017-11-08T13:44:02Z</time>
      </trkpt>
      <trkpt lat="47.75604" lon="1.85487">
        <ele>119</ele>
        <time>2017-11-08T13:44:03Z</time>
      </trkpt>
      <trkpt lat="47.75599" lon="1.85491">
        <ele>119</ele>
        <time>2017-11-08T13:44:04Z</time>
      </trkpt>
      <trkpt lat="47.75596" lon="1.85493">
        <ele>119</ele>
        <time>2017-11-08T13:44:05Z</time>
      </trkpt>
      <trkpt lat="47.7559" lon="1.85497">
        <ele>119</ele>
        <time>2017-11-08T13:44:06Z</time>
      </trkpt>
      <trkpt lat="47.75587" lon="1.855">
        <ele>119</ele>
        <time>2017-11-08T13:44:07Z</time>
      </trkpt>
      <trkpt lat="47.75583" lon="1.85503">
        <ele>119</ele>
        <time>2017-11-08T13:44:08Z</time>
      </trkpt>
      <trkpt lat="47.75578" lon="1.85507">
        <ele>119</ele>
        <time>2017-11-08T13:44:09Z</time>
      </trkpt>
      <trkpt lat="47.75575" lon="1.85509">
        <ele>119</ele>
        <time>2017-11-08T13:44:10Z</time>
      </trkpt>
      <trkpt lat="47.7557" lon="1.85512">
        <ele>119</ele>
        <time>2017-11-08T13:44:11Z</time>
      </trkpt>
      <trkpt lat="47.75566" lon="1.85516">
        <ele>119</ele>
        <time>2017-11-08T13:44:12Z</time>
      </trkpt>
      <trkpt lat="47.75563" lon="1.85519">
        <ele>119</ele>
        <time>2017-11-08T13:44:13Z</time>
      </trkpt>
      <trkpt lat="47.75558" lon="1.85524">
        <ele>119</ele>
        <time>2017-11-08T13:44:15Z</time>
      </trkpt>
      <trkpt lat="47.75555" lon="1.85528">
        <ele>119</ele>
        <time>2017-11-08T13:44:16Z</time>
      </trkpt>
      <trkpt lat="47.75552" lon="1.85531">
        <ele>119</ele>
        <time>2017-11-08T13:44:17Z</time>
      </trkpt>
      <trkpt lat="47.75547" lon="1.85536">
        <ele>119</ele>
        <time>2017-11-08T13:44:18Z</time>
      </trkpt>
      <trkpt lat="47.75543" lon="1.8554">
        <ele>119</ele>
        <time>2017-11-08T13:44:19Z</time>
      </trkpt>
      <trkpt lat="47.75538" lon="1.85545">
        <ele>119</ele>
        <time>2017-11-08T13:44:20Z</time>
      </trkpt>
      <trkpt lat="47.75535" lon="1.85548">
        <ele>119</ele>
        <time>2017-11-08T13:44:21Z</time>
      </trkpt>
      <trkpt lat="47.75531" lon="1.85551">
        <ele>119</ele>
        <time>2017-11-08T13:44:22Z</time>
      </trkpt>
      <trkpt lat="47.75527" lon="1.85554">
        <ele>119</ele>
        <time>2017-11-08T13:44:23Z</time>
      </trkpt>
      <trkpt lat="47.75522" lon="1.85557">
        <ele>119</ele>
        <time>2017-11-08T13:44:24Z</time>
      </trkpt>
      <trkpt lat="47.75517" lon="1.85559">
        <ele>119</ele>
        <time>2017-11-08T13:44:25Z</time>
      </trkpt>
      <trkpt lat="47.75514" lon="1.8556">
        <ele>119</ele>
        <time>2017-11-08T13:44:26Z</time>
      </trkpt>
      <trkpt lat="47.7551" lon="1.85561">
        <ele>119</ele>
        <time>2017-11-08T13:44:27Z</time>
      </trkpt>
      <trkpt lat="47.75508" lon="1.85564">
        <ele>119</ele>
        <time>2017-11-08T13:44:28Z</time>
      </trkpt>
      <trkpt lat="47.75504" lon="1.85568">
        <ele>119</ele>
        <time>2017-11-08T13:44:30Z</time>
      </trkpt>
      <trkpt lat="47.75502" lon="1.85573">
        <ele>119</ele>
        <time>2017-11-08T13:44:31Z</time>
      </trkpt>
      <trkpt lat="47.755" lon="1.85578">
        <ele>119</ele>
        <time>2017-11-08T13:44:32Z</time>
      </trkpt>
      <trkpt lat="47.75497" lon="1.85581">
        <ele>119</ele>
        <time>2017-11-08T13:44:33Z</time>
      </trkpt>
      <trkpt lat="47.75492" lon="1.85587">
        <ele>119</ele>
        <time>2017-11-08T13:44:34Z</time>
      </trkpt>
      <trkpt lat="47.75491" lon="1.85592">
        <ele>119</ele>
        <time>2017-11-08T13:44:35Z</time>
      </trkpt>
      <trkpt lat="47.7549" lon="1.85597">
        <ele>120</ele>
        <time>2017-11-08T13:44:36Z</time>
      </trkpt>
      <trkpt lat="47.75486" lon="1.85601">
        <ele>120</ele>
        <time>2017-11-08T13:44:37Z</time>
      </trkpt>
      <trkpt lat="47.75479" lon="1.85607">
        <ele>120</ele>
        <time>2017-11-08T13:44:38Z</time>
      </trkpt>
      <trkpt lat="47.75474" lon="1.85611">
        <ele>120</ele>
        <time>2017-11-08T13:44:39Z</time>
      </trkpt>
      <trkpt lat="47.75469" lon="1.85615">
        <ele>120</ele>
        <time>2017-11-08T13:44:40Z</time>
      </trkpt>
      <trkpt lat="47.75465" lon="1.85617">
        <ele>120</ele>
        <time>2017-11-08T13:44:41Z</time>
      </trkpt>
      <trkpt lat="47.75458" lon="1.85622">
        <ele>120</ele>
        <time>2017-11-08T13:44:42Z</time>
      </trkpt>
      <trkpt lat="47.75453" lon="1.85627">
        <ele>120</ele>
        <time>2017-11-08T13:44:43Z</time>
      </trkpt>
      <trkpt lat="47.75448" lon="1.85632">
        <ele>120</ele>
        <time>2017-11-08T13:44:44Z</time>
      </trkpt>
      <trkpt lat="47.75445" lon="1.85635">
        <ele>121</ele>
        <time>2017-11-08T13:44:45Z</time>
      </trkpt>
      <trkpt lat="47.75442" lon="1.8564">
        <ele>121</ele>
        <time>2017-11-08T13:44:46Z</time>
      </trkpt>
      <trkpt lat="47.75439" lon="1.85646">
        <ele>121</ele>
        <time>2017-11-08T13:44:47Z</time>
      </trkpt>
      <trkpt lat="47.75437" lon="1.85652">
        <ele>121</ele>
        <time>2017-11-08T13:44:48Z</time>
      </trkpt>
      <trkpt lat="47.75435" lon="1.85657">
        <ele>121</ele>
        <time>2017-11-08T13:44:49Z</time>
      </trkpt>
      <trkpt lat="47.75432" lon="1.85662">
        <ele>121</ele>
        <time>2017-11-08T13:44:50Z</time>
      </trkpt>
      <trkpt lat="47.75429" lon="1.85668">
        <ele>122</ele>
        <time>2017-11-08T13:44:51Z</time>
      </trkpt>
      <trkpt lat="47.75427" lon="1.85671">
        <ele>122</ele>
        <time>2017-11-08T13:44:52Z</time>
      </trkpt>
      <trkpt lat="47.75426" lon="1.85677">
        <ele>122</ele>
        <time>2017-11-08T13:44:53Z</time>
      </trkpt>
      <trkpt lat="47.75426" lon="1.85682">
        <ele>122</ele>
        <time>2017-11-08T13:44:54Z</time>
      </trkpt>
      <trkpt lat="47.75425" lon="1.85686">
        <ele>122</ele>
        <time>2017-11-08T13:44:55Z</time>
      </trkpt>
      <trkpt lat="47.75423" lon="1.85691">
        <ele>122</ele>
        <time>2017-11-08T13:44:56Z</time>
      </trkpt>
      <trkpt lat="47.7542" lon="1.85694">
        <ele>122</ele>
        <time>2017-11-08T13:44:57Z</time>
      </trkpt>
      <trkpt lat="47.75417" lon="1.85696">
        <ele>122</ele>
        <time>2017-11-08T13:44:58Z</time>
      </trkpt>
      <trkpt lat="47.75414" lon="1.85697">
        <ele>123</ele>
        <time>2017-11-08T13:44:59Z</time>
      </trkpt>
      <trkpt lat="47.7541" lon="1.857">
        <ele>123</ele>
        <time>2017-11-08T13:45:01Z</time>
      </trkpt>
      <trkpt lat="47.75408" lon="1.85702">
        <ele>123</ele>
        <time>2017-11-08T13:45:02Z</time>
      </trkpt>
      <trkpt lat="47.75405" lon="1.85704">
        <ele>123</ele>
        <time>2017-11-08T13:45:03Z</time>
      </trkpt>
      <trkpt lat="47.75402" lon="1.85706">
        <ele>123</ele>
        <time>2017-11-08T13:45:04Z</time>
      </trkpt>
      <trkpt lat="47.754" lon="1.85709">
        <ele>123</ele>
        <time>2017-11-08T13:45:05Z</time>
      </trkpt>
      <trkpt lat="47.75396" lon="1.85711">
        <ele>123</ele>
        <time>2017-11-08T13:45:06Z</time>
      </trkpt>
      <trkpt lat="47.75392" lon="1.85713">
        <ele>123</ele>
        <time>2017-11-08T13:45:07Z</time>
      </trkpt>
      <trkpt lat="47.75389" lon="1.85716">
        <ele>123</ele>
        <time>2017-11-08T13:45:08Z</time>
      </trkpt>
      <trkpt lat="47.75385" lon="1.85718">
        <ele>123</ele>
        <time>2017-11-08T13:45:09Z</time>
      </trkpt>
      <trkpt lat="47.75382" lon="1.85719">
        <ele>123</ele>
        <time>2017-11-08T13:45:10Z</time>
      </trkpt>
      <trkpt lat="47.75377" lon="1.85722">
        <ele>123</ele>
        <time>2017-11-08T13:45:11Z</time>
      </trkpt>
      <trkpt lat="47.75372" lon="1.85725">
        <ele>123</ele>
        <time>2017-11-08T13:45:12Z</time>
      </trkpt>
      <trkpt lat="47.75367" lon="1.85728">
        <ele>123</ele>
        <time>2017-11-08T13:45:13Z</time>
      </trkpt>
      <trkpt lat="47.75362" lon="1.85731">
        <ele>123</ele>
        <time>2017-11-08T13:45:14Z</time>
      </trkpt>
      <trkpt lat="47.75358" lon="1.85734">
        <ele>123</ele>
        <time>2017-11-08T13:45:15Z</time>
      </trkpt>
      <trkpt lat="47.75354" lon="1.85736">
        <ele>123</ele>
        <time>2017-11-08T13:45:16Z</time>
      </trkpt>
      <trkpt lat="47.7535" lon="1.85738">
        <ele>123</ele>
        <time>2017-11-08T13:45:17Z</time>
      </trkpt>
      <trkpt lat="47.75347" lon="1.85741">
        <ele>123</ele>
        <time>2017-11-08T13:45:18Z</time>
      </trkpt>
      <trkpt lat="47.75344" lon="1.85744">
        <ele>123</ele>
        <time>2017-11-08T13:45:19Z</time>
      </trkpt>
      <trkpt lat="47.75332" lon="1.85754">
        <ele>123</ele>
        <time>2017-11-08T13:45:20Z</time>
      </trkpt>
      <trkpt lat="47.75325" lon="1.85758">
        <ele>123</ele>
        <time>2017-11-08T13:45:21Z</time>
      </trkpt>
      <trkpt lat="47.7532" lon="1.85761">
        <ele>123</ele>
        <time>2017-11-08T13:45:23Z</time>
      </trkpt>
      <trkpt lat="47.75316" lon="1.85764">
        <ele>123</ele>
        <time>2017-11-08T13:45:25Z</time>
      </trkpt>
      <trkpt lat="47.75311" lon="1.85768">
        <ele>123</ele>
        <time>2017-11-08T13:45:27Z</time>
      </trkpt>
      <trkpt lat="47.75308" lon="1.85771">
        <ele>123</ele>
        <time>2017-11-08T13:45:28Z</time>
      </trkpt>
      <trkpt lat="47.75304" lon="1.85774">
        <ele>123</ele>
        <time>2017-11-08T13:45:29Z</time>
      </trkpt>
      <trkpt lat="47.753" lon="1.85777">
        <ele>123</ele>
        <time>2017-11-08T13:45:30Z</time>
      </trkpt>
      <trkpt lat="47.75298" lon="1.8578">
        <ele>123</ele>
        <time>2017-11-08T13:45:31Z</time>
      </trkpt>
      <trkpt lat="47.75294" lon="1.85783">
        <ele>123</ele>
        <time>2017-11-08T13:45:32Z</time>
      </trkpt>
      <trkpt lat="47.75291" lon="1.85785">
        <ele>123</ele>
        <time>2017-11-08T13:45:33Z</time>
      </trkpt>
      <trkpt lat="47.75288" lon="1.85788">
        <ele>123</ele>
        <time>2017-11-08T13:45:34Z</time>
      </trkpt>
      <trkpt lat="47.75284" lon="1.8579">
        <ele>122</ele>
        <time>2017-11-08T13:45:35Z</time>
      </trkpt>
      <trkpt lat="47.75281" lon="1.85793">
        <ele>122</ele>
        <time>2017-11-08T13:45:36Z</time>
      </trkpt>
      <trkpt lat="47.75278" lon="1.85796">
        <ele>122</ele>
        <time>2017-11-08T13:45:37Z</time>
      </trkpt>
      <trkpt lat="47.75275" lon="1.85799">
        <ele>122</ele>
        <time>2017-11-08T13:45:38Z</time>
      </trkpt>
      <trkpt lat="47.7527" lon="1.85801">
        <ele>122</ele>
        <time>2017-11-08T13:45:39Z</time>
      </trkpt>
      <trkpt lat="47.75245" lon="1.85819">
        <ele>122</ele>
        <time>2017-11-08T13:45:41Z</time>
      </trkpt>
      <trkpt lat="47.75237" lon="1.85822">
        <ele>122</ele>
        <time>2017-11-08T13:45:43Z</time>
      </trkpt>
      <trkpt lat="47.75235" lon="1.85823">
        <ele>122</ele>
        <time>2017-11-08T13:45:45Z</time>
      </trkpt>
      <trkpt lat="47.75232" lon="1.85826">
        <ele>122</ele>
        <time>2017-11-08T13:45:47Z</time>
      </trkpt>
      <trkpt lat="47.75227" lon="1.8583">
        <ele>123</ele>
        <time>2017-11-08T13:45:49Z</time>
      </trkpt>
      <trkpt lat="47.75223" lon="1.85833">
        <ele>123</ele>
        <time>2017-11-08T13:45:50Z</time>
      </trkpt>
      <trkpt lat="47.75219" lon="1.85836">
        <ele>122</ele>
        <time>2017-11-08T13:45:51Z</time>
      </trkpt>
      <trkpt lat="47.75214" lon="1.85839">
        <ele>122</ele>
        <time>2017-11-08T13:45:52Z</time>
      </trkpt>
      <trkpt lat="47.75209" lon="1.85842">
        <ele>122</ele>
        <time>2017-11-08T13:45:53Z</time>
      </trkpt>
      <trkpt lat="47.75204" lon="1.85845">
        <ele>122</ele>
        <time>2017-11-08T13:45:54Z</time>
      </trkpt>
      <trkpt lat="47.75199" lon="1.85849">
        <ele>122</ele>
        <time>2017-11-08T13:45:55Z</time>
      </trkpt>
      <trkpt lat="47.75193" lon="1.85852">
        <ele>122</ele>
        <time>2017-11-08T13:45:56Z</time>
      </trkpt>
      <trkpt lat="47.75189" lon="1.85856">
        <ele>122</ele>
        <time>2017-11-08T13:45:57Z</time>
      </trkpt>
      <trkpt lat="47.75185" lon="1.85859">
        <ele>122</ele>
        <time>2017-11-08T13:45:58Z</time>
      </trkpt>
      <trkpt lat="47.7518" lon="1.85863">
        <ele>122</ele>
        <time>2017-11-08T13:45:59Z</time>
      </trkpt>
      <trkpt lat="47.75175" lon="1.85866">
        <ele>122</ele>
        <time>2017-11-08T13:46:00Z</time>
      </trkpt>
      <trkpt lat="47.75167" lon="1.85871">
        <ele>122</ele>
        <time>2017-11-08T13:46:01Z</time>
      </trkpt>
      <trkpt lat="47.75163" lon="1.85874">
        <ele>122</ele>
        <time>2017-11-08T13:46:02Z</time>
      </trkpt>
      <trkpt lat="47.75154" lon="1.85878">
        <ele>122</ele>
        <time>2017-11-08T13:46:03Z</time>
      </trkpt>
      <trkpt lat="47.75145" lon="1.85882">
        <ele>122</ele>
        <time>2017-11-08T13:46:04Z</time>
      </trkpt>
      <trkpt lat="47.75141" lon="1.85884">
        <ele>122</ele>
        <time>2017-11-08T13:46:05Z</time>
      </trkpt>
      <trkpt lat="47.75137" lon="1.85887">
        <ele>122</ele>
        <time>2017-11-08T13:46:06Z</time>
      </trkpt>
      <trkpt lat="47.75133" lon="1.85889">
        <ele>122</ele>
        <time>2017-11-08T13:46:07Z</time>
      </trkpt>
      <trkpt lat="47.7513" lon="1.85891">
        <ele>122</ele>
        <time>2017-11-08T13:46:08Z</time>
      </trkpt>
      <trkpt lat="47.75126" lon="1.8589">
        <ele>122</ele>
        <time>2017-11-08T13:46:09Z</time>
      </trkpt>
      <trkpt lat="47.75119" lon="1.85892">
        <ele>122</ele>
        <time>2017-11-08T13:46:10Z</time>
      </trkpt>
      <trkpt lat="47.75115" lon="1.85892">
        <ele>122</ele>
        <time>2017-11-08T13:46:11Z</time>
      </trkpt>
      <trkpt lat="47.7511" lon="1.85891">
        <ele>122</ele>
        <time>2017-11-08T13:46:12Z</time>
      </trkpt>
      <trkpt lat="47.75105" lon="1.85889">
        <ele>122</ele>
        <time>2017-11-08T13:46:13Z</time>
      </trkpt>
      <trkpt lat="47.751" lon="1.85888">
        <ele>122</ele>
        <time>2017-11-08T13:46:14Z</time>
      </trkpt>
      <trkpt lat="47.75095" lon="1.85886">
        <ele>122</ele>
        <time>2017-11-08T13:46:15Z</time>
      </trkpt>
      <trkpt lat="47.75091" lon="1.85884">
        <ele>122</ele>
        <time>2017-11-08T13:46:16Z</time>
      </trkpt>
      <trkpt lat="47.75087" lon="1.85883">
        <ele>122</ele>
        <time>2017-11-08T13:46:17Z</time>
      </trkpt>
      <trkpt lat="47.75082" lon="1.85881">
        <ele>122</ele>
        <time>2017-11-08T13:46:18Z</time>
      </trkpt>
      <trkpt lat="47.75078" lon="1.85879">
        <ele>122</ele>
        <time>2017-11-08T13:46:19Z</time>
      </trkpt>
      <trkpt lat="47.75074" lon="1.85877">
        <ele>122</ele>
        <time>2017-11-08T13:46:20Z</time>
      </trkpt>
      <trkpt lat="47.7507" lon="1.85875">
        <ele>122</ele>
        <time>2017-11-08T13:46:21Z</time>
      </trkpt>
      <trkpt lat="47.75066" lon="1.85873">
        <ele>122</ele>
        <time>2017-11-08T13:46:22Z</time>
      </trkpt>
      <trkpt lat="47.75062" lon="1.85872">
        <ele>122</ele>
        <time>2017-11-08T13:46:23Z</time>
      </trkpt>
      <trkpt lat="47.75057" lon="1.85869">
        <ele>122</ele>
        <time>2017-11-08T13:46:24Z</time>
      </trkpt>
      <trkpt lat="47.75053" lon="1.85867">
        <ele>122</ele>
        <time>2017-11-08T13:46:25Z</time>
      </trkpt>
      <trkpt lat="47.75048" lon="1.85865">
        <ele>122</ele>
        <time>2017-11-08T13:46:26Z</time>
      </trkpt>
      <trkpt lat="47.75044" lon="1.85862">
        <ele>122</ele>
        <time>2017-11-08T13:46:27Z</time>
      </trkpt>
      <trkpt lat="47.75039" lon="1.8586">
        <ele>122</ele>
        <time>2017-11-08T13:46:28Z</time>
      </trkpt>
      <trkpt lat="47.75035" lon="1.85857">
        <ele>122</ele>
        <time>2017-11-08T13:46:29Z</time>
      </trkpt>
      <trkpt lat="47.7503" lon="1.85855">
        <ele>122</ele>
        <time>2017-11-08T13:46:30Z</time>
      </trkpt>
      <trkpt lat="47.75027" lon="1.85852">
        <ele>122</ele>
        <time>2017-11-08T13:46:31Z</time>
      </trkpt>
      <trkpt lat="47.75023" lon="1.8585">
        <ele>122</ele>
        <time>2017-11-08T13:46:32Z</time>
      </trkpt>
      <trkpt lat="47.75019" lon="1.85848">
        <ele>122</ele>
        <time>2017-11-08T13:46:33Z</time>
      </trkpt>
      <trkpt lat="47.75014" lon="1.85846">
        <ele>122</ele>
        <time>2017-11-08T13:46:34Z</time>
      </trkpt>
      <trkpt lat="47.7501" lon="1.85843">
        <ele>122</ele>
        <time>2017-11-08T13:46:35Z</time>
      </trkpt>
      <trkpt lat="47.75006" lon="1.85841">
        <ele>122</ele>
        <time>2017-11-08T13:46:36Z</time>
      </trkpt>
      <trkpt lat="47.75002" lon="1.85839">
        <ele>122</ele>
        <time>2017-11-08T13:46:37Z</time>
      </trkpt>
      <trkpt lat="47.74998" lon="1.85837">
        <ele>122</ele>
        <time>2017-11-08T13:46:38Z</time>
      </trkpt>
      <trkpt lat="47.74993" lon="1.85835">
        <ele>122</ele>
        <time>2017-11-08T13:46:39Z</time>
      </trkpt>
      <trkpt lat="47.7499" lon="1.85832">
        <ele>122</ele>
        <time>2017-11-08T13:46:40Z</time>
      </trkpt>
      <trkpt lat="47.74985" lon="1.8583">
        <ele>122</ele>
        <time>2017-11-08T13:46:41Z</time>
      </trkpt>
      <trkpt lat="47.74982" lon="1.85829">
        <ele>122</ele>
        <time>2017-11-08T13:46:42Z</time>
      </trkpt>
      <trkpt lat="47.74978" lon="1.85826">
        <ele>122</ele>
        <time>2017-11-08T13:46:43Z</time>
      </trkpt>
      <trkpt lat="47.74974" lon="1.85824">
        <ele>122</ele>
        <time>2017-11-08T13:46:44Z</time>
      </trkpt>
      <trkpt lat="47.74971" lon="1.85822">
        <ele>122</ele>
        <time>2017-11-08T13:46:45Z</time>
      </trkpt>
      <trkpt lat="47.74967" lon="1.8582">
        <ele>122</ele>
        <time>2017-11-08T13:46:46Z</time>
      </trkpt>
      <trkpt lat="47.74964" lon="1.85817">
        <ele>122</ele>
        <time>2017-11-08T13:46:47Z</time>
      </trkpt>
      <trkpt lat="47.7496" lon="1.85816">
        <ele>122</ele>
        <time>2017-11-08T13:46:48Z</time>
      </trkpt>
      <trkpt lat="47.74956" lon="1.85814">
        <ele>122</ele>
        <time>2017-11-08T13:46:49Z</time>
      </trkpt>
      <trkpt lat="47.74952" lon="1.85813">
        <ele>122</ele>
        <time>2017-11-08T13:46:50Z</time>
      </trkpt>
      <trkpt lat="47.74948" lon="1.85811">
        <ele>122</ele>
        <time>2017-11-08T13:46:51Z</time>
      </trkpt>
      <trkpt lat="47.74945" lon="1.8581">
        <ele>122</ele>
        <time>2017-11-08T13:46:52Z</time>
      </trkpt>
      <trkpt lat="47.74941" lon="1.85808">
        <ele>122</ele>
        <time>2017-11-08T13:46:53Z</time>
      </trkpt>
      <trkpt lat="47.74938" lon="1.85807">
        <ele>122</ele>
        <time>2017-11-08T13:46:54Z</time>
      </trkpt>
      <trkpt lat="47.74935" lon="1.85806">
        <ele>122</ele>
        <time>2017-11-08T13:46:55Z</time>
      </trkpt>
      <trkpt lat="47.74931" lon="1.85804">
        <ele>122</ele>
        <time>2017-11-08T13:46:56Z</time>
      </trkpt>
      <trkpt lat="47.74927" lon="1.85803">
        <ele>122</ele>
        <time>2017-11-08T13:46:57Z</time>
      </trkpt>
      <trkpt lat="47.74924" lon="1.85802">
        <ele>121</ele>
        <time>2017-11-08T13:46:58Z</time>
      </trkpt>
      <trkpt lat="47.74919" lon="1.85801">
        <ele>121</ele>
        <time>2017-11-08T13:46:59Z</time>
      </trkpt>
      <trkpt lat="47.74915" lon="1.85801">
        <ele>120</ele>
        <time>2017-11-08T13:47:00Z</time>
      </trkpt>
      <trkpt lat="47.74912" lon="1.858">
        <ele>120</ele>
        <time>2017-11-08T13:47:01Z</time>
      </trkpt>
      <trkpt lat="47.74908" lon="1.85798">
        <ele>120</ele>
        <time>2017-11-08T13:47:02Z</time>
      </trkpt>
      <trkpt lat="47.74904" lon="1.85797">
        <ele>120</ele>
        <time>2017-11-08T13:47:03Z</time>
      </trkpt>
      <trkpt lat="47.74901" lon="1.85795">
        <ele>120</ele>
        <time>2017-11-08T13:47:04Z</time>
      </trkpt>
      <trkpt lat="47.74899" lon="1.85793">
        <ele>120</ele>
        <time>2017-11-08T13:47:05Z</time>
      </trkpt>
      <trkpt lat="47.74895" lon="1.85791">
        <ele>121</ele>
        <time>2017-11-08T13:47:06Z</time>
      </trkpt>
      <trkpt lat="47.74891" lon="1.8579">
        <ele>121</ele>
        <time>2017-11-08T13:47:07Z</time>
      </trkpt>
      <trkpt lat="47.74887" lon="1.85788">
        <ele>121</ele>
        <time>2017-11-08T13:47:08Z</time>
      </trkpt>
      <trkpt lat="47.74883" lon="1.85786">
        <ele>121</ele>
        <time>2017-11-08T13:47:09Z</time>
      </trkpt>
      <trkpt lat="47.74879" lon="1.85784">
        <ele>121</ele>
        <time>2017-11-08T13:47:10Z</time>
      </trkpt>
      <trkpt lat="47.74875" lon="1.85783">
        <ele>121</ele>
        <time>2017-11-08T13:47:11Z</time>
      </trkpt>
      <trkpt lat="47.7487" lon="1.85781">
        <ele>121</ele>
        <time>2017-11-08T13:47:12Z</time>
      </trkpt>
      <trkpt lat="47.74866" lon="1.8578">
        <ele>121</ele>
        <time>2017-11-08T13:47:13Z</time>
      </trkpt>
      <trkpt lat="47.74862" lon="1.85778">
        <ele>121</ele>
        <time>2017-11-08T13:47:14Z</time>
      </trkpt>
      <trkpt lat="47.74859" lon="1.85776">
        <ele>121</ele>
        <time>2017-11-08T13:47:15Z</time>
      </trkpt>
      <trkpt lat="47.74854" lon="1.85774">
        <ele>121</ele>
        <time>2017-11-08T13:47:16Z</time>
      </trkpt>
      <trkpt lat="47.7485" lon="1.85772">
        <ele>121</ele>
        <time>2017-11-08T13:47:17Z</time>
      </trkpt>
      <trkpt lat="47.74847" lon="1.8577">
        <ele>121</ele>
        <time>2017-11-08T13:47:18Z</time>
      </trkpt>
      <trkpt lat="47.74843" lon="1.85769">
        <ele>121</ele>
        <time>2017-11-08T13:47:19Z</time>
      </trkpt>
      <trkpt lat="47.74838" lon="1.85767">
        <ele>121</ele>
        <time>2017-11-08T13:47:20Z</time>
      </trkpt>
      <trkpt lat="47.74834" lon="1.85766">
        <ele>121</ele>
        <time>2017-11-08T13:47:21Z</time>
      </trkpt>
      <trkpt lat="47.7483" lon="1.85765">
        <ele>121</ele>
        <time>2017-11-08T13:47:22Z</time>
      </trkpt>
      <trkpt lat="47.74826" lon="1.85763">
        <ele>121</ele>
        <time>2017-11-08T13:47:23Z</time>
      </trkpt>
      <trkpt lat="47.74822" lon="1.85762">
        <ele>121</ele>
        <time>2017-11-08T13:47:24Z</time>
      </trkpt>
      <trkpt lat="47.74819" lon="1.85761">
        <ele>121</ele>
        <time>2017-11-08T13:47:25Z</time>
      </trkpt>
      <trkpt lat="47.74815" lon="1.85759">
        <ele>121</ele>
        <time>2017-11-08T13:47:26Z</time>
      </trkpt>
      <trkpt lat="47.74811" lon="1.85757">
        <ele>121</ele>
        <time>2017-11-08T13:47:27Z</time>
      </trkpt>
      <trkpt lat="47.74807" lon="1.85754">
        <ele>120</ele>
        <time>2017-11-08T13:47:28Z</time>
      </trkpt>
      <trkpt lat="47.74803" lon="1.85752">
        <ele>120</ele>
        <time>2017-11-08T13:47:29Z</time>
      </trkpt>
      <trkpt lat="47.74799" lon="1.85751">
        <ele>120</ele>
        <time>2017-11-08T13:47:30Z</time>
      </trkpt>
      <trkpt lat="47.74794" lon="1.85749">
        <ele>121</ele>
        <time>2017-11-08T13:47:31Z</time>
      </trkpt>
      <trkpt lat="47.7479" lon="1.85747">
        <ele>121</ele>
        <time>2017-11-08T13:47:32Z</time>
      </trkpt>
      <trkpt lat="47.74786" lon="1.85746">
        <ele>121</ele>
        <time>2017-11-08T13:47:33Z</time>
      </trkpt>
      <trkpt lat="47.74782" lon="1.85744">
        <ele>121</ele>
        <time>2017-11-08T13:47:34Z</time>
      </trkpt>
      <trkpt lat="47.74777" lon="1.85742">
        <ele>121</ele>
        <time>2017-11-08T13:47:35Z</time>
      </trkpt>
      <trkpt lat="47.74773" lon="1.8574">
        <ele>121</ele>
        <time>2017-11-08T13:47:36Z</time>
      </trkpt>
      <trkpt lat="47.74769" lon="1.85739">
        <ele>121</ele>
        <time>2017-11-08T13:47:37Z</time>
      </trkpt>
      <trkpt lat="47.74764" lon="1.85737">
        <ele>121</ele>
        <time>2017-11-08T13:47:38Z</time>
      </trkpt>
      <trkpt lat="47.74759" lon="1.85735">
        <ele>121</ele>
        <time>2017-11-08T13:47:39Z</time>
      </trkpt>
      <trkpt lat="47.74754" lon="1.85732">
        <ele>121</ele>
        <time>2017-11-08T13:47:40Z</time>
      </trkpt>
      <trkpt lat="47.74749" lon="1.8573">
        <ele>120</ele>
        <time>2017-11-08T13:47:41Z</time>
      </trkpt>
      <trkpt lat="47.74744" lon="1.85728">
        <ele>120</ele>
        <time>2017-11-08T13:47:42Z</time>
      </trkpt>
      <trkpt lat="47.7474" lon="1.85725">
        <ele>120</ele>
        <time>2017-11-08T13:47:43Z</time>
      </trkpt>
      <trkpt lat="47.74735" lon="1.85723">
        <ele>120</ele>
        <time>2017-11-08T13:47:44Z</time>
      </trkpt>
      <trkpt lat="47.7473" lon="1.8572">
        <ele>120</ele>
        <time>2017-11-08T13:47:45Z</time>
      </trkpt>
      <trkpt lat="47.74726" lon="1.85719">
        <ele>120</ele>
        <time>2017-11-08T13:47:46Z</time>
      </trkpt>
      <trkpt lat="47.74721" lon="1.85716">
        <ele>120</ele>
        <time>2017-11-08T13:47:47Z</time>
      </trkpt>
      <trkpt lat="47.74717" lon="1.85714">
        <ele>120</ele>
        <time>2017-11-08T13:47:48Z</time>
      </trkpt>
      <trkpt lat="47.74712" lon="1.85712">
        <ele>120</ele>
        <time>2017-11-08T13:47:49Z</time>
      </trkpt>
      <trkpt lat="47.74707" lon="1.8571">
        <ele>120</ele>
        <time>2017-11-08T13:47:50Z</time>
      </trkpt>
      <trkpt lat="47.74702" lon="1.85707">
        <ele>119</ele>
        <time>2017-11-08T13:47:51Z</time>
      </trkpt>
      <trkpt lat="47.74697" lon="1.85705">
        <ele>119</ele>
        <time>2017-11-08T13:47:52Z</time>
      </trkpt>
      <trkpt lat="47.74692" lon="1.85702">
        <ele>119</ele>
        <time>2017-11-08T13:47:53Z</time>
      </trkpt>
      <trkpt lat="47.74688" lon="1.857">
        <ele>119</ele>
        <time>2017-11-08T13:47:54Z</time>
      </trkpt>
      <trkpt lat="47.74684" lon="1.85697">
        <ele>119</ele>
        <time>2017-11-08T13:47:55Z</time>
      </trkpt>
      <trkpt lat="47.7468" lon="1.85695">
        <ele>119</ele>
        <time>2017-11-08T13:47:56Z</time>
      </trkpt>
      <trkpt lat="47.74676" lon="1.85694">
        <ele>119</ele>
        <time>2017-11-08T13:47:57Z</time>
      </trkpt>
      <trkpt lat="47.74672" lon="1.85692">
        <ele>119</ele>
        <time>2017-11-08T13:47:58Z</time>
      </trkpt>
      <trkpt lat="47.74668" lon="1.8569">
        <ele>119</ele>
        <time>2017-11-08T13:47:59Z</time>
      </trkpt>
      <trkpt lat="47.74663" lon="1.85688">
        <ele>121</ele>
        <time>2017-11-08T13:48:00Z</time>
      </trkpt>
      <trkpt lat="47.74659" lon="1.85686">
        <ele>121</ele>
        <time>2017-11-08T13:48:01Z</time>
      </trkpt>
      <trkpt lat="47.74655" lon="1.85683">
        <ele>121</ele>
        <time>2017-11-08T13:48:02Z</time>
      </trkpt>
      <trkpt lat="47.7465" lon="1.85681">
        <ele>121</ele>
        <time>2017-11-08T13:48:03Z</time>
      </trkpt>
      <trkpt lat="47.74646" lon="1.8568">
        <ele>121</ele>
        <time>2017-11-08T13:48:04Z</time>
      </trkpt>
      <trkpt lat="47.74641" lon="1.85678">
        <ele>121</ele>
        <time>2017-11-08T13:48:05Z</time>
      </trkpt>
      <trkpt lat="47.74637" lon="1.85676">
        <ele>121</ele>
        <time>2017-11-08T13:48:06Z</time>
      </trkpt>
      <trkpt lat="47.74632" lon="1.85674">
        <ele>122</ele>
        <time>2017-11-08T13:48:07Z</time>
      </trkpt>
      <trkpt lat="47.74626" lon="1.85673">
        <ele>122</ele>
        <time>2017-11-08T13:48:08Z</time>
      </trkpt>
      <trkpt lat="47.74621" lon="1.85671">
        <ele>122</ele>
        <time>2017-11-08T13:48:09Z</time>
      </trkpt>
      <trkpt lat="47.74616" lon="1.85669">
        <ele>123</ele>
        <time>2017-11-08T13:48:10Z</time>
      </trkpt>
      <trkpt lat="47.74611" lon="1.85667">
        <ele>121</ele>
        <time>2017-11-08T13:48:11Z</time>
      </trkpt>
      <trkpt lat="47.74606" lon="1.85664">
        <ele>121</ele>
        <time>2017-11-08T13:48:12Z</time>
      </trkpt>
      <trkpt lat="47.74601" lon="1.85662">
        <ele>122</ele>
        <time>2017-11-08T13:48:13Z</time>
      </trkpt>
      <trkpt lat="47.74597" lon="1.85659">
        <ele>122</ele>
        <time>2017-11-08T13:48:14Z</time>
      </trkpt>
      <trkpt lat="47.74592" lon="1.85657">
        <ele>122</ele>
        <time>2017-11-08T13:48:15Z</time>
      </trkpt>
      <trkpt lat="47.74588" lon="1.85654">
        <ele>122</ele>
        <time>2017-11-08T13:48:16Z</time>
      </trkpt>
      <trkpt lat="47.74584" lon="1.85653">
        <ele>122</ele>
        <time>2017-11-08T13:48:17Z</time>
      </trkpt>
      <trkpt lat="47.74578" lon="1.85651">
        <ele>123</ele>
        <time>2017-11-08T13:48:18Z</time>
      </trkpt>
      <trkpt lat="47.74574" lon="1.85649">
        <ele>123</ele>
        <time>2017-11-08T13:48:19Z</time>
      </trkpt>
      <trkpt lat="47.74569" lon="1.85648">
        <ele>122</ele>
        <time>2017-11-08T13:48:20Z</time>
      </trkpt>
      <trkpt lat="47.74564" lon="1.85646">
        <ele>122</ele>
        <time>2017-11-08T13:48:21Z</time>
      </trkpt>
      <trkpt lat="47.74558" lon="1.85644">
        <ele>122</ele>
        <time>2017-11-08T13:48:22Z</time>
      </trkpt>
      <trkpt lat="47.74554" lon="1.85641">
        <ele>122</ele>
        <time>2017-11-08T13:48:23Z</time>
      </trkpt>
      <trkpt lat="47.7455" lon="1.85639">
        <ele>122</ele>
        <time>2017-11-08T13:48:24Z</time>
      </trkpt>
      <trkpt lat="47.74545" lon="1.85637">
        <ele>122</ele>
        <time>2017-11-08T13:48:25Z</time>
      </trkpt>
      <trkpt lat="47.74541" lon="1.85634">
        <ele>122</ele>
        <time>2017-11-08T13:48:26Z</time>
      </trkpt>
      <trkpt lat="47.74537" lon="1.85632">
        <ele>122</ele>
        <time>2017-11-08T13:48:27Z</time>
      </trkpt>
      <trkpt lat="47.74532" lon="1.8563">
        <ele>122</ele>
        <time>2017-11-08T13:48:28Z</time>
      </trkpt>
      <trkpt lat="47.74527" lon="1.85629">
        <ele>122</ele>
        <time>2017-11-08T13:48:29Z</time>
      </trkpt>
      <trkpt lat="47.74522" lon="1.85627">
        <ele>122</ele>
        <time>2017-11-08T13:48:30Z</time>
      </trkpt>
      <trkpt lat="47.74517" lon="1.85625">
        <ele>122</ele>
        <time>2017-11-08T13:48:31Z</time>
      </trkpt>
      <trkpt lat="47.74512" lon="1.85623">
        <ele>121</ele>
        <time>2017-11-08T13:48:32Z</time>
      </trkpt>
      <trkpt lat="47.74507" lon="1.85621">
        <ele>121</ele>
        <time>2017-11-08T13:48:33Z</time>
      </trkpt>
      <trkpt lat="47.74502" lon="1.85618">
        <ele>121</ele>
        <time>2017-11-08T13:48:34Z</time>
      </trkpt>
      <trkpt lat="47.74498" lon="1.85616">
        <ele>122</ele>
        <time>2017-11-08T13:48:35Z</time>
      </trkpt>
      <trkpt lat="47.74493" lon="1.85613">
        <ele>122</ele>
        <time>2017-11-08T13:48:36Z</time>
      </trkpt>
      <trkpt lat="47.74489" lon="1.85611">
        <ele>122</ele>
        <time>2017-11-08T13:48:37Z</time>
      </trkpt>
      <trkpt lat="47.74485" lon="1.85609">
        <ele>122</ele>
        <time>2017-11-08T13:48:38Z</time>
      </trkpt>
      <trkpt lat="47.7448" lon="1.85606">
        <ele>121</ele>
        <time>2017-11-08T13:48:39Z</time>
      </trkpt>
      <trkpt lat="47.74476" lon="1.85604">
        <ele>122</ele>
        <time>2017-11-08T13:48:40Z</time>
      </trkpt>
      <trkpt lat="47.74471" lon="1.85601">
        <ele>122</ele>
        <time>2017-11-08T13:48:41Z</time>
      </trkpt>
      <trkpt lat="47.74467" lon="1.85599">
        <ele>122</ele>
        <time>2017-11-08T13:48:42Z</time>
      </trkpt>
      <trkpt lat="47.74463" lon="1.85597">
        <ele>122</ele>
        <time>2017-11-08T13:48:43Z</time>
      </trkpt>
      <trkpt lat="47.74458" lon="1.85595">
        <ele>122</ele>
        <time>2017-11-08T13:48:44Z</time>
      </trkpt>
      <trkpt lat="47.74454" lon="1.85593">
        <ele>122</ele>
        <time>2017-11-08T13:48:45Z</time>
      </trkpt>
      <trkpt lat="47.74449" lon="1.85591">
        <ele>122</ele>
        <time>2017-11-08T13:48:46Z</time>
      </trkpt>
      <trkpt lat="47.74444" lon="1.85589">
        <ele>122</ele>
        <time>2017-11-08T13:48:47Z</time>
      </trkpt>
      <trkpt lat="47.74439" lon="1.85588">
        <ele>122</ele>
        <time>2017-11-08T13:48:48Z</time>
      </trkpt>
      <trkpt lat="47.74433" lon="1.85586">
        <ele>122</ele>
        <time>2017-11-08T13:48:49Z</time>
      </trkpt>
      <trkpt lat="47.74427" lon="1.85584">
        <ele>121</ele>
        <time>2017-11-08T13:48:50Z</time>
      </trkpt>
      <trkpt lat="47.74423" lon="1.85581">
        <ele>120</ele>
        <time>2017-11-08T13:48:51Z</time>
      </trkpt>
      <trkpt lat="47.74418" lon="1.85578">
        <ele>120</ele>
        <time>2017-11-08T13:48:52Z</time>
      </trkpt>
      <trkpt lat="47.74414" lon="1.85575">
        <ele>120</ele>
        <time>2017-11-08T13:48:53Z</time>
      </trkpt>
      <trkpt lat="47.74409" lon="1.85574">
        <ele>120</ele>
        <time>2017-11-08T13:48:54Z</time>
      </trkpt>
      <trkpt lat="47.74403" lon="1.85572">
        <ele>120</ele>
        <time>2017-11-08T13:48:55Z</time>
      </trkpt>
      <trkpt lat="47.74399" lon="1.8557">
        <ele>120</ele>
        <time>2017-11-08T13:48:56Z</time>
      </trkpt>
      <trkpt lat="47.74394" lon="1.85568">
        <ele>120</ele>
        <time>2017-11-08T13:48:57Z</time>
      </trkpt>
      <trkpt lat="47.74388" lon="1.85566">
        <ele>120</ele>
        <time>2017-11-08T13:48:58Z</time>
      </trkpt>
      <trkpt lat="47.74384" lon="1.85563">
        <ele>120</ele>
        <time>2017-11-08T13:48:59Z</time>
      </trkpt>
      <trkpt lat="47.74379" lon="1.85562">
        <ele>120</ele>
        <time>2017-11-08T13:49:00Z</time>
      </trkpt>
      <trkpt lat="47.74373" lon="1.85559">
        <ele>120</ele>
        <time>2017-11-08T13:49:01Z</time>
      </trkpt>
      <trkpt lat="47.74369" lon="1.85557">
        <ele>120</ele>
        <time>2017-11-08T13:49:02Z</time>
      </trkpt>
      <trkpt lat="47.74364" lon="1.85555">
        <ele>120</ele>
        <time>2017-11-08T13:49:03Z</time>
      </trkpt>
      <trkpt lat="47.74359" lon="1.85553">
        <ele>120</ele>
        <time>2017-11-08T13:49:04Z</time>
      </trkpt>
      <trkpt lat="47.74354" lon="1.8555">
        <ele>120</ele>
        <time>2017-11-08T13:49:05Z</time>
      </trkpt>
      <trkpt lat="47.7435" lon="1.85548">
        <ele>119</ele>
        <time>2017-11-08T13:49:06Z</time>
      </trkpt>
      <trkpt lat="47.74345" lon="1.85547">
        <ele>119</ele>
        <time>2017-11-08T13:49:07Z</time>
      </trkpt>
      <trkpt lat="47.7434" lon="1.85545">
        <ele>119</ele>
        <time>2017-11-08T13:49:08Z</time>
      </trkpt>
      <trkpt lat="47.74335" lon="1.85543">
        <ele>119</ele>
        <time>2017-11-08T13:49:09Z</time>
      </trkpt>
      <trkpt lat="47.7433" lon="1.85541">
        <ele>119</ele>
        <time>2017-11-08T13:49:10Z</time>
      </trkpt>
      <trkpt lat="47.74325" lon="1.85539">
        <ele>119</ele>
        <time>2017-11-08T13:49:11Z</time>
      </trkpt>
      <trkpt lat="47.74319" lon="1.85536">
        <ele>119</ele>
        <time>2017-11-08T13:49:12Z</time>
      </trkpt>
      <trkpt lat="47.74316" lon="1.85535">
        <ele>119</ele>
        <time>2017-11-08T13:49:13Z</time>
      </trkpt>
      <trkpt lat="47.74311" lon="1.85532">
        <ele>119</ele>
        <time>2017-11-08T13:49:14Z</time>
      </trkpt>
      <trkpt lat="47.74306" lon="1.8553">
        <ele>119</ele>
        <time>2017-11-08T13:49:15Z</time>
      </trkpt>
      <trkpt lat="47.74301" lon="1.85529">
        <ele>118</ele>
        <time>2017-11-08T13:49:16Z</time>
      </trkpt>
      <trkpt lat="47.74296" lon="1.85527">
        <ele>118</ele>
        <time>2017-11-08T13:49:17Z</time>
      </trkpt>
      <trkpt lat="47.7429" lon="1.85526">
        <ele>118</ele>
        <time>2017-11-08T13:49:18Z</time>
      </trkpt>
      <trkpt lat="47.74284" lon="1.85525">
        <ele>118</ele>
        <time>2017-11-08T13:49:19Z</time>
      </trkpt>
      <trkpt lat="47.74279" lon="1.85524">
        <ele>118</ele>
        <time>2017-11-08T13:49:20Z</time>
      </trkpt>
      <trkpt lat="47.74274" lon="1.85524">
        <ele>118</ele>
        <time>2017-11-08T13:49:21Z</time>
      </trkpt>
      <trkpt lat="47.74269" lon="1.85524">
        <ele>118</ele>
        <time>2017-11-08T13:49:22Z</time>
      </trkpt>
      <trkpt lat="47.74263" lon="1.85524">
        <ele>118</ele>
        <time>2017-11-08T13:49:23Z</time>
      </trkpt>
      <trkpt lat="47.74258" lon="1.85524">
        <ele>118</ele>
        <time>2017-11-08T13:49:24Z</time>
      </trkpt>
      <trkpt lat="47.74253" lon="1.85524">
        <ele>118</ele>
        <time>2017-11-08T13:49:25Z</time>
      </trkpt>
      <trkpt lat="47.74249" lon="1.85524">
        <ele>118</ele>
        <time>2017-11-08T13:49:26Z</time>
      </trkpt>
      <trkpt lat="47.74243" lon="1.85525">
        <ele>117</ele>
        <time>2017-11-08T13:49:27Z</time>
      </trkpt>
      <trkpt lat="47.74239" lon="1.85524">
        <ele>117</ele>
        <time>2017-11-08T13:49:28Z</time>
      </trkpt>
      <trkpt lat="47.74234" lon="1.85524">
        <ele>117</ele>
        <time>2017-11-08T13:49:29Z</time>
      </trkpt>
      <trkpt lat="47.74229" lon="1.85524">
        <ele>117</ele>
        <time>2017-11-08T13:49:30Z</time>
      </trkpt>
      <trkpt lat="47.74225" lon="1.85525">
        <ele>117</ele>
        <time>2017-11-08T13:49:31Z</time>
      </trkpt>
      <trkpt lat="47.74221" lon="1.85525">
        <ele>117</ele>
        <time>2017-11-08T13:49:32Z</time>
      </trkpt>
      <trkpt lat="47.74216" lon="1.85525">
        <ele>117</ele>
        <time>2017-11-08T13:49:33Z</time>
      </trkpt>
      <trkpt lat="47.74211" lon="1.85526">
        <ele>117</ele>
        <time>2017-11-08T13:49:34Z</time>
      </trkpt>
      <trkpt lat="47.74206" lon="1.85525">
        <ele>117</ele>
        <time>2017-11-08T13:49:35Z</time>
      </trkpt>
      <trkpt lat="47.74201" lon="1.85524">
        <ele>117</ele>
        <time>2017-11-08T13:49:36Z</time>
      </trkpt>
      <trkpt lat="47.74197" lon="1.85524">
        <ele>117</ele>
        <time>2017-11-08T13:49:37Z</time>
      </trkpt>
      <trkpt lat="47.74192" lon="1.85525">
        <ele>117</ele>
        <time>2017-11-08T13:49:38Z</time>
      </trkpt>
      <trkpt lat="47.74188" lon="1.85527">
        <ele>117</ele>
        <time>2017-11-08T13:49:39Z</time>
      </trkpt>
      <trkpt lat="47.74183" lon="1.85528">
        <ele>117</ele>
        <time>2017-11-08T13:49:40Z</time>
      </trkpt>
      <trkpt lat="47.74179" lon="1.85529">
        <ele>117</ele>
        <time>2017-11-08T13:49:41Z</time>
      </trkpt>
      <trkpt lat="47.74175" lon="1.8553">
        <ele>117</ele>
        <time>2017-11-08T13:49:42Z</time>
      </trkpt>
      <trkpt lat="47.7417" lon="1.8553">
        <ele>117</ele>
        <time>2017-11-08T13:49:43Z</time>
      </trkpt>
      <trkpt lat="47.74166" lon="1.85531">
        <ele>117</ele>
        <time>2017-11-08T13:49:44Z</time>
      </trkpt>
      <trkpt lat="47.74161" lon="1.85531">
        <ele>117</ele>
        <time>2017-11-08T13:49:45Z</time>
      </trkpt>
      <trkpt lat="47.74156" lon="1.85532">
        <ele>117</ele>
        <time>2017-11-08T13:49:46Z</time>
      </trkpt>
      <trkpt lat="47.74153" lon="1.85532">
        <ele>116</ele>
        <time>2017-11-08T13:49:47Z</time>
      </trkpt>
      <trkpt lat="47.7415" lon="1.85532">
        <ele>116</ele>
        <time>2017-11-08T13:49:48Z</time>
      </trkpt>
      <trkpt lat="47.74146" lon="1.85532">
        <ele>116</ele>
        <time>2017-11-08T13:49:50Z</time>
      </trkpt>
      <trkpt lat="47.74143" lon="1.85532">
        <ele>116</ele>
        <time>2017-11-08T13:49:53Z</time>
      </trkpt>
      <trkpt lat="47.74139" lon="1.85536">
        <ele>116</ele>
        <time>2017-11-08T13:49:55Z</time>
      </trkpt>
      <trkpt lat="47.74137" lon="1.8554">
        <ele>116</ele>
        <time>2017-11-08T13:49:56Z</time>
      </trkpt>
      <trkpt lat="47.74135" lon="1.85544">
        <ele>116</ele>
        <time>2017-11-08T13:49:57Z</time>
      </trkpt>
      <trkpt lat="47.74134" lon="1.85548">
        <ele>116</ele>
        <time>2017-11-08T13:49:58Z</time>
      </trkpt>
      <trkpt lat="47.74131" lon="1.85553">
        <ele>116</ele>
        <time>2017-11-08T13:49:59Z</time>
      </trkpt>
      <trkpt lat="47.74128" lon="1.85559">
        <ele>116</ele>
        <time>2017-11-08T13:50:00Z</time>
      </trkpt>
      <trkpt lat="47.74126" lon="1.85564">
        <ele>116</ele>
        <time>2017-11-08T13:50:01Z</time>
      </trkpt>
      <trkpt lat="47.74124" lon="1.85569">
        <ele>116</ele>
        <time>2017-11-08T13:50:02Z</time>
      </trkpt>
      <trkpt lat="47.74121" lon="1.85575">
        <ele>116</ele>
        <time>2017-11-08T13:50:03Z</time>
      </trkpt>
      <trkpt lat="47.74119" lon="1.8558">
        <ele>116</ele>
        <time>2017-11-08T13:50:04Z</time>
      </trkpt>
      <trkpt lat="47.74117" lon="1.85585">
        <ele>116</ele>
        <time>2017-11-08T13:50:05Z</time>
      </trkpt>
      <trkpt lat="47.74114" lon="1.85591">
        <ele>116</ele>
        <time>2017-11-08T13:50:06Z</time>
      </trkpt>
      <trkpt lat="47.74112" lon="1.85597">
        <ele>116</ele>
        <time>2017-11-08T13:50:07Z</time>
      </trkpt>
      <trkpt lat="47.74109" lon="1.85603">
        <ele>116</ele>
        <time>2017-11-08T13:50:08Z</time>
      </trkpt>
      <trkpt lat="47.74107" lon="1.85609">
        <ele>116</ele>
        <time>2017-11-08T13:50:09Z</time>
      </trkpt>
      <trkpt lat="47.74104" lon="1.85615">
        <ele>116</ele>
        <time>2017-11-08T13:50:10Z</time>
      </trkpt>
      <trkpt lat="47.74101" lon="1.85621">
        <ele>116</ele>
        <time>2017-11-08T13:50:11Z</time>
      </trkpt>
      <trkpt lat="47.74099" lon="1.85627">
        <ele>116</ele>
        <time>2017-11-08T13:50:12Z</time>
      </trkpt>
      <trkpt lat="47.74096" lon="1.85633">
        <ele>116</ele>
        <time>2017-11-08T13:50:13Z</time>
      </trkpt>
      <trkpt lat="47.74094" lon="1.85639">
        <ele>116</ele>
        <time>2017-11-08T13:50:14Z</time>
      </trkpt>
      <trkpt lat="47.74091" lon="1.85645">
        <ele>116</ele>
        <time>2017-11-08T13:50:15Z</time>
      </trkpt>
      <trkpt lat="47.74088" lon="1.85652">
        <ele>116</ele>
        <time>2017-11-08T13:50:16Z</time>
      </trkpt>
      <trkpt lat="47.74086" lon="1.85659">
        <ele>116</ele>
        <time>2017-11-08T13:50:17Z</time>
      </trkpt>
      <trkpt lat="47.74083" lon="1.85666">
        <ele>116</ele>
        <time>2017-11-08T13:50:18Z</time>
      </trkpt>
      <trkpt lat="47.7408" lon="1.85672">
        <ele>116</ele>
        <time>2017-11-08T13:50:19Z</time>
      </trkpt>
      <trkpt lat="47.74077" lon="1.8568">
        <ele>115</ele>
        <time>2017-11-08T13:50:20Z</time>
      </trkpt>
      <trkpt lat="47.74074" lon="1.85687">
        <ele>115</ele>
        <time>2017-11-08T13:50:21Z</time>
      </trkpt>
      <trkpt lat="47.74071" lon="1.85695">
        <ele>115</ele>
        <time>2017-11-08T13:50:22Z</time>
      </trkpt>
      <trkpt lat="47.74067" lon="1.85702">
        <ele>114</ele>
        <time>2017-11-08T13:50:23Z</time>
      </trkpt>
      <trkpt lat="47.74065" lon="1.85709">
        <ele>114</ele>
        <time>2017-11-08T13:50:24Z</time>
      </trkpt>
      <trkpt lat="47.74062" lon="1.85717">
        <ele>114</ele>
        <time>2017-11-08T13:50:25Z</time>
      </trkpt>
      <trkpt lat="47.74059" lon="1.85724">
        <ele>114</ele>
        <time>2017-11-08T13:50:26Z</time>
      </trkpt>
      <trkpt lat="47.74056" lon="1.8573">
        <ele>114</ele>
        <time>2017-11-08T13:50:27Z</time>
      </trkpt>
      <trkpt lat="47.74053" lon="1.85737">
        <ele>114</ele>
        <time>2017-11-08T13:50:28Z</time>
      </trkpt>
      <trkpt lat="47.7405" lon="1.85744">
        <ele>114</ele>
        <time>2017-11-08T13:50:29Z</time>
      </trkpt>
      <trkpt lat="47.74047" lon="1.85752">
        <ele>113</ele>
        <time>2017-11-08T13:50:30Z</time>
      </trkpt>
      <trkpt lat="47.74043" lon="1.85759">
        <ele>113</ele>
        <time>2017-11-08T13:50:31Z</time>
      </trkpt>
      <trkpt lat="47.7404" lon="1.85766">
        <ele>113</ele>
        <time>2017-11-08T13:50:32Z</time>
      </trkpt>
      <trkpt lat="47.74037" lon="1.85774">
        <ele>113</ele>
        <time>2017-11-08T13:50:33Z</time>
      </trkpt>
      <trkpt lat="47.74034" lon="1.85783">
        <ele>113</ele>
        <time>2017-11-08T13:50:34Z</time>
      </trkpt>
      <trkpt lat="47.7403" lon="1.8579">
        <ele>113</ele>
        <time>2017-11-08T13:50:35Z</time>
      </trkpt>
      <trkpt lat="47.74027" lon="1.85798">
        <ele>113</ele>
        <time>2017-11-08T13:50:36Z</time>
      </trkpt>
      <trkpt lat="47.74023" lon="1.85807">
        <ele>113</ele>
        <time>2017-11-08T13:50:37Z</time>
      </trkpt>
      <trkpt lat="47.74019" lon="1.85816">
        <ele>113</ele>
        <time>2017-11-08T13:50:38Z</time>
      </trkpt>
      <trkpt lat="47.74016" lon="1.85825">
        <ele>113</ele>
        <time>2017-11-08T13:50:39Z</time>
      </trkpt>
      <trkpt lat="47.74012" lon="1.85834">
        <ele>113</ele>
        <time>2017-11-08T13:50:40Z</time>
      </trkpt>
      <trkpt lat="47.74008" lon="1.85844">
        <ele>113</ele>
        <time>2017-11-08T13:50:41Z</time>
      </trkpt>
      <trkpt lat="47.74004" lon="1.85853">
        <ele>113</ele>
        <time>2017-11-08T13:50:42Z</time>
      </trkpt>
      <trkpt lat="47.74001" lon="1.85862">
        <ele>113</ele>
        <time>2017-11-08T13:50:43Z</time>
      </trkpt>
      <trkpt lat="47.73997" lon="1.85871">
        <ele>114</ele>
        <time>2017-11-08T13:50:44Z</time>
      </trkpt>
      <trkpt lat="47.73993" lon="1.8588">
        <ele>114</ele>
        <time>2017-11-08T13:50:45Z</time>
      </trkpt>
      <trkpt lat="47.73989" lon="1.8589">
        <ele>114</ele>
        <time>2017-11-08T13:50:46Z</time>
      </trkpt>
      <trkpt lat="47.73985" lon="1.859">
        <ele>114</ele>
        <time>2017-11-08T13:50:47Z</time>
      </trkpt>
      <trkpt lat="47.73981" lon="1.8591">
        <ele>114</ele>
        <time>2017-11-08T13:50:48Z</time>
      </trkpt>
      <trkpt lat="47.73977" lon="1.8592">
        <ele>114</ele>
        <time>2017-11-08T13:50:49Z</time>
      </trkpt>
      <trkpt lat="47.73972" lon="1.8593">
        <ele>115</ele>
        <time>2017-11-08T13:50:50Z</time>
      </trkpt>
      <trkpt lat="47.73968" lon="1.8594">
        <ele>115</ele>
        <time>2017-11-08T13:50:51Z</time>
      </trkpt>
      <trkpt lat="47.73965" lon="1.8595">
        <ele>115</ele>
        <time>2017-11-08T13:50:52Z</time>
      </trkpt>
      <trkpt lat="47.73961" lon="1.8596">
        <ele>115</ele>
        <time>2017-11-08T13:50:53Z</time>
      </trkpt>
      <trkpt lat="47.73957" lon="1.85969">
        <ele>115</ele>
        <time>2017-11-08T13:50:54Z</time>
      </trkpt>
      <trkpt lat="47.73953" lon="1.85978">
        <ele>115</ele>
        <time>2017-11-08T13:50:55Z</time>
      </trkpt>
      <trkpt lat="47.7395" lon="1.85987">
        <ele>115</ele>
        <time>2017-11-08T13:50:56Z</time>
      </trkpt>
      <trkpt lat="47.73946" lon="1.85996">
        <ele>115</ele>
        <time>2017-11-08T13:50:57Z</time>
      </trkpt>
      <trkpt lat="47.73943" lon="1.86005">
        <ele>116</ele>
        <time>2017-11-08T13:50:58Z</time>
      </trkpt>
      <trkpt lat="47.7394" lon="1.86014">
        <ele>117</ele>
        <time>2017-11-08T13:50:59Z</time>
      </trkpt>
      <trkpt lat="47.73936" lon="1.86022">
        <ele>117</ele>
        <time>2017-11-08T13:51:00Z</time>
      </trkpt>
      <trkpt lat="47.73933" lon="1.8603">
        <ele>117</ele>
        <time>2017-11-08T13:51:01Z</time>
      </trkpt>
      <trkpt lat="47.7393" lon="1.86038">
        <ele>117</ele>
        <time>2017-11-08T13:51:02Z</time>
      </trkpt>
      <trkpt lat="47.73925" lon="1.86045">
        <ele>117</ele>
        <time>2017-11-08T13:51:03Z</time>
      </trkpt>
      <trkpt lat="47.73922" lon="1.86053">
        <ele>118</ele>
        <time>2017-11-08T13:51:04Z</time>
      </trkpt>
      <trkpt lat="47.73919" lon="1.86062">
        <ele>118</ele>
        <time>2017-11-08T13:51:05Z</time>
      </trkpt>
      <trkpt lat="47.73916" lon="1.86071">
        <ele>120</ele>
        <time>2017-11-08T13:51:06Z</time>
      </trkpt>
      <trkpt lat="47.73913" lon="1.8608">
        <ele>120</ele>
        <time>2017-11-08T13:51:07Z</time>
      </trkpt>
      <trkpt lat="47.7391" lon="1.86088">
        <ele>120</ele>
        <time>2017-11-08T13:51:08Z</time>
      </trkpt>
      <trkpt lat="47.73907" lon="1.86096">
        <ele>121</ele>
        <time>2017-11-08T13:51:09Z</time>
      </trkpt>
      <trkpt lat="47.73903" lon="1.86105">
        <ele>121</ele>
        <time>2017-11-08T13:51:10Z</time>
      </trkpt>
      <trkpt lat="47.73899" lon="1.86113">
        <ele>121</ele>
        <time>2017-11-08T13:51:11Z</time>
      </trkpt>
      <trkpt lat="47.73896" lon="1.86121">
        <ele>121</ele>
        <time>2017-11-08T13:51:12Z</time>
      </trkpt>
      <trkpt lat="47.73894" lon="1.8613">
        <ele>121</ele>
        <time>2017-11-08T13:51:13Z</time>
      </trkpt>
      <trkpt lat="47.73891" lon="1.86139">
        <ele>121</ele>
        <time>2017-11-08T13:51:14Z</time>
      </trkpt>
      <trkpt lat="47.73888" lon="1.86148">
        <ele>121</ele>
        <time>2017-11-08T13:51:15Z</time>
      </trkpt>
      <trkpt lat="47.73884" lon="1.86156">
        <ele>121</ele>
        <time>2017-11-08T13:51:16Z</time>
      </trkpt>
      <trkpt lat="47.7388" lon="1.86166">
        <ele>121</ele>
        <time>2017-11-08T13:51:17Z</time>
      </trkpt>
      <trkpt lat="47.73876" lon="1.86177">
        <ele>121</ele>
        <time>2017-11-08T13:51:18Z</time>
      </trkpt>
      <trkpt lat="47.73871" lon="1.86188">
        <ele>121</ele>
        <time>2017-11-08T13:51:19Z</time>
      </trkpt>
      <trkpt lat="47.73868" lon="1.86197">
        <ele>121</ele>
        <time>2017-11-08T13:51:20Z</time>
      </trkpt>
      <trkpt lat="47.73863" lon="1.86208">
        <ele>121</ele>
        <time>2017-11-08T13:51:21Z</time>
      </trkpt>
      <trkpt lat="47.73859" lon="1.86217">
        <ele>121</ele>
        <time>2017-11-08T13:51:22Z</time>
      </trkpt>
      <trkpt lat="47.73855" lon="1.86226">
        <ele>121</ele>
        <time>2017-11-08T13:51:23Z</time>
      </trkpt>
      <trkpt lat="47.73851" lon="1.86235">
        <ele>121</ele>
        <time>2017-11-08T13:51:24Z</time>
      </trkpt>
      <trkpt lat="47.73848" lon="1.86244">
        <ele>121</ele>
        <time>2017-11-08T13:51:25Z</time>
      </trkpt>
      <trkpt lat="47.73845" lon="1.86252">
        <ele>121</ele>
        <time>2017-11-08T13:51:26Z</time>
      </trkpt>
      <trkpt lat="47.73841" lon="1.8626">
        <ele>122</ele>
        <time>2017-11-08T13:51:27Z</time>
      </trkpt>
      <trkpt lat="47.73838" lon="1.86269">
        <ele>122</ele>
        <time>2017-11-08T13:51:28Z</time>
      </trkpt>
      <trkpt lat="47.73834" lon="1.86277">
        <ele>122</ele>
        <time>2017-11-08T13:51:29Z</time>
      </trkpt>
      <trkpt lat="47.73831" lon="1.86285">
        <ele>122</ele>
        <time>2017-11-08T13:51:30Z</time>
      </trkpt>
      <trkpt lat="47.73829" lon="1.86293">
        <ele>122</ele>
        <time>2017-11-08T13:51:31Z</time>
      </trkpt>
      <trkpt lat="47.73826" lon="1.863">
        <ele>122</ele>
        <time>2017-11-08T13:51:32Z</time>
      </trkpt>
      <trkpt lat="47.73822" lon="1.86308">
        <ele>123</ele>
        <time>2017-11-08T13:51:33Z</time>
      </trkpt>
      <trkpt lat="47.7382" lon="1.86315">
        <ele>123</ele>
        <time>2017-11-08T13:51:34Z</time>
      </trkpt>
      <trkpt lat="47.73817" lon="1.86322">
        <ele>123</ele>
        <time>2017-11-08T13:51:35Z</time>
      </trkpt>
      <trkpt lat="47.73813" lon="1.86329">
        <ele>123</ele>
        <time>2017-11-08T13:51:36Z</time>
      </trkpt>
      <trkpt lat="47.73811" lon="1.86337">
        <ele>123</ele>
        <time>2017-11-08T13:51:37Z</time>
      </trkpt>
      <trkpt lat="47.73807" lon="1.86345">
        <ele>123</ele>
        <time>2017-11-08T13:51:38Z</time>
      </trkpt>
      <trkpt lat="47.73804" lon="1.86353">
        <ele>123</ele>
        <time>2017-11-08T13:51:39Z</time>
      </trkpt>
      <trkpt lat="47.73801" lon="1.8636">
        <ele>123</ele>
        <time>2017-11-08T13:51:40Z</time>
      </trkpt>
      <trkpt lat="47.73798" lon="1.86367">
        <ele>123</ele>
        <time>2017-11-08T13:51:41Z</time>
      </trkpt>
      <trkpt lat="47.73796" lon="1.86373">
        <ele>123</ele>
        <time>2017-11-08T13:51:42Z</time>
      </trkpt>
      <trkpt lat="47.73794" lon="1.8638">
        <ele>123</ele>
        <time>2017-11-08T13:51:43Z</time>
      </trkpt>
      <trkpt lat="47.73791" lon="1.86388">
        <ele>123</ele>
        <time>2017-11-08T13:51:44Z</time>
      </trkpt>
      <trkpt lat="47.73788" lon="1.86395">
        <ele>123</ele>
        <time>2017-11-08T13:51:45Z</time>
      </trkpt>
      <trkpt lat="47.73785" lon="1.86402">
        <ele>123</ele>
        <time>2017-11-08T13:51:46Z</time>
      </trkpt>
      <trkpt lat="47.73783" lon="1.86408">
        <ele>123</ele>
        <time>2017-11-08T13:51:47Z</time>
      </trkpt>
      <trkpt lat="47.73779" lon="1.86414">
        <ele>123</ele>
        <time>2017-11-08T13:51:48Z</time>
      </trkpt>
      <trkpt lat="47.73777" lon="1.8642">
        <ele>121</ele>
        <time>2017-11-08T13:51:49Z</time>
      </trkpt>
      <trkpt lat="47.73776" lon="1.86426">
        <ele>121</ele>
        <time>2017-11-08T13:51:50Z</time>
      </trkpt>
      <trkpt lat="47.73773" lon="1.86431">
        <ele>121</ele>
        <time>2017-11-08T13:51:51Z</time>
      </trkpt>
      <trkpt lat="47.73772" lon="1.86436">
        <ele>121</ele>
        <time>2017-11-08T13:51:52Z</time>
      </trkpt>
      <trkpt lat="47.73769" lon="1.86442">
        <ele>121</ele>
        <time>2017-11-08T13:51:53Z</time>
      </trkpt>
      <trkpt lat="47.73766" lon="1.86449">
        <ele>121</ele>
        <time>2017-11-08T13:51:54Z</time>
      </trkpt>
      <trkpt lat="47.73763" lon="1.86455">
        <ele>121</ele>
        <time>2017-11-08T13:51:55Z</time>
      </trkpt>
      <trkpt lat="47.73761" lon="1.86461">
        <ele>121</ele>
        <time>2017-11-08T13:51:56Z</time>
      </trkpt>
      <trkpt lat="47.73759" lon="1.86467">
        <ele>121</ele>
        <time>2017-11-08T13:51:57Z</time>
      </trkpt>
      <trkpt lat="47.73756" lon="1.86473">
        <ele>120</ele>
        <time>2017-11-08T13:51:58Z</time>
      </trkpt>
      <trkpt lat="47.73753" lon="1.86479">
        <ele>120</ele>
        <time>2017-11-08T13:51:59Z</time>
      </trkpt>
      <trkpt lat="47.73751" lon="1.86485">
        <ele>120</ele>
        <time>2017-11-08T13:52:00Z</time>
      </trkpt>
      <trkpt lat="47.73748" lon="1.86491">
        <ele>120</ele>
        <time>2017-11-08T13:52:01Z</time>
      </trkpt>
      <trkpt lat="47.73746" lon="1.86497">
        <ele>119</ele>
        <time>2017-11-08T13:52:02Z</time>
      </trkpt>
      <trkpt lat="47.73744" lon="1.86502">
        <ele>119</ele>
        <time>2017-11-08T13:52:03Z</time>
      </trkpt>
      <trkpt lat="47.73742" lon="1.86508">
        <ele>119</ele>
        <time>2017-11-08T13:52:04Z</time>
      </trkpt>
      <trkpt lat="47.73739" lon="1.86514">
        <ele>119</ele>
        <time>2017-11-08T13:52:05Z</time>
      </trkpt>
      <trkpt lat="47.73737" lon="1.8652">
        <ele>119</ele>
        <time>2017-11-08T13:52:06Z</time>
      </trkpt>
      <trkpt lat="47.73734" lon="1.86525">
        <ele>119</ele>
        <time>2017-11-08T13:52:07Z</time>
      </trkpt>
      <trkpt lat="47.73732" lon="1.86532">
        <ele>119</ele>
        <time>2017-11-08T13:52:08Z</time>
      </trkpt>
      <trkpt lat="47.73729" lon="1.86538">
        <ele>118</ele>
        <time>2017-11-08T13:52:09Z</time>
      </trkpt>
      <trkpt lat="47.73727" lon="1.86544">
        <ele>118</ele>
        <time>2017-11-08T13:52:10Z</time>
      </trkpt>
      <trkpt lat="47.73724" lon="1.86551">
        <ele>118</ele>
        <time>2017-11-08T13:52:11Z</time>
      </trkpt>
      <trkpt lat="47.73722" lon="1.86557">
        <ele>118</ele>
        <time>2017-11-08T13:52:12Z</time>
      </trkpt>
      <trkpt lat="47.73719" lon="1.86564">
        <ele>118</ele>
        <time>2017-11-08T13:52:13Z</time>
      </trkpt>
      <trkpt lat="47.73716" lon="1.8657">
        <ele>118</ele>
        <time>2017-11-08T13:52:14Z</time>
      </trkpt>
      <trkpt lat="47.73713" lon="1.86576">
        <ele>118</ele>
        <time>2017-11-08T13:52:15Z</time>
      </trkpt>
      <trkpt lat="47.7371" lon="1.86583">
        <ele>118</ele>
        <time>2017-11-08T13:52:16Z</time>
      </trkpt>
      <trkpt lat="47.73708" lon="1.8659">
        <ele>117</ele>
        <time>2017-11-08T13:52:17Z</time>
      </trkpt>
      <trkpt lat="47.73705" lon="1.86595">
        <ele>117</ele>
        <time>2017-11-08T13:52:18Z</time>
      </trkpt>
      <trkpt lat="47.73702" lon="1.86601">
        <ele>117</ele>
        <time>2017-11-08T13:52:19Z</time>
      </trkpt>
      <trkpt lat="47.737" lon="1.86607">
        <ele>117</ele>
        <time>2017-11-08T13:52:20Z</time>
      </trkpt>
      <trkpt lat="47.73697" lon="1.86614">
        <ele>117</ele>
        <time>2017-11-08T13:52:21Z</time>
      </trkpt>
      <trkpt lat="47.73695" lon="1.8662">
        <ele>117</ele>
        <time>2017-11-08T13:52:22Z</time>
      </trkpt>
      <trkpt lat="47.73692" lon="1.86627">
        <ele>117</ele>
        <time>2017-11-08T13:52:23Z</time>
      </trkpt>
      <trkpt lat="47.73689" lon="1.86634">
        <ele>117</ele>
        <time>2017-11-08T13:52:24Z</time>
      </trkpt>
      <trkpt lat="47.73687" lon="1.86641">
        <ele>117</ele>
        <time>2017-11-08T13:52:25Z</time>
      </trkpt>
      <trkpt lat="47.73684" lon="1.86648">
        <ele>117</ele>
        <time>2017-11-08T13:52:26Z</time>
      </trkpt>
      <trkpt lat="47.7368" lon="1.86656">
        <ele>117</ele>
        <time>2017-11-08T13:52:27Z</time>
      </trkpt>
      <trkpt lat="47.73677" lon="1.86663">
        <ele>116</ele>
        <time>2017-11-08T13:52:28Z</time>
      </trkpt>
      <trkpt lat="47.73674" lon="1.8667">
        <ele>116</ele>
        <time>2017-11-08T13:52:29Z</time>
      </trkpt>
      <trkpt lat="47.7367" lon="1.86678">
        <ele>116</ele>
        <time>2017-11-08T13:52:30Z</time>
      </trkpt>
      <trkpt lat="47.73666" lon="1.86686">
        <ele>116</ele>
        <time>2017-11-08T13:52:31Z</time>
      </trkpt>
      <trkpt lat="47.73663" lon="1.86694">
        <ele>116</ele>
        <time>2017-11-08T13:52:32Z</time>
      </trkpt>
      <trkpt lat="47.73659" lon="1.86702">
        <ele>116</ele>
        <time>2017-11-08T13:52:33Z</time>
      </trkpt>
      <trkpt lat="47.73656" lon="1.8671">
        <ele>116</ele>
        <time>2017-11-08T13:52:34Z</time>
      </trkpt>
      <trkpt lat="47.73653" lon="1.86717">
        <ele>116</ele>
        <time>2017-11-08T13:52:35Z</time>
      </trkpt>
      <trkpt lat="47.7365" lon="1.86725">
        <ele>116</ele>
        <time>2017-11-08T13:52:36Z</time>
      </trkpt>
      <trkpt lat="47.73646" lon="1.86733">
        <ele>116</ele>
        <time>2017-11-08T13:52:37Z</time>
      </trkpt>
      <trkpt lat="47.73643" lon="1.86741">
        <ele>116</ele>
        <time>2017-11-08T13:52:38Z</time>
      </trkpt>
      <trkpt lat="47.73641" lon="1.8675">
        <ele>116</ele>
        <time>2017-11-08T13:52:39Z</time>
      </trkpt>
      <trkpt lat="47.73638" lon="1.86758">
        <ele>116</ele>
        <time>2017-11-08T13:52:40Z</time>
      </trkpt>
      <trkpt lat="47.73636" lon="1.86768">
        <ele>116</ele>
        <time>2017-11-08T13:52:41Z</time>
      </trkpt>
      <trkpt lat="47.73635" lon="1.86777">
        <ele>116</ele>
        <time>2017-11-08T13:52:42Z</time>
      </trkpt>
      <trkpt lat="47.73633" lon="1.86786">
        <ele>116</ele>
        <time>2017-11-08T13:52:43Z</time>
      </trkpt>
      <trkpt lat="47.73632" lon="1.86796">
        <ele>116</ele>
        <time>2017-11-08T13:52:44Z</time>
      </trkpt>
      <trkpt lat="47.73632" lon="1.86806">
        <ele>116</ele>
        <time>2017-11-08T13:52:45Z</time>
      </trkpt>
      <trkpt lat="47.73632" lon="1.86816">
        <ele>116</ele>
        <time>2017-11-08T13:52:46Z</time>
      </trkpt>
      <trkpt lat="47.73632" lon="1.86826">
        <ele>116</ele>
        <time>2017-11-08T13:52:47Z</time>
      </trkpt>
      <trkpt lat="47.73633" lon="1.86836">
        <ele>117</ele>
        <time>2017-11-08T13:52:48Z</time>
      </trkpt>
      <trkpt lat="47.73634" lon="1.86846">
        <ele>117</ele>
        <time>2017-11-08T13:52:49Z</time>
      </trkpt>
      <trkpt lat="47.73634" lon="1.86857">
        <ele>117</ele>
        <time>2017-11-08T13:52:50Z</time>
      </trkpt>
      <trkpt lat="47.73635" lon="1.86868">
        <ele>117</ele>
        <time>2017-11-08T13:52:51Z</time>
      </trkpt>
      <trkpt lat="47.73635" lon="1.86878">
        <ele>117</ele>
        <time>2017-11-08T13:52:52Z</time>
      </trkpt>
      <trkpt lat="47.73636" lon="1.86889">
        <ele>117</ele>
        <time>2017-11-08T13:52:53Z</time>
      </trkpt>
      <trkpt lat="47.73636" lon="1.869">
        <ele>117</ele>
        <time>2017-11-08T13:52:54Z</time>
      </trkpt>
      <trkpt lat="47.73637" lon="1.86911">
        <ele>117</ele>
        <time>2017-11-08T13:52:55Z</time>
      </trkpt>
      <trkpt lat="47.73637" lon="1.86922">
        <ele>116</ele>
        <time>2017-11-08T13:52:56Z</time>
      </trkpt>
      <trkpt lat="47.73637" lon="1.86933">
        <ele>116</ele>
        <time>2017-11-08T13:52:57Z</time>
      </trkpt>
      <trkpt lat="47.73638" lon="1.86944">
        <ele>116</ele>
        <time>2017-11-08T13:52:58Z</time>
      </trkpt>
      <trkpt lat="47.73638" lon="1.86955">
        <ele>116</ele>
        <time>2017-11-08T13:52:59Z</time>
      </trkpt>
      <trkpt lat="47.73639" lon="1.86966">
        <ele>116</ele>
        <time>2017-11-08T13:53:00Z</time>
      </trkpt>
      <trkpt lat="47.73639" lon="1.86977">
        <ele>116</ele>
        <time>2017-11-08T13:53:01Z</time>
      </trkpt>
      <trkpt lat="47.7364" lon="1.86988">
        <ele>115</ele>
        <time>2017-11-08T13:53:02Z</time>
      </trkpt>
      <trkpt lat="47.73641" lon="1.86999">
        <ele>115</ele>
        <time>2017-11-08T13:53:03Z</time>
      </trkpt>
      <trkpt lat="47.73642" lon="1.8701">
        <ele>115</ele>
        <time>2017-11-08T13:53:04Z</time>
      </trkpt>
      <trkpt lat="47.73643" lon="1.87021">
        <ele>115</ele>
        <time>2017-11-08T13:53:05Z</time>
      </trkpt>
      <trkpt lat="47.73644" lon="1.87033">
        <ele>115</ele>
        <time>2017-11-08T13:53:06Z</time>
      </trkpt>
      <trkpt lat="47.73644" lon="1.87045">
        <ele>114</ele>
        <time>2017-11-08T13:53:07Z</time>
      </trkpt>
      <trkpt lat="47.73646" lon="1.87056">
        <ele>114</ele>
        <time>2017-11-08T13:53:08Z</time>
      </trkpt>
      <trkpt lat="47.73648" lon="1.87067">
        <ele>114</ele>
        <time>2017-11-08T13:53:09Z</time>
      </trkpt>
      <trkpt lat="47.73649" lon="1.87079">
        <ele>114</ele>
        <time>2017-11-08T13:53:10Z</time>
      </trkpt>
      <trkpt lat="47.7365" lon="1.8709">
        <ele>114</ele>
        <time>2017-11-08T13:53:11Z</time>
      </trkpt>
      <trkpt lat="47.73651" lon="1.87101">
        <ele>114</ele>
        <time>2017-11-08T13:53:12Z</time>
      </trkpt>
      <trkpt lat="47.73652" lon="1.87113">
        <ele>114</ele>
        <time>2017-11-08T13:53:13Z</time>
      </trkpt>
      <trkpt lat="47.73653" lon="1.87124">
        <ele>114</ele>
        <time>2017-11-08T13:53:14Z</time>
      </trkpt>
      <trkpt lat="47.73653" lon="1.87136">
        <ele>114</ele>
        <time>2017-11-08T13:53:15Z</time>
      </trkpt>
      <trkpt lat="47.73654" lon="1.87148">
        <ele>114</ele>
        <time>2017-11-08T13:53:16Z</time>
      </trkpt>
      <trkpt lat="47.73655" lon="1.8716">
        <ele>114</ele>
        <time>2017-11-08T13:53:17Z</time>
      </trkpt>
      <trkpt lat="47.73656" lon="1.87171">
        <ele>114</ele>
        <time>2017-11-08T13:53:18Z</time>
      </trkpt>
      <trkpt lat="47.73656" lon="1.87183">
        <ele>114</ele>
        <time>2017-11-08T13:53:19Z</time>
      </trkpt>
      <trkpt lat="47.73657" lon="1.87195">
        <ele>114</ele>
        <time>2017-11-08T13:53:20Z</time>
      </trkpt>
      <trkpt lat="47.73658" lon="1.87206">
        <ele>114</ele>
        <time>2017-11-08T13:53:21Z</time>
      </trkpt>
      <trkpt lat="47.73659" lon="1.87218">
        <ele>114</ele>
        <time>2017-11-08T13:53:22Z</time>
      </trkpt>
      <trkpt lat="47.7366" lon="1.87229">
        <ele>114</ele>
        <time>2017-11-08T13:53:23Z</time>
      </trkpt>
      <trkpt lat="47.7366" lon="1.87241">
        <ele>114</ele>
        <time>2017-11-08T13:53:24Z</time>
      </trkpt>
      <trkpt lat="47.73661" lon="1.87252">
        <ele>114</ele>
        <time>2017-11-08T13:53:25Z</time>
      </trkpt>
      <trkpt lat="47.73662" lon="1.87264">
        <ele>114</ele>
        <time>2017-11-08T13:53:26Z</time>
      </trkpt>
      <trkpt lat="47.73662" lon="1.87275">
        <ele>114</ele>
        <time>2017-11-08T13:53:27Z</time>
      </trkpt>
      <trkpt lat="47.73663" lon="1.87285">
        <ele>114</ele>
        <time>2017-11-08T13:53:28Z</time>
      </trkpt>
      <trkpt lat="47.73664" lon="1.87295">
        <ele>114</ele>
        <time>2017-11-08T13:53:29Z</time>
      </trkpt>
      <trkpt lat="47.73665" lon="1.87306">
        <ele>114</ele>
        <time>2017-11-08T13:53:30Z</time>
      </trkpt>
      <trkpt lat="47.73665" lon="1.87316">
        <ele>115</ele>
        <time>2017-11-08T13:53:31Z</time>
      </trkpt>
      <trkpt lat="47.73664" lon="1.87328">
        <ele>115</ele>
        <time>2017-11-08T13:53:32Z</time>
      </trkpt>
      <trkpt lat="47.73664" lon="1.87339">
        <ele>115</ele>
        <time>2017-11-08T13:53:33Z</time>
      </trkpt>
      <trkpt lat="47.73665" lon="1.8735">
        <ele>116</ele>
        <time>2017-11-08T13:53:34Z</time>
      </trkpt>
      <trkpt lat="47.73666" lon="1.8736">
        <ele>116</ele>
        <time>2017-11-08T13:53:35Z</time>
      </trkpt>
      <trkpt lat="47.73667" lon="1.87369">
        <ele>116</ele>
        <time>2017-11-08T13:53:36Z</time>
      </trkpt>
      <trkpt lat="47.73668" lon="1.87379">
        <ele>116</ele>
        <time>2017-11-08T13:53:37Z</time>
      </trkpt>
      <trkpt lat="47.73668" lon="1.87388">
        <ele>116</ele>
        <time>2017-11-08T13:53:38Z</time>
      </trkpt>
      <trkpt lat="47.73669" lon="1.87397">
        <ele>117</ele>
        <time>2017-11-08T13:53:39Z</time>
      </trkpt>
      <trkpt lat="47.73669" lon="1.87407">
        <ele>117</ele>
        <time>2017-11-08T13:53:40Z</time>
      </trkpt>
      <trkpt lat="47.73669" lon="1.87416">
        <ele>118</ele>
        <time>2017-11-08T13:53:41Z</time>
      </trkpt>
      <trkpt lat="47.73671" lon="1.87425">
        <ele>118</ele>
        <time>2017-11-08T13:53:42Z</time>
      </trkpt>
      <trkpt lat="47.73671" lon="1.87434">
        <ele>118</ele>
        <time>2017-11-08T13:53:43Z</time>
      </trkpt>
      <trkpt lat="47.73671" lon="1.87442">
        <ele>118</ele>
        <time>2017-11-08T13:53:44Z</time>
      </trkpt>
      <trkpt lat="47.73671" lon="1.87452">
        <ele>118</ele>
        <time>2017-11-08T13:53:45Z</time>
      </trkpt>
      <trkpt lat="47.73671" lon="1.87462">
        <ele>118</ele>
        <time>2017-11-08T13:53:46Z</time>
      </trkpt>
      <trkpt lat="47.73671" lon="1.87471">
        <ele>118</ele>
        <time>2017-11-08T13:53:47Z</time>
      </trkpt>
      <trkpt lat="47.73671" lon="1.8748">
        <ele>119</ele>
        <time>2017-11-08T13:53:48Z</time>
      </trkpt>
      <trkpt lat="47.73671" lon="1.87489">
        <ele>119</ele>
        <time>2017-11-08T13:53:49Z</time>
      </trkpt>
      <trkpt lat="47.73672" lon="1.87498">
        <ele>119</ele>
        <time>2017-11-08T13:53:50Z</time>
      </trkpt>
      <trkpt lat="47.73672" lon="1.87505">
        <ele>119</ele>
        <time>2017-11-08T13:53:51Z</time>
      </trkpt>
      <trkpt lat="47.73672" lon="1.87512">
        <ele>119</ele>
        <time>2017-11-08T13:53:52Z</time>
      </trkpt>
      <trkpt lat="47.73672" lon="1.87519">
        <ele>119</ele>
        <time>2017-11-08T13:53:53Z</time>
      </trkpt>
      <trkpt lat="47.73672" lon="1.87525">
        <ele>119</ele>
        <time>2017-11-08T13:53:54Z</time>
      </trkpt>
      <trkpt lat="47.73673" lon="1.87532">
        <ele>118</ele>
        <time>2017-11-08T13:53:55Z</time>
      </trkpt>
      <trkpt lat="47.73674" lon="1.87539">
        <ele>118</ele>
        <time>2017-11-08T13:53:56Z</time>
      </trkpt>
      <trkpt lat="47.73674" lon="1.87546">
        <ele>118</ele>
        <time>2017-11-08T13:53:57Z</time>
      </trkpt>
      <trkpt lat="47.73675" lon="1.87552">
        <ele>118</ele>
        <time>2017-11-08T13:53:58Z</time>
      </trkpt>
      <trkpt lat="47.73676" lon="1.87559">
        <ele>118</ele>
        <time>2017-11-08T13:53:59Z</time>
      </trkpt>
      <trkpt lat="47.73677" lon="1.87566">
        <ele>118</ele>
        <time>2017-11-08T13:54:00Z</time>
      </trkpt>
      <trkpt lat="47.73678" lon="1.87573">
        <ele>118</ele>
        <time>2017-11-08T13:54:01Z</time>
      </trkpt>
      <trkpt lat="47.73679" lon="1.8758">
        <ele>119</ele>
        <time>2017-11-08T13:54:02Z</time>
      </trkpt>
      <trkpt lat="47.73679" lon="1.87587">
        <ele>119</ele>
        <time>2017-11-08T13:54:03Z</time>
      </trkpt>
      <trkpt lat="47.7368" lon="1.87594">
        <ele>119</ele>
        <time>2017-11-08T13:54:04Z</time>
      </trkpt>
      <trkpt lat="47.7368" lon="1.87601">
        <ele>119</ele>
        <time>2017-11-08T13:54:05Z</time>
      </trkpt>
      <trkpt lat="47.7368" lon="1.87608">
        <ele>119</ele>
        <time>2017-11-08T13:54:06Z</time>
      </trkpt>
      <trkpt lat="47.73681" lon="1.87615">
        <ele>119</ele>
        <time>2017-11-08T13:54:07Z</time>
      </trkpt>
      <trkpt lat="47.73682" lon="1.87621">
        <ele>119</ele>
        <time>2017-11-08T13:54:08Z</time>
      </trkpt>
      <trkpt lat="47.73682" lon="1.87628">
        <ele>119</ele>
        <time>2017-11-08T13:54:09Z</time>
      </trkpt>
      <trkpt lat="47.73682" lon="1.87634">
        <ele>119</ele>
        <time>2017-11-08T13:54:10Z</time>
      </trkpt>
      <trkpt lat="47.73682" lon="1.87641">
        <ele>119</ele>
        <time>2017-11-08T13:54:11Z</time>
      </trkpt>
      <trkpt lat="47.73683" lon="1.87647">
        <ele>119</ele>
        <time>2017-11-08T13:54:12Z</time>
      </trkpt>
      <trkpt lat="47.73684" lon="1.87653">
        <ele>119</ele>
        <time>2017-11-08T13:54:13Z</time>
      </trkpt>
      <trkpt lat="47.73685" lon="1.8766">
        <ele>119</ele>
        <time>2017-11-08T13:54:14Z</time>
      </trkpt>
      <trkpt lat="47.73686" lon="1.87666">
        <ele>119</ele>
        <time>2017-11-08T13:54:15Z</time>
      </trkpt>
      <trkpt lat="47.73686" lon="1.87673">
        <ele>119</ele>
        <time>2017-11-08T13:54:16Z</time>
      </trkpt>
      <trkpt lat="47.73687" lon="1.8768">
        <ele>119</ele>
        <time>2017-11-08T13:54:17Z</time>
      </trkpt>
      <trkpt lat="47.73687" lon="1.87687">
        <ele>119</ele>
        <time>2017-11-08T13:54:18Z</time>
      </trkpt>
      <trkpt lat="47.73688" lon="1.87694">
        <ele>119</ele>
        <time>2017-11-08T13:54:19Z</time>
      </trkpt>
      <trkpt lat="47.73688" lon="1.87701">
        <ele>119</ele>
        <time>2017-11-08T13:54:20Z</time>
      </trkpt>
      <trkpt lat="47.73688" lon="1.87708">
        <ele>119</ele>
        <time>2017-11-08T13:54:21Z</time>
      </trkpt>
      <trkpt lat="47.73689" lon="1.87715">
        <ele>119</ele>
        <time>2017-11-08T13:54:22Z</time>
      </trkpt>
      <trkpt lat="47.7369" lon="1.87722">
        <ele>119</ele>
        <time>2017-11-08T13:54:23Z</time>
      </trkpt>
      <trkpt lat="47.7369" lon="1.8773">
        <ele>119</ele>
        <time>2017-11-08T13:54:24Z</time>
      </trkpt>
      <trkpt lat="47.73691" lon="1.87737">
        <ele>119</ele>
        <time>2017-11-08T13:54:25Z</time>
      </trkpt>
      <trkpt lat="47.73691" lon="1.87744">
        <ele>119</ele>
        <time>2017-11-08T13:54:26Z</time>
      </trkpt>
      <trkpt lat="47.73692" lon="1.87751">
        <ele>118</ele>
        <time>2017-11-08T13:54:27Z</time>
      </trkpt>
      <trkpt lat="47.73692" lon="1.87759">
        <ele>118</ele>
        <time>2017-11-08T13:54:28Z</time>
      </trkpt>
      <trkpt lat="47.73693" lon="1.87766">
        <ele>118</ele>
        <time>2017-11-08T13:54:29Z</time>
      </trkpt>
      <trkpt lat="47.73693" lon="1.87773">
        <ele>118</ele>
        <time>2017-11-08T13:54:30Z</time>
      </trkpt>
      <trkpt lat="47.73693" lon="1.8778">
        <ele>118</ele>
        <time>2017-11-08T13:54:31Z</time>
      </trkpt>
      <trkpt lat="47.73693" lon="1.87787">
        <ele>118</ele>
        <time>2017-11-08T13:54:32Z</time>
      </trkpt>
      <trkpt lat="47.73694" lon="1.87794">
        <ele>118</ele>
        <time>2017-11-08T13:54:33Z</time>
      </trkpt>
      <trkpt lat="47.73694" lon="1.87801">
        <ele>118</ele>
        <time>2017-11-08T13:54:34Z</time>
      </trkpt>
      <trkpt lat="47.73695" lon="1.87808">
        <ele>118</ele>
        <time>2017-11-08T13:54:35Z</time>
      </trkpt>
      <trkpt lat="47.73695" lon="1.87815">
        <ele>118</ele>
        <time>2017-11-08T13:54:36Z</time>
      </trkpt>
      <trkpt lat="47.73696" lon="1.87822">
        <ele>118</ele>
        <time>2017-11-08T13:54:37Z</time>
      </trkpt>
      <trkpt lat="47.73696" lon="1.87829">
        <ele>118</ele>
        <time>2017-11-08T13:54:38Z</time>
      </trkpt>
      <trkpt lat="47.73696" lon="1.87837">
        <ele>118</ele>
        <time>2017-11-08T13:54:39Z</time>
      </trkpt>
      <trkpt lat="47.73696" lon="1.87844">
        <ele>118</ele>
        <time>2017-11-08T13:54:40Z</time>
      </trkpt>
      <trkpt lat="47.73697" lon="1.87851">
        <ele>118</ele>
        <time>2017-11-08T13:54:41Z</time>
      </trkpt>
      <trkpt lat="47.73697" lon="1.87859">
        <ele>118</ele>
        <time>2017-11-08T13:54:42Z</time>
      </trkpt>
      <trkpt lat="47.73698" lon="1.87866">
        <ele>118</ele>
        <time>2017-11-08T13:54:43Z</time>
      </trkpt>
      <trkpt lat="47.73699" lon="1.87874">
        <ele>118</ele>
        <time>2017-11-08T13:54:44Z</time>
      </trkpt>
      <trkpt lat="47.73699" lon="1.87883">
        <ele>118</ele>
        <time>2017-11-08T13:54:45Z</time>
      </trkpt>
      <trkpt lat="47.737" lon="1.87891">
        <ele>118</ele>
        <time>2017-11-08T13:54:46Z</time>
      </trkpt>
      <trkpt lat="47.73701" lon="1.879">
        <ele>118</ele>
        <time>2017-11-08T13:54:47Z</time>
      </trkpt>
      <trkpt lat="47.73702" lon="1.87908">
        <ele>118</ele>
        <time>2017-11-08T13:54:48Z</time>
      </trkpt>
      <trkpt lat="47.73702" lon="1.87916">
        <ele>118</ele>
        <time>2017-11-08T13:54:49Z</time>
      </trkpt>
      <trkpt lat="47.73703" lon="1.87924">
        <ele>118</ele>
        <time>2017-11-08T13:54:50Z</time>
      </trkpt>
      <trkpt lat="47.73703" lon="1.87932">
        <ele>119</ele>
        <time>2017-11-08T13:54:51Z</time>
      </trkpt>
      <trkpt lat="47.73703" lon="1.8794">
        <ele>119</ele>
        <time>2017-11-08T13:54:52Z</time>
      </trkpt>
      <trkpt lat="47.73704" lon="1.87947">
        <ele>119</ele>
        <time>2017-11-08T13:54:53Z</time>
      </trkpt>
      <trkpt lat="47.73705" lon="1.87954">
        <ele>119</ele>
        <time>2017-11-08T13:54:54Z</time>
      </trkpt>
      <trkpt lat="47.73705" lon="1.87962">
        <ele>119</ele>
        <time>2017-11-08T13:54:55Z</time>
      </trkpt>
      <trkpt lat="47.73706" lon="1.87969">
        <ele>119</ele>
        <time>2017-11-08T13:54:56Z</time>
      </trkpt>
      <trkpt lat="47.73706" lon="1.87977">
        <ele>119</ele>
        <time>2017-11-08T13:54:57Z</time>
      </trkpt>
      <trkpt lat="47.73706" lon="1.87984">
        <ele>119</ele>
        <time>2017-11-08T13:54:58Z</time>
      </trkpt>
      <trkpt lat="47.73707" lon="1.87992">
        <ele>119</ele>
        <time>2017-11-08T13:54:59Z</time>
      </trkpt>
      <trkpt lat="47.73708" lon="1.88">
        <ele>119</ele>
        <time>2017-11-08T13:55:00Z</time>
      </trkpt>
      <trkpt lat="47.73708" lon="1.88008">
        <ele>119</ele>
        <time>2017-11-08T13:55:01Z</time>
      </trkpt>
      <trkpt lat="47.73709" lon="1.88016">
        <ele>119</ele>
        <time>2017-11-08T13:55:02Z</time>
      </trkpt>
      <trkpt lat="47.7371" lon="1.88024">
        <ele>119</ele>
        <time>2017-11-08T13:55:03Z</time>
      </trkpt>
      <trkpt lat="47.7371" lon="1.88033">
        <ele>119</ele>
        <time>2017-11-08T13:55:04Z</time>
      </trkpt>
      <trkpt lat="47.73711" lon="1.88041">
        <ele>119</ele>
        <time>2017-11-08T13:55:05Z</time>
      </trkpt>
      <trkpt lat="47.73711" lon="1.8805">
        <ele>119</ele>
        <time>2017-11-08T13:55:06Z</time>
      </trkpt>
      <trkpt lat="47.73712" lon="1.88058">
        <ele>119</ele>
        <time>2017-11-08T13:55:07Z</time>
      </trkpt>
      <trkpt lat="47.73713" lon="1.88067">
        <ele>119</ele>
        <time>2017-11-08T13:55:08Z</time>
      </trkpt>
      <trkpt lat="47.73713" lon="1.88075">
        <ele>119</ele>
        <time>2017-11-08T13:55:09Z</time>
      </trkpt>
      <trkpt lat="47.73714" lon="1.88084">
        <ele>119</ele>
        <time>2017-11-08T13:55:10Z</time>
      </trkpt>
      <trkpt lat="47.73715" lon="1.88093">
        <ele>119</ele>
        <time>2017-11-08T13:55:11Z</time>
      </trkpt>
      <trkpt lat="47.73715" lon="1.88101">
        <ele>119</ele>
        <time>2017-11-08T13:55:12Z</time>
      </trkpt>
      <trkpt lat="47.73715" lon="1.88109">
        <ele>119</ele>
        <time>2017-11-08T13:55:13Z</time>
      </trkpt>
      <trkpt lat="47.73715" lon="1.88117">
        <ele>119</ele>
        <time>2017-11-08T13:55:14Z</time>
      </trkpt>
      <trkpt lat="47.73715" lon="1.88124">
        <ele>119</ele>
        <time>2017-11-08T13:55:15Z</time>
      </trkpt>
      <trkpt lat="47.73716" lon="1.88132">
        <ele>118</ele>
        <time>2017-11-08T13:55:16Z</time>
      </trkpt>
      <trkpt lat="47.73717" lon="1.8814">
        <ele>118</ele>
        <time>2017-11-08T13:55:17Z</time>
      </trkpt>
      <trkpt lat="47.73718" lon="1.88147">
        <ele>118</ele>
        <time>2017-11-08T13:55:18Z</time>
      </trkpt>
      <trkpt lat="47.73718" lon="1.88156">
        <ele>118</ele>
        <time>2017-11-08T13:55:19Z</time>
      </trkpt>
      <trkpt lat="47.73719" lon="1.88164">
        <ele>118</ele>
        <time>2017-11-08T13:55:20Z</time>
      </trkpt>
      <trkpt lat="47.73719" lon="1.88172">
        <ele>118</ele>
        <time>2017-11-08T13:55:21Z</time>
      </trkpt>
      <trkpt lat="47.7372" lon="1.88182">
        <ele>119</ele>
        <time>2017-11-08T13:55:22Z</time>
      </trkpt>
      <trkpt lat="47.7372" lon="1.88192">
        <ele>119</ele>
        <time>2017-11-08T13:55:23Z</time>
      </trkpt>
      <trkpt lat="47.73721" lon="1.882">
        <ele>119</ele>
        <time>2017-11-08T13:55:24Z</time>
      </trkpt>
      <trkpt lat="47.73721" lon="1.88211">
        <ele>119</ele>
        <time>2017-11-08T13:55:25Z</time>
      </trkpt>
      <trkpt lat="47.73722" lon="1.8822">
        <ele>119</ele>
        <time>2017-11-08T13:55:26Z</time>
      </trkpt>
      <trkpt lat="47.73723" lon="1.88229">
        <ele>119</ele>
        <time>2017-11-08T13:55:27Z</time>
      </trkpt>
      <trkpt lat="47.73724" lon="1.88238">
        <ele>119</ele>
        <time>2017-11-08T13:55:28Z</time>
      </trkpt>
      <trkpt lat="47.73724" lon="1.88247">
        <ele>119</ele>
        <time>2017-11-08T13:55:29Z</time>
      </trkpt>
      <trkpt lat="47.73725" lon="1.88256">
        <ele>120</ele>
        <time>2017-11-08T13:55:30Z</time>
      </trkpt>
      <trkpt lat="47.73725" lon="1.88264">
        <ele>120</ele>
        <time>2017-11-08T13:55:31Z</time>
      </trkpt>
      <trkpt lat="47.73726" lon="1.88272">
        <ele>120</ele>
        <time>2017-11-08T13:55:32Z</time>
      </trkpt>
      <trkpt lat="47.73727" lon="1.88281">
        <ele>120</ele>
        <time>2017-11-08T13:55:33Z</time>
      </trkpt>
      <trkpt lat="47.73727" lon="1.88289">
        <ele>120</ele>
        <time>2017-11-08T13:55:34Z</time>
      </trkpt>
      <trkpt lat="47.73727" lon="1.88297">
        <ele>120</ele>
        <time>2017-11-08T13:55:35Z</time>
      </trkpt>
      <trkpt lat="47.73728" lon="1.88304">
        <ele>120</ele>
        <time>2017-11-08T13:55:36Z</time>
      </trkpt>
      <trkpt lat="47.73728" lon="1.88312">
        <ele>120</ele>
        <time>2017-11-08T13:55:37Z</time>
      </trkpt>
      <trkpt lat="47.73729" lon="1.88319">
        <ele>120</ele>
        <time>2017-11-08T13:55:38Z</time>
      </trkpt>
      <trkpt lat="47.73729" lon="1.88327">
        <ele>120</ele>
        <time>2017-11-08T13:55:39Z</time>
      </trkpt>
      <trkpt lat="47.7373" lon="1.88333">
        <ele>120</ele>
        <time>2017-11-08T13:55:40Z</time>
      </trkpt>
      <trkpt lat="47.7373" lon="1.8834">
        <ele>120</ele>
        <time>2017-11-08T13:55:41Z</time>
      </trkpt>
      <trkpt lat="47.73732" lon="1.88345">
        <ele>120</ele>
        <time>2017-11-08T13:55:42Z</time>
      </trkpt>
      <trkpt lat="47.73735" lon="1.88348">
        <ele>120</ele>
        <time>2017-11-08T13:55:43Z</time>
      </trkpt>
      <trkpt lat="47.73738" lon="1.88351">
        <ele>120</ele>
        <time>2017-11-08T13:55:44Z</time>
      </trkpt>
      <trkpt lat="47.73741" lon="1.88355">
        <ele>120</ele>
        <time>2017-11-08T13:55:45Z</time>
      </trkpt>
      <trkpt lat="47.73743" lon="1.88358">
        <ele>120</ele>
        <time>2017-11-08T13:55:46Z</time>
      </trkpt>
      <trkpt lat="47.73745" lon="1.88361">
        <ele>120</ele>
        <time>2017-11-08T13:55:47Z</time>
      </trkpt>
      <trkpt lat="47.73747" lon="1.88364">
        <ele>120</ele>
        <time>2017-11-08T13:55:48Z</time>
      </trkpt>
      <trkpt lat="47.73749" lon="1.88368">
        <ele>120</ele>
        <time>2017-11-08T13:55:49Z</time>
      </trkpt>
      <trkpt lat="47.73752" lon="1.88371">
        <ele>120</ele>
        <time>2017-11-08T13:55:50Z</time>
      </trkpt>
      <trkpt lat="47.73754" lon="1.88374">
        <ele>120</ele>
        <time>2017-11-08T13:55:51Z</time>
      </trkpt>
      <trkpt lat="47.73756" lon="1.88378">
        <ele>120</ele>
        <time>2017-11-08T13:55:52Z</time>
      </trkpt>
      <trkpt lat="47.73758" lon="1.88381">
        <ele>120</ele>
        <time>2017-11-08T13:55:53Z</time>
      </trkpt>
      <trkpt lat="47.73761" lon="1.88386">
        <ele>120</ele>
        <time>2017-11-08T13:55:55Z</time>
      </trkpt>
      <trkpt lat="47.73764" lon="1.8839">
        <ele>120</ele>
        <time>2017-11-08T13:55:57Z</time>
      </trkpt>
      <trkpt lat="47.73767" lon="1.88392">
        <ele>120</ele>
        <time>2017-11-08T13:56:01Z</time>
      </trkpt>
      <trkpt lat="47.7377" lon="1.88395">
        <ele>120</ele>
        <time>2017-11-08T13:56:04Z</time>
      </trkpt>
      <trkpt lat="47.73774" lon="1.88397">
        <ele>120</ele>
        <time>2017-11-08T13:56:07Z</time>
      </trkpt>
      <trkpt lat="47.73776" lon="1.884">
        <ele>120</ele>
        <time>2017-11-08T13:56:09Z</time>
      </trkpt>
      <trkpt lat="47.73777" lon="1.88405">
        <ele>120</ele>
        <time>2017-11-08T13:56:11Z</time>
      </trkpt>
      <trkpt lat="47.73781" lon="1.88409">
        <ele>120</ele>
        <time>2017-11-08T13:56:13Z</time>
      </trkpt>
      <trkpt lat="47.73784" lon="1.88412">
        <ele>120</ele>
        <time>2017-11-08T13:56:14Z</time>
      </trkpt>
      <trkpt lat="47.73786" lon="1.88414">
        <ele>120</ele>
        <time>2017-11-08T13:56:15Z</time>
      </trkpt>
      <trkpt lat="47.73789" lon="1.88417">
        <ele>120</ele>
        <time>2017-11-08T13:56:16Z</time>
      </trkpt>
      <trkpt lat="47.73791" lon="1.8842">
        <ele>120</ele>
        <time>2017-11-08T13:56:17Z</time>
      </trkpt>
      <trkpt lat="47.73793" lon="1.88424">
        <ele>120</ele>
        <time>2017-11-08T13:56:18Z</time>
      </trkpt>
      <trkpt lat="47.73794" lon="1.88431">
        <ele>120</ele>
        <time>2017-11-08T13:56:20Z</time>
      </trkpt>
      <trkpt lat="47.73796" lon="1.88436">
        <ele>120</ele>
        <time>2017-11-08T13:56:22Z</time>
      </trkpt>
      <trkpt lat="47.73798" lon="1.88443">
        <ele>120</ele>
        <time>2017-11-08T13:56:24Z</time>
      </trkpt>
      <trkpt lat="47.73799" lon="1.88449">
        <ele>120</ele>
        <time>2017-11-08T13:56:25Z</time>
      </trkpt>
      <trkpt lat="47.73802" lon="1.88453">
        <ele>120</ele>
        <time>2017-11-08T13:56:26Z</time>
      </trkpt>
      <trkpt lat="47.73804" lon="1.88458">
        <ele>120</ele>
        <time>2017-11-08T13:56:27Z</time>
      </trkpt>
      <trkpt lat="47.73806" lon="1.88462">
        <ele>120</ele>
        <time>2017-11-08T13:56:28Z</time>
      </trkpt>
      <trkpt lat="47.73808" lon="1.88466">
        <ele>120</ele>
        <time>2017-11-08T13:56:29Z</time>
      </trkpt>
      <trkpt lat="47.7381" lon="1.8847">
        <ele>120</ele>
        <time>2017-11-08T13:56:30Z</time>
      </trkpt>
      <trkpt lat="47.73813" lon="1.88475">
        <ele>120</ele>
        <time>2017-11-08T13:56:31Z</time>
      </trkpt>
      <trkpt lat="47.73816" lon="1.88481">
        <ele>120</ele>
        <time>2017-11-08T13:56:33Z</time>
      </trkpt>
      <trkpt lat="47.73818" lon="1.88485">
        <ele>120</ele>
        <time>2017-11-08T13:56:34Z</time>
      </trkpt>
      <trkpt lat="47.7382" lon="1.88489">
        <ele>120</ele>
        <time>2017-11-08T13:56:35Z</time>
      </trkpt>
      <trkpt lat="47.73823" lon="1.88493">
        <ele>120</ele>
        <time>2017-11-08T13:56:36Z</time>
      </trkpt>
      <trkpt lat="47.73826" lon="1.88498">
        <ele>120</ele>
        <time>2017-11-08T13:56:37Z</time>
      </trkpt>
      <trkpt lat="47.7383" lon="1.88502">
        <ele>120</ele>
        <time>2017-11-08T13:56:38Z</time>
      </trkpt>
      <trkpt lat="47.73833" lon="1.88506">
        <ele>120</ele>
        <time>2017-11-08T13:56:39Z</time>
      </trkpt>
      <trkpt lat="47.73836" lon="1.8851">
        <ele>120</ele>
        <time>2017-11-08T13:56:40Z</time>
      </trkpt>
      <trkpt lat="47.73839" lon="1.88514">
        <ele>120</ele>
        <time>2017-11-08T13:56:41Z</time>
      </trkpt>
      <trkpt lat="47.73844" lon="1.88518">
        <ele>120</ele>
        <time>2017-11-08T13:56:42Z</time>
      </trkpt>
      <trkpt lat="47.7385" lon="1.88521">
        <ele>120</ele>
        <time>2017-11-08T13:56:43Z</time>
      </trkpt>
      <trkpt lat="47.73855" lon="1.88525">
        <ele>120</ele>
        <time>2017-11-08T13:56:44Z</time>
      </trkpt>
      <trkpt lat="47.73859" lon="1.88528">
        <ele>120</ele>
        <time>2017-11-08T13:56:45Z</time>
      </trkpt>
      <trkpt lat="47.73864" lon="1.88532">
        <ele>120</ele>
        <time>2017-11-08T13:56:46Z</time>
      </trkpt>
      <trkpt lat="47.73869" lon="1.88535">
        <ele>120</ele>
        <time>2017-11-08T13:56:47Z</time>
      </trkpt>
      <trkpt lat="47.73875" lon="1.88539">
        <ele>121</ele>
        <time>2017-11-08T13:56:48Z</time>
      </trkpt>
      <trkpt lat="47.73879" lon="1.88543">
        <ele>121</ele>
        <time>2017-11-08T13:56:49Z</time>
      </trkpt>
      <trkpt lat="47.73883" lon="1.88546">
        <ele>121</ele>
        <time>2017-11-08T13:56:50Z</time>
      </trkpt>
      <trkpt lat="47.73887" lon="1.88549">
        <ele>121</ele>
        <time>2017-11-08T13:56:51Z</time>
      </trkpt>
      <trkpt lat="47.7389" lon="1.88552">
        <ele>120</ele>
        <time>2017-11-08T13:56:52Z</time>
      </trkpt>
      <trkpt lat="47.73892" lon="1.88555">
        <ele>120</ele>
        <time>2017-11-08T13:56:53Z</time>
      </trkpt>
      <trkpt lat="47.73895" lon="1.88559">
        <ele>120</ele>
        <time>2017-11-08T13:56:54Z</time>
      </trkpt>
      <trkpt lat="47.73898" lon="1.88562">
        <ele>120</ele>
        <time>2017-11-08T13:56:55Z</time>
      </trkpt>
      <trkpt lat="47.73902" lon="1.88565">
        <ele>120</ele>
        <time>2017-11-08T13:56:56Z</time>
      </trkpt>
      <trkpt lat="47.73905" lon="1.88568">
        <ele>120</ele>
        <time>2017-11-08T13:56:57Z</time>
      </trkpt>
      <trkpt lat="47.73909" lon="1.8857">
        <ele>120</ele>
        <time>2017-11-08T13:56:58Z</time>
      </trkpt>
      <trkpt lat="47.73913" lon="1.88573">
        <ele>120</ele>
        <time>2017-11-08T13:56:59Z</time>
      </trkpt>
      <trkpt lat="47.73917" lon="1.88576">
        <ele>121</ele>
        <time>2017-11-08T13:57:00Z</time>
      </trkpt>
      <trkpt lat="47.7392" lon="1.88578">
        <ele>120</ele>
        <time>2017-11-08T13:57:01Z</time>
      </trkpt>
      <trkpt lat="47.73926" lon="1.88581">
        <ele>121</ele>
        <time>2017-11-08T13:57:02Z</time>
      </trkpt>
      <trkpt lat="47.73931" lon="1.88584">
        <ele>120</ele>
        <time>2017-11-08T13:57:03Z</time>
      </trkpt>
      <trkpt lat="47.73935" lon="1.88586">
        <ele>120</ele>
        <time>2017-11-08T13:57:04Z</time>
      </trkpt>
      <trkpt lat="47.73939" lon="1.88588">
        <ele>120</ele>
        <time>2017-11-08T13:57:05Z</time>
      </trkpt>
      <trkpt lat="47.73943" lon="1.8859">
        <ele>120</ele>
        <time>2017-11-08T13:57:06Z</time>
      </trkpt>
      <trkpt lat="47.73946" lon="1.88593">
        <ele>120</ele>
        <time>2017-11-08T13:57:07Z</time>
      </trkpt>
      <trkpt lat="47.7395" lon="1.88595">
        <ele>121</ele>
        <time>2017-11-08T13:57:08Z</time>
      </trkpt>
      <trkpt lat="47.73954" lon="1.88597">
        <ele>121</ele>
        <time>2017-11-08T13:57:09Z</time>
      </trkpt>
      <trkpt lat="47.73958" lon="1.88599">
        <ele>121</ele>
        <time>2017-11-08T13:57:10Z</time>
      </trkpt>
      <trkpt lat="47.73962" lon="1.88601">
        <ele>121</ele>
        <time>2017-11-08T13:57:11Z</time>
      </trkpt>
      <trkpt lat="47.73967" lon="1.88603">
        <ele>121</ele>
        <time>2017-11-08T13:57:12Z</time>
      </trkpt>
      <trkpt lat="47.73971" lon="1.88604">
        <ele>121</ele>
        <time>2017-11-08T13:57:13Z</time>
      </trkpt>
      <trkpt lat="47.73975" lon="1.88606">
        <ele>121</ele>
        <time>2017-11-08T13:57:14Z</time>
      </trkpt>
      <trkpt lat="47.7398" lon="1.88608">
        <ele>121</ele>
        <time>2017-11-08T13:57:15Z</time>
      </trkpt>
      <trkpt lat="47.73984" lon="1.8861">
        <ele>121</ele>
        <time>2017-11-08T13:57:16Z</time>
      </trkpt>
      <trkpt lat="47.73988" lon="1.88611">
        <ele>121</ele>
        <time>2017-11-08T13:57:17Z</time>
      </trkpt>
      <trkpt lat="47.73993" lon="1.88613">
        <ele>121</ele>
        <time>2017-11-08T13:57:18Z</time>
      </trkpt>
      <trkpt lat="47.73997" lon="1.88614">
        <ele>121</ele>
        <time>2017-11-08T13:57:19Z</time>
      </trkpt>
      <trkpt lat="47.74002" lon="1.88615">
        <ele>121</ele>
        <time>2017-11-08T13:57:20Z</time>
      </trkpt>
      <trkpt lat="47.74007" lon="1.88616">
        <ele>121</ele>
        <time>2017-11-08T13:57:21Z</time>
      </trkpt>
      <trkpt lat="47.74011" lon="1.88617">
        <ele>121</ele>
        <time>2017-11-08T13:57:22Z</time>
      </trkpt>
      <trkpt lat="47.74014" lon="1.88618">
        <ele>121</ele>
        <time>2017-11-08T13:57:23Z</time>
      </trkpt>
      <trkpt lat="47.74018" lon="1.88619">
        <ele>121</ele>
        <time>2017-11-08T13:57:24Z</time>
      </trkpt>
      <trkpt lat="47.74022" lon="1.88621">
        <ele>121</ele>
        <time>2017-11-08T13:57:25Z</time>
      </trkpt>
      <trkpt lat="47.74025" lon="1.88622">
        <ele>121</ele>
        <time>2017-11-08T13:57:26Z</time>
      </trkpt>
      <trkpt lat="47.74029" lon="1.88623">
        <ele>121</ele>
        <time>2017-11-08T13:57:27Z</time>
      </trkpt>
      <trkpt lat="47.74032" lon="1.88624">
        <ele>121</ele>
        <time>2017-11-08T13:57:28Z</time>
      </trkpt>
      <trkpt lat="47.74035" lon="1.88626">
        <ele>121</ele>
        <time>2017-11-08T13:57:29Z</time>
      </trkpt>
      <trkpt lat="47.7404" lon="1.88628">
        <ele>121</ele>
        <time>2017-11-08T13:57:30Z</time>
      </trkpt>
      <trkpt lat="47.74046" lon="1.8863">
        <ele>121</ele>
        <time>2017-11-08T13:57:31Z</time>
      </trkpt>
      <trkpt lat="47.74051" lon="1.88631">
        <ele>121</ele>
        <time>2017-11-08T13:57:32Z</time>
      </trkpt>
      <trkpt lat="47.74056" lon="1.88632">
        <ele>121</ele>
        <time>2017-11-08T13:57:33Z</time>
      </trkpt>
      <trkpt lat="47.74062" lon="1.88633">
        <ele>121</ele>
        <time>2017-11-08T13:57:34Z</time>
      </trkpt>
      <trkpt lat="47.74067" lon="1.88634">
        <ele>121</ele>
        <time>2017-11-08T13:57:35Z</time>
      </trkpt>
      <trkpt lat="47.74072" lon="1.88635">
        <ele>121</ele>
        <time>2017-11-08T13:57:36Z</time>
      </trkpt>
      <trkpt lat="47.74076" lon="1.88637">
        <ele>121</ele>
        <time>2017-11-08T13:57:37Z</time>
      </trkpt>
      <trkpt lat="47.7408" lon="1.88638">
        <ele>121</ele>
        <time>2017-11-08T13:57:38Z</time>
      </trkpt>
      <trkpt lat="47.74085" lon="1.8864">
        <ele>120</ele>
        <time>2017-11-08T13:57:39Z</time>
      </trkpt>
      <trkpt lat="47.7409" lon="1.88641">
        <ele>120</ele>
        <time>2017-11-08T13:57:40Z</time>
      </trkpt>
      <trkpt lat="47.74094" lon="1.88643">
        <ele>120</ele>
        <time>2017-11-08T13:57:41Z</time>
      </trkpt>
      <trkpt lat="47.74099" lon="1.88644">
        <ele>120</ele>
        <time>2017-11-08T13:57:42Z</time>
      </trkpt>
      <trkpt lat="47.74103" lon="1.88644">
        <ele>120</ele>
        <time>2017-11-08T13:57:43Z</time>
      </trkpt>
      <trkpt lat="47.74108" lon="1.88644">
        <ele>120</ele>
        <time>2017-11-08T13:57:44Z</time>
      </trkpt>
      <trkpt lat="47.74112" lon="1.88645">
        <ele>120</ele>
        <time>2017-11-08T13:57:45Z</time>
      </trkpt>
      <trkpt lat="47.74117" lon="1.88646">
        <ele>120</ele>
        <time>2017-11-08T13:57:46Z</time>
      </trkpt>
      <trkpt lat="47.74122" lon="1.88647">
        <ele>120</ele>
        <time>2017-11-08T13:57:47Z</time>
      </trkpt>
      <trkpt lat="47.74127" lon="1.88648">
        <ele>121</ele>
        <time>2017-11-08T13:57:48Z</time>
      </trkpt>
      <trkpt lat="47.74132" lon="1.88648">
        <ele>121</ele>
        <time>2017-11-08T13:57:49Z</time>
      </trkpt>
      <trkpt lat="47.74137" lon="1.88648">
        <ele>121</ele>
        <time>2017-11-08T13:57:50Z</time>
      </trkpt>
      <trkpt lat="47.74142" lon="1.88649">
        <ele>121</ele>
        <time>2017-11-08T13:57:51Z</time>
      </trkpt>
      <trkpt lat="47.74147" lon="1.88649">
        <ele>121</ele>
        <time>2017-11-08T13:57:52Z</time>
      </trkpt>
      <trkpt lat="47.74152" lon="1.8865">
        <ele>121</ele>
        <time>2017-11-08T13:57:53Z</time>
      </trkpt>
      <trkpt lat="47.74157" lon="1.8865">
        <ele>121</ele>
        <time>2017-11-08T13:57:54Z</time>
      </trkpt>
      <trkpt lat="47.74162" lon="1.88651">
        <ele>121</ele>
        <time>2017-11-08T13:57:55Z</time>
      </trkpt>
      <trkpt lat="47.74166" lon="1.88652">
        <ele>121</ele>
        <time>2017-11-08T13:57:56Z</time>
      </trkpt>
      <trkpt lat="47.7417" lon="1.88652">
        <ele>121</ele>
        <time>2017-11-08T13:57:57Z</time>
      </trkpt>
      <trkpt lat="47.74174" lon="1.88652">
        <ele>121</ele>
        <time>2017-11-08T13:57:58Z</time>
      </trkpt>
      <trkpt lat="47.74178" lon="1.88653">
        <ele>121</ele>
        <time>2017-11-08T13:57:59Z</time>
      </trkpt>
      <trkpt lat="47.74181" lon="1.88653">
        <ele>121</ele>
        <time>2017-11-08T13:58:00Z</time>
      </trkpt>
      <trkpt lat="47.74185" lon="1.88654">
        <ele>121</ele>
        <time>2017-11-08T13:58:01Z</time>
      </trkpt>
      <trkpt lat="47.74189" lon="1.88655">
        <ele>121</ele>
        <time>2017-11-08T13:58:02Z</time>
      </trkpt>
      <trkpt lat="47.74192" lon="1.88656">
        <ele>121</ele>
        <time>2017-11-08T13:58:03Z</time>
      </trkpt>
      <trkpt lat="47.74195" lon="1.88656">
        <ele>121</ele>
        <time>2017-11-08T13:58:04Z</time>
      </trkpt>
      <trkpt lat="47.74198" lon="1.88657">
        <ele>121</ele>
        <time>2017-11-08T13:58:05Z</time>
      </trkpt>
      <trkpt lat="47.74201" lon="1.88658">
        <ele>121</ele>
        <time>2017-11-08T13:58:06Z</time>
      </trkpt>
      <trkpt lat="47.74204" lon="1.88659">
        <ele>121</ele>
        <time>2017-11-08T13:58:07Z</time>
      </trkpt>
      <trkpt lat="47.74208" lon="1.88658">
        <ele>121</ele>
        <time>2017-11-08T13:58:08Z</time>
      </trkpt>
      <trkpt lat="47.74211" lon="1.88658">
        <ele>121</ele>
        <time>2017-11-08T13:58:09Z</time>
      </trkpt>
      <trkpt lat="47.74214" lon="1.88659">
        <ele>121</ele>
        <time>2017-11-08T13:58:10Z</time>
      </trkpt>
      <trkpt lat="47.74218" lon="1.88661">
        <ele>121</ele>
        <time>2017-11-08T13:58:11Z</time>
      </trkpt>
      <trkpt lat="47.74221" lon="1.88662">
        <ele>121</ele>
        <time>2017-11-08T13:58:12Z</time>
      </trkpt>
      <trkpt lat="47.74225" lon="1.88662">
        <ele>121</ele>
        <time>2017-11-08T13:58:13Z</time>
      </trkpt>
      <trkpt lat="47.74228" lon="1.88663">
        <ele>120</ele>
        <time>2017-11-08T13:58:14Z</time>
      </trkpt>
      <trkpt lat="47.74231" lon="1.88664">
        <ele>120</ele>
        <time>2017-11-08T13:58:15Z</time>
      </trkpt>
      <trkpt lat="47.74235" lon="1.88665">
        <ele>120</ele>
        <time>2017-11-08T13:58:16Z</time>
      </trkpt>
      <trkpt lat="47.74238" lon="1.88666">
        <ele>120</ele>
        <time>2017-11-08T13:58:17Z</time>
      </trkpt>
      <trkpt lat="47.74242" lon="1.88667">
        <ele>120</ele>
        <time>2017-11-08T13:58:18Z</time>
      </trkpt>
      <trkpt lat="47.74246" lon="1.88668">
        <ele>120</ele>
        <time>2017-11-08T13:58:19Z</time>
      </trkpt>
      <trkpt lat="47.7425" lon="1.88669">
        <ele>120</ele>
        <time>2017-11-08T13:58:20Z</time>
      </trkpt>
      <trkpt lat="47.74253" lon="1.8867">
        <ele>120</ele>
        <time>2017-11-08T13:58:21Z</time>
      </trkpt>
      <trkpt lat="47.74256" lon="1.8867">
        <ele>120</ele>
        <time>2017-11-08T13:58:22Z</time>
      </trkpt>
      <trkpt lat="47.7426" lon="1.88671">
        <ele>120</ele>
        <time>2017-11-08T13:58:23Z</time>
      </trkpt>
      <trkpt lat="47.74263" lon="1.88672">
        <ele>120</ele>
        <time>2017-11-08T13:58:24Z</time>
      </trkpt>
      <trkpt lat="47.74268" lon="1.88673">
        <ele>120</ele>
        <time>2017-11-08T13:58:26Z</time>
      </trkpt>
      <trkpt lat="47.74271" lon="1.88674">
        <ele>121</ele>
        <time>2017-11-08T13:58:27Z</time>
      </trkpt>
      <trkpt lat="47.74276" lon="1.88675">
        <ele>121</ele>
        <time>2017-11-08T13:58:28Z</time>
      </trkpt>
      <trkpt lat="47.7428" lon="1.88677">
        <ele>121</ele>
        <time>2017-11-08T13:58:29Z</time>
      </trkpt>
      <trkpt lat="47.74284" lon="1.88678">
        <ele>121</ele>
        <time>2017-11-08T13:58:30Z</time>
      </trkpt>
      <trkpt lat="47.74288" lon="1.8868">
        <ele>121</ele>
        <time>2017-11-08T13:58:31Z</time>
      </trkpt>
      <trkpt lat="47.74292" lon="1.88681">
        <ele>121</ele>
        <time>2017-11-08T13:58:32Z</time>
      </trkpt>
      <trkpt lat="47.74296" lon="1.88683">
        <ele>121</ele>
        <time>2017-11-08T13:58:33Z</time>
      </trkpt>
      <trkpt lat="47.743" lon="1.88684">
        <ele>121</ele>
        <time>2017-11-08T13:58:34Z</time>
      </trkpt>
      <trkpt lat="47.74304" lon="1.88686">
        <ele>121</ele>
        <time>2017-11-08T13:58:35Z</time>
      </trkpt>
      <trkpt lat="47.74308" lon="1.88687">
        <ele>121</ele>
        <time>2017-11-08T13:58:36Z</time>
      </trkpt>
      <trkpt lat="47.74313" lon="1.88688">
        <ele>121</ele>
        <time>2017-11-08T13:58:37Z</time>
      </trkpt>
      <trkpt lat="47.74317" lon="1.88689">
        <ele>121</ele>
        <time>2017-11-08T13:58:38Z</time>
      </trkpt>
      <trkpt lat="47.7432" lon="1.8869">
        <ele>121</ele>
        <time>2017-11-08T13:58:39Z</time>
      </trkpt>
      <trkpt lat="47.74323" lon="1.88691">
        <ele>121</ele>
        <time>2017-11-08T13:58:40Z</time>
      </trkpt>
      <trkpt lat="47.74327" lon="1.88693">
        <ele>121</ele>
        <time>2017-11-08T13:58:41Z</time>
      </trkpt>
      <trkpt lat="47.7433" lon="1.88694">
        <ele>121</ele>
        <time>2017-11-08T13:58:42Z</time>
      </trkpt>
      <trkpt lat="47.74333" lon="1.88695">
        <ele>121</ele>
        <time>2017-11-08T13:58:43Z</time>
      </trkpt>
      <trkpt lat="47.74337" lon="1.88696">
        <ele>121</ele>
        <time>2017-11-08T13:58:44Z</time>
      </trkpt>
      <trkpt lat="47.7434" lon="1.88697">
        <ele>122</ele>
        <time>2017-11-08T13:58:45Z</time>
      </trkpt>
      <trkpt lat="47.74342" lon="1.88698">
        <ele>122</ele>
        <time>2017-11-08T13:58:46Z</time>
      </trkpt>
      <trkpt lat="47.74345" lon="1.887">
        <ele>122</ele>
        <time>2017-11-08T13:58:47Z</time>
      </trkpt>
      <trkpt lat="47.74348" lon="1.88702">
        <ele>122</ele>
        <time>2017-11-08T13:58:48Z</time>
      </trkpt>
      <trkpt lat="47.74351" lon="1.88703">
        <ele>122</ele>
        <time>2017-11-08T13:58:49Z</time>
      </trkpt>
      <trkpt lat="47.74354" lon="1.88705">
        <ele>122</ele>
        <time>2017-11-08T13:58:50Z</time>
      </trkpt>
      <trkpt lat="47.74358" lon="1.88706">
        <ele>122</ele>
        <time>2017-11-08T13:58:51Z</time>
      </trkpt>
      <trkpt lat="47.74362" lon="1.88708">
        <ele>122</ele>
        <time>2017-11-08T13:58:52Z</time>
      </trkpt>
      <trkpt lat="47.74366" lon="1.88709">
        <ele>122</ele>
        <time>2017-11-08T13:58:53Z</time>
      </trkpt>
      <trkpt lat="47.74371" lon="1.88711">
        <ele>122</ele>
        <time>2017-11-08T13:58:54Z</time>
      </trkpt>
      <trkpt lat="47.74376" lon="1.88712">
        <ele>122</ele>
        <time>2017-11-08T13:58:55Z</time>
      </trkpt>
      <trkpt lat="47.74381" lon="1.88714">
        <ele>122</ele>
        <time>2017-11-08T13:58:56Z</time>
      </trkpt>
      <trkpt lat="47.74385" lon="1.88715">
        <ele>122</ele>
        <time>2017-11-08T13:58:57Z</time>
      </trkpt>
      <trkpt lat="47.74389" lon="1.88717">
        <ele>122</ele>
        <time>2017-11-08T13:58:58Z</time>
      </trkpt>
      <trkpt lat="47.74393" lon="1.88718">
        <ele>122</ele>
        <time>2017-11-08T13:58:59Z</time>
      </trkpt>
      <trkpt lat="47.74396" lon="1.88719">
        <ele>122</ele>
        <time>2017-11-08T13:59:00Z</time>
      </trkpt>
      <trkpt lat="47.74399" lon="1.8872">
        <ele>122</ele>
        <time>2017-11-08T13:59:01Z</time>
      </trkpt>
      <trkpt lat="47.74403" lon="1.88722">
        <ele>123</ele>
        <time>2017-11-08T13:59:02Z</time>
      </trkpt>
      <trkpt lat="47.74406" lon="1.88724">
        <ele>123</ele>
        <time>2017-11-08T13:59:03Z</time>
      </trkpt>
      <trkpt lat="47.7441" lon="1.88725">
        <ele>123</ele>
        <time>2017-11-08T13:59:04Z</time>
      </trkpt>
      <trkpt lat="47.74414" lon="1.88727">
        <ele>123</ele>
        <time>2017-11-08T13:59:05Z</time>
      </trkpt>
      <trkpt lat="47.74418" lon="1.88729">
        <ele>123</ele>
        <time>2017-11-08T13:59:06Z</time>
      </trkpt>
      <trkpt lat="47.74421" lon="1.8873">
        <ele>123</ele>
        <time>2017-11-08T13:59:07Z</time>
      </trkpt>
      <trkpt lat="47.74425" lon="1.88732">
        <ele>123</ele>
        <time>2017-11-08T13:59:08Z</time>
      </trkpt>
      <trkpt lat="47.74429" lon="1.88733">
        <ele>123</ele>
        <time>2017-11-08T13:59:09Z</time>
      </trkpt>
      <trkpt lat="47.74433" lon="1.88735">
        <ele>123</ele>
        <time>2017-11-08T13:59:10Z</time>
      </trkpt>
      <trkpt lat="47.74437" lon="1.88736">
        <ele>123</ele>
        <time>2017-11-08T13:59:11Z</time>
      </trkpt>
      <trkpt lat="47.7444" lon="1.88737">
        <ele>123</ele>
        <time>2017-11-08T13:59:12Z</time>
      </trkpt>
      <trkpt lat="47.74444" lon="1.88738">
        <ele>123</ele>
        <time>2017-11-08T13:59:13Z</time>
      </trkpt>
      <trkpt lat="47.74448" lon="1.8874">
        <ele>123</ele>
        <time>2017-11-08T13:59:14Z</time>
      </trkpt>
      <trkpt lat="47.74452" lon="1.88741">
        <ele>123</ele>
        <time>2017-11-08T13:59:15Z</time>
      </trkpt>
      <trkpt lat="47.74455" lon="1.88742">
        <ele>123</ele>
        <time>2017-11-08T13:59:16Z</time>
      </trkpt>
      <trkpt lat="47.74459" lon="1.88743">
        <ele>123</ele>
        <time>2017-11-08T13:59:17Z</time>
      </trkpt>
      <trkpt lat="47.74464" lon="1.88744">
        <ele>123</ele>
        <time>2017-11-08T13:59:18Z</time>
      </trkpt>
      <trkpt lat="47.74469" lon="1.88746">
        <ele>123</ele>
        <time>2017-11-08T13:59:19Z</time>
      </trkpt>
      <trkpt lat="47.74474" lon="1.88747">
        <ele>123</ele>
        <time>2017-11-08T13:59:20Z</time>
      </trkpt>
      <trkpt lat="47.74478" lon="1.88749">
        <ele>123</ele>
        <time>2017-11-08T13:59:21Z</time>
      </trkpt>
      <trkpt lat="47.74483" lon="1.88751">
        <ele>124</ele>
        <time>2017-11-08T13:59:22Z</time>
      </trkpt>
      <trkpt lat="47.74488" lon="1.88752">
        <ele>124</ele>
        <time>2017-11-08T13:59:23Z</time>
      </trkpt>
      <trkpt lat="47.74493" lon="1.88753">
        <ele>124</ele>
        <time>2017-11-08T13:59:24Z</time>
      </trkpt>
      <trkpt lat="47.74497" lon="1.88755">
        <ele>124</ele>
        <time>2017-11-08T13:59:25Z</time>
      </trkpt>
      <trkpt lat="47.74502" lon="1.88756">
        <ele>123</ele>
        <time>2017-11-08T13:59:26Z</time>
      </trkpt>
      <trkpt lat="47.74507" lon="1.88757">
        <ele>124</ele>
        <time>2017-11-08T13:59:27Z</time>
      </trkpt>
      <trkpt lat="47.74512" lon="1.88759">
        <ele>124</ele>
        <time>2017-11-08T13:59:28Z</time>
      </trkpt>
      <trkpt lat="47.74517" lon="1.8876">
        <ele>124</ele>
        <time>2017-11-08T13:59:29Z</time>
      </trkpt>
      <trkpt lat="47.74522" lon="1.88762">
        <ele>124</ele>
        <time>2017-11-08T13:59:30Z</time>
      </trkpt>
      <trkpt lat="47.74527" lon="1.88763">
        <ele>124</ele>
        <time>2017-11-08T13:59:31Z</time>
      </trkpt>
      <trkpt lat="47.74531" lon="1.88765">
        <ele>124</ele>
        <time>2017-11-08T13:59:32Z</time>
      </trkpt>
      <trkpt lat="47.74536" lon="1.88767">
        <ele>124</ele>
        <time>2017-11-08T13:59:33Z</time>
      </trkpt>
      <trkpt lat="47.7454" lon="1.8877">
        <ele>124</ele>
        <time>2017-11-08T13:59:34Z</time>
      </trkpt>
      <trkpt lat="47.74545" lon="1.88772">
        <ele>124</ele>
        <time>2017-11-08T13:59:35Z</time>
      </trkpt>
      <trkpt lat="47.7455" lon="1.88774">
        <ele>124</ele>
        <time>2017-11-08T13:59:36Z</time>
      </trkpt>
      <trkpt lat="47.74555" lon="1.88775">
        <ele>124</ele>
        <time>2017-11-08T13:59:37Z</time>
      </trkpt>
      <trkpt lat="47.74559" lon="1.88777">
        <ele>124</ele>
        <time>2017-11-08T13:59:38Z</time>
      </trkpt>
      <trkpt lat="47.74564" lon="1.88779">
        <ele>124</ele>
        <time>2017-11-08T13:59:39Z</time>
      </trkpt>
      <trkpt lat="47.74569" lon="1.88781">
        <ele>124</ele>
        <time>2017-11-08T13:59:40Z</time>
      </trkpt>
      <trkpt lat="47.74573" lon="1.88783">
        <ele>124</ele>
        <time>2017-11-08T13:59:41Z</time>
      </trkpt>
      <trkpt lat="47.74578" lon="1.88785">
        <ele>124</ele>
        <time>2017-11-08T13:59:42Z</time>
      </trkpt>
      <trkpt lat="47.74583" lon="1.88786">
        <ele>124</ele>
        <time>2017-11-08T13:59:43Z</time>
      </trkpt>
      <trkpt lat="47.74587" lon="1.88788">
        <ele>124</ele>
        <time>2017-11-08T13:59:44Z</time>
      </trkpt>
      <trkpt lat="47.74592" lon="1.88789">
        <ele>124</ele>
        <time>2017-11-08T13:59:45Z</time>
      </trkpt>
      <trkpt lat="47.74596" lon="1.88791">
        <ele>124</ele>
        <time>2017-11-08T13:59:46Z</time>
      </trkpt>
      <trkpt lat="47.746" lon="1.88793">
        <ele>124</ele>
        <time>2017-11-08T13:59:47Z</time>
      </trkpt>
      <trkpt lat="47.74605" lon="1.88795">
        <ele>124</ele>
        <time>2017-11-08T13:59:48Z</time>
      </trkpt>
      <trkpt lat="47.74609" lon="1.88797">
        <ele>124</ele>
        <time>2017-11-08T13:59:49Z</time>
      </trkpt>
      <trkpt lat="47.74613" lon="1.88799">
        <ele>124</ele>
        <time>2017-11-08T13:59:50Z</time>
      </trkpt>
      <trkpt lat="47.74617" lon="1.88801">
        <ele>124</ele>
        <time>2017-11-08T13:59:51Z</time>
      </trkpt>
      <trkpt lat="47.74621" lon="1.88802">
        <ele>124</ele>
        <time>2017-11-08T13:59:52Z</time>
      </trkpt>
      <trkpt lat="47.74625" lon="1.88803">
        <ele>124</ele>
        <time>2017-11-08T13:59:53Z</time>
      </trkpt>
      <trkpt lat="47.74629" lon="1.88805">
        <ele>124</ele>
        <time>2017-11-08T13:59:54Z</time>
      </trkpt>
      <trkpt lat="47.74633" lon="1.88807">
        <ele>124</ele>
        <time>2017-11-08T13:59:55Z</time>
      </trkpt>
      <trkpt lat="47.74638" lon="1.88809">
        <ele>124</ele>
        <time>2017-11-08T13:59:56Z</time>
      </trkpt>
      <trkpt lat="47.74642" lon="1.88811">
        <ele>124</ele>
        <time>2017-11-08T13:59:57Z</time>
      </trkpt>
      <trkpt lat="47.74646" lon="1.88813">
        <ele>124</ele>
        <time>2017-11-08T13:59:58Z</time>
      </trkpt>
      <trkpt lat="47.7465" lon="1.88814">
        <ele>124</ele>
        <time>2017-11-08T13:59:59Z</time>
      </trkpt>
      <trkpt lat="47.74654" lon="1.88815">
        <ele>124</ele>
        <time>2017-11-08T14:00:00Z</time>
      </trkpt>
      <trkpt lat="47.74659" lon="1.88817">
        <ele>124</ele>
        <time>2017-11-08T14:00:01Z</time>
      </trkpt>
      <trkpt lat="47.74664" lon="1.8882">
        <ele>124</ele>
        <time>2017-11-08T14:00:02Z</time>
      </trkpt>
      <trkpt lat="47.7467" lon="1.88822">
        <ele>124</ele>
        <time>2017-11-08T14:00:03Z</time>
      </trkpt>
      <trkpt lat="47.74675" lon="1.88824">
        <ele>124</ele>
        <time>2017-11-08T14:00:04Z</time>
      </trkpt>
      <trkpt lat="47.7468" lon="1.88825">
        <ele>124</ele>
        <time>2017-11-08T14:00:05Z</time>
      </trkpt>
      <trkpt lat="47.74684" lon="1.88827">
        <ele>124</ele>
        <time>2017-11-08T14:00:06Z</time>
      </trkpt>
      <trkpt lat="47.74689" lon="1.88828">
        <ele>124</ele>
        <time>2017-11-08T14:00:07Z</time>
      </trkpt>
      <trkpt lat="47.74693" lon="1.8883">
        <ele>124</ele>
        <time>2017-11-08T14:00:08Z</time>
      </trkpt>
      <trkpt lat="47.74698" lon="1.88831">
        <ele>124</ele>
        <time>2017-11-08T14:00:09Z</time>
      </trkpt>
      <trkpt lat="47.74702" lon="1.88833">
        <ele>124</ele>
        <time>2017-11-08T14:00:10Z</time>
      </trkpt>
      <trkpt lat="47.74706" lon="1.88834">
        <ele>123</ele>
        <time>2017-11-08T14:00:11Z</time>
      </trkpt>
      <trkpt lat="47.74709" lon="1.88835">
        <ele>123</ele>
        <time>2017-11-08T14:00:12Z</time>
      </trkpt>
      <trkpt lat="47.74713" lon="1.88837">
        <ele>123</ele>
        <time>2017-11-08T14:00:13Z</time>
      </trkpt>
      <trkpt lat="47.74716" lon="1.88838">
        <ele>123</ele>
        <time>2017-11-08T14:00:14Z</time>
      </trkpt>
      <trkpt lat="47.7472" lon="1.8884">
        <ele>122</ele>
        <time>2017-11-08T14:00:15Z</time>
      </trkpt>
      <trkpt lat="47.74724" lon="1.88841">
        <ele>122</ele>
        <time>2017-11-08T14:00:16Z</time>
      </trkpt>
      <trkpt lat="47.74729" lon="1.88843">
        <ele>122</ele>
        <time>2017-11-08T14:00:17Z</time>
      </trkpt>
      <trkpt lat="47.74732" lon="1.88844">
        <ele>122</ele>
        <time>2017-11-08T14:00:18Z</time>
      </trkpt>
      <trkpt lat="47.74737" lon="1.88845">
        <ele>122</ele>
        <time>2017-11-08T14:00:19Z</time>
      </trkpt>
      <trkpt lat="47.74742" lon="1.88847">
        <ele>122</ele>
        <time>2017-11-08T14:00:20Z</time>
      </trkpt>
      <trkpt lat="47.74747" lon="1.88848">
        <ele>122</ele>
        <time>2017-11-08T14:00:21Z</time>
      </trkpt>
      <trkpt lat="47.74752" lon="1.8885">
        <ele>121</ele>
        <time>2017-11-08T14:00:22Z</time>
      </trkpt>
      <trkpt lat="47.74756" lon="1.88852">
        <ele>121</ele>
        <time>2017-11-08T14:00:23Z</time>
      </trkpt>
      <trkpt lat="47.74761" lon="1.88853">
        <ele>121</ele>
        <time>2017-11-08T14:00:24Z</time>
      </trkpt>
      <trkpt lat="47.74765" lon="1.88855">
        <ele>121</ele>
        <time>2017-11-08T14:00:25Z</time>
      </trkpt>
      <trkpt lat="47.74769" lon="1.88857">
        <ele>121</ele>
        <time>2017-11-08T14:00:26Z</time>
      </trkpt>
      <trkpt lat="47.74773" lon="1.88858">
        <ele>121</ele>
        <time>2017-11-08T14:00:27Z</time>
      </trkpt>
      <trkpt lat="47.74778" lon="1.8886">
        <ele>121</ele>
        <time>2017-11-08T14:00:28Z</time>
      </trkpt>
      <trkpt lat="47.74782" lon="1.88862">
        <ele>121</ele>
        <time>2017-11-08T14:00:29Z</time>
      </trkpt>
      <trkpt lat="47.74787" lon="1.88864">
        <ele>121</ele>
        <time>2017-11-08T14:00:30Z</time>
      </trkpt>
      <trkpt lat="47.74792" lon="1.88867">
        <ele>121</ele>
        <time>2017-11-08T14:00:31Z</time>
      </trkpt>
      <trkpt lat="47.74797" lon="1.88869">
        <ele>121</ele>
        <time>2017-11-08T14:00:32Z</time>
      </trkpt>
      <trkpt lat="47.74801" lon="1.88872">
        <ele>120</ele>
        <time>2017-11-08T14:00:33Z</time>
      </trkpt>
      <trkpt lat="47.74805" lon="1.88873">
        <ele>120</ele>
        <time>2017-11-08T14:00:34Z</time>
      </trkpt>
      <trkpt lat="47.7481" lon="1.88875">
        <ele>120</ele>
        <time>2017-11-08T14:00:35Z</time>
      </trkpt>
      <trkpt lat="47.74814" lon="1.88877">
        <ele>120</ele>
        <time>2017-11-08T14:00:36Z</time>
      </trkpt>
      <trkpt lat="47.74819" lon="1.88878">
        <ele>120</ele>
        <time>2017-11-08T14:00:37Z</time>
      </trkpt>
      <trkpt lat="47.74823" lon="1.8888">
        <ele>120</ele>
        <time>2017-11-08T14:00:38Z</time>
      </trkpt>
      <trkpt lat="47.74828" lon="1.88881">
        <ele>120</ele>
        <time>2017-11-08T14:00:39Z</time>
      </trkpt>
      <trkpt lat="47.74832" lon="1.88883">
        <ele>120</ele>
        <time>2017-11-08T14:00:40Z</time>
      </trkpt>
      <trkpt lat="47.74837" lon="1.88884">
        <ele>120</ele>
        <time>2017-11-08T14:00:41Z</time>
      </trkpt>
      <trkpt lat="47.74841" lon="1.88885">
        <ele>120</ele>
        <time>2017-11-08T14:00:42Z</time>
      </trkpt>
      <trkpt lat="47.74845" lon="1.88887">
        <ele>120</ele>
        <time>2017-11-08T14:00:43Z</time>
      </trkpt>
      <trkpt lat="47.74849" lon="1.88888">
        <ele>120</ele>
        <time>2017-11-08T14:00:44Z</time>
      </trkpt>
      <trkpt lat="47.74854" lon="1.8889">
        <ele>120</ele>
        <time>2017-11-08T14:00:45Z</time>
      </trkpt>
      <trkpt lat="47.74858" lon="1.88892">
        <ele>120</ele>
        <time>2017-11-08T14:00:46Z</time>
      </trkpt>
      <trkpt lat="47.74862" lon="1.88894">
        <ele>120</ele>
        <time>2017-11-08T14:00:47Z</time>
      </trkpt>
      <trkpt lat="47.74866" lon="1.88895">
        <ele>120</ele>
        <time>2017-11-08T14:00:48Z</time>
      </trkpt>
      <trkpt lat="47.7487" lon="1.88896">
        <ele>120</ele>
        <time>2017-11-08T14:00:49Z</time>
      </trkpt>
      <trkpt lat="47.74873" lon="1.88897">
        <ele>120</ele>
        <time>2017-11-08T14:00:50Z</time>
      </trkpt>
      <trkpt lat="47.74876" lon="1.88898">
        <ele>120</ele>
        <time>2017-11-08T14:00:51Z</time>
      </trkpt>
      <trkpt lat="47.74879" lon="1.88899">
        <ele>120</ele>
        <time>2017-11-08T14:00:52Z</time>
      </trkpt>
      <trkpt lat="47.74883" lon="1.889">
        <ele>120</ele>
        <time>2017-11-08T14:00:53Z</time>
      </trkpt>
      <trkpt lat="47.74886" lon="1.88902">
        <ele>120</ele>
        <time>2017-11-08T14:00:54Z</time>
      </trkpt>
      <trkpt lat="47.74888" lon="1.88903">
        <ele>119</ele>
        <time>2017-11-08T14:00:55Z</time>
      </trkpt>
      <trkpt lat="47.74891" lon="1.88904">
        <ele>119</ele>
        <time>2017-11-08T14:00:56Z</time>
      </trkpt>
      <trkpt lat="47.74894" lon="1.88906">
        <ele>119</ele>
        <time>2017-11-08T14:00:57Z</time>
      </trkpt>
      <trkpt lat="47.74898" lon="1.88907">
        <ele>119</ele>
        <time>2017-11-08T14:00:58Z</time>
      </trkpt>
      <trkpt lat="47.74902" lon="1.88909">
        <ele>119</ele>
        <time>2017-11-08T14:00:59Z</time>
      </trkpt>
      <trkpt lat="47.74905" lon="1.8891">
        <ele>119</ele>
        <time>2017-11-08T14:01:00Z</time>
      </trkpt>
      <trkpt lat="47.74909" lon="1.88911">
        <ele>119</ele>
        <time>2017-11-08T14:01:01Z</time>
      </trkpt>
      <trkpt lat="47.74912" lon="1.88913">
        <ele>119</ele>
        <time>2017-11-08T14:01:02Z</time>
      </trkpt>
      <trkpt lat="47.74915" lon="1.88914">
        <ele>119</ele>
        <time>2017-11-08T14:01:03Z</time>
      </trkpt>
      <trkpt lat="47.74918" lon="1.88915">
        <ele>119</ele>
        <time>2017-11-08T14:01:04Z</time>
      </trkpt>
      <trkpt lat="47.74921" lon="1.88915">
        <ele>119</ele>
        <time>2017-11-08T14:01:05Z</time>
      </trkpt>
      <trkpt lat="47.74924" lon="1.88917">
        <ele>119</ele>
        <time>2017-11-08T14:01:06Z</time>
      </trkpt>
      <trkpt lat="47.74928" lon="1.88918">
        <ele>119</ele>
        <time>2017-11-08T14:01:07Z</time>
      </trkpt>
      <trkpt lat="47.74931" lon="1.8892">
        <ele>119</ele>
        <time>2017-11-08T14:01:08Z</time>
      </trkpt>
      <trkpt lat="47.74934" lon="1.88921">
        <ele>119</ele>
        <time>2017-11-08T14:01:09Z</time>
      </trkpt>
      <trkpt lat="47.74938" lon="1.88922">
        <ele>119</ele>
        <time>2017-11-08T14:01:10Z</time>
      </trkpt>
      <trkpt lat="47.74941" lon="1.88923">
        <ele>119</ele>
        <time>2017-11-08T14:01:11Z</time>
      </trkpt>
      <trkpt lat="47.74945" lon="1.88924">
        <ele>119</ele>
        <time>2017-11-08T14:01:12Z</time>
      </trkpt>
      <trkpt lat="47.74949" lon="1.88925">
        <ele>119</ele>
        <time>2017-11-08T14:01:13Z</time>
      </trkpt>
      <trkpt lat="47.74953" lon="1.88927">
        <ele>119</ele>
        <time>2017-11-08T14:01:14Z</time>
      </trkpt>
      <trkpt lat="47.74956" lon="1.88929">
        <ele>119</ele>
        <time>2017-11-08T14:01:15Z</time>
      </trkpt>
      <trkpt lat="47.7496" lon="1.88932">
        <ele>119</ele>
        <time>2017-11-08T14:01:16Z</time>
      </trkpt>
      <trkpt lat="47.74965" lon="1.88934">
        <ele>119</ele>
        <time>2017-11-08T14:01:17Z</time>
      </trkpt>
      <trkpt lat="47.7497" lon="1.88935">
        <ele>119</ele>
        <time>2017-11-08T14:01:18Z</time>
      </trkpt>
      <trkpt lat="47.74974" lon="1.88937">
        <ele>119</ele>
        <time>2017-11-08T14:01:19Z</time>
      </trkpt>
      <trkpt lat="47.74979" lon="1.88939">
        <ele>119</ele>
        <time>2017-11-08T14:01:20Z</time>
      </trkpt>
      <trkpt lat="47.74984" lon="1.8894">
        <ele>119</ele>
        <time>2017-11-08T14:01:21Z</time>
      </trkpt>
      <trkpt lat="47.74988" lon="1.88942">
        <ele>119</ele>
        <time>2017-11-08T14:01:22Z</time>
      </trkpt>
      <trkpt lat="47.74993" lon="1.88943">
        <ele>119</ele>
        <time>2017-11-08T14:01:23Z</time>
      </trkpt>
      <trkpt lat="47.74998" lon="1.88945">
        <ele>119</ele>
        <time>2017-11-08T14:01:24Z</time>
      </trkpt>
      <trkpt lat="47.75003" lon="1.88946">
        <ele>119</ele>
        <time>2017-11-08T14:01:25Z</time>
      </trkpt>
      <trkpt lat="47.75008" lon="1.88948">
        <ele>119</ele>
        <time>2017-11-08T14:01:26Z</time>
      </trkpt>
      <trkpt lat="47.75012" lon="1.88949">
        <ele>119</ele>
        <time>2017-11-08T14:01:27Z</time>
      </trkpt>
      <trkpt lat="47.75016" lon="1.88951">
        <ele>119</ele>
        <time>2017-11-08T14:01:28Z</time>
      </trkpt>
      <trkpt lat="47.75021" lon="1.88953">
        <ele>119</ele>
        <time>2017-11-08T14:01:29Z</time>
      </trkpt>
      <trkpt lat="47.75025" lon="1.88954">
        <ele>119</ele>
        <time>2017-11-08T14:01:30Z</time>
      </trkpt>
      <trkpt lat="47.75029" lon="1.88955">
        <ele>119</ele>
        <time>2017-11-08T14:01:31Z</time>
      </trkpt>
      <trkpt lat="47.75033" lon="1.88957">
        <ele>119</ele>
        <time>2017-11-08T14:01:32Z</time>
      </trkpt>
      <trkpt lat="47.75037" lon="1.88958">
        <ele>119</ele>
        <time>2017-11-08T14:01:33Z</time>
      </trkpt>
      <trkpt lat="47.75041" lon="1.88959">
        <ele>119</ele>
        <time>2017-11-08T14:01:34Z</time>
      </trkpt>
      <trkpt lat="47.75046" lon="1.8896">
        <ele>119</ele>
        <time>2017-11-08T14:01:35Z</time>
      </trkpt>
      <trkpt lat="47.75049" lon="1.88961">
        <ele>119</ele>
        <time>2017-11-08T14:01:36Z</time>
      </trkpt>
      <trkpt lat="47.75054" lon="1.88962">
        <ele>119</ele>
        <time>2017-11-08T14:01:37Z</time>
      </trkpt>
      <trkpt lat="47.75057" lon="1.88963">
        <ele>119</ele>
        <time>2017-11-08T14:01:38Z</time>
      </trkpt>
      <trkpt lat="47.75062" lon="1.88964">
        <ele>119</ele>
        <time>2017-11-08T14:01:39Z</time>
      </trkpt>
      <trkpt lat="47.75066" lon="1.88965">
        <ele>119</ele>
        <time>2017-11-08T14:01:40Z</time>
      </trkpt>
      <trkpt lat="47.7507" lon="1.88965">
        <ele>119</ele>
        <time>2017-11-08T14:01:41Z</time>
      </trkpt>
      <trkpt lat="47.75075" lon="1.88966">
        <ele>119</ele>
        <time>2017-11-08T14:01:42Z</time>
      </trkpt>
      <trkpt lat="47.75079" lon="1.88967">
        <ele>119</ele>
        <time>2017-11-08T14:01:43Z</time>
      </trkpt>
      <trkpt lat="47.75083" lon="1.88968">
        <ele>120</ele>
        <time>2017-11-08T14:01:44Z</time>
      </trkpt>
      <trkpt lat="47.75088" lon="1.88969">
        <ele>120</ele>
        <time>2017-11-08T14:01:45Z</time>
      </trkpt>
      <trkpt lat="47.75093" lon="1.8897">
        <ele>120</ele>
        <time>2017-11-08T14:01:46Z</time>
      </trkpt>
      <trkpt lat="47.75097" lon="1.88971">
        <ele>120</ele>
        <time>2017-11-08T14:01:47Z</time>
      </trkpt>
      <trkpt lat="47.75102" lon="1.88972">
        <ele>120</ele>
        <time>2017-11-08T14:01:48Z</time>
      </trkpt>
      <trkpt lat="47.75106" lon="1.88973">
        <ele>120</ele>
        <time>2017-11-08T14:01:49Z</time>
      </trkpt>
      <trkpt lat="47.7511" lon="1.88974">
        <ele>120</ele>
        <time>2017-11-08T14:01:50Z</time>
      </trkpt>
      <trkpt lat="47.75114" lon="1.88975">
        <ele>120</ele>
        <time>2017-11-08T14:01:51Z</time>
      </trkpt>
      <trkpt lat="47.75118" lon="1.88976">
        <ele>120</ele>
        <time>2017-11-08T14:01:52Z</time>
      </trkpt>
      <trkpt lat="47.75123" lon="1.88976">
        <ele>120</ele>
        <time>2017-11-08T14:01:53Z</time>
      </trkpt>
      <trkpt lat="47.75127" lon="1.88976">
        <ele>120</ele>
        <time>2017-11-08T14:01:54Z</time>
      </trkpt>
      <trkpt lat="47.75132" lon="1.88977">
        <ele>120</ele>
        <time>2017-11-08T14:01:55Z</time>
      </trkpt>
      <trkpt lat="47.75137" lon="1.88977">
        <ele>120</ele>
        <time>2017-11-08T14:01:56Z</time>
      </trkpt>
      <trkpt lat="47.75141" lon="1.88978">
        <ele>120</ele>
        <time>2017-11-08T14:01:57Z</time>
      </trkpt>
      <trkpt lat="47.75146" lon="1.88978">
        <ele>120</ele>
        <time>2017-11-08T14:01:58Z</time>
      </trkpt>
      <trkpt lat="47.75151" lon="1.88979">
        <ele>121</ele>
        <time>2017-11-08T14:01:59Z</time>
      </trkpt>
      <trkpt lat="47.75156" lon="1.88979">
        <ele>121</ele>
        <time>2017-11-08T14:02:00Z</time>
      </trkpt>
      <trkpt lat="47.7516" lon="1.8898">
        <ele>121</ele>
        <time>2017-11-08T14:02:01Z</time>
      </trkpt>
      <trkpt lat="47.75166" lon="1.88981">
        <ele>121</ele>
        <time>2017-11-08T14:02:02Z</time>
      </trkpt>
      <trkpt lat="47.75171" lon="1.88981">
        <ele>121</ele>
        <time>2017-11-08T14:02:03Z</time>
      </trkpt>
      <trkpt lat="47.75175" lon="1.8898">
        <ele>121</ele>
        <time>2017-11-08T14:02:04Z</time>
      </trkpt>
      <trkpt lat="47.75181" lon="1.88981">
        <ele>121</ele>
        <time>2017-11-08T14:02:05Z</time>
      </trkpt>
      <trkpt lat="47.75185" lon="1.88981">
        <ele>121</ele>
        <time>2017-11-08T14:02:06Z</time>
      </trkpt>
      <trkpt lat="47.7519" lon="1.88982">
        <ele>121</ele>
        <time>2017-11-08T14:02:07Z</time>
      </trkpt>
      <trkpt lat="47.75195" lon="1.88983">
        <ele>121</ele>
        <time>2017-11-08T14:02:08Z</time>
      </trkpt>
      <trkpt lat="47.75199" lon="1.88984">
        <ele>121</ele>
        <time>2017-11-08T14:02:09Z</time>
      </trkpt>
      <trkpt lat="47.75204" lon="1.88985">
        <ele>121</ele>
        <time>2017-11-08T14:02:10Z</time>
      </trkpt>
      <trkpt lat="47.75209" lon="1.88986">
        <ele>121</ele>
        <time>2017-11-08T14:02:11Z</time>
      </trkpt>
      <trkpt lat="47.75214" lon="1.88987">
        <ele>121</ele>
        <time>2017-11-08T14:02:12Z</time>
      </trkpt>
      <trkpt lat="47.75219" lon="1.88989">
        <ele>121</ele>
        <time>2017-11-08T14:02:13Z</time>
      </trkpt>
      <trkpt lat="47.75224" lon="1.88991">
        <ele>121</ele>
        <time>2017-11-08T14:02:14Z</time>
      </trkpt>
      <trkpt lat="47.75229" lon="1.88992">
        <ele>121</ele>
        <time>2017-11-08T14:02:15Z</time>
      </trkpt>
      <trkpt lat="47.75235" lon="1.88993">
        <ele>121</ele>
        <time>2017-11-08T14:02:16Z</time>
      </trkpt>
      <trkpt lat="47.75241" lon="1.88992">
        <ele>121</ele>
        <time>2017-11-08T14:02:17Z</time>
      </trkpt>
      <trkpt lat="47.75244" lon="1.88987">
        <ele>121</ele>
        <time>2017-11-08T14:02:18Z</time>
      </trkpt>
      <trkpt lat="47.75245" lon="1.88981">
        <ele>121</ele>
        <time>2017-11-08T14:02:19Z</time>
      </trkpt>
      <trkpt lat="47.75244" lon="1.88975">
        <ele>121</ele>
        <time>2017-11-08T14:02:20Z</time>
      </trkpt>
      <trkpt lat="47.75244" lon="1.8897">
        <ele>121</ele>
        <time>2017-11-08T14:02:21Z</time>
      </trkpt>
      <trkpt lat="47.75243" lon="1.88962">
        <ele>121</ele>
        <time>2017-11-08T14:02:22Z</time>
      </trkpt>
      <trkpt lat="47.75243" lon="1.88953">
        <ele>121</ele>
        <time>2017-11-08T14:02:23Z</time>
      </trkpt>
      <trkpt lat="47.75241" lon="1.88946">
        <ele>121</ele>
        <time>2017-11-08T14:02:24Z</time>
      </trkpt>
      <trkpt lat="47.75241" lon="1.88939">
        <ele>121</ele>
        <time>2017-11-08T14:02:25Z</time>
      </trkpt>
      <trkpt lat="47.75241" lon="1.88931">
        <ele>121</ele>
        <time>2017-11-08T14:02:26Z</time>
      </trkpt>
      <trkpt lat="47.7524" lon="1.88923">
        <ele>121</ele>
        <time>2017-11-08T14:02:27Z</time>
      </trkpt>
      <trkpt lat="47.7524" lon="1.88915">
        <ele>121</ele>
        <time>2017-11-08T14:02:28Z</time>
      </trkpt>
      <trkpt lat="47.75239" lon="1.88907">
        <ele>121</ele>
        <time>2017-11-08T14:02:29Z</time>
      </trkpt>
      <trkpt lat="47.75238" lon="1.88899">
        <ele>120</ele>
        <time>2017-11-08T14:02:30Z</time>
      </trkpt>
      <trkpt lat="47.75238" lon="1.88891">
        <ele>120</ele>
        <time>2017-11-08T14:02:31Z</time>
      </trkpt>
      <trkpt lat="47.75237" lon="1.88883">
        <ele>120</ele>
        <time>2017-11-08T14:02:32Z</time>
      </trkpt>
      <trkpt lat="47.75236" lon="1.88875">
        <ele>120</ele>
        <time>2017-11-08T14:02:33Z</time>
      </trkpt>
      <trkpt lat="47.75235" lon="1.88868">
        <ele>120</ele>
        <time>2017-11-08T14:02:34Z</time>
      </trkpt>
      <trkpt lat="47.75235" lon="1.8886">
        <ele>120</ele>
        <time>2017-11-08T14:02:35Z</time>
      </trkpt>
      <trkpt lat="47.75234" lon="1.88853">
        <ele>120</ele>
        <time>2017-11-08T14:02:36Z</time>
      </trkpt>
      <trkpt lat="47.75234" lon="1.88846">
        <ele>120</ele>
        <time>2017-11-08T14:02:37Z</time>
      </trkpt>
      <trkpt lat="47.75234" lon="1.8884">
        <ele>120</ele>
        <time>2017-11-08T14:02:38Z</time>
      </trkpt>
      <trkpt lat="47.75234" lon="1.88834">
        <ele>120</ele>
        <time>2017-11-08T14:02:39Z</time>
      </trkpt>
      <trkpt lat="47.75234" lon="1.88827">
        <ele>120</ele>
        <time>2017-11-08T14:02:40Z</time>
      </trkpt>
      <trkpt lat="47.75234" lon="1.88821">
        <ele>120</ele>
        <time>2017-11-08T14:02:41Z</time>
      </trkpt>
      <trkpt lat="47.75234" lon="1.88815">
        <ele>120</ele>
        <time>2017-11-08T14:02:42Z</time>
      </trkpt>
      <trkpt lat="47.75235" lon="1.88808">
        <ele>120</ele>
        <time>2017-11-08T14:02:43Z</time>
      </trkpt>
      <trkpt lat="47.75235" lon="1.888">
        <ele>120</ele>
        <time>2017-11-08T14:02:44Z</time>
      </trkpt>
      <trkpt lat="47.75236" lon="1.88794">
        <ele>120</ele>
        <time>2017-11-08T14:02:45Z</time>
      </trkpt>
      <trkpt lat="47.75237" lon="1.88788">
        <ele>120</ele>
        <time>2017-11-08T14:02:46Z</time>
      </trkpt>
      <trkpt lat="47.75238" lon="1.88782">
        <ele>121</ele>
        <time>2017-11-08T14:02:47Z</time>
      </trkpt>
      <trkpt lat="47.75238" lon="1.88776">
        <ele>121</ele>
        <time>2017-11-08T14:02:48Z</time>
      </trkpt>
      <trkpt lat="47.75239" lon="1.8877">
        <ele>121</ele>
        <time>2017-11-08T14:02:49Z</time>
      </trkpt>
      <trkpt lat="47.7524" lon="1.88763">
        <ele>121</ele>
        <time>2017-11-08T14:02:50Z</time>
      </trkpt>
      <trkpt lat="47.75241" lon="1.88755">
        <ele>122</ele>
        <time>2017-11-08T14:02:51Z</time>
      </trkpt>
      <trkpt lat="47.75242" lon="1.88749">
        <ele>122</ele>
        <time>2017-11-08T14:02:52Z</time>
      </trkpt>
      <trkpt lat="47.75242" lon="1.88742">
        <ele>122</ele>
        <time>2017-11-08T14:02:53Z</time>
      </trkpt>
      <trkpt lat="47.75242" lon="1.88736">
        <ele>122</ele>
        <time>2017-11-08T14:02:54Z</time>
      </trkpt>
      <trkpt lat="47.75243" lon="1.8873">
        <ele>122</ele>
        <time>2017-11-08T14:02:55Z</time>
      </trkpt>
      <trkpt lat="47.75243" lon="1.88724">
        <ele>122</ele>
        <time>2017-11-08T14:02:56Z</time>
      </trkpt>
      <trkpt lat="47.75243" lon="1.88718">
        <ele>122</ele>
        <time>2017-11-08T14:02:57Z</time>
      </trkpt>
      <trkpt lat="47.75243" lon="1.88712">
        <ele>122</ele>
        <time>2017-11-08T14:02:58Z</time>
      </trkpt>
      <trkpt lat="47.75244" lon="1.88706">
        <ele>122</ele>
        <time>2017-11-08T14:02:59Z</time>
      </trkpt>
      <trkpt lat="47.75246" lon="1.88702">
        <ele>122</ele>
        <time>2017-11-08T14:03:00Z</time>
      </trkpt>
      <trkpt lat="47.75249" lon="1.88698">
        <ele>123</ele>
        <time>2017-11-08T14:03:01Z</time>
      </trkpt>
      <trkpt lat="47.75254" lon="1.88695">
        <ele>124</ele>
        <time>2017-11-08T14:03:02Z</time>
      </trkpt>
      <trkpt lat="47.75259" lon="1.88691">
        <ele>124</ele>
        <time>2017-11-08T14:03:03Z</time>
      </trkpt>
      <trkpt lat="47.75263" lon="1.88688">
        <ele>124</ele>
        <time>2017-11-08T14:03:04Z</time>
      </trkpt>
      <trkpt lat="47.75268" lon="1.88685">
        <ele>124</ele>
        <time>2017-11-08T14:03:05Z</time>
      </trkpt>
      <trkpt lat="47.75272" lon="1.88683">
        <ele>124</ele>
        <time>2017-11-08T14:03:06Z</time>
      </trkpt>
      <trkpt lat="47.75276" lon="1.8868">
        <ele>124</ele>
        <time>2017-11-08T14:03:07Z</time>
      </trkpt>
      <trkpt lat="47.75281" lon="1.88678">
        <ele>124</ele>
        <time>2017-11-08T14:03:08Z</time>
      </trkpt>
      <trkpt lat="47.75285" lon="1.88675">
        <ele>124</ele>
        <time>2017-11-08T14:03:09Z</time>
      </trkpt>
      <trkpt lat="47.75288" lon="1.88673">
        <ele>125</ele>
        <time>2017-11-08T14:03:10Z</time>
      </trkpt>
      <trkpt lat="47.75292" lon="1.88671">
        <ele>125</ele>
        <time>2017-11-08T14:03:11Z</time>
      </trkpt>
      <trkpt lat="47.75296" lon="1.88668">
        <ele>125</ele>
        <time>2017-11-08T14:03:12Z</time>
      </trkpt>
      <trkpt lat="47.753" lon="1.88666">
        <ele>125</ele>
        <time>2017-11-08T14:03:13Z</time>
      </trkpt>
      <trkpt lat="47.75304" lon="1.88663">
        <ele>125</ele>
        <time>2017-11-08T14:03:14Z</time>
      </trkpt>
      <trkpt lat="47.75309" lon="1.8866">
        <ele>125</ele>
        <time>2017-11-08T14:03:15Z</time>
      </trkpt>
      <trkpt lat="47.75314" lon="1.88657">
        <ele>125</ele>
        <time>2017-11-08T14:03:16Z</time>
      </trkpt>
      <trkpt lat="47.75319" lon="1.88654">
        <ele>125</ele>
        <time>2017-11-08T14:03:17Z</time>
      </trkpt>
      <trkpt lat="47.75323" lon="1.88651">
        <ele>125</ele>
        <time>2017-11-08T14:03:18Z</time>
      </trkpt>
      <trkpt lat="47.75328" lon="1.88648">
        <ele>125</ele>
        <time>2017-11-08T14:03:19Z</time>
      </trkpt>
      <trkpt lat="47.75333" lon="1.88645">
        <ele>125</ele>
        <time>2017-11-08T14:03:20Z</time>
      </trkpt>
      <trkpt lat="47.75337" lon="1.88643">
        <ele>125</ele>
        <time>2017-11-08T14:03:21Z</time>
      </trkpt>
      <trkpt lat="47.75342" lon="1.8864">
        <ele>125</ele>
        <time>2017-11-08T14:03:22Z</time>
      </trkpt>
      <trkpt lat="47.75347" lon="1.88637">
        <ele>124</ele>
        <time>2017-11-08T14:03:23Z</time>
      </trkpt>
      <trkpt lat="47.75351" lon="1.88634">
        <ele>124</ele>
        <time>2017-11-08T14:03:24Z</time>
      </trkpt>
      <trkpt lat="47.75356" lon="1.88631">
        <ele>124</ele>
        <time>2017-11-08T14:03:25Z</time>
      </trkpt>
      <trkpt lat="47.7536" lon="1.88628">
        <ele>124</ele>
        <time>2017-11-08T14:03:26Z</time>
      </trkpt>
      <trkpt lat="47.75363" lon="1.88625">
        <ele>124</ele>
        <time>2017-11-08T14:03:27Z</time>
      </trkpt>
      <trkpt lat="47.75367" lon="1.88622">
        <ele>124</ele>
        <time>2017-11-08T14:03:28Z</time>
      </trkpt>
      <trkpt lat="47.75372" lon="1.88619">
        <ele>124</ele>
        <time>2017-11-08T14:03:29Z</time>
      </trkpt>
      <trkpt lat="47.75377" lon="1.88616">
        <ele>124</ele>
        <time>2017-11-08T14:03:30Z</time>
      </trkpt>
      <trkpt lat="47.75382" lon="1.88612">
        <ele>124</ele>
        <time>2017-11-08T14:03:31Z</time>
      </trkpt>
      <trkpt lat="47.75387" lon="1.88609">
        <ele>124</ele>
        <time>2017-11-08T14:03:32Z</time>
      </trkpt>
      <trkpt lat="47.75391" lon="1.88606">
        <ele>124</ele>
        <time>2017-11-08T14:03:33Z</time>
      </trkpt>
      <trkpt lat="47.75396" lon="1.88604">
        <ele>124</ele>
        <time>2017-11-08T14:03:34Z</time>
      </trkpt>
      <trkpt lat="47.75401" lon="1.88601">
        <ele>124</ele>
        <time>2017-11-08T14:03:35Z</time>
      </trkpt>
      <trkpt lat="47.75406" lon="1.88599">
        <ele>124</ele>
        <time>2017-11-08T14:03:36Z</time>
      </trkpt>
      <trkpt lat="47.75411" lon="1.88596">
        <ele>124</ele>
        <time>2017-11-08T14:03:37Z</time>
      </trkpt>
      <trkpt lat="47.75415" lon="1.88594">
        <ele>124</ele>
        <time>2017-11-08T14:03:38Z</time>
      </trkpt>
      <trkpt lat="47.7542" lon="1.88591">
        <ele>124</ele>
        <time>2017-11-08T14:03:39Z</time>
      </trkpt>
      <trkpt lat="47.75425" lon="1.8859">
        <ele>124</ele>
        <time>2017-11-08T14:03:40Z</time>
      </trkpt>
      <trkpt lat="47.7543" lon="1.88587">
        <ele>124</ele>
        <time>2017-11-08T14:03:41Z</time>
      </trkpt>
      <trkpt lat="47.75435" lon="1.88585">
        <ele>124</ele>
        <time>2017-11-08T14:03:42Z</time>
      </trkpt>
      <trkpt lat="47.75439" lon="1.88582">
        <ele>124</ele>
        <time>2017-11-08T14:03:43Z</time>
      </trkpt>
      <trkpt lat="47.75444" lon="1.8858">
        <ele>124</ele>
        <time>2017-11-08T14:03:44Z</time>
      </trkpt>
      <trkpt lat="47.75449" lon="1.88578">
        <ele>124</ele>
        <time>2017-11-08T14:03:45Z</time>
      </trkpt>
      <trkpt lat="47.75453" lon="1.88575">
        <ele>124</ele>
        <time>2017-11-08T14:03:46Z</time>
      </trkpt>
      <trkpt lat="47.75457" lon="1.88572">
        <ele>124</ele>
        <time>2017-11-08T14:03:47Z</time>
      </trkpt>
      <trkpt lat="47.75461" lon="1.88569">
        <ele>124</ele>
        <time>2017-11-08T14:03:48Z</time>
      </trkpt>
      <trkpt lat="47.75465" lon="1.88566">
        <ele>124</ele>
        <time>2017-11-08T14:03:49Z</time>
      </trkpt>
      <trkpt lat="47.75469" lon="1.88562">
        <ele>124</ele>
        <time>2017-11-08T14:03:50Z</time>
      </trkpt>
      <trkpt lat="47.75472" lon="1.8856">
        <ele>124</ele>
        <time>2017-11-08T14:03:51Z</time>
      </trkpt>
      <trkpt lat="47.75477" lon="1.88557">
        <ele>124</ele>
        <time>2017-11-08T14:03:52Z</time>
      </trkpt>
      <trkpt lat="47.75481" lon="1.88554">
        <ele>124</ele>
        <time>2017-11-08T14:03:53Z</time>
      </trkpt>
      <trkpt lat="47.75485" lon="1.88551">
        <ele>124</ele>
        <time>2017-11-08T14:03:54Z</time>
      </trkpt>
      <trkpt lat="47.75489" lon="1.88549">
        <ele>124</ele>
        <time>2017-11-08T14:03:55Z</time>
      </trkpt>
      <trkpt lat="47.75494" lon="1.88546">
        <ele>124</ele>
        <time>2017-11-08T14:03:56Z</time>
      </trkpt>
      <trkpt lat="47.75498" lon="1.88543">
        <ele>124</ele>
        <time>2017-11-08T14:03:57Z</time>
      </trkpt>
      <trkpt lat="47.75501" lon="1.8854">
        <ele>123</ele>
        <time>2017-11-08T14:03:58Z</time>
      </trkpt>
      <trkpt lat="47.75505" lon="1.88537">
        <ele>123</ele>
        <time>2017-11-08T14:03:59Z</time>
      </trkpt>
      <trkpt lat="47.75509" lon="1.88534">
        <ele>123</ele>
        <time>2017-11-08T14:04:00Z</time>
      </trkpt>
      <trkpt lat="47.75513" lon="1.88533">
        <ele>123</ele>
        <time>2017-11-08T14:04:01Z</time>
      </trkpt>
      <trkpt lat="47.75517" lon="1.88531">
        <ele>123</ele>
        <time>2017-11-08T14:04:02Z</time>
      </trkpt>
      <trkpt lat="47.75521" lon="1.88529">
        <ele>123</ele>
        <time>2017-11-08T14:04:03Z</time>
      </trkpt>
      <trkpt lat="47.75525" lon="1.88526">
        <ele>123</ele>
        <time>2017-11-08T14:04:04Z</time>
      </trkpt>
      <trkpt lat="47.7553" lon="1.88524">
        <ele>122</ele>
        <time>2017-11-08T14:04:05Z</time>
      </trkpt>
      <trkpt lat="47.75534" lon="1.88521">
        <ele>122</ele>
        <time>2017-11-08T14:04:06Z</time>
      </trkpt>
      <trkpt lat="47.75538" lon="1.88518">
        <ele>122</ele>
        <time>2017-11-08T14:04:07Z</time>
      </trkpt>
      <trkpt lat="47.75543" lon="1.88515">
        <ele>122</ele>
        <time>2017-11-08T14:04:08Z</time>
      </trkpt>
      <trkpt lat="47.75548" lon="1.88512">
        <ele>122</ele>
        <time>2017-11-08T14:04:09Z</time>
      </trkpt>
      <trkpt lat="47.75552" lon="1.88509">
        <ele>122</ele>
        <time>2017-11-08T14:04:10Z</time>
      </trkpt>
      <trkpt lat="47.75557" lon="1.88506">
        <ele>122</ele>
        <time>2017-11-08T14:04:11Z</time>
      </trkpt>
      <trkpt lat="47.75562" lon="1.88504">
        <ele>122</ele>
        <time>2017-11-08T14:04:12Z</time>
      </trkpt>
      <trkpt lat="47.75567" lon="1.88502">
        <ele>122</ele>
        <time>2017-11-08T14:04:13Z</time>
      </trkpt>
      <trkpt lat="47.75572" lon="1.88499">
        <ele>122</ele>
        <time>2017-11-08T14:04:14Z</time>
      </trkpt>
      <trkpt lat="47.75576" lon="1.88497">
        <ele>122</ele>
        <time>2017-11-08T14:04:15Z</time>
      </trkpt>
      <trkpt lat="47.75581" lon="1.88495">
        <ele>122</ele>
        <time>2017-11-08T14:04:16Z</time>
      </trkpt>
      <trkpt lat="47.75586" lon="1.88493">
        <ele>122</ele>
        <time>2017-11-08T14:04:17Z</time>
      </trkpt>
      <trkpt lat="47.75591" lon="1.88491">
        <ele>121</ele>
        <time>2017-11-08T14:04:18Z</time>
      </trkpt>
      <trkpt lat="47.75594" lon="1.88489">
        <ele>121</ele>
        <time>2017-11-08T14:04:19Z</time>
      </trkpt>
      <trkpt lat="47.75598" lon="1.88487">
        <ele>121</ele>
        <time>2017-11-08T14:04:20Z</time>
      </trkpt>
      <trkpt lat="47.75603" lon="1.88484">
        <ele>121</ele>
        <time>2017-11-08T14:04:21Z</time>
      </trkpt>
      <trkpt lat="47.75607" lon="1.88481">
        <ele>121</ele>
        <time>2017-11-08T14:04:22Z</time>
      </trkpt>
      <trkpt lat="47.75612" lon="1.88477">
        <ele>121</ele>
        <time>2017-11-08T14:04:23Z</time>
      </trkpt>
      <trkpt lat="47.75615" lon="1.88474">
        <ele>121</ele>
        <time>2017-11-08T14:04:24Z</time>
      </trkpt>
      <trkpt lat="47.7562" lon="1.88471">
        <ele>120</ele>
        <time>2017-11-08T14:04:25Z</time>
      </trkpt>
      <trkpt lat="47.75626" lon="1.88468">
        <ele>120</ele>
        <time>2017-11-08T14:04:26Z</time>
      </trkpt>
      <trkpt lat="47.7563" lon="1.88464">
        <ele>120</ele>
        <time>2017-11-08T14:04:27Z</time>
      </trkpt>
      <trkpt lat="47.75633" lon="1.88461">
        <ele>120</ele>
        <time>2017-11-08T14:04:28Z</time>
      </trkpt>
      <trkpt lat="47.75637" lon="1.88461">
        <ele>120</ele>
        <time>2017-11-08T14:04:29Z</time>
      </trkpt>
      <trkpt lat="47.75642" lon="1.88463">
        <ele>120</ele>
        <time>2017-11-08T14:04:30Z</time>
      </trkpt>
      <trkpt lat="47.75646" lon="1.88465">
        <ele>120</ele>
        <time>2017-11-08T14:04:31Z</time>
      </trkpt>
      <trkpt lat="47.7565" lon="1.88467">
        <ele>120</ele>
        <time>2017-11-08T14:04:32Z</time>
      </trkpt>
      <trkpt lat="47.75653" lon="1.88469">
        <ele>120</ele>
        <time>2017-11-08T14:04:33Z</time>
      </trkpt>
      <trkpt lat="47.75656" lon="1.8847">
        <ele>120</ele>
        <time>2017-11-08T14:04:34Z</time>
      </trkpt>
      <trkpt lat="47.75659" lon="1.88472">
        <ele>120</ele>
        <time>2017-11-08T14:04:35Z</time>
      </trkpt>
      <trkpt lat="47.75663" lon="1.88473">
        <ele>120</ele>
        <time>2017-11-08T14:04:36Z</time>
      </trkpt>
      <trkpt lat="47.75667" lon="1.88473">
        <ele>119</ele>
        <time>2017-11-08T14:04:37Z</time>
      </trkpt>
      <trkpt lat="47.7567" lon="1.88474">
        <ele>119</ele>
        <time>2017-11-08T14:04:38Z</time>
      </trkpt>
      <trkpt lat="47.75674" lon="1.88475">
        <ele>119</ele>
        <time>2017-11-08T14:04:39Z</time>
      </trkpt>
      <trkpt lat="47.75677" lon="1.88477">
        <ele>119</ele>
        <time>2017-11-08T14:04:40Z</time>
      </trkpt>
      <trkpt lat="47.75681" lon="1.8848">
        <ele>119</ele>
        <time>2017-11-08T14:04:41Z</time>
      </trkpt>
      <trkpt lat="47.75684" lon="1.88483">
        <ele>119</ele>
        <time>2017-11-08T14:04:42Z</time>
      </trkpt>
      <trkpt lat="47.75688" lon="1.88484">
        <ele>119</ele>
        <time>2017-11-08T14:04:43Z</time>
      </trkpt>
      <trkpt lat="47.75691" lon="1.88486">
        <ele>119</ele>
        <time>2017-11-08T14:04:44Z</time>
      </trkpt>
      <trkpt lat="47.75695" lon="1.88488">
        <ele>119</ele>
        <time>2017-11-08T14:04:45Z</time>
      </trkpt>
      <trkpt lat="47.75698" lon="1.8849">
        <ele>119</ele>
        <time>2017-11-08T14:04:46Z</time>
      </trkpt>
      <trkpt lat="47.75701" lon="1.88492">
        <ele>119</ele>
        <time>2017-11-08T14:04:47Z</time>
      </trkpt>
      <trkpt lat="47.75706" lon="1.88495">
        <ele>119</ele>
        <time>2017-11-08T14:04:48Z</time>
      </trkpt>
      <trkpt lat="47.7571" lon="1.88498">
        <ele>119</ele>
        <time>2017-11-08T14:04:49Z</time>
      </trkpt>
      <trkpt lat="47.75714" lon="1.885">
        <ele>119</ele>
        <time>2017-11-08T14:04:50Z</time>
      </trkpt>
      <trkpt lat="47.75719" lon="1.88503">
        <ele>120</ele>
        <time>2017-11-08T14:04:51Z</time>
      </trkpt>
      <trkpt lat="47.75723" lon="1.88505">
        <ele>120</ele>
        <time>2017-11-08T14:04:52Z</time>
      </trkpt>
      <trkpt lat="47.75727" lon="1.88508">
        <ele>120</ele>
        <time>2017-11-08T14:04:53Z</time>
      </trkpt>
      <trkpt lat="47.75731" lon="1.88511">
        <ele>120</ele>
        <time>2017-11-08T14:04:54Z</time>
      </trkpt>
      <trkpt lat="47.75734" lon="1.88514">
        <ele>120</ele>
        <time>2017-11-08T14:04:55Z</time>
      </trkpt>
      <trkpt lat="47.75739" lon="1.88518">
        <ele>120</ele>
        <time>2017-11-08T14:04:56Z</time>
      </trkpt>
      <trkpt lat="47.75743" lon="1.88521">
        <ele>120</ele>
        <time>2017-11-08T14:04:57Z</time>
      </trkpt>
      <trkpt lat="47.75747" lon="1.88523">
        <ele>120</ele>
        <time>2017-11-08T14:04:58Z</time>
      </trkpt>
      <trkpt lat="47.75752" lon="1.88527">
        <ele>120</ele>
        <time>2017-11-08T14:04:59Z</time>
      </trkpt>
      <trkpt lat="47.75759" lon="1.88531">
        <ele>120</ele>
        <time>2017-11-08T14:05:00Z</time>
      </trkpt>
      <trkpt lat="47.75765" lon="1.88535">
        <ele>120</ele>
        <time>2017-11-08T14:05:01Z</time>
      </trkpt>
      <trkpt lat="47.75768" lon="1.88537">
        <ele>120</ele>
        <time>2017-11-08T14:05:02Z</time>
      </trkpt>
      <trkpt lat="47.75771" lon="1.8854">
        <ele>120</ele>
        <time>2017-11-08T14:05:03Z</time>
      </trkpt>
      <trkpt lat="47.75776" lon="1.88543">
        <ele>120</ele>
        <time>2017-11-08T14:05:04Z</time>
      </trkpt>
      <trkpt lat="47.75782" lon="1.88546">
        <ele>120</ele>
        <time>2017-11-08T14:05:05Z</time>
      </trkpt>
      <trkpt lat="47.75787" lon="1.8855">
        <ele>120</ele>
        <time>2017-11-08T14:05:06Z</time>
      </trkpt>
      <trkpt lat="47.75793" lon="1.88555">
        <ele>121</ele>
        <time>2017-11-08T14:05:07Z</time>
      </trkpt>
      <trkpt lat="47.75799" lon="1.88559">
        <ele>121</ele>
        <time>2017-11-08T14:05:08Z</time>
      </trkpt>
      <trkpt lat="47.75803" lon="1.88562">
        <ele>121</ele>
        <time>2017-11-08T14:05:09Z</time>
      </trkpt>
      <trkpt lat="47.75808" lon="1.88565">
        <ele>121</ele>
        <time>2017-11-08T14:05:10Z</time>
      </trkpt>
      <trkpt lat="47.75812" lon="1.88568">
        <ele>121</ele>
        <time>2017-11-08T14:05:11Z</time>
      </trkpt>
      <trkpt lat="47.75816" lon="1.8857">
        <ele>121</ele>
        <time>2017-11-08T14:05:12Z</time>
      </trkpt>
      <trkpt lat="47.75818" lon="1.88571">
        <ele>121</ele>
        <time>2017-11-08T14:05:13Z</time>
      </trkpt>
      <trkpt lat="47.75821" lon="1.88572">
        <ele>122</ele>
        <time>2017-11-08T14:05:14Z</time>
      </trkpt>
      <trkpt lat="47.75825" lon="1.88573">
        <ele>122</ele>
        <time>2017-11-08T14:05:15Z</time>
      </trkpt>
      <trkpt lat="47.75828" lon="1.88573">
        <ele>122</ele>
        <time>2017-11-08T14:05:16Z</time>
      </trkpt>
      <trkpt lat="47.75831" lon="1.88574">
        <ele>122</ele>
        <time>2017-11-08T14:05:17Z</time>
      </trkpt>
      <trkpt lat="47.75834" lon="1.88576">
        <ele>122</ele>
        <time>2017-11-08T14:05:18Z</time>
      </trkpt>
      <trkpt lat="47.75837" lon="1.88577">
        <ele>122</ele>
        <time>2017-11-08T14:05:19Z</time>
      </trkpt>
      <trkpt lat="47.75842" lon="1.8858">
        <ele>122</ele>
        <time>2017-11-08T14:05:21Z</time>
      </trkpt>
      <trkpt lat="47.75844" lon="1.88583">
        <ele>122</ele>
        <time>2017-11-08T14:05:22Z</time>
      </trkpt>
      <trkpt lat="47.75847" lon="1.88586">
        <ele>123</ele>
        <time>2017-11-08T14:05:23Z</time>
      </trkpt>
      <trkpt lat="47.7585" lon="1.88588">
        <ele>123</ele>
        <time>2017-11-08T14:05:24Z</time>
      </trkpt>
      <trkpt lat="47.75855" lon="1.88592">
        <ele>123</ele>
        <time>2017-11-08T14:05:26Z</time>
      </trkpt>
      <trkpt lat="47.75858" lon="1.88594">
        <ele>123</ele>
        <time>2017-11-08T14:05:27Z</time>
      </trkpt>
      <trkpt lat="47.7586" lon="1.88596">
        <ele>123</ele>
        <time>2017-11-08T14:05:28Z</time>
      </trkpt>
      <trkpt lat="47.75863" lon="1.88598">
        <ele>123</ele>
        <time>2017-11-08T14:05:29Z</time>
      </trkpt>
      <trkpt lat="47.75866" lon="1.88601">
        <ele>123</ele>
        <time>2017-11-08T14:05:30Z</time>
      </trkpt>
      <trkpt lat="47.75869" lon="1.88603">
        <ele>123</ele>
        <time>2017-11-08T14:05:31Z</time>
      </trkpt>
      <trkpt lat="47.75872" lon="1.88607">
        <ele>123</ele>
        <time>2017-11-08T14:05:32Z</time>
      </trkpt>
      <trkpt lat="47.75874" lon="1.88609">
        <ele>123</ele>
        <time>2017-11-08T14:05:33Z</time>
      </trkpt>
      <trkpt lat="47.75877" lon="1.88612">
        <ele>123</ele>
        <time>2017-11-08T14:05:34Z</time>
      </trkpt>
      <trkpt lat="47.7588" lon="1.88614">
        <ele>123</ele>
        <time>2017-11-08T14:05:35Z</time>
      </trkpt>
      <trkpt lat="47.75884" lon="1.88616">
        <ele>123</ele>
        <time>2017-11-08T14:05:36Z</time>
      </trkpt>
      <trkpt lat="47.75886" lon="1.88617">
        <ele>123</ele>
        <time>2017-11-08T14:05:37Z</time>
      </trkpt>
      <trkpt lat="47.7589" lon="1.88619">
        <ele>123</ele>
        <time>2017-11-08T14:05:38Z</time>
      </trkpt>
      <trkpt lat="47.75893" lon="1.88624">
        <ele>123</ele>
        <time>2017-11-08T14:05:39Z</time>
      </trkpt>
      <trkpt lat="47.75895" lon="1.88628">
        <ele>123</ele>
        <time>2017-11-08T14:05:40Z</time>
      </trkpt>
      <trkpt lat="47.75897" lon="1.88633">
        <ele>123</ele>
        <time>2017-11-08T14:05:41Z</time>
      </trkpt>
      <trkpt lat="47.75899" lon="1.88637">
        <ele>123</ele>
        <time>2017-11-08T14:05:42Z</time>
      </trkpt>
      <trkpt lat="47.759" lon="1.88641">
        <ele>123</ele>
        <time>2017-11-08T14:05:43Z</time>
      </trkpt>
      <trkpt lat="47.75901" lon="1.88645">
        <ele>123</ele>
        <time>2017-11-08T14:05:44Z</time>
      </trkpt>
      <trkpt lat="47.75902" lon="1.88652">
        <ele>123</ele>
        <time>2017-11-08T14:05:45Z</time>
      </trkpt>
      <trkpt lat="47.75902" lon="1.88659">
        <ele>123</ele>
        <time>2017-11-08T14:05:47Z</time>
      </trkpt>
      <trkpt lat="47.75904" lon="1.88664">
        <ele>122</ele>
        <time>2017-11-08T14:05:49Z</time>
      </trkpt>
      <trkpt lat="47.75903" lon="1.88672">
        <ele>123</ele>
        <time>2017-11-08T14:05:50Z</time>
      </trkpt>
      <trkpt lat="47.75903" lon="1.8868">
        <ele>123</ele>
        <time>2017-11-08T14:05:51Z</time>
      </trkpt>
      <trkpt lat="47.75903" lon="1.8869">
        <ele>123</ele>
        <time>2017-11-08T14:05:53Z</time>
      </trkpt>
      <trkpt lat="47.75903" lon="1.88695">
        <ele>123</ele>
        <time>2017-11-08T14:05:54Z</time>
      </trkpt>
      <trkpt lat="47.75905" lon="1.887">
        <ele>123</ele>
        <time>2017-11-08T14:05:55Z</time>
      </trkpt>
      <trkpt lat="47.75909" lon="1.88707">
        <ele>123</ele>
        <time>2017-11-08T14:05:56Z</time>
      </trkpt>
      <trkpt lat="47.75915" lon="1.8871">
        <ele>123</ele>
        <time>2017-11-08T14:05:57Z</time>
      </trkpt>
      <trkpt lat="47.75919" lon="1.8871">
        <ele>121</ele>
        <time>2017-11-08T14:05:58Z</time>
      </trkpt>
      <trkpt lat="47.75924" lon="1.88711">
        <ele>121</ele>
        <time>2017-11-08T14:05:59Z</time>
      </trkpt>
      <trkpt lat="47.7593" lon="1.88711">
        <ele>121</ele>
        <time>2017-11-08T14:06:00Z</time>
      </trkpt>
      <trkpt lat="47.75934" lon="1.88713">
        <ele>121</ele>
        <time>2017-11-08T14:06:01Z</time>
      </trkpt>
      <trkpt lat="47.75938" lon="1.88715">
        <ele>120</ele>
        <time>2017-11-08T14:06:02Z</time>
      </trkpt>
      <trkpt lat="47.75941" lon="1.88716">
        <ele>120</ele>
        <time>2017-11-08T14:06:03Z</time>
      </trkpt>
      <trkpt lat="47.75945" lon="1.88718">
        <ele>120</ele>
        <time>2017-11-08T14:06:04Z</time>
      </trkpt>
      <trkpt lat="47.75951" lon="1.88718">
        <ele>120</ele>
        <time>2017-11-08T14:06:06Z</time>
      </trkpt>
      <trkpt lat="47.75953" lon="1.8872">
        <ele>120</ele>
        <time>2017-11-08T14:06:07Z</time>
      </trkpt>
      <trkpt lat="47.75957" lon="1.88721">
        <ele>120</ele>
        <time>2017-11-08T14:06:09Z</time>
      </trkpt>
      <trkpt lat="47.7596" lon="1.88723">
        <ele>120</ele>
        <time>2017-11-08T14:06:10Z</time>
      </trkpt>
      <trkpt lat="47.75962" lon="1.88725">
        <ele>120</ele>
        <time>2017-11-08T14:06:11Z</time>
      </trkpt>
      <trkpt lat="47.75966" lon="1.88726">
        <ele>120</ele>
        <time>2017-11-08T14:06:12Z</time>
      </trkpt>
      <trkpt lat="47.75969" lon="1.88728">
        <ele>120</ele>
        <time>2017-11-08T14:06:13Z</time>
      </trkpt>
      <trkpt lat="47.75972" lon="1.88729">
        <ele>120</ele>
        <time>2017-11-08T14:06:14Z</time>
      </trkpt>
      <trkpt lat="47.75976" lon="1.8873">
        <ele>120</ele>
        <time>2017-11-08T14:06:15Z</time>
      </trkpt>
      <trkpt lat="47.7598" lon="1.88732">
        <ele>120</ele>
        <time>2017-11-08T14:06:16Z</time>
      </trkpt>
      <trkpt lat="47.75983" lon="1.88733">
        <ele>120</ele>
        <time>2017-11-08T14:06:17Z</time>
      </trkpt>
      <trkpt lat="47.75986" lon="1.88735">
        <ele>120</ele>
        <time>2017-11-08T14:06:18Z</time>
      </trkpt>
      <trkpt lat="47.75989" lon="1.88736">
        <ele>119</ele>
        <time>2017-11-08T14:06:19Z</time>
      </trkpt>
      <trkpt lat="47.75992" lon="1.88738">
        <ele>119</ele>
        <time>2017-11-08T14:06:20Z</time>
      </trkpt>
      <trkpt lat="47.75995" lon="1.88739">
        <ele>119</ele>
        <time>2017-11-08T14:06:21Z</time>
      </trkpt>
      <trkpt lat="47.75998" lon="1.8874">
        <ele>119</ele>
        <time>2017-11-08T14:06:22Z</time>
      </trkpt>
      <trkpt lat="47.76001" lon="1.88742">
        <ele>119</ele>
        <time>2017-11-08T14:06:23Z</time>
      </trkpt>
      <trkpt lat="47.76004" lon="1.88743">
        <ele>119</ele>
        <time>2017-11-08T14:06:24Z</time>
      </trkpt>
      <trkpt lat="47.76007" lon="1.88745">
        <ele>119</ele>
        <time>2017-11-08T14:06:25Z</time>
      </trkpt>
      <trkpt lat="47.7601" lon="1.88746">
        <ele>119</ele>
        <time>2017-11-08T14:06:26Z</time>
      </trkpt>
      <trkpt lat="47.76013" lon="1.88747">
        <ele>119</ele>
        <time>2017-11-08T14:06:27Z</time>
      </trkpt>
      <trkpt lat="47.76016" lon="1.88749">
        <ele>119</ele>
        <time>2017-11-08T14:06:28Z</time>
      </trkpt>
      <trkpt lat="47.76019" lon="1.88751">
        <ele>120</ele>
        <time>2017-11-08T14:06:29Z</time>
      </trkpt>
      <trkpt lat="47.76023" lon="1.88752">
        <ele>120</ele>
        <time>2017-11-08T14:06:30Z</time>
      </trkpt>
      <trkpt lat="47.76026" lon="1.88754">
        <ele>120</ele>
        <time>2017-11-08T14:06:31Z</time>
      </trkpt>
      <trkpt lat="47.7603" lon="1.88756">
        <ele>120</ele>
        <time>2017-11-08T14:06:32Z</time>
      </trkpt>
      <trkpt lat="47.76033" lon="1.88757">
        <ele>120</ele>
        <time>2017-11-08T14:06:33Z</time>
      </trkpt>
      <trkpt lat="47.76036" lon="1.88758">
        <ele>120</ele>
        <time>2017-11-08T14:06:34Z</time>
      </trkpt>
      <trkpt lat="47.76039" lon="1.8876">
        <ele>120</ele>
        <time>2017-11-08T14:06:35Z</time>
      </trkpt>
      <trkpt lat="47.76042" lon="1.88761">
        <ele>120</ele>
        <time>2017-11-08T14:06:36Z</time>
      </trkpt>
      <trkpt lat="47.76045" lon="1.88763">
        <ele>120</ele>
        <time>2017-11-08T14:06:37Z</time>
      </trkpt>
      <trkpt lat="47.76048" lon="1.88764">
        <ele>120</ele>
        <time>2017-11-08T14:06:38Z</time>
      </trkpt>
      <trkpt lat="47.76051" lon="1.88766">
        <ele>120</ele>
        <time>2017-11-08T14:06:39Z</time>
      </trkpt>
      <trkpt lat="47.76054" lon="1.88769">
        <ele>120</ele>
        <time>2017-11-08T14:06:40Z</time>
      </trkpt>
      <trkpt lat="47.76058" lon="1.88771">
        <ele>120</ele>
        <time>2017-11-08T14:06:41Z</time>
      </trkpt>
      <trkpt lat="47.76063" lon="1.88773">
        <ele>120</ele>
        <time>2017-11-08T14:06:43Z</time>
      </trkpt>
      <trkpt lat="47.76066" lon="1.88775">
        <ele>120</ele>
        <time>2017-11-08T14:06:44Z</time>
      </trkpt>
      <trkpt lat="47.76071" lon="1.88779">
        <ele>120</ele>
        <time>2017-11-08T14:06:46Z</time>
      </trkpt>
      <trkpt lat="47.76075" lon="1.88781">
        <ele>120</ele>
        <time>2017-11-08T14:06:47Z</time>
      </trkpt>
      <trkpt lat="47.76078" lon="1.88784">
        <ele>120</ele>
        <time>2017-11-08T14:06:48Z</time>
      </trkpt>
      <trkpt lat="47.76082" lon="1.88785">
        <ele>120</ele>
        <time>2017-11-08T14:06:49Z</time>
      </trkpt>
      <trkpt lat="47.76085" lon="1.88787">
        <ele>120</ele>
        <time>2017-11-08T14:06:50Z</time>
      </trkpt>
      <trkpt lat="47.76089" lon="1.88789">
        <ele>120</ele>
        <time>2017-11-08T14:06:51Z</time>
      </trkpt>
      <trkpt lat="47.76092" lon="1.8879">
        <ele>120</ele>
        <time>2017-11-08T14:06:52Z</time>
      </trkpt>
      <trkpt lat="47.76096" lon="1.88792">
        <ele>120</ele>
        <time>2017-11-08T14:06:53Z</time>
      </trkpt>
      <trkpt lat="47.76099" lon="1.88795">
        <ele>120</ele>
        <time>2017-11-08T14:06:54Z</time>
      </trkpt>
      <trkpt lat="47.76102" lon="1.88798">
        <ele>120</ele>
        <time>2017-11-08T14:06:55Z</time>
      </trkpt>
      <trkpt lat="47.76105" lon="1.88799">
        <ele>120</ele>
        <time>2017-11-08T14:06:56Z</time>
      </trkpt>
      <trkpt lat="47.76109" lon="1.88802">
        <ele>120</ele>
        <time>2017-11-08T14:06:57Z</time>
      </trkpt>
      <trkpt lat="47.76113" lon="1.88805">
        <ele>120</ele>
        <time>2017-11-08T14:06:58Z</time>
      </trkpt>
      <trkpt lat="47.76117" lon="1.88807">
        <ele>120</ele>
        <time>2017-11-08T14:06:59Z</time>
      </trkpt>
      <trkpt lat="47.7612" lon="1.88809">
        <ele>120</ele>
        <time>2017-11-08T14:07:00Z</time>
      </trkpt>
      <trkpt lat="47.76124" lon="1.88811">
        <ele>120</ele>
        <time>2017-11-08T14:07:01Z</time>
      </trkpt>
      <trkpt lat="47.76128" lon="1.88812">
        <ele>120</ele>
        <time>2017-11-08T14:07:02Z</time>
      </trkpt>
      <trkpt lat="47.76132" lon="1.88814">
        <ele>120</ele>
        <time>2017-11-08T14:07:03Z</time>
      </trkpt>
      <trkpt lat="47.76136" lon="1.88816">
        <ele>120</ele>
        <time>2017-11-08T14:07:04Z</time>
      </trkpt>
      <trkpt lat="47.76141" lon="1.88817">
        <ele>120</ele>
        <time>2017-11-08T14:07:05Z</time>
      </trkpt>
      <trkpt lat="47.76146" lon="1.88818">
        <ele>120</ele>
        <time>2017-11-08T14:07:06Z</time>
      </trkpt>
      <trkpt lat="47.7615" lon="1.88819">
        <ele>120</ele>
        <time>2017-11-08T14:07:07Z</time>
      </trkpt>
      <trkpt lat="47.76155" lon="1.88821">
        <ele>120</ele>
        <time>2017-11-08T14:07:08Z</time>
      </trkpt>
      <trkpt lat="47.7616" lon="1.88822">
        <ele>120</ele>
        <time>2017-11-08T14:07:09Z</time>
      </trkpt>
      <trkpt lat="47.76165" lon="1.88823">
        <ele>120</ele>
        <time>2017-11-08T14:07:10Z</time>
      </trkpt>
      <trkpt lat="47.7617" lon="1.88826">
        <ele>119</ele>
        <time>2017-11-08T14:07:11Z</time>
      </trkpt>
      <trkpt lat="47.76175" lon="1.88828">
        <ele>119</ele>
        <time>2017-11-08T14:07:12Z</time>
      </trkpt>
      <trkpt lat="47.7618" lon="1.8883">
        <ele>119</ele>
        <time>2017-11-08T14:07:13Z</time>
      </trkpt>
      <trkpt lat="47.76184" lon="1.88832">
        <ele>119</ele>
        <time>2017-11-08T14:07:14Z</time>
      </trkpt>
      <trkpt lat="47.76189" lon="1.88834">
        <ele>119</ele>
        <time>2017-11-08T14:07:15Z</time>
      </trkpt>
      <trkpt lat="47.76194" lon="1.88836">
        <ele>119</ele>
        <time>2017-11-08T14:07:16Z</time>
      </trkpt>
      <trkpt lat="47.76198" lon="1.88838">
        <ele>119</ele>
        <time>2017-11-08T14:07:17Z</time>
      </trkpt>
      <trkpt lat="47.76202" lon="1.8884">
        <ele>119</ele>
        <time>2017-11-08T14:07:18Z</time>
      </trkpt>
      <trkpt lat="47.76207" lon="1.88842">
        <ele>119</ele>
        <time>2017-11-08T14:07:19Z</time>
      </trkpt>
      <trkpt lat="47.76212" lon="1.88844">
        <ele>119</ele>
        <time>2017-11-08T14:07:20Z</time>
      </trkpt>
      <trkpt lat="47.76216" lon="1.88845">
        <ele>118</ele>
        <time>2017-11-08T14:07:21Z</time>
      </trkpt>
      <trkpt lat="47.76221" lon="1.88847">
        <ele>118</ele>
        <time>2017-11-08T14:07:22Z</time>
      </trkpt>
      <trkpt lat="47.76226" lon="1.8885">
        <ele>118</ele>
        <time>2017-11-08T14:07:23Z</time>
      </trkpt>
      <trkpt lat="47.76231" lon="1.88852">
        <ele>118</ele>
        <time>2017-11-08T14:07:24Z</time>
      </trkpt>
      <trkpt lat="47.76236" lon="1.88854">
        <ele>118</ele>
        <time>2017-11-08T14:07:25Z</time>
      </trkpt>
      <trkpt lat="47.76241" lon="1.88856">
        <ele>118</ele>
        <time>2017-11-08T14:07:26Z</time>
      </trkpt>
      <trkpt lat="47.76246" lon="1.88859">
        <ele>118</ele>
        <time>2017-11-08T14:07:27Z</time>
      </trkpt>
      <trkpt lat="47.76251" lon="1.88861">
        <ele>117</ele>
        <time>2017-11-08T14:07:28Z</time>
      </trkpt>
      <trkpt lat="47.76256" lon="1.88864">
        <ele>117</ele>
        <time>2017-11-08T14:07:29Z</time>
      </trkpt>
      <trkpt lat="47.76261" lon="1.88866">
        <ele>117</ele>
        <time>2017-11-08T14:07:30Z</time>
      </trkpt>
      <trkpt lat="47.76264" lon="1.88868">
        <ele>117</ele>
        <time>2017-11-08T14:07:31Z</time>
      </trkpt>
      <trkpt lat="47.76268" lon="1.8887">
        <ele>117</ele>
        <time>2017-11-08T14:07:32Z</time>
      </trkpt>
      <trkpt lat="47.76271" lon="1.88871">
        <ele>117</ele>
        <time>2017-11-08T14:07:33Z</time>
      </trkpt>
      <trkpt lat="47.76275" lon="1.88872">
        <ele>117</ele>
        <time>2017-11-08T14:07:34Z</time>
      </trkpt>
      <trkpt lat="47.76278" lon="1.88873">
        <ele>117</ele>
        <time>2017-11-08T14:07:35Z</time>
      </trkpt>
      <trkpt lat="47.76282" lon="1.88876">
        <ele>118</ele>
        <time>2017-11-08T14:07:37Z</time>
      </trkpt>
      <trkpt lat="47.76284" lon="1.88879">
        <ele>118</ele>
        <time>2017-11-08T14:07:39Z</time>
      </trkpt>
      <trkpt lat="47.76287" lon="1.88878">
        <ele>118</ele>
        <time>2017-11-08T14:07:42Z</time>
      </trkpt>
      <trkpt lat="47.76292" lon="1.88878">
        <ele>118</ele>
        <time>2017-11-08T14:07:44Z</time>
      </trkpt>
      <trkpt lat="47.76297" lon="1.8888">
        <ele>117</ele>
        <time>2017-11-08T14:07:46Z</time>
      </trkpt>
      <trkpt lat="47.76302" lon="1.88882">
        <ele>117</ele>
        <time>2017-11-08T14:07:48Z</time>
      </trkpt>
      <trkpt lat="47.76304" lon="1.88884">
        <ele>117</ele>
        <time>2017-11-08T14:07:49Z</time>
      </trkpt>
      <trkpt lat="47.76307" lon="1.88889">
        <ele>117</ele>
        <time>2017-11-08T14:07:51Z</time>
      </trkpt>
      <trkpt lat="47.76311" lon="1.8889">
        <ele>117</ele>
        <time>2017-11-08T14:07:53Z</time>
      </trkpt>
      <trkpt lat="47.76314" lon="1.88888">
        <ele>117</ele>
        <time>2017-11-08T14:07:54Z</time>
      </trkpt>
      <trkpt lat="47.76319" lon="1.88887">
        <ele>117</ele>
        <time>2017-11-08T14:07:56Z</time>
      </trkpt>
      <trkpt lat="47.76322" lon="1.88887">
        <ele>117</ele>
        <time>2017-11-08T14:07:57Z</time>
      </trkpt>
      <trkpt lat="47.76326" lon="1.88886">
        <ele>117</ele>
        <time>2017-11-08T14:07:58Z</time>
      </trkpt>
      <trkpt lat="47.7633" lon="1.88886">
        <ele>117</ele>
        <time>2017-11-08T14:07:59Z</time>
      </trkpt>
      <trkpt lat="47.76335" lon="1.88885">
        <ele>118</ele>
        <time>2017-11-08T14:08:00Z</time>
      </trkpt>
      <trkpt lat="47.7634" lon="1.88884">
        <ele>118</ele>
        <time>2017-11-08T14:08:01Z</time>
      </trkpt>
      <trkpt lat="47.76345" lon="1.88883">
        <ele>118</ele>
        <time>2017-11-08T14:08:02Z</time>
      </trkpt>
      <trkpt lat="47.76349" lon="1.88883">
        <ele>118</ele>
        <time>2017-11-08T14:08:03Z</time>
      </trkpt>
      <trkpt lat="47.76353" lon="1.88882">
        <ele>118</ele>
        <time>2017-11-08T14:08:04Z</time>
      </trkpt>
      <trkpt lat="47.76357" lon="1.8888">
        <ele>118</ele>
        <time>2017-11-08T14:08:05Z</time>
      </trkpt>
      <trkpt lat="47.76362" lon="1.88879">
        <ele>118</ele>
        <time>2017-11-08T14:08:06Z</time>
      </trkpt>
      <trkpt lat="47.76366" lon="1.88878">
        <ele>118</ele>
        <time>2017-11-08T14:08:07Z</time>
      </trkpt>
      <trkpt lat="47.7637" lon="1.88877">
        <ele>118</ele>
        <time>2017-11-08T14:08:08Z</time>
      </trkpt>
      <trkpt lat="47.76374" lon="1.88876">
        <ele>118</ele>
        <time>2017-11-08T14:08:09Z</time>
      </trkpt>
      <trkpt lat="47.76379" lon="1.88875">
        <ele>118</ele>
        <time>2017-11-08T14:08:10Z</time>
      </trkpt>
      <trkpt lat="47.76383" lon="1.88874">
        <ele>118</ele>
        <time>2017-11-08T14:08:11Z</time>
      </trkpt>
      <trkpt lat="47.76388" lon="1.88874">
        <ele>118</ele>
        <time>2017-11-08T14:08:12Z</time>
      </trkpt>
      <trkpt lat="47.76392" lon="1.88873">
        <ele>118</ele>
        <time>2017-11-08T14:08:13Z</time>
      </trkpt>
      <trkpt lat="47.76396" lon="1.88871">
        <ele>118</ele>
        <time>2017-11-08T14:08:14Z</time>
      </trkpt>
      <trkpt lat="47.76401" lon="1.8887">
        <ele>118</ele>
        <time>2017-11-08T14:08:15Z</time>
      </trkpt>
      <trkpt lat="47.76406" lon="1.88869">
        <ele>118</ele>
        <time>2017-11-08T14:08:16Z</time>
      </trkpt>
      <trkpt lat="47.76411" lon="1.88869">
        <ele>118</ele>
        <time>2017-11-08T14:08:17Z</time>
      </trkpt>
      <trkpt lat="47.76416" lon="1.88868">
        <ele>118</ele>
        <time>2017-11-08T14:08:18Z</time>
      </trkpt>
      <trkpt lat="47.76421" lon="1.88868">
        <ele>117</ele>
        <time>2017-11-08T14:08:19Z</time>
      </trkpt>
      <trkpt lat="47.76426" lon="1.88868">
        <ele>117</ele>
        <time>2017-11-08T14:08:20Z</time>
      </trkpt>
      <trkpt lat="47.7643" lon="1.88868">
        <ele>117</ele>
        <time>2017-11-08T14:08:21Z</time>
      </trkpt>
      <trkpt lat="47.76435" lon="1.88868">
        <ele>117</ele>
        <time>2017-11-08T14:08:22Z</time>
      </trkpt>
      <trkpt lat="47.7644" lon="1.88868">
        <ele>117</ele>
        <time>2017-11-08T14:08:23Z</time>
      </trkpt>
      <trkpt lat="47.76444" lon="1.88868">
        <ele>117</ele>
        <time>2017-11-08T14:08:24Z</time>
      </trkpt>
      <trkpt lat="47.76449" lon="1.88868">
        <ele>117</ele>
        <time>2017-11-08T14:08:25Z</time>
      </trkpt>
      <trkpt lat="47.76453" lon="1.88869">
        <ele>117</ele>
        <time>2017-11-08T14:08:26Z</time>
      </trkpt>
      <trkpt lat="47.76458" lon="1.88869">
        <ele>117</ele>
        <time>2017-11-08T14:08:27Z</time>
      </trkpt>
      <trkpt lat="47.76463" lon="1.8887">
        <ele>116</ele>
        <time>2017-11-08T14:08:28Z</time>
      </trkpt>
      <trkpt lat="47.76468" lon="1.8887">
        <ele>116</ele>
        <time>2017-11-08T14:08:29Z</time>
      </trkpt>
      <trkpt lat="47.76472" lon="1.8887">
        <ele>116</ele>
        <time>2017-11-08T14:08:30Z</time>
      </trkpt>
      <trkpt lat="47.76477" lon="1.8887">
        <ele>116</ele>
        <time>2017-11-08T14:08:31Z</time>
      </trkpt>
      <trkpt lat="47.76482" lon="1.8887">
        <ele>116</ele>
        <time>2017-11-08T14:08:32Z</time>
      </trkpt>
      <trkpt lat="47.76487" lon="1.88871">
        <ele>116</ele>
        <time>2017-11-08T14:08:33Z</time>
      </trkpt>
      <trkpt lat="47.76491" lon="1.88871">
        <ele>116</ele>
        <time>2017-11-08T14:08:34Z</time>
      </trkpt>
      <trkpt lat="47.76496" lon="1.88872">
        <ele>116</ele>
        <time>2017-11-08T14:08:35Z</time>
      </trkpt>
      <trkpt lat="47.76501" lon="1.88873">
        <ele>115</ele>
        <time>2017-11-08T14:08:36Z</time>
      </trkpt>
      <trkpt lat="47.76507" lon="1.88873">
        <ele>115</ele>
        <time>2017-11-08T14:08:37Z</time>
      </trkpt>
      <trkpt lat="47.76512" lon="1.88873">
        <ele>115</ele>
        <time>2017-11-08T14:08:38Z</time>
      </trkpt>
      <trkpt lat="47.76517" lon="1.88874">
        <ele>115</ele>
        <time>2017-11-08T14:08:39Z</time>
      </trkpt>
      <trkpt lat="47.76522" lon="1.88875">
        <ele>115</ele>
        <time>2017-11-08T14:08:40Z</time>
      </trkpt>
      <trkpt lat="47.76527" lon="1.88876">
        <ele>115</ele>
        <time>2017-11-08T14:08:41Z</time>
      </trkpt>
      <trkpt lat="47.76532" lon="1.88876">
        <ele>115</ele>
        <time>2017-11-08T14:08:42Z</time>
      </trkpt>
      <trkpt lat="47.76537" lon="1.88878">
        <ele>115</ele>
        <time>2017-11-08T14:08:43Z</time>
      </trkpt>
      <trkpt lat="47.76543" lon="1.88878">
        <ele>115</ele>
        <time>2017-11-08T14:08:44Z</time>
      </trkpt>
      <trkpt lat="47.76548" lon="1.88878">
        <ele>115</ele>
        <time>2017-11-08T14:08:45Z</time>
      </trkpt>
      <trkpt lat="47.76553" lon="1.88879">
        <ele>115</ele>
        <time>2017-11-08T14:08:46Z</time>
      </trkpt>
      <trkpt lat="47.76558" lon="1.8888">
        <ele>115</ele>
        <time>2017-11-08T14:08:47Z</time>
      </trkpt>
      <trkpt lat="47.76562" lon="1.8888">
        <ele>115</ele>
        <time>2017-11-08T14:08:48Z</time>
      </trkpt>
      <trkpt lat="47.76567" lon="1.8888">
        <ele>115</ele>
        <time>2017-11-08T14:08:49Z</time>
      </trkpt>
      <trkpt lat="47.76571" lon="1.8888">
        <ele>115</ele>
        <time>2017-11-08T14:08:50Z</time>
      </trkpt>
      <trkpt lat="47.76576" lon="1.88881">
        <ele>115</ele>
        <time>2017-11-08T14:08:51Z</time>
      </trkpt>
      <trkpt lat="47.76581" lon="1.88882">
        <ele>115</ele>
        <time>2017-11-08T14:08:52Z</time>
      </trkpt>
      <trkpt lat="47.76585" lon="1.88882">
        <ele>116</ele>
        <time>2017-11-08T14:08:53Z</time>
      </trkpt>
      <trkpt lat="47.7659" lon="1.88882">
        <ele>116</ele>
        <time>2017-11-08T14:08:54Z</time>
      </trkpt>
      <trkpt lat="47.76595" lon="1.88882">
        <ele>116</ele>
        <time>2017-11-08T14:08:55Z</time>
      </trkpt>
      <trkpt lat="47.76599" lon="1.88883">
        <ele>116</ele>
        <time>2017-11-08T14:08:56Z</time>
      </trkpt>
      <trkpt lat="47.76604" lon="1.88883">
        <ele>116</ele>
        <time>2017-11-08T14:08:57Z</time>
      </trkpt>
      <trkpt lat="47.76609" lon="1.88883">
        <ele>116</ele>
        <time>2017-11-08T14:08:58Z</time>
      </trkpt>
      <trkpt lat="47.76615" lon="1.88882">
        <ele>116</ele>
        <time>2017-11-08T14:08:59Z</time>
      </trkpt>
      <trkpt lat="47.76621" lon="1.88881">
        <ele>116</ele>
        <time>2017-11-08T14:09:00Z</time>
      </trkpt>
      <trkpt lat="47.76626" lon="1.88879">
        <ele>116</ele>
        <time>2017-11-08T14:09:01Z</time>
      </trkpt>
      <trkpt lat="47.76632" lon="1.88876">
        <ele>116</ele>
        <time>2017-11-08T14:09:02Z</time>
      </trkpt>
      <trkpt lat="47.76635" lon="1.88874">
        <ele>116</ele>
        <time>2017-11-08T14:09:03Z</time>
      </trkpt>
      <trkpt lat="47.7664" lon="1.88879">
        <ele>116</ele>
        <time>2017-11-08T14:09:05Z</time>
      </trkpt>
      <trkpt lat="47.76641" lon="1.88883">
        <ele>116</ele>
        <time>2017-11-08T14:09:06Z</time>
      </trkpt>
      <trkpt lat="47.76644" lon="1.88882">
        <ele>116</ele>
        <time>2017-11-08T14:09:10Z</time>
      </trkpt>
      <trkpt lat="47.76647" lon="1.88884">
        <ele>116</ele>
        <time>2017-11-08T14:09:17Z</time>
      </trkpt>
      <trkpt lat="47.7665" lon="1.88884">
        <ele>116</ele>
        <time>2017-11-08T14:09:19Z</time>
      </trkpt>
      <trkpt lat="47.76654" lon="1.88885">
        <ele>116</ele>
        <time>2017-11-08T14:09:21Z</time>
      </trkpt>
      <trkpt lat="47.76658" lon="1.88887">
        <ele>116</ele>
        <time>2017-11-08T14:09:23Z</time>
      </trkpt>
      <trkpt lat="47.76662" lon="1.88888">
        <ele>116</ele>
        <time>2017-11-08T14:09:24Z</time>
      </trkpt>
      <trkpt lat="47.76666" lon="1.88889">
        <ele>116</ele>
        <time>2017-11-08T14:09:25Z</time>
      </trkpt>
      <trkpt lat="47.76671" lon="1.8889">
        <ele>117</ele>
        <time>2017-11-08T14:09:26Z</time>
      </trkpt>
      <trkpt lat="47.76676" lon="1.8889">
        <ele>117</ele>
        <time>2017-11-08T14:09:27Z</time>
      </trkpt>
      <trkpt lat="47.76679" lon="1.88892">
        <ele>117</ele>
        <time>2017-11-08T14:09:28Z</time>
      </trkpt>
      <trkpt lat="47.76683" lon="1.88894">
        <ele>117</ele>
        <time>2017-11-08T14:09:29Z</time>
      </trkpt>
      <trkpt lat="47.76687" lon="1.88896">
        <ele>117</ele>
        <time>2017-11-08T14:09:30Z</time>
      </trkpt>
      <trkpt lat="47.76691" lon="1.88898">
        <ele>117</ele>
        <time>2017-11-08T14:09:31Z</time>
      </trkpt>
      <trkpt lat="47.76695" lon="1.88899">
        <ele>117</ele>
        <time>2017-11-08T14:09:32Z</time>
      </trkpt>
      <trkpt lat="47.76699" lon="1.88899">
        <ele>117</ele>
        <time>2017-11-08T14:09:33Z</time>
      </trkpt>
      <trkpt lat="47.76703" lon="1.889">
        <ele>117</ele>
        <time>2017-11-08T14:09:34Z</time>
      </trkpt>
      <trkpt lat="47.76706" lon="1.88901">
        <ele>117</ele>
        <time>2017-11-08T14:09:35Z</time>
      </trkpt>
      <trkpt lat="47.7671" lon="1.88902">
        <ele>117</ele>
        <time>2017-11-08T14:09:36Z</time>
      </trkpt>
      <trkpt lat="47.76714" lon="1.88903">
        <ele>117</ele>
        <time>2017-11-08T14:09:37Z</time>
      </trkpt>
      <trkpt lat="47.76718" lon="1.88904">
        <ele>116</ele>
        <time>2017-11-08T14:09:38Z</time>
      </trkpt>
      <trkpt lat="47.76722" lon="1.88905">
        <ele>116</ele>
        <time>2017-11-08T14:09:39Z</time>
      </trkpt>
      <trkpt lat="47.76727" lon="1.88906">
        <ele>116</ele>
        <time>2017-11-08T14:09:40Z</time>
      </trkpt>
      <trkpt lat="47.76731" lon="1.88907">
        <ele>116</ele>
        <time>2017-11-08T14:09:41Z</time>
      </trkpt>
      <trkpt lat="47.76735" lon="1.88907">
        <ele>116</ele>
        <time>2017-11-08T14:09:42Z</time>
      </trkpt>
      <trkpt lat="47.76738" lon="1.88907">
        <ele>116</ele>
        <time>2017-11-08T14:09:43Z</time>
      </trkpt>
      <trkpt lat="47.76741" lon="1.88906">
        <ele>116</ele>
        <time>2017-11-08T14:09:44Z</time>
      </trkpt>
      <trkpt lat="47.76745" lon="1.88906">
        <ele>116</ele>
        <time>2017-11-08T14:09:45Z</time>
      </trkpt>
      <trkpt lat="47.76749" lon="1.88906">
        <ele>116</ele>
        <time>2017-11-08T14:09:46Z</time>
      </trkpt>
      <trkpt lat="47.76753" lon="1.88906">
        <ele>116</ele>
        <time>2017-11-08T14:09:47Z</time>
      </trkpt>
      <trkpt lat="47.76757" lon="1.88905">
        <ele>116</ele>
        <time>2017-11-08T14:09:48Z</time>
      </trkpt>
      <trkpt lat="47.76762" lon="1.88905">
        <ele>116</ele>
        <time>2017-11-08T14:09:49Z</time>
      </trkpt>
      <trkpt lat="47.76766" lon="1.88904">
        <ele>116</ele>
        <time>2017-11-08T14:09:50Z</time>
      </trkpt>
      <trkpt lat="47.76771" lon="1.88903">
        <ele>116</ele>
        <time>2017-11-08T14:09:51Z</time>
      </trkpt>
      <trkpt lat="47.76775" lon="1.88902">
        <ele>116</ele>
        <time>2017-11-08T14:09:52Z</time>
      </trkpt>
      <trkpt lat="47.7678" lon="1.88901">
        <ele>116</ele>
        <time>2017-11-08T14:09:53Z</time>
      </trkpt>
      <trkpt lat="47.76787" lon="1.889">
        <ele>116</ele>
        <time>2017-11-08T14:09:54Z</time>
      </trkpt>
      <trkpt lat="47.76794" lon="1.88899">
        <ele>116</ele>
        <time>2017-11-08T14:09:55Z</time>
      </trkpt>
      <trkpt lat="47.76802" lon="1.88898">
        <ele>116</ele>
        <time>2017-11-08T14:09:56Z</time>
      </trkpt>
      <trkpt lat="47.76809" lon="1.889">
        <ele>116</ele>
        <time>2017-11-08T14:09:57Z</time>
      </trkpt>
      <trkpt lat="47.76815" lon="1.88902">
        <ele>116</ele>
        <time>2017-11-08T14:09:58Z</time>
      </trkpt>
      <trkpt lat="47.76821" lon="1.88901">
        <ele>116</ele>
        <time>2017-11-08T14:09:59Z</time>
      </trkpt>
      <trkpt lat="47.76827" lon="1.88899">
        <ele>116</ele>
        <time>2017-11-08T14:10:00Z</time>
      </trkpt>
      <trkpt lat="47.76832" lon="1.88897">
        <ele>116</ele>
        <time>2017-11-08T14:10:01Z</time>
      </trkpt>
      <trkpt lat="47.76839" lon="1.88899">
        <ele>117</ele>
        <time>2017-11-08T14:10:02Z</time>
      </trkpt>
      <trkpt lat="47.76847" lon="1.88898">
        <ele>116</ele>
        <time>2017-11-08T14:10:03Z</time>
      </trkpt>
      <trkpt lat="47.76858" lon="1.889">
        <ele>117</ele>
        <time>2017-11-08T14:10:04Z</time>
      </trkpt>
      <trkpt lat="47.76867" lon="1.889">
        <ele>117</ele>
        <time>2017-11-08T14:10:05Z</time>
      </trkpt>
      <trkpt lat="47.76874" lon="1.88899">
        <ele>117</ele>
        <time>2017-11-08T14:10:06Z</time>
      </trkpt>
      <trkpt lat="47.76879" lon="1.88898">
        <ele>117</ele>
        <time>2017-11-08T14:10:07Z</time>
      </trkpt>
      <trkpt lat="47.76885" lon="1.88898">
        <ele>117</ele>
        <time>2017-11-08T14:10:08Z</time>
      </trkpt>
      <trkpt lat="47.76891" lon="1.88899">
        <ele>117</ele>
        <time>2017-11-08T14:10:09Z</time>
      </trkpt>
      <trkpt lat="47.76897" lon="1.889">
        <ele>117</ele>
        <time>2017-11-08T14:10:10Z</time>
      </trkpt>
      <trkpt lat="47.76904" lon="1.889">
        <ele>117</ele>
        <time>2017-11-08T14:10:11Z</time>
      </trkpt>
      <trkpt lat="47.76909" lon="1.889">
        <ele>117</ele>
        <time>2017-11-08T14:10:12Z</time>
      </trkpt>
      <trkpt lat="47.76915" lon="1.88898">
        <ele>117</ele>
        <time>2017-11-08T14:10:13Z</time>
      </trkpt>
      <trkpt lat="47.76921" lon="1.88896">
        <ele>117</ele>
        <time>2017-11-08T14:10:14Z</time>
      </trkpt>
      <trkpt lat="47.76927" lon="1.88896">
        <ele>117</ele>
        <time>2017-11-08T14:10:15Z</time>
      </trkpt>
      <trkpt lat="47.76933" lon="1.88898">
        <ele>117</ele>
        <time>2017-11-08T14:10:16Z</time>
      </trkpt>
      <trkpt lat="47.76939" lon="1.88899">
        <ele>117</ele>
        <time>2017-11-08T14:10:17Z</time>
      </trkpt>
      <trkpt lat="47.76945" lon="1.88899">
        <ele>117</ele>
        <time>2017-11-08T14:10:18Z</time>
      </trkpt>
      <trkpt lat="47.76953" lon="1.88898">
        <ele>117</ele>
        <time>2017-11-08T14:10:19Z</time>
      </trkpt>
      <trkpt lat="47.76961" lon="1.88899">
        <ele>117</ele>
        <time>2017-11-08T14:10:20Z</time>
      </trkpt>
      <trkpt lat="47.76968" lon="1.88899">
        <ele>117</ele>
        <time>2017-11-08T14:10:21Z</time>
      </trkpt>
      <trkpt lat="47.76974" lon="1.88899">
        <ele>117</ele>
        <time>2017-11-08T14:10:22Z</time>
      </trkpt>
      <trkpt lat="47.7698" lon="1.889">
        <ele>117</ele>
        <time>2017-11-08T14:10:23Z</time>
      </trkpt>
      <trkpt lat="47.76986" lon="1.88901">
        <ele>117</ele>
        <time>2017-11-08T14:10:24Z</time>
      </trkpt>
      <trkpt lat="47.76992" lon="1.889">
        <ele>117</ele>
        <time>2017-11-08T14:10:25Z</time>
      </trkpt>
      <trkpt lat="47.76998" lon="1.889">
        <ele>117</ele>
        <time>2017-11-08T14:10:26Z</time>
      </trkpt>
      <trkpt lat="47.77003" lon="1.889">
        <ele>117</ele>
        <time>2017-11-08T14:10:27Z</time>
      </trkpt>
      <trkpt lat="47.77008" lon="1.88899">
        <ele>117</ele>
        <time>2017-11-08T14:10:28Z</time>
      </trkpt>
      <trkpt lat="47.77014" lon="1.88898">
        <ele>117</ele>
        <time>2017-11-08T14:10:29Z</time>
      </trkpt>
      <trkpt lat="47.77019" lon="1.88898">
        <ele>117</ele>
        <time>2017-11-08T14:10:30Z</time>
      </trkpt>
      <trkpt lat="47.77025" lon="1.88896">
        <ele>117</ele>
        <time>2017-11-08T14:10:31Z</time>
      </trkpt>
      <trkpt lat="47.7703" lon="1.88894">
        <ele>117</ele>
        <time>2017-11-08T14:10:32Z</time>
      </trkpt>
      <trkpt lat="47.77037" lon="1.88892">
        <ele>117</ele>
        <time>2017-11-08T14:10:33Z</time>
      </trkpt>
      <trkpt lat="47.77042" lon="1.8889">
        <ele>116</ele>
        <time>2017-11-08T14:10:34Z</time>
      </trkpt>
      <trkpt lat="47.77047" lon="1.88888">
        <ele>116</ele>
        <time>2017-11-08T14:10:35Z</time>
      </trkpt>
      <trkpt lat="47.77053" lon="1.88888">
        <ele>116</ele>
        <time>2017-11-08T14:10:36Z</time>
      </trkpt>
      <trkpt lat="47.77059" lon="1.88887">
        <ele>116</ele>
        <time>2017-11-08T14:10:37Z</time>
      </trkpt>
      <trkpt lat="47.77065" lon="1.88885">
        <ele>116</ele>
        <time>2017-11-08T14:10:38Z</time>
      </trkpt>
      <trkpt lat="47.7707" lon="1.88883">
        <ele>116</ele>
        <time>2017-11-08T14:10:39Z</time>
      </trkpt>
      <trkpt lat="47.77076" lon="1.88881">
        <ele>116</ele>
        <time>2017-11-08T14:10:40Z</time>
      </trkpt>
      <trkpt lat="47.77082" lon="1.88879">
        <ele>116</ele>
        <time>2017-11-08T14:10:41Z</time>
      </trkpt>
      <trkpt lat="47.77088" lon="1.88875">
        <ele>115</ele>
        <time>2017-11-08T14:10:42Z</time>
      </trkpt>
      <trkpt lat="47.77094" lon="1.88873">
        <ele>115</ele>
        <time>2017-11-08T14:10:43Z</time>
      </trkpt>
      <trkpt lat="47.771" lon="1.88872">
        <ele>115</ele>
        <time>2017-11-08T14:10:44Z</time>
      </trkpt>
      <trkpt lat="47.77106" lon="1.88868">
        <ele>115</ele>
        <time>2017-11-08T14:10:45Z</time>
      </trkpt>
      <trkpt lat="47.7711" lon="1.88862">
        <ele>115</ele>
        <time>2017-11-08T14:10:46Z</time>
      </trkpt>
      <trkpt lat="47.77115" lon="1.88856">
        <ele>115</ele>
        <time>2017-11-08T14:10:47Z</time>
      </trkpt>
      <trkpt lat="47.77118" lon="1.88851">
        <ele>115</ele>
        <time>2017-11-08T14:10:48Z</time>
      </trkpt>
      <trkpt lat="47.77122" lon="1.88846">
        <ele>115</ele>
        <time>2017-11-08T14:10:49Z</time>
      </trkpt>
      <trkpt lat="47.77126" lon="1.88842">
        <ele>114</ele>
        <time>2017-11-08T14:10:50Z</time>
      </trkpt>
      <trkpt lat="47.7713" lon="1.88838">
        <ele>114</ele>
        <time>2017-11-08T14:10:51Z</time>
      </trkpt>
      <trkpt lat="47.77132" lon="1.88834">
        <ele>114</ele>
        <time>2017-11-08T14:10:52Z</time>
      </trkpt>
      <trkpt lat="47.77134" lon="1.8883">
        <ele>115</ele>
        <time>2017-11-08T14:10:53Z</time>
      </trkpt>
      <trkpt lat="47.77136" lon="1.88827">
        <ele>115</ele>
        <time>2017-11-08T14:10:54Z</time>
      </trkpt>
      <trkpt lat="47.77139" lon="1.88823">
        <ele>115</ele>
        <time>2017-11-08T14:10:55Z</time>
      </trkpt>
      <trkpt lat="47.77141" lon="1.8882">
        <ele>115</ele>
        <time>2017-11-08T14:10:56Z</time>
      </trkpt>
      <trkpt lat="47.77146" lon="1.88819">
        <ele>115</ele>
        <time>2017-11-08T14:10:57Z</time>
      </trkpt>
      <trkpt lat="47.77153" lon="1.88812">
        <ele>115</ele>
        <time>2017-11-08T14:10:58Z</time>
      </trkpt>
      <trkpt lat="47.7716" lon="1.88805">
        <ele>115</ele>
        <time>2017-11-08T14:10:59Z</time>
      </trkpt>
      <trkpt lat="47.77166" lon="1.88798">
        <ele>115</ele>
        <time>2017-11-08T14:11:00Z</time>
      </trkpt>
      <trkpt lat="47.77169" lon="1.88795">
        <ele>115</ele>
        <time>2017-11-08T14:11:01Z</time>
      </trkpt>
      <trkpt lat="47.77172" lon="1.88792">
        <ele>115</ele>
        <time>2017-11-08T14:11:02Z</time>
      </trkpt>
      <trkpt lat="47.77174" lon="1.88789">
        <ele>115</ele>
        <time>2017-11-08T14:11:03Z</time>
      </trkpt>
      <trkpt lat="47.77176" lon="1.88785">
        <ele>115</ele>
        <time>2017-11-08T14:11:04Z</time>
      </trkpt>
      <trkpt lat="47.77179" lon="1.88779">
        <ele>116</ele>
        <time>2017-11-08T14:11:06Z</time>
      </trkpt>
      <trkpt lat="47.77184" lon="1.88778">
        <ele>116</ele>
        <time>2017-11-08T14:11:08Z</time>
      </trkpt>
      <trkpt lat="47.77189" lon="1.88777">
        <ele>116</ele>
        <time>2017-11-08T14:11:10Z</time>
      </trkpt>
      <trkpt lat="47.77193" lon="1.88779">
        <ele>116</ele>
        <time>2017-11-08T14:11:12Z</time>
      </trkpt>
      <trkpt lat="47.77197" lon="1.8878">
        <ele>116</ele>
        <time>2017-11-08T14:11:14Z</time>
      </trkpt>
      <trkpt lat="47.77203" lon="1.88783">
        <ele>116</ele>
        <time>2017-11-08T14:11:16Z</time>
      </trkpt>
      <trkpt lat="47.77206" lon="1.88784">
        <ele>116</ele>
        <time>2017-11-08T14:11:17Z</time>
      </trkpt>
      <trkpt lat="47.77209" lon="1.88785">
        <ele>116</ele>
        <time>2017-11-08T14:11:18Z</time>
      </trkpt>
      <trkpt lat="47.77213" lon="1.88786">
        <ele>116</ele>
        <time>2017-11-08T14:11:19Z</time>
      </trkpt>
      <trkpt lat="47.77216" lon="1.88788">
        <ele>116</ele>
        <time>2017-11-08T14:11:20Z</time>
      </trkpt>
      <trkpt lat="47.77218" lon="1.8879">
        <ele>116</ele>
        <time>2017-11-08T14:11:21Z</time>
      </trkpt>
      <trkpt lat="47.77221" lon="1.88793">
        <ele>116</ele>
        <time>2017-11-08T14:11:22Z</time>
      </trkpt>
      <trkpt lat="47.77225" lon="1.88794">
        <ele>116</ele>
        <time>2017-11-08T14:11:23Z</time>
      </trkpt>
      <trkpt lat="47.77228" lon="1.88796">
        <ele>116</ele>
        <time>2017-11-08T14:11:24Z</time>
      </trkpt>
      <trkpt lat="47.77232" lon="1.88798">
        <ele>115</ele>
        <time>2017-11-08T14:11:25Z</time>
      </trkpt>
      <trkpt lat="47.77236" lon="1.88798">
        <ele>115</ele>
        <time>2017-11-08T14:11:26Z</time>
      </trkpt>
      <trkpt lat="47.7724" lon="1.88797">
        <ele>115</ele>
        <time>2017-11-08T14:11:27Z</time>
      </trkpt>
      <trkpt lat="47.77245" lon="1.88798">
        <ele>115</ele>
        <time>2017-11-08T14:11:28Z</time>
      </trkpt>
      <trkpt lat="47.7725" lon="1.888">
        <ele>116</ele>
        <time>2017-11-08T14:11:29Z</time>
      </trkpt>
      <trkpt lat="47.77256" lon="1.88803">
        <ele>116</ele>
        <time>2017-11-08T14:11:30Z</time>
      </trkpt>
      <trkpt lat="47.77262" lon="1.88807">
        <ele>116</ele>
        <time>2017-11-08T14:11:31Z</time>
      </trkpt>
      <trkpt lat="47.77269" lon="1.88809">
        <ele>116</ele>
        <time>2017-11-08T14:11:32Z</time>
      </trkpt>
      <trkpt lat="47.77275" lon="1.88812">
        <ele>116</ele>
        <time>2017-11-08T14:11:33Z</time>
      </trkpt>
      <trkpt lat="47.7728" lon="1.88815">
        <ele>116</ele>
        <time>2017-11-08T14:11:34Z</time>
      </trkpt>
      <trkpt lat="47.77284" lon="1.88818">
        <ele>116</ele>
        <time>2017-11-08T14:11:35Z</time>
      </trkpt>
      <trkpt lat="47.77289" lon="1.88822">
        <ele>116</ele>
        <time>2017-11-08T14:11:36Z</time>
      </trkpt>
      <trkpt lat="47.77295" lon="1.88826">
        <ele>116</ele>
        <time>2017-11-08T14:11:37Z</time>
      </trkpt>
      <trkpt lat="47.773" lon="1.8883">
        <ele>115</ele>
        <time>2017-11-08T14:11:38Z</time>
      </trkpt>
      <trkpt lat="47.77304" lon="1.88835">
        <ele>114</ele>
        <time>2017-11-08T14:11:39Z</time>
      </trkpt>
      <trkpt lat="47.77307" lon="1.88839">
        <ele>114</ele>
        <time>2017-11-08T14:11:40Z</time>
      </trkpt>
      <trkpt lat="47.77311" lon="1.88841">
        <ele>114</ele>
        <time>2017-11-08T14:11:41Z</time>
      </trkpt>
      <trkpt lat="47.77316" lon="1.88841">
        <ele>114</ele>
        <time>2017-11-08T14:11:42Z</time>
      </trkpt>
      <trkpt lat="47.77323" lon="1.88843">
        <ele>114</ele>
        <time>2017-11-08T14:11:43Z</time>
      </trkpt>
      <trkpt lat="47.77328" lon="1.88847">
        <ele>114</ele>
        <time>2017-11-08T14:11:44Z</time>
      </trkpt>
      <trkpt lat="47.77334" lon="1.8885">
        <ele>114</ele>
        <time>2017-11-08T14:11:45Z</time>
      </trkpt>
      <trkpt lat="47.7734" lon="1.88851">
        <ele>114</ele>
        <time>2017-11-08T14:11:46Z</time>
      </trkpt>
      <trkpt lat="47.77345" lon="1.88855">
        <ele>114</ele>
        <time>2017-11-08T14:11:47Z</time>
      </trkpt>
      <trkpt lat="47.77349" lon="1.88859">
        <ele>114</ele>
        <time>2017-11-08T14:11:48Z</time>
      </trkpt>
      <trkpt lat="47.77352" lon="1.88864">
        <ele>114</ele>
        <time>2017-11-08T14:11:49Z</time>
      </trkpt>
      <trkpt lat="47.77356" lon="1.88867">
        <ele>114</ele>
        <time>2017-11-08T14:11:50Z</time>
      </trkpt>
      <trkpt lat="47.7736" lon="1.8887">
        <ele>114</ele>
        <time>2017-11-08T14:11:51Z</time>
      </trkpt>
      <trkpt lat="47.77363" lon="1.88872">
        <ele>114</ele>
        <time>2017-11-08T14:11:52Z</time>
      </trkpt>
      <trkpt lat="47.77366" lon="1.88875">
        <ele>114</ele>
        <time>2017-11-08T14:11:53Z</time>
      </trkpt>
      <trkpt lat="47.77369" lon="1.88877">
        <ele>114</ele>
        <time>2017-11-08T14:11:54Z</time>
      </trkpt>
      <trkpt lat="47.77373" lon="1.8888">
        <ele>114</ele>
        <time>2017-11-08T14:11:55Z</time>
      </trkpt>
      <trkpt lat="47.77376" lon="1.88882">
        <ele>113</ele>
        <time>2017-11-08T14:11:56Z</time>
      </trkpt>
      <trkpt lat="47.77379" lon="1.88885">
        <ele>113</ele>
        <time>2017-11-08T14:11:57Z</time>
      </trkpt>
      <trkpt lat="47.77382" lon="1.88888">
        <ele>113</ele>
        <time>2017-11-08T14:11:58Z</time>
      </trkpt>
      <trkpt lat="47.77384" lon="1.88891">
        <ele>114</ele>
        <time>2017-11-08T14:11:59Z</time>
      </trkpt>
      <trkpt lat="47.77387" lon="1.88894">
        <ele>114</ele>
        <time>2017-11-08T14:12:00Z</time>
      </trkpt>
      <trkpt lat="47.7739" lon="1.88898">
        <ele>114</ele>
        <time>2017-11-08T14:12:01Z</time>
      </trkpt>
      <trkpt lat="47.77394" lon="1.88902">
        <ele>114</ele>
        <time>2017-11-08T14:12:02Z</time>
      </trkpt>
      <trkpt lat="47.77396" lon="1.88906">
        <ele>114</ele>
        <time>2017-11-08T14:12:03Z</time>
      </trkpt>
      <trkpt lat="47.77399" lon="1.88909">
        <ele>114</ele>
        <time>2017-11-08T14:12:04Z</time>
      </trkpt>
      <trkpt lat="47.77402" lon="1.88912">
        <ele>114</ele>
        <time>2017-11-08T14:12:05Z</time>
      </trkpt>
      <trkpt lat="47.77404" lon="1.88917">
        <ele>114</ele>
        <time>2017-11-08T14:12:06Z</time>
      </trkpt>
      <trkpt lat="47.77406" lon="1.88921">
        <ele>114</ele>
        <time>2017-11-08T14:12:07Z</time>
      </trkpt>
      <trkpt lat="47.77407" lon="1.88925">
        <ele>114</ele>
        <time>2017-11-08T14:12:08Z</time>
      </trkpt>
      <trkpt lat="47.77409" lon="1.88929">
        <ele>114</ele>
        <time>2017-11-08T14:12:09Z</time>
      </trkpt>
      <trkpt lat="47.77411" lon="1.88932">
        <ele>114</ele>
        <time>2017-11-08T14:12:10Z</time>
      </trkpt>
      <trkpt lat="47.77412" lon="1.88936">
        <ele>114</ele>
        <time>2017-11-08T14:12:11Z</time>
      </trkpt>
      <trkpt lat="47.77414" lon="1.8894">
        <ele>114</ele>
        <time>2017-11-08T14:12:12Z</time>
      </trkpt>
      <trkpt lat="47.77419" lon="1.88946">
        <ele>114</ele>
        <time>2017-11-08T14:12:13Z</time>
      </trkpt>
      <trkpt lat="47.77423" lon="1.8895">
        <ele>114</ele>
        <time>2017-11-08T14:12:14Z</time>
      </trkpt>
      <trkpt lat="47.77429" lon="1.88955">
        <ele>114</ele>
        <time>2017-11-08T14:12:15Z</time>
      </trkpt>
      <trkpt lat="47.77434" lon="1.88959">
        <ele>114</ele>
        <time>2017-11-08T14:12:16Z</time>
      </trkpt>
      <trkpt lat="47.7744" lon="1.8896">
        <ele>114</ele>
        <time>2017-11-08T14:12:17Z</time>
      </trkpt>
      <trkpt lat="47.77446" lon="1.88962">
        <ele>114</ele>
        <time>2017-11-08T14:12:18Z</time>
      </trkpt>
      <trkpt lat="47.77452" lon="1.88964">
        <ele>114</ele>
        <time>2017-11-08T14:12:19Z</time>
      </trkpt>
      <trkpt lat="47.77458" lon="1.88965">
        <ele>114</ele>
        <time>2017-11-08T14:12:20Z</time>
      </trkpt>
      <trkpt lat="47.77464" lon="1.88967">
        <ele>114</ele>
        <time>2017-11-08T14:12:21Z</time>
      </trkpt>
      <trkpt lat="47.7747" lon="1.8897">
        <ele>114</ele>
        <time>2017-11-08T14:12:22Z</time>
      </trkpt>
      <trkpt lat="47.77475" lon="1.88973">
        <ele>114</ele>
        <time>2017-11-08T14:12:23Z</time>
      </trkpt>
      <trkpt lat="47.77481" lon="1.88976">
        <ele>114</ele>
        <time>2017-11-08T14:12:24Z</time>
      </trkpt>
      <trkpt lat="47.77486" lon="1.88978">
        <ele>114</ele>
        <time>2017-11-08T14:12:25Z</time>
      </trkpt>
      <trkpt lat="47.77492" lon="1.88979">
        <ele>114</ele>
        <time>2017-11-08T14:12:26Z</time>
      </trkpt>
      <trkpt lat="47.77498" lon="1.88981">
        <ele>114</ele>
        <time>2017-11-08T14:12:27Z</time>
      </trkpt>
      <trkpt lat="47.77504" lon="1.88984">
        <ele>114</ele>
        <time>2017-11-08T14:12:28Z</time>
      </trkpt>
      <trkpt lat="47.7751" lon="1.88987">
        <ele>114</ele>
        <time>2017-11-08T14:12:29Z</time>
      </trkpt>
      <trkpt lat="47.77517" lon="1.88988">
        <ele>114</ele>
        <time>2017-11-08T14:12:30Z</time>
      </trkpt>
      <trkpt lat="47.77524" lon="1.88988">
        <ele>113</ele>
        <time>2017-11-08T14:12:31Z</time>
      </trkpt>
      <trkpt lat="47.77531" lon="1.88989">
        <ele>113</ele>
        <time>2017-11-08T14:12:32Z</time>
      </trkpt>
      <trkpt lat="47.77539" lon="1.88991">
        <ele>113</ele>
        <time>2017-11-08T14:12:33Z</time>
      </trkpt>
      <trkpt lat="47.77547" lon="1.88992">
        <ele>113</ele>
        <time>2017-11-08T14:12:34Z</time>
      </trkpt>
      <trkpt lat="47.77554" lon="1.88993">
        <ele>113</ele>
        <time>2017-11-08T14:12:35Z</time>
      </trkpt>
      <trkpt lat="47.7756" lon="1.88994">
        <ele>113</ele>
        <time>2017-11-08T14:12:36Z</time>
      </trkpt>
      <trkpt lat="47.77567" lon="1.88995">
        <ele>112</ele>
        <time>2017-11-08T14:12:37Z</time>
      </trkpt>
      <trkpt lat="47.77572" lon="1.88998">
        <ele>112</ele>
        <time>2017-11-08T14:12:38Z</time>
      </trkpt>
      <trkpt lat="47.77577" lon="1.89">
        <ele>112</ele>
        <time>2017-11-08T14:12:39Z</time>
      </trkpt>
      <trkpt lat="47.7758" lon="1.89002">
        <ele>112</ele>
        <time>2017-11-08T14:12:40Z</time>
      </trkpt>
      <trkpt lat="47.77583" lon="1.89002">
        <ele>112</ele>
        <time>2017-11-08T14:12:41Z</time>
      </trkpt>
      <trkpt lat="47.77586" lon="1.89001">
        <ele>112</ele>
        <time>2017-11-08T14:12:42Z</time>
      </trkpt>
      <trkpt lat="47.77589" lon="1.89001">
        <ele>112</ele>
        <time>2017-11-08T14:12:43Z</time>
      </trkpt>
      <trkpt lat="47.77594" lon="1.89002">
        <ele>112</ele>
        <time>2017-11-08T14:12:45Z</time>
      </trkpt>
      <trkpt lat="47.77598" lon="1.89003">
        <ele>112</ele>
        <time>2017-11-08T14:12:46Z</time>
      </trkpt>
      <trkpt lat="47.77601" lon="1.89004">
        <ele>112</ele>
        <time>2017-11-08T14:12:47Z</time>
      </trkpt>
      <trkpt lat="47.77604" lon="1.89004">
        <ele>112</ele>
        <time>2017-11-08T14:12:48Z</time>
      </trkpt>
      <trkpt lat="47.77606" lon="1.89005">
        <ele>112</ele>
        <time>2017-11-08T14:12:49Z</time>
      </trkpt>
      <trkpt lat="47.7761" lon="1.89006">
        <ele>112</ele>
        <time>2017-11-08T14:12:50Z</time>
      </trkpt>
      <trkpt lat="47.77613" lon="1.89008">
        <ele>112</ele>
        <time>2017-11-08T14:12:51Z</time>
      </trkpt>
      <trkpt lat="47.77616" lon="1.8901">
        <ele>112</ele>
        <time>2017-11-08T14:12:52Z</time>
      </trkpt>
      <trkpt lat="47.77619" lon="1.89012">
        <ele>112</ele>
        <time>2017-11-08T14:12:53Z</time>
      </trkpt>
      <trkpt lat="47.77622" lon="1.89015">
        <ele>112</ele>
        <time>2017-11-08T14:12:55Z</time>
      </trkpt>
      <trkpt lat="47.77625" lon="1.89016">
        <ele>112</ele>
        <time>2017-11-08T14:12:56Z</time>
      </trkpt>
      <trkpt lat="47.77628" lon="1.89018">
        <ele>112</ele>
        <time>2017-11-08T14:12:57Z</time>
      </trkpt>
      <trkpt lat="47.77631" lon="1.89019">
        <ele>112</ele>
        <time>2017-11-08T14:12:58Z</time>
      </trkpt>
      <trkpt lat="47.77633" lon="1.89021">
        <ele>112</ele>
        <time>2017-11-08T14:12:59Z</time>
      </trkpt>
      <trkpt lat="47.77639" lon="1.89024">
        <ele>112</ele>
        <time>2017-11-08T14:13:01Z</time>
      </trkpt>
      <trkpt lat="47.77641" lon="1.89025">
        <ele>112</ele>
        <time>2017-11-08T14:13:02Z</time>
      </trkpt>
      <trkpt lat="47.77644" lon="1.89027">
        <ele>112</ele>
        <time>2017-11-08T14:13:03Z</time>
      </trkpt>
      <trkpt lat="47.77646" lon="1.89029">
        <ele>112</ele>
        <time>2017-11-08T14:13:04Z</time>
      </trkpt>
      <trkpt lat="47.77651" lon="1.89031">
        <ele>112</ele>
        <time>2017-11-08T14:13:06Z</time>
      </trkpt>
      <trkpt lat="47.77655" lon="1.89033">
        <ele>112</ele>
        <time>2017-11-08T14:13:08Z</time>
      </trkpt>
      <trkpt lat="47.77661" lon="1.89037">
        <ele>112</ele>
        <time>2017-11-08T14:13:10Z</time>
      </trkpt>
      <trkpt lat="47.77663" lon="1.89038">
        <ele>112</ele>
        <time>2017-11-08T14:13:11Z</time>
      </trkpt>
      <trkpt lat="47.77666" lon="1.8904">
        <ele>112</ele>
        <time>2017-11-08T14:13:12Z</time>
      </trkpt>
      <trkpt lat="47.77669" lon="1.89042">
        <ele>112</ele>
        <time>2017-11-08T14:13:13Z</time>
      </trkpt>
      <trkpt lat="47.77671" lon="1.89044">
        <ele>112</ele>
        <time>2017-11-08T14:13:14Z</time>
      </trkpt>
      <trkpt lat="47.77676" lon="1.89047">
        <ele>112</ele>
        <time>2017-11-08T14:13:16Z</time>
      </trkpt>
      <trkpt lat="47.77678" lon="1.89049">
        <ele>112</ele>
        <time>2017-11-08T14:13:17Z</time>
      </trkpt>
      <trkpt lat="47.77682" lon="1.89053">
        <ele>112</ele>
        <time>2017-11-08T14:13:19Z</time>
      </trkpt>
      <trkpt lat="47.77685" lon="1.89055">
        <ele>112</ele>
        <time>2017-11-08T14:13:21Z</time>
      </trkpt>
      <trkpt lat="47.77689" lon="1.89057">
        <ele>112</ele>
        <time>2017-11-08T14:13:23Z</time>
      </trkpt>
      <trkpt lat="47.77692" lon="1.89059">
        <ele>112</ele>
        <time>2017-11-08T14:13:24Z</time>
      </trkpt>
      <trkpt lat="47.77695" lon="1.89061">
        <ele>112</ele>
        <time>2017-11-08T14:13:25Z</time>
      </trkpt>
      <trkpt lat="47.77697" lon="1.89064">
        <ele>112</ele>
        <time>2017-11-08T14:13:26Z</time>
      </trkpt>
      <trkpt lat="47.77701" lon="1.89068">
        <ele>113</ele>
        <time>2017-11-08T14:13:28Z</time>
      </trkpt>
      <trkpt lat="47.77704" lon="1.8907">
        <ele>113</ele>
        <time>2017-11-08T14:13:29Z</time>
      </trkpt>
      <trkpt lat="47.77708" lon="1.89073">
        <ele>113</ele>
        <time>2017-11-08T14:13:31Z</time>
      </trkpt>
      <trkpt lat="47.77713" lon="1.89075">
        <ele>113</ele>
        <time>2017-11-08T14:13:33Z</time>
      </trkpt>
      <trkpt lat="47.77715" lon="1.89077">
        <ele>113</ele>
        <time>2017-11-08T14:13:34Z</time>
      </trkpt>
      <trkpt lat="47.77721" lon="1.8908">
        <ele>113</ele>
        <time>2017-11-08T14:13:36Z</time>
      </trkpt>
      <trkpt lat="47.77725" lon="1.89081">
        <ele>113</ele>
        <time>2017-11-08T14:13:37Z</time>
      </trkpt>
      <trkpt lat="47.77727" lon="1.89082">
        <ele>113</ele>
        <time>2017-11-08T14:13:38Z</time>
      </trkpt>
      <trkpt lat="47.7773" lon="1.89084">
        <ele>114</ele>
        <time>2017-11-08T14:13:39Z</time>
      </trkpt>
      <trkpt lat="47.77733" lon="1.89086">
        <ele>114</ele>
        <time>2017-11-08T14:13:40Z</time>
      </trkpt>
      <trkpt lat="47.77736" lon="1.89088">
        <ele>114</ele>
        <time>2017-11-08T14:13:41Z</time>
      </trkpt>
      <trkpt lat="47.77739" lon="1.8909">
        <ele>114</ele>
        <time>2017-11-08T14:13:42Z</time>
      </trkpt>
      <trkpt lat="47.77741" lon="1.89092">
        <ele>114</ele>
        <time>2017-11-08T14:13:43Z</time>
      </trkpt>
      <trkpt lat="47.77745" lon="1.89095">
        <ele>114</ele>
        <time>2017-11-08T14:13:45Z</time>
      </trkpt>
      <trkpt lat="47.7775" lon="1.89098">
        <ele>114</ele>
        <time>2017-11-08T14:13:47Z</time>
      </trkpt>
      <trkpt lat="47.77753" lon="1.891">
        <ele>114</ele>
        <time>2017-11-08T14:13:49Z</time>
      </trkpt>
      <trkpt lat="47.77758" lon="1.89102">
        <ele>113</ele>
        <time>2017-11-08T14:13:51Z</time>
      </trkpt>
      <trkpt lat="47.77762" lon="1.89104">
        <ele>113</ele>
        <time>2017-11-08T14:13:53Z</time>
      </trkpt>
      <trkpt lat="47.77766" lon="1.89105">
        <ele>113</ele>
        <time>2017-11-08T14:13:55Z</time>
      </trkpt>
      <trkpt lat="47.77769" lon="1.89105">
        <ele>113</ele>
        <time>2017-11-08T14:13:59Z</time>
      </trkpt>
      <trkpt lat="47.77773" lon="1.89105">
        <ele>113</ele>
        <time>2017-11-08T14:14:01Z</time>
      </trkpt>
      <trkpt lat="47.77777" lon="1.89106">
        <ele>113</ele>
        <time>2017-11-08T14:14:03Z</time>
      </trkpt>
      <trkpt lat="47.77781" lon="1.89108">
        <ele>113</ele>
        <time>2017-11-08T14:14:05Z</time>
      </trkpt>
      <trkpt lat="47.77786" lon="1.89109">
        <ele>113</ele>
        <time>2017-11-08T14:14:07Z</time>
      </trkpt>
      <trkpt lat="47.77789" lon="1.8911">
        <ele>113</ele>
        <time>2017-11-08T14:14:08Z</time>
      </trkpt>
      <trkpt lat="47.77792" lon="1.89111">
        <ele>113</ele>
        <time>2017-11-08T14:14:09Z</time>
      </trkpt>
      <trkpt lat="47.77795" lon="1.89111">
        <ele>113</ele>
        <time>2017-11-08T14:14:10Z</time>
      </trkpt>
      <trkpt lat="47.77798" lon="1.89112">
        <ele>113</ele>
        <time>2017-11-08T14:14:11Z</time>
      </trkpt>
      <trkpt lat="47.77801" lon="1.89112">
        <ele>113</ele>
        <time>2017-11-08T14:14:12Z</time>
      </trkpt>
      <trkpt lat="47.77804" lon="1.89112">
        <ele>113</ele>
        <time>2017-11-08T14:14:13Z</time>
      </trkpt>
      <trkpt lat="47.77807" lon="1.89112">
        <ele>113</ele>
        <time>2017-11-08T14:14:14Z</time>
      </trkpt>
      <trkpt lat="47.77809" lon="1.89112">
        <ele>113</ele>
        <time>2017-11-08T14:14:15Z</time>
      </trkpt>
      <trkpt lat="47.77815" lon="1.89113">
        <ele>113</ele>
        <time>2017-11-08T14:14:17Z</time>
      </trkpt>
      <trkpt lat="47.77818" lon="1.89113">
        <ele>113</ele>
        <time>2017-11-08T14:14:18Z</time>
      </trkpt>
      <trkpt lat="47.77821" lon="1.89114">
        <ele>113</ele>
        <time>2017-11-08T14:14:19Z</time>
      </trkpt>
      <trkpt lat="47.77824" lon="1.89115">
        <ele>113</ele>
        <time>2017-11-08T14:14:20Z</time>
      </trkpt>
      <trkpt lat="47.77826" lon="1.89115">
        <ele>113</ele>
        <time>2017-11-08T14:14:21Z</time>
      </trkpt>
      <trkpt lat="47.77829" lon="1.89116">
        <ele>113</ele>
        <time>2017-11-08T14:14:22Z</time>
      </trkpt>
      <trkpt lat="47.77834" lon="1.89118">
        <ele>113</ele>
        <time>2017-11-08T14:14:24Z</time>
      </trkpt>
      <trkpt lat="47.77837" lon="1.89119">
        <ele>113</ele>
        <time>2017-11-08T14:14:25Z</time>
      </trkpt>
      <trkpt lat="47.7784" lon="1.8912">
        <ele>113</ele>
        <time>2017-11-08T14:14:26Z</time>
      </trkpt>
      <trkpt lat="47.77843" lon="1.89121">
        <ele>113</ele>
        <time>2017-11-08T14:14:27Z</time>
      </trkpt>
      <trkpt lat="47.77846" lon="1.89122">
        <ele>113</ele>
        <time>2017-11-08T14:14:28Z</time>
      </trkpt>
      <trkpt lat="47.77849" lon="1.89123">
        <ele>113</ele>
        <time>2017-11-08T14:14:29Z</time>
      </trkpt>
      <trkpt lat="47.77852" lon="1.89124">
        <ele>113</ele>
        <time>2017-11-08T14:14:30Z</time>
      </trkpt>
      <trkpt lat="47.77855" lon="1.89124">
        <ele>113</ele>
        <time>2017-11-08T14:14:31Z</time>
      </trkpt>
      <trkpt lat="47.77858" lon="1.89125">
        <ele>113</ele>
        <time>2017-11-08T14:14:32Z</time>
      </trkpt>
      <trkpt lat="47.77862" lon="1.89125">
        <ele>112</ele>
        <time>2017-11-08T14:14:33Z</time>
      </trkpt>
      <trkpt lat="47.77865" lon="1.89125">
        <ele>112</ele>
        <time>2017-11-08T14:14:34Z</time>
      </trkpt>
      <trkpt lat="47.77869" lon="1.89126">
        <ele>112</ele>
        <time>2017-11-08T14:14:35Z</time>
      </trkpt>
      <trkpt lat="47.77872" lon="1.89126">
        <ele>112</ele>
        <time>2017-11-08T14:14:36Z</time>
      </trkpt>
      <trkpt lat="47.77876" lon="1.89127">
        <ele>113</ele>
        <time>2017-11-08T14:14:37Z</time>
      </trkpt>
      <trkpt lat="47.7788" lon="1.89127">
        <ele>113</ele>
        <time>2017-11-08T14:14:38Z</time>
      </trkpt>
      <trkpt lat="47.77884" lon="1.89127">
        <ele>113</ele>
        <time>2017-11-08T14:14:39Z</time>
      </trkpt>
      <trkpt lat="47.77887" lon="1.89127">
        <ele>113</ele>
        <time>2017-11-08T14:14:40Z</time>
      </trkpt>
      <trkpt lat="47.77891" lon="1.89128">
        <ele>113</ele>
        <time>2017-11-08T14:14:41Z</time>
      </trkpt>
      <trkpt lat="47.77896" lon="1.89128">
        <ele>113</ele>
        <time>2017-11-08T14:14:42Z</time>
      </trkpt>
      <trkpt lat="47.779" lon="1.89128">
        <ele>113</ele>
        <time>2017-11-08T14:14:43Z</time>
      </trkpt>
      <trkpt lat="47.77904" lon="1.89128">
        <ele>113</ele>
        <time>2017-11-08T14:14:44Z</time>
      </trkpt>
      <trkpt lat="47.77908" lon="1.89128">
        <ele>113</ele>
        <time>2017-11-08T14:14:45Z</time>
      </trkpt>
      <trkpt lat="47.77912" lon="1.89128">
        <ele>113</ele>
        <time>2017-11-08T14:14:46Z</time>
      </trkpt>
      <trkpt lat="47.77916" lon="1.89127">
        <ele>113</ele>
        <time>2017-11-08T14:14:47Z</time>
      </trkpt>
      <trkpt lat="47.7792" lon="1.89127">
        <ele>113</ele>
        <time>2017-11-08T14:14:48Z</time>
      </trkpt>
      <trkpt lat="47.77924" lon="1.89127">
        <ele>113</ele>
        <time>2017-11-08T14:14:49Z</time>
      </trkpt>
      <trkpt lat="47.77928" lon="1.89127">
        <ele>113</ele>
        <time>2017-11-08T14:14:50Z</time>
      </trkpt>
      <trkpt lat="47.77932" lon="1.89126">
        <ele>113</ele>
        <time>2017-11-08T14:14:51Z</time>
      </trkpt>
      <trkpt lat="47.77935" lon="1.89126">
        <ele>113</ele>
        <time>2017-11-08T14:14:52Z</time>
      </trkpt>
      <trkpt lat="47.77939" lon="1.89125">
        <ele>113</ele>
        <time>2017-11-08T14:14:53Z</time>
      </trkpt>
      <trkpt lat="47.77943" lon="1.89125">
        <ele>113</ele>
        <time>2017-11-08T14:14:54Z</time>
      </trkpt>
      <trkpt lat="47.77946" lon="1.89124">
        <ele>113</ele>
        <time>2017-11-08T14:14:55Z</time>
      </trkpt>
      <trkpt lat="47.7795" lon="1.89124">
        <ele>113</ele>
        <time>2017-11-08T14:14:56Z</time>
      </trkpt>
      <trkpt lat="47.77954" lon="1.89123">
        <ele>113</ele>
        <time>2017-11-08T14:14:57Z</time>
      </trkpt>
      <trkpt lat="47.77958" lon="1.89123">
        <ele>113</ele>
        <time>2017-11-08T14:14:58Z</time>
      </trkpt>
      <trkpt lat="47.77961" lon="1.89123">
        <ele>113</ele>
        <time>2017-11-08T14:14:59Z</time>
      </trkpt>
      <trkpt lat="47.77965" lon="1.89122">
        <ele>113</ele>
        <time>2017-11-08T14:15:00Z</time>
      </trkpt>
      <trkpt lat="47.77969" lon="1.89122">
        <ele>113</ele>
        <time>2017-11-08T14:15:01Z</time>
      </trkpt>
      <trkpt lat="47.77973" lon="1.89121">
        <ele>113</ele>
        <time>2017-11-08T14:15:02Z</time>
      </trkpt>
      <trkpt lat="47.77977" lon="1.89121">
        <ele>113</ele>
        <time>2017-11-08T14:15:03Z</time>
      </trkpt>
      <trkpt lat="47.77981" lon="1.8912">
        <ele>113</ele>
        <time>2017-11-08T14:15:04Z</time>
      </trkpt>
      <trkpt lat="47.77985" lon="1.8912">
        <ele>113</ele>
        <time>2017-11-08T14:15:05Z</time>
      </trkpt>
      <trkpt lat="47.77989" lon="1.89119">
        <ele>113</ele>
        <time>2017-11-08T14:15:06Z</time>
      </trkpt>
      <trkpt lat="47.77992" lon="1.89119">
        <ele>113</ele>
        <time>2017-11-08T14:15:07Z</time>
      </trkpt>
      <trkpt lat="47.77996" lon="1.89119">
        <ele>113</ele>
        <time>2017-11-08T14:15:08Z</time>
      </trkpt>
      <trkpt lat="47.78001" lon="1.8912">
        <ele>114</ele>
        <time>2017-11-08T14:15:09Z</time>
      </trkpt>
      <trkpt lat="47.78005" lon="1.8912">
        <ele>114</ele>
        <time>2017-11-08T14:15:10Z</time>
      </trkpt>
      <trkpt lat="47.78009" lon="1.8912">
        <ele>114</ele>
        <time>2017-11-08T14:15:11Z</time>
      </trkpt>
      <trkpt lat="47.78013" lon="1.8912">
        <ele>114</ele>
        <time>2017-11-08T14:15:12Z</time>
      </trkpt>
      <trkpt lat="47.78017" lon="1.8912">
        <ele>114</ele>
        <time>2017-11-08T14:15:13Z</time>
      </trkpt>
      <trkpt lat="47.78021" lon="1.8912">
        <ele>114</ele>
        <time>2017-11-08T14:15:14Z</time>
      </trkpt>
      <trkpt lat="47.78025" lon="1.8912">
        <ele>114</ele>
        <time>2017-11-08T14:15:15Z</time>
      </trkpt>
      <trkpt lat="47.78029" lon="1.8912">
        <ele>114</ele>
        <time>2017-11-08T14:15:16Z</time>
      </trkpt>
      <trkpt lat="47.78033" lon="1.8912">
        <ele>114</ele>
        <time>2017-11-08T14:15:17Z</time>
      </trkpt>
      <trkpt lat="47.78036" lon="1.89119">
        <ele>114</ele>
        <time>2017-11-08T14:15:18Z</time>
      </trkpt>
      <trkpt lat="47.7804" lon="1.8912">
        <ele>114</ele>
        <time>2017-11-08T14:15:19Z</time>
      </trkpt>
      <trkpt lat="47.78044" lon="1.8912">
        <ele>114</ele>
        <time>2017-11-08T14:15:20Z</time>
      </trkpt>
      <trkpt lat="47.78048" lon="1.89119">
        <ele>114</ele>
        <time>2017-11-08T14:15:21Z</time>
      </trkpt>
      <trkpt lat="47.78051" lon="1.89119">
        <ele>114</ele>
        <time>2017-11-08T14:15:22Z</time>
      </trkpt>
      <trkpt lat="47.78055" lon="1.89119">
        <ele>115</ele>
        <time>2017-11-08T14:15:23Z</time>
      </trkpt>
      <trkpt lat="47.78059" lon="1.89119">
        <ele>115</ele>
        <time>2017-11-08T14:15:24Z</time>
      </trkpt>
      <trkpt lat="47.78062" lon="1.89119">
        <ele>115</ele>
        <time>2017-11-08T14:15:25Z</time>
      </trkpt>
      <trkpt lat="47.78066" lon="1.89119">
        <ele>115</ele>
        <time>2017-11-08T14:15:26Z</time>
      </trkpt>
      <trkpt lat="47.7807" lon="1.8912">
        <ele>115</ele>
        <time>2017-11-08T14:15:27Z</time>
      </trkpt>
      <trkpt lat="47.78073" lon="1.8912">
        <ele>115</ele>
        <time>2017-11-08T14:15:28Z</time>
      </trkpt>
      <trkpt lat="47.78077" lon="1.8912">
        <ele>115</ele>
        <time>2017-11-08T14:15:29Z</time>
      </trkpt>
      <trkpt lat="47.7808" lon="1.8912">
        <ele>115</ele>
        <time>2017-11-08T14:15:30Z</time>
      </trkpt>
      <trkpt lat="47.78084" lon="1.8912">
        <ele>116</ele>
        <time>2017-11-08T14:15:31Z</time>
      </trkpt>
      <trkpt lat="47.78087" lon="1.8912">
        <ele>116</ele>
        <time>2017-11-08T14:15:32Z</time>
      </trkpt>
      <trkpt lat="47.78091" lon="1.8912">
        <ele>116</ele>
        <time>2017-11-08T14:15:33Z</time>
      </trkpt>
      <trkpt lat="47.78094" lon="1.89121">
        <ele>116</ele>
        <time>2017-11-08T14:15:34Z</time>
      </trkpt>
      <trkpt lat="47.78097" lon="1.8912">
        <ele>116</ele>
        <time>2017-11-08T14:16:02Z</time>
      </trkpt>
      <trkpt lat="47.78101" lon="1.8912">
        <ele>116</ele>
        <time>2017-11-08T14:16:05Z</time>
      </trkpt>
      <trkpt lat="47.78105" lon="1.89121">
        <ele>116</ele>
        <time>2017-11-08T14:16:07Z</time>
      </trkpt>
      <trkpt lat="47.7811" lon="1.89122">
        <ele>116</ele>
        <time>2017-11-08T14:16:09Z</time>
      </trkpt>
      <trkpt lat="47.78115" lon="1.89123">
        <ele>116</ele>
        <time>2017-11-08T14:16:11Z</time>
      </trkpt>
      <trkpt lat="47.78118" lon="1.89123">
        <ele>116</ele>
        <time>2017-11-08T14:16:12Z</time>
      </trkpt>
      <trkpt lat="47.78121" lon="1.89123">
        <ele>116</ele>
        <time>2017-11-08T14:16:13Z</time>
      </trkpt>
      <trkpt lat="47.78124" lon="1.89124">
        <ele>116</ele>
        <time>2017-11-08T14:16:14Z</time>
      </trkpt>
      <trkpt lat="47.78127" lon="1.89124">
        <ele>116</ele>
        <time>2017-11-08T14:16:15Z</time>
      </trkpt>
      <trkpt lat="47.78129" lon="1.89124">
        <ele>116</ele>
        <time>2017-11-08T14:16:16Z</time>
      </trkpt>
      <trkpt lat="47.78132" lon="1.89124">
        <ele>116</ele>
        <time>2017-11-08T14:16:17Z</time>
      </trkpt>
      <trkpt lat="47.78138" lon="1.89126">
        <ele>116</ele>
        <time>2017-11-08T14:16:19Z</time>
      </trkpt>
      <trkpt lat="47.78143" lon="1.89127">
        <ele>116</ele>
        <time>2017-11-08T14:16:21Z</time>
      </trkpt>
      <trkpt lat="47.78148" lon="1.89129">
        <ele>117</ele>
        <time>2017-11-08T14:16:23Z</time>
      </trkpt>
      <trkpt lat="47.78152" lon="1.8913">
        <ele>117</ele>
        <time>2017-11-08T14:16:25Z</time>
      </trkpt>
      <trkpt lat="47.78158" lon="1.89131">
        <ele>117</ele>
        <time>2017-11-08T14:16:27Z</time>
      </trkpt>
      <trkpt lat="47.78161" lon="1.89132">
        <ele>117</ele>
        <time>2017-11-08T14:16:28Z</time>
      </trkpt>
      <trkpt lat="47.78165" lon="1.89133">
        <ele>117</ele>
        <time>2017-11-08T14:16:29Z</time>
      </trkpt>
      <trkpt lat="47.78168" lon="1.89134">
        <ele>117</ele>
        <time>2017-11-08T14:16:30Z</time>
      </trkpt>
      <trkpt lat="47.78171" lon="1.89135">
        <ele>117</ele>
        <time>2017-11-08T14:16:31Z</time>
      </trkpt>
      <trkpt lat="47.78175" lon="1.89137">
        <ele>117</ele>
        <time>2017-11-08T14:16:32Z</time>
      </trkpt>
      <trkpt lat="47.78178" lon="1.89138">
        <ele>117</ele>
        <time>2017-11-08T14:16:33Z</time>
      </trkpt>
      <trkpt lat="47.78181" lon="1.89139">
        <ele>117</ele>
        <time>2017-11-08T14:16:34Z</time>
      </trkpt>
      <trkpt lat="47.78184" lon="1.8914">
        <ele>117</ele>
        <time>2017-11-08T14:16:35Z</time>
      </trkpt>
      <trkpt lat="47.78187" lon="1.89141">
        <ele>117</ele>
        <time>2017-11-08T14:16:36Z</time>
      </trkpt>
      <trkpt lat="47.7819" lon="1.89142">
        <ele>117</ele>
        <time>2017-11-08T14:16:37Z</time>
      </trkpt>
      <trkpt lat="47.78193" lon="1.89143">
        <ele>117</ele>
        <time>2017-11-08T14:16:38Z</time>
      </trkpt>
      <trkpt lat="47.78199" lon="1.89143">
        <ele>117</ele>
        <time>2017-11-08T14:16:40Z</time>
      </trkpt>
      <trkpt lat="47.78202" lon="1.89143">
        <ele>117</ele>
        <time>2017-11-08T14:16:41Z</time>
      </trkpt>
      <trkpt lat="47.78204" lon="1.89144">
        <ele>117</ele>
        <time>2017-11-08T14:16:42Z</time>
      </trkpt>
      <trkpt lat="47.78211" lon="1.89145">
        <ele>117</ele>
        <time>2017-11-08T14:16:44Z</time>
      </trkpt>
      <trkpt lat="47.78215" lon="1.89147">
        <ele>117</ele>
        <time>2017-11-08T14:16:45Z</time>
      </trkpt>
      <trkpt lat="47.7822" lon="1.89148">
        <ele>117</ele>
        <time>2017-11-08T14:16:46Z</time>
      </trkpt>
      <trkpt lat="47.78224" lon="1.89149">
        <ele>117</ele>
        <time>2017-11-08T14:16:47Z</time>
      </trkpt>
      <trkpt lat="47.78227" lon="1.89149">
        <ele>117</ele>
        <time>2017-11-08T14:16:48Z</time>
      </trkpt>
      <trkpt lat="47.7823" lon="1.89149">
        <ele>117</ele>
        <time>2017-11-08T14:16:49Z</time>
      </trkpt>
      <trkpt lat="47.78234" lon="1.89149">
        <ele>117</ele>
        <time>2017-11-08T14:16:50Z</time>
      </trkpt>
      <trkpt lat="47.78238" lon="1.89149">
        <ele>117</ele>
        <time>2017-11-08T14:16:51Z</time>
      </trkpt>
      <trkpt lat="47.78243" lon="1.89148">
        <ele>117</ele>
        <time>2017-11-08T14:16:52Z</time>
      </trkpt>
      <trkpt lat="47.78248" lon="1.89148">
        <ele>117</ele>
        <time>2017-11-08T14:16:53Z</time>
      </trkpt>
      <trkpt lat="47.78252" lon="1.89149">
        <ele>117</ele>
        <time>2017-11-08T14:16:54Z</time>
      </trkpt>
      <trkpt lat="47.78255" lon="1.89149">
        <ele>117</ele>
        <time>2017-11-08T14:16:55Z</time>
      </trkpt>
      <trkpt lat="47.7826" lon="1.89149">
        <ele>117</ele>
        <time>2017-11-08T14:16:56Z</time>
      </trkpt>
      <trkpt lat="47.78264" lon="1.89148">
        <ele>117</ele>
        <time>2017-11-08T14:16:57Z</time>
      </trkpt>
      <trkpt lat="47.78269" lon="1.89147">
        <ele>117</ele>
        <time>2017-11-08T14:16:58Z</time>
      </trkpt>
      <trkpt lat="47.78273" lon="1.89146">
        <ele>116</ele>
        <time>2017-11-08T14:16:59Z</time>
      </trkpt>
      <trkpt lat="47.78277" lon="1.89144">
        <ele>116</ele>
        <time>2017-11-08T14:17:00Z</time>
      </trkpt>
      <trkpt lat="47.78282" lon="1.89141">
        <ele>116</ele>
        <time>2017-11-08T14:17:01Z</time>
      </trkpt>
      <trkpt lat="47.78286" lon="1.89139">
        <ele>116</ele>
        <time>2017-11-08T14:17:02Z</time>
      </trkpt>
      <trkpt lat="47.78291" lon="1.89137">
        <ele>116</ele>
        <time>2017-11-08T14:17:03Z</time>
      </trkpt>
      <trkpt lat="47.78295" lon="1.89136">
        <ele>116</ele>
        <time>2017-11-08T14:17:04Z</time>
      </trkpt>
      <trkpt lat="47.78298" lon="1.89135">
        <ele>116</ele>
        <time>2017-11-08T14:17:05Z</time>
      </trkpt>
      <trkpt lat="47.78301" lon="1.89133">
        <ele>116</ele>
        <time>2017-11-08T14:17:06Z</time>
      </trkpt>
      <trkpt lat="47.78305" lon="1.89133">
        <ele>116</ele>
        <time>2017-11-08T14:17:07Z</time>
      </trkpt>
      <trkpt lat="47.78309" lon="1.89132">
        <ele>116</ele>
        <time>2017-11-08T14:17:08Z</time>
      </trkpt>
      <trkpt lat="47.78313" lon="1.89131">
        <ele>116</ele>
        <time>2017-11-08T14:17:09Z</time>
      </trkpt>
      <trkpt lat="47.78317" lon="1.8913">
        <ele>116</ele>
        <time>2017-11-08T14:17:10Z</time>
      </trkpt>
      <trkpt lat="47.7832" lon="1.89128">
        <ele>116</ele>
        <time>2017-11-08T14:17:11Z</time>
      </trkpt>
      <trkpt lat="47.78324" lon="1.89127">
        <ele>116</ele>
        <time>2017-11-08T14:17:12Z</time>
      </trkpt>
      <trkpt lat="47.78328" lon="1.89124">
        <ele>116</ele>
        <time>2017-11-08T14:17:13Z</time>
      </trkpt>
      <trkpt lat="47.78332" lon="1.89123">
        <ele>116</ele>
        <time>2017-11-08T14:17:14Z</time>
      </trkpt>
      <trkpt lat="47.78336" lon="1.89121">
        <ele>115</ele>
        <time>2017-11-08T14:17:15Z</time>
      </trkpt>
      <trkpt lat="47.7834" lon="1.89119">
        <ele>115</ele>
        <time>2017-11-08T14:17:16Z</time>
      </trkpt>
      <trkpt lat="47.78344" lon="1.89117">
        <ele>115</ele>
        <time>2017-11-08T14:17:17Z</time>
      </trkpt>
      <trkpt lat="47.78349" lon="1.89116">
        <ele>116</ele>
        <time>2017-11-08T14:17:18Z</time>
      </trkpt>
      <trkpt lat="47.78353" lon="1.89114">
        <ele>116</ele>
        <time>2017-11-08T14:17:19Z</time>
      </trkpt>
      <trkpt lat="47.78357" lon="1.89112">
        <ele>116</ele>
        <time>2017-11-08T14:17:20Z</time>
      </trkpt>
      <trkpt lat="47.7836" lon="1.89111">
        <ele>116</ele>
        <time>2017-11-08T14:17:21Z</time>
      </trkpt>
      <trkpt lat="47.78363" lon="1.89109">
        <ele>116</ele>
        <time>2017-11-08T14:17:22Z</time>
      </trkpt>
      <trkpt lat="47.78367" lon="1.89107">
        <ele>116</ele>
        <time>2017-11-08T14:17:23Z</time>
      </trkpt>
      <trkpt lat="47.78371" lon="1.89106">
        <ele>116</ele>
        <time>2017-11-08T14:17:24Z</time>
      </trkpt>
      <trkpt lat="47.78374" lon="1.89105">
        <ele>116</ele>
        <time>2017-11-08T14:17:25Z</time>
      </trkpt>
      <trkpt lat="47.78377" lon="1.89103">
        <ele>116</ele>
        <time>2017-11-08T14:17:26Z</time>
      </trkpt>
      <trkpt lat="47.78381" lon="1.89102">
        <ele>116</ele>
        <time>2017-11-08T14:17:27Z</time>
      </trkpt>
      <trkpt lat="47.78384" lon="1.891">
        <ele>116</ele>
        <time>2017-11-08T14:17:28Z</time>
      </trkpt>
      <trkpt lat="47.78388" lon="1.89098">
        <ele>116</ele>
        <time>2017-11-08T14:17:29Z</time>
      </trkpt>
      <trkpt lat="47.78391" lon="1.89096">
        <ele>116</ele>
        <time>2017-11-08T14:17:30Z</time>
      </trkpt>
      <trkpt lat="47.78395" lon="1.89095">
        <ele>116</ele>
        <time>2017-11-08T14:17:31Z</time>
      </trkpt>
      <trkpt lat="47.78399" lon="1.89092">
        <ele>116</ele>
        <time>2017-11-08T14:17:32Z</time>
      </trkpt>
      <trkpt lat="47.78402" lon="1.8909">
        <ele>116</ele>
        <time>2017-11-08T14:17:33Z</time>
      </trkpt>
      <trkpt lat="47.78407" lon="1.89088">
        <ele>116</ele>
        <time>2017-11-08T14:17:34Z</time>
      </trkpt>
      <trkpt lat="47.78412" lon="1.89087">
        <ele>116</ele>
        <time>2017-11-08T14:17:35Z</time>
      </trkpt>
      <trkpt lat="47.78415" lon="1.89085">
        <ele>116</ele>
        <time>2017-11-08T14:17:36Z</time>
      </trkpt>
      <trkpt lat="47.7842" lon="1.89084">
        <ele>116</ele>
        <time>2017-11-08T14:17:37Z</time>
      </trkpt>
      <trkpt lat="47.78424" lon="1.89081">
        <ele>115</ele>
        <time>2017-11-08T14:17:38Z</time>
      </trkpt>
      <trkpt lat="47.78428" lon="1.89079">
        <ele>115</ele>
        <time>2017-11-08T14:17:39Z</time>
      </trkpt>
      <trkpt lat="47.78433" lon="1.89078">
        <ele>115</ele>
        <time>2017-11-08T14:17:40Z</time>
      </trkpt>
      <trkpt lat="47.78436" lon="1.89076">
        <ele>115</ele>
        <time>2017-11-08T14:17:41Z</time>
      </trkpt>
      <trkpt lat="47.7844" lon="1.89075">
        <ele>115</ele>
        <time>2017-11-08T14:17:42Z</time>
      </trkpt>
      <trkpt lat="47.78444" lon="1.89073">
        <ele>114</ele>
        <time>2017-11-08T14:17:43Z</time>
      </trkpt>
      <trkpt lat="47.78449" lon="1.89072">
        <ele>114</ele>
        <time>2017-11-08T14:17:44Z</time>
      </trkpt>
      <trkpt lat="47.78452" lon="1.8907">
        <ele>114</ele>
        <time>2017-11-08T14:17:45Z</time>
      </trkpt>
      <trkpt lat="47.78456" lon="1.89069">
        <ele>114</ele>
        <time>2017-11-08T14:17:46Z</time>
      </trkpt>
      <trkpt lat="47.78459" lon="1.89067">
        <ele>114</ele>
        <time>2017-11-08T14:17:47Z</time>
      </trkpt>
      <trkpt lat="47.78463" lon="1.89065">
        <ele>114</ele>
        <time>2017-11-08T14:17:48Z</time>
      </trkpt>
      <trkpt lat="47.78467" lon="1.89063">
        <ele>114</ele>
        <time>2017-11-08T14:17:49Z</time>
      </trkpt>
      <trkpt lat="47.78471" lon="1.89061">
        <ele>114</ele>
        <time>2017-11-08T14:17:50Z</time>
      </trkpt>
      <trkpt lat="47.78475" lon="1.89058">
        <ele>114</ele>
        <time>2017-11-08T14:17:51Z</time>
      </trkpt>
      <trkpt lat="47.78478" lon="1.89056">
        <ele>114</ele>
        <time>2017-11-08T14:17:52Z</time>
      </trkpt>
      <trkpt lat="47.78482" lon="1.89054">
        <ele>114</ele>
        <time>2017-11-08T14:17:53Z</time>
      </trkpt>
      <trkpt lat="47.78485" lon="1.89052">
        <ele>114</ele>
        <time>2017-11-08T14:17:54Z</time>
      </trkpt>
      <trkpt lat="47.78488" lon="1.8905">
        <ele>114</ele>
        <time>2017-11-08T14:17:55Z</time>
      </trkpt>
      <trkpt lat="47.78491" lon="1.89049">
        <ele>114</ele>
        <time>2017-11-08T14:17:56Z</time>
      </trkpt>
      <trkpt lat="47.78495" lon="1.89048">
        <ele>114</ele>
        <time>2017-11-08T14:17:57Z</time>
      </trkpt>
      <trkpt lat="47.78498" lon="1.89047">
        <ele>114</ele>
        <time>2017-11-08T14:17:58Z</time>
      </trkpt>
      <trkpt lat="47.78502" lon="1.89046">
        <ele>113</ele>
        <time>2017-11-08T14:17:59Z</time>
      </trkpt>
      <trkpt lat="47.78506" lon="1.89045">
        <ele>113</ele>
        <time>2017-11-08T14:18:00Z</time>
      </trkpt>
      <trkpt lat="47.7851" lon="1.89045">
        <ele>113</ele>
        <time>2017-11-08T14:18:01Z</time>
      </trkpt>
      <trkpt lat="47.78514" lon="1.89044">
        <ele>113</ele>
        <time>2017-11-08T14:18:02Z</time>
      </trkpt>
      <trkpt lat="47.78518" lon="1.89043">
        <ele>113</ele>
        <time>2017-11-08T14:18:03Z</time>
      </trkpt>
      <trkpt lat="47.78522" lon="1.89042">
        <ele>113</ele>
        <time>2017-11-08T14:18:04Z</time>
      </trkpt>
      <trkpt lat="47.78527" lon="1.89042">
        <ele>113</ele>
        <time>2017-11-08T14:18:05Z</time>
      </trkpt>
      <trkpt lat="47.78532" lon="1.89042">
        <ele>113</ele>
        <time>2017-11-08T14:18:06Z</time>
      </trkpt>
      <trkpt lat="47.78536" lon="1.89042">
        <ele>113</ele>
        <time>2017-11-08T14:18:07Z</time>
      </trkpt>
      <trkpt lat="47.7854" lon="1.89041">
        <ele>113</ele>
        <time>2017-11-08T14:18:08Z</time>
      </trkpt>
      <trkpt lat="47.78544" lon="1.89041">
        <ele>113</ele>
        <time>2017-11-08T14:18:09Z</time>
      </trkpt>
      <trkpt lat="47.78549" lon="1.89041">
        <ele>113</ele>
        <time>2017-11-08T14:18:10Z</time>
      </trkpt>
      <trkpt lat="47.78554" lon="1.89042">
        <ele>113</ele>
        <time>2017-11-08T14:18:11Z</time>
      </trkpt>
      <trkpt lat="47.78559" lon="1.89042">
        <ele>113</ele>
        <time>2017-11-08T14:18:12Z</time>
      </trkpt>
      <trkpt lat="47.78565" lon="1.89042">
        <ele>113</ele>
        <time>2017-11-08T14:18:13Z</time>
      </trkpt>
      <trkpt lat="47.78571" lon="1.89043">
        <ele>113</ele>
        <time>2017-11-08T14:18:14Z</time>
      </trkpt>
      <trkpt lat="47.78575" lon="1.89043">
        <ele>113</ele>
        <time>2017-11-08T14:18:15Z</time>
      </trkpt>
      <trkpt lat="47.78579" lon="1.89043">
        <ele>113</ele>
        <time>2017-11-08T14:18:16Z</time>
      </trkpt>
      <trkpt lat="47.78583" lon="1.89043">
        <ele>113</ele>
        <time>2017-11-08T14:18:17Z</time>
      </trkpt>
      <trkpt lat="47.78588" lon="1.89043">
        <ele>113</ele>
        <time>2017-11-08T14:18:18Z</time>
      </trkpt>
      <trkpt lat="47.78593" lon="1.89043">
        <ele>112</ele>
        <time>2017-11-08T14:18:19Z</time>
      </trkpt>
      <trkpt lat="47.78597" lon="1.89043">
        <ele>112</ele>
        <time>2017-11-08T14:18:20Z</time>
      </trkpt>
      <trkpt lat="47.78601" lon="1.89043">
        <ele>112</ele>
        <time>2017-11-08T14:18:21Z</time>
      </trkpt>
      <trkpt lat="47.78606" lon="1.89043">
        <ele>112</ele>
        <time>2017-11-08T14:18:22Z</time>
      </trkpt>
      <trkpt lat="47.78611" lon="1.89042">
        <ele>112</ele>
        <time>2017-11-08T14:18:23Z</time>
      </trkpt>
      <trkpt lat="47.78615" lon="1.89042">
        <ele>112</ele>
        <time>2017-11-08T14:18:24Z</time>
      </trkpt>
      <trkpt lat="47.78619" lon="1.89041">
        <ele>112</ele>
        <time>2017-11-08T14:18:25Z</time>
      </trkpt>
      <trkpt lat="47.78623" lon="1.8904">
        <ele>112</ele>
        <time>2017-11-08T14:18:26Z</time>
      </trkpt>
      <trkpt lat="47.78628" lon="1.89039">
        <ele>112</ele>
        <time>2017-11-08T14:18:27Z</time>
      </trkpt>
      <trkpt lat="47.78632" lon="1.89038">
        <ele>112</ele>
        <time>2017-11-08T14:18:28Z</time>
      </trkpt>
      <trkpt lat="47.78636" lon="1.89038">
        <ele>112</ele>
        <time>2017-11-08T14:18:29Z</time>
      </trkpt>
      <trkpt lat="47.7864" lon="1.89037">
        <ele>112</ele>
        <time>2017-11-08T14:18:30Z</time>
      </trkpt>
      <trkpt lat="47.78644" lon="1.89036">
        <ele>112</ele>
        <time>2017-11-08T14:18:31Z</time>
      </trkpt>
      <trkpt lat="47.78648" lon="1.89034">
        <ele>112</ele>
        <time>2017-11-08T14:18:32Z</time>
      </trkpt>
      <trkpt lat="47.78652" lon="1.89033">
        <ele>112</ele>
        <time>2017-11-08T14:18:33Z</time>
      </trkpt>
      <trkpt lat="47.78656" lon="1.89032">
        <ele>112</ele>
        <time>2017-11-08T14:18:34Z</time>
      </trkpt>
      <trkpt lat="47.7866" lon="1.89031">
        <ele>112</ele>
        <time>2017-11-08T14:18:35Z</time>
      </trkpt>
      <trkpt lat="47.78664" lon="1.8903">
        <ele>112</ele>
        <time>2017-11-08T14:18:36Z</time>
      </trkpt>
      <trkpt lat="47.78668" lon="1.8903">
        <ele>111</ele>
        <time>2017-11-08T14:18:37Z</time>
      </trkpt>
      <trkpt lat="47.78672" lon="1.89029">
        <ele>111</ele>
        <time>2017-11-08T14:18:38Z</time>
      </trkpt>
      <trkpt lat="47.78676" lon="1.89028">
        <ele>111</ele>
        <time>2017-11-08T14:18:39Z</time>
      </trkpt>
      <trkpt lat="47.78679" lon="1.89027">
        <ele>111</ele>
        <time>2017-11-08T14:18:40Z</time>
      </trkpt>
      <trkpt lat="47.78683" lon="1.89026">
        <ele>111</ele>
        <time>2017-11-08T14:18:41Z</time>
      </trkpt>
      <trkpt lat="47.78687" lon="1.89025">
        <ele>111</ele>
        <time>2017-11-08T14:18:42Z</time>
      </trkpt>
      <trkpt lat="47.7869" lon="1.89025">
        <ele>111</ele>
        <time>2017-11-08T14:18:43Z</time>
      </trkpt>
      <trkpt lat="47.78694" lon="1.89024">
        <ele>111</ele>
        <time>2017-11-08T14:18:44Z</time>
      </trkpt>
      <trkpt lat="47.78698" lon="1.89023">
        <ele>111</ele>
        <time>2017-11-08T14:18:45Z</time>
      </trkpt>
      <trkpt lat="47.78701" lon="1.89023">
        <ele>111</ele>
        <time>2017-11-08T14:18:46Z</time>
      </trkpt>
      <trkpt lat="47.78705" lon="1.89022">
        <ele>111</ele>
        <time>2017-11-08T14:18:47Z</time>
      </trkpt>
      <trkpt lat="47.78709" lon="1.89021">
        <ele>111</ele>
        <time>2017-11-08T14:18:48Z</time>
      </trkpt>
      <trkpt lat="47.78713" lon="1.89021">
        <ele>111</ele>
        <time>2017-11-08T14:18:49Z</time>
      </trkpt>
      <trkpt lat="47.78716" lon="1.8902">
        <ele>111</ele>
        <time>2017-11-08T14:18:50Z</time>
      </trkpt>
      <trkpt lat="47.7872" lon="1.89019">
        <ele>110</ele>
        <time>2017-11-08T14:18:51Z</time>
      </trkpt>
      <trkpt lat="47.78723" lon="1.89018">
        <ele>110</ele>
        <time>2017-11-08T14:18:52Z</time>
      </trkpt>
      <trkpt lat="47.78726" lon="1.89017">
        <ele>110</ele>
        <time>2017-11-08T14:18:53Z</time>
      </trkpt>
      <trkpt lat="47.7873" lon="1.89014">
        <ele>110</ele>
        <time>2017-11-08T14:18:54Z</time>
      </trkpt>
      <trkpt lat="47.78732" lon="1.89009">
        <ele>110</ele>
        <time>2017-11-08T14:18:55Z</time>
      </trkpt>
      <trkpt lat="47.78735" lon="1.89004">
        <ele>110</ele>
        <time>2017-11-08T14:18:56Z</time>
      </trkpt>
      <trkpt lat="47.78737" lon="1.88999">
        <ele>111</ele>
        <time>2017-11-08T14:18:57Z</time>
      </trkpt>
      <trkpt lat="47.78739" lon="1.88994">
        <ele>111</ele>
        <time>2017-11-08T14:18:58Z</time>
      </trkpt>
      <trkpt lat="47.7874" lon="1.88989">
        <ele>111</ele>
        <time>2017-11-08T14:18:59Z</time>
      </trkpt>
      <trkpt lat="47.78741" lon="1.88984">
        <ele>111</ele>
        <time>2017-11-08T14:19:00Z</time>
      </trkpt>
      <trkpt lat="47.78741" lon="1.88979">
        <ele>111</ele>
        <time>2017-11-08T14:19:01Z</time>
      </trkpt>
      <trkpt lat="47.78741" lon="1.88974">
        <ele>111</ele>
        <time>2017-11-08T14:19:02Z</time>
      </trkpt>
      <trkpt lat="47.78741" lon="1.88969">
        <ele>111</ele>
        <time>2017-11-08T14:19:03Z</time>
      </trkpt>
      <trkpt lat="47.78741" lon="1.88964">
        <ele>111</ele>
        <time>2017-11-08T14:19:04Z</time>
      </trkpt>
      <trkpt lat="47.78741" lon="1.88958">
        <ele>112</ele>
        <time>2017-11-08T14:19:05Z</time>
      </trkpt>
      <trkpt lat="47.78741" lon="1.88952">
        <ele>112</ele>
        <time>2017-11-08T14:19:06Z</time>
      </trkpt>
      <trkpt lat="47.78741" lon="1.88946">
        <ele>112</ele>
        <time>2017-11-08T14:19:07Z</time>
      </trkpt>
      <trkpt lat="47.78741" lon="1.8894">
        <ele>112</ele>
        <time>2017-11-08T14:19:08Z</time>
      </trkpt>
      <trkpt lat="47.7874" lon="1.88934">
        <ele>112</ele>
        <time>2017-11-08T14:19:09Z</time>
      </trkpt>
      <trkpt lat="47.7874" lon="1.88927">
        <ele>112</ele>
        <time>2017-11-08T14:19:10Z</time>
      </trkpt>
      <trkpt lat="47.7874" lon="1.8892">
        <ele>112</ele>
        <time>2017-11-08T14:19:11Z</time>
      </trkpt>
      <trkpt lat="47.78739" lon="1.88914">
        <ele>112</ele>
        <time>2017-11-08T14:19:12Z</time>
      </trkpt>
      <trkpt lat="47.78739" lon="1.88906">
        <ele>112</ele>
        <time>2017-11-08T14:19:13Z</time>
      </trkpt>
      <trkpt lat="47.78739" lon="1.88899">
        <ele>112</ele>
        <time>2017-11-08T14:19:14Z</time>
      </trkpt>
      <trkpt lat="47.78739" lon="1.88892">
        <ele>112</ele>
        <time>2017-11-08T14:19:15Z</time>
      </trkpt>
      <trkpt lat="47.78739" lon="1.88885">
        <ele>112</ele>
        <time>2017-11-08T14:19:16Z</time>
      </trkpt>
      <trkpt lat="47.78738" lon="1.88878">
        <ele>112</ele>
        <time>2017-11-08T14:19:17Z</time>
      </trkpt>
      <trkpt lat="47.78739" lon="1.88871">
        <ele>112</ele>
        <time>2017-11-08T14:19:18Z</time>
      </trkpt>
      <trkpt lat="47.78739" lon="1.88864">
        <ele>112</ele>
        <time>2017-11-08T14:19:19Z</time>
      </trkpt>
      <trkpt lat="47.78739" lon="1.88858">
        <ele>112</ele>
        <time>2017-11-08T14:19:20Z</time>
      </trkpt>
      <trkpt lat="47.7874" lon="1.8885">
        <ele>112</ele>
        <time>2017-11-08T14:19:21Z</time>
      </trkpt>
      <trkpt lat="47.78741" lon="1.88842">
        <ele>112</ele>
        <time>2017-11-08T14:19:22Z</time>
      </trkpt>
      <trkpt lat="47.78742" lon="1.88836">
        <ele>112</ele>
        <time>2017-11-08T14:19:23Z</time>
      </trkpt>
      <trkpt lat="47.78742" lon="1.88829">
        <ele>112</ele>
        <time>2017-11-08T14:19:24Z</time>
      </trkpt>
      <trkpt lat="47.78743" lon="1.88821">
        <ele>112</ele>
        <time>2017-11-08T14:19:25Z</time>
      </trkpt>
      <trkpt lat="47.78744" lon="1.88815">
        <ele>112</ele>
        <time>2017-11-08T14:19:26Z</time>
      </trkpt>
      <trkpt lat="47.78744" lon="1.88808">
        <ele>112</ele>
        <time>2017-11-08T14:19:27Z</time>
      </trkpt>
      <trkpt lat="47.78745" lon="1.88801">
        <ele>112</ele>
        <time>2017-11-08T14:19:28Z</time>
      </trkpt>
      <trkpt lat="47.78746" lon="1.88794">
        <ele>112</ele>
        <time>2017-11-08T14:19:29Z</time>
      </trkpt>
      <trkpt lat="47.78746" lon="1.88787">
        <ele>112</ele>
        <time>2017-11-08T14:19:30Z</time>
      </trkpt>
      <trkpt lat="47.78746" lon="1.88781">
        <ele>112</ele>
        <time>2017-11-08T14:19:31Z</time>
      </trkpt>
      <trkpt lat="47.78747" lon="1.88775">
        <ele>112</ele>
        <time>2017-11-08T14:19:32Z</time>
      </trkpt>
      <trkpt lat="47.78747" lon="1.88769">
        <ele>112</ele>
        <time>2017-11-08T14:19:33Z</time>
      </trkpt>
      <trkpt lat="47.78747" lon="1.88763">
        <ele>112</ele>
        <time>2017-11-08T14:19:34Z</time>
      </trkpt>
      <trkpt lat="47.78748" lon="1.88756">
        <ele>112</ele>
        <time>2017-11-08T14:19:35Z</time>
      </trkpt>
      <trkpt lat="47.78748" lon="1.88749">
        <ele>112</ele>
        <time>2017-11-08T14:19:36Z</time>
      </trkpt>
      <trkpt lat="47.7875" lon="1.88742">
        <ele>112</ele>
        <time>2017-11-08T14:19:37Z</time>
      </trkpt>
      <trkpt lat="47.78751" lon="1.88735">
        <ele>112</ele>
        <time>2017-11-08T14:19:38Z</time>
      </trkpt>
      <trkpt lat="47.78752" lon="1.88729">
        <ele>112</ele>
        <time>2017-11-08T14:19:39Z</time>
      </trkpt>
      <trkpt lat="47.78754" lon="1.88722">
        <ele>112</ele>
        <time>2017-11-08T14:19:40Z</time>
      </trkpt>
      <trkpt lat="47.78755" lon="1.88714">
        <ele>112</ele>
        <time>2017-11-08T14:19:41Z</time>
      </trkpt>
      <trkpt lat="47.78757" lon="1.88706">
        <ele>112</ele>
        <time>2017-11-08T14:19:42Z</time>
      </trkpt>
      <trkpt lat="47.78759" lon="1.88698">
        <ele>112</ele>
        <time>2017-11-08T14:19:43Z</time>
      </trkpt>
      <trkpt lat="47.7876" lon="1.8869">
        <ele>111</ele>
        <time>2017-11-08T14:19:44Z</time>
      </trkpt>
      <trkpt lat="47.78761" lon="1.88683">
        <ele>111</ele>
        <time>2017-11-08T14:19:45Z</time>
      </trkpt>
      <trkpt lat="47.78763" lon="1.88676">
        <ele>111</ele>
        <time>2017-11-08T14:19:46Z</time>
      </trkpt>
      <trkpt lat="47.78764" lon="1.88671">
        <ele>111</ele>
        <time>2017-11-08T14:19:47Z</time>
      </trkpt>
      <trkpt lat="47.78765" lon="1.88665">
        <ele>111</ele>
        <time>2017-11-08T14:19:48Z</time>
      </trkpt>
      <trkpt lat="47.78766" lon="1.88659">
        <ele>111</ele>
        <time>2017-11-08T14:19:49Z</time>
      </trkpt>
      <trkpt lat="47.78767" lon="1.88652">
        <ele>111</ele>
        <time>2017-11-08T14:19:50Z</time>
      </trkpt>
      <trkpt lat="47.78768" lon="1.88646">
        <ele>111</ele>
        <time>2017-11-08T14:19:51Z</time>
      </trkpt>
      <trkpt lat="47.78769" lon="1.88639">
        <ele>111</ele>
        <time>2017-11-08T14:19:52Z</time>
      </trkpt>
      <trkpt lat="47.7877" lon="1.88632">
        <ele>111</ele>
        <time>2017-11-08T14:19:53Z</time>
      </trkpt>
      <trkpt lat="47.78771" lon="1.88625">
        <ele>111</ele>
        <time>2017-11-08T14:19:54Z</time>
      </trkpt>
      <trkpt lat="47.78772" lon="1.88617">
        <ele>111</ele>
        <time>2017-11-08T14:19:55Z</time>
      </trkpt>
      <trkpt lat="47.78773" lon="1.88609">
        <ele>111</ele>
        <time>2017-11-08T14:19:56Z</time>
      </trkpt>
      <trkpt lat="47.78774" lon="1.88601">
        <ele>111</ele>
        <time>2017-11-08T14:19:57Z</time>
      </trkpt>
      <trkpt lat="47.78774" lon="1.88594">
        <ele>111</ele>
        <time>2017-11-08T14:19:58Z</time>
      </trkpt>
      <trkpt lat="47.78775" lon="1.88587">
        <ele>111</ele>
        <time>2017-11-08T14:19:59Z</time>
      </trkpt>
      <trkpt lat="47.78775" lon="1.88579">
        <ele>111</ele>
        <time>2017-11-08T14:20:00Z</time>
      </trkpt>
      <trkpt lat="47.78775" lon="1.88572">
        <ele>111</ele>
        <time>2017-11-08T14:20:01Z</time>
      </trkpt>
      <trkpt lat="47.78775" lon="1.88564">
        <ele>111</ele>
        <time>2017-11-08T14:20:02Z</time>
      </trkpt>
      <trkpt lat="47.78775" lon="1.88557">
        <ele>111</ele>
        <time>2017-11-08T14:20:03Z</time>
      </trkpt>
      <trkpt lat="47.78775" lon="1.8855">
        <ele>111</ele>
        <time>2017-11-08T14:20:04Z</time>
      </trkpt>
      <trkpt lat="47.78775" lon="1.88543">
        <ele>111</ele>
        <time>2017-11-08T14:20:05Z</time>
      </trkpt>
      <trkpt lat="47.78776" lon="1.88536">
        <ele>111</ele>
        <time>2017-11-08T14:20:06Z</time>
      </trkpt>
      <trkpt lat="47.78776" lon="1.88529">
        <ele>111</ele>
        <time>2017-11-08T14:20:07Z</time>
      </trkpt>
      <trkpt lat="47.78775" lon="1.88522">
        <ele>111</ele>
        <time>2017-11-08T14:20:08Z</time>
      </trkpt>
      <trkpt lat="47.78776" lon="1.88516">
        <ele>111</ele>
        <time>2017-11-08T14:20:09Z</time>
      </trkpt>
      <trkpt lat="47.78776" lon="1.88509">
        <ele>111</ele>
        <time>2017-11-08T14:20:10Z</time>
      </trkpt>
      <trkpt lat="47.78776" lon="1.88503">
        <ele>111</ele>
        <time>2017-11-08T14:20:11Z</time>
      </trkpt>
      <trkpt lat="47.78776" lon="1.88497">
        <ele>112</ele>
        <time>2017-11-08T14:20:12Z</time>
      </trkpt>
      <trkpt lat="47.78776" lon="1.8849">
        <ele>112</ele>
        <time>2017-11-08T14:20:13Z</time>
      </trkpt>
      <trkpt lat="47.78776" lon="1.88484">
        <ele>112</ele>
        <time>2017-11-08T14:20:14Z</time>
      </trkpt>
      <trkpt lat="47.78776" lon="1.88479">
        <ele>112</ele>
        <time>2017-11-08T14:20:15Z</time>
      </trkpt>
      <trkpt lat="47.78777" lon="1.88473">
        <ele>112</ele>
        <time>2017-11-08T14:20:16Z</time>
      </trkpt>
      <trkpt lat="47.78777" lon="1.88467">
        <ele>112</ele>
        <time>2017-11-08T14:20:17Z</time>
      </trkpt>
      <trkpt lat="47.78777" lon="1.88462">
        <ele>112</ele>
        <time>2017-11-08T14:20:18Z</time>
      </trkpt>
      <trkpt lat="47.78777" lon="1.88458">
        <ele>112</ele>
        <time>2017-11-08T14:20:19Z</time>
      </trkpt>
      <trkpt lat="47.78777" lon="1.8845">
        <ele>112</ele>
        <time>2017-11-08T14:20:21Z</time>
      </trkpt>
      <trkpt lat="47.78777" lon="1.88445">
        <ele>112</ele>
        <time>2017-11-08T14:20:23Z</time>
      </trkpt>
      <trkpt lat="47.78777" lon="1.88439">
        <ele>112</ele>
        <time>2017-11-08T14:20:25Z</time>
      </trkpt>
      <trkpt lat="47.78774" lon="1.88434">
        <ele>112</ele>
        <time>2017-11-08T14:20:27Z</time>
      </trkpt>
      <trkpt lat="47.78771" lon="1.8843">
        <ele>112</ele>
        <time>2017-11-08T14:20:29Z</time>
      </trkpt>
      <trkpt lat="47.78768" lon="1.88427">
        <ele>112</ele>
        <time>2017-11-08T14:20:30Z</time>
      </trkpt>
      <trkpt lat="47.78764" lon="1.88425">
        <ele>112</ele>
        <time>2017-11-08T14:20:31Z</time>
      </trkpt>
      <trkpt lat="47.7876" lon="1.88424">
        <ele>112</ele>
        <time>2017-11-08T14:20:32Z</time>
      </trkpt>
      <trkpt lat="47.78756" lon="1.88422">
        <ele>112</ele>
        <time>2017-11-08T14:20:33Z</time>
      </trkpt>
      <trkpt lat="47.78752" lon="1.88419">
        <ele>112</ele>
        <time>2017-11-08T14:20:34Z</time>
      </trkpt>
      <trkpt lat="47.78748" lon="1.88417">
        <ele>112</ele>
        <time>2017-11-08T14:20:35Z</time>
      </trkpt>
      <trkpt lat="47.78745" lon="1.88415">
        <ele>112</ele>
        <time>2017-11-08T14:20:36Z</time>
      </trkpt>
      <trkpt lat="47.7874" lon="1.88413">
        <ele>112</ele>
        <time>2017-11-08T14:20:37Z</time>
      </trkpt>
      <trkpt lat="47.78737" lon="1.88411">
        <ele>112</ele>
        <time>2017-11-08T14:20:38Z</time>
      </trkpt>
      <trkpt lat="47.78733" lon="1.8841">
        <ele>113</ele>
        <time>2017-11-08T14:20:39Z</time>
      </trkpt>
      <trkpt lat="47.78729" lon="1.88408">
        <ele>113</ele>
        <time>2017-11-08T14:20:40Z</time>
      </trkpt>
      <trkpt lat="47.78724" lon="1.88406">
        <ele>113</ele>
        <time>2017-11-08T14:20:41Z</time>
      </trkpt>
      <trkpt lat="47.7872" lon="1.88404">
        <ele>113</ele>
        <time>2017-11-08T14:20:42Z</time>
      </trkpt>
      <trkpt lat="47.78716" lon="1.88402">
        <ele>113</ele>
        <time>2017-11-08T14:20:43Z</time>
      </trkpt>
      <trkpt lat="47.78712" lon="1.88401">
        <ele>113</ele>
        <time>2017-11-08T14:20:44Z</time>
      </trkpt>
      <trkpt lat="47.78708" lon="1.88399">
        <ele>113</ele>
        <time>2017-11-08T14:20:45Z</time>
      </trkpt>
      <trkpt lat="47.78704" lon="1.88398">
        <ele>113</ele>
        <time>2017-11-08T14:20:46Z</time>
      </trkpt>
      <trkpt lat="47.78699" lon="1.88396">
        <ele>113</ele>
        <time>2017-11-08T14:20:47Z</time>
      </trkpt>
      <trkpt lat="47.78694" lon="1.88395">
        <ele>113</ele>
        <time>2017-11-08T14:20:48Z</time>
      </trkpt>
      <trkpt lat="47.7869" lon="1.88394">
        <ele>113</ele>
        <time>2017-11-08T14:20:49Z</time>
      </trkpt>
      <trkpt lat="47.78684" lon="1.88391">
        <ele>113</ele>
        <time>2017-11-08T14:20:50Z</time>
      </trkpt>
      <trkpt lat="47.78679" lon="1.8839">
        <ele>113</ele>
        <time>2017-11-08T14:20:51Z</time>
      </trkpt>
      <trkpt lat="47.78671" lon="1.8839">
        <ele>113</ele>
        <time>2017-11-08T14:20:52Z</time>
      </trkpt>
      <trkpt lat="47.78667" lon="1.88387">
        <ele>113</ele>
        <time>2017-11-08T14:20:53Z</time>
      </trkpt>
      <trkpt lat="47.78663" lon="1.88384">
        <ele>114</ele>
        <time>2017-11-08T14:20:54Z</time>
      </trkpt>
      <trkpt lat="47.78661" lon="1.88379">
        <ele>114</ele>
        <time>2017-11-08T14:20:55Z</time>
      </trkpt>
      <trkpt lat="47.78662" lon="1.88373">
        <ele>114</ele>
        <time>2017-11-08T14:20:56Z</time>
      </trkpt>
      <trkpt lat="47.78662" lon="1.88367">
        <ele>114</ele>
        <time>2017-11-08T14:20:57Z</time>
      </trkpt>
      <trkpt lat="47.78662" lon="1.8836">
        <ele>114</ele>
        <time>2017-11-08T14:20:58Z</time>
      </trkpt>
      <trkpt lat="47.78662" lon="1.88353">
        <ele>114</ele>
        <time>2017-11-08T14:20:59Z</time>
      </trkpt>
      <trkpt lat="47.78663" lon="1.88345">
        <ele>114</ele>
        <time>2017-11-08T14:21:00Z</time>
      </trkpt>
      <trkpt lat="47.78663" lon="1.88336">
        <ele>114</ele>
        <time>2017-11-08T14:21:01Z</time>
      </trkpt>
      <trkpt lat="47.78663" lon="1.88328">
        <ele>114</ele>
        <time>2017-11-08T14:21:02Z</time>
      </trkpt>
      <trkpt lat="47.78663" lon="1.88319">
        <ele>114</ele>
        <time>2017-11-08T14:21:03Z</time>
      </trkpt>
      <trkpt lat="47.78664" lon="1.88311">
        <ele>115</ele>
        <time>2017-11-08T14:21:04Z</time>
      </trkpt>
      <trkpt lat="47.78664" lon="1.88304">
        <ele>115</ele>
        <time>2017-11-08T14:21:05Z</time>
      </trkpt>
      <trkpt lat="47.78664" lon="1.88297">
        <ele>115</ele>
        <time>2017-11-08T14:21:06Z</time>
      </trkpt>
      <trkpt lat="47.78665" lon="1.88289">
        <ele>115</ele>
        <time>2017-11-08T14:21:07Z</time>
      </trkpt>
      <trkpt lat="47.78666" lon="1.8828">
        <ele>116</ele>
        <time>2017-11-08T14:21:08Z</time>
      </trkpt>
      <trkpt lat="47.78666" lon="1.88272">
        <ele>116</ele>
        <time>2017-11-08T14:21:09Z</time>
      </trkpt>
      <trkpt lat="47.78666" lon="1.8826">
        <ele>116</ele>
        <time>2017-11-08T14:21:10Z</time>
      </trkpt>
      <trkpt lat="47.78667" lon="1.88252">
        <ele>117</ele>
        <time>2017-11-08T14:21:11Z</time>
      </trkpt>
      <trkpt lat="47.78667" lon="1.88242">
        <ele>117</ele>
        <time>2017-11-08T14:21:12Z</time>
      </trkpt>
      <trkpt lat="47.78667" lon="1.88234">
        <ele>117</ele>
        <time>2017-11-08T14:21:13Z</time>
      </trkpt>
      <trkpt lat="47.78668" lon="1.88225">
        <ele>117</ele>
        <time>2017-11-08T14:21:14Z</time>
      </trkpt>
      <trkpt lat="47.78669" lon="1.88216">
        <ele>117</ele>
        <time>2017-11-08T14:21:15Z</time>
      </trkpt>
      <trkpt lat="47.7867" lon="1.88204">
        <ele>117</ele>
        <time>2017-11-08T14:21:16Z</time>
      </trkpt>
      <trkpt lat="47.78671" lon="1.88194">
        <ele>117</ele>
        <time>2017-11-08T14:21:17Z</time>
      </trkpt>
      <trkpt lat="47.78673" lon="1.88183">
        <ele>117</ele>
        <time>2017-11-08T14:21:18Z</time>
      </trkpt>
      <trkpt lat="47.78675" lon="1.88173">
        <ele>117</ele>
        <time>2017-11-08T14:21:19Z</time>
      </trkpt>
      <trkpt lat="47.78676" lon="1.88162">
        <ele>117</ele>
        <time>2017-11-08T14:21:20Z</time>
      </trkpt>
      <trkpt lat="47.78676" lon="1.88151">
        <ele>117</ele>
        <time>2017-11-08T14:21:21Z</time>
      </trkpt>
      <trkpt lat="47.78676" lon="1.88141">
        <ele>117</ele>
        <time>2017-11-08T14:21:22Z</time>
      </trkpt>
      <trkpt lat="47.78677" lon="1.88131">
        <ele>117</ele>
        <time>2017-11-08T14:21:23Z</time>
      </trkpt>
      <trkpt lat="47.78678" lon="1.88121">
        <ele>116</ele>
        <time>2017-11-08T14:21:24Z</time>
      </trkpt>
      <trkpt lat="47.7868" lon="1.88112">
        <ele>116</ele>
        <time>2017-11-08T14:21:25Z</time>
      </trkpt>
      <trkpt lat="47.78681" lon="1.88102">
        <ele>116</ele>
        <time>2017-11-08T14:21:26Z</time>
      </trkpt>
      <trkpt lat="47.78683" lon="1.88094">
        <ele>116</ele>
        <time>2017-11-08T14:21:27Z</time>
      </trkpt>
      <trkpt lat="47.78684" lon="1.88087">
        <ele>116</ele>
        <time>2017-11-08T14:21:28Z</time>
      </trkpt>
      <trkpt lat="47.78685" lon="1.8808">
        <ele>116</ele>
        <time>2017-11-08T14:21:29Z</time>
      </trkpt>
      <trkpt lat="47.78686" lon="1.88073">
        <ele>116</ele>
        <time>2017-11-08T14:21:30Z</time>
      </trkpt>
      <trkpt lat="47.78687" lon="1.88066">
        <ele>116</ele>
        <time>2017-11-08T14:21:31Z</time>
      </trkpt>
      <trkpt lat="47.78687" lon="1.88058">
        <ele>116</ele>
        <time>2017-11-08T14:21:32Z</time>
      </trkpt>
      <trkpt lat="47.78687" lon="1.8805">
        <ele>115</ele>
        <time>2017-11-08T14:21:33Z</time>
      </trkpt>
      <trkpt lat="47.78688" lon="1.88043">
        <ele>115</ele>
        <time>2017-11-08T14:21:34Z</time>
      </trkpt>
      <trkpt lat="47.78689" lon="1.88036">
        <ele>115</ele>
        <time>2017-11-08T14:21:35Z</time>
      </trkpt>
      <trkpt lat="47.78689" lon="1.88031">
        <ele>115</ele>
        <time>2017-11-08T14:21:36Z</time>
      </trkpt>
      <trkpt lat="47.78689" lon="1.88026">
        <ele>115</ele>
        <time>2017-11-08T14:21:37Z</time>
      </trkpt>
      <trkpt lat="47.78689" lon="1.88021">
        <ele>115</ele>
        <time>2017-11-08T14:21:38Z</time>
      </trkpt>
      <trkpt lat="47.78689" lon="1.88016">
        <ele>115</ele>
        <time>2017-11-08T14:21:39Z</time>
      </trkpt>
      <trkpt lat="47.7869" lon="1.8801">
        <ele>115</ele>
        <time>2017-11-08T14:21:40Z</time>
      </trkpt>
      <trkpt lat="47.7869" lon="1.88004">
        <ele>115</ele>
        <time>2017-11-08T14:21:41Z</time>
      </trkpt>
      <trkpt lat="47.7869" lon="1.87998">
        <ele>115</ele>
        <time>2017-11-08T14:21:42Z</time>
      </trkpt>
      <trkpt lat="47.7869" lon="1.87992">
        <ele>115</ele>
        <time>2017-11-08T14:21:43Z</time>
      </trkpt>
      <trkpt lat="47.78691" lon="1.87985">
        <ele>115</ele>
        <time>2017-11-08T14:21:44Z</time>
      </trkpt>
      <trkpt lat="47.78691" lon="1.87979">
        <ele>115</ele>
        <time>2017-11-08T14:21:45Z</time>
      </trkpt>
      <trkpt lat="47.78692" lon="1.87974">
        <ele>115</ele>
        <time>2017-11-08T14:21:46Z</time>
      </trkpt>
      <trkpt lat="47.78692" lon="1.87969">
        <ele>115</ele>
        <time>2017-11-08T14:21:47Z</time>
      </trkpt>
      <trkpt lat="47.78693" lon="1.87964">
        <ele>115</ele>
        <time>2017-11-08T14:21:48Z</time>
      </trkpt>
      <trkpt lat="47.78693" lon="1.8796">
        <ele>115</ele>
        <time>2017-11-08T14:21:49Z</time>
      </trkpt>
      <trkpt lat="47.78694" lon="1.87955">
        <ele>115</ele>
        <time>2017-11-08T14:21:50Z</time>
      </trkpt>
      <trkpt lat="47.78695" lon="1.8795">
        <ele>115</ele>
        <time>2017-11-08T14:21:51Z</time>
      </trkpt>
      <trkpt lat="47.78696" lon="1.87944">
        <ele>115</ele>
        <time>2017-11-08T14:21:52Z</time>
      </trkpt>
      <trkpt lat="47.78697" lon="1.87938">
        <ele>115</ele>
        <time>2017-11-08T14:21:53Z</time>
      </trkpt>
      <trkpt lat="47.78697" lon="1.87932">
        <ele>115</ele>
        <time>2017-11-08T14:21:54Z</time>
      </trkpt>
      <trkpt lat="47.78698" lon="1.87925">
        <ele>115</ele>
        <time>2017-11-08T14:21:55Z</time>
      </trkpt>
      <trkpt lat="47.78698" lon="1.87919">
        <ele>115</ele>
        <time>2017-11-08T14:21:56Z</time>
      </trkpt>
      <trkpt lat="47.78699" lon="1.87913">
        <ele>116</ele>
        <time>2017-11-08T14:21:57Z</time>
      </trkpt>
      <trkpt lat="47.787" lon="1.87907">
        <ele>116</ele>
        <time>2017-11-08T14:21:58Z</time>
      </trkpt>
      <trkpt lat="47.787" lon="1.87901">
        <ele>116</ele>
        <time>2017-11-08T14:21:59Z</time>
      </trkpt>
      <trkpt lat="47.787" lon="1.87895">
        <ele>116</ele>
        <time>2017-11-08T14:22:00Z</time>
      </trkpt>
      <trkpt lat="47.78701" lon="1.87889">
        <ele>116</ele>
        <time>2017-11-08T14:22:01Z</time>
      </trkpt>
      <trkpt lat="47.78701" lon="1.87882">
        <ele>116</ele>
        <time>2017-11-08T14:22:02Z</time>
      </trkpt>
      <trkpt lat="47.78701" lon="1.87877">
        <ele>116</ele>
        <time>2017-11-08T14:22:03Z</time>
      </trkpt>
      <trkpt lat="47.78702" lon="1.87872">
        <ele>116</ele>
        <time>2017-11-08T14:22:04Z</time>
      </trkpt>
      <trkpt lat="47.78703" lon="1.87867">
        <ele>116</ele>
        <time>2017-11-08T14:22:05Z</time>
      </trkpt>
      <trkpt lat="47.78704" lon="1.87861">
        <ele>116</ele>
        <time>2017-11-08T14:22:06Z</time>
      </trkpt>
      <trkpt lat="47.78705" lon="1.87855">
        <ele>116</ele>
        <time>2017-11-08T14:22:07Z</time>
      </trkpt>
      <trkpt lat="47.78705" lon="1.87849">
        <ele>116</ele>
        <time>2017-11-08T14:22:08Z</time>
      </trkpt>
      <trkpt lat="47.78706" lon="1.87843">
        <ele>116</ele>
        <time>2017-11-08T14:22:09Z</time>
      </trkpt>
      <trkpt lat="47.78706" lon="1.87837">
        <ele>116</ele>
        <time>2017-11-08T14:22:10Z</time>
      </trkpt>
      <trkpt lat="47.78707" lon="1.87831">
        <ele>116</ele>
        <time>2017-11-08T14:22:11Z</time>
      </trkpt>
      <trkpt lat="47.78707" lon="1.87826">
        <ele>116</ele>
        <time>2017-11-08T14:22:12Z</time>
      </trkpt>
      <trkpt lat="47.78708" lon="1.87821">
        <ele>116</ele>
        <time>2017-11-08T14:22:13Z</time>
      </trkpt>
      <trkpt lat="47.78708" lon="1.87814">
        <ele>116</ele>
        <time>2017-11-08T14:22:14Z</time>
      </trkpt>
      <trkpt lat="47.78709" lon="1.87809">
        <ele>116</ele>
        <time>2017-11-08T14:22:15Z</time>
      </trkpt>
      <trkpt lat="47.78709" lon="1.87803">
        <ele>116</ele>
        <time>2017-11-08T14:22:16Z</time>
      </trkpt>
      <trkpt lat="47.78708" lon="1.87796">
        <ele>116</ele>
        <time>2017-11-08T14:22:17Z</time>
      </trkpt>
      <trkpt lat="47.78708" lon="1.87789">
        <ele>117</ele>
        <time>2017-11-08T14:22:18Z</time>
      </trkpt>
      <trkpt lat="47.78709" lon="1.87783">
        <ele>117</ele>
        <time>2017-11-08T14:22:19Z</time>
      </trkpt>
      <trkpt lat="47.7871" lon="1.87777">
        <ele>117</ele>
        <time>2017-11-08T14:22:20Z</time>
      </trkpt>
      <trkpt lat="47.78711" lon="1.87772">
        <ele>117</ele>
        <time>2017-11-08T14:22:21Z</time>
      </trkpt>
      <trkpt lat="47.78712" lon="1.87767">
        <ele>117</ele>
        <time>2017-11-08T14:22:22Z</time>
      </trkpt>
      <trkpt lat="47.78713" lon="1.87761">
        <ele>117</ele>
        <time>2017-11-08T14:22:23Z</time>
      </trkpt>
      <trkpt lat="47.78713" lon="1.87755">
        <ele>117</ele>
        <time>2017-11-08T14:22:24Z</time>
      </trkpt>
      <trkpt lat="47.78714" lon="1.8775">
        <ele>117</ele>
        <time>2017-11-08T14:22:25Z</time>
      </trkpt>
      <trkpt lat="47.78714" lon="1.87746">
        <ele>117</ele>
        <time>2017-11-08T14:22:26Z</time>
      </trkpt>
      <trkpt lat="47.78714" lon="1.87741">
        <ele>117</ele>
        <time>2017-11-08T14:22:27Z</time>
      </trkpt>
      <trkpt lat="47.78715" lon="1.87736">
        <ele>117</ele>
        <time>2017-11-08T14:22:28Z</time>
      </trkpt>
      <trkpt lat="47.78716" lon="1.87731">
        <ele>117</ele>
        <time>2017-11-08T14:22:29Z</time>
      </trkpt>
      <trkpt lat="47.78716" lon="1.87725">
        <ele>117</ele>
        <time>2017-11-08T14:22:30Z</time>
      </trkpt>
      <trkpt lat="47.78717" lon="1.8772">
        <ele>116</ele>
        <time>2017-11-08T14:22:31Z</time>
      </trkpt>
      <trkpt lat="47.78718" lon="1.87715">
        <ele>116</ele>
        <time>2017-11-08T14:22:32Z</time>
      </trkpt>
      <trkpt lat="47.78719" lon="1.8771">
        <ele>116</ele>
        <time>2017-11-08T14:22:33Z</time>
      </trkpt>
      <trkpt lat="47.78719" lon="1.87706">
        <ele>116</ele>
        <time>2017-11-08T14:22:34Z</time>
      </trkpt>
      <trkpt lat="47.7872" lon="1.87701">
        <ele>116</ele>
        <time>2017-11-08T14:22:35Z</time>
      </trkpt>
      <trkpt lat="47.78721" lon="1.87697">
        <ele>116</ele>
        <time>2017-11-08T14:22:36Z</time>
      </trkpt>
      <trkpt lat="47.78722" lon="1.87692">
        <ele>116</ele>
        <time>2017-11-08T14:22:37Z</time>
      </trkpt>
      <trkpt lat="47.78722" lon="1.87688">
        <ele>116</ele>
        <time>2017-11-08T14:22:38Z</time>
      </trkpt>
      <trkpt lat="47.78723" lon="1.87683">
        <ele>116</ele>
        <time>2017-11-08T14:22:39Z</time>
      </trkpt>
      <trkpt lat="47.78723" lon="1.87679">
        <ele>116</ele>
        <time>2017-11-08T14:22:40Z</time>
      </trkpt>
      <trkpt lat="47.78724" lon="1.87674">
        <ele>116</ele>
        <time>2017-11-08T14:22:41Z</time>
      </trkpt>
      <trkpt lat="47.78724" lon="1.87669">
        <ele>116</ele>
        <time>2017-11-08T14:22:42Z</time>
      </trkpt>
      <trkpt lat="47.78724" lon="1.87664">
        <ele>115</ele>
        <time>2017-11-08T14:22:43Z</time>
      </trkpt>
      <trkpt lat="47.78724" lon="1.8766">
        <ele>115</ele>
        <time>2017-11-08T14:22:44Z</time>
      </trkpt>
      <trkpt lat="47.78725" lon="1.87655">
        <ele>115</ele>
        <time>2017-11-08T14:22:45Z</time>
      </trkpt>
      <trkpt lat="47.78726" lon="1.87651">
        <ele>115</ele>
        <time>2017-11-08T14:22:46Z</time>
      </trkpt>
      <trkpt lat="47.78726" lon="1.87647">
        <ele>115</ele>
        <time>2017-11-08T14:22:47Z</time>
      </trkpt>
      <trkpt lat="47.78727" lon="1.87641">
        <ele>115</ele>
        <time>2017-11-08T14:22:48Z</time>
      </trkpt>
      <trkpt lat="47.78727" lon="1.87635">
        <ele>115</ele>
        <time>2017-11-08T14:22:49Z</time>
      </trkpt>
      <trkpt lat="47.78727" lon="1.8763">
        <ele>115</ele>
        <time>2017-11-08T14:22:50Z</time>
      </trkpt>
      <trkpt lat="47.78728" lon="1.87624">
        <ele>115</ele>
        <time>2017-11-08T14:22:51Z</time>
      </trkpt>
      <trkpt lat="47.78728" lon="1.87619">
        <ele>115</ele>
        <time>2017-11-08T14:22:52Z</time>
      </trkpt>
      <trkpt lat="47.78728" lon="1.87614">
        <ele>115</ele>
        <time>2017-11-08T14:22:53Z</time>
      </trkpt>
      <trkpt lat="47.78728" lon="1.8761">
        <ele>115</ele>
        <time>2017-11-08T14:22:54Z</time>
      </trkpt>
      <trkpt lat="47.78729" lon="1.87605">
        <ele>115</ele>
        <time>2017-11-08T14:22:55Z</time>
      </trkpt>
      <trkpt lat="47.78729" lon="1.87601">
        <ele>115</ele>
        <time>2017-11-08T14:22:56Z</time>
      </trkpt>
      <trkpt lat="47.7873" lon="1.87597">
        <ele>115</ele>
        <time>2017-11-08T14:22:57Z</time>
      </trkpt>
      <trkpt lat="47.78734" lon="1.87593">
        <ele>115</ele>
        <time>2017-11-08T14:22:59Z</time>
      </trkpt>
      <trkpt lat="47.78739" lon="1.87592">
        <ele>115</ele>
        <time>2017-11-08T14:23:01Z</time>
      </trkpt>
      <trkpt lat="47.78744" lon="1.87591">
        <ele>115</ele>
        <time>2017-11-08T14:23:03Z</time>
      </trkpt>
      <trkpt lat="47.78747" lon="1.8759">
        <ele>115</ele>
        <time>2017-11-08T14:23:04Z</time>
      </trkpt>
      <trkpt lat="47.7875" lon="1.87591">
        <ele>115</ele>
        <time>2017-11-08T14:23:05Z</time>
      </trkpt>
      <trkpt lat="47.78753" lon="1.8759">
        <ele>115</ele>
        <time>2017-11-08T14:23:06Z</time>
      </trkpt>
      <trkpt lat="47.78755" lon="1.8759">
        <ele>115</ele>
        <time>2017-11-08T14:23:07Z</time>
      </trkpt>
      <trkpt lat="47.78758" lon="1.8759">
        <ele>115</ele>
        <time>2017-11-08T14:23:08Z</time>
      </trkpt>
      <trkpt lat="47.78761" lon="1.87589">
        <ele>115</ele>
        <time>2017-11-08T14:23:09Z</time>
      </trkpt>
      <trkpt lat="47.78771" lon="1.87588">
        <ele>115</ele>
        <time>2017-11-08T14:23:10Z</time>
      </trkpt>
      <trkpt lat="47.78774" lon="1.87589">
        <ele>115</ele>
        <time>2017-11-08T14:23:12Z</time>
      </trkpt>
      <trkpt lat="47.78778" lon="1.87589">
        <ele>116</ele>
        <time>2017-11-08T14:23:14Z</time>
      </trkpt>
      <trkpt lat="47.78784" lon="1.87589">
        <ele>116</ele>
        <time>2017-11-08T14:23:16Z</time>
      </trkpt>
      <trkpt lat="47.78786" lon="1.87589">
        <ele>116</ele>
        <time>2017-11-08T14:23:17Z</time>
      </trkpt>
      <trkpt lat="47.78789" lon="1.87588">
        <ele>116</ele>
        <time>2017-11-08T14:23:18Z</time>
      </trkpt>
      <trkpt lat="47.78793" lon="1.87588">
        <ele>116</ele>
        <time>2017-11-08T14:23:19Z</time>
      </trkpt>
      <trkpt lat="47.78798" lon="1.87588">
        <ele>116</ele>
        <time>2017-11-08T14:23:21Z</time>
      </trkpt>
      <trkpt lat="47.78801" lon="1.87588">
        <ele>116</ele>
        <time>2017-11-08T14:23:22Z</time>
      </trkpt>
      <trkpt lat="47.78807" lon="1.87588">
        <ele>116</ele>
        <time>2017-11-08T14:23:23Z</time>
      </trkpt>
      <trkpt lat="47.78811" lon="1.87588">
        <ele>116</ele>
        <time>2017-11-08T14:23:25Z</time>
      </trkpt>
      <trkpt lat="47.78814" lon="1.87587">
        <ele>116</ele>
        <time>2017-11-08T14:23:26Z</time>
      </trkpt>
      <trkpt lat="47.78818" lon="1.87586">
        <ele>116</ele>
        <time>2017-11-08T14:23:27Z</time>
      </trkpt>
      <trkpt lat="47.78821" lon="1.87586">
        <ele>116</ele>
        <time>2017-11-08T14:23:28Z</time>
      </trkpt>
      <trkpt lat="47.78824" lon="1.87586">
        <ele>116</ele>
        <time>2017-11-08T14:23:29Z</time>
      </trkpt>
      <trkpt lat="47.78827" lon="1.87586">
        <ele>116</ele>
        <time>2017-11-08T14:23:30Z</time>
      </trkpt>
      <trkpt lat="47.78832" lon="1.87586">
        <ele>116</ele>
        <time>2017-11-08T14:23:32Z</time>
      </trkpt>
      <trkpt lat="47.78834" lon="1.87586">
        <ele>116</ele>
        <time>2017-11-08T14:23:33Z</time>
      </trkpt>
      <trkpt lat="47.78837" lon="1.87586">
        <ele>116</ele>
        <time>2017-11-08T14:23:34Z</time>
      </trkpt>
      <trkpt lat="47.78841" lon="1.87586">
        <ele>116</ele>
        <time>2017-11-08T14:23:35Z</time>
      </trkpt>
      <trkpt lat="47.78844" lon="1.87585">
        <ele>115</ele>
        <time>2017-11-08T14:23:36Z</time>
      </trkpt>
      <trkpt lat="47.78846" lon="1.87585">
        <ele>115</ele>
        <time>2017-11-08T14:23:37Z</time>
      </trkpt>
      <trkpt lat="47.78849" lon="1.87584">
        <ele>115</ele>
        <time>2017-11-08T14:23:38Z</time>
      </trkpt>
      <trkpt lat="47.78852" lon="1.87584">
        <ele>115</ele>
        <time>2017-11-08T14:23:39Z</time>
      </trkpt>
      <trkpt lat="47.78856" lon="1.87584">
        <ele>115</ele>
        <time>2017-11-08T14:23:40Z</time>
      </trkpt>
      <trkpt lat="47.78859" lon="1.87584">
        <ele>115</ele>
        <time>2017-11-08T14:23:41Z</time>
      </trkpt>
      <trkpt lat="47.78863" lon="1.87584">
        <ele>115</ele>
        <time>2017-11-08T14:23:42Z</time>
      </trkpt>
      <trkpt lat="47.78866" lon="1.87584">
        <ele>115</ele>
        <time>2017-11-08T14:23:43Z</time>
      </trkpt>
      <trkpt lat="47.78869" lon="1.87584">
        <ele>115</ele>
        <time>2017-11-08T14:23:44Z</time>
      </trkpt>
      <trkpt lat="47.78873" lon="1.87584">
        <ele>115</ele>
        <time>2017-11-08T14:23:45Z</time>
      </trkpt>
      <trkpt lat="47.78877" lon="1.87584">
        <ele>114</ele>
        <time>2017-11-08T14:23:46Z</time>
      </trkpt>
      <trkpt lat="47.78882" lon="1.87584">
        <ele>114</ele>
        <time>2017-11-08T14:23:47Z</time>
      </trkpt>
      <trkpt lat="47.78887" lon="1.87584">
        <ele>114</ele>
        <time>2017-11-08T14:23:48Z</time>
      </trkpt>
      <trkpt lat="47.78893" lon="1.87585">
        <ele>114</ele>
        <time>2017-11-08T14:23:49Z</time>
      </trkpt>
      <trkpt lat="47.78898" lon="1.87585">
        <ele>114</ele>
        <time>2017-11-08T14:23:50Z</time>
      </trkpt>
      <trkpt lat="47.78902" lon="1.87584">
        <ele>114</ele>
        <time>2017-11-08T14:23:51Z</time>
      </trkpt>
      <trkpt lat="47.78907" lon="1.87584">
        <ele>113</ele>
        <time>2017-11-08T14:23:52Z</time>
      </trkpt>
      <trkpt lat="47.78912" lon="1.87583">
        <ele>113</ele>
        <time>2017-11-08T14:23:53Z</time>
      </trkpt>
      <trkpt lat="47.78916" lon="1.87583">
        <ele>113</ele>
        <time>2017-11-08T14:23:54Z</time>
      </trkpt>
      <trkpt lat="47.7892" lon="1.87582">
        <ele>113</ele>
        <time>2017-11-08T14:23:55Z</time>
      </trkpt>
      <trkpt lat="47.78925" lon="1.87582">
        <ele>113</ele>
        <time>2017-11-08T14:23:56Z</time>
      </trkpt>
      <trkpt lat="47.78929" lon="1.87581">
        <ele>112</ele>
        <time>2017-11-08T14:23:57Z</time>
      </trkpt>
      <trkpt lat="47.78932" lon="1.8758">
        <ele>112</ele>
        <time>2017-11-08T14:23:58Z</time>
      </trkpt>
      <trkpt lat="47.78936" lon="1.8758">
        <ele>112</ele>
        <time>2017-11-08T14:23:59Z</time>
      </trkpt>
      <trkpt lat="47.7894" lon="1.87581">
        <ele>112</ele>
        <time>2017-11-08T14:24:00Z</time>
      </trkpt>
      <trkpt lat="47.78944" lon="1.8758">
        <ele>112</ele>
        <time>2017-11-08T14:24:01Z</time>
      </trkpt>
      <trkpt lat="47.78948" lon="1.87579">
        <ele>112</ele>
        <time>2017-11-08T14:24:02Z</time>
      </trkpt>
      <trkpt lat="47.78951" lon="1.87579">
        <ele>112</ele>
        <time>2017-11-08T14:24:03Z</time>
      </trkpt>
      <trkpt lat="47.78955" lon="1.87578">
        <ele>112</ele>
        <time>2017-11-08T14:24:04Z</time>
      </trkpt>
      <trkpt lat="47.78959" lon="1.87578">
        <ele>112</ele>
        <time>2017-11-08T14:24:05Z</time>
      </trkpt>
      <trkpt lat="47.78963" lon="1.87578">
        <ele>112</ele>
        <time>2017-11-08T14:24:06Z</time>
      </trkpt>
      <trkpt lat="47.78967" lon="1.87577">
        <ele>112</ele>
        <time>2017-11-08T14:24:07Z</time>
      </trkpt>
      <trkpt lat="47.78971" lon="1.87577">
        <ele>112</ele>
        <time>2017-11-08T14:24:08Z</time>
      </trkpt>
      <trkpt lat="47.78974" lon="1.87575">
        <ele>112</ele>
        <time>2017-11-08T14:24:09Z</time>
      </trkpt>
      <trkpt lat="47.78978" lon="1.87576">
        <ele>112</ele>
        <time>2017-11-08T14:24:10Z</time>
      </trkpt>
      <trkpt lat="47.78982" lon="1.87575">
        <ele>112</ele>
        <time>2017-11-08T14:24:11Z</time>
      </trkpt>
      <trkpt lat="47.78985" lon="1.87576">
        <ele>112</ele>
        <time>2017-11-08T14:24:12Z</time>
      </trkpt>
      <trkpt lat="47.78988" lon="1.87576">
        <ele>112</ele>
        <time>2017-11-08T14:24:13Z</time>
      </trkpt>
      <trkpt lat="47.78991" lon="1.87575">
        <ele>112</ele>
        <time>2017-11-08T14:24:14Z</time>
      </trkpt>
      <trkpt lat="47.78994" lon="1.87575">
        <ele>112</ele>
        <time>2017-11-08T14:24:15Z</time>
      </trkpt>
      <trkpt lat="47.78998" lon="1.87574">
        <ele>112</ele>
        <time>2017-11-08T14:24:16Z</time>
      </trkpt>
      <trkpt lat="47.79001" lon="1.87574">
        <ele>112</ele>
        <time>2017-11-08T14:24:17Z</time>
      </trkpt>
      <trkpt lat="47.79005" lon="1.87573">
        <ele>112</ele>
        <time>2017-11-08T14:24:18Z</time>
      </trkpt>
      <trkpt lat="47.79009" lon="1.87573">
        <ele>112</ele>
        <time>2017-11-08T14:24:19Z</time>
      </trkpt>
      <trkpt lat="47.79013" lon="1.87573">
        <ele>112</ele>
        <time>2017-11-08T14:24:20Z</time>
      </trkpt>
      <trkpt lat="47.79017" lon="1.87573">
        <ele>112</ele>
        <time>2017-11-08T14:24:21Z</time>
      </trkpt>
      <trkpt lat="47.79021" lon="1.87572">
        <ele>113</ele>
        <time>2017-11-08T14:24:22Z</time>
      </trkpt>
      <trkpt lat="47.79025" lon="1.87571">
        <ele>113</ele>
        <time>2017-11-08T14:24:23Z</time>
      </trkpt>
      <trkpt lat="47.79029" lon="1.8757">
        <ele>113</ele>
        <time>2017-11-08T14:24:24Z</time>
      </trkpt>
      <trkpt lat="47.79032" lon="1.87568">
        <ele>113</ele>
        <time>2017-11-08T14:24:25Z</time>
      </trkpt>
      <trkpt lat="47.79035" lon="1.87568">
        <ele>113</ele>
        <time>2017-11-08T14:24:26Z</time>
      </trkpt>
      <trkpt lat="47.79039" lon="1.87568">
        <ele>113</ele>
        <time>2017-11-08T14:24:27Z</time>
      </trkpt>
      <trkpt lat="47.79043" lon="1.87569">
        <ele>113</ele>
        <time>2017-11-08T14:24:28Z</time>
      </trkpt>
      <trkpt lat="47.79047" lon="1.8757">
        <ele>113</ele>
        <time>2017-11-08T14:24:29Z</time>
      </trkpt>
      <trkpt lat="47.79051" lon="1.87569">
        <ele>113</ele>
        <time>2017-11-08T14:24:30Z</time>
      </trkpt>
      <trkpt lat="47.79056" lon="1.8757">
        <ele>113</ele>
        <time>2017-11-08T14:24:31Z</time>
      </trkpt>
      <trkpt lat="47.7906" lon="1.87572">
        <ele>114</ele>
        <time>2017-11-08T14:24:32Z</time>
      </trkpt>
      <trkpt lat="47.79063" lon="1.87574">
        <ele>114</ele>
        <time>2017-11-08T14:24:33Z</time>
      </trkpt>
      <trkpt lat="47.79066" lon="1.87578">
        <ele>114</ele>
        <time>2017-11-08T14:24:35Z</time>
      </trkpt>
      <trkpt lat="47.79068" lon="1.87585">
        <ele>114</ele>
        <time>2017-11-08T14:24:37Z</time>
      </trkpt>
      <trkpt lat="47.7907" lon="1.8759">
        <ele>115</ele>
        <time>2017-11-08T14:24:38Z</time>
      </trkpt>
      <trkpt lat="47.7907" lon="1.87595">
        <ele>114</ele>
        <time>2017-11-08T14:24:39Z</time>
      </trkpt>
      <trkpt lat="47.7907" lon="1.876">
        <ele>114</ele>
        <time>2017-11-08T14:24:40Z</time>
      </trkpt>
      <trkpt lat="47.79071" lon="1.87606">
        <ele>114</ele>
        <time>2017-11-08T14:24:41Z</time>
      </trkpt>
      <trkpt lat="47.79071" lon="1.87613">
        <ele>114</ele>
        <time>2017-11-08T14:24:42Z</time>
      </trkpt>
      <trkpt lat="47.79071" lon="1.8762">
        <ele>114</ele>
        <time>2017-11-08T14:24:43Z</time>
      </trkpt>
      <trkpt lat="47.79071" lon="1.87625">
        <ele>114</ele>
        <time>2017-11-08T14:24:44Z</time>
      </trkpt>
      <trkpt lat="47.79071" lon="1.87631">
        <ele>115</ele>
        <time>2017-11-08T14:24:45Z</time>
      </trkpt>
      <trkpt lat="47.79071" lon="1.87638">
        <ele>115</ele>
        <time>2017-11-08T14:24:46Z</time>
      </trkpt>
      <trkpt lat="47.79071" lon="1.87644">
        <ele>115</ele>
        <time>2017-11-08T14:24:47Z</time>
      </trkpt>
      <trkpt lat="47.79071" lon="1.8765">
        <ele>115</ele>
        <time>2017-11-08T14:24:48Z</time>
      </trkpt>
      <trkpt lat="47.7907" lon="1.87658">
        <ele>115</ele>
        <time>2017-11-08T14:24:49Z</time>
      </trkpt>
      <trkpt lat="47.7907" lon="1.87663">
        <ele>115</ele>
        <time>2017-11-08T14:24:50Z</time>
      </trkpt>
      <trkpt lat="47.7907" lon="1.87669">
        <ele>115</ele>
        <time>2017-11-08T14:24:51Z</time>
      </trkpt>
      <trkpt lat="47.79069" lon="1.87675">
        <ele>115</ele>
        <time>2017-11-08T14:24:52Z</time>
      </trkpt>
      <trkpt lat="47.79068" lon="1.8768">
        <ele>115</ele>
        <time>2017-11-08T14:24:53Z</time>
      </trkpt>
      <trkpt lat="47.79067" lon="1.87685">
        <ele>115</ele>
        <time>2017-11-08T14:24:54Z</time>
      </trkpt>
      <trkpt lat="47.79066" lon="1.87691">
        <ele>115</ele>
        <time>2017-11-08T14:24:55Z</time>
      </trkpt>
      <trkpt lat="47.79066" lon="1.87695">
        <ele>115</ele>
        <time>2017-11-08T14:24:56Z</time>
      </trkpt>
      <trkpt lat="47.79065" lon="1.877">
        <ele>115</ele>
        <time>2017-11-08T14:24:57Z</time>
      </trkpt>
      <trkpt lat="47.79064" lon="1.87705">
        <ele>115</ele>
        <time>2017-11-08T14:24:58Z</time>
      </trkpt>
      <trkpt lat="47.79062" lon="1.87709">
        <ele>115</ele>
        <time>2017-11-08T14:24:59Z</time>
      </trkpt>
      <trkpt lat="47.79061" lon="1.87713">
        <ele>115</ele>
        <time>2017-11-08T14:25:00Z</time>
      </trkpt>
      <trkpt lat="47.7906" lon="1.87718">
        <ele>115</ele>
        <time>2017-11-08T14:25:01Z</time>
      </trkpt>
      <trkpt lat="47.79059" lon="1.87723">
        <ele>115</ele>
        <time>2017-11-08T14:25:02Z</time>
      </trkpt>
      <trkpt lat="47.79058" lon="1.87729">
        <ele>115</ele>
        <time>2017-11-08T14:25:03Z</time>
      </trkpt>
      <trkpt lat="47.79058" lon="1.87735">
        <ele>115</ele>
        <time>2017-11-08T14:25:04Z</time>
      </trkpt>
      <trkpt lat="47.79057" lon="1.87742">
        <ele>115</ele>
        <time>2017-11-08T14:25:05Z</time>
      </trkpt>
      <trkpt lat="47.79056" lon="1.87749">
        <ele>115</ele>
        <time>2017-11-08T14:25:06Z</time>
      </trkpt>
      <trkpt lat="47.79055" lon="1.87754">
        <ele>114</ele>
        <time>2017-11-08T14:25:07Z</time>
      </trkpt>
      <trkpt lat="47.79054" lon="1.8776">
        <ele>114</ele>
        <time>2017-11-08T14:25:08Z</time>
      </trkpt>
      <trkpt lat="47.79054" lon="1.87765">
        <ele>114</ele>
        <time>2017-11-08T14:25:09Z</time>
      </trkpt>
      <trkpt lat="47.79053" lon="1.87772">
        <ele>114</ele>
        <time>2017-11-08T14:25:10Z</time>
      </trkpt>
      <trkpt lat="47.79053" lon="1.8778">
        <ele>114</ele>
        <time>2017-11-08T14:25:11Z</time>
      </trkpt>
      <trkpt lat="47.79053" lon="1.87785">
        <ele>114</ele>
        <time>2017-11-08T14:25:12Z</time>
      </trkpt>
      <trkpt lat="47.7905" lon="1.87791">
        <ele>114</ele>
        <time>2017-11-08T14:25:13Z</time>
      </trkpt>
      <trkpt lat="47.7905" lon="1.87796">
        <ele>114</ele>
        <time>2017-11-08T14:25:14Z</time>
      </trkpt>
      <trkpt lat="47.7905" lon="1.87801">
        <ele>114</ele>
        <time>2017-11-08T14:25:15Z</time>
      </trkpt>
      <trkpt lat="47.7905" lon="1.87806">
        <ele>114</ele>
        <time>2017-11-08T14:25:16Z</time>
      </trkpt>
      <trkpt lat="47.79051" lon="1.87811">
        <ele>114</ele>
        <time>2017-11-08T14:25:17Z</time>
      </trkpt>
      <trkpt lat="47.79053" lon="1.87816">
        <ele>114</ele>
        <time>2017-11-08T14:25:18Z</time>
      </trkpt>
      <trkpt lat="47.79057" lon="1.87821">
        <ele>114</ele>
        <time>2017-11-08T14:25:20Z</time>
      </trkpt>
      <trkpt lat="47.79059" lon="1.87823">
        <ele>114</ele>
        <time>2017-11-08T14:25:21Z</time>
      </trkpt>
      <trkpt lat="47.79062" lon="1.87824">
        <ele>114</ele>
        <time>2017-11-08T14:25:22Z</time>
      </trkpt>
      <trkpt lat="47.79066" lon="1.87825">
        <ele>114</ele>
        <time>2017-11-08T14:25:23Z</time>
      </trkpt>
      <trkpt lat="47.79068" lon="1.87829">
        <ele>114</ele>
        <time>2017-11-08T14:25:24Z</time>
      </trkpt>
      <trkpt lat="47.79071" lon="1.87832">
        <ele>114</ele>
        <time>2017-11-08T14:25:25Z</time>
      </trkpt>
      <trkpt lat="47.79073" lon="1.87834">
        <ele>113</ele>
        <time>2017-11-08T14:25:26Z</time>
      </trkpt>
      <trkpt lat="47.79076" lon="1.87836">
        <ele>113</ele>
        <time>2017-11-08T14:25:27Z</time>
      </trkpt>
      <trkpt lat="47.7908" lon="1.8784">
        <ele>114</ele>
        <time>2017-11-08T14:25:28Z</time>
      </trkpt>
      <trkpt lat="47.79085" lon="1.87842">
        <ele>113</ele>
        <time>2017-11-08T14:25:29Z</time>
      </trkpt>
      <trkpt lat="47.79089" lon="1.87844">
        <ele>113</ele>
        <time>2017-11-08T14:25:30Z</time>
      </trkpt>
      <trkpt lat="47.79092" lon="1.87846">
        <ele>113</ele>
        <time>2017-11-08T14:25:31Z</time>
      </trkpt>
      <trkpt lat="47.79096" lon="1.87848">
        <ele>113</ele>
        <time>2017-11-08T14:25:32Z</time>
      </trkpt>
      <trkpt lat="47.79099" lon="1.87849">
        <ele>113</ele>
        <time>2017-11-08T14:25:33Z</time>
      </trkpt>
      <trkpt lat="47.79103" lon="1.87851">
        <ele>113</ele>
        <time>2017-11-08T14:25:34Z</time>
      </trkpt>
      <trkpt lat="47.79107" lon="1.87853">
        <ele>113</ele>
        <time>2017-11-08T14:25:35Z</time>
      </trkpt>
      <trkpt lat="47.79111" lon="1.87854">
        <ele>113</ele>
        <time>2017-11-08T14:25:36Z</time>
      </trkpt>
      <trkpt lat="47.79115" lon="1.87856">
        <ele>113</ele>
        <time>2017-11-08T14:25:37Z</time>
      </trkpt>
      <trkpt lat="47.7912" lon="1.87857">
        <ele>113</ele>
        <time>2017-11-08T14:25:38Z</time>
      </trkpt>
      <trkpt lat="47.79124" lon="1.87859">
        <ele>112</ele>
        <time>2017-11-08T14:25:39Z</time>
      </trkpt>
      <trkpt lat="47.79128" lon="1.8786">
        <ele>112</ele>
        <time>2017-11-08T14:25:40Z</time>
      </trkpt>
      <trkpt lat="47.79131" lon="1.87861">
        <ele>112</ele>
        <time>2017-11-08T14:25:41Z</time>
      </trkpt>
      <trkpt lat="47.79134" lon="1.87862">
        <ele>112</ele>
        <time>2017-11-08T14:25:42Z</time>
      </trkpt>
      <trkpt lat="47.79137" lon="1.87863">
        <ele>112</ele>
        <time>2017-11-08T14:25:43Z</time>
      </trkpt>
      <trkpt lat="47.79141" lon="1.87863">
        <ele>112</ele>
        <time>2017-11-08T14:25:44Z</time>
      </trkpt>
      <trkpt lat="47.79144" lon="1.87862">
        <ele>112</ele>
        <time>2017-11-08T14:25:45Z</time>
      </trkpt>
      <trkpt lat="47.79148" lon="1.8786">
        <ele>112</ele>
        <time>2017-11-08T14:25:46Z</time>
      </trkpt>
      <trkpt lat="47.79151" lon="1.87858">
        <ele>112</ele>
        <time>2017-11-08T14:25:47Z</time>
      </trkpt>
      <trkpt lat="47.79153" lon="1.87856">
        <ele>112</ele>
        <time>2017-11-08T14:25:48Z</time>
      </trkpt>
      <trkpt lat="47.79156" lon="1.87855">
        <ele>113</ele>
        <time>2017-11-08T14:25:49Z</time>
      </trkpt>
      <trkpt lat="47.79159" lon="1.87855">
        <ele>113</ele>
        <time>2017-11-08T14:25:50Z</time>
      </trkpt>
      <trkpt lat="47.79162" lon="1.87855">
        <ele>113</ele>
        <time>2017-11-08T14:25:51Z</time>
      </trkpt>
      <trkpt lat="47.79166" lon="1.87854">
        <ele>113</ele>
        <time>2017-11-08T14:25:52Z</time>
      </trkpt>
      <trkpt lat="47.79169" lon="1.87854">
        <ele>113</ele>
        <time>2017-11-08T14:25:53Z</time>
      </trkpt>
      <trkpt lat="47.79173" lon="1.87855">
        <ele>113</ele>
        <time>2017-11-08T14:25:54Z</time>
      </trkpt>
      <trkpt lat="47.79177" lon="1.87855">
        <ele>113</ele>
        <time>2017-11-08T14:25:55Z</time>
      </trkpt>
      <trkpt lat="47.79181" lon="1.87856">
        <ele>113</ele>
        <time>2017-11-08T14:25:56Z</time>
      </trkpt>
      <trkpt lat="47.79184" lon="1.87857">
        <ele>113</ele>
        <time>2017-11-08T14:25:57Z</time>
      </trkpt>
      <trkpt lat="47.79188" lon="1.87858">
        <ele>113</ele>
        <time>2017-11-08T14:25:58Z</time>
      </trkpt>
      <trkpt lat="47.79191" lon="1.8786">
        <ele>114</ele>
        <time>2017-11-08T14:25:59Z</time>
      </trkpt>
      <trkpt lat="47.79195" lon="1.87862">
        <ele>114</ele>
        <time>2017-11-08T14:26:00Z</time>
      </trkpt>
      <trkpt lat="47.79197" lon="1.87862">
        <ele>114</ele>
        <time>2017-11-08T14:26:01Z</time>
      </trkpt>
      <trkpt lat="47.792" lon="1.87863">
        <ele>114</ele>
        <time>2017-11-08T14:26:02Z</time>
      </trkpt>
      <trkpt lat="47.79204" lon="1.87863">
        <ele>114</ele>
        <time>2017-11-08T14:26:03Z</time>
      </trkpt>
      <trkpt lat="47.79207" lon="1.87864">
        <ele>114</ele>
        <time>2017-11-08T14:26:04Z</time>
      </trkpt>
      <trkpt lat="47.7921" lon="1.87865">
        <ele>114</ele>
        <time>2017-11-08T14:26:05Z</time>
      </trkpt>
      <trkpt lat="47.79213" lon="1.87866">
        <ele>114</ele>
        <time>2017-11-08T14:26:06Z</time>
      </trkpt>
      <trkpt lat="47.79217" lon="1.87868">
        <ele>114</ele>
        <time>2017-11-08T14:26:07Z</time>
      </trkpt>
      <trkpt lat="47.79221" lon="1.87871">
        <ele>114</ele>
        <time>2017-11-08T14:26:08Z</time>
      </trkpt>
      <trkpt lat="47.79226" lon="1.87873">
        <ele>114</ele>
        <time>2017-11-08T14:26:09Z</time>
      </trkpt>
      <trkpt lat="47.7923" lon="1.87874">
        <ele>114</ele>
        <time>2017-11-08T14:26:10Z</time>
      </trkpt>
      <trkpt lat="47.79233" lon="1.87874">
        <ele>114</ele>
        <time>2017-11-08T14:26:11Z</time>
      </trkpt>
      <trkpt lat="47.79236" lon="1.87877">
        <ele>114</ele>
        <time>2017-11-08T14:26:12Z</time>
      </trkpt>
      <trkpt lat="47.79236" lon="1.87885">
        <ele>114</ele>
        <time>2017-11-08T14:26:14Z</time>
      </trkpt>
      <trkpt lat="47.79236" lon="1.8789">
        <ele>114</ele>
        <time>2017-11-08T14:26:15Z</time>
      </trkpt>
      <trkpt lat="47.79235" lon="1.87894">
        <ele>114</ele>
        <time>2017-11-08T14:26:16Z</time>
      </trkpt>
      <trkpt lat="47.79235" lon="1.87898">
        <ele>114</ele>
        <time>2017-11-08T14:26:17Z</time>
      </trkpt>
      <trkpt lat="47.79237" lon="1.87904">
        <ele>114</ele>
        <time>2017-11-08T14:26:18Z</time>
      </trkpt>
      <trkpt lat="47.79237" lon="1.8791">
        <ele>114</ele>
        <time>2017-11-08T14:26:19Z</time>
      </trkpt>
      <trkpt lat="47.79239" lon="1.87916">
        <ele>114</ele>
        <time>2017-11-08T14:26:20Z</time>
      </trkpt>
      <trkpt lat="47.7924" lon="1.87921">
        <ele>115</ele>
        <time>2017-11-08T14:26:21Z</time>
      </trkpt>
      <trkpt lat="47.79241" lon="1.87928">
        <ele>114</ele>
        <time>2017-11-08T14:26:22Z</time>
      </trkpt>
      <trkpt lat="47.79242" lon="1.87934">
        <ele>114</ele>
        <time>2017-11-08T14:26:23Z</time>
      </trkpt>
      <trkpt lat="47.79243" lon="1.87941">
        <ele>114</ele>
        <time>2017-11-08T14:26:24Z</time>
      </trkpt>
      <trkpt lat="47.79243" lon="1.87949">
        <ele>114</ele>
        <time>2017-11-08T14:26:25Z</time>
      </trkpt>
      <trkpt lat="47.79242" lon="1.87956">
        <ele>114</ele>
        <time>2017-11-08T14:26:26Z</time>
      </trkpt>
      <trkpt lat="47.79241" lon="1.8796">
        <ele>114</ele>
        <time>2017-11-08T14:26:27Z</time>
      </trkpt>
      <trkpt lat="47.79241" lon="1.87968">
        <ele>114</ele>
        <time>2017-11-08T14:26:28Z</time>
      </trkpt>
      <trkpt lat="47.79241" lon="1.87973">
        <ele>115</ele>
        <time>2017-11-08T14:26:29Z</time>
      </trkpt>
      <trkpt lat="47.79241" lon="1.87978">
        <ele>115</ele>
        <time>2017-11-08T14:26:30Z</time>
      </trkpt>
      <trkpt lat="47.79241" lon="1.87984">
        <ele>115</ele>
        <time>2017-11-08T14:26:31Z</time>
      </trkpt>
      <trkpt lat="47.79241" lon="1.87989">
        <ele>115</ele>
        <time>2017-11-08T14:26:32Z</time>
      </trkpt>
      <trkpt lat="47.79242" lon="1.87995">
        <ele>115</ele>
        <time>2017-11-08T14:26:33Z</time>
      </trkpt>
      <trkpt lat="47.79243" lon="1.88001">
        <ele>116</ele>
        <time>2017-11-08T14:26:34Z</time>
      </trkpt>
      <trkpt lat="47.79243" lon="1.88007">
        <ele>116</ele>
        <time>2017-11-08T14:26:35Z</time>
      </trkpt>
      <trkpt lat="47.79244" lon="1.88013">
        <ele>116</ele>
        <time>2017-11-08T14:26:36Z</time>
      </trkpt>
      <trkpt lat="47.79245" lon="1.88019">
        <ele>116</ele>
        <time>2017-11-08T14:26:37Z</time>
      </trkpt>
      <trkpt lat="47.79246" lon="1.88025">
        <ele>116</ele>
        <time>2017-11-08T14:26:38Z</time>
      </trkpt>
      <trkpt lat="47.79248" lon="1.88028">
        <ele>116</ele>
        <time>2017-11-08T14:26:39Z</time>
      </trkpt>
      <trkpt lat="47.79251" lon="1.8803">
        <ele>118</ele>
        <time>2017-11-08T14:26:40Z</time>
      </trkpt>
      <trkpt lat="47.79254" lon="1.88031">
        <ele>118</ele>
        <time>2017-11-08T14:26:41Z</time>
      </trkpt>
      <trkpt lat="47.79258" lon="1.88032">
        <ele>118</ele>
        <time>2017-11-08T14:26:42Z</time>
      </trkpt>
      <trkpt lat="47.79261" lon="1.88031">
        <ele>118</ele>
        <time>2017-11-08T14:26:43Z</time>
      </trkpt>
      <trkpt lat="47.79265" lon="1.8803">
        <ele>118</ele>
        <time>2017-11-08T14:26:44Z</time>
      </trkpt>
      <trkpt lat="47.79269" lon="1.88028">
        <ele>118</ele>
        <time>2017-11-08T14:26:45Z</time>
      </trkpt>
      <trkpt lat="47.79274" lon="1.88027">
        <ele>118</ele>
        <time>2017-11-08T14:26:46Z</time>
      </trkpt>
      <trkpt lat="47.79278" lon="1.88027">
        <ele>119</ele>
        <time>2017-11-08T14:26:47Z</time>
      </trkpt>
      <trkpt lat="47.79283" lon="1.88027">
        <ele>119</ele>
        <time>2017-11-08T14:26:48Z</time>
      </trkpt>
      <trkpt lat="47.79288" lon="1.88027">
        <ele>119</ele>
        <time>2017-11-08T14:26:49Z</time>
      </trkpt>
      <trkpt lat="47.79292" lon="1.88026">
        <ele>119</ele>
        <time>2017-11-08T14:26:50Z</time>
      </trkpt>
      <trkpt lat="47.79296" lon="1.88026">
        <ele>119</ele>
        <time>2017-11-08T14:26:51Z</time>
      </trkpt>
      <trkpt lat="47.793" lon="1.88026">
        <ele>119</ele>
        <time>2017-11-08T14:26:52Z</time>
      </trkpt>
      <trkpt lat="47.79304" lon="1.88025">
        <ele>119</ele>
        <time>2017-11-08T14:26:53Z</time>
      </trkpt>
      <trkpt lat="47.79307" lon="1.88024">
        <ele>119</ele>
        <time>2017-11-08T14:26:54Z</time>
      </trkpt>
      <trkpt lat="47.79311" lon="1.88024">
        <ele>119</ele>
        <time>2017-11-08T14:26:55Z</time>
      </trkpt>
      <trkpt lat="47.79315" lon="1.88025">
        <ele>119</ele>
        <time>2017-11-08T14:26:56Z</time>
      </trkpt>
      <trkpt lat="47.79318" lon="1.88025">
        <ele>119</ele>
        <time>2017-11-08T14:26:57Z</time>
      </trkpt>
      <trkpt lat="47.79322" lon="1.88024">
        <ele>119</ele>
        <time>2017-11-08T14:26:58Z</time>
      </trkpt>
      <trkpt lat="47.79327" lon="1.88024">
        <ele>120</ele>
        <time>2017-11-08T14:26:59Z</time>
      </trkpt>
      <trkpt lat="47.79331" lon="1.88025">
        <ele>120</ele>
        <time>2017-11-08T14:27:00Z</time>
      </trkpt>
      <trkpt lat="47.79335" lon="1.88025">
        <ele>122</ele>
        <time>2017-11-08T14:27:01Z</time>
      </trkpt>
      <trkpt lat="47.79339" lon="1.88024">
        <ele>122</ele>
        <time>2017-11-08T14:27:02Z</time>
      </trkpt>
      <trkpt lat="47.79343" lon="1.88023">
        <ele>122</ele>
        <time>2017-11-08T14:27:03Z</time>
      </trkpt>
      <trkpt lat="47.79347" lon="1.88023">
        <ele>122</ele>
        <time>2017-11-08T14:27:04Z</time>
      </trkpt>
      <trkpt lat="47.79351" lon="1.88023">
        <ele>122</ele>
        <time>2017-11-08T14:27:05Z</time>
      </trkpt>
      <trkpt lat="47.79356" lon="1.88023">
        <ele>122</ele>
        <time>2017-11-08T14:27:06Z</time>
      </trkpt>
      <trkpt lat="47.7936" lon="1.88023">
        <ele>122</ele>
        <time>2017-11-08T14:27:07Z</time>
      </trkpt>
      <trkpt lat="47.79364" lon="1.88023">
        <ele>122</ele>
        <time>2017-11-08T14:27:08Z</time>
      </trkpt>
      <trkpt lat="47.79368" lon="1.88023">
        <ele>123</ele>
        <time>2017-11-08T14:27:09Z</time>
      </trkpt>
      <trkpt lat="47.79372" lon="1.88023">
        <ele>123</ele>
        <time>2017-11-08T14:27:10Z</time>
      </trkpt>
      <trkpt lat="47.79376" lon="1.88023">
        <ele>123</ele>
        <time>2017-11-08T14:27:11Z</time>
      </trkpt>
      <trkpt lat="47.7938" lon="1.88023">
        <ele>123</ele>
        <time>2017-11-08T14:27:12Z</time>
      </trkpt>
      <trkpt lat="47.79383" lon="1.88023">
        <ele>123</ele>
        <time>2017-11-08T14:27:13Z</time>
      </trkpt>
      <trkpt lat="47.79387" lon="1.88023">
        <ele>123</ele>
        <time>2017-11-08T14:27:14Z</time>
      </trkpt>
      <trkpt lat="47.7939" lon="1.88022">
        <ele>123</ele>
        <time>2017-11-08T14:27:15Z</time>
      </trkpt>
      <trkpt lat="47.79394" lon="1.88022">
        <ele>123</ele>
        <time>2017-11-08T14:27:16Z</time>
      </trkpt>
      <trkpt lat="47.79397" lon="1.88022">
        <ele>123</ele>
        <time>2017-11-08T14:27:17Z</time>
      </trkpt>
      <trkpt lat="47.79401" lon="1.88022">
        <ele>123</ele>
        <time>2017-11-08T14:27:18Z</time>
      </trkpt>
      <trkpt lat="47.79405" lon="1.88022">
        <ele>123</ele>
        <time>2017-11-08T14:27:19Z</time>
      </trkpt>
      <trkpt lat="47.79408" lon="1.88022">
        <ele>123</ele>
        <time>2017-11-08T14:27:20Z</time>
      </trkpt>
      <trkpt lat="47.79413" lon="1.88022">
        <ele>123</ele>
        <time>2017-11-08T14:27:21Z</time>
      </trkpt>
      <trkpt lat="47.79418" lon="1.88022">
        <ele>122</ele>
        <time>2017-11-08T14:27:22Z</time>
      </trkpt>
      <trkpt lat="47.79421" lon="1.88022">
        <ele>122</ele>
        <time>2017-11-08T14:27:23Z</time>
      </trkpt>
      <trkpt lat="47.79426" lon="1.88022">
        <ele>122</ele>
        <time>2017-11-08T14:27:24Z</time>
      </trkpt>
      <trkpt lat="47.7943" lon="1.88021">
        <ele>122</ele>
        <time>2017-11-08T14:27:25Z</time>
      </trkpt>
      <trkpt lat="47.79435" lon="1.88021">
        <ele>122</ele>
        <time>2017-11-08T14:27:26Z</time>
      </trkpt>
      <trkpt lat="47.7944" lon="1.88022">
        <ele>122</ele>
        <time>2017-11-08T14:27:27Z</time>
      </trkpt>
      <trkpt lat="47.79445" lon="1.88022">
        <ele>122</ele>
        <time>2017-11-08T14:27:28Z</time>
      </trkpt>
      <trkpt lat="47.79449" lon="1.88022">
        <ele>122</ele>
        <time>2017-11-08T14:27:29Z</time>
      </trkpt>
      <trkpt lat="47.79454" lon="1.88022">
        <ele>122</ele>
        <time>2017-11-08T14:27:30Z</time>
      </trkpt>
      <trkpt lat="47.79458" lon="1.88021">
        <ele>121</ele>
        <time>2017-11-08T14:27:31Z</time>
      </trkpt>
      <trkpt lat="47.79463" lon="1.88021">
        <ele>121</ele>
        <time>2017-11-08T14:27:32Z</time>
      </trkpt>
      <trkpt lat="47.79467" lon="1.8802">
        <ele>121</ele>
        <time>2017-11-08T14:27:33Z</time>
      </trkpt>
      <trkpt lat="47.79471" lon="1.8802">
        <ele>121</ele>
        <time>2017-11-08T14:27:34Z</time>
      </trkpt>
      <trkpt lat="47.79476" lon="1.88019">
        <ele>121</ele>
        <time>2017-11-08T14:27:35Z</time>
      </trkpt>
      <trkpt lat="47.79481" lon="1.88018">
        <ele>121</ele>
        <time>2017-11-08T14:27:36Z</time>
      </trkpt>
      <trkpt lat="47.79486" lon="1.88017">
        <ele>121</ele>
        <time>2017-11-08T14:27:37Z</time>
      </trkpt>
      <trkpt lat="47.7949" lon="1.88017">
        <ele>121</ele>
        <time>2017-11-08T14:27:38Z</time>
      </trkpt>
      <trkpt lat="47.79495" lon="1.88017">
        <ele>121</ele>
        <time>2017-11-08T14:27:39Z</time>
      </trkpt>
      <trkpt lat="47.79499" lon="1.88017">
        <ele>120</ele>
        <time>2017-11-08T14:27:40Z</time>
      </trkpt>
      <trkpt lat="47.79503" lon="1.88017">
        <ele>118</ele>
        <time>2017-11-08T14:27:41Z</time>
      </trkpt>
      <trkpt lat="47.79507" lon="1.88017">
        <ele>118</ele>
        <time>2017-11-08T14:27:42Z</time>
      </trkpt>
      <trkpt lat="47.7951" lon="1.88016">
        <ele>118</ele>
        <time>2017-11-08T14:27:43Z</time>
      </trkpt>
      <trkpt lat="47.79515" lon="1.88016">
        <ele>118</ele>
        <time>2017-11-08T14:27:44Z</time>
      </trkpt>
      <trkpt lat="47.79519" lon="1.88016">
        <ele>117</ele>
        <time>2017-11-08T14:27:45Z</time>
      </trkpt>
      <trkpt lat="47.79523" lon="1.88016">
        <ele>117</ele>
        <time>2017-11-08T14:27:46Z</time>
      </trkpt>
      <trkpt lat="47.79527" lon="1.88016">
        <ele>117</ele>
        <time>2017-11-08T14:27:47Z</time>
      </trkpt>
      <trkpt lat="47.79532" lon="1.88015">
        <ele>117</ele>
        <time>2017-11-08T14:27:48Z</time>
      </trkpt>
      <trkpt lat="47.79536" lon="1.88015">
        <ele>117</ele>
        <time>2017-11-08T14:27:49Z</time>
      </trkpt>
      <trkpt lat="47.7954" lon="1.88015">
        <ele>116</ele>
        <time>2017-11-08T14:27:50Z</time>
      </trkpt>
      <trkpt lat="47.79544" lon="1.88015">
        <ele>116</ele>
        <time>2017-11-08T14:27:51Z</time>
      </trkpt>
      <trkpt lat="47.79548" lon="1.88014">
        <ele>116</ele>
        <time>2017-11-08T14:27:52Z</time>
      </trkpt>
      <trkpt lat="47.79552" lon="1.88014">
        <ele>116</ele>
        <time>2017-11-08T14:27:53Z</time>
      </trkpt>
      <trkpt lat="47.79557" lon="1.88013">
        <ele>116</ele>
        <time>2017-11-08T14:27:54Z</time>
      </trkpt>
      <trkpt lat="47.79562" lon="1.88013">
        <ele>116</ele>
        <time>2017-11-08T14:27:55Z</time>
      </trkpt>
      <trkpt lat="47.79566" lon="1.88013">
        <ele>116</ele>
        <time>2017-11-08T14:27:56Z</time>
      </trkpt>
      <trkpt lat="47.7957" lon="1.88013">
        <ele>116</ele>
        <time>2017-11-08T14:27:57Z</time>
      </trkpt>
      <trkpt lat="47.79574" lon="1.88012">
        <ele>115</ele>
        <time>2017-11-08T14:27:58Z</time>
      </trkpt>
      <trkpt lat="47.79578" lon="1.88012">
        <ele>115</ele>
        <time>2017-11-08T14:27:59Z</time>
      </trkpt>
      <trkpt lat="47.79581" lon="1.88012">
        <ele>115</ele>
        <time>2017-11-08T14:28:00Z</time>
      </trkpt>
      <trkpt lat="47.79585" lon="1.88012">
        <ele>115</ele>
        <time>2017-11-08T14:28:01Z</time>
      </trkpt>
      <trkpt lat="47.79589" lon="1.88011">
        <ele>115</ele>
        <time>2017-11-08T14:28:02Z</time>
      </trkpt>
      <trkpt lat="47.79592" lon="1.8801">
        <ele>115</ele>
        <time>2017-11-08T14:28:03Z</time>
      </trkpt>
      <trkpt lat="47.79596" lon="1.88011">
        <ele>115</ele>
        <time>2017-11-08T14:28:04Z</time>
      </trkpt>
      <trkpt lat="47.79601" lon="1.88011">
        <ele>115</ele>
        <time>2017-11-08T14:28:05Z</time>
      </trkpt>
      <trkpt lat="47.79604" lon="1.8801">
        <ele>115</ele>
        <time>2017-11-08T14:28:06Z</time>
      </trkpt>
      <trkpt lat="47.79608" lon="1.88011">
        <ele>115</ele>
        <time>2017-11-08T14:28:07Z</time>
      </trkpt>
      <trkpt lat="47.79612" lon="1.88012">
        <ele>115</ele>
        <time>2017-11-08T14:28:08Z</time>
      </trkpt>
      <trkpt lat="47.79616" lon="1.88012">
        <ele>115</ele>
        <time>2017-11-08T14:28:09Z</time>
      </trkpt>
      <trkpt lat="47.7962" lon="1.88012">
        <ele>115</ele>
        <time>2017-11-08T14:28:10Z</time>
      </trkpt>
      <trkpt lat="47.79624" lon="1.88012">
        <ele>115</ele>
        <time>2017-11-08T14:28:11Z</time>
      </trkpt>
      <trkpt lat="47.79629" lon="1.88011">
        <ele>115</ele>
        <time>2017-11-08T14:28:12Z</time>
      </trkpt>
      <trkpt lat="47.79632" lon="1.88011">
        <ele>115</ele>
        <time>2017-11-08T14:28:13Z</time>
      </trkpt>
      <trkpt lat="47.79637" lon="1.8801">
        <ele>115</ele>
        <time>2017-11-08T14:28:14Z</time>
      </trkpt>
      <trkpt lat="47.79641" lon="1.8801">
        <ele>116</ele>
        <time>2017-11-08T14:28:15Z</time>
      </trkpt>
      <trkpt lat="47.79645" lon="1.88009">
        <ele>116</ele>
        <time>2017-11-08T14:28:16Z</time>
      </trkpt>
      <trkpt lat="47.7965" lon="1.88008">
        <ele>116</ele>
        <time>2017-11-08T14:28:17Z</time>
      </trkpt>
      <trkpt lat="47.79655" lon="1.88008">
        <ele>116</ele>
        <time>2017-11-08T14:28:18Z</time>
      </trkpt>
      <trkpt lat="47.79659" lon="1.88007">
        <ele>116</ele>
        <time>2017-11-08T14:28:19Z</time>
      </trkpt>
      <trkpt lat="47.79663" lon="1.88008">
        <ele>116</ele>
        <time>2017-11-08T14:28:20Z</time>
      </trkpt>
      <trkpt lat="47.79666" lon="1.88008">
        <ele>116</ele>
        <time>2017-11-08T14:28:21Z</time>
      </trkpt>
      <trkpt lat="47.79671" lon="1.88007">
        <ele>117</ele>
        <time>2017-11-08T14:28:22Z</time>
      </trkpt>
      <trkpt lat="47.79675" lon="1.88006">
        <ele>117</ele>
        <time>2017-11-08T14:28:23Z</time>
      </trkpt>
      <trkpt lat="47.79679" lon="1.88006">
        <ele>117</ele>
        <time>2017-11-08T14:28:24Z</time>
      </trkpt>
      <trkpt lat="47.79682" lon="1.88006">
        <ele>117</ele>
        <time>2017-11-08T14:28:25Z</time>
      </trkpt>
      <trkpt lat="47.79686" lon="1.88007">
        <ele>117</ele>
        <time>2017-11-08T14:28:26Z</time>
      </trkpt>
      <trkpt lat="47.7969" lon="1.88006">
        <ele>117</ele>
        <time>2017-11-08T14:28:27Z</time>
      </trkpt>
      <trkpt lat="47.79695" lon="1.88007">
        <ele>117</ele>
        <time>2017-11-08T14:28:28Z</time>
      </trkpt>
      <trkpt lat="47.79699" lon="1.88007">
        <ele>117</ele>
        <time>2017-11-08T14:28:29Z</time>
      </trkpt>
      <trkpt lat="47.79704" lon="1.88007">
        <ele>117</ele>
        <time>2017-11-08T14:28:30Z</time>
      </trkpt>
      <trkpt lat="47.79709" lon="1.88007">
        <ele>117</ele>
        <time>2017-11-08T14:28:31Z</time>
      </trkpt>
      <trkpt lat="47.79713" lon="1.88007">
        <ele>117</ele>
        <time>2017-11-08T14:28:32Z</time>
      </trkpt>
      <trkpt lat="47.79718" lon="1.88006">
        <ele>117</ele>
        <time>2017-11-08T14:28:33Z</time>
      </trkpt>
      <trkpt lat="47.79722" lon="1.88006">
        <ele>117</ele>
        <time>2017-11-08T14:28:34Z</time>
      </trkpt>
      <trkpt lat="47.79726" lon="1.88005">
        <ele>117</ele>
        <time>2017-11-08T14:28:35Z</time>
      </trkpt>
      <trkpt lat="47.79731" lon="1.88005">
        <ele>117</ele>
        <time>2017-11-08T14:28:36Z</time>
      </trkpt>
      <trkpt lat="47.79735" lon="1.88004">
        <ele>117</ele>
        <time>2017-11-08T14:28:37Z</time>
      </trkpt>
      <trkpt lat="47.7974" lon="1.88004">
        <ele>117</ele>
        <time>2017-11-08T14:28:38Z</time>
      </trkpt>
      <trkpt lat="47.79745" lon="1.88004">
        <ele>117</ele>
        <time>2017-11-08T14:28:39Z</time>
      </trkpt>
      <trkpt lat="47.79749" lon="1.88004">
        <ele>117</ele>
        <time>2017-11-08T14:28:40Z</time>
      </trkpt>
      <trkpt lat="47.79754" lon="1.88005">
        <ele>117</ele>
        <time>2017-11-08T14:28:41Z</time>
      </trkpt>
      <trkpt lat="47.79758" lon="1.88005">
        <ele>117</ele>
        <time>2017-11-08T14:28:42Z</time>
      </trkpt>
      <trkpt lat="47.79762" lon="1.88005">
        <ele>117</ele>
        <time>2017-11-08T14:28:43Z</time>
      </trkpt>
      <trkpt lat="47.79767" lon="1.88005">
        <ele>117</ele>
        <time>2017-11-08T14:28:44Z</time>
      </trkpt>
      <trkpt lat="47.79771" lon="1.88004">
        <ele>116</ele>
        <time>2017-11-08T14:28:45Z</time>
      </trkpt>
      <trkpt lat="47.79775" lon="1.88003">
        <ele>116</ele>
        <time>2017-11-08T14:28:46Z</time>
      </trkpt>
      <trkpt lat="47.7978" lon="1.88002">
        <ele>116</ele>
        <time>2017-11-08T14:28:47Z</time>
      </trkpt>
      <trkpt lat="47.79784" lon="1.88002">
        <ele>116</ele>
        <time>2017-11-08T14:28:48Z</time>
      </trkpt>
      <trkpt lat="47.79789" lon="1.88002">
        <ele>116</ele>
        <time>2017-11-08T14:28:49Z</time>
      </trkpt>
      <trkpt lat="47.79794" lon="1.88001">
        <ele>116</ele>
        <time>2017-11-08T14:28:50Z</time>
      </trkpt>
      <trkpt lat="47.79797" lon="1.88001">
        <ele>116</ele>
        <time>2017-11-08T14:28:51Z</time>
      </trkpt>
      <trkpt lat="47.79802" lon="1.88001">
        <ele>116</ele>
        <time>2017-11-08T14:28:52Z</time>
      </trkpt>
      <trkpt lat="47.79806" lon="1.88001">
        <ele>116</ele>
        <time>2017-11-08T14:28:53Z</time>
      </trkpt>
      <trkpt lat="47.79811" lon="1.88">
        <ele>116</ele>
        <time>2017-11-08T14:28:54Z</time>
      </trkpt>
      <trkpt lat="47.79816" lon="1.87999">
        <ele>116</ele>
        <time>2017-11-08T14:28:55Z</time>
      </trkpt>
      <trkpt lat="47.79819" lon="1.87998">
        <ele>116</ele>
        <time>2017-11-08T14:28:56Z</time>
      </trkpt>
      <trkpt lat="47.79824" lon="1.87998">
        <ele>116</ele>
        <time>2017-11-08T14:28:57Z</time>
      </trkpt>
      <trkpt lat="47.79829" lon="1.87997">
        <ele>116</ele>
        <time>2017-11-08T14:28:58Z</time>
      </trkpt>
      <trkpt lat="47.79831" lon="1.87996">
        <ele>116</ele>
        <time>2017-11-08T14:28:59Z</time>
      </trkpt>
      <trkpt lat="47.79835" lon="1.87997">
        <ele>116</ele>
        <time>2017-11-08T14:29:00Z</time>
      </trkpt>
      <trkpt lat="47.7984" lon="1.87999">
        <ele>116</ele>
        <time>2017-11-08T14:29:02Z</time>
      </trkpt>
      <trkpt lat="47.79848" lon="1.87997">
        <ele>115</ele>
        <time>2017-11-08T14:29:03Z</time>
      </trkpt>
      <trkpt lat="47.79851" lon="1.87996">
        <ele>115</ele>
        <time>2017-11-08T14:29:04Z</time>
      </trkpt>
      <trkpt lat="47.79856" lon="1.87997">
        <ele>115</ele>
        <time>2017-11-08T14:29:05Z</time>
      </trkpt>
      <trkpt lat="47.79859" lon="1.87998">
        <ele>115</ele>
        <time>2017-11-08T14:29:06Z</time>
      </trkpt>
      <trkpt lat="47.79862" lon="1.87997">
        <ele>115</ele>
        <time>2017-11-08T14:29:07Z</time>
      </trkpt>
      <trkpt lat="47.79865" lon="1.87996">
        <ele>115</ele>
        <time>2017-11-08T14:29:08Z</time>
      </trkpt>
      <trkpt lat="47.79868" lon="1.87995">
        <ele>115</ele>
        <time>2017-11-08T14:29:09Z</time>
      </trkpt>
      <trkpt lat="47.79871" lon="1.87995">
        <ele>115</ele>
        <time>2017-11-08T14:29:10Z</time>
      </trkpt>
      <trkpt lat="47.79873" lon="1.87995">
        <ele>115</ele>
        <time>2017-11-08T14:29:11Z</time>
      </trkpt>
      <trkpt lat="47.79879" lon="1.87994">
        <ele>115</ele>
        <time>2017-11-08T14:29:13Z</time>
      </trkpt>
      <trkpt lat="47.79882" lon="1.87994">
        <ele>115</ele>
        <time>2017-11-08T14:29:14Z</time>
      </trkpt>
      <trkpt lat="47.79885" lon="1.87994">
        <ele>115</ele>
        <time>2017-11-08T14:29:15Z</time>
      </trkpt>
      <trkpt lat="47.79888" lon="1.87994">
        <ele>115</ele>
        <time>2017-11-08T14:29:16Z</time>
      </trkpt>
      <trkpt lat="47.79891" lon="1.87993">
        <ele>115</ele>
        <time>2017-11-08T14:29:17Z</time>
      </trkpt>
      <trkpt lat="47.79894" lon="1.87991">
        <ele>115</ele>
        <time>2017-11-08T14:29:18Z</time>
      </trkpt>
      <trkpt lat="47.79898" lon="1.87992">
        <ele>115</ele>
        <time>2017-11-08T14:29:19Z</time>
      </trkpt>
      <trkpt lat="47.79901" lon="1.87992">
        <ele>114</ele>
        <time>2017-11-08T14:29:20Z</time>
      </trkpt>
      <trkpt lat="47.79904" lon="1.87992">
        <ele>114</ele>
        <time>2017-11-08T14:29:21Z</time>
      </trkpt>
      <trkpt lat="47.79907" lon="1.87993">
        <ele>114</ele>
        <time>2017-11-08T14:29:22Z</time>
      </trkpt>
      <trkpt lat="47.79911" lon="1.87994">
        <ele>114</ele>
        <time>2017-11-08T14:29:23Z</time>
      </trkpt>
      <trkpt lat="47.79914" lon="1.87994">
        <ele>114</ele>
        <time>2017-11-08T14:29:24Z</time>
      </trkpt>
      <trkpt lat="47.79917" lon="1.87994">
        <ele>114</ele>
        <time>2017-11-08T14:29:25Z</time>
      </trkpt>
      <trkpt lat="47.7992" lon="1.87994">
        <ele>114</ele>
        <time>2017-11-08T14:29:26Z</time>
      </trkpt>
      <trkpt lat="47.79923" lon="1.87994">
        <ele>114</ele>
        <time>2017-11-08T14:29:27Z</time>
      </trkpt>
      <trkpt lat="47.79926" lon="1.87994">
        <ele>114</ele>
        <time>2017-11-08T14:29:28Z</time>
      </trkpt>
      <trkpt lat="47.79929" lon="1.87993">
        <ele>114</ele>
        <time>2017-11-08T14:29:29Z</time>
      </trkpt>
      <trkpt lat="47.79933" lon="1.87993">
        <ele>114</ele>
        <time>2017-11-08T14:29:30Z</time>
      </trkpt>
      <trkpt lat="47.79936" lon="1.87993">
        <ele>114</ele>
        <time>2017-11-08T14:29:31Z</time>
      </trkpt>
      <trkpt lat="47.79939" lon="1.87992">
        <ele>114</ele>
        <time>2017-11-08T14:29:32Z</time>
      </trkpt>
      <trkpt lat="47.79943" lon="1.87992">
        <ele>114</ele>
        <time>2017-11-08T14:29:33Z</time>
      </trkpt>
      <trkpt lat="47.79947" lon="1.87992">
        <ele>114</ele>
        <time>2017-11-08T14:29:34Z</time>
      </trkpt>
      <trkpt lat="47.7995" lon="1.87991">
        <ele>114</ele>
        <time>2017-11-08T14:29:35Z</time>
      </trkpt>
      <trkpt lat="47.79953" lon="1.87991">
        <ele>114</ele>
        <time>2017-11-08T14:29:36Z</time>
      </trkpt>
      <trkpt lat="47.79957" lon="1.87991">
        <ele>114</ele>
        <time>2017-11-08T14:29:37Z</time>
      </trkpt>
      <trkpt lat="47.79961" lon="1.8799">
        <ele>114</ele>
        <time>2017-11-08T14:29:38Z</time>
      </trkpt>
      <trkpt lat="47.79964" lon="1.8799">
        <ele>114</ele>
        <time>2017-11-08T14:29:39Z</time>
      </trkpt>
      <trkpt lat="47.79968" lon="1.87991">
        <ele>114</ele>
        <time>2017-11-08T14:29:40Z</time>
      </trkpt>
      <trkpt lat="47.79973" lon="1.87991">
        <ele>114</ele>
        <time>2017-11-08T14:29:41Z</time>
      </trkpt>
      <trkpt lat="47.79976" lon="1.8799">
        <ele>114</ele>
        <time>2017-11-08T14:29:42Z</time>
      </trkpt>
      <trkpt lat="47.79981" lon="1.8799">
        <ele>115</ele>
        <time>2017-11-08T14:29:43Z</time>
      </trkpt>
      <trkpt lat="47.79986" lon="1.8799">
        <ele>115</ele>
        <time>2017-11-08T14:29:44Z</time>
      </trkpt>
      <trkpt lat="47.7999" lon="1.8799">
        <ele>115</ele>
        <time>2017-11-08T14:29:45Z</time>
      </trkpt>
      <trkpt lat="47.79994" lon="1.87989">
        <ele>115</ele>
        <time>2017-11-08T14:29:46Z</time>
      </trkpt>
      <trkpt lat="47.79997" lon="1.87988">
        <ele>115</ele>
        <time>2017-11-08T14:29:47Z</time>
      </trkpt>
      <trkpt lat="47.80001" lon="1.87988">
        <ele>114</ele>
        <time>2017-11-08T14:29:48Z</time>
      </trkpt>
      <trkpt lat="47.80005" lon="1.87988">
        <ele>114</ele>
        <time>2017-11-08T14:29:49Z</time>
      </trkpt>
      <trkpt lat="47.8001" lon="1.87988">
        <ele>114</ele>
        <time>2017-11-08T14:29:50Z</time>
      </trkpt>
      <trkpt lat="47.80014" lon="1.87987">
        <ele>113</ele>
        <time>2017-11-08T14:29:51Z</time>
      </trkpt>
      <trkpt lat="47.80017" lon="1.87987">
        <ele>113</ele>
        <time>2017-11-08T14:29:52Z</time>
      </trkpt>
      <trkpt lat="47.80021" lon="1.87987">
        <ele>113</ele>
        <time>2017-11-08T14:29:53Z</time>
      </trkpt>
      <trkpt lat="47.80025" lon="1.87986">
        <ele>113</ele>
        <time>2017-11-08T14:29:54Z</time>
      </trkpt>
      <trkpt lat="47.80029" lon="1.87986">
        <ele>113</ele>
        <time>2017-11-08T14:29:55Z</time>
      </trkpt>
      <trkpt lat="47.80033" lon="1.87985">
        <ele>113</ele>
        <time>2017-11-08T14:29:56Z</time>
      </trkpt>
      <trkpt lat="47.80037" lon="1.87985">
        <ele>113</ele>
        <time>2017-11-08T14:29:57Z</time>
      </trkpt>
      <trkpt lat="47.8004" lon="1.87983">
        <ele>112</ele>
        <time>2017-11-08T14:29:58Z</time>
      </trkpt>
      <trkpt lat="47.80044" lon="1.87982">
        <ele>112</ele>
        <time>2017-11-08T14:29:59Z</time>
      </trkpt>
      <trkpt lat="47.80046" lon="1.87981">
        <ele>112</ele>
        <time>2017-11-08T14:30:00Z</time>
      </trkpt>
      <trkpt lat="47.80051" lon="1.8798">
        <ele>112</ele>
        <time>2017-11-08T14:30:02Z</time>
      </trkpt>
      <trkpt lat="47.80054" lon="1.8798">
        <ele>112</ele>
        <time>2017-11-08T14:30:03Z</time>
      </trkpt>
      <trkpt lat="47.80059" lon="1.87979">
        <ele>112</ele>
        <time>2017-11-08T14:30:05Z</time>
      </trkpt>
      <trkpt lat="47.80062" lon="1.8798">
        <ele>112</ele>
        <time>2017-11-08T14:30:06Z</time>
      </trkpt>
      <trkpt lat="47.80065" lon="1.8798">
        <ele>112</ele>
        <time>2017-11-08T14:30:07Z</time>
      </trkpt>
      <trkpt lat="47.8007" lon="1.8798">
        <ele>111</ele>
        <time>2017-11-08T14:30:09Z</time>
      </trkpt>
      <trkpt lat="47.80076" lon="1.8798">
        <ele>111</ele>
        <time>2017-11-08T14:30:11Z</time>
      </trkpt>
      <trkpt lat="47.8008" lon="1.8798">
        <ele>111</ele>
        <time>2017-11-08T14:30:12Z</time>
      </trkpt>
      <trkpt lat="47.80082" lon="1.87979">
        <ele>111</ele>
        <time>2017-11-08T14:30:13Z</time>
      </trkpt>
      <trkpt lat="47.80085" lon="1.87978">
        <ele>110</ele>
        <time>2017-11-08T14:30:14Z</time>
      </trkpt>
      <trkpt lat="47.80088" lon="1.87977">
        <ele>110</ele>
        <time>2017-11-08T14:30:15Z</time>
      </trkpt>
      <trkpt lat="47.80091" lon="1.87977">
        <ele>110</ele>
        <time>2017-11-08T14:30:16Z</time>
      </trkpt>
      <trkpt lat="47.80094" lon="1.87977">
        <ele>110</ele>
        <time>2017-11-08T14:30:17Z</time>
      </trkpt>
      <trkpt lat="47.80097" lon="1.87977">
        <ele>110</ele>
        <time>2017-11-08T14:30:18Z</time>
      </trkpt>
      <trkpt lat="47.801" lon="1.87976">
        <ele>110</ele>
        <time>2017-11-08T14:30:19Z</time>
      </trkpt>
      <trkpt lat="47.80105" lon="1.87976">
        <ele>110</ele>
        <time>2017-11-08T14:30:21Z</time>
      </trkpt>
      <trkpt lat="47.80108" lon="1.87976">
        <ele>110</ele>
        <time>2017-11-08T14:30:22Z</time>
      </trkpt>
      <trkpt lat="47.80113" lon="1.87976">
        <ele>110</ele>
        <time>2017-11-08T14:30:23Z</time>
      </trkpt>
      <trkpt lat="47.80117" lon="1.87975">
        <ele>110</ele>
        <time>2017-11-08T14:30:24Z</time>
      </trkpt>
      <trkpt lat="47.80121" lon="1.87975">
        <ele>110</ele>
        <time>2017-11-08T14:30:25Z</time>
      </trkpt>
      <trkpt lat="47.80125" lon="1.87975">
        <ele>110</ele>
        <time>2017-11-08T14:30:26Z</time>
      </trkpt>
      <trkpt lat="47.80129" lon="1.87974">
        <ele>110</ele>
        <time>2017-11-08T14:30:27Z</time>
      </trkpt>
      <trkpt lat="47.80132" lon="1.87973">
        <ele>110</ele>
        <time>2017-11-08T14:30:28Z</time>
      </trkpt>
      <trkpt lat="47.80136" lon="1.87973">
        <ele>110</ele>
        <time>2017-11-08T14:30:29Z</time>
      </trkpt>
      <trkpt lat="47.80139" lon="1.87973">
        <ele>110</ele>
        <time>2017-11-08T14:30:30Z</time>
      </trkpt>
      <trkpt lat="47.80143" lon="1.87972">
        <ele>110</ele>
        <time>2017-11-08T14:30:31Z</time>
      </trkpt>
      <trkpt lat="47.80146" lon="1.87972">
        <ele>110</ele>
        <time>2017-11-08T14:30:32Z</time>
      </trkpt>
      <trkpt lat="47.80149" lon="1.87972">
        <ele>110</ele>
        <time>2017-11-08T14:30:33Z</time>
      </trkpt>
      <trkpt lat="47.80153" lon="1.87971">
        <ele>110</ele>
        <time>2017-11-08T14:30:34Z</time>
      </trkpt>
      <trkpt lat="47.80156" lon="1.87971">
        <ele>110</ele>
        <time>2017-11-08T14:30:35Z</time>
      </trkpt>
      <trkpt lat="47.8016" lon="1.87971">
        <ele>110</ele>
        <time>2017-11-08T14:30:36Z</time>
      </trkpt>
      <trkpt lat="47.80164" lon="1.87972">
        <ele>110</ele>
        <time>2017-11-08T14:30:37Z</time>
      </trkpt>
      <trkpt lat="47.80167" lon="1.87972">
        <ele>111</ele>
        <time>2017-11-08T14:30:38Z</time>
      </trkpt>
      <trkpt lat="47.80171" lon="1.87972">
        <ele>111</ele>
        <time>2017-11-08T14:30:39Z</time>
      </trkpt>
      <trkpt lat="47.80174" lon="1.87972">
        <ele>111</ele>
        <time>2017-11-08T14:30:40Z</time>
      </trkpt>
      <trkpt lat="47.80178" lon="1.87972">
        <ele>111</ele>
        <time>2017-11-08T14:30:41Z</time>
      </trkpt>
      <trkpt lat="47.80181" lon="1.87972">
        <ele>111</ele>
        <time>2017-11-08T14:30:42Z</time>
      </trkpt>
      <trkpt lat="47.80184" lon="1.87971">
        <ele>111</ele>
        <time>2017-11-08T14:30:43Z</time>
      </trkpt>
      <trkpt lat="47.80187" lon="1.8797">
        <ele>111</ele>
        <time>2017-11-08T14:30:44Z</time>
      </trkpt>
      <trkpt lat="47.8019" lon="1.8797">
        <ele>111</ele>
        <time>2017-11-08T14:30:45Z</time>
      </trkpt>
      <trkpt lat="47.80193" lon="1.87969">
        <ele>111</ele>
        <time>2017-11-08T14:30:46Z</time>
      </trkpt>
      <trkpt lat="47.80196" lon="1.87969">
        <ele>111</ele>
        <time>2017-11-08T14:30:47Z</time>
      </trkpt>
      <trkpt lat="47.802" lon="1.87968">
        <ele>111</ele>
        <time>2017-11-08T14:30:48Z</time>
      </trkpt>
      <trkpt lat="47.80203" lon="1.87968">
        <ele>111</ele>
        <time>2017-11-08T14:30:49Z</time>
      </trkpt>
      <trkpt lat="47.80207" lon="1.87967">
        <ele>111</ele>
        <time>2017-11-08T14:30:50Z</time>
      </trkpt>
      <trkpt lat="47.80209" lon="1.87966">
        <ele>111</ele>
        <time>2017-11-08T14:30:51Z</time>
      </trkpt>
      <trkpt lat="47.80212" lon="1.87965">
        <ele>111</ele>
        <time>2017-11-08T14:30:52Z</time>
      </trkpt>
      <trkpt lat="47.80216" lon="1.87965">
        <ele>111</ele>
        <time>2017-11-08T14:30:53Z</time>
      </trkpt>
      <trkpt lat="47.80219" lon="1.87965">
        <ele>111</ele>
        <time>2017-11-08T14:30:54Z</time>
      </trkpt>
      <trkpt lat="47.80223" lon="1.87965">
        <ele>111</ele>
        <time>2017-11-08T14:30:55Z</time>
      </trkpt>
      <trkpt lat="47.80226" lon="1.87965">
        <ele>111</ele>
        <time>2017-11-08T14:30:56Z</time>
      </trkpt>
      <trkpt lat="47.8023" lon="1.87965">
        <ele>111</ele>
        <time>2017-11-08T14:30:58Z</time>
      </trkpt>
      <trkpt lat="47.80236" lon="1.87962">
        <ele>111</ele>
        <time>2017-11-08T14:30:59Z</time>
      </trkpt>
      <trkpt lat="47.80239" lon="1.87965">
        <ele>111</ele>
        <time>2017-11-08T14:31:09Z</time>
      </trkpt>
      <trkpt lat="47.80243" lon="1.87966">
        <ele>111</ele>
        <time>2017-11-08T14:31:11Z</time>
      </trkpt>
      <trkpt lat="47.80248" lon="1.87965">
        <ele>111</ele>
        <time>2017-11-08T14:31:13Z</time>
      </trkpt>
      <trkpt lat="47.80251" lon="1.87965">
        <ele>112</ele>
        <time>2017-11-08T14:31:14Z</time>
      </trkpt>
      <trkpt lat="47.80256" lon="1.87965">
        <ele>112</ele>
        <time>2017-11-08T14:31:16Z</time>
      </trkpt>
      <trkpt lat="47.80259" lon="1.87965">
        <ele>112</ele>
        <time>2017-11-08T14:31:17Z</time>
      </trkpt>
      <trkpt lat="47.80263" lon="1.87964">
        <ele>112</ele>
        <time>2017-11-08T14:31:19Z</time>
      </trkpt>
      <trkpt lat="47.80269" lon="1.87964">
        <ele>112</ele>
        <time>2017-11-08T14:31:21Z</time>
      </trkpt>
      <trkpt lat="47.80272" lon="1.87964">
        <ele>112</ele>
        <time>2017-11-08T14:31:22Z</time>
      </trkpt>
      <trkpt lat="47.80275" lon="1.87964">
        <ele>112</ele>
        <time>2017-11-08T14:31:23Z</time>
      </trkpt>
      <trkpt lat="47.8028" lon="1.87963">
        <ele>112</ele>
        <time>2017-11-08T14:31:25Z</time>
      </trkpt>
      <trkpt lat="47.80285" lon="1.87963">
        <ele>112</ele>
        <time>2017-11-08T14:31:27Z</time>
      </trkpt>
      <trkpt lat="47.80289" lon="1.87962">
        <ele>112</ele>
        <time>2017-11-08T14:31:28Z</time>
      </trkpt>
      <trkpt lat="47.80293" lon="1.87961">
        <ele>112</ele>
        <time>2017-11-08T14:31:30Z</time>
      </trkpt>
      <trkpt lat="47.80296" lon="1.87961">
        <ele>112</ele>
        <time>2017-11-08T14:31:31Z</time>
      </trkpt>
      <trkpt lat="47.80298" lon="1.87959">
        <ele>113</ele>
        <time>2017-11-08T14:31:32Z</time>
      </trkpt>
      <trkpt lat="47.80301" lon="1.87959">
        <ele>113</ele>
        <time>2017-11-08T14:31:33Z</time>
      </trkpt>
      <trkpt lat="47.80304" lon="1.87958">
        <ele>113</ele>
        <time>2017-11-08T14:31:34Z</time>
      </trkpt>
      <trkpt lat="47.80309" lon="1.87956">
        <ele>113</ele>
        <time>2017-11-08T14:31:36Z</time>
      </trkpt>
      <trkpt lat="47.80314" lon="1.87957">
        <ele>113</ele>
        <time>2017-11-08T14:31:37Z</time>
      </trkpt>
      <trkpt lat="47.8032" lon="1.87957">
        <ele>113</ele>
        <time>2017-11-08T14:31:39Z</time>
      </trkpt>
      <trkpt lat="47.80324" lon="1.87957">
        <ele>113</ele>
        <time>2017-11-08T14:31:40Z</time>
      </trkpt>
      <trkpt lat="47.8033" lon="1.87957">
        <ele>113</ele>
        <time>2017-11-08T14:31:42Z</time>
      </trkpt>
      <trkpt lat="47.80334" lon="1.87957">
        <ele>112</ele>
        <time>2017-11-08T14:31:43Z</time>
      </trkpt>
      <trkpt lat="47.8034" lon="1.87957">
        <ele>112</ele>
        <time>2017-11-08T14:31:45Z</time>
      </trkpt>
      <trkpt lat="47.80343" lon="1.87957">
        <ele>112</ele>
        <time>2017-11-08T14:31:46Z</time>
      </trkpt>
      <trkpt lat="47.80347" lon="1.87957">
        <ele>112</ele>
        <time>2017-11-08T14:31:47Z</time>
      </trkpt>
      <trkpt lat="47.8035" lon="1.87957">
        <ele>112</ele>
        <time>2017-11-08T14:31:48Z</time>
      </trkpt>
      <trkpt lat="47.80353" lon="1.87958">
        <ele>112</ele>
        <time>2017-11-08T14:31:49Z</time>
      </trkpt>
      <trkpt lat="47.80357" lon="1.87957">
        <ele>112</ele>
        <time>2017-11-08T14:31:50Z</time>
      </trkpt>
      <trkpt lat="47.80361" lon="1.87958">
        <ele>112</ele>
        <time>2017-11-08T14:31:51Z</time>
      </trkpt>
      <trkpt lat="47.80365" lon="1.87958">
        <ele>112</ele>
        <time>2017-11-08T14:31:52Z</time>
      </trkpt>
      <trkpt lat="47.80369" lon="1.87958">
        <ele>112</ele>
        <time>2017-11-08T14:31:53Z</time>
      </trkpt>
      <trkpt lat="47.80373" lon="1.87959">
        <ele>112</ele>
        <time>2017-11-08T14:31:54Z</time>
      </trkpt>
      <trkpt lat="47.80376" lon="1.87959">
        <ele>111</ele>
        <time>2017-11-08T14:31:55Z</time>
      </trkpt>
      <trkpt lat="47.8038" lon="1.87959">
        <ele>111</ele>
        <time>2017-11-08T14:31:56Z</time>
      </trkpt>
      <trkpt lat="47.80384" lon="1.87959">
        <ele>111</ele>
        <time>2017-11-08T14:31:57Z</time>
      </trkpt>
      <trkpt lat="47.80388" lon="1.8796">
        <ele>111</ele>
        <time>2017-11-08T14:31:58Z</time>
      </trkpt>
      <trkpt lat="47.80391" lon="1.8796">
        <ele>111</ele>
        <time>2017-11-08T14:31:59Z</time>
      </trkpt>
      <trkpt lat="47.80395" lon="1.8796">
        <ele>111</ele>
        <time>2017-11-08T14:32:00Z</time>
      </trkpt>
      <trkpt lat="47.80399" lon="1.8796">
        <ele>111</ele>
        <time>2017-11-08T14:32:01Z</time>
      </trkpt>
      <trkpt lat="47.80403" lon="1.87959">
        <ele>111</ele>
        <time>2017-11-08T14:32:02Z</time>
      </trkpt>
      <trkpt lat="47.80408" lon="1.87959">
        <ele>111</ele>
        <time>2017-11-08T14:32:03Z</time>
      </trkpt>
      <trkpt lat="47.80413" lon="1.87957">
        <ele>111</ele>
        <time>2017-11-08T14:32:04Z</time>
      </trkpt>
      <trkpt lat="47.8042" lon="1.87955">
        <ele>110</ele>
        <time>2017-11-08T14:32:05Z</time>
      </trkpt>
      <trkpt lat="47.80425" lon="1.87953">
        <ele>110</ele>
        <time>2017-11-08T14:32:06Z</time>
      </trkpt>
      <trkpt lat="47.80431" lon="1.87952">
        <ele>110</ele>
        <time>2017-11-08T14:32:07Z</time>
      </trkpt>
      <trkpt lat="47.80437" lon="1.87952">
        <ele>110</ele>
        <time>2017-11-08T14:32:08Z</time>
      </trkpt>
      <trkpt lat="47.80444" lon="1.87951">
        <ele>110</ele>
        <time>2017-11-08T14:32:09Z</time>
      </trkpt>
      <trkpt lat="47.80451" lon="1.87951">
        <ele>110</ele>
        <time>2017-11-08T14:32:10Z</time>
      </trkpt>
      <trkpt lat="47.8046" lon="1.87951">
        <ele>110</ele>
        <time>2017-11-08T14:32:11Z</time>
      </trkpt>
      <trkpt lat="47.8047" lon="1.87951">
        <ele>110</ele>
        <time>2017-11-08T14:32:12Z</time>
      </trkpt>
      <trkpt lat="47.80479" lon="1.87952">
        <ele>110</ele>
        <time>2017-11-08T14:32:13Z</time>
      </trkpt>
      <trkpt lat="47.80487" lon="1.87952">
        <ele>110</ele>
        <time>2017-11-08T14:32:14Z</time>
      </trkpt>
      <trkpt lat="47.80495" lon="1.87951">
        <ele>110</ele>
        <time>2017-11-08T14:32:15Z</time>
      </trkpt>
      <trkpt lat="47.80504" lon="1.87951">
        <ele>111</ele>
        <time>2017-11-08T14:32:16Z</time>
      </trkpt>
      <trkpt lat="47.80511" lon="1.8795">
        <ele>111</ele>
        <time>2017-11-08T14:32:17Z</time>
      </trkpt>
      <trkpt lat="47.80518" lon="1.8795">
        <ele>111</ele>
        <time>2017-11-08T14:32:18Z</time>
      </trkpt>
      <trkpt lat="47.80525" lon="1.87951">
        <ele>111</ele>
        <time>2017-11-08T14:32:19Z</time>
      </trkpt>
      <trkpt lat="47.80532" lon="1.87954">
        <ele>111</ele>
        <time>2017-11-08T14:32:20Z</time>
      </trkpt>
      <trkpt lat="47.80537" lon="1.87958">
        <ele>111</ele>
        <time>2017-11-08T14:32:21Z</time>
      </trkpt>
      <trkpt lat="47.80543" lon="1.87961">
        <ele>111</ele>
        <time>2017-11-08T14:32:22Z</time>
      </trkpt>
      <trkpt lat="47.80547" lon="1.87964">
        <ele>111</ele>
        <time>2017-11-08T14:32:23Z</time>
      </trkpt>
      <trkpt lat="47.80551" lon="1.87966">
        <ele>111</ele>
        <time>2017-11-08T14:32:24Z</time>
      </trkpt>
      <trkpt lat="47.80554" lon="1.87968">
        <ele>111</ele>
        <time>2017-11-08T14:32:25Z</time>
      </trkpt>
      <trkpt lat="47.80558" lon="1.87971">
        <ele>111</ele>
        <time>2017-11-08T14:32:26Z</time>
      </trkpt>
      <trkpt lat="47.80561" lon="1.87974">
        <ele>111</ele>
        <time>2017-11-08T14:32:27Z</time>
      </trkpt>
      <trkpt lat="47.80564" lon="1.87978">
        <ele>111</ele>
        <time>2017-11-08T14:32:28Z</time>
      </trkpt>
      <trkpt lat="47.80567" lon="1.8798">
        <ele>111</ele>
        <time>2017-11-08T14:32:29Z</time>
      </trkpt>
      <trkpt lat="47.80571" lon="1.87984">
        <ele>111</ele>
        <time>2017-11-08T14:32:31Z</time>
      </trkpt>
      <trkpt lat="47.80573" lon="1.87987">
        <ele>111</ele>
        <time>2017-11-08T14:32:32Z</time>
      </trkpt>
      <trkpt lat="47.80576" lon="1.8799">
        <ele>111</ele>
        <time>2017-11-08T14:32:33Z</time>
      </trkpt>
      <trkpt lat="47.80579" lon="1.87993">
        <ele>111</ele>
        <time>2017-11-08T14:32:34Z</time>
      </trkpt>
      <trkpt lat="47.80582" lon="1.87996">
        <ele>111</ele>
        <time>2017-11-08T14:32:35Z</time>
      </trkpt>
      <trkpt lat="47.80585" lon="1.87999">
        <ele>111</ele>
        <time>2017-11-08T14:32:36Z</time>
      </trkpt>
      <trkpt lat="47.80588" lon="1.88002">
        <ele>111</ele>
        <time>2017-11-08T14:32:37Z</time>
      </trkpt>
      <trkpt lat="47.80591" lon="1.88005">
        <ele>110</ele>
        <time>2017-11-08T14:32:38Z</time>
      </trkpt>
      <trkpt lat="47.80594" lon="1.88007">
        <ele>110</ele>
        <time>2017-11-08T14:32:39Z</time>
      </trkpt>
      <trkpt lat="47.80597" lon="1.88011">
        <ele>110</ele>
        <time>2017-11-08T14:32:40Z</time>
      </trkpt>
      <trkpt lat="47.806" lon="1.88016">
        <ele>110</ele>
        <time>2017-11-08T14:32:41Z</time>
      </trkpt>
      <trkpt lat="47.80604" lon="1.8802">
        <ele>109</ele>
        <time>2017-11-08T14:32:42Z</time>
      </trkpt>
      <trkpt lat="47.80608" lon="1.88024">
        <ele>109</ele>
        <time>2017-11-08T14:32:43Z</time>
      </trkpt>
      <trkpt lat="47.80611" lon="1.88026">
        <ele>109</ele>
        <time>2017-11-08T14:32:44Z</time>
      </trkpt>
      <trkpt lat="47.80613" lon="1.88029">
        <ele>109</ele>
        <time>2017-11-08T14:32:45Z</time>
      </trkpt>
      <trkpt lat="47.80616" lon="1.88032">
        <ele>109</ele>
        <time>2017-11-08T14:32:46Z</time>
      </trkpt>
      <trkpt lat="47.80619" lon="1.88035">
        <ele>109</ele>
        <time>2017-11-08T14:32:47Z</time>
      </trkpt>
      <trkpt lat="47.80622" lon="1.88038">
        <ele>109</ele>
        <time>2017-11-08T14:32:48Z</time>
      </trkpt>
      <trkpt lat="47.80625" lon="1.88043">
        <ele>109</ele>
        <time>2017-11-08T14:32:49Z</time>
      </trkpt>
      <trkpt lat="47.80627" lon="1.88047">
        <ele>109</ele>
        <time>2017-11-08T14:32:50Z</time>
      </trkpt>
      <trkpt lat="47.8063" lon="1.88053">
        <ele>109</ele>
        <time>2017-11-08T14:32:51Z</time>
      </trkpt>
      <trkpt lat="47.80633" lon="1.88059">
        <ele>108</ele>
        <time>2017-11-08T14:32:52Z</time>
      </trkpt>
      <trkpt lat="47.80636" lon="1.88063">
        <ele>108</ele>
        <time>2017-11-08T14:32:53Z</time>
      </trkpt>
      <trkpt lat="47.8064" lon="1.88067">
        <ele>108</ele>
        <time>2017-11-08T14:32:54Z</time>
      </trkpt>
      <trkpt lat="47.80645" lon="1.88072">
        <ele>108</ele>
        <time>2017-11-08T14:32:55Z</time>
      </trkpt>
      <trkpt lat="47.8065" lon="1.88076">
        <ele>108</ele>
        <time>2017-11-08T14:32:56Z</time>
      </trkpt>
      <trkpt lat="47.80655" lon="1.88081">
        <ele>108</ele>
        <time>2017-11-08T14:32:57Z</time>
      </trkpt>
      <trkpt lat="47.80662" lon="1.88086">
        <ele>107</ele>
        <time>2017-11-08T14:32:58Z</time>
      </trkpt>
      <trkpt lat="47.80668" lon="1.8809">
        <ele>108</ele>
        <time>2017-11-08T14:32:59Z</time>
      </trkpt>
      <trkpt lat="47.80673" lon="1.88095">
        <ele>108</ele>
        <time>2017-11-08T14:33:00Z</time>
      </trkpt>
      <trkpt lat="47.80678" lon="1.881">
        <ele>109</ele>
        <time>2017-11-08T14:33:01Z</time>
      </trkpt>
      <trkpt lat="47.80684" lon="1.88105">
        <ele>109</ele>
        <time>2017-11-08T14:33:02Z</time>
      </trkpt>
      <trkpt lat="47.8069" lon="1.8811">
        <ele>109</ele>
        <time>2017-11-08T14:33:03Z</time>
      </trkpt>
      <trkpt lat="47.80696" lon="1.88115">
        <ele>110</ele>
        <time>2017-11-08T14:33:04Z</time>
      </trkpt>
      <trkpt lat="47.80702" lon="1.88119">
        <ele>110</ele>
        <time>2017-11-08T14:33:05Z</time>
      </trkpt>
      <trkpt lat="47.80707" lon="1.88124">
        <ele>110</ele>
        <time>2017-11-08T14:33:06Z</time>
      </trkpt>
      <trkpt lat="47.80711" lon="1.88129">
        <ele>110</ele>
        <time>2017-11-08T14:33:07Z</time>
      </trkpt>
      <trkpt lat="47.80716" lon="1.88134">
        <ele>110</ele>
        <time>2017-11-08T14:33:08Z</time>
      </trkpt>
      <trkpt lat="47.80723" lon="1.8814">
        <ele>111</ele>
        <time>2017-11-08T14:33:09Z</time>
      </trkpt>
      <trkpt lat="47.80728" lon="1.88144">
        <ele>111</ele>
        <time>2017-11-08T14:33:10Z</time>
      </trkpt>
      <trkpt lat="47.80733" lon="1.88148">
        <ele>111</ele>
        <time>2017-11-08T14:33:11Z</time>
      </trkpt>
      <trkpt lat="47.80737" lon="1.88152">
        <ele>111</ele>
        <time>2017-11-08T14:33:12Z</time>
      </trkpt>
      <trkpt lat="47.80742" lon="1.88158">
        <ele>112</ele>
        <time>2017-11-08T14:33:13Z</time>
      </trkpt>
      <trkpt lat="47.80747" lon="1.88164">
        <ele>113</ele>
        <time>2017-11-08T14:33:14Z</time>
      </trkpt>
      <trkpt lat="47.80753" lon="1.8817">
        <ele>113</ele>
        <time>2017-11-08T14:33:15Z</time>
      </trkpt>
      <trkpt lat="47.80757" lon="1.88175">
        <ele>113</ele>
        <time>2017-11-08T14:33:16Z</time>
      </trkpt>
      <trkpt lat="47.80762" lon="1.8818">
        <ele>112</ele>
        <time>2017-11-08T14:33:17Z</time>
      </trkpt>
      <trkpt lat="47.80767" lon="1.88185">
        <ele>112</ele>
        <time>2017-11-08T14:33:18Z</time>
      </trkpt>
      <trkpt lat="47.80771" lon="1.88189">
        <ele>112</ele>
        <time>2017-11-08T14:33:19Z</time>
      </trkpt>
      <trkpt lat="47.80774" lon="1.88193">
        <ele>112</ele>
        <time>2017-11-08T14:33:20Z</time>
      </trkpt>
      <trkpt lat="47.80776" lon="1.88197">
        <ele>112</ele>
        <time>2017-11-08T14:33:21Z</time>
      </trkpt>
      <trkpt lat="47.8078" lon="1.88203">
        <ele>112</ele>
        <time>2017-11-08T14:33:22Z</time>
      </trkpt>
      <trkpt lat="47.80782" lon="1.88209">
        <ele>112</ele>
        <time>2017-11-08T14:33:23Z</time>
      </trkpt>
      <trkpt lat="47.80788" lon="1.88213">
        <ele>112</ele>
        <time>2017-11-08T14:33:24Z</time>
      </trkpt>
      <trkpt lat="47.80795" lon="1.88219">
        <ele>112</ele>
        <time>2017-11-08T14:33:25Z</time>
      </trkpt>
      <trkpt lat="47.808" lon="1.88224">
        <ele>112</ele>
        <time>2017-11-08T14:33:26Z</time>
      </trkpt>
      <trkpt lat="47.80804" lon="1.88228">
        <ele>112</ele>
        <time>2017-11-08T14:33:27Z</time>
      </trkpt>
      <trkpt lat="47.80808" lon="1.88231">
        <ele>112</ele>
        <time>2017-11-08T14:33:28Z</time>
      </trkpt>
      <trkpt lat="47.80813" lon="1.88235">
        <ele>112</ele>
        <time>2017-11-08T14:33:29Z</time>
      </trkpt>
      <trkpt lat="47.80816" lon="1.88238">
        <ele>112</ele>
        <time>2017-11-08T14:33:30Z</time>
      </trkpt>
      <trkpt lat="47.80819" lon="1.88241">
        <ele>112</ele>
        <time>2017-11-08T14:33:31Z</time>
      </trkpt>
      <trkpt lat="47.80823" lon="1.88244">
        <ele>112</ele>
        <time>2017-11-08T14:33:32Z</time>
      </trkpt>
      <trkpt lat="47.80826" lon="1.88246">
        <ele>112</ele>
        <time>2017-11-08T14:33:33Z</time>
      </trkpt>
      <trkpt lat="47.8083" lon="1.8825">
        <ele>112</ele>
        <time>2017-11-08T14:33:34Z</time>
      </trkpt>
      <trkpt lat="47.80835" lon="1.88254">
        <ele>112</ele>
        <time>2017-11-08T14:33:35Z</time>
      </trkpt>
      <trkpt lat="47.80843" lon="1.88258">
        <ele>112</ele>
        <time>2017-11-08T14:33:36Z</time>
      </trkpt>
      <trkpt lat="47.80849" lon="1.88261">
        <ele>112</ele>
        <time>2017-11-08T14:33:37Z</time>
      </trkpt>
      <trkpt lat="47.80853" lon="1.88265">
        <ele>112</ele>
        <time>2017-11-08T14:33:38Z</time>
      </trkpt>
      <trkpt lat="47.80857" lon="1.88269">
        <ele>112</ele>
        <time>2017-11-08T14:33:39Z</time>
      </trkpt>
      <trkpt lat="47.8086" lon="1.88274">
        <ele>112</ele>
        <time>2017-11-08T14:33:40Z</time>
      </trkpt>
      <trkpt lat="47.80864" lon="1.88277">
        <ele>112</ele>
        <time>2017-11-08T14:33:41Z</time>
      </trkpt>
      <trkpt lat="47.80868" lon="1.88281">
        <ele>112</ele>
        <time>2017-11-08T14:33:42Z</time>
      </trkpt>
      <trkpt lat="47.80872" lon="1.88285">
        <ele>112</ele>
        <time>2017-11-08T14:33:43Z</time>
      </trkpt>
      <trkpt lat="47.80877" lon="1.8829">
        <ele>112</ele>
        <time>2017-11-08T14:33:44Z</time>
      </trkpt>
      <trkpt lat="47.80881" lon="1.88294">
        <ele>112</ele>
        <time>2017-11-08T14:33:45Z</time>
      </trkpt>
      <trkpt lat="47.80884" lon="1.88298">
        <ele>112</ele>
        <time>2017-11-08T14:33:46Z</time>
      </trkpt>
      <trkpt lat="47.80886" lon="1.88302">
        <ele>112</ele>
        <time>2017-11-08T14:33:47Z</time>
      </trkpt>
      <trkpt lat="47.8089" lon="1.88305">
        <ele>112</ele>
        <time>2017-11-08T14:33:48Z</time>
      </trkpt>
      <trkpt lat="47.80892" lon="1.88309">
        <ele>112</ele>
        <time>2017-11-08T14:33:49Z</time>
      </trkpt>
      <trkpt lat="47.80895" lon="1.88313">
        <ele>112</ele>
        <time>2017-11-08T14:33:50Z</time>
      </trkpt>
      <trkpt lat="47.809" lon="1.88318">
        <ele>112</ele>
        <time>2017-11-08T14:33:51Z</time>
      </trkpt>
      <trkpt lat="47.80903" lon="1.88323">
        <ele>112</ele>
        <time>2017-11-08T14:33:52Z</time>
      </trkpt>
      <trkpt lat="47.80907" lon="1.88327">
        <ele>112</ele>
        <time>2017-11-08T14:33:53Z</time>
      </trkpt>
      <trkpt lat="47.8091" lon="1.88331">
        <ele>112</ele>
        <time>2017-11-08T14:33:54Z</time>
      </trkpt>
      <trkpt lat="47.80913" lon="1.88336">
        <ele>112</ele>
        <time>2017-11-08T14:33:55Z</time>
      </trkpt>
      <trkpt lat="47.80917" lon="1.88341">
        <ele>113</ele>
        <time>2017-11-08T14:33:56Z</time>
      </trkpt>
      <trkpt lat="47.80921" lon="1.88346">
        <ele>112</ele>
        <time>2017-11-08T14:33:57Z</time>
      </trkpt>
      <trkpt lat="47.80925" lon="1.88351">
        <ele>112</ele>
        <time>2017-11-08T14:33:58Z</time>
      </trkpt>
      <trkpt lat="47.80929" lon="1.88356">
        <ele>112</ele>
        <time>2017-11-08T14:33:59Z</time>
      </trkpt>
      <trkpt lat="47.80932" lon="1.88361">
        <ele>112</ele>
        <time>2017-11-08T14:34:00Z</time>
      </trkpt>
      <trkpt lat="47.80936" lon="1.88366">
        <ele>112</ele>
        <time>2017-11-08T14:34:01Z</time>
      </trkpt>
      <trkpt lat="47.80941" lon="1.88371">
        <ele>112</ele>
        <time>2017-11-08T14:34:02Z</time>
      </trkpt>
      <trkpt lat="47.80948" lon="1.88377">
        <ele>112</ele>
        <time>2017-11-08T14:34:03Z</time>
      </trkpt>
      <trkpt lat="47.80957" lon="1.88383">
        <ele>112</ele>
        <time>2017-11-08T14:34:04Z</time>
      </trkpt>
      <trkpt lat="47.80962" lon="1.88387">
        <ele>112</ele>
        <time>2017-11-08T14:34:05Z</time>
      </trkpt>
      <trkpt lat="47.80967" lon="1.88391">
        <ele>112</ele>
        <time>2017-11-08T14:34:06Z</time>
      </trkpt>
      <trkpt lat="47.80973" lon="1.88394">
        <ele>112</ele>
        <time>2017-11-08T14:34:07Z</time>
      </trkpt>
      <trkpt lat="47.80977" lon="1.88397">
        <ele>112</ele>
        <time>2017-11-08T14:34:08Z</time>
      </trkpt>
      <trkpt lat="47.80985" lon="1.88397">
        <ele>112</ele>
        <time>2017-11-08T14:34:09Z</time>
      </trkpt>
      <trkpt lat="47.80988" lon="1.88393">
        <ele>112</ele>
        <time>2017-11-08T14:34:11Z</time>
      </trkpt>
      <trkpt lat="47.80988" lon="1.88386">
        <ele>112</ele>
        <time>2017-11-08T14:34:14Z</time>
      </trkpt>
      <trkpt lat="47.80988" lon="1.88382">
        <ele>112</ele>
        <time>2017-11-08T14:34:16Z</time>
      </trkpt>
      <trkpt lat="47.80987" lon="1.88375">
        <ele>112</ele>
        <time>2017-11-08T14:34:18Z</time>
      </trkpt>
      <trkpt lat="47.80986" lon="1.8837">
        <ele>112</ele>
        <time>2017-11-08T14:34:19Z</time>
      </trkpt>
      <trkpt lat="47.80984" lon="1.88364">
        <ele>112</ele>
        <time>2017-11-08T14:34:21Z</time>
      </trkpt>
      <trkpt lat="47.80983" lon="1.88358">
        <ele>112</ele>
        <time>2017-11-08T14:34:22Z</time>
      </trkpt>
      <trkpt lat="47.80981" lon="1.88347">
        <ele>112</ele>
        <time>2017-11-08T14:34:23Z</time>
      </trkpt>
      <trkpt lat="47.80979" lon="1.88337">
        <ele>112</ele>
        <time>2017-11-08T14:34:24Z</time>
      </trkpt>
      <trkpt lat="47.80978" lon="1.88328">
        <ele>111</ele>
        <time>2017-11-08T14:34:25Z</time>
      </trkpt>
      <trkpt lat="47.80975" lon="1.8832">
        <ele>111</ele>
        <time>2017-11-08T14:34:26Z</time>
      </trkpt>
      <trkpt lat="47.80973" lon="1.88311">
        <ele>111</ele>
        <time>2017-11-08T14:34:27Z</time>
      </trkpt>
      <trkpt lat="47.8097" lon="1.88303">
        <ele>111</ele>
        <time>2017-11-08T14:34:28Z</time>
      </trkpt>
      <trkpt lat="47.8097" lon="1.88296">
        <ele>111</ele>
        <time>2017-11-08T14:34:29Z</time>
      </trkpt>
      <trkpt lat="47.80968" lon="1.88288">
        <ele>111</ele>
        <time>2017-11-08T14:34:30Z</time>
      </trkpt>
      <trkpt lat="47.80967" lon="1.88282">
        <ele>110</ele>
        <time>2017-11-08T14:34:31Z</time>
      </trkpt>
      <trkpt lat="47.80964" lon="1.88273">
        <ele>110</ele>
        <time>2017-11-08T14:34:32Z</time>
      </trkpt>
      <trkpt lat="47.80963" lon="1.88265">
        <ele>110</ele>
        <time>2017-11-08T14:34:34Z</time>
      </trkpt>
      <trkpt lat="47.80958" lon="1.88256">
        <ele>110</ele>
        <time>2017-11-08T14:34:35Z</time>
      </trkpt>
      <trkpt lat="47.80956" lon="1.88251">
        <ele>110</ele>
        <time>2017-11-08T14:34:36Z</time>
      </trkpt>
      <trkpt lat="47.80956" lon="1.88247">
        <ele>109</ele>
        <time>2017-11-08T14:34:37Z</time>
      </trkpt>
      <trkpt lat="47.80954" lon="1.88243">
        <ele>109</ele>
        <time>2017-11-08T14:34:38Z</time>
      </trkpt>
      <trkpt lat="47.80952" lon="1.88236">
        <ele>109</ele>
        <time>2017-11-08T14:34:40Z</time>
      </trkpt>
      <trkpt lat="47.80948" lon="1.8823">
        <ele>109</ele>
        <time>2017-11-08T14:34:41Z</time>
      </trkpt>
      <trkpt lat="47.80945" lon="1.88224">
        <ele>109</ele>
        <time>2017-11-08T14:34:42Z</time>
      </trkpt>
      <trkpt lat="47.80942" lon="1.8822">
        <ele>109</ele>
        <time>2017-11-08T14:34:43Z</time>
      </trkpt>
      <trkpt lat="47.80937" lon="1.8821">
        <ele>109</ele>
        <time>2017-11-08T14:34:44Z</time>
      </trkpt>
      <trkpt lat="47.80934" lon="1.88205">
        <ele>109</ele>
        <time>2017-11-08T14:34:45Z</time>
      </trkpt>
      <trkpt lat="47.80929" lon="1.88199">
        <ele>109</ele>
        <time>2017-11-08T14:34:46Z</time>
      </trkpt>
      <trkpt lat="47.80925" lon="1.88193">
        <ele>109</ele>
        <time>2017-11-08T14:34:47Z</time>
      </trkpt>
      <trkpt lat="47.80923" lon="1.88187">
        <ele>109</ele>
        <time>2017-11-08T14:34:48Z</time>
      </trkpt>
      <trkpt lat="47.8092" lon="1.8818">
        <ele>109</ele>
        <time>2017-11-08T14:34:50Z</time>
      </trkpt>
      <trkpt lat="47.8092" lon="1.88174">
        <ele>108</ele>
        <time>2017-11-08T14:34:51Z</time>
      </trkpt>
      <trkpt lat="47.8092" lon="1.88166">
        <ele>108</ele>
        <time>2017-11-08T14:34:52Z</time>
      </trkpt>
      <trkpt lat="47.8092" lon="1.88159">
        <ele>109</ele>
        <time>2017-11-08T14:34:53Z</time>
      </trkpt>
      <trkpt lat="47.8092" lon="1.8815">
        <ele>109</ele>
        <time>2017-11-08T14:34:54Z</time>
      </trkpt>
      <trkpt lat="47.80921" lon="1.88143">
        <ele>109</ele>
        <time>2017-11-08T14:34:55Z</time>
      </trkpt>
      <trkpt lat="47.80922" lon="1.88138">
        <ele>109</ele>
        <time>2017-11-08T14:34:56Z</time>
      </trkpt>
      <trkpt lat="47.80923" lon="1.8813">
        <ele>109</ele>
        <time>2017-11-08T14:34:57Z</time>
      </trkpt>
      <trkpt lat="47.80924" lon="1.88123">
        <ele>109</ele>
        <time>2017-11-08T14:34:58Z</time>
      </trkpt>
      <trkpt lat="47.80924" lon="1.88117">
        <ele>109</ele>
        <time>2017-11-08T14:34:59Z</time>
      </trkpt>
      <trkpt lat="47.80925" lon="1.88111">
        <ele>109</ele>
        <time>2017-11-08T14:35:00Z</time>
      </trkpt>
      <trkpt lat="47.80927" lon="1.88106">
        <ele>109</ele>
        <time>2017-11-08T14:35:01Z</time>
      </trkpt>
      <trkpt lat="47.8093" lon="1.88101">
        <ele>109</ele>
        <time>2017-11-08T14:35:02Z</time>
      </trkpt>
      <trkpt lat="47.80931" lon="1.88097">
        <ele>109</ele>
        <time>2017-11-08T14:35:03Z</time>
      </trkpt>
      <trkpt lat="47.80931" lon="1.88089">
        <ele>109</ele>
        <time>2017-11-08T14:35:04Z</time>
      </trkpt>
      <trkpt lat="47.80931" lon="1.88081">
        <ele>109</ele>
        <time>2017-11-08T14:35:05Z</time>
      </trkpt>
      <trkpt lat="47.8093" lon="1.88075">
        <ele>109</ele>
        <time>2017-11-08T14:35:06Z</time>
      </trkpt>
      <trkpt lat="47.80932" lon="1.88069">
        <ele>110</ele>
        <time>2017-11-08T14:35:07Z</time>
      </trkpt>
      <trkpt lat="47.80932" lon="1.88065">
        <ele>110</ele>
        <time>2017-11-08T14:35:08Z</time>
      </trkpt>
      <trkpt lat="47.80933" lon="1.88059">
        <ele>110</ele>
        <time>2017-11-08T14:35:09Z</time>
      </trkpt>
      <trkpt lat="47.80935" lon="1.88051">
        <ele>110</ele>
        <time>2017-11-08T14:35:10Z</time>
      </trkpt>
      <trkpt lat="47.80936" lon="1.88044">
        <ele>110</ele>
        <time>2017-11-08T14:35:11Z</time>
      </trkpt>
      <trkpt lat="47.80937" lon="1.88039">
        <ele>110</ele>
        <time>2017-11-08T14:35:12Z</time>
      </trkpt>
      <trkpt lat="47.80938" lon="1.88034">
        <ele>110</ele>
        <time>2017-11-08T14:35:13Z</time>
      </trkpt>
      <trkpt lat="47.80939" lon="1.88027">
        <ele>110</ele>
        <time>2017-11-08T14:35:14Z</time>
      </trkpt>
      <trkpt lat="47.80941" lon="1.88021">
        <ele>110</ele>
        <time>2017-11-08T14:35:15Z</time>
      </trkpt>
      <trkpt lat="47.80942" lon="1.88016">
        <ele>110</ele>
        <time>2017-11-08T14:35:16Z</time>
      </trkpt>
      <trkpt lat="47.80942" lon="1.88005">
        <ele>110</ele>
        <time>2017-11-08T14:35:17Z</time>
      </trkpt>
      <trkpt lat="47.80942" lon="1.88">
        <ele>109</ele>
        <time>2017-11-08T14:35:18Z</time>
      </trkpt>
      <trkpt lat="47.80944" lon="1.87991">
        <ele>109</ele>
        <time>2017-11-08T14:35:19Z</time>
      </trkpt>
      <trkpt lat="47.80944" lon="1.87984">
        <ele>109</ele>
        <time>2017-11-08T14:35:20Z</time>
      </trkpt>
      <trkpt lat="47.80945" lon="1.87976">
        <ele>109</ele>
        <time>2017-11-08T14:35:21Z</time>
      </trkpt>
      <trkpt lat="47.80946" lon="1.87971">
        <ele>109</ele>
        <time>2017-11-08T14:35:22Z</time>
      </trkpt>
      <trkpt lat="47.80946" lon="1.87963">
        <ele>109</ele>
        <time>2017-11-08T14:35:23Z</time>
      </trkpt>
      <trkpt lat="47.80947" lon="1.87956">
        <ele>109</ele>
        <time>2017-11-08T14:35:24Z</time>
      </trkpt>
      <trkpt lat="47.80948" lon="1.8795">
        <ele>109</ele>
        <time>2017-11-08T14:35:25Z</time>
      </trkpt>
      <trkpt lat="47.80949" lon="1.87942">
        <ele>109</ele>
        <time>2017-11-08T14:35:26Z</time>
      </trkpt>
      <trkpt lat="47.80951" lon="1.87934">
        <ele>109</ele>
        <time>2017-11-08T14:35:27Z</time>
      </trkpt>
      <trkpt lat="47.80953" lon="1.87923">
        <ele>109</ele>
        <time>2017-11-08T14:35:28Z</time>
      </trkpt>
      <trkpt lat="47.80954" lon="1.87916">
        <ele>109</ele>
        <time>2017-11-08T14:35:29Z</time>
      </trkpt>
      <trkpt lat="47.80955" lon="1.87911">
        <ele>109</ele>
        <time>2017-11-08T14:35:30Z</time>
      </trkpt>
      <trkpt lat="47.80955" lon="1.87907">
        <ele>109</ele>
        <time>2017-11-08T14:35:31Z</time>
      </trkpt>
      <trkpt lat="47.80956" lon="1.87899">
        <ele>109</ele>
        <time>2017-11-08T14:35:32Z</time>
      </trkpt>
      <trkpt lat="47.80957" lon="1.87892">
        <ele>109</ele>
        <time>2017-11-08T14:35:33Z</time>
      </trkpt>
      <trkpt lat="47.80959" lon="1.87885">
        <ele>109</ele>
        <time>2017-11-08T14:35:34Z</time>
      </trkpt>
      <trkpt lat="47.8096" lon="1.87877">
        <ele>109</ele>
        <time>2017-11-08T14:35:35Z</time>
      </trkpt>
      <trkpt lat="47.80961" lon="1.87869">
        <ele>109</ele>
        <time>2017-11-08T14:35:36Z</time>
      </trkpt>
      <trkpt lat="47.80961" lon="1.87861">
        <ele>109</ele>
        <time>2017-11-08T14:35:37Z</time>
      </trkpt>
      <trkpt lat="47.80963" lon="1.87854">
        <ele>109</ele>
        <time>2017-11-08T14:35:38Z</time>
      </trkpt>
      <trkpt lat="47.80964" lon="1.87848">
        <ele>109</ele>
        <time>2017-11-08T14:35:39Z</time>
      </trkpt>
      <trkpt lat="47.80966" lon="1.87841">
        <ele>109</ele>
        <time>2017-11-08T14:35:40Z</time>
      </trkpt>
      <trkpt lat="47.80967" lon="1.87836">
        <ele>109</ele>
        <time>2017-11-08T14:35:41Z</time>
      </trkpt>
      <trkpt lat="47.80968" lon="1.87827">
        <ele>109</ele>
        <time>2017-11-08T14:35:42Z</time>
      </trkpt>
      <trkpt lat="47.80969" lon="1.8782">
        <ele>109</ele>
        <time>2017-11-08T14:35:43Z</time>
      </trkpt>
      <trkpt lat="47.80969" lon="1.87811">
        <ele>109</ele>
        <time>2017-11-08T14:35:44Z</time>
      </trkpt>
      <trkpt lat="47.8097" lon="1.87804">
        <ele>109</ele>
        <time>2017-11-08T14:35:45Z</time>
      </trkpt>
      <trkpt lat="47.8097" lon="1.87797">
        <ele>109</ele>
        <time>2017-11-08T14:35:46Z</time>
      </trkpt>
      <trkpt lat="47.8097" lon="1.87791">
        <ele>109</ele>
        <time>2017-11-08T14:35:47Z</time>
      </trkpt>
      <trkpt lat="47.8097" lon="1.87784">
        <ele>109</ele>
        <time>2017-11-08T14:35:48Z</time>
      </trkpt>
      <trkpt lat="47.8097" lon="1.87777">
        <ele>109</ele>
        <time>2017-11-08T14:35:49Z</time>
      </trkpt>
      <trkpt lat="47.8097" lon="1.87769">
        <ele>109</ele>
        <time>2017-11-08T14:35:50Z</time>
      </trkpt>
      <trkpt lat="47.80972" lon="1.87762">
        <ele>109</ele>
        <time>2017-11-08T14:35:51Z</time>
      </trkpt>
      <trkpt lat="47.80973" lon="1.87756">
        <ele>109</ele>
        <time>2017-11-08T14:35:52Z</time>
      </trkpt>
      <trkpt lat="47.80976" lon="1.8775">
        <ele>108</ele>
        <time>2017-11-08T14:35:53Z</time>
      </trkpt>
      <trkpt lat="47.80978" lon="1.87745">
        <ele>109</ele>
        <time>2017-11-08T14:35:54Z</time>
      </trkpt>
      <trkpt lat="47.80981" lon="1.87738">
        <ele>109</ele>
        <time>2017-11-08T14:35:55Z</time>
      </trkpt>
      <trkpt lat="47.80983" lon="1.87731">
        <ele>109</ele>
        <time>2017-11-08T14:35:56Z</time>
      </trkpt>
      <trkpt lat="47.80985" lon="1.87725">
        <ele>109</ele>
        <time>2017-11-08T14:35:57Z</time>
      </trkpt>
      <trkpt lat="47.80987" lon="1.87721">
        <ele>109</ele>
        <time>2017-11-08T14:35:58Z</time>
      </trkpt>
      <trkpt lat="47.8099" lon="1.87717">
        <ele>109</ele>
        <time>2017-11-08T14:35:59Z</time>
      </trkpt>
      <trkpt lat="47.80993" lon="1.87712">
        <ele>109</ele>
        <time>2017-11-08T14:36:00Z</time>
      </trkpt>
      <trkpt lat="47.80996" lon="1.87709">
        <ele>109</ele>
        <time>2017-11-08T14:36:01Z</time>
      </trkpt>
      <trkpt lat="47.80998" lon="1.87705">
        <ele>109</ele>
        <time>2017-11-08T14:36:02Z</time>
      </trkpt>
      <trkpt lat="47.81002" lon="1.87701">
        <ele>109</ele>
        <time>2017-11-08T14:36:03Z</time>
      </trkpt>
      <trkpt lat="47.81005" lon="1.87697">
        <ele>109</ele>
        <time>2017-11-08T14:36:04Z</time>
      </trkpt>
      <trkpt lat="47.81006" lon="1.87693">
        <ele>109</ele>
        <time>2017-11-08T14:36:05Z</time>
      </trkpt>
      <trkpt lat="47.81009" lon="1.87687">
        <ele>109</ele>
        <time>2017-11-08T14:36:06Z</time>
      </trkpt>
      <trkpt lat="47.81011" lon="1.87683">
        <ele>109</ele>
        <time>2017-11-08T14:36:07Z</time>
      </trkpt>
      <trkpt lat="47.81014" lon="1.87676">
        <ele>109</ele>
        <time>2017-11-08T14:36:08Z</time>
      </trkpt>
      <trkpt lat="47.81018" lon="1.87667">
        <ele>109</ele>
        <time>2017-11-08T14:36:09Z</time>
      </trkpt>
      <trkpt lat="47.81019" lon="1.87662">
        <ele>110</ele>
        <time>2017-11-08T14:36:10Z</time>
      </trkpt>
      <trkpt lat="47.81023" lon="1.87658">
        <ele>109</ele>
        <time>2017-11-08T14:36:11Z</time>
      </trkpt>
      <trkpt lat="47.81025" lon="1.87653">
        <ele>109</ele>
        <time>2017-11-08T14:36:12Z</time>
      </trkpt>
      <trkpt lat="47.81028" lon="1.87649">
        <ele>109</ele>
        <time>2017-11-08T14:36:13Z</time>
      </trkpt>
      <trkpt lat="47.81031" lon="1.87643">
        <ele>109</ele>
        <time>2017-11-08T14:36:14Z</time>
      </trkpt>
      <trkpt lat="47.81036" lon="1.87635">
        <ele>109</ele>
        <time>2017-11-08T14:36:15Z</time>
      </trkpt>
      <trkpt lat="47.81039" lon="1.87631">
        <ele>109</ele>
        <time>2017-11-08T14:36:16Z</time>
      </trkpt>
      <trkpt lat="47.81042" lon="1.87625">
        <ele>109</ele>
        <time>2017-11-08T14:36:17Z</time>
      </trkpt>
      <trkpt lat="47.81046" lon="1.87618">
        <ele>109</ele>
        <time>2017-11-08T14:36:18Z</time>
      </trkpt>
      <trkpt lat="47.81048" lon="1.87612">
        <ele>109</ele>
        <time>2017-11-08T14:36:19Z</time>
      </trkpt>
      <trkpt lat="47.8105" lon="1.87605">
        <ele>109</ele>
        <time>2017-11-08T14:36:20Z</time>
      </trkpt>
      <trkpt lat="47.81051" lon="1.87598">
        <ele>109</ele>
        <time>2017-11-08T14:36:21Z</time>
      </trkpt>
      <trkpt lat="47.81051" lon="1.87591">
        <ele>109</ele>
        <time>2017-11-08T14:36:22Z</time>
      </trkpt>
      <trkpt lat="47.81051" lon="1.87584">
        <ele>109</ele>
        <time>2017-11-08T14:36:23Z</time>
      </trkpt>
      <trkpt lat="47.81052" lon="1.8758">
        <ele>110</ele>
        <time>2017-11-08T14:36:24Z</time>
      </trkpt>
      <trkpt lat="47.81053" lon="1.87575">
        <ele>110</ele>
        <time>2017-11-08T14:36:25Z</time>
      </trkpt>
      <trkpt lat="47.81054" lon="1.87569">
        <ele>110</ele>
        <time>2017-11-08T14:36:26Z</time>
      </trkpt>
      <trkpt lat="47.81055" lon="1.87565">
        <ele>110</ele>
        <time>2017-11-08T14:36:27Z</time>
      </trkpt>
      <trkpt lat="47.81055" lon="1.8756">
        <ele>110</ele>
        <time>2017-11-08T14:36:29Z</time>
      </trkpt>
      <trkpt lat="47.81055" lon="1.87555">
        <ele>110</ele>
        <time>2017-11-08T14:36:31Z</time>
      </trkpt>
      <trkpt lat="47.81055" lon="1.8755">
        <ele>110</ele>
        <time>2017-11-08T14:36:34Z</time>
      </trkpt>
      <trkpt lat="47.81053" lon="1.87544">
        <ele>110</ele>
        <time>2017-11-08T14:36:36Z</time>
      </trkpt>
      <trkpt lat="47.81052" lon="1.8754">
        <ele>110</ele>
        <time>2017-11-08T14:36:37Z</time>
      </trkpt>
      <trkpt lat="47.81049" lon="1.87535">
        <ele>110</ele>
        <time>2017-11-08T14:36:39Z</time>
      </trkpt>
      <trkpt lat="47.81046" lon="1.87528">
        <ele>110</ele>
        <time>2017-11-08T14:36:41Z</time>
      </trkpt>
      <trkpt lat="47.81048" lon="1.87521">
        <ele>110</ele>
        <time>2017-11-08T14:36:43Z</time>
      </trkpt>
      <trkpt lat="47.81049" lon="1.87517">
        <ele>110</ele>
        <time>2017-11-08T14:36:44Z</time>
      </trkpt>
      <trkpt lat="47.81051" lon="1.87513">
        <ele>110</ele>
        <time>2017-11-08T14:36:45Z</time>
      </trkpt>
      <trkpt lat="47.81052" lon="1.87508">
        <ele>110</ele>
        <time>2017-11-08T14:36:46Z</time>
      </trkpt>
      <trkpt lat="47.81054" lon="1.87503">
        <ele>110</ele>
        <time>2017-11-08T14:36:47Z</time>
      </trkpt>
      <trkpt lat="47.81055" lon="1.87498">
        <ele>109</ele>
        <time>2017-11-08T14:36:48Z</time>
      </trkpt>
      <trkpt lat="47.81056" lon="1.87492">
        <ele>109</ele>
        <time>2017-11-08T14:36:49Z</time>
      </trkpt>
      <trkpt lat="47.81058" lon="1.87486">
        <ele>109</ele>
        <time>2017-11-08T14:36:50Z</time>
      </trkpt>
      <trkpt lat="47.8106" lon="1.8748">
        <ele>109</ele>
        <time>2017-11-08T14:36:51Z</time>
      </trkpt>
      <trkpt lat="47.81062" lon="1.87474">
        <ele>109</ele>
        <time>2017-11-08T14:36:52Z</time>
      </trkpt>
      <trkpt lat="47.81064" lon="1.87468">
        <ele>109</ele>
        <time>2017-11-08T14:36:53Z</time>
      </trkpt>
      <trkpt lat="47.81066" lon="1.87462">
        <ele>109</ele>
        <time>2017-11-08T14:36:54Z</time>
      </trkpt>
      <trkpt lat="47.81067" lon="1.87458">
        <ele>109</ele>
        <time>2017-11-08T14:36:55Z</time>
      </trkpt>
      <trkpt lat="47.81069" lon="1.87453">
        <ele>109</ele>
        <time>2017-11-08T14:36:56Z</time>
      </trkpt>
      <trkpt lat="47.8107" lon="1.87448">
        <ele>109</ele>
        <time>2017-11-08T14:36:57Z</time>
      </trkpt>
      <trkpt lat="47.81072" lon="1.87444">
        <ele>109</ele>
        <time>2017-11-08T14:36:58Z</time>
      </trkpt>
      <trkpt lat="47.81073" lon="1.8744">
        <ele>109</ele>
        <time>2017-11-08T14:36:59Z</time>
      </trkpt>
      <trkpt lat="47.81075" lon="1.87436">
        <ele>109</ele>
        <time>2017-11-08T14:37:00Z</time>
      </trkpt>
      <trkpt lat="47.81077" lon="1.87432">
        <ele>109</ele>
        <time>2017-11-08T14:37:01Z</time>
      </trkpt>
      <trkpt lat="47.81079" lon="1.87424">
        <ele>109</ele>
        <time>2017-11-08T14:37:03Z</time>
      </trkpt>
      <trkpt lat="47.81081" lon="1.87419">
        <ele>109</ele>
        <time>2017-11-08T14:37:04Z</time>
      </trkpt>
      <trkpt lat="47.81083" lon="1.87415">
        <ele>109</ele>
        <time>2017-11-08T14:37:05Z</time>
      </trkpt>
      <trkpt lat="47.81084" lon="1.8741">
        <ele>109</ele>
        <time>2017-11-08T14:37:06Z</time>
      </trkpt>
      <trkpt lat="47.81085" lon="1.87405">
        <ele>109</ele>
        <time>2017-11-08T14:37:07Z</time>
      </trkpt>
      <trkpt lat="47.81087" lon="1.87398">
        <ele>110</ele>
        <time>2017-11-08T14:37:08Z</time>
      </trkpt>
      <trkpt lat="47.81088" lon="1.87393">
        <ele>110</ele>
        <time>2017-11-08T14:37:09Z</time>
      </trkpt>
      <trkpt lat="47.8109" lon="1.87386">
        <ele>110</ele>
        <time>2017-11-08T14:37:10Z</time>
      </trkpt>
      <trkpt lat="47.81092" lon="1.87379">
        <ele>110</ele>
        <time>2017-11-08T14:37:11Z</time>
      </trkpt>
      <trkpt lat="47.81094" lon="1.87371">
        <ele>110</ele>
        <time>2017-11-08T14:37:12Z</time>
      </trkpt>
      <trkpt lat="47.81096" lon="1.87363">
        <ele>110</ele>
        <time>2017-11-08T14:37:13Z</time>
      </trkpt>
      <trkpt lat="47.81097" lon="1.87356">
        <ele>110</ele>
        <time>2017-11-08T14:37:14Z</time>
      </trkpt>
      <trkpt lat="47.81098" lon="1.87349">
        <ele>110</ele>
        <time>2017-11-08T14:37:15Z</time>
      </trkpt>
      <trkpt lat="47.811" lon="1.87343">
        <ele>110</ele>
        <time>2017-11-08T14:37:16Z</time>
      </trkpt>
      <trkpt lat="47.81101" lon="1.87337">
        <ele>110</ele>
        <time>2017-11-08T14:37:17Z</time>
      </trkpt>
      <trkpt lat="47.81102" lon="1.87331">
        <ele>110</ele>
        <time>2017-11-08T14:37:18Z</time>
      </trkpt>
      <trkpt lat="47.81103" lon="1.87325">
        <ele>110</ele>
        <time>2017-11-08T14:37:19Z</time>
      </trkpt>
      <trkpt lat="47.81104" lon="1.87318">
        <ele>110</ele>
        <time>2017-11-08T14:37:20Z</time>
      </trkpt>
      <trkpt lat="47.81106" lon="1.87312">
        <ele>110</ele>
        <time>2017-11-08T14:37:21Z</time>
      </trkpt>
      <trkpt lat="47.81107" lon="1.87305">
        <ele>110</ele>
        <time>2017-11-08T14:37:22Z</time>
      </trkpt>
      <trkpt lat="47.81108" lon="1.87297">
        <ele>110</ele>
        <time>2017-11-08T14:37:23Z</time>
      </trkpt>
      <trkpt lat="47.81109" lon="1.87291">
        <ele>110</ele>
        <time>2017-11-08T14:37:24Z</time>
      </trkpt>
      <trkpt lat="47.81111" lon="1.87285">
        <ele>110</ele>
        <time>2017-11-08T14:37:25Z</time>
      </trkpt>
      <trkpt lat="47.81112" lon="1.87278">
        <ele>110</ele>
        <time>2017-11-08T14:37:26Z</time>
      </trkpt>
      <trkpt lat="47.81113" lon="1.87273">
        <ele>110</ele>
        <time>2017-11-08T14:37:27Z</time>
      </trkpt>
      <trkpt lat="47.81115" lon="1.87267">
        <ele>110</ele>
        <time>2017-11-08T14:37:28Z</time>
      </trkpt>
      <trkpt lat="47.81115" lon="1.8726">
        <ele>110</ele>
        <time>2017-11-08T14:37:29Z</time>
      </trkpt>
      <trkpt lat="47.81116" lon="1.87252">
        <ele>110</ele>
        <time>2017-11-08T14:37:31Z</time>
      </trkpt>
      <trkpt lat="47.81115" lon="1.87246">
        <ele>109</ele>
        <time>2017-11-08T14:37:33Z</time>
      </trkpt>
      <trkpt lat="47.81117" lon="1.8724">
        <ele>109</ele>
        <time>2017-11-08T14:37:35Z</time>
      </trkpt>
      <trkpt lat="47.81117" lon="1.87236">
        <ele>109</ele>
        <time>2017-11-08T14:37:38Z</time>
      </trkpt>
      <trkpt lat="47.8112" lon="1.87235">
        <ele>109</ele>
        <time>2017-11-08T14:38:01Z</time>
      </trkpt>
      <trkpt lat="47.8112" lon="1.8724">
        <ele>109</ele>
        <time>2017-11-08T14:38:04Z</time>
      </trkpt>
      <trkpt lat="47.81119" lon="1.87244">
        <ele>109</ele>
        <time>2017-11-08T14:38:07Z</time>
      </trkpt>
      <trkpt lat="47.81118" lon="1.87249">
        <ele>109</ele>
        <time>2017-11-08T14:38:09Z</time>
      </trkpt>
      <trkpt lat="47.81116" lon="1.87252">
        <ele>110</ele>
        <time>2017-11-08T14:38:11Z</time>
      </trkpt>
      <trkpt lat="47.81116" lon="1.87257">
        <ele>110</ele>
        <time>2017-11-08T14:38:14Z</time>
      </trkpt>
      <trkpt lat="47.81116" lon="1.87253">
        <ele>110</ele>
        <time>2017-11-08T14:38:26Z</time>
      </trkpt>
      <trkpt lat="47.81116" lon="1.87249">
        <ele>109</ele>
        <time>2017-11-08T14:38:32Z</time>
      </trkpt>
      <trkpt lat="47.81118" lon="1.87247">
        <ele>109</ele>
        <time>2017-11-08T14:38:38Z</time>
      </trkpt>
      <trkpt lat="47.81121" lon="1.87245">
        <ele>109</ele>
        <time>2017-11-08T14:38:43Z</time>
      </trkpt>
      <trkpt lat="47.81119" lon="1.87247">
        <ele>109</ele>
        <time>2017-11-08T14:39:51Z</time>
      </trkpt>
      <trkpt lat="47.81116" lon="1.8725">
        <ele>109</ele>
        <time>2017-11-08T14:41:03Z</time>
      </trkpt>
      <trkpt lat="47.81117" lon="1.87244">
        <ele>109</ele>
        <time>2017-11-08T14:41:13Z</time>
      </trkpt>
      <trkpt lat="47.81119" lon="1.87238">
        <ele>109</ele>
        <time>2017-11-08T14:41:15Z</time>
      </trkpt>
      <trkpt lat="47.8112" lon="1.87233">
        <ele>109</ele>
        <time>2017-11-08T14:41:17Z</time>
      </trkpt>
      <trkpt lat="47.81122" lon="1.87228">
        <ele>109</ele>
        <time>2017-11-08T14:41:18Z</time>
      </trkpt>
      <trkpt lat="47.81123" lon="1.87223">
        <ele>109</ele>
        <time>2017-11-08T14:41:19Z</time>
      </trkpt>
      <trkpt lat="47.81125" lon="1.87217">
        <ele>109</ele>
        <time>2017-11-08T14:41:20Z</time>
      </trkpt>
      <trkpt lat="47.81127" lon="1.87211">
        <ele>109</ele>
        <time>2017-11-08T14:41:21Z</time>
      </trkpt>
      <trkpt lat="47.81128" lon="1.87205">
        <ele>109</ele>
        <time>2017-11-08T14:41:22Z</time>
      </trkpt>
      <trkpt lat="47.81129" lon="1.872">
        <ele>109</ele>
        <time>2017-11-08T14:41:23Z</time>
      </trkpt>
      <trkpt lat="47.81131" lon="1.87194">
        <ele>109</ele>
        <time>2017-11-08T14:41:24Z</time>
      </trkpt>
      <trkpt lat="47.81132" lon="1.87189">
        <ele>109</ele>
        <time>2017-11-08T14:41:25Z</time>
      </trkpt>
      <trkpt lat="47.81134" lon="1.87185">
        <ele>108</ele>
        <time>2017-11-08T14:41:26Z</time>
      </trkpt>
      <trkpt lat="47.81135" lon="1.87178">
        <ele>108</ele>
        <time>2017-11-08T14:41:27Z</time>
      </trkpt>
      <trkpt lat="47.81137" lon="1.87171">
        <ele>108</ele>
        <time>2017-11-08T14:41:28Z</time>
      </trkpt>
      <trkpt lat="47.81138" lon="1.87166">
        <ele>108</ele>
        <time>2017-11-08T14:41:29Z</time>
      </trkpt>
      <trkpt lat="47.8114" lon="1.87161">
        <ele>108</ele>
        <time>2017-11-08T14:41:30Z</time>
      </trkpt>
      <trkpt lat="47.81142" lon="1.87154">
        <ele>108</ele>
        <time>2017-11-08T14:41:31Z</time>
      </trkpt>
      <trkpt lat="47.81144" lon="1.87147">
        <ele>108</ele>
        <time>2017-11-08T14:41:32Z</time>
      </trkpt>
      <trkpt lat="47.81146" lon="1.87141">
        <ele>108</ele>
        <time>2017-11-08T14:41:33Z</time>
      </trkpt>
      <trkpt lat="47.81148" lon="1.87136">
        <ele>108</ele>
        <time>2017-11-08T14:41:34Z</time>
      </trkpt>
      <trkpt lat="47.8115" lon="1.87131">
        <ele>108</ele>
        <time>2017-11-08T14:41:35Z</time>
      </trkpt>
      <trkpt lat="47.81151" lon="1.87125">
        <ele>108</ele>
        <time>2017-11-08T14:41:36Z</time>
      </trkpt>
      <trkpt lat="47.81153" lon="1.8712">
        <ele>108</ele>
        <time>2017-11-08T14:41:37Z</time>
      </trkpt>
      <trkpt lat="47.81155" lon="1.87115">
        <ele>108</ele>
        <time>2017-11-08T14:41:38Z</time>
      </trkpt>
      <trkpt lat="47.81155" lon="1.87109">
        <ele>108</ele>
        <time>2017-11-08T14:41:39Z</time>
      </trkpt>
      <trkpt lat="47.81157" lon="1.87104">
        <ele>108</ele>
        <time>2017-11-08T14:41:40Z</time>
      </trkpt>
      <trkpt lat="47.81157" lon="1.87099">
        <ele>108</ele>
        <time>2017-11-08T14:41:41Z</time>
      </trkpt>
      <trkpt lat="47.81158" lon="1.87093">
        <ele>108</ele>
        <time>2017-11-08T14:41:42Z</time>
      </trkpt>
      <trkpt lat="47.81159" lon="1.87088">
        <ele>107</ele>
        <time>2017-11-08T14:41:43Z</time>
      </trkpt>
      <trkpt lat="47.8116" lon="1.87082">
        <ele>107</ele>
        <time>2017-11-08T14:41:44Z</time>
      </trkpt>
      <trkpt lat="47.81161" lon="1.87077">
        <ele>107</ele>
        <time>2017-11-08T14:41:45Z</time>
      </trkpt>
      <trkpt lat="47.81162" lon="1.87072">
        <ele>108</ele>
        <time>2017-11-08T14:41:46Z</time>
      </trkpt>
      <trkpt lat="47.81163" lon="1.87068">
        <ele>108</ele>
        <time>2017-11-08T14:41:47Z</time>
      </trkpt>
      <trkpt lat="47.81165" lon="1.8706">
        <ele>108</ele>
        <time>2017-11-08T14:41:49Z</time>
      </trkpt>
      <trkpt lat="47.81166" lon="1.87054">
        <ele>108</ele>
        <time>2017-11-08T14:41:51Z</time>
      </trkpt>
      <trkpt lat="47.81167" lon="1.87051">
        <ele>108</ele>
        <time>2017-11-08T14:42:00Z</time>
      </trkpt>
      <trkpt lat="47.81167" lon="1.87045">
        <ele>108</ele>
        <time>2017-11-08T14:42:13Z</time>
      </trkpt>
      <trkpt lat="47.81167" lon="1.87041">
        <ele>107</ele>
        <time>2017-11-08T14:42:17Z</time>
      </trkpt>
      <trkpt lat="47.81169" lon="1.87037">
        <ele>107</ele>
        <time>2017-11-08T14:42:19Z</time>
      </trkpt>
      <trkpt lat="47.81171" lon="1.87034">
        <ele>107</ele>
        <time>2017-11-08T14:42:31Z</time>
      </trkpt>
      <trkpt lat="47.81173" lon="1.87027">
        <ele>107</ele>
        <time>2017-11-08T14:43:04Z</time>
      </trkpt>
      <trkpt lat="47.81174" lon="1.87023">
        <ele>107</ele>
        <time>2017-11-08T14:43:05Z</time>
      </trkpt>
      <trkpt lat="47.81176" lon="1.8702">
        <ele>108</ele>
        <time>2017-11-08T14:43:06Z</time>
      </trkpt>
      <trkpt lat="47.81177" lon="1.87015">
        <ele>108</ele>
        <time>2017-11-08T14:43:07Z</time>
      </trkpt>
      <trkpt lat="47.81178" lon="1.8701">
        <ele>108</ele>
        <time>2017-11-08T14:43:08Z</time>
      </trkpt>
      <trkpt lat="47.8118" lon="1.87006">
        <ele>108</ele>
        <time>2017-11-08T14:43:09Z</time>
      </trkpt>
      <trkpt lat="47.81181" lon="1.87001">
        <ele>108</ele>
        <time>2017-11-08T14:43:10Z</time>
      </trkpt>
      <trkpt lat="47.81183" lon="1.86993">
        <ele>108</ele>
        <time>2017-11-08T14:43:12Z</time>
      </trkpt>
      <trkpt lat="47.81184" lon="1.86989">
        <ele>108</ele>
        <time>2017-11-08T14:43:13Z</time>
      </trkpt>
      <trkpt lat="47.81185" lon="1.86985">
        <ele>108</ele>
        <time>2017-11-08T14:43:14Z</time>
      </trkpt>
      <trkpt lat="47.81187" lon="1.86979">
        <ele>108</ele>
        <time>2017-11-08T14:43:15Z</time>
      </trkpt>
      <trkpt lat="47.8119" lon="1.86973">
        <ele>108</ele>
        <time>2017-11-08T14:43:16Z</time>
      </trkpt>
      <trkpt lat="47.81192" lon="1.86966">
        <ele>108</ele>
        <time>2017-11-08T14:43:17Z</time>
      </trkpt>
      <trkpt lat="47.81194" lon="1.86959">
        <ele>108</ele>
        <time>2017-11-08T14:43:18Z</time>
      </trkpt>
      <trkpt lat="47.81196" lon="1.86952">
        <ele>108</ele>
        <time>2017-11-08T14:43:19Z</time>
      </trkpt>
      <trkpt lat="47.81198" lon="1.86945">
        <ele>108</ele>
        <time>2017-11-08T14:43:20Z</time>
      </trkpt>
      <trkpt lat="47.81199" lon="1.86939">
        <ele>108</ele>
        <time>2017-11-08T14:43:21Z</time>
      </trkpt>
      <trkpt lat="47.81202" lon="1.86932">
        <ele>108</ele>
        <time>2017-11-08T14:43:22Z</time>
      </trkpt>
      <trkpt lat="47.81204" lon="1.86925">
        <ele>108</ele>
        <time>2017-11-08T14:43:23Z</time>
      </trkpt>
      <trkpt lat="47.81205" lon="1.86919">
        <ele>108</ele>
        <time>2017-11-08T14:43:24Z</time>
      </trkpt>
      <trkpt lat="47.81206" lon="1.86913">
        <ele>109</ele>
        <time>2017-11-08T14:43:25Z</time>
      </trkpt>
      <trkpt lat="47.81208" lon="1.86905">
        <ele>109</ele>
        <time>2017-11-08T14:43:26Z</time>
      </trkpt>
      <trkpt lat="47.81209" lon="1.86898">
        <ele>108</ele>
        <time>2017-11-08T14:43:27Z</time>
      </trkpt>
      <trkpt lat="47.81211" lon="1.86889">
        <ele>108</ele>
        <time>2017-11-08T14:43:28Z</time>
      </trkpt>
      <trkpt lat="47.81212" lon="1.86882">
        <ele>108</ele>
        <time>2017-11-08T14:43:29Z</time>
      </trkpt>
      <trkpt lat="47.81214" lon="1.86874">
        <ele>108</ele>
        <time>2017-11-08T14:43:30Z</time>
      </trkpt>
      <trkpt lat="47.81215" lon="1.86867">
        <ele>108</ele>
        <time>2017-11-08T14:43:31Z</time>
      </trkpt>
      <trkpt lat="47.81217" lon="1.86859">
        <ele>108</ele>
        <time>2017-11-08T14:43:32Z</time>
      </trkpt>
      <trkpt lat="47.81218" lon="1.86851">
        <ele>108</ele>
        <time>2017-11-08T14:43:33Z</time>
      </trkpt>
      <trkpt lat="47.81219" lon="1.86843">
        <ele>108</ele>
        <time>2017-11-08T14:43:34Z</time>
      </trkpt>
      <trkpt lat="47.8122" lon="1.86834">
        <ele>108</ele>
        <time>2017-11-08T14:43:35Z</time>
      </trkpt>
      <trkpt lat="47.8122" lon="1.86825">
        <ele>108</ele>
        <time>2017-11-08T14:43:36Z</time>
      </trkpt>
      <trkpt lat="47.8122" lon="1.86815">
        <ele>108</ele>
        <time>2017-11-08T14:43:37Z</time>
      </trkpt>
      <trkpt lat="47.81218" lon="1.86806">
        <ele>108</ele>
        <time>2017-11-08T14:43:38Z</time>
      </trkpt>
      <trkpt lat="47.81216" lon="1.86794">
        <ele>108</ele>
        <time>2017-11-08T14:43:39Z</time>
      </trkpt>
      <trkpt lat="47.81215" lon="1.86782">
        <ele>108</ele>
        <time>2017-11-08T14:43:40Z</time>
      </trkpt>
      <trkpt lat="47.81213" lon="1.86769">
        <ele>107</ele>
        <time>2017-11-08T14:43:41Z</time>
      </trkpt>
      <trkpt lat="47.8121" lon="1.86755">
        <ele>107</ele>
        <time>2017-11-08T14:43:42Z</time>
      </trkpt>
      <trkpt lat="47.81208" lon="1.86742">
        <ele>107</ele>
        <time>2017-11-08T14:43:43Z</time>
      </trkpt>
      <trkpt lat="47.81206" lon="1.8673">
        <ele>106</ele>
        <time>2017-11-08T14:43:44Z</time>
      </trkpt>
      <trkpt lat="47.81204" lon="1.86717">
        <ele>106</ele>
        <time>2017-11-08T14:43:45Z</time>
      </trkpt>
      <trkpt lat="47.81202" lon="1.86705">
        <ele>106</ele>
        <time>2017-11-08T14:43:46Z</time>
      </trkpt>
      <trkpt lat="47.81199" lon="1.86693">
        <ele>106</ele>
        <time>2017-11-08T14:43:47Z</time>
      </trkpt>
      <trkpt lat="47.81196" lon="1.86682">
        <ele>106</ele>
        <time>2017-11-08T14:43:48Z</time>
      </trkpt>
      <trkpt lat="47.81193" lon="1.86672">
        <ele>106</ele>
        <time>2017-11-08T14:43:49Z</time>
      </trkpt>
      <trkpt lat="47.81191" lon="1.86661">
        <ele>106</ele>
        <time>2017-11-08T14:43:50Z</time>
      </trkpt>
      <trkpt lat="47.81187" lon="1.8665">
        <ele>106</ele>
        <time>2017-11-08T14:43:51Z</time>
      </trkpt>
      <trkpt lat="47.81184" lon="1.8664">
        <ele>106</ele>
        <time>2017-11-08T14:43:52Z</time>
      </trkpt>
      <trkpt lat="47.81181" lon="1.8663">
        <ele>106</ele>
        <time>2017-11-08T14:43:53Z</time>
      </trkpt>
      <trkpt lat="47.81177" lon="1.8662">
        <ele>106</ele>
        <time>2017-11-08T14:43:54Z</time>
      </trkpt>
      <trkpt lat="47.81174" lon="1.8661">
        <ele>106</ele>
        <time>2017-11-08T14:43:55Z</time>
      </trkpt>
      <trkpt lat="47.81171" lon="1.86599">
        <ele>106</ele>
        <time>2017-11-08T14:43:56Z</time>
      </trkpt>
      <trkpt lat="47.81168" lon="1.86589">
        <ele>106</ele>
        <time>2017-11-08T14:43:57Z</time>
      </trkpt>
      <trkpt lat="47.81165" lon="1.86579">
        <ele>106</ele>
        <time>2017-11-08T14:43:58Z</time>
      </trkpt>
      <trkpt lat="47.81162" lon="1.86569">
        <ele>106</ele>
        <time>2017-11-08T14:43:59Z</time>
      </trkpt>
      <trkpt lat="47.8116" lon="1.8656">
        <ele>106</ele>
        <time>2017-11-08T14:44:00Z</time>
      </trkpt>
      <trkpt lat="47.81157" lon="1.8655">
        <ele>107</ele>
        <time>2017-11-08T14:44:01Z</time>
      </trkpt>
      <trkpt lat="47.81155" lon="1.8654">
        <ele>107</ele>
        <time>2017-11-08T14:44:02Z</time>
      </trkpt>
      <trkpt lat="47.81153" lon="1.8653">
        <ele>107</ele>
        <time>2017-11-08T14:44:03Z</time>
      </trkpt>
      <trkpt lat="47.81151" lon="1.86519">
        <ele>107</ele>
        <time>2017-11-08T14:44:04Z</time>
      </trkpt>
      <trkpt lat="47.8115" lon="1.86509">
        <ele>107</ele>
        <time>2017-11-08T14:44:05Z</time>
      </trkpt>
      <trkpt lat="47.81151" lon="1.86498">
        <ele>107</ele>
        <time>2017-11-08T14:44:06Z</time>
      </trkpt>
      <trkpt lat="47.81152" lon="1.86489">
        <ele>107</ele>
        <time>2017-11-08T14:44:07Z</time>
      </trkpt>
      <trkpt lat="47.81155" lon="1.8648">
        <ele>107</ele>
        <time>2017-11-08T14:44:08Z</time>
      </trkpt>
      <trkpt lat="47.81157" lon="1.86472">
        <ele>106</ele>
        <time>2017-11-08T14:44:09Z</time>
      </trkpt>
      <trkpt lat="47.8116" lon="1.86464">
        <ele>106</ele>
        <time>2017-11-08T14:44:10Z</time>
      </trkpt>
      <trkpt lat="47.81162" lon="1.86454">
        <ele>106</ele>
        <time>2017-11-08T14:44:11Z</time>
      </trkpt>
      <trkpt lat="47.81166" lon="1.86446">
        <ele>106</ele>
        <time>2017-11-08T14:44:12Z</time>
      </trkpt>
      <trkpt lat="47.81169" lon="1.86435">
        <ele>105</ele>
        <time>2017-11-08T14:44:13Z</time>
      </trkpt>
      <trkpt lat="47.81172" lon="1.86426">
        <ele>105</ele>
        <time>2017-11-08T14:44:14Z</time>
      </trkpt>
      <trkpt lat="47.81176" lon="1.86416">
        <ele>105</ele>
        <time>2017-11-08T14:44:15Z</time>
      </trkpt>
      <trkpt lat="47.81178" lon="1.86406">
        <ele>105</ele>
        <time>2017-11-08T14:44:16Z</time>
      </trkpt>
      <trkpt lat="47.81181" lon="1.86398">
        <ele>105</ele>
        <time>2017-11-08T14:44:17Z</time>
      </trkpt>
      <trkpt lat="47.81183" lon="1.86391">
        <ele>105</ele>
        <time>2017-11-08T14:44:18Z</time>
      </trkpt>
      <trkpt lat="47.81185" lon="1.86384">
        <ele>105</ele>
        <time>2017-11-08T14:44:19Z</time>
      </trkpt>
      <trkpt lat="47.81187" lon="1.86378">
        <ele>105</ele>
        <time>2017-11-08T14:44:20Z</time>
      </trkpt>
      <trkpt lat="47.81189" lon="1.86371">
        <ele>105</ele>
        <time>2017-11-08T14:44:21Z</time>
      </trkpt>
      <trkpt lat="47.81192" lon="1.86362">
        <ele>105</ele>
        <time>2017-11-08T14:44:22Z</time>
      </trkpt>
      <trkpt lat="47.81195" lon="1.86355">
        <ele>105</ele>
        <time>2017-11-08T14:44:23Z</time>
      </trkpt>
      <trkpt lat="47.81198" lon="1.86348">
        <ele>105</ele>
        <time>2017-11-08T14:44:24Z</time>
      </trkpt>
      <trkpt lat="47.81201" lon="1.86342">
        <ele>105</ele>
        <time>2017-11-08T14:44:25Z</time>
      </trkpt>
      <trkpt lat="47.81203" lon="1.86336">
        <ele>105</ele>
        <time>2017-11-08T14:44:26Z</time>
      </trkpt>
      <trkpt lat="47.81203" lon="1.86331">
        <ele>106</ele>
        <time>2017-11-08T14:44:27Z</time>
      </trkpt>
      <trkpt lat="47.81205" lon="1.86321">
        <ele>106</ele>
        <time>2017-11-08T14:44:28Z</time>
      </trkpt>
      <trkpt lat="47.81206" lon="1.86314">
        <ele>106</ele>
        <time>2017-11-08T14:44:29Z</time>
      </trkpt>
      <trkpt lat="47.81208" lon="1.86307">
        <ele>106</ele>
        <time>2017-11-08T14:44:30Z</time>
      </trkpt>
      <trkpt lat="47.8121" lon="1.86301">
        <ele>106</ele>
        <time>2017-11-08T14:44:31Z</time>
      </trkpt>
      <trkpt lat="47.81212" lon="1.86296">
        <ele>106</ele>
        <time>2017-11-08T14:44:32Z</time>
      </trkpt>
      <trkpt lat="47.81214" lon="1.8629">
        <ele>106</ele>
        <time>2017-11-08T14:44:33Z</time>
      </trkpt>
      <trkpt lat="47.81217" lon="1.86282">
        <ele>106</ele>
        <time>2017-11-08T14:44:34Z</time>
      </trkpt>
      <trkpt lat="47.81219" lon="1.86275">
        <ele>107</ele>
        <time>2017-11-08T14:44:35Z</time>
      </trkpt>
      <trkpt lat="47.81221" lon="1.86269">
        <ele>107</ele>
        <time>2017-11-08T14:44:36Z</time>
      </trkpt>
      <trkpt lat="47.81223" lon="1.86262">
        <ele>107</ele>
        <time>2017-11-08T14:44:37Z</time>
      </trkpt>
      <trkpt lat="47.81225" lon="1.86256">
        <ele>107</ele>
        <time>2017-11-08T14:44:38Z</time>
      </trkpt>
      <trkpt lat="47.81226" lon="1.86251">
        <ele>107</ele>
        <time>2017-11-08T14:44:39Z</time>
      </trkpt>
      <trkpt lat="47.81227" lon="1.86245">
        <ele>108</ele>
        <time>2017-11-08T14:44:40Z</time>
      </trkpt>
      <trkpt lat="47.81228" lon="1.8624">
        <ele>108</ele>
        <time>2017-11-08T14:44:41Z</time>
      </trkpt>
      <trkpt lat="47.8123" lon="1.86235">
        <ele>108</ele>
        <time>2017-11-08T14:44:42Z</time>
      </trkpt>
      <trkpt lat="47.81232" lon="1.8623">
        <ele>108</ele>
        <time>2017-11-08T14:44:43Z</time>
      </trkpt>
      <trkpt lat="47.81234" lon="1.86225">
        <ele>108</ele>
        <time>2017-11-08T14:44:44Z</time>
      </trkpt>
      <trkpt lat="47.81236" lon="1.8622">
        <ele>108</ele>
        <time>2017-11-08T14:44:45Z</time>
      </trkpt>
      <trkpt lat="47.81237" lon="1.86215">
        <ele>108</ele>
        <time>2017-11-08T14:44:46Z</time>
      </trkpt>
      <trkpt lat="47.81239" lon="1.86209">
        <ele>108</ele>
        <time>2017-11-08T14:44:47Z</time>
      </trkpt>
      <trkpt lat="47.81241" lon="1.86203">
        <ele>108</ele>
        <time>2017-11-08T14:44:48Z</time>
      </trkpt>
      <trkpt lat="47.81243" lon="1.86196">
        <ele>108</ele>
        <time>2017-11-08T14:44:49Z</time>
      </trkpt>
      <trkpt lat="47.81245" lon="1.86189">
        <ele>109</ele>
        <time>2017-11-08T14:44:50Z</time>
      </trkpt>
      <trkpt lat="47.81247" lon="1.86181">
        <ele>109</ele>
        <time>2017-11-08T14:44:51Z</time>
      </trkpt>
      <trkpt lat="47.81249" lon="1.86174">
        <ele>109</ele>
        <time>2017-11-08T14:44:52Z</time>
      </trkpt>
      <trkpt lat="47.81251" lon="1.86167">
        <ele>109</ele>
        <time>2017-11-08T14:44:53Z</time>
      </trkpt>
      <trkpt lat="47.81253" lon="1.86162">
        <ele>109</ele>
        <time>2017-11-08T14:44:54Z</time>
      </trkpt>
      <trkpt lat="47.81254" lon="1.86157">
        <ele>108</ele>
        <time>2017-11-08T14:44:55Z</time>
      </trkpt>
      <trkpt lat="47.81256" lon="1.86151">
        <ele>108</ele>
        <time>2017-11-08T14:44:56Z</time>
      </trkpt>
      <trkpt lat="47.81259" lon="1.86145">
        <ele>108</ele>
        <time>2017-11-08T14:44:57Z</time>
      </trkpt>
      <trkpt lat="47.81261" lon="1.86141">
        <ele>108</ele>
        <time>2017-11-08T14:44:58Z</time>
      </trkpt>
      <trkpt lat="47.81263" lon="1.86136">
        <ele>108</ele>
        <time>2017-11-08T14:44:59Z</time>
      </trkpt>
      <trkpt lat="47.81266" lon="1.86132">
        <ele>107</ele>
        <time>2017-11-08T14:45:00Z</time>
      </trkpt>
      <trkpt lat="47.81268" lon="1.86126">
        <ele>107</ele>
        <time>2017-11-08T14:45:01Z</time>
      </trkpt>
      <trkpt lat="47.81269" lon="1.86118">
        <ele>107</ele>
        <time>2017-11-08T14:45:02Z</time>
      </trkpt>
      <trkpt lat="47.81271" lon="1.86112">
        <ele>107</ele>
        <time>2017-11-08T14:45:03Z</time>
      </trkpt>
      <trkpt lat="47.81273" lon="1.86104">
        <ele>107</ele>
        <time>2017-11-08T14:45:04Z</time>
      </trkpt>
      <trkpt lat="47.81274" lon="1.86097">
        <ele>107</ele>
        <time>2017-11-08T14:45:05Z</time>
      </trkpt>
      <trkpt lat="47.81275" lon="1.86092">
        <ele>107</ele>
        <time>2017-11-08T14:45:06Z</time>
      </trkpt>
      <trkpt lat="47.81278" lon="1.86086">
        <ele>107</ele>
        <time>2017-11-08T14:45:07Z</time>
      </trkpt>
      <trkpt lat="47.8128" lon="1.86079">
        <ele>107</ele>
        <time>2017-11-08T14:45:08Z</time>
      </trkpt>
      <trkpt lat="47.81283" lon="1.86072">
        <ele>107</ele>
        <time>2017-11-08T14:45:09Z</time>
      </trkpt>
      <trkpt lat="47.81285" lon="1.86066">
        <ele>107</ele>
        <time>2017-11-08T14:45:10Z</time>
      </trkpt>
      <trkpt lat="47.81288" lon="1.8606">
        <ele>107</ele>
        <time>2017-11-08T14:45:11Z</time>
      </trkpt>
      <trkpt lat="47.8129" lon="1.86055">
        <ele>107</ele>
        <time>2017-11-08T14:45:12Z</time>
      </trkpt>
      <trkpt lat="47.81291" lon="1.86049">
        <ele>107</ele>
        <time>2017-11-08T14:45:13Z</time>
      </trkpt>
      <trkpt lat="47.81292" lon="1.86042">
        <ele>107</ele>
        <time>2017-11-08T14:45:14Z</time>
      </trkpt>
      <trkpt lat="47.81294" lon="1.86035">
        <ele>107</ele>
        <time>2017-11-08T14:45:15Z</time>
      </trkpt>
      <trkpt lat="47.81295" lon="1.86029">
        <ele>107</ele>
        <time>2017-11-08T14:45:16Z</time>
      </trkpt>
      <trkpt lat="47.81295" lon="1.86023">
        <ele>107</ele>
        <time>2017-11-08T14:45:17Z</time>
      </trkpt>
      <trkpt lat="47.81296" lon="1.86016">
        <ele>107</ele>
        <time>2017-11-08T14:45:18Z</time>
      </trkpt>
      <trkpt lat="47.81297" lon="1.86009">
        <ele>107</ele>
        <time>2017-11-08T14:45:19Z</time>
      </trkpt>
      <trkpt lat="47.81299" lon="1.86004">
        <ele>107</ele>
        <time>2017-11-08T14:45:20Z</time>
      </trkpt>
      <trkpt lat="47.813" lon="1.85998">
        <ele>107</ele>
        <time>2017-11-08T14:45:21Z</time>
      </trkpt>
      <trkpt lat="47.81301" lon="1.85992">
        <ele>107</ele>
        <time>2017-11-08T14:45:22Z</time>
      </trkpt>
      <trkpt lat="47.81303" lon="1.85984">
        <ele>107</ele>
        <time>2017-11-08T14:45:23Z</time>
      </trkpt>
      <trkpt lat="47.81304" lon="1.85977">
        <ele>107</ele>
        <time>2017-11-08T14:45:24Z</time>
      </trkpt>
      <trkpt lat="47.81307" lon="1.8597">
        <ele>107</ele>
        <time>2017-11-08T14:45:25Z</time>
      </trkpt>
      <trkpt lat="47.81309" lon="1.85963">
        <ele>107</ele>
        <time>2017-11-08T14:45:26Z</time>
      </trkpt>
      <trkpt lat="47.81311" lon="1.85954">
        <ele>107</ele>
        <time>2017-11-08T14:45:27Z</time>
      </trkpt>
      <trkpt lat="47.81312" lon="1.85944">
        <ele>107</ele>
        <time>2017-11-08T14:45:28Z</time>
      </trkpt>
      <trkpt lat="47.81314" lon="1.85935">
        <ele>107</ele>
        <time>2017-11-08T14:45:29Z</time>
      </trkpt>
      <trkpt lat="47.81316" lon="1.85924">
        <ele>107</ele>
        <time>2017-11-08T14:45:30Z</time>
      </trkpt>
      <trkpt lat="47.81318" lon="1.85913">
        <ele>106</ele>
        <time>2017-11-08T14:45:31Z</time>
      </trkpt>
      <trkpt lat="47.81321" lon="1.85902">
        <ele>106</ele>
        <time>2017-11-08T14:45:32Z</time>
      </trkpt>
      <trkpt lat="47.81324" lon="1.85893">
        <ele>106</ele>
        <time>2017-11-08T14:45:33Z</time>
      </trkpt>
      <trkpt lat="47.81326" lon="1.85886">
        <ele>106</ele>
        <time>2017-11-08T14:45:34Z</time>
      </trkpt>
      <trkpt lat="47.81328" lon="1.85878">
        <ele>106</ele>
        <time>2017-11-08T14:45:35Z</time>
      </trkpt>
      <trkpt lat="47.8133" lon="1.85869">
        <ele>106</ele>
        <time>2017-11-08T14:45:36Z</time>
      </trkpt>
      <trkpt lat="47.81333" lon="1.8586">
        <ele>105</ele>
        <time>2017-11-08T14:45:37Z</time>
      </trkpt>
      <trkpt lat="47.81335" lon="1.85851">
        <ele>106</ele>
        <time>2017-11-08T14:45:38Z</time>
      </trkpt>
      <trkpt lat="47.81338" lon="1.85842">
        <ele>106</ele>
        <time>2017-11-08T14:45:39Z</time>
      </trkpt>
      <trkpt lat="47.8134" lon="1.85833">
        <ele>105</ele>
        <time>2017-11-08T14:45:40Z</time>
      </trkpt>
      <trkpt lat="47.81342" lon="1.85825">
        <ele>105</ele>
        <time>2017-11-08T14:45:41Z</time>
      </trkpt>
      <trkpt lat="47.81346" lon="1.85817">
        <ele>105</ele>
        <time>2017-11-08T14:45:42Z</time>
      </trkpt>
      <trkpt lat="47.81348" lon="1.85811">
        <ele>105</ele>
        <time>2017-11-08T14:45:43Z</time>
      </trkpt>
      <trkpt lat="47.81351" lon="1.85803">
        <ele>105</ele>
        <time>2017-11-08T14:45:44Z</time>
      </trkpt>
      <trkpt lat="47.81353" lon="1.85795">
        <ele>105</ele>
        <time>2017-11-08T14:45:45Z</time>
      </trkpt>
      <trkpt lat="47.81356" lon="1.85788">
        <ele>105</ele>
        <time>2017-11-08T14:45:46Z</time>
      </trkpt>
      <trkpt lat="47.81358" lon="1.85781">
        <ele>105</ele>
        <time>2017-11-08T14:45:47Z</time>
      </trkpt>
      <trkpt lat="47.81361" lon="1.85775">
        <ele>105</ele>
        <time>2017-11-08T14:45:48Z</time>
      </trkpt>
      <trkpt lat="47.81364" lon="1.85768">
        <ele>105</ele>
        <time>2017-11-08T14:45:49Z</time>
      </trkpt>
      <trkpt lat="47.81367" lon="1.85761">
        <ele>105</ele>
        <time>2017-11-08T14:45:50Z</time>
      </trkpt>
      <trkpt lat="47.8137" lon="1.85754">
        <ele>105</ele>
        <time>2017-11-08T14:45:51Z</time>
      </trkpt>
      <trkpt lat="47.81373" lon="1.85748">
        <ele>104</ele>
        <time>2017-11-08T14:45:52Z</time>
      </trkpt>
      <trkpt lat="47.81376" lon="1.8574">
        <ele>104</ele>
        <time>2017-11-08T14:45:53Z</time>
      </trkpt>
      <trkpt lat="47.81378" lon="1.85734">
        <ele>104</ele>
        <time>2017-11-08T14:45:54Z</time>
      </trkpt>
      <trkpt lat="47.81381" lon="1.85727">
        <ele>104</ele>
        <time>2017-11-08T14:45:55Z</time>
      </trkpt>
      <trkpt lat="47.81383" lon="1.85721">
        <ele>104</ele>
        <time>2017-11-08T14:45:56Z</time>
      </trkpt>
      <trkpt lat="47.81386" lon="1.85714">
        <ele>104</ele>
        <time>2017-11-08T14:45:57Z</time>
      </trkpt>
      <trkpt lat="47.81389" lon="1.85708">
        <ele>104</ele>
        <time>2017-11-08T14:45:58Z</time>
      </trkpt>
      <trkpt lat="47.81391" lon="1.857">
        <ele>104</ele>
        <time>2017-11-08T14:45:59Z</time>
      </trkpt>
      <trkpt lat="47.81393" lon="1.85694">
        <ele>104</ele>
        <time>2017-11-08T14:46:00Z</time>
      </trkpt>
      <trkpt lat="47.81396" lon="1.85687">
        <ele>103</ele>
        <time>2017-11-08T14:46:01Z</time>
      </trkpt>
      <trkpt lat="47.81398" lon="1.85681">
        <ele>103</ele>
        <time>2017-11-08T14:46:02Z</time>
      </trkpt>
      <trkpt lat="47.81401" lon="1.85676">
        <ele>103</ele>
        <time>2017-11-08T14:46:03Z</time>
      </trkpt>
      <trkpt lat="47.81405" lon="1.85673">
        <ele>103</ele>
        <time>2017-11-08T14:46:04Z</time>
      </trkpt>
      <trkpt lat="47.81409" lon="1.85672">
        <ele>103</ele>
        <time>2017-11-08T14:46:05Z</time>
      </trkpt>
      <trkpt lat="47.81412" lon="1.8567">
        <ele>103</ele>
        <time>2017-11-08T14:46:06Z</time>
      </trkpt>
      <trkpt lat="47.81415" lon="1.85667">
        <ele>103</ele>
        <time>2017-11-08T14:46:07Z</time>
      </trkpt>
      <trkpt lat="47.81419" lon="1.85664">
        <ele>103</ele>
        <time>2017-11-08T14:46:08Z</time>
      </trkpt>
      <trkpt lat="47.81422" lon="1.85661">
        <ele>103</ele>
        <time>2017-11-08T14:46:09Z</time>
      </trkpt>
      <trkpt lat="47.81426" lon="1.85657">
        <ele>103</ele>
        <time>2017-11-08T14:46:10Z</time>
      </trkpt>
      <trkpt lat="47.81431" lon="1.85652">
        <ele>103</ele>
        <time>2017-11-08T14:46:11Z</time>
      </trkpt>
      <trkpt lat="47.81435" lon="1.85645">
        <ele>102</ele>
        <time>2017-11-08T14:46:12Z</time>
      </trkpt>
      <trkpt lat="47.8144" lon="1.85636">
        <ele>102</ele>
        <time>2017-11-08T14:46:13Z</time>
      </trkpt>
      <trkpt lat="47.81442" lon="1.85628">
        <ele>102</ele>
        <time>2017-11-08T14:46:14Z</time>
      </trkpt>
      <trkpt lat="47.81445" lon="1.8562">
        <ele>102</ele>
        <time>2017-11-08T14:46:15Z</time>
      </trkpt>
      <trkpt lat="47.81447" lon="1.85613">
        <ele>102</ele>
        <time>2017-11-08T14:46:16Z</time>
      </trkpt>
      <trkpt lat="47.81455" lon="1.85607">
        <ele>102</ele>
        <time>2017-11-08T14:46:19Z</time>
      </trkpt>
      <trkpt lat="47.81457" lon="1.85605">
        <ele>102</ele>
        <time>2017-11-08T14:46:20Z</time>
      </trkpt>
      <trkpt lat="47.81459" lon="1.85599">
        <ele>102</ele>
        <time>2017-11-08T14:46:21Z</time>
      </trkpt>
      <trkpt lat="47.81465" lon="1.85569">
        <ele>104</ele>
        <time>2017-11-08T14:46:23Z</time>
      </trkpt>
      <trkpt lat="47.81464" lon="1.85559">
        <ele>104</ele>
        <time>2017-11-08T14:46:24Z</time>
      </trkpt>
      <trkpt lat="47.81461" lon="1.85553">
        <ele>104</ele>
        <time>2017-11-08T14:46:25Z</time>
      </trkpt>
      <trkpt lat="47.8146" lon="1.85548">
        <ele>105</ele>
        <time>2017-11-08T14:46:26Z</time>
      </trkpt>
      <trkpt lat="47.8146" lon="1.85544">
        <ele>105</ele>
        <time>2017-11-08T14:46:27Z</time>
      </trkpt>
      <trkpt lat="47.81462" lon="1.85539">
        <ele>105</ele>
        <time>2017-11-08T14:46:28Z</time>
      </trkpt>
      <trkpt lat="47.81465" lon="1.85535">
        <ele>105</ele>
        <time>2017-11-08T14:46:29Z</time>
      </trkpt>
      <trkpt lat="47.81467" lon="1.8553">
        <ele>105</ele>
        <time>2017-11-08T14:46:30Z</time>
      </trkpt>
      <trkpt lat="47.81469" lon="1.85524">
        <ele>105</ele>
        <time>2017-11-08T14:46:31Z</time>
      </trkpt>
      <trkpt lat="47.81472" lon="1.85519">
        <ele>106</ele>
        <time>2017-11-08T14:46:32Z</time>
      </trkpt>
      <trkpt lat="47.81474" lon="1.85514">
        <ele>106</ele>
        <time>2017-11-08T14:46:33Z</time>
      </trkpt>
      <trkpt lat="47.81477" lon="1.85509">
        <ele>106</ele>
        <time>2017-11-08T14:46:34Z</time>
      </trkpt>
      <trkpt lat="47.8148" lon="1.85503">
        <ele>106</ele>
        <time>2017-11-08T14:46:35Z</time>
      </trkpt>
      <trkpt lat="47.81482" lon="1.85495">
        <ele>107</ele>
        <time>2017-11-08T14:46:36Z</time>
      </trkpt>
      <trkpt lat="47.81483" lon="1.85489">
        <ele>107</ele>
        <time>2017-11-08T14:46:37Z</time>
      </trkpt>
      <trkpt lat="47.81484" lon="1.85482">
        <ele>107</ele>
        <time>2017-11-08T14:46:38Z</time>
      </trkpt>
      <trkpt lat="47.81484" lon="1.85473">
        <ele>107</ele>
        <time>2017-11-08T14:46:39Z</time>
      </trkpt>
      <trkpt lat="47.81485" lon="1.85465">
        <ele>107</ele>
        <time>2017-11-08T14:46:40Z</time>
      </trkpt>
      <trkpt lat="47.81486" lon="1.85459">
        <ele>107</ele>
        <time>2017-11-08T14:46:41Z</time>
      </trkpt>
      <trkpt lat="47.81488" lon="1.85452">
        <ele>107</ele>
        <time>2017-11-08T14:46:42Z</time>
      </trkpt>
      <trkpt lat="47.81489" lon="1.85446">
        <ele>107</ele>
        <time>2017-11-08T14:46:43Z</time>
      </trkpt>
      <trkpt lat="47.81491" lon="1.85439">
        <ele>107</ele>
        <time>2017-11-08T14:46:44Z</time>
      </trkpt>
      <trkpt lat="47.81493" lon="1.85432">
        <ele>106</ele>
        <time>2017-11-08T14:46:45Z</time>
      </trkpt>
      <trkpt lat="47.81495" lon="1.85427">
        <ele>106</ele>
        <time>2017-11-08T14:46:46Z</time>
      </trkpt>
      <trkpt lat="47.81497" lon="1.85418">
        <ele>106</ele>
        <time>2017-11-08T14:46:47Z</time>
      </trkpt>
      <trkpt lat="47.81499" lon="1.8541">
        <ele>106</ele>
        <time>2017-11-08T14:46:48Z</time>
      </trkpt>
      <trkpt lat="47.81501" lon="1.85404">
        <ele>107</ele>
        <time>2017-11-08T14:46:49Z</time>
      </trkpt>
      <trkpt lat="47.81504" lon="1.85397">
        <ele>107</ele>
        <time>2017-11-08T14:46:50Z</time>
      </trkpt>
      <trkpt lat="47.81506" lon="1.8539">
        <ele>107</ele>
        <time>2017-11-08T14:46:51Z</time>
      </trkpt>
      <trkpt lat="47.81508" lon="1.85383">
        <ele>107</ele>
        <time>2017-11-08T14:46:52Z</time>
      </trkpt>
      <trkpt lat="47.8151" lon="1.85376">
        <ele>107</ele>
        <time>2017-11-08T14:46:53Z</time>
      </trkpt>
      <trkpt lat="47.81512" lon="1.85367">
        <ele>107</ele>
        <time>2017-11-08T14:46:54Z</time>
      </trkpt>
      <trkpt lat="47.81516" lon="1.8536">
        <ele>107</ele>
        <time>2017-11-08T14:46:55Z</time>
      </trkpt>
      <trkpt lat="47.81519" lon="1.85348">
        <ele>107</ele>
        <time>2017-11-08T14:46:56Z</time>
      </trkpt>
      <trkpt lat="47.81521" lon="1.8534">
        <ele>107</ele>
        <time>2017-11-08T14:46:57Z</time>
      </trkpt>
      <trkpt lat="47.81523" lon="1.85333">
        <ele>107</ele>
        <time>2017-11-08T14:46:58Z</time>
      </trkpt>
      <trkpt lat="47.81525" lon="1.85326">
        <ele>107</ele>
        <time>2017-11-08T14:46:59Z</time>
      </trkpt>
      <trkpt lat="47.81529" lon="1.85321">
        <ele>107</ele>
        <time>2017-11-08T14:47:00Z</time>
      </trkpt>
      <trkpt lat="47.81532" lon="1.85317">
        <ele>107</ele>
        <time>2017-11-08T14:47:01Z</time>
      </trkpt>
      <trkpt lat="47.81536" lon="1.85312">
        <ele>107</ele>
        <time>2017-11-08T14:47:02Z</time>
      </trkpt>
      <trkpt lat="47.8154" lon="1.85307">
        <ele>107</ele>
        <time>2017-11-08T14:47:03Z</time>
      </trkpt>
      <trkpt lat="47.81543" lon="1.85301">
        <ele>107</ele>
        <time>2017-11-08T14:47:04Z</time>
      </trkpt>
      <trkpt lat="47.81547" lon="1.85296">
        <ele>107</ele>
        <time>2017-11-08T14:47:05Z</time>
      </trkpt>
      <trkpt lat="47.8155" lon="1.85291">
        <ele>107</ele>
        <time>2017-11-08T14:47:06Z</time>
      </trkpt>
      <trkpt lat="47.81554" lon="1.85286">
        <ele>107</ele>
        <time>2017-11-08T14:47:07Z</time>
      </trkpt>
      <trkpt lat="47.81558" lon="1.85281">
        <ele>107</ele>
        <time>2017-11-08T14:47:08Z</time>
      </trkpt>
      <trkpt lat="47.81561" lon="1.85275">
        <ele>107</ele>
        <time>2017-11-08T14:47:09Z</time>
      </trkpt>
      <trkpt lat="47.81564" lon="1.8527">
        <ele>107</ele>
        <time>2017-11-08T14:47:10Z</time>
      </trkpt>
      <trkpt lat="47.81568" lon="1.85263">
        <ele>106</ele>
        <time>2017-11-08T14:47:11Z</time>
      </trkpt>
      <trkpt lat="47.8157" lon="1.85256">
        <ele>106</ele>
        <time>2017-11-08T14:47:12Z</time>
      </trkpt>
      <trkpt lat="47.81572" lon="1.85246">
        <ele>106</ele>
        <time>2017-11-08T14:47:13Z</time>
      </trkpt>
      <trkpt lat="47.81575" lon="1.85237">
        <ele>106</ele>
        <time>2017-11-08T14:47:14Z</time>
      </trkpt>
      <trkpt lat="47.81577" lon="1.85229">
        <ele>106</ele>
        <time>2017-11-08T14:47:15Z</time>
      </trkpt>
      <trkpt lat="47.81579" lon="1.8522">
        <ele>106</ele>
        <time>2017-11-08T14:47:16Z</time>
      </trkpt>
      <trkpt lat="47.8158" lon="1.85213">
        <ele>106</ele>
        <time>2017-11-08T14:47:17Z</time>
      </trkpt>
      <trkpt lat="47.8158" lon="1.85205">
        <ele>107</ele>
        <time>2017-11-08T14:47:18Z</time>
      </trkpt>
      <trkpt lat="47.81583" lon="1.85198">
        <ele>107</ele>
        <time>2017-11-08T14:47:19Z</time>
      </trkpt>
      <trkpt lat="47.81585" lon="1.8519">
        <ele>108</ele>
        <time>2017-11-08T14:47:20Z</time>
      </trkpt>
      <trkpt lat="47.81587" lon="1.85184">
        <ele>108</ele>
        <time>2017-11-08T14:47:21Z</time>
      </trkpt>
      <trkpt lat="47.81589" lon="1.85179">
        <ele>107</ele>
        <time>2017-11-08T14:47:22Z</time>
      </trkpt>
      <trkpt lat="47.81592" lon="1.85174">
        <ele>107</ele>
        <time>2017-11-08T14:47:23Z</time>
      </trkpt>
      <trkpt lat="47.81594" lon="1.85169">
        <ele>107</ele>
        <time>2017-11-08T14:47:24Z</time>
      </trkpt>
      <trkpt lat="47.81595" lon="1.85165">
        <ele>107</ele>
        <time>2017-11-08T14:47:25Z</time>
      </trkpt>
      <trkpt lat="47.81597" lon="1.85161">
        <ele>108</ele>
        <time>2017-11-08T14:47:27Z</time>
      </trkpt>
      <trkpt lat="47.81599" lon="1.85156">
        <ele>108</ele>
        <time>2017-11-08T14:47:31Z</time>
      </trkpt>
      <trkpt lat="47.816" lon="1.8515">
        <ele>108</ele>
        <time>2017-11-08T14:47:34Z</time>
      </trkpt>
      <trkpt lat="47.81602" lon="1.85144">
        <ele>108</ele>
        <time>2017-11-08T14:47:36Z</time>
      </trkpt>
      <trkpt lat="47.81604" lon="1.85136">
        <ele>108</ele>
        <time>2017-11-08T14:47:38Z</time>
      </trkpt>
      <trkpt lat="47.81606" lon="1.85133">
        <ele>108</ele>
        <time>2017-11-08T14:47:39Z</time>
      </trkpt>
      <trkpt lat="47.81608" lon="1.85129">
        <ele>108</ele>
        <time>2017-11-08T14:47:40Z</time>
      </trkpt>
      <trkpt lat="47.81612" lon="1.85122">
        <ele>108</ele>
        <time>2017-11-08T14:47:41Z</time>
      </trkpt>
      <trkpt lat="47.81618" lon="1.85114">
        <ele>108</ele>
        <time>2017-11-08T14:47:42Z</time>
      </trkpt>
      <trkpt lat="47.81621" lon="1.85109">
        <ele>108</ele>
        <time>2017-11-08T14:47:43Z</time>
      </trkpt>
      <trkpt lat="47.81623" lon="1.85105">
        <ele>108</ele>
        <time>2017-11-08T14:47:44Z</time>
      </trkpt>
      <trkpt lat="47.81627" lon="1.85099">
        <ele>108</ele>
        <time>2017-11-08T14:47:45Z</time>
      </trkpt>
      <trkpt lat="47.81629" lon="1.85095">
        <ele>108</ele>
        <time>2017-11-08T14:47:46Z</time>
      </trkpt>
      <trkpt lat="47.8163" lon="1.85087">
        <ele>108</ele>
        <time>2017-11-08T14:47:47Z</time>
      </trkpt>
      <trkpt lat="47.81633" lon="1.85083">
        <ele>107</ele>
        <time>2017-11-08T14:47:48Z</time>
      </trkpt>
      <trkpt lat="47.81635" lon="1.85079">
        <ele>107</ele>
        <time>2017-11-08T14:47:49Z</time>
      </trkpt>
      <trkpt lat="47.81639" lon="1.85076">
        <ele>107</ele>
        <time>2017-11-08T14:47:50Z</time>
      </trkpt>
      <trkpt lat="47.81642" lon="1.85071">
        <ele>107</ele>
        <time>2017-11-08T14:47:51Z</time>
      </trkpt>
      <trkpt lat="47.81646" lon="1.85067">
        <ele>107</ele>
        <time>2017-11-08T14:47:52Z</time>
      </trkpt>
      <trkpt lat="47.81649" lon="1.85062">
        <ele>107</ele>
        <time>2017-11-08T14:47:53Z</time>
      </trkpt>
      <trkpt lat="47.81652" lon="1.85058">
        <ele>107</ele>
        <time>2017-11-08T14:47:54Z</time>
      </trkpt>
      <trkpt lat="47.81654" lon="1.85054">
        <ele>107</ele>
        <time>2017-11-08T14:47:55Z</time>
      </trkpt>
      <trkpt lat="47.81656" lon="1.85051">
        <ele>107</ele>
        <time>2017-11-08T14:47:56Z</time>
      </trkpt>
      <trkpt lat="47.81659" lon="1.85049">
        <ele>107</ele>
        <time>2017-11-08T14:47:57Z</time>
      </trkpt>
      <trkpt lat="47.81661" lon="1.85046">
        <ele>106</ele>
        <time>2017-11-08T14:47:58Z</time>
      </trkpt>
      <trkpt lat="47.81664" lon="1.85043">
        <ele>106</ele>
        <time>2017-11-08T14:47:59Z</time>
      </trkpt>
      <trkpt lat="47.81667" lon="1.8504">
        <ele>107</ele>
        <time>2017-11-08T14:48:00Z</time>
      </trkpt>
      <trkpt lat="47.81671" lon="1.85037">
        <ele>107</ele>
        <time>2017-11-08T14:48:01Z</time>
      </trkpt>
      <trkpt lat="47.81674" lon="1.85033">
        <ele>107</ele>
        <time>2017-11-08T14:48:02Z</time>
      </trkpt>
      <trkpt lat="47.81678" lon="1.85029">
        <ele>107</ele>
        <time>2017-11-08T14:48:03Z</time>
      </trkpt>
      <trkpt lat="47.81683" lon="1.85024">
        <ele>107</ele>
        <time>2017-11-08T14:48:04Z</time>
      </trkpt>
      <trkpt lat="47.81687" lon="1.8502">
        <ele>107</ele>
        <time>2017-11-08T14:48:05Z</time>
      </trkpt>
      <trkpt lat="47.81691" lon="1.85016">
        <ele>107</ele>
        <time>2017-11-08T14:48:06Z</time>
      </trkpt>
      <trkpt lat="47.81696" lon="1.85012">
        <ele>107</ele>
        <time>2017-11-08T14:48:07Z</time>
      </trkpt>
      <trkpt lat="47.81701" lon="1.8501">
        <ele>107</ele>
        <time>2017-11-08T14:48:08Z</time>
      </trkpt>
      <trkpt lat="47.81706" lon="1.85008">
        <ele>107</ele>
        <time>2017-11-08T14:48:09Z</time>
      </trkpt>
      <trkpt lat="47.81711" lon="1.85007">
        <ele>107</ele>
        <time>2017-11-08T14:48:10Z</time>
      </trkpt>
      <trkpt lat="47.81716" lon="1.85006">
        <ele>107</ele>
        <time>2017-11-08T14:48:11Z</time>
      </trkpt>
      <trkpt lat="47.81721" lon="1.85005">
        <ele>107</ele>
        <time>2017-11-08T14:48:12Z</time>
      </trkpt>
      <trkpt lat="47.81725" lon="1.85005">
        <ele>107</ele>
        <time>2017-11-08T14:48:13Z</time>
      </trkpt>
      <trkpt lat="47.8173" lon="1.85004">
        <ele>107</ele>
        <time>2017-11-08T14:48:14Z</time>
      </trkpt>
      <trkpt lat="47.81735" lon="1.85004">
        <ele>107</ele>
        <time>2017-11-08T14:48:15Z</time>
      </trkpt>
      <trkpt lat="47.8174" lon="1.85003">
        <ele>107</ele>
        <time>2017-11-08T14:48:16Z</time>
      </trkpt>
      <trkpt lat="47.81745" lon="1.85003">
        <ele>107</ele>
        <time>2017-11-08T14:48:17Z</time>
      </trkpt>
      <trkpt lat="47.81751" lon="1.85002">
        <ele>107</ele>
        <time>2017-11-08T14:48:18Z</time>
      </trkpt>
      <trkpt lat="47.81757" lon="1.85002">
        <ele>108</ele>
        <time>2017-11-08T14:48:19Z</time>
      </trkpt>
      <trkpt lat="47.81763" lon="1.85001">
        <ele>108</ele>
        <time>2017-11-08T14:48:20Z</time>
      </trkpt>
      <trkpt lat="47.81768" lon="1.85">
        <ele>108</ele>
        <time>2017-11-08T14:48:21Z</time>
      </trkpt>
      <trkpt lat="47.81773" lon="1.84999">
        <ele>108</ele>
        <time>2017-11-08T14:48:22Z</time>
      </trkpt>
      <trkpt lat="47.81778" lon="1.84997">
        <ele>108</ele>
        <time>2017-11-08T14:48:23Z</time>
      </trkpt>
      <trkpt lat="47.81782" lon="1.84996">
        <ele>108</ele>
        <time>2017-11-08T14:48:24Z</time>
      </trkpt>
      <trkpt lat="47.81787" lon="1.84996">
        <ele>108</ele>
        <time>2017-11-08T14:48:25Z</time>
      </trkpt>
      <trkpt lat="47.8179" lon="1.84995">
        <ele>108</ele>
        <time>2017-11-08T14:48:26Z</time>
      </trkpt>
      <trkpt lat="47.81796" lon="1.84994">
        <ele>109</ele>
        <time>2017-11-08T14:48:27Z</time>
      </trkpt>
      <trkpt lat="47.818" lon="1.84994">
        <ele>109</ele>
        <time>2017-11-08T14:48:28Z</time>
      </trkpt>
      <trkpt lat="47.81805" lon="1.84994">
        <ele>109</ele>
        <time>2017-11-08T14:48:29Z</time>
      </trkpt>
      <trkpt lat="47.81809" lon="1.84993">
        <ele>109</ele>
        <time>2017-11-08T14:48:30Z</time>
      </trkpt>
      <trkpt lat="47.81813" lon="1.84992">
        <ele>109</ele>
        <time>2017-11-08T14:48:31Z</time>
      </trkpt>
      <trkpt lat="47.81817" lon="1.84991">
        <ele>109</ele>
        <time>2017-11-08T14:48:32Z</time>
      </trkpt>
      <trkpt lat="47.81821" lon="1.8499">
        <ele>110</ele>
        <time>2017-11-08T14:48:33Z</time>
      </trkpt>
      <trkpt lat="47.81825" lon="1.84989">
        <ele>110</ele>
        <time>2017-11-08T14:48:34Z</time>
      </trkpt>
      <trkpt lat="47.81829" lon="1.84988">
        <ele>110</ele>
        <time>2017-11-08T14:48:35Z</time>
      </trkpt>
      <trkpt lat="47.81834" lon="1.84986">
        <ele>110</ele>
        <time>2017-11-08T14:48:36Z</time>
      </trkpt>
      <trkpt lat="47.81838" lon="1.84985">
        <ele>110</ele>
        <time>2017-11-08T14:48:37Z</time>
      </trkpt>
      <trkpt lat="47.81842" lon="1.84983">
        <ele>110</ele>
        <time>2017-11-08T14:48:38Z</time>
      </trkpt>
      <trkpt lat="47.81846" lon="1.84982">
        <ele>110</ele>
        <time>2017-11-08T14:48:39Z</time>
      </trkpt>
      <trkpt lat="47.8185" lon="1.84981">
        <ele>110</ele>
        <time>2017-11-08T14:48:40Z</time>
      </trkpt>
      <trkpt lat="47.81854" lon="1.8498">
        <ele>110</ele>
        <time>2017-11-08T14:48:41Z</time>
      </trkpt>
      <trkpt lat="47.81859" lon="1.84978">
        <ele>110</ele>
        <time>2017-11-08T14:48:42Z</time>
      </trkpt>
      <trkpt lat="47.81864" lon="1.84975">
        <ele>110</ele>
        <time>2017-11-08T14:48:43Z</time>
      </trkpt>
      <trkpt lat="47.8187" lon="1.84972">
        <ele>110</ele>
        <time>2017-11-08T14:48:44Z</time>
      </trkpt>
      <trkpt lat="47.81876" lon="1.8497">
        <ele>110</ele>
        <time>2017-11-08T14:48:45Z</time>
      </trkpt>
      <trkpt lat="47.81882" lon="1.8497">
        <ele>110</ele>
        <time>2017-11-08T14:48:46Z</time>
      </trkpt>
      <trkpt lat="47.81887" lon="1.84968">
        <ele>110</ele>
        <time>2017-11-08T14:48:47Z</time>
      </trkpt>
      <trkpt lat="47.81893" lon="1.84967">
        <ele>110</ele>
        <time>2017-11-08T14:48:48Z</time>
      </trkpt>
      <trkpt lat="47.81898" lon="1.84965">
        <ele>110</ele>
        <time>2017-11-08T14:48:49Z</time>
      </trkpt>
      <trkpt lat="47.81902" lon="1.84963">
        <ele>110</ele>
        <time>2017-11-08T14:48:50Z</time>
      </trkpt>
      <trkpt lat="47.81908" lon="1.84961">
        <ele>110</ele>
        <time>2017-11-08T14:48:51Z</time>
      </trkpt>
      <trkpt lat="47.81912" lon="1.8496">
        <ele>110</ele>
        <time>2017-11-08T14:48:52Z</time>
      </trkpt>
      <trkpt lat="47.81917" lon="1.84958">
        <ele>109</ele>
        <time>2017-11-08T14:48:53Z</time>
      </trkpt>
      <trkpt lat="47.81923" lon="1.84955">
        <ele>109</ele>
        <time>2017-11-08T14:48:54Z</time>
      </trkpt>
      <trkpt lat="47.81928" lon="1.84953">
        <ele>109</ele>
        <time>2017-11-08T14:48:55Z</time>
      </trkpt>
      <trkpt lat="47.81935" lon="1.8495">
        <ele>108</ele>
        <time>2017-11-08T14:48:56Z</time>
      </trkpt>
      <trkpt lat="47.81941" lon="1.84948">
        <ele>108</ele>
        <time>2017-11-08T14:48:57Z</time>
      </trkpt>
      <trkpt lat="47.81947" lon="1.84945">
        <ele>108</ele>
        <time>2017-11-08T14:48:58Z</time>
      </trkpt>
      <trkpt lat="47.81953" lon="1.84943">
        <ele>108</ele>
        <time>2017-11-08T14:48:59Z</time>
      </trkpt>
      <trkpt lat="47.81959" lon="1.84941">
        <ele>108</ele>
        <time>2017-11-08T14:49:00Z</time>
      </trkpt>
      <trkpt lat="47.81963" lon="1.8494">
        <ele>108</ele>
        <time>2017-11-08T14:49:01Z</time>
      </trkpt>
      <trkpt lat="47.81967" lon="1.84938">
        <ele>108</ele>
        <time>2017-11-08T14:49:02Z</time>
      </trkpt>
      <trkpt lat="47.81972" lon="1.84936">
        <ele>108</ele>
        <time>2017-11-08T14:49:03Z</time>
      </trkpt>
      <trkpt lat="47.81977" lon="1.84934">
        <ele>107</ele>
        <time>2017-11-08T14:49:04Z</time>
      </trkpt>
      <trkpt lat="47.81983" lon="1.84931">
        <ele>107</ele>
        <time>2017-11-08T14:49:05Z</time>
      </trkpt>
      <trkpt lat="47.81989" lon="1.84928">
        <ele>107</ele>
        <time>2017-11-08T14:49:06Z</time>
      </trkpt>
      <trkpt lat="47.81994" lon="1.84926">
        <ele>106</ele>
        <time>2017-11-08T14:49:07Z</time>
      </trkpt>
      <trkpt lat="47.82" lon="1.84923">
        <ele>106</ele>
        <time>2017-11-08T14:49:08Z</time>
      </trkpt>
      <trkpt lat="47.82005" lon="1.84919">
        <ele>106</ele>
        <time>2017-11-08T14:49:09Z</time>
      </trkpt>
      <trkpt lat="47.82009" lon="1.84917">
        <ele>106</ele>
        <time>2017-11-08T14:49:10Z</time>
      </trkpt>
      <trkpt lat="47.82014" lon="1.84913">
        <ele>106</ele>
        <time>2017-11-08T14:49:11Z</time>
      </trkpt>
      <trkpt lat="47.82018" lon="1.84909">
        <ele>106</ele>
        <time>2017-11-08T14:49:12Z</time>
      </trkpt>
      <trkpt lat="47.82023" lon="1.84905">
        <ele>106</ele>
        <time>2017-11-08T14:49:13Z</time>
      </trkpt>
      <trkpt lat="47.82027" lon="1.849">
        <ele>106</ele>
        <time>2017-11-08T14:49:14Z</time>
      </trkpt>
      <trkpt lat="47.82032" lon="1.84895">
        <ele>107</ele>
        <time>2017-11-08T14:49:15Z</time>
      </trkpt>
      <trkpt lat="47.82034" lon="1.8489">
        <ele>107</ele>
        <time>2017-11-08T14:49:16Z</time>
      </trkpt>
      <trkpt lat="47.82038" lon="1.84885">
        <ele>107</ele>
        <time>2017-11-08T14:49:17Z</time>
      </trkpt>
      <trkpt lat="47.82042" lon="1.84877">
        <ele>107</ele>
        <time>2017-11-08T14:49:18Z</time>
      </trkpt>
      <trkpt lat="47.82046" lon="1.84869">
        <ele>107</ele>
        <time>2017-11-08T14:49:19Z</time>
      </trkpt>
      <trkpt lat="47.8205" lon="1.84864">
        <ele>107</ele>
        <time>2017-11-08T14:49:20Z</time>
      </trkpt>
      <trkpt lat="47.82054" lon="1.84858">
        <ele>107</ele>
        <time>2017-11-08T14:49:21Z</time>
      </trkpt>
      <trkpt lat="47.82057" lon="1.84853">
        <ele>107</ele>
        <time>2017-11-08T14:49:22Z</time>
      </trkpt>
      <trkpt lat="47.82061" lon="1.84845">
        <ele>107</ele>
        <time>2017-11-08T14:49:23Z</time>
      </trkpt>
      <trkpt lat="47.82064" lon="1.84838">
        <ele>108</ele>
        <time>2017-11-08T14:49:24Z</time>
      </trkpt>
      <trkpt lat="47.82067" lon="1.84829">
        <ele>107</ele>
        <time>2017-11-08T14:49:25Z</time>
      </trkpt>
      <trkpt lat="47.82068" lon="1.8482">
        <ele>107</ele>
        <time>2017-11-08T14:49:26Z</time>
      </trkpt>
      <trkpt lat="47.82071" lon="1.84811">
        <ele>107</ele>
        <time>2017-11-08T14:49:27Z</time>
      </trkpt>
      <trkpt lat="47.82074" lon="1.84801">
        <ele>106</ele>
        <time>2017-11-08T14:49:28Z</time>
      </trkpt>
      <trkpt lat="47.82076" lon="1.84791">
        <ele>106</ele>
        <time>2017-11-08T14:49:29Z</time>
      </trkpt>
      <trkpt lat="47.82076" lon="1.84784">
        <ele>106</ele>
        <time>2017-11-08T14:49:30Z</time>
      </trkpt>
      <trkpt lat="47.82076" lon="1.84776">
        <ele>106</ele>
        <time>2017-11-08T14:49:31Z</time>
      </trkpt>
      <trkpt lat="47.82077" lon="1.84768">
        <ele>106</ele>
        <time>2017-11-08T14:49:32Z</time>
      </trkpt>
      <trkpt lat="47.82078" lon="1.8476">
        <ele>106</ele>
        <time>2017-11-08T14:49:33Z</time>
      </trkpt>
      <trkpt lat="47.8208" lon="1.84755">
        <ele>106</ele>
        <time>2017-11-08T14:49:34Z</time>
      </trkpt>
      <trkpt lat="47.82082" lon="1.84748">
        <ele>106</ele>
        <time>2017-11-08T14:49:35Z</time>
      </trkpt>
      <trkpt lat="47.82084" lon="1.84742">
        <ele>107</ele>
        <time>2017-11-08T14:49:36Z</time>
      </trkpt>
      <trkpt lat="47.82085" lon="1.84737">
        <ele>107</ele>
        <time>2017-11-08T14:49:37Z</time>
      </trkpt>
      <trkpt lat="47.82087" lon="1.84732">
        <ele>107</ele>
        <time>2017-11-08T14:49:38Z</time>
      </trkpt>
      <trkpt lat="47.82089" lon="1.84728">
        <ele>108</ele>
        <time>2017-11-08T14:49:39Z</time>
      </trkpt>
      <trkpt lat="47.82091" lon="1.84723">
        <ele>108</ele>
        <time>2017-11-08T14:49:41Z</time>
      </trkpt>
      <trkpt lat="47.82092" lon="1.84718">
        <ele>108</ele>
        <time>2017-11-08T14:49:43Z</time>
      </trkpt>
      <trkpt lat="47.82092" lon="1.84713">
        <ele>108</ele>
        <time>2017-11-08T14:49:45Z</time>
      </trkpt>
      <trkpt lat="47.82094" lon="1.84706">
        <ele>108</ele>
        <time>2017-11-08T14:49:47Z</time>
      </trkpt>
      <trkpt lat="47.82096" lon="1.84698">
        <ele>108</ele>
        <time>2017-11-08T14:49:49Z</time>
      </trkpt>
      <trkpt lat="47.82097" lon="1.84694">
        <ele>107</ele>
        <time>2017-11-08T14:49:50Z</time>
      </trkpt>
      <trkpt lat="47.82098" lon="1.84689">
        <ele>107</ele>
        <time>2017-11-08T14:49:51Z</time>
      </trkpt>
      <trkpt lat="47.82099" lon="1.84683">
        <ele>107</ele>
        <time>2017-11-08T14:49:52Z</time>
      </trkpt>
      <trkpt lat="47.821" lon="1.84677">
        <ele>107</ele>
        <time>2017-11-08T14:49:53Z</time>
      </trkpt>
      <trkpt lat="47.82101" lon="1.84672">
        <ele>107</ele>
        <time>2017-11-08T14:49:54Z</time>
      </trkpt>
      <trkpt lat="47.82102" lon="1.84666">
        <ele>106</ele>
        <time>2017-11-08T14:49:55Z</time>
      </trkpt>
      <trkpt lat="47.82103" lon="1.84661">
        <ele>106</ele>
        <time>2017-11-08T14:49:56Z</time>
      </trkpt>
      <trkpt lat="47.82104" lon="1.84655">
        <ele>107</ele>
        <time>2017-11-08T14:49:57Z</time>
      </trkpt>
      <trkpt lat="47.82106" lon="1.84647">
        <ele>107</ele>
        <time>2017-11-08T14:49:58Z</time>
      </trkpt>
      <trkpt lat="47.82108" lon="1.8464">
        <ele>107</ele>
        <time>2017-11-08T14:49:59Z</time>
      </trkpt>
      <trkpt lat="47.82109" lon="1.84632">
        <ele>107</ele>
        <time>2017-11-08T14:50:00Z</time>
      </trkpt>
      <trkpt lat="47.8211" lon="1.84627">
        <ele>107</ele>
        <time>2017-11-08T14:50:01Z</time>
      </trkpt>
      <trkpt lat="47.82111" lon="1.84618">
        <ele>107</ele>
        <time>2017-11-08T14:50:02Z</time>
      </trkpt>
      <trkpt lat="47.82112" lon="1.84613">
        <ele>107</ele>
        <time>2017-11-08T14:50:03Z</time>
      </trkpt>
      <trkpt lat="47.82113" lon="1.84603">
        <ele>107</ele>
        <time>2017-11-08T14:50:04Z</time>
      </trkpt>
      <trkpt lat="47.82115" lon="1.84597">
        <ele>107</ele>
        <time>2017-11-08T14:50:05Z</time>
      </trkpt>
      <trkpt lat="47.82117" lon="1.84589">
        <ele>107</ele>
        <time>2017-11-08T14:50:06Z</time>
      </trkpt>
      <trkpt lat="47.82119" lon="1.84583">
        <ele>107</ele>
        <time>2017-11-08T14:50:07Z</time>
      </trkpt>
      <trkpt lat="47.82121" lon="1.84577">
        <ele>107</ele>
        <time>2017-11-08T14:50:08Z</time>
      </trkpt>
      <trkpt lat="47.82123" lon="1.84572">
        <ele>107</ele>
        <time>2017-11-08T14:50:09Z</time>
      </trkpt>
      <trkpt lat="47.82125" lon="1.84569">
        <ele>107</ele>
        <time>2017-11-08T14:50:10Z</time>
      </trkpt>
      <trkpt lat="47.82128" lon="1.84563">
        <ele>107</ele>
        <time>2017-11-08T14:50:11Z</time>
      </trkpt>
      <trkpt lat="47.8213" lon="1.84557">
        <ele>107</ele>
        <time>2017-11-08T14:50:12Z</time>
      </trkpt>
      <trkpt lat="47.82132" lon="1.84551">
        <ele>107</ele>
        <time>2017-11-08T14:50:13Z</time>
      </trkpt>
      <trkpt lat="47.82134" lon="1.84543">
        <ele>107</ele>
        <time>2017-11-08T14:50:14Z</time>
      </trkpt>
      <trkpt lat="47.82137" lon="1.84536">
        <ele>107</ele>
        <time>2017-11-08T14:50:15Z</time>
      </trkpt>
      <trkpt lat="47.82139" lon="1.84528">
        <ele>107</ele>
        <time>2017-11-08T14:50:16Z</time>
      </trkpt>
      <trkpt lat="47.82141" lon="1.84521">
        <ele>107</ele>
        <time>2017-11-08T14:50:17Z</time>
      </trkpt>
      <trkpt lat="47.82143" lon="1.84518">
        <ele>108</ele>
        <time>2017-11-08T14:50:18Z</time>
      </trkpt>
      <trkpt lat="47.82146" lon="1.84514">
        <ele>108</ele>
        <time>2017-11-08T14:50:19Z</time>
      </trkpt>
      <trkpt lat="47.82149" lon="1.84509">
        <ele>108</ele>
        <time>2017-11-08T14:50:20Z</time>
      </trkpt>
      <trkpt lat="47.82152" lon="1.84502">
        <ele>108</ele>
        <time>2017-11-08T14:50:22Z</time>
      </trkpt>
      <trkpt lat="47.82155" lon="1.84495">
        <ele>107</ele>
        <time>2017-11-08T14:50:23Z</time>
      </trkpt>
      <trkpt lat="47.82157" lon="1.84489">
        <ele>107</ele>
        <time>2017-11-08T14:50:24Z</time>
      </trkpt>
      <trkpt lat="47.82159" lon="1.84483">
        <ele>107</ele>
        <time>2017-11-08T14:50:25Z</time>
      </trkpt>
      <trkpt lat="47.82161" lon="1.84479">
        <ele>107</ele>
        <time>2017-11-08T14:50:26Z</time>
      </trkpt>
      <trkpt lat="47.82162" lon="1.84472">
        <ele>106</ele>
        <time>2017-11-08T14:50:27Z</time>
      </trkpt>
      <trkpt lat="47.82163" lon="1.84467">
        <ele>106</ele>
        <time>2017-11-08T14:50:28Z</time>
      </trkpt>
      <trkpt lat="47.82166" lon="1.8446">
        <ele>106</ele>
        <time>2017-11-08T14:50:29Z</time>
      </trkpt>
      <trkpt lat="47.82167" lon="1.84454">
        <ele>106</ele>
        <time>2017-11-08T14:50:30Z</time>
      </trkpt>
      <trkpt lat="47.82168" lon="1.84447">
        <ele>106</ele>
        <time>2017-11-08T14:50:31Z</time>
      </trkpt>
      <trkpt lat="47.8217" lon="1.8444">
        <ele>105</ele>
        <time>2017-11-08T14:50:32Z</time>
      </trkpt>
      <trkpt lat="47.82171" lon="1.84433">
        <ele>105</ele>
        <time>2017-11-08T14:50:33Z</time>
      </trkpt>
      <trkpt lat="47.82172" lon="1.84427">
        <ele>105</ele>
        <time>2017-11-08T14:50:34Z</time>
      </trkpt>
      <trkpt lat="47.82173" lon="1.84422">
        <ele>105</ele>
        <time>2017-11-08T14:50:35Z</time>
      </trkpt>
      <trkpt lat="47.82174" lon="1.84416">
        <ele>104</ele>
        <time>2017-11-08T14:50:36Z</time>
      </trkpt>
      <trkpt lat="47.82176" lon="1.8441">
        <ele>104</ele>
        <time>2017-11-08T14:50:37Z</time>
      </trkpt>
      <trkpt lat="47.82178" lon="1.84404">
        <ele>104</ele>
        <time>2017-11-08T14:50:38Z</time>
      </trkpt>
      <trkpt lat="47.82179" lon="1.84397">
        <ele>104</ele>
        <time>2017-11-08T14:50:39Z</time>
      </trkpt>
      <trkpt lat="47.82181" lon="1.8439">
        <ele>104</ele>
        <time>2017-11-08T14:50:40Z</time>
      </trkpt>
      <trkpt lat="47.82182" lon="1.84384">
        <ele>104</ele>
        <time>2017-11-08T14:50:41Z</time>
      </trkpt>
      <trkpt lat="47.82184" lon="1.84377">
        <ele>104</ele>
        <time>2017-11-08T14:50:42Z</time>
      </trkpt>
      <trkpt lat="47.82186" lon="1.8437">
        <ele>104</ele>
        <time>2017-11-08T14:50:43Z</time>
      </trkpt>
      <trkpt lat="47.82187" lon="1.84363">
        <ele>104</ele>
        <time>2017-11-08T14:50:44Z</time>
      </trkpt>
      <trkpt lat="47.82189" lon="1.84357">
        <ele>104</ele>
        <time>2017-11-08T14:50:45Z</time>
      </trkpt>
      <trkpt lat="47.82191" lon="1.84351">
        <ele>104</ele>
        <time>2017-11-08T14:50:46Z</time>
      </trkpt>
      <trkpt lat="47.82192" lon="1.84345">
        <ele>104</ele>
        <time>2017-11-08T14:50:47Z</time>
      </trkpt>
      <trkpt lat="47.82194" lon="1.84339">
        <ele>104</ele>
        <time>2017-11-08T14:50:48Z</time>
      </trkpt>
      <trkpt lat="47.82195" lon="1.84333">
        <ele>105</ele>
        <time>2017-11-08T14:50:49Z</time>
      </trkpt>
      <trkpt lat="47.82196" lon="1.84327">
        <ele>105</ele>
        <time>2017-11-08T14:50:50Z</time>
      </trkpt>
      <trkpt lat="47.82197" lon="1.8432">
        <ele>105</ele>
        <time>2017-11-08T14:50:51Z</time>
      </trkpt>
      <trkpt lat="47.82198" lon="1.84315">
        <ele>105</ele>
        <time>2017-11-08T14:50:52Z</time>
      </trkpt>
      <trkpt lat="47.82199" lon="1.8431">
        <ele>106</ele>
        <time>2017-11-08T14:50:53Z</time>
      </trkpt>
      <trkpt lat="47.822" lon="1.84305">
        <ele>106</ele>
        <time>2017-11-08T14:50:54Z</time>
      </trkpt>
      <trkpt lat="47.82202" lon="1.843">
        <ele>106</ele>
        <time>2017-11-08T14:50:55Z</time>
      </trkpt>
      <trkpt lat="47.82204" lon="1.84295">
        <ele>106</ele>
        <time>2017-11-08T14:50:56Z</time>
      </trkpt>
      <trkpt lat="47.82206" lon="1.8429">
        <ele>106</ele>
        <time>2017-11-08T14:50:57Z</time>
      </trkpt>
      <trkpt lat="47.82207" lon="1.84284">
        <ele>106</ele>
        <time>2017-11-08T14:50:58Z</time>
      </trkpt>
      <trkpt lat="47.82209" lon="1.84279">
        <ele>106</ele>
        <time>2017-11-08T14:50:59Z</time>
      </trkpt>
      <trkpt lat="47.8221" lon="1.84273">
        <ele>106</ele>
        <time>2017-11-08T14:51:00Z</time>
      </trkpt>
      <trkpt lat="47.82211" lon="1.84267">
        <ele>107</ele>
        <time>2017-11-08T14:51:01Z</time>
      </trkpt>
      <trkpt lat="47.82212" lon="1.84262">
        <ele>107</ele>
        <time>2017-11-08T14:51:02Z</time>
      </trkpt>
      <trkpt lat="47.82212" lon="1.84256">
        <ele>107</ele>
        <time>2017-11-08T14:51:03Z</time>
      </trkpt>
      <trkpt lat="47.82213" lon="1.84251">
        <ele>107</ele>
        <time>2017-11-08T14:51:04Z</time>
      </trkpt>
      <trkpt lat="47.82213" lon="1.84245">
        <ele>109</ele>
        <time>2017-11-08T14:51:05Z</time>
      </trkpt>
      <trkpt lat="47.82214" lon="1.8424">
        <ele>109</ele>
        <time>2017-11-08T14:51:06Z</time>
      </trkpt>
      <trkpt lat="47.82215" lon="1.84233">
        <ele>109</ele>
        <time>2017-11-08T14:51:07Z</time>
      </trkpt>
      <trkpt lat="47.82215" lon="1.84229">
        <ele>109</ele>
        <time>2017-11-08T14:51:08Z</time>
      </trkpt>
      <trkpt lat="47.82216" lon="1.84223">
        <ele>109</ele>
        <time>2017-11-08T14:51:09Z</time>
      </trkpt>
      <trkpt lat="47.82216" lon="1.84218">
        <ele>109</ele>
        <time>2017-11-08T14:51:10Z</time>
      </trkpt>
      <trkpt lat="47.82216" lon="1.84213">
        <ele>109</ele>
        <time>2017-11-08T14:51:11Z</time>
      </trkpt>
      <trkpt lat="47.82216" lon="1.84209">
        <ele>109</ele>
        <time>2017-11-08T14:51:12Z</time>
      </trkpt>
      <trkpt lat="47.82216" lon="1.84204">
        <ele>109</ele>
        <time>2017-11-08T14:51:13Z</time>
      </trkpt>
      <trkpt lat="47.82215" lon="1.842">
        <ele>109</ele>
        <time>2017-11-08T14:51:14Z</time>
      </trkpt>
      <trkpt lat="47.82215" lon="1.84195">
        <ele>109</ele>
        <time>2017-11-08T14:51:15Z</time>
      </trkpt>
      <trkpt lat="47.82215" lon="1.8419">
        <ele>110</ele>
        <time>2017-11-08T14:51:16Z</time>
      </trkpt>
      <trkpt lat="47.82215" lon="1.84185">
        <ele>110</ele>
        <time>2017-11-08T14:51:17Z</time>
      </trkpt>
      <trkpt lat="47.82216" lon="1.8418">
        <ele>110</ele>
        <time>2017-11-08T14:51:18Z</time>
      </trkpt>
      <trkpt lat="47.82216" lon="1.84177">
        <ele>110</ele>
        <time>2017-11-08T14:51:19Z</time>
      </trkpt>
      <trkpt lat="47.82217" lon="1.84172">
        <ele>110</ele>
        <time>2017-11-08T14:51:20Z</time>
      </trkpt>
      <trkpt lat="47.82217" lon="1.84168">
        <ele>110</ele>
        <time>2017-11-08T14:51:21Z</time>
      </trkpt>
      <trkpt lat="47.82218" lon="1.84164">
        <ele>112</ele>
        <time>2017-11-08T14:51:22Z</time>
      </trkpt>
      <trkpt lat="47.82219" lon="1.84159">
        <ele>112</ele>
        <time>2017-11-08T14:51:23Z</time>
      </trkpt>
      <trkpt lat="47.82219" lon="1.84155">
        <ele>112</ele>
        <time>2017-11-08T14:51:24Z</time>
      </trkpt>
      <trkpt lat="47.8222" lon="1.84148">
        <ele>112</ele>
        <time>2017-11-08T14:51:26Z</time>
      </trkpt>
      <trkpt lat="47.82221" lon="1.84142">
        <ele>112</ele>
        <time>2017-11-08T14:51:28Z</time>
      </trkpt>
      <trkpt lat="47.82224" lon="1.84135">
        <ele>112</ele>
        <time>2017-11-08T14:51:30Z</time>
      </trkpt>
      <trkpt lat="47.82225" lon="1.84131">
        <ele>112</ele>
        <time>2017-11-08T14:51:31Z</time>
      </trkpt>
      <trkpt lat="47.82227" lon="1.84127">
        <ele>112</ele>
        <time>2017-11-08T14:51:32Z</time>
      </trkpt>
      <trkpt lat="47.82229" lon="1.84124">
        <ele>112</ele>
        <time>2017-11-08T14:51:33Z</time>
      </trkpt>
      <trkpt lat="47.82231" lon="1.8412">
        <ele>112</ele>
        <time>2017-11-08T14:51:34Z</time>
      </trkpt>
      <trkpt lat="47.82233" lon="1.84117">
        <ele>112</ele>
        <time>2017-11-08T14:51:35Z</time>
      </trkpt>
      <trkpt lat="47.82236" lon="1.84113">
        <ele>112</ele>
        <time>2017-11-08T14:51:36Z</time>
      </trkpt>
      <trkpt lat="47.82238" lon="1.8411">
        <ele>113</ele>
        <time>2017-11-08T14:51:37Z</time>
      </trkpt>
      <trkpt lat="47.82241" lon="1.84107">
        <ele>113</ele>
        <time>2017-11-08T14:51:38Z</time>
      </trkpt>
      <trkpt lat="47.82244" lon="1.84104">
        <ele>113</ele>
        <time>2017-11-08T14:51:39Z</time>
      </trkpt>
      <trkpt lat="47.82246" lon="1.84101">
        <ele>113</ele>
        <time>2017-11-08T14:51:40Z</time>
      </trkpt>
      <trkpt lat="47.82249" lon="1.84098">
        <ele>114</ele>
        <time>2017-11-08T14:51:41Z</time>
      </trkpt>
      <trkpt lat="47.82252" lon="1.84095">
        <ele>114</ele>
        <time>2017-11-08T14:51:42Z</time>
      </trkpt>
      <trkpt lat="47.82254" lon="1.84092">
        <ele>114</ele>
        <time>2017-11-08T14:51:43Z</time>
      </trkpt>
      <trkpt lat="47.82257" lon="1.84088">
        <ele>114</ele>
        <time>2017-11-08T14:51:44Z</time>
      </trkpt>
      <trkpt lat="47.8226" lon="1.84084">
        <ele>114</ele>
        <time>2017-11-08T14:51:45Z</time>
      </trkpt>
      <trkpt lat="47.82263" lon="1.8408">
        <ele>115</ele>
        <time>2017-11-08T14:51:46Z</time>
      </trkpt>
      <trkpt lat="47.82265" lon="1.84077">
        <ele>114</ele>
        <time>2017-11-08T14:51:47Z</time>
      </trkpt>
      <trkpt lat="47.82268" lon="1.84073">
        <ele>114</ele>
        <time>2017-11-08T14:51:48Z</time>
      </trkpt>
      <trkpt lat="47.82271" lon="1.8407">
        <ele>114</ele>
        <time>2017-11-08T14:51:49Z</time>
      </trkpt>
      <trkpt lat="47.82274" lon="1.84067">
        <ele>114</ele>
        <time>2017-11-08T14:51:50Z</time>
      </trkpt>
      <trkpt lat="47.82277" lon="1.84063">
        <ele>114</ele>
        <time>2017-11-08T14:51:51Z</time>
      </trkpt>
      <trkpt lat="47.8228" lon="1.84059">
        <ele>114</ele>
        <time>2017-11-08T14:51:52Z</time>
      </trkpt>
      <trkpt lat="47.82284" lon="1.84056">
        <ele>114</ele>
        <time>2017-11-08T14:51:53Z</time>
      </trkpt>
      <trkpt lat="47.82287" lon="1.84051">
        <ele>114</ele>
        <time>2017-11-08T14:51:54Z</time>
      </trkpt>
      <trkpt lat="47.8229" lon="1.84047">
        <ele>114</ele>
        <time>2017-11-08T14:51:55Z</time>
      </trkpt>
      <trkpt lat="47.82293" lon="1.84043">
        <ele>114</ele>
        <time>2017-11-08T14:51:56Z</time>
      </trkpt>
      <trkpt lat="47.82297" lon="1.84039">
        <ele>114</ele>
        <time>2017-11-08T14:51:57Z</time>
      </trkpt>
      <trkpt lat="47.823" lon="1.84035">
        <ele>114</ele>
        <time>2017-11-08T14:51:58Z</time>
      </trkpt>
      <trkpt lat="47.82303" lon="1.84031">
        <ele>114</ele>
        <time>2017-11-08T14:51:59Z</time>
      </trkpt>
      <trkpt lat="47.82306" lon="1.84027">
        <ele>114</ele>
        <time>2017-11-08T14:52:00Z</time>
      </trkpt>
      <trkpt lat="47.82309" lon="1.84023">
        <ele>114</ele>
        <time>2017-11-08T14:52:01Z</time>
      </trkpt>
      <trkpt lat="47.82312" lon="1.84018">
        <ele>114</ele>
        <time>2017-11-08T14:52:02Z</time>
      </trkpt>
      <trkpt lat="47.82315" lon="1.84013">
        <ele>114</ele>
        <time>2017-11-08T14:52:03Z</time>
      </trkpt>
      <trkpt lat="47.82318" lon="1.84009">
        <ele>114</ele>
        <time>2017-11-08T14:52:04Z</time>
      </trkpt>
      <trkpt lat="47.82322" lon="1.84004">
        <ele>114</ele>
        <time>2017-11-08T14:52:05Z</time>
      </trkpt>
      <trkpt lat="47.82325" lon="1.84">
        <ele>114</ele>
        <time>2017-11-08T14:52:06Z</time>
      </trkpt>
      <trkpt lat="47.82328" lon="1.83996">
        <ele>114</ele>
        <time>2017-11-08T14:52:07Z</time>
      </trkpt>
      <trkpt lat="47.82331" lon="1.83993">
        <ele>114</ele>
        <time>2017-11-08T14:52:08Z</time>
      </trkpt>
      <trkpt lat="47.82334" lon="1.83989">
        <ele>114</ele>
        <time>2017-11-08T14:52:09Z</time>
      </trkpt>
      <trkpt lat="47.82337" lon="1.83985">
        <ele>114</ele>
        <time>2017-11-08T14:52:10Z</time>
      </trkpt>
      <trkpt lat="47.82341" lon="1.83981">
        <ele>114</ele>
        <time>2017-11-08T14:52:11Z</time>
      </trkpt>
      <trkpt lat="47.82345" lon="1.83977">
        <ele>113</ele>
        <time>2017-11-08T14:52:12Z</time>
      </trkpt>
      <trkpt lat="47.82348" lon="1.83972">
        <ele>113</ele>
        <time>2017-11-08T14:52:13Z</time>
      </trkpt>
      <trkpt lat="47.82351" lon="1.83968">
        <ele>113</ele>
        <time>2017-11-08T14:52:14Z</time>
      </trkpt>
      <trkpt lat="47.82354" lon="1.83963">
        <ele>113</ele>
        <time>2017-11-08T14:52:15Z</time>
      </trkpt>
      <trkpt lat="47.82357" lon="1.83958">
        <ele>113</ele>
        <time>2017-11-08T14:52:16Z</time>
      </trkpt>
      <trkpt lat="47.8236" lon="1.83954">
        <ele>113</ele>
        <time>2017-11-08T14:52:17Z</time>
      </trkpt>
      <trkpt lat="47.82363" lon="1.83949">
        <ele>113</ele>
        <time>2017-11-08T14:52:18Z</time>
      </trkpt>
      <trkpt lat="47.82366" lon="1.83945">
        <ele>113</ele>
        <time>2017-11-08T14:52:19Z</time>
      </trkpt>
      <trkpt lat="47.8237" lon="1.8394">
        <ele>113</ele>
        <time>2017-11-08T14:52:20Z</time>
      </trkpt>
      <trkpt lat="47.82373" lon="1.83935">
        <ele>113</ele>
        <time>2017-11-08T14:52:21Z</time>
      </trkpt>
      <trkpt lat="47.82376" lon="1.83931">
        <ele>113</ele>
        <time>2017-11-08T14:52:22Z</time>
      </trkpt>
      <trkpt lat="47.82379" lon="1.83926">
        <ele>113</ele>
        <time>2017-11-08T14:52:23Z</time>
      </trkpt>
      <trkpt lat="47.82383" lon="1.83922">
        <ele>114</ele>
        <time>2017-11-08T14:52:24Z</time>
      </trkpt>
      <trkpt lat="47.82386" lon="1.83919">
        <ele>114</ele>
        <time>2017-11-08T14:52:25Z</time>
      </trkpt>
      <trkpt lat="47.82389" lon="1.83916">
        <ele>114</ele>
        <time>2017-11-08T14:52:26Z</time>
      </trkpt>
      <trkpt lat="47.82392" lon="1.83912">
        <ele>114</ele>
        <time>2017-11-08T14:52:27Z</time>
      </trkpt>
      <trkpt lat="47.82395" lon="1.83909">
        <ele>114</ele>
        <time>2017-11-08T14:52:28Z</time>
      </trkpt>
      <trkpt lat="47.82398" lon="1.83906">
        <ele>114</ele>
        <time>2017-11-08T14:52:29Z</time>
      </trkpt>
      <trkpt lat="47.82401" lon="1.83904">
        <ele>114</ele>
        <time>2017-11-08T14:52:30Z</time>
      </trkpt>
      <trkpt lat="47.82404" lon="1.83901">
        <ele>114</ele>
        <time>2017-11-08T14:52:32Z</time>
      </trkpt>
      <trkpt lat="47.82407" lon="1.83899">
        <ele>114</ele>
        <time>2017-11-08T14:52:34Z</time>
      </trkpt>
      <trkpt lat="47.82407" lon="1.83895">
        <ele>114</ele>
        <time>2017-11-08T14:53:20Z</time>
      </trkpt>
      <trkpt lat="47.82409" lon="1.83897">
        <ele>114</ele>
        <time>2017-11-08T14:54:43Z</time>
      </trkpt>
      <trkpt lat="47.82407" lon="1.83895">
        <ele>114</ele>
        <time>2017-11-08T14:56:20Z</time>
      </trkpt>
      <trkpt lat="47.82409" lon="1.83892">
        <ele>114</ele>
        <time>2017-11-08T14:56:43Z</time>
      </trkpt>
      <trkpt lat="47.82412" lon="1.83895">
        <ele>114</ele>
        <time>2017-11-08T14:57:31Z</time>
      </trkpt>
      <trkpt lat="47.82415" lon="1.83894">
        <ele>114</ele>
        <time>2017-11-08T14:57:33Z</time>
      </trkpt>
      <trkpt lat="47.82419" lon="1.83892">
        <ele>114</ele>
        <time>2017-11-08T14:57:35Z</time>
      </trkpt>
      <trkpt lat="47.82421" lon="1.8389">
        <ele>114</ele>
        <time>2017-11-08T14:57:37Z</time>
      </trkpt>
      <trkpt lat="47.82424" lon="1.83888">
        <ele>114</ele>
        <time>2017-11-08T14:57:39Z</time>
      </trkpt>
      <trkpt lat="47.82428" lon="1.83886">
        <ele>114</ele>
        <time>2017-11-08T14:57:41Z</time>
      </trkpt>
      <trkpt lat="47.82432" lon="1.83884">
        <ele>114</ele>
        <time>2017-11-08T14:57:43Z</time>
      </trkpt>
      <trkpt lat="47.82435" lon="1.83882">
        <ele>114</ele>
        <time>2017-11-08T14:57:45Z</time>
      </trkpt>
      <trkpt lat="47.82439" lon="1.83878">
        <ele>114</ele>
        <time>2017-11-08T14:57:47Z</time>
      </trkpt>
      <trkpt lat="47.82443" lon="1.83874">
        <ele>114</ele>
        <time>2017-11-08T14:57:49Z</time>
      </trkpt>
      <trkpt lat="47.82448" lon="1.83872">
        <ele>114</ele>
        <time>2017-11-08T14:57:51Z</time>
      </trkpt>
      <trkpt lat="47.82451" lon="1.8387">
        <ele>114</ele>
        <time>2017-11-08T14:57:52Z</time>
      </trkpt>
      <trkpt lat="47.82453" lon="1.83869">
        <ele>114</ele>
        <time>2017-11-08T14:57:53Z</time>
      </trkpt>
      <trkpt lat="47.82456" lon="1.83867">
        <ele>114</ele>
        <time>2017-11-08T14:57:54Z</time>
      </trkpt>
      <trkpt lat="47.82461" lon="1.83865">
        <ele>114</ele>
        <time>2017-11-08T14:57:56Z</time>
      </trkpt>
      <trkpt lat="47.82464" lon="1.83863">
        <ele>114</ele>
        <time>2017-11-08T14:57:57Z</time>
      </trkpt>
      <trkpt lat="47.82466" lon="1.83861">
        <ele>114</ele>
        <time>2017-11-08T14:57:58Z</time>
      </trkpt>
      <trkpt lat="47.82469" lon="1.83858">
        <ele>114</ele>
        <time>2017-11-08T14:57:59Z</time>
      </trkpt>
      <trkpt lat="47.82471" lon="1.83856">
        <ele>114</ele>
        <time>2017-11-08T14:58:00Z</time>
      </trkpt>
      <trkpt lat="47.82474" lon="1.83854">
        <ele>114</ele>
        <time>2017-11-08T14:58:01Z</time>
      </trkpt>
      <trkpt lat="47.82477" lon="1.83851">
        <ele>114</ele>
        <time>2017-11-08T14:58:02Z</time>
      </trkpt>
      <trkpt lat="47.82479" lon="1.83848">
        <ele>114</ele>
        <time>2017-11-08T14:58:03Z</time>
      </trkpt>
      <trkpt lat="47.82483" lon="1.83844">
        <ele>113</ele>
        <time>2017-11-08T14:58:04Z</time>
      </trkpt>
      <trkpt lat="47.82486" lon="1.8384">
        <ele>113</ele>
        <time>2017-11-08T14:58:05Z</time>
      </trkpt>
      <trkpt lat="47.82489" lon="1.83836">
        <ele>113</ele>
        <time>2017-11-08T14:58:06Z</time>
      </trkpt>
      <trkpt lat="47.82493" lon="1.83833">
        <ele>113</ele>
        <time>2017-11-08T14:58:07Z</time>
      </trkpt>
      <trkpt lat="47.82497" lon="1.83829">
        <ele>113</ele>
        <time>2017-11-08T14:58:08Z</time>
      </trkpt>
      <trkpt lat="47.82501" lon="1.83826">
        <ele>113</ele>
        <time>2017-11-08T14:58:09Z</time>
      </trkpt>
      <trkpt lat="47.82505" lon="1.83823">
        <ele>113</ele>
        <time>2017-11-08T14:58:10Z</time>
      </trkpt>
      <trkpt lat="47.82508" lon="1.83821">
        <ele>113</ele>
        <time>2017-11-08T14:58:11Z</time>
      </trkpt>
      <trkpt lat="47.82512" lon="1.83817">
        <ele>112</ele>
        <time>2017-11-08T14:58:12Z</time>
      </trkpt>
      <trkpt lat="47.82515" lon="1.83814">
        <ele>112</ele>
        <time>2017-11-08T14:58:13Z</time>
      </trkpt>
      <trkpt lat="47.82518" lon="1.83812">
        <ele>112</ele>
        <time>2017-11-08T14:58:14Z</time>
      </trkpt>
      <trkpt lat="47.82522" lon="1.8381">
        <ele>112</ele>
        <time>2017-11-08T14:58:15Z</time>
      </trkpt>
      <trkpt lat="47.82527" lon="1.83809">
        <ele>112</ele>
        <time>2017-11-08T14:58:16Z</time>
      </trkpt>
      <trkpt lat="47.8253" lon="1.83807">
        <ele>112</ele>
        <time>2017-11-08T14:58:17Z</time>
      </trkpt>
      <trkpt lat="47.82534" lon="1.83803">
        <ele>112</ele>
        <time>2017-11-08T14:58:18Z</time>
      </trkpt>
      <trkpt lat="47.82538" lon="1.838">
        <ele>112</ele>
        <time>2017-11-08T14:58:19Z</time>
      </trkpt>
      <trkpt lat="47.82541" lon="1.83796">
        <ele>112</ele>
        <time>2017-11-08T14:58:20Z</time>
      </trkpt>
      <trkpt lat="47.82544" lon="1.83792">
        <ele>112</ele>
        <time>2017-11-08T14:58:21Z</time>
      </trkpt>
      <trkpt lat="47.82548" lon="1.83788">
        <ele>112</ele>
        <time>2017-11-08T14:58:22Z</time>
      </trkpt>
      <trkpt lat="47.82552" lon="1.83786">
        <ele>112</ele>
        <time>2017-11-08T14:58:23Z</time>
      </trkpt>
      <trkpt lat="47.82555" lon="1.83784">
        <ele>112</ele>
        <time>2017-11-08T14:58:24Z</time>
      </trkpt>
      <trkpt lat="47.82558" lon="1.8378">
        <ele>112</ele>
        <time>2017-11-08T14:58:25Z</time>
      </trkpt>
      <trkpt lat="47.82562" lon="1.83778">
        <ele>112</ele>
        <time>2017-11-08T14:58:26Z</time>
      </trkpt>
      <trkpt lat="47.82566" lon="1.83775">
        <ele>112</ele>
        <time>2017-11-08T14:58:27Z</time>
      </trkpt>
      <trkpt lat="47.8257" lon="1.83771">
        <ele>112</ele>
        <time>2017-11-08T14:58:28Z</time>
      </trkpt>
      <trkpt lat="47.82577" lon="1.83765">
        <ele>112</ele>
        <time>2017-11-08T14:58:29Z</time>
      </trkpt>
      <trkpt lat="47.82582" lon="1.83759">
        <ele>112</ele>
        <time>2017-11-08T14:58:31Z</time>
      </trkpt>
      <trkpt lat="47.82588" lon="1.83754">
        <ele>112</ele>
        <time>2017-11-08T14:58:32Z</time>
      </trkpt>
      <trkpt lat="47.82593" lon="1.83752">
        <ele>111</ele>
        <time>2017-11-08T14:58:33Z</time>
      </trkpt>
      <trkpt lat="47.82598" lon="1.83749">
        <ele>111</ele>
        <time>2017-11-08T14:58:34Z</time>
      </trkpt>
      <trkpt lat="47.8261" lon="1.83746">
        <ele>111</ele>
        <time>2017-11-08T14:58:35Z</time>
      </trkpt>
      <trkpt lat="47.82615" lon="1.83742">
        <ele>111</ele>
        <time>2017-11-08T14:58:36Z</time>
      </trkpt>
      <trkpt lat="47.82621" lon="1.83738">
        <ele>111</ele>
        <time>2017-11-08T14:58:37Z</time>
      </trkpt>
      <trkpt lat="47.82626" lon="1.83735">
        <ele>111</ele>
        <time>2017-11-08T14:58:38Z</time>
      </trkpt>
      <trkpt lat="47.82632" lon="1.83732">
        <ele>111</ele>
        <time>2017-11-08T14:58:39Z</time>
      </trkpt>
      <trkpt lat="47.82636" lon="1.83729">
        <ele>111</ele>
        <time>2017-11-08T14:58:40Z</time>
      </trkpt>
      <trkpt lat="47.82639" lon="1.83726">
        <ele>111</ele>
        <time>2017-11-08T14:58:41Z</time>
      </trkpt>
      <trkpt lat="47.82644" lon="1.83722">
        <ele>111</ele>
        <time>2017-11-08T14:58:42Z</time>
      </trkpt>
      <trkpt lat="47.82648" lon="1.83718">
        <ele>111</ele>
        <time>2017-11-08T14:58:43Z</time>
      </trkpt>
      <trkpt lat="47.82653" lon="1.83714">
        <ele>111</ele>
        <time>2017-11-08T14:58:44Z</time>
      </trkpt>
      <trkpt lat="47.82658" lon="1.8371">
        <ele>111</ele>
        <time>2017-11-08T14:58:45Z</time>
      </trkpt>
      <trkpt lat="47.82663" lon="1.83706">
        <ele>111</ele>
        <time>2017-11-08T14:58:46Z</time>
      </trkpt>
      <trkpt lat="47.82668" lon="1.83702">
        <ele>110</ele>
        <time>2017-11-08T14:58:47Z</time>
      </trkpt>
      <trkpt lat="47.82674" lon="1.83698">
        <ele>110</ele>
        <time>2017-11-08T14:58:48Z</time>
      </trkpt>
      <trkpt lat="47.82681" lon="1.83695">
        <ele>110</ele>
        <time>2017-11-08T14:58:49Z</time>
      </trkpt>
      <trkpt lat="47.82687" lon="1.83692">
        <ele>110</ele>
        <time>2017-11-08T14:58:50Z</time>
      </trkpt>
      <trkpt lat="47.82692" lon="1.83689">
        <ele>110</ele>
        <time>2017-11-08T14:58:51Z</time>
      </trkpt>
      <trkpt lat="47.82697" lon="1.83685">
        <ele>110</ele>
        <time>2017-11-08T14:58:52Z</time>
      </trkpt>
      <trkpt lat="47.82701" lon="1.83682">
        <ele>110</ele>
        <time>2017-11-08T14:58:53Z</time>
      </trkpt>
      <trkpt lat="47.82705" lon="1.83679">
        <ele>110</ele>
        <time>2017-11-08T14:58:54Z</time>
      </trkpt>
      <trkpt lat="47.8271" lon="1.83677">
        <ele>110</ele>
        <time>2017-11-08T14:58:55Z</time>
      </trkpt>
      <trkpt lat="47.82714" lon="1.83675">
        <ele>110</ele>
        <time>2017-11-08T14:58:56Z</time>
      </trkpt>
      <trkpt lat="47.82717" lon="1.83672">
        <ele>110</ele>
        <time>2017-11-08T14:58:57Z</time>
      </trkpt>
      <trkpt lat="47.82722" lon="1.83669">
        <ele>110</ele>
        <time>2017-11-08T14:58:58Z</time>
      </trkpt>
      <trkpt lat="47.82726" lon="1.83666">
        <ele>111</ele>
        <time>2017-11-08T14:58:59Z</time>
      </trkpt>
      <trkpt lat="47.82731" lon="1.83662">
        <ele>111</ele>
        <time>2017-11-08T14:59:00Z</time>
      </trkpt>
      <trkpt lat="47.82735" lon="1.83658">
        <ele>111</ele>
        <time>2017-11-08T14:59:01Z</time>
      </trkpt>
      <trkpt lat="47.82739" lon="1.83654">
        <ele>111</ele>
        <time>2017-11-08T14:59:02Z</time>
      </trkpt>
      <trkpt lat="47.82751" lon="1.83651">
        <ele>109</ele>
        <time>2017-11-08T14:59:03Z</time>
      </trkpt>
      <trkpt lat="47.82757" lon="1.83646">
        <ele>109</ele>
        <time>2017-11-08T14:59:04Z</time>
      </trkpt>
      <trkpt lat="47.82763" lon="1.83643">
        <ele>109</ele>
        <time>2017-11-08T14:59:05Z</time>
      </trkpt>
      <trkpt lat="47.82769" lon="1.83639">
        <ele>108</ele>
        <time>2017-11-08T14:59:06Z</time>
      </trkpt>
      <trkpt lat="47.82773" lon="1.83635">
        <ele>108</ele>
        <time>2017-11-08T14:59:07Z</time>
      </trkpt>
      <trkpt lat="47.82777" lon="1.83627">
        <ele>108</ele>
        <time>2017-11-08T14:59:08Z</time>
      </trkpt>
      <trkpt lat="47.82783" lon="1.83621">
        <ele>108</ele>
        <time>2017-11-08T14:59:09Z</time>
      </trkpt>
      <trkpt lat="47.82786" lon="1.83614">
        <ele>108</ele>
        <time>2017-11-08T14:59:10Z</time>
      </trkpt>
      <trkpt lat="47.82792" lon="1.83611">
        <ele>107</ele>
        <time>2017-11-08T14:59:11Z</time>
      </trkpt>
      <trkpt lat="47.82799" lon="1.83608">
        <ele>107</ele>
        <time>2017-11-08T14:59:12Z</time>
      </trkpt>
      <trkpt lat="47.82804" lon="1.83604">
        <ele>107</ele>
        <time>2017-11-08T14:59:13Z</time>
      </trkpt>
      <trkpt lat="47.8281" lon="1.83601">
        <ele>106</ele>
        <time>2017-11-08T14:59:14Z</time>
      </trkpt>
      <trkpt lat="47.8282" lon="1.83594">
        <ele>105</ele>
        <time>2017-11-08T14:59:15Z</time>
      </trkpt>
      <trkpt lat="47.82823" lon="1.83592">
        <ele>105</ele>
        <time>2017-11-08T14:59:16Z</time>
      </trkpt>
      <trkpt lat="47.82827" lon="1.8359">
        <ele>104</ele>
        <time>2017-11-08T14:59:17Z</time>
      </trkpt>
      <trkpt lat="47.82829" lon="1.83585">
        <ele>104</ele>
        <time>2017-11-08T14:59:18Z</time>
      </trkpt>
      <trkpt lat="47.82831" lon="1.83583">
        <ele>103</ele>
        <time>2017-11-08T14:59:19Z</time>
      </trkpt>
      <trkpt lat="47.82833" lon="1.83578">
        <ele>104</ele>
        <time>2017-11-08T14:59:21Z</time>
      </trkpt>
      <trkpt lat="47.82833" lon="1.83573">
        <ele>104</ele>
        <time>2017-11-08T14:59:23Z</time>
      </trkpt>
      <trkpt lat="47.8283" lon="1.83574">
        <ele>104</ele>
        <time>2017-11-08T14:59:26Z</time>
      </trkpt>
      <trkpt lat="47.82829" lon="1.83578">
        <ele>104</ele>
        <time>2017-11-08T14:59:28Z</time>
      </trkpt>
      <trkpt lat="47.82829" lon="1.83582">
        <ele>104</ele>
        <time>2017-11-08T14:59:30Z</time>
      </trkpt>
      <trkpt lat="47.82832" lon="1.83586">
        <ele>104</ele>
        <time>2017-11-08T14:59:34Z</time>
      </trkpt>
      <trkpt lat="47.82835" lon="1.83582">
        <ele>103</ele>
        <time>2017-11-08T14:59:37Z</time>
      </trkpt>
      <trkpt lat="47.82832" lon="1.83581">
        <ele>104</ele>
        <time>2017-11-08T15:00:22Z</time>
      </trkpt>
      <trkpt lat="47.82829" lon="1.83578">
        <ele>104</ele>
        <time>2017-11-08T15:00:25Z</time>
      </trkpt>
      <trkpt lat="47.82826" lon="1.83574">
        <ele>105</ele>
        <time>2017-11-08T15:00:27Z</time>
      </trkpt>
      <trkpt lat="47.82823" lon="1.8357">
        <ele>105</ele>
        <time>2017-11-08T15:00:29Z</time>
      </trkpt>
      <trkpt lat="47.82822" lon="1.83566">
        <ele>105</ele>
        <time>2017-11-08T15:00:31Z</time>
      </trkpt>
      <trkpt lat="47.82821" lon="1.83561">
        <ele>106</ele>
        <time>2017-11-08T15:00:33Z</time>
      </trkpt>
      <trkpt lat="47.82818" lon="1.83555">
        <ele>106</ele>
        <time>2017-11-08T15:00:35Z</time>
      </trkpt>
      <trkpt lat="47.82817" lon="1.83551">
        <ele>106</ele>
        <time>2017-11-08T15:00:36Z</time>
      </trkpt>
      <trkpt lat="47.82815" lon="1.83547">
        <ele>106</ele>
        <time>2017-11-08T15:00:37Z</time>
      </trkpt>
      <trkpt lat="47.82813" lon="1.83538">
        <ele>106</ele>
        <time>2017-11-08T15:00:39Z</time>
      </trkpt>
      <trkpt lat="47.82811" lon="1.83533">
        <ele>106</ele>
        <time>2017-11-08T15:00:40Z</time>
      </trkpt>
      <trkpt lat="47.82809" lon="1.83527">
        <ele>106</ele>
        <time>2017-11-08T15:00:41Z</time>
      </trkpt>
      <trkpt lat="47.82806" lon="1.83519">
        <ele>106</ele>
        <time>2017-11-08T15:00:42Z</time>
      </trkpt>
      <trkpt lat="47.82802" lon="1.8351">
        <ele>106</ele>
        <time>2017-11-08T15:00:43Z</time>
      </trkpt>
      <trkpt lat="47.82799" lon="1.83502">
        <ele>107</ele>
        <time>2017-11-08T15:00:44Z</time>
      </trkpt>
      <trkpt lat="47.82796" lon="1.83495">
        <ele>107</ele>
        <time>2017-11-08T15:00:45Z</time>
      </trkpt>
      <trkpt lat="47.82793" lon="1.83488">
        <ele>107</ele>
        <time>2017-11-08T15:00:46Z</time>
      </trkpt>
      <trkpt lat="47.8279" lon="1.83482">
        <ele>107</ele>
        <time>2017-11-08T15:00:47Z</time>
      </trkpt>
      <trkpt lat="47.82788" lon="1.83477">
        <ele>107</ele>
        <time>2017-11-08T15:00:48Z</time>
      </trkpt>
      <trkpt lat="47.82786" lon="1.83471">
        <ele>107</ele>
        <time>2017-11-08T15:00:49Z</time>
      </trkpt>
      <trkpt lat="47.82784" lon="1.83464">
        <ele>107</ele>
        <time>2017-11-08T15:00:50Z</time>
      </trkpt>
      <trkpt lat="47.82782" lon="1.83457">
        <ele>108</ele>
        <time>2017-11-08T15:00:51Z</time>
      </trkpt>
      <trkpt lat="47.82779" lon="1.83449">
        <ele>108</ele>
        <time>2017-11-08T15:00:52Z</time>
      </trkpt>
      <trkpt lat="47.82777" lon="1.83442">
        <ele>108</ele>
        <time>2017-11-08T15:00:53Z</time>
      </trkpt>
      <trkpt lat="47.82774" lon="1.83435">
        <ele>108</ele>
        <time>2017-11-08T15:00:54Z</time>
      </trkpt>
      <trkpt lat="47.82772" lon="1.83428">
        <ele>108</ele>
        <time>2017-11-08T15:00:55Z</time>
      </trkpt>
      <trkpt lat="47.8277" lon="1.83421">
        <ele>108</ele>
        <time>2017-11-08T15:00:56Z</time>
      </trkpt>
      <trkpt lat="47.82767" lon="1.83414">
        <ele>108</ele>
        <time>2017-11-08T15:00:57Z</time>
      </trkpt>
      <trkpt lat="47.82765" lon="1.83408">
        <ele>108</ele>
        <time>2017-11-08T15:00:58Z</time>
      </trkpt>
      <trkpt lat="47.82763" lon="1.83403">
        <ele>108</ele>
        <time>2017-11-08T15:00:59Z</time>
      </trkpt>
      <trkpt lat="47.8276" lon="1.83395">
        <ele>108</ele>
        <time>2017-11-08T15:01:00Z</time>
      </trkpt>
      <trkpt lat="47.82758" lon="1.8339">
        <ele>108</ele>
        <time>2017-11-08T15:01:01Z</time>
      </trkpt>
      <trkpt lat="47.82755" lon="1.83382">
        <ele>107</ele>
        <time>2017-11-08T15:01:02Z</time>
      </trkpt>
      <trkpt lat="47.82753" lon="1.83376">
        <ele>107</ele>
        <time>2017-11-08T15:01:03Z</time>
      </trkpt>
      <trkpt lat="47.8275" lon="1.83369">
        <ele>107</ele>
        <time>2017-11-08T15:01:04Z</time>
      </trkpt>
      <trkpt lat="47.82748" lon="1.83363">
        <ele>108</ele>
        <time>2017-11-08T15:01:05Z</time>
      </trkpt>
      <trkpt lat="47.82746" lon="1.83357">
        <ele>108</ele>
        <time>2017-11-08T15:01:06Z</time>
      </trkpt>
      <trkpt lat="47.82744" lon="1.83351">
        <ele>108</ele>
        <time>2017-11-08T15:01:07Z</time>
      </trkpt>
      <trkpt lat="47.82741" lon="1.83344">
        <ele>108</ele>
        <time>2017-11-08T15:01:08Z</time>
      </trkpt>
      <trkpt lat="47.82739" lon="1.83338">
        <ele>108</ele>
        <time>2017-11-08T15:01:09Z</time>
      </trkpt>
      <trkpt lat="47.82736" lon="1.83332">
        <ele>107</ele>
        <time>2017-11-08T15:01:10Z</time>
      </trkpt>
      <trkpt lat="47.82734" lon="1.83326">
        <ele>107</ele>
        <time>2017-11-08T15:01:11Z</time>
      </trkpt>
      <trkpt lat="47.82733" lon="1.83321">
        <ele>107</ele>
        <time>2017-11-08T15:01:12Z</time>
      </trkpt>
      <trkpt lat="47.8273" lon="1.83314">
        <ele>107</ele>
        <time>2017-11-08T15:01:13Z</time>
      </trkpt>
      <trkpt lat="47.82728" lon="1.83306">
        <ele>107</ele>
        <time>2017-11-08T15:01:14Z</time>
      </trkpt>
      <trkpt lat="47.82724" lon="1.83298">
        <ele>107</ele>
        <time>2017-11-08T15:01:15Z</time>
      </trkpt>
      <trkpt lat="47.82721" lon="1.8329">
        <ele>107</ele>
        <time>2017-11-08T15:01:16Z</time>
      </trkpt>
      <trkpt lat="47.82718" lon="1.83281">
        <ele>107</ele>
        <time>2017-11-08T15:01:17Z</time>
      </trkpt>
      <trkpt lat="47.82715" lon="1.83271">
        <ele>107</ele>
        <time>2017-11-08T15:01:18Z</time>
      </trkpt>
      <trkpt lat="47.82712" lon="1.83262">
        <ele>106</ele>
        <time>2017-11-08T15:01:19Z</time>
      </trkpt>
      <trkpt lat="47.8271" lon="1.83254">
        <ele>106</ele>
        <time>2017-11-08T15:01:20Z</time>
      </trkpt>
      <trkpt lat="47.82707" lon="1.83245">
        <ele>105</ele>
        <time>2017-11-08T15:01:21Z</time>
      </trkpt>
      <trkpt lat="47.82704" lon="1.83236">
        <ele>104</ele>
        <time>2017-11-08T15:01:22Z</time>
      </trkpt>
      <trkpt lat="47.82701" lon="1.83227">
        <ele>104</ele>
        <time>2017-11-08T15:01:23Z</time>
      </trkpt>
      <trkpt lat="47.82697" lon="1.83219">
        <ele>104</ele>
        <time>2017-11-08T15:01:24Z</time>
      </trkpt>
      <trkpt lat="47.82694" lon="1.83211">
        <ele>104</ele>
        <time>2017-11-08T15:01:25Z</time>
      </trkpt>
      <trkpt lat="47.82691" lon="1.83203">
        <ele>104</ele>
        <time>2017-11-08T15:01:26Z</time>
      </trkpt>
      <trkpt lat="47.82689" lon="1.83195">
        <ele>104</ele>
        <time>2017-11-08T15:01:27Z</time>
      </trkpt>
      <trkpt lat="47.82686" lon="1.83188">
        <ele>103</ele>
        <time>2017-11-08T15:01:28Z</time>
      </trkpt>
      <trkpt lat="47.82683" lon="1.8318">
        <ele>103</ele>
        <time>2017-11-08T15:01:29Z</time>
      </trkpt>
      <trkpt lat="47.82681" lon="1.83173">
        <ele>103</ele>
        <time>2017-11-08T15:01:30Z</time>
      </trkpt>
      <trkpt lat="47.82678" lon="1.83167">
        <ele>103</ele>
        <time>2017-11-08T15:01:31Z</time>
      </trkpt>
      <trkpt lat="47.82676" lon="1.8316">
        <ele>102</ele>
        <time>2017-11-08T15:01:32Z</time>
      </trkpt>
      <trkpt lat="47.82674" lon="1.83154">
        <ele>102</ele>
        <time>2017-11-08T15:01:33Z</time>
      </trkpt>
      <trkpt lat="47.82673" lon="1.83148">
        <ele>102</ele>
        <time>2017-11-08T15:01:34Z</time>
      </trkpt>
      <trkpt lat="47.82672" lon="1.83142">
        <ele>102</ele>
        <time>2017-11-08T15:01:35Z</time>
      </trkpt>
      <trkpt lat="47.82669" lon="1.83136">
        <ele>102</ele>
        <time>2017-11-08T15:01:36Z</time>
      </trkpt>
      <trkpt lat="47.82669" lon="1.83132">
        <ele>102</ele>
        <time>2017-11-08T15:01:37Z</time>
      </trkpt>
      <trkpt lat="47.82667" lon="1.83124">
        <ele>102</ele>
        <time>2017-11-08T15:01:39Z</time>
      </trkpt>
      <trkpt lat="47.82666" lon="1.83119">
        <ele>99</ele>
        <time>2017-11-08T15:01:40Z</time>
      </trkpt>
      <trkpt lat="47.82665" lon="1.83114">
        <ele>99</ele>
        <time>2017-11-08T15:01:41Z</time>
      </trkpt>
      <trkpt lat="47.82664" lon="1.83109">
        <ele>99</ele>
        <time>2017-11-08T15:01:42Z</time>
      </trkpt>
      <trkpt lat="47.82663" lon="1.83102">
        <ele>99</ele>
        <time>2017-11-08T15:01:43Z</time>
      </trkpt>
      <trkpt lat="47.82662" lon="1.83096">
        <ele>99</ele>
        <time>2017-11-08T15:01:44Z</time>
      </trkpt>
      <trkpt lat="47.8266" lon="1.8309">
        <ele>100</ele>
        <time>2017-11-08T15:01:45Z</time>
      </trkpt>
      <trkpt lat="47.8266" lon="1.83083">
        <ele>100</ele>
        <time>2017-11-08T15:01:46Z</time>
      </trkpt>
      <trkpt lat="47.82659" lon="1.83077">
        <ele>100</ele>
        <time>2017-11-08T15:01:47Z</time>
      </trkpt>
      <trkpt lat="47.82658" lon="1.83071">
        <ele>99</ele>
        <time>2017-11-08T15:01:48Z</time>
      </trkpt>
      <trkpt lat="47.82657" lon="1.83065">
        <ele>99</ele>
        <time>2017-11-08T15:01:49Z</time>
      </trkpt>
      <trkpt lat="47.82656" lon="1.83057">
        <ele>99</ele>
        <time>2017-11-08T15:01:50Z</time>
      </trkpt>
      <trkpt lat="47.82655" lon="1.83048">
        <ele>99</ele>
        <time>2017-11-08T15:01:51Z</time>
      </trkpt>
      <trkpt lat="47.82654" lon="1.83042">
        <ele>100</ele>
        <time>2017-11-08T15:01:52Z</time>
      </trkpt>
      <trkpt lat="47.82653" lon="1.83036">
        <ele>100</ele>
        <time>2017-11-08T15:01:53Z</time>
      </trkpt>
      <trkpt lat="47.82651" lon="1.83029">
        <ele>100</ele>
        <time>2017-11-08T15:01:54Z</time>
      </trkpt>
      <trkpt lat="47.8265" lon="1.83023">
        <ele>100</ele>
        <time>2017-11-08T15:01:55Z</time>
      </trkpt>
      <trkpt lat="47.82648" lon="1.83017">
        <ele>100</ele>
        <time>2017-11-08T15:01:56Z</time>
      </trkpt>
      <trkpt lat="47.82645" lon="1.83012">
        <ele>100</ele>
        <time>2017-11-08T15:01:57Z</time>
      </trkpt>
      <trkpt lat="47.82643" lon="1.83006">
        <ele>100</ele>
        <time>2017-11-08T15:01:58Z</time>
      </trkpt>
      <trkpt lat="47.8264" lon="1.83">
        <ele>100</ele>
        <time>2017-11-08T15:01:59Z</time>
      </trkpt>
      <trkpt lat="47.82637" lon="1.82995">
        <ele>102</ele>
        <time>2017-11-08T15:02:00Z</time>
      </trkpt>
      <trkpt lat="47.82635" lon="1.82989">
        <ele>102</ele>
        <time>2017-11-08T15:02:01Z</time>
      </trkpt>
      <trkpt lat="47.82633" lon="1.82982">
        <ele>102</ele>
        <time>2017-11-08T15:02:02Z</time>
      </trkpt>
      <trkpt lat="47.82631" lon="1.82976">
        <ele>102</ele>
        <time>2017-11-08T15:02:03Z</time>
      </trkpt>
      <trkpt lat="47.82629" lon="1.82971">
        <ele>102</ele>
        <time>2017-11-08T15:02:04Z</time>
      </trkpt>
      <trkpt lat="47.82627" lon="1.82965">
        <ele>102</ele>
        <time>2017-11-08T15:02:05Z</time>
      </trkpt>
      <trkpt lat="47.82625" lon="1.8296">
        <ele>102</ele>
        <time>2017-11-08T15:02:06Z</time>
      </trkpt>
      <trkpt lat="47.82623" lon="1.82953">
        <ele>102</ele>
        <time>2017-11-08T15:02:07Z</time>
      </trkpt>
      <trkpt lat="47.8262" lon="1.82949">
        <ele>102</ele>
        <time>2017-11-08T15:02:08Z</time>
      </trkpt>
      <trkpt lat="47.82618" lon="1.82944">
        <ele>102</ele>
        <time>2017-11-08T15:02:09Z</time>
      </trkpt>
      <trkpt lat="47.82616" lon="1.82938">
        <ele>102</ele>
        <time>2017-11-08T15:02:10Z</time>
      </trkpt>
      <trkpt lat="47.82613" lon="1.82932">
        <ele>102</ele>
        <time>2017-11-08T15:02:11Z</time>
      </trkpt>
      <trkpt lat="47.8261" lon="1.82926">
        <ele>102</ele>
        <time>2017-11-08T15:02:12Z</time>
      </trkpt>
      <trkpt lat="47.82607" lon="1.8292">
        <ele>102</ele>
        <time>2017-11-08T15:02:13Z</time>
      </trkpt>
      <trkpt lat="47.82605" lon="1.82913">
        <ele>103</ele>
        <time>2017-11-08T15:02:14Z</time>
      </trkpt>
      <trkpt lat="47.82604" lon="1.82908">
        <ele>103</ele>
        <time>2017-11-08T15:02:15Z</time>
      </trkpt>
      <trkpt lat="47.82601" lon="1.82903">
        <ele>103</ele>
        <time>2017-11-08T15:02:16Z</time>
      </trkpt>
      <trkpt lat="47.82599" lon="1.82896">
        <ele>103</ele>
        <time>2017-11-08T15:02:17Z</time>
      </trkpt>
      <trkpt lat="47.82597" lon="1.82891">
        <ele>104</ele>
        <time>2017-11-08T15:02:18Z</time>
      </trkpt>
      <trkpt lat="47.82595" lon="1.82886">
        <ele>104</ele>
        <time>2017-11-08T15:02:19Z</time>
      </trkpt>
      <trkpt lat="47.82593" lon="1.8288">
        <ele>104</ele>
        <time>2017-11-08T15:02:20Z</time>
      </trkpt>
      <trkpt lat="47.82591" lon="1.82873">
        <ele>104</ele>
        <time>2017-11-08T15:02:21Z</time>
      </trkpt>
      <trkpt lat="47.82588" lon="1.82867">
        <ele>104</ele>
        <time>2017-11-08T15:02:22Z</time>
      </trkpt>
      <trkpt lat="47.82586" lon="1.8286">
        <ele>104</ele>
        <time>2017-11-08T15:02:23Z</time>
      </trkpt>
      <trkpt lat="47.82583" lon="1.82852">
        <ele>103</ele>
        <time>2017-11-08T15:02:24Z</time>
      </trkpt>
      <trkpt lat="47.8258" lon="1.82845">
        <ele>103</ele>
        <time>2017-11-08T15:02:25Z</time>
      </trkpt>
      <trkpt lat="47.82578" lon="1.82838">
        <ele>103</ele>
        <time>2017-11-08T15:02:26Z</time>
      </trkpt>
      <trkpt lat="47.82576" lon="1.82831">
        <ele>103</ele>
        <time>2017-11-08T15:02:27Z</time>
      </trkpt>
      <trkpt lat="47.82573" lon="1.82825">
        <ele>103</ele>
        <time>2017-11-08T15:02:28Z</time>
      </trkpt>
      <trkpt lat="47.82571" lon="1.82819">
        <ele>104</ele>
        <time>2017-11-08T15:02:29Z</time>
      </trkpt>
      <trkpt lat="47.82569" lon="1.82813">
        <ele>104</ele>
        <time>2017-11-08T15:02:30Z</time>
      </trkpt>
      <trkpt lat="47.82568" lon="1.82809">
        <ele>104</ele>
        <time>2017-11-08T15:02:31Z</time>
      </trkpt>
      <trkpt lat="47.82566" lon="1.82804">
        <ele>104</ele>
        <time>2017-11-08T15:02:32Z</time>
      </trkpt>
      <trkpt lat="47.82564" lon="1.82798">
        <ele>104</ele>
        <time>2017-11-08T15:02:33Z</time>
      </trkpt>
      <trkpt lat="47.82563" lon="1.82793">
        <ele>104</ele>
        <time>2017-11-08T15:02:34Z</time>
      </trkpt>
      <trkpt lat="47.82561" lon="1.82788">
        <ele>104</ele>
        <time>2017-11-08T15:02:35Z</time>
      </trkpt>
      <trkpt lat="47.82558" lon="1.82781">
        <ele>104</ele>
        <time>2017-11-08T15:02:36Z</time>
      </trkpt>
      <trkpt lat="47.82556" lon="1.82776">
        <ele>104</ele>
        <time>2017-11-08T15:02:37Z</time>
      </trkpt>
      <trkpt lat="47.82554" lon="1.8277">
        <ele>104</ele>
        <time>2017-11-08T15:02:38Z</time>
      </trkpt>
      <trkpt lat="47.82553" lon="1.82764">
        <ele>104</ele>
        <time>2017-11-08T15:02:39Z</time>
      </trkpt>
      <trkpt lat="47.82551" lon="1.82758">
        <ele>104</ele>
        <time>2017-11-08T15:02:40Z</time>
      </trkpt>
      <trkpt lat="47.82549" lon="1.82752">
        <ele>104</ele>
        <time>2017-11-08T15:02:41Z</time>
      </trkpt>
      <trkpt lat="47.82546" lon="1.82744">
        <ele>104</ele>
        <time>2017-11-08T15:02:42Z</time>
      </trkpt>
      <trkpt lat="47.82544" lon="1.82738">
        <ele>104</ele>
        <time>2017-11-08T15:02:43Z</time>
      </trkpt>
      <trkpt lat="47.82542" lon="1.82731">
        <ele>104</ele>
        <time>2017-11-08T15:02:44Z</time>
      </trkpt>
      <trkpt lat="47.82539" lon="1.82724">
        <ele>104</ele>
        <time>2017-11-08T15:02:45Z</time>
      </trkpt>
      <trkpt lat="47.82536" lon="1.82716">
        <ele>104</ele>
        <time>2017-11-08T15:02:46Z</time>
      </trkpt>
      <trkpt lat="47.82535" lon="1.8271">
        <ele>104</ele>
        <time>2017-11-08T15:02:47Z</time>
      </trkpt>
      <trkpt lat="47.82533" lon="1.82704">
        <ele>104</ele>
        <time>2017-11-08T15:02:48Z</time>
      </trkpt>
      <trkpt lat="47.8253" lon="1.82696">
        <ele>104</ele>
        <time>2017-11-08T15:02:49Z</time>
      </trkpt>
      <trkpt lat="47.82528" lon="1.8269">
        <ele>104</ele>
        <time>2017-11-08T15:02:50Z</time>
      </trkpt>
      <trkpt lat="47.82527" lon="1.82684">
        <ele>104</ele>
        <time>2017-11-08T15:02:51Z</time>
      </trkpt>
      <trkpt lat="47.82525" lon="1.82678">
        <ele>103</ele>
        <time>2017-11-08T15:02:52Z</time>
      </trkpt>
      <trkpt lat="47.82523" lon="1.82672">
        <ele>103</ele>
        <time>2017-11-08T15:02:53Z</time>
      </trkpt>
      <trkpt lat="47.82522" lon="1.82667">
        <ele>104</ele>
        <time>2017-11-08T15:02:54Z</time>
      </trkpt>
      <trkpt lat="47.8252" lon="1.82661">
        <ele>104</ele>
        <time>2017-11-08T15:02:55Z</time>
      </trkpt>
      <trkpt lat="47.82517" lon="1.82653">
        <ele>104</ele>
        <time>2017-11-08T15:02:56Z</time>
      </trkpt>
      <trkpt lat="47.82515" lon="1.82646">
        <ele>104</ele>
        <time>2017-11-08T15:02:57Z</time>
      </trkpt>
      <trkpt lat="47.82513" lon="1.82639">
        <ele>104</ele>
        <time>2017-11-08T15:02:58Z</time>
      </trkpt>
      <trkpt lat="47.8251" lon="1.82631">
        <ele>104</ele>
        <time>2017-11-08T15:02:59Z</time>
      </trkpt>
      <trkpt lat="47.82508" lon="1.82625">
        <ele>104</ele>
        <time>2017-11-08T15:03:00Z</time>
      </trkpt>
      <trkpt lat="47.82506" lon="1.82618">
        <ele>104</ele>
        <time>2017-11-08T15:03:01Z</time>
      </trkpt>
      <trkpt lat="47.82504" lon="1.82612">
        <ele>104</ele>
        <time>2017-11-08T15:03:02Z</time>
      </trkpt>
      <trkpt lat="47.82502" lon="1.82605">
        <ele>104</ele>
        <time>2017-11-08T15:03:03Z</time>
      </trkpt>
      <trkpt lat="47.825" lon="1.826">
        <ele>104</ele>
        <time>2017-11-08T15:03:04Z</time>
      </trkpt>
      <trkpt lat="47.82498" lon="1.82595">
        <ele>102</ele>
        <time>2017-11-08T15:03:05Z</time>
      </trkpt>
      <trkpt lat="47.82497" lon="1.82589">
        <ele>102</ele>
        <time>2017-11-08T15:03:06Z</time>
      </trkpt>
      <trkpt lat="47.82495" lon="1.82584">
        <ele>102</ele>
        <time>2017-11-08T15:03:07Z</time>
      </trkpt>
      <trkpt lat="47.82494" lon="1.82578">
        <ele>103</ele>
        <time>2017-11-08T15:03:08Z</time>
      </trkpt>
      <trkpt lat="47.82492" lon="1.82572">
        <ele>102</ele>
        <time>2017-11-08T15:03:09Z</time>
      </trkpt>
      <trkpt lat="47.82491" lon="1.82567">
        <ele>102</ele>
        <time>2017-11-08T15:03:10Z</time>
      </trkpt>
      <trkpt lat="47.82488" lon="1.82559">
        <ele>102</ele>
        <time>2017-11-08T15:03:11Z</time>
      </trkpt>
      <trkpt lat="47.82486" lon="1.8255">
        <ele>102</ele>
        <time>2017-11-08T15:03:12Z</time>
      </trkpt>
      <trkpt lat="47.82481" lon="1.82537">
        <ele>103</ele>
        <time>2017-11-08T15:03:13Z</time>
      </trkpt>
      <trkpt lat="47.82477" lon="1.82526">
        <ele>103</ele>
        <time>2017-11-08T15:03:14Z</time>
      </trkpt>
      <trkpt lat="47.82474" lon="1.82516">
        <ele>103</ele>
        <time>2017-11-08T15:03:15Z</time>
      </trkpt>
      <trkpt lat="47.82471" lon="1.82508">
        <ele>103</ele>
        <time>2017-11-08T15:03:16Z</time>
      </trkpt>
      <trkpt lat="47.8247" lon="1.825">
        <ele>103</ele>
        <time>2017-11-08T15:03:17Z</time>
      </trkpt>
      <trkpt lat="47.82468" lon="1.82493">
        <ele>104</ele>
        <time>2017-11-08T15:03:18Z</time>
      </trkpt>
      <trkpt lat="47.82466" lon="1.82484">
        <ele>103</ele>
        <time>2017-11-08T15:03:19Z</time>
      </trkpt>
      <trkpt lat="47.82464" lon="1.82477">
        <ele>103</ele>
        <time>2017-11-08T15:03:20Z</time>
      </trkpt>
      <trkpt lat="47.82463" lon="1.82471">
        <ele>103</ele>
        <time>2017-11-08T15:03:21Z</time>
      </trkpt>
      <trkpt lat="47.82461" lon="1.82463">
        <ele>103</ele>
        <time>2017-11-08T15:03:22Z</time>
      </trkpt>
      <trkpt lat="47.82459" lon="1.82456">
        <ele>103</ele>
        <time>2017-11-08T15:03:23Z</time>
      </trkpt>
      <trkpt lat="47.82457" lon="1.82451">
        <ele>103</ele>
        <time>2017-11-08T15:03:24Z</time>
      </trkpt>
      <trkpt lat="47.82455" lon="1.82445">
        <ele>103</ele>
        <time>2017-11-08T15:03:25Z</time>
      </trkpt>
      <trkpt lat="47.82453" lon="1.82439">
        <ele>103</ele>
        <time>2017-11-08T15:03:26Z</time>
      </trkpt>
      <trkpt lat="47.82451" lon="1.82433">
        <ele>103</ele>
        <time>2017-11-08T15:03:27Z</time>
      </trkpt>
      <trkpt lat="47.82448" lon="1.82427">
        <ele>103</ele>
        <time>2017-11-08T15:03:28Z</time>
      </trkpt>
      <trkpt lat="47.82445" lon="1.8242">
        <ele>103</ele>
        <time>2017-11-08T15:03:29Z</time>
      </trkpt>
      <trkpt lat="47.82442" lon="1.82414">
        <ele>102</ele>
        <time>2017-11-08T15:03:30Z</time>
      </trkpt>
      <trkpt lat="47.82439" lon="1.82407">
        <ele>102</ele>
        <time>2017-11-08T15:03:31Z</time>
      </trkpt>
      <trkpt lat="47.82435" lon="1.82401">
        <ele>102</ele>
        <time>2017-11-08T15:03:32Z</time>
      </trkpt>
      <trkpt lat="47.82431" lon="1.82394">
        <ele>102</ele>
        <time>2017-11-08T15:03:33Z</time>
      </trkpt>
      <trkpt lat="47.82429" lon="1.82387">
        <ele>102</ele>
        <time>2017-11-08T15:03:34Z</time>
      </trkpt>
      <trkpt lat="47.82426" lon="1.82381">
        <ele>102</ele>
        <time>2017-11-08T15:03:35Z</time>
      </trkpt>
      <trkpt lat="47.82424" lon="1.82374">
        <ele>102</ele>
        <time>2017-11-08T15:03:36Z</time>
      </trkpt>
      <trkpt lat="47.8242" lon="1.82365">
        <ele>101</ele>
        <time>2017-11-08T15:03:37Z</time>
      </trkpt>
      <trkpt lat="47.82417" lon="1.82357">
        <ele>101</ele>
        <time>2017-11-08T15:03:38Z</time>
      </trkpt>
      <trkpt lat="47.82415" lon="1.82351">
        <ele>102</ele>
        <time>2017-11-08T15:03:39Z</time>
      </trkpt>
      <trkpt lat="47.82414" lon="1.82345">
        <ele>101</ele>
        <time>2017-11-08T15:03:40Z</time>
      </trkpt>
      <trkpt lat="47.82412" lon="1.82338">
        <ele>101</ele>
        <time>2017-11-08T15:03:41Z</time>
      </trkpt>
      <trkpt lat="47.82411" lon="1.82332">
        <ele>101</ele>
        <time>2017-11-08T15:03:42Z</time>
      </trkpt>
      <trkpt lat="47.82409" lon="1.82326">
        <ele>101</ele>
        <time>2017-11-08T15:03:43Z</time>
      </trkpt>
      <trkpt lat="47.82408" lon="1.8232">
        <ele>101</ele>
        <time>2017-11-08T15:03:44Z</time>
      </trkpt>
      <trkpt lat="47.82406" lon="1.82312">
        <ele>101</ele>
        <time>2017-11-08T15:03:45Z</time>
      </trkpt>
      <trkpt lat="47.82404" lon="1.82305">
        <ele>101</ele>
        <time>2017-11-08T15:03:46Z</time>
      </trkpt>
      <trkpt lat="47.82403" lon="1.82298">
        <ele>101</ele>
        <time>2017-11-08T15:03:47Z</time>
      </trkpt>
      <trkpt lat="47.82401" lon="1.82291">
        <ele>101</ele>
        <time>2017-11-08T15:03:48Z</time>
      </trkpt>
      <trkpt lat="47.82399" lon="1.82286">
        <ele>101</ele>
        <time>2017-11-08T15:03:49Z</time>
      </trkpt>
      <trkpt lat="47.82396" lon="1.82279">
        <ele>101</ele>
        <time>2017-11-08T15:03:50Z</time>
      </trkpt>
      <trkpt lat="47.82394" lon="1.82272">
        <ele>101</ele>
        <time>2017-11-08T15:03:51Z</time>
      </trkpt>
      <trkpt lat="47.82393" lon="1.82267">
        <ele>101</ele>
        <time>2017-11-08T15:03:52Z</time>
      </trkpt>
      <trkpt lat="47.82392" lon="1.82261">
        <ele>101</ele>
        <time>2017-11-08T15:03:53Z</time>
      </trkpt>
      <trkpt lat="47.82391" lon="1.82255">
        <ele>101</ele>
        <time>2017-11-08T15:03:54Z</time>
      </trkpt>
      <trkpt lat="47.8239" lon="1.82251">
        <ele>101</ele>
        <time>2017-11-08T15:03:55Z</time>
      </trkpt>
      <trkpt lat="47.82389" lon="1.82246">
        <ele>101</ele>
        <time>2017-11-08T15:03:56Z</time>
      </trkpt>
      <trkpt lat="47.82387" lon="1.82242">
        <ele>101</ele>
        <time>2017-11-08T15:03:57Z</time>
      </trkpt>
      <trkpt lat="47.82386" lon="1.82238">
        <ele>101</ele>
        <time>2017-11-08T15:03:58Z</time>
      </trkpt>
      <trkpt lat="47.82384" lon="1.82232">
        <ele>101</ele>
        <time>2017-11-08T15:03:59Z</time>
      </trkpt>
      <trkpt lat="47.82382" lon="1.82226">
        <ele>101</ele>
        <time>2017-11-08T15:04:00Z</time>
      </trkpt>
      <trkpt lat="47.8238" lon="1.82222">
        <ele>101</ele>
        <time>2017-11-08T15:04:01Z</time>
      </trkpt>
      <trkpt lat="47.82379" lon="1.82217">
        <ele>101</ele>
        <time>2017-11-08T15:04:02Z</time>
      </trkpt>
      <trkpt lat="47.82377" lon="1.82211">
        <ele>101</ele>
        <time>2017-11-08T15:04:03Z</time>
      </trkpt>
      <trkpt lat="47.82375" lon="1.82203">
        <ele>101</ele>
        <time>2017-11-08T15:04:04Z</time>
      </trkpt>
      <trkpt lat="47.82373" lon="1.82198">
        <ele>101</ele>
        <time>2017-11-08T15:04:05Z</time>
      </trkpt>
      <trkpt lat="47.82372" lon="1.82194">
        <ele>101</ele>
        <time>2017-11-08T15:04:06Z</time>
      </trkpt>
      <trkpt lat="47.82371" lon="1.82187">
        <ele>101</ele>
        <time>2017-11-08T15:04:07Z</time>
      </trkpt>
      <trkpt lat="47.82369" lon="1.82181">
        <ele>101</ele>
        <time>2017-11-08T15:04:08Z</time>
      </trkpt>
      <trkpt lat="47.82367" lon="1.82175">
        <ele>101</ele>
        <time>2017-11-08T15:04:09Z</time>
      </trkpt>
      <trkpt lat="47.82365" lon="1.82168">
        <ele>101</ele>
        <time>2017-11-08T15:04:10Z</time>
      </trkpt>
      <trkpt lat="47.82362" lon="1.8216">
        <ele>101</ele>
        <time>2017-11-08T15:04:11Z</time>
      </trkpt>
      <trkpt lat="47.8236" lon="1.82153">
        <ele>101</ele>
        <time>2017-11-08T15:04:12Z</time>
      </trkpt>
      <trkpt lat="47.82357" lon="1.82145">
        <ele>101</ele>
        <time>2017-11-08T15:04:13Z</time>
      </trkpt>
      <trkpt lat="47.82355" lon="1.82138">
        <ele>101</ele>
        <time>2017-11-08T15:04:14Z</time>
      </trkpt>
      <trkpt lat="47.82352" lon="1.82131">
        <ele>101</ele>
        <time>2017-11-08T15:04:15Z</time>
      </trkpt>
      <trkpt lat="47.82349" lon="1.82124">
        <ele>101</ele>
        <time>2017-11-08T15:04:16Z</time>
      </trkpt>
      <trkpt lat="47.82347" lon="1.82117">
        <ele>101</ele>
        <time>2017-11-08T15:04:17Z</time>
      </trkpt>
      <trkpt lat="47.82344" lon="1.82111">
        <ele>100</ele>
        <time>2017-11-08T15:04:18Z</time>
      </trkpt>
      <trkpt lat="47.82342" lon="1.82103">
        <ele>100</ele>
        <time>2017-11-08T15:04:19Z</time>
      </trkpt>
      <trkpt lat="47.8234" lon="1.82097">
        <ele>100</ele>
        <time>2017-11-08T15:04:20Z</time>
      </trkpt>
      <trkpt lat="47.82338" lon="1.82091">
        <ele>100</ele>
        <time>2017-11-08T15:04:21Z</time>
      </trkpt>
      <trkpt lat="47.82336" lon="1.82085">
        <ele>99</ele>
        <time>2017-11-08T15:04:22Z</time>
      </trkpt>
      <trkpt lat="47.82334" lon="1.82079">
        <ele>99</ele>
        <time>2017-11-08T15:04:23Z</time>
      </trkpt>
      <trkpt lat="47.82332" lon="1.82073">
        <ele>100</ele>
        <time>2017-11-08T15:04:24Z</time>
      </trkpt>
      <trkpt lat="47.82329" lon="1.82067">
        <ele>100</ele>
        <time>2017-11-08T15:04:25Z</time>
      </trkpt>
      <trkpt lat="47.82326" lon="1.82058">
        <ele>100</ele>
        <time>2017-11-08T15:04:26Z</time>
      </trkpt>
      <trkpt lat="47.82324" lon="1.8205">
        <ele>100</ele>
        <time>2017-11-08T15:04:27Z</time>
      </trkpt>
      <trkpt lat="47.82322" lon="1.82044">
        <ele>100</ele>
        <time>2017-11-08T15:04:28Z</time>
      </trkpt>
      <trkpt lat="47.82319" lon="1.82035">
        <ele>100</ele>
        <time>2017-11-08T15:04:29Z</time>
      </trkpt>
      <trkpt lat="47.82318" lon="1.82029">
        <ele>100</ele>
        <time>2017-11-08T15:04:30Z</time>
      </trkpt>
      <trkpt lat="47.82315" lon="1.8202">
        <ele>100</ele>
        <time>2017-11-08T15:04:31Z</time>
      </trkpt>
      <trkpt lat="47.82312" lon="1.82012">
        <ele>100</ele>
        <time>2017-11-08T15:04:32Z</time>
      </trkpt>
      <trkpt lat="47.8231" lon="1.82004">
        <ele>100</ele>
        <time>2017-11-08T15:04:33Z</time>
      </trkpt>
      <trkpt lat="47.82307" lon="1.81996">
        <ele>101</ele>
        <time>2017-11-08T15:04:34Z</time>
      </trkpt>
      <trkpt lat="47.82305" lon="1.81989">
        <ele>101</ele>
        <time>2017-11-08T15:04:35Z</time>
      </trkpt>
      <trkpt lat="47.82304" lon="1.81981">
        <ele>102</ele>
        <time>2017-11-08T15:04:36Z</time>
      </trkpt>
      <trkpt lat="47.82303" lon="1.8197">
        <ele>102</ele>
        <time>2017-11-08T15:04:37Z</time>
      </trkpt>
      <trkpt lat="47.82301" lon="1.8196">
        <ele>102</ele>
        <time>2017-11-08T15:04:38Z</time>
      </trkpt>
      <trkpt lat="47.82301" lon="1.81953">
        <ele>102</ele>
        <time>2017-11-08T15:04:39Z</time>
      </trkpt>
      <trkpt lat="47.82302" lon="1.81945">
        <ele>102</ele>
        <time>2017-11-08T15:04:40Z</time>
      </trkpt>
      <trkpt lat="47.82302" lon="1.81939">
        <ele>102</ele>
        <time>2017-11-08T15:04:41Z</time>
      </trkpt>
      <trkpt lat="47.82302" lon="1.81931">
        <ele>102</ele>
        <time>2017-11-08T15:04:42Z</time>
      </trkpt>
      <trkpt lat="47.82303" lon="1.81925">
        <ele>102</ele>
        <time>2017-11-08T15:04:43Z</time>
      </trkpt>
      <trkpt lat="47.82303" lon="1.81917">
        <ele>102</ele>
        <time>2017-11-08T15:04:44Z</time>
      </trkpt>
      <trkpt lat="47.82304" lon="1.8191">
        <ele>102</ele>
        <time>2017-11-08T15:04:45Z</time>
      </trkpt>
      <trkpt lat="47.82304" lon="1.81903">
        <ele>102</ele>
        <time>2017-11-08T15:04:46Z</time>
      </trkpt>
      <trkpt lat="47.82304" lon="1.81896">
        <ele>102</ele>
        <time>2017-11-08T15:04:47Z</time>
      </trkpt>
      <trkpt lat="47.82304" lon="1.81886">
        <ele>102</ele>
        <time>2017-11-08T15:04:48Z</time>
      </trkpt>
      <trkpt lat="47.82304" lon="1.81878">
        <ele>102</ele>
        <time>2017-11-08T15:04:49Z</time>
      </trkpt>
      <trkpt lat="47.82305" lon="1.81873">
        <ele>102</ele>
        <time>2017-11-08T15:04:50Z</time>
      </trkpt>
      <trkpt lat="47.82305" lon="1.81866">
        <ele>102</ele>
        <time>2017-11-08T15:04:51Z</time>
      </trkpt>
      <trkpt lat="47.82304" lon="1.81858">
        <ele>101</ele>
        <time>2017-11-08T15:04:52Z</time>
      </trkpt>
      <trkpt lat="47.82304" lon="1.8185">
        <ele>101</ele>
        <time>2017-11-08T15:04:53Z</time>
      </trkpt>
      <trkpt lat="47.82304" lon="1.81841">
        <ele>101</ele>
        <time>2017-11-08T15:04:54Z</time>
      </trkpt>
      <trkpt lat="47.82304" lon="1.81833">
        <ele>100</ele>
        <time>2017-11-08T15:04:55Z</time>
      </trkpt>
      <trkpt lat="47.82304" lon="1.81826">
        <ele>100</ele>
        <time>2017-11-08T15:04:56Z</time>
      </trkpt>
      <trkpt lat="47.82304" lon="1.81819">
        <ele>100</ele>
        <time>2017-11-08T15:04:57Z</time>
      </trkpt>
      <trkpt lat="47.82303" lon="1.81812">
        <ele>100</ele>
        <time>2017-11-08T15:04:58Z</time>
      </trkpt>
      <trkpt lat="47.82303" lon="1.81806">
        <ele>100</ele>
        <time>2017-11-08T15:04:59Z</time>
      </trkpt>
      <trkpt lat="47.82303" lon="1.81798">
        <ele>100</ele>
        <time>2017-11-08T15:05:00Z</time>
      </trkpt>
      <trkpt lat="47.82304" lon="1.81791">
        <ele>100</ele>
        <time>2017-11-08T15:05:01Z</time>
      </trkpt>
      <trkpt lat="47.82305" lon="1.81786">
        <ele>100</ele>
        <time>2017-11-08T15:05:02Z</time>
      </trkpt>
      <trkpt lat="47.82305" lon="1.81778">
        <ele>100</ele>
        <time>2017-11-08T15:05:03Z</time>
      </trkpt>
      <trkpt lat="47.82306" lon="1.81769">
        <ele>100</ele>
        <time>2017-11-08T15:05:04Z</time>
      </trkpt>
      <trkpt lat="47.82306" lon="1.81762">
        <ele>100</ele>
        <time>2017-11-08T15:05:05Z</time>
      </trkpt>
      <trkpt lat="47.82306" lon="1.81754">
        <ele>100</ele>
        <time>2017-11-08T15:05:06Z</time>
      </trkpt>
      <trkpt lat="47.82306" lon="1.81746">
        <ele>99</ele>
        <time>2017-11-08T15:05:07Z</time>
      </trkpt>
      <trkpt lat="47.82306" lon="1.81739">
        <ele>99</ele>
        <time>2017-11-08T15:05:08Z</time>
      </trkpt>
      <trkpt lat="47.82306" lon="1.81734">
        <ele>99</ele>
        <time>2017-11-08T15:05:09Z</time>
      </trkpt>
      <trkpt lat="47.82307" lon="1.81726">
        <ele>99</ele>
        <time>2017-11-08T15:05:10Z</time>
      </trkpt>
      <trkpt lat="47.82306" lon="1.8172">
        <ele>99</ele>
        <time>2017-11-08T15:05:11Z</time>
      </trkpt>
      <trkpt lat="47.82306" lon="1.81714">
        <ele>99</ele>
        <time>2017-11-08T15:05:12Z</time>
      </trkpt>
      <trkpt lat="47.82306" lon="1.81708">
        <ele>99</ele>
        <time>2017-11-08T15:05:13Z</time>
      </trkpt>
      <trkpt lat="47.82307" lon="1.81702">
        <ele>100</ele>
        <time>2017-11-08T15:05:14Z</time>
      </trkpt>
      <trkpt lat="47.82307" lon="1.81695">
        <ele>100</ele>
        <time>2017-11-08T15:05:15Z</time>
      </trkpt>
      <trkpt lat="47.82308" lon="1.81688">
        <ele>100</ele>
        <time>2017-11-08T15:05:16Z</time>
      </trkpt>
      <trkpt lat="47.82308" lon="1.81681">
        <ele>100</ele>
        <time>2017-11-08T15:05:17Z</time>
      </trkpt>
      <trkpt lat="47.82307" lon="1.81675">
        <ele>100</ele>
        <time>2017-11-08T15:05:18Z</time>
      </trkpt>
      <trkpt lat="47.82308" lon="1.8167">
        <ele>100</ele>
        <time>2017-11-08T15:05:19Z</time>
      </trkpt>
      <trkpt lat="47.82307" lon="1.81663">
        <ele>101</ele>
        <time>2017-11-08T15:05:20Z</time>
      </trkpt>
      <trkpt lat="47.82306" lon="1.81656">
        <ele>101</ele>
        <time>2017-11-08T15:05:21Z</time>
      </trkpt>
      <trkpt lat="47.82306" lon="1.81651">
        <ele>101</ele>
        <time>2017-11-08T15:05:22Z</time>
      </trkpt>
      <trkpt lat="47.82306" lon="1.81645">
        <ele>101</ele>
        <time>2017-11-08T15:05:23Z</time>
      </trkpt>
      <trkpt lat="47.82305" lon="1.81636">
        <ele>101</ele>
        <time>2017-11-08T15:05:24Z</time>
      </trkpt>
      <trkpt lat="47.82304" lon="1.8163">
        <ele>101</ele>
        <time>2017-11-08T15:05:25Z</time>
      </trkpt>
      <trkpt lat="47.82304" lon="1.81622">
        <ele>101</ele>
        <time>2017-11-08T15:05:26Z</time>
      </trkpt>
      <trkpt lat="47.82303" lon="1.81615">
        <ele>101</ele>
        <time>2017-11-08T15:05:27Z</time>
      </trkpt>
      <trkpt lat="47.82303" lon="1.81609">
        <ele>101</ele>
        <time>2017-11-08T15:05:28Z</time>
      </trkpt>
      <trkpt lat="47.82303" lon="1.81603">
        <ele>101</ele>
        <time>2017-11-08T15:05:29Z</time>
      </trkpt>
      <trkpt lat="47.82302" lon="1.81597">
        <ele>101</ele>
        <time>2017-11-08T15:05:30Z</time>
      </trkpt>
      <trkpt lat="47.82302" lon="1.81591">
        <ele>101</ele>
        <time>2017-11-08T15:05:31Z</time>
      </trkpt>
      <trkpt lat="47.82302" lon="1.81584">
        <ele>101</ele>
        <time>2017-11-08T15:05:32Z</time>
      </trkpt>
      <trkpt lat="47.82302" lon="1.81578">
        <ele>101</ele>
        <time>2017-11-08T15:05:33Z</time>
      </trkpt>
      <trkpt lat="47.82302" lon="1.81571">
        <ele>101</ele>
        <time>2017-11-08T15:05:34Z</time>
      </trkpt>
      <trkpt lat="47.82302" lon="1.81561">
        <ele>101</ele>
        <time>2017-11-08T15:05:35Z</time>
      </trkpt>
      <trkpt lat="47.82302" lon="1.81554">
        <ele>101</ele>
        <time>2017-11-08T15:05:36Z</time>
      </trkpt>
      <trkpt lat="47.82303" lon="1.81547">
        <ele>101</ele>
        <time>2017-11-08T15:05:37Z</time>
      </trkpt>
      <trkpt lat="47.82304" lon="1.81541">
        <ele>101</ele>
        <time>2017-11-08T15:05:38Z</time>
      </trkpt>
      <trkpt lat="47.82304" lon="1.81535">
        <ele>101</ele>
        <time>2017-11-08T15:05:39Z</time>
      </trkpt>
      <trkpt lat="47.82305" lon="1.8153">
        <ele>101</ele>
        <time>2017-11-08T15:05:40Z</time>
      </trkpt>
      <trkpt lat="47.82305" lon="1.81525">
        <ele>101</ele>
        <time>2017-11-08T15:05:41Z</time>
      </trkpt>
      <trkpt lat="47.82306" lon="1.81519">
        <ele>101</ele>
        <time>2017-11-08T15:05:42Z</time>
      </trkpt>
      <trkpt lat="47.82307" lon="1.81514">
        <ele>101</ele>
        <time>2017-11-08T15:05:43Z</time>
      </trkpt>
      <trkpt lat="47.82307" lon="1.81508">
        <ele>101</ele>
        <time>2017-11-08T15:05:44Z</time>
      </trkpt>
      <trkpt lat="47.82308" lon="1.81501">
        <ele>101</ele>
        <time>2017-11-08T15:05:45Z</time>
      </trkpt>
      <trkpt lat="47.82309" lon="1.81496">
        <ele>102</ele>
        <time>2017-11-08T15:05:46Z</time>
      </trkpt>
      <trkpt lat="47.82309" lon="1.81489">
        <ele>102</ele>
        <time>2017-11-08T15:05:47Z</time>
      </trkpt>
      <trkpt lat="47.82309" lon="1.81481">
        <ele>102</ele>
        <time>2017-11-08T15:05:48Z</time>
      </trkpt>
      <trkpt lat="47.82309" lon="1.81474">
        <ele>102</ele>
        <time>2017-11-08T15:05:49Z</time>
      </trkpt>
      <trkpt lat="47.82309" lon="1.81468">
        <ele>102</ele>
        <time>2017-11-08T15:05:50Z</time>
      </trkpt>
      <trkpt lat="47.82309" lon="1.81462">
        <ele>102</ele>
        <time>2017-11-08T15:05:51Z</time>
      </trkpt>
      <trkpt lat="47.82308" lon="1.81453">
        <ele>102</ele>
        <time>2017-11-08T15:05:52Z</time>
      </trkpt>
      <trkpt lat="47.82308" lon="1.81446">
        <ele>102</ele>
        <time>2017-11-08T15:05:53Z</time>
      </trkpt>
      <trkpt lat="47.82307" lon="1.81439">
        <ele>102</ele>
        <time>2017-11-08T15:05:54Z</time>
      </trkpt>
      <trkpt lat="47.82307" lon="1.81432">
        <ele>102</ele>
        <time>2017-11-08T15:05:55Z</time>
      </trkpt>
      <trkpt lat="47.82307" lon="1.81426">
        <ele>102</ele>
        <time>2017-11-08T15:05:56Z</time>
      </trkpt>
      <trkpt lat="47.82307" lon="1.81421">
        <ele>102</ele>
        <time>2017-11-08T15:05:57Z</time>
      </trkpt>
      <trkpt lat="47.82308" lon="1.81415">
        <ele>102</ele>
        <time>2017-11-08T15:05:58Z</time>
      </trkpt>
      <trkpt lat="47.82307" lon="1.81408">
        <ele>102</ele>
        <time>2017-11-08T15:05:59Z</time>
      </trkpt>
      <trkpt lat="47.82307" lon="1.81402">
        <ele>102</ele>
        <time>2017-11-08T15:06:00Z</time>
      </trkpt>
      <trkpt lat="47.82308" lon="1.81397">
        <ele>102</ele>
        <time>2017-11-08T15:06:01Z</time>
      </trkpt>
      <trkpt lat="47.82308" lon="1.81389">
        <ele>103</ele>
        <time>2017-11-08T15:06:02Z</time>
      </trkpt>
      <trkpt lat="47.82308" lon="1.81381">
        <ele>103</ele>
        <time>2017-11-08T15:06:03Z</time>
      </trkpt>
      <trkpt lat="47.82308" lon="1.81374">
        <ele>103</ele>
        <time>2017-11-08T15:06:04Z</time>
      </trkpt>
      <trkpt lat="47.82308" lon="1.81367">
        <ele>102</ele>
        <time>2017-11-08T15:06:05Z</time>
      </trkpt>
      <trkpt lat="47.82308" lon="1.81361">
        <ele>102</ele>
        <time>2017-11-08T15:06:06Z</time>
      </trkpt>
      <trkpt lat="47.82308" lon="1.81353">
        <ele>102</ele>
        <time>2017-11-08T15:06:07Z</time>
      </trkpt>
      <trkpt lat="47.82307" lon="1.81346">
        <ele>102</ele>
        <time>2017-11-08T15:06:08Z</time>
      </trkpt>
      <trkpt lat="47.82306" lon="1.81337">
        <ele>102</ele>
        <time>2017-11-08T15:06:09Z</time>
      </trkpt>
      <trkpt lat="47.82305" lon="1.8133">
        <ele>102</ele>
        <time>2017-11-08T15:06:10Z</time>
      </trkpt>
      <trkpt lat="47.82304" lon="1.81322">
        <ele>102</ele>
        <time>2017-11-08T15:06:11Z</time>
      </trkpt>
      <trkpt lat="47.82302" lon="1.81315">
        <ele>102</ele>
        <time>2017-11-08T15:06:12Z</time>
      </trkpt>
      <trkpt lat="47.82302" lon="1.8131">
        <ele>102</ele>
        <time>2017-11-08T15:06:13Z</time>
      </trkpt>
      <trkpt lat="47.82301" lon="1.81305">
        <ele>102</ele>
        <time>2017-11-08T15:06:14Z</time>
      </trkpt>
      <trkpt lat="47.823" lon="1.81299">
        <ele>102</ele>
        <time>2017-11-08T15:06:15Z</time>
      </trkpt>
      <trkpt lat="47.82298" lon="1.81293">
        <ele>102</ele>
        <time>2017-11-08T15:06:16Z</time>
      </trkpt>
      <trkpt lat="47.82296" lon="1.81288">
        <ele>102</ele>
        <time>2017-11-08T15:06:17Z</time>
      </trkpt>
      <trkpt lat="47.82294" lon="1.81279">
        <ele>102</ele>
        <time>2017-11-08T15:06:18Z</time>
      </trkpt>
      <trkpt lat="47.82293" lon="1.81274">
        <ele>102</ele>
        <time>2017-11-08T15:06:19Z</time>
      </trkpt>
      <trkpt lat="47.82291" lon="1.81268">
        <ele>102</ele>
        <time>2017-11-08T15:06:20Z</time>
      </trkpt>
      <trkpt lat="47.82289" lon="1.81262">
        <ele>102</ele>
        <time>2017-11-08T15:06:21Z</time>
      </trkpt>
      <trkpt lat="47.82286" lon="1.81256">
        <ele>102</ele>
        <time>2017-11-08T15:06:22Z</time>
      </trkpt>
      <trkpt lat="47.82285" lon="1.81252">
        <ele>102</ele>
        <time>2017-11-08T15:06:23Z</time>
      </trkpt>
      <trkpt lat="47.82282" lon="1.81247">
        <ele>101</ele>
        <time>2017-11-08T15:06:24Z</time>
      </trkpt>
      <trkpt lat="47.82279" lon="1.81242">
        <ele>101</ele>
        <time>2017-11-08T15:06:25Z</time>
      </trkpt>
      <trkpt lat="47.82277" lon="1.81238">
        <ele>101</ele>
        <time>2017-11-08T15:06:26Z</time>
      </trkpt>
      <trkpt lat="47.82274" lon="1.81234">
        <ele>101</ele>
        <time>2017-11-08T15:06:27Z</time>
      </trkpt>
      <trkpt lat="47.82272" lon="1.8123">
        <ele>101</ele>
        <time>2017-11-08T15:06:28Z</time>
      </trkpt>
      <trkpt lat="47.82269" lon="1.81226">
        <ele>101</ele>
        <time>2017-11-08T15:06:29Z</time>
      </trkpt>
      <trkpt lat="47.82266" lon="1.81221">
        <ele>100</ele>
        <time>2017-11-08T15:06:30Z</time>
      </trkpt>
      <trkpt lat="47.82264" lon="1.81217">
        <ele>100</ele>
        <time>2017-11-08T15:06:31Z</time>
      </trkpt>
      <trkpt lat="47.8226" lon="1.81211">
        <ele>100</ele>
        <time>2017-11-08T15:06:32Z</time>
      </trkpt>
      <trkpt lat="47.82257" lon="1.81206">
        <ele>100</ele>
        <time>2017-11-08T15:06:33Z</time>
      </trkpt>
      <trkpt lat="47.82254" lon="1.81201">
        <ele>99</ele>
        <time>2017-11-08T15:06:34Z</time>
      </trkpt>
      <trkpt lat="47.82251" lon="1.81196">
        <ele>99</ele>
        <time>2017-11-08T15:06:35Z</time>
      </trkpt>
      <trkpt lat="47.82248" lon="1.81192">
        <ele>101</ele>
        <time>2017-11-08T15:06:36Z</time>
      </trkpt>
      <trkpt lat="47.82245" lon="1.81188">
        <ele>100</ele>
        <time>2017-11-08T15:06:37Z</time>
      </trkpt>
      <trkpt lat="47.82243" lon="1.81183">
        <ele>100</ele>
        <time>2017-11-08T15:06:38Z</time>
      </trkpt>
      <trkpt lat="47.82239" lon="1.81179">
        <ele>100</ele>
        <time>2017-11-08T15:06:39Z</time>
      </trkpt>
      <trkpt lat="47.82236" lon="1.81174">
        <ele>100</ele>
        <time>2017-11-08T15:06:40Z</time>
      </trkpt>
      <trkpt lat="47.82233" lon="1.81169">
        <ele>100</ele>
        <time>2017-11-08T15:06:41Z</time>
      </trkpt>
      <trkpt lat="47.8223" lon="1.81166">
        <ele>98</ele>
        <time>2017-11-08T15:06:42Z</time>
      </trkpt>
      <trkpt lat="47.82227" lon="1.81161">
        <ele>98</ele>
        <time>2017-11-08T15:06:43Z</time>
      </trkpt>
      <trkpt lat="47.82224" lon="1.81157">
        <ele>99</ele>
        <time>2017-11-08T15:06:44Z</time>
      </trkpt>
      <trkpt lat="47.8222" lon="1.81153">
        <ele>99</ele>
        <time>2017-11-08T15:06:45Z</time>
      </trkpt>
      <trkpt lat="47.82217" lon="1.8115">
        <ele>99</ele>
        <time>2017-11-08T15:06:46Z</time>
      </trkpt>
      <trkpt lat="47.82213" lon="1.81147">
        <ele>99</ele>
        <time>2017-11-08T15:06:47Z</time>
      </trkpt>
      <trkpt lat="47.82209" lon="1.81145">
        <ele>99</ele>
        <time>2017-11-08T15:06:48Z</time>
      </trkpt>
      <trkpt lat="47.82204" lon="1.81142">
        <ele>99</ele>
        <time>2017-11-08T15:06:49Z</time>
      </trkpt>
      <trkpt lat="47.82201" lon="1.81141">
        <ele>99</ele>
        <time>2017-11-08T15:06:50Z</time>
      </trkpt>
      <trkpt lat="47.82198" lon="1.81139">
        <ele>99</ele>
        <time>2017-11-08T15:06:51Z</time>
      </trkpt>
      <trkpt lat="47.82194" lon="1.81138">
        <ele>100</ele>
        <time>2017-11-08T15:06:52Z</time>
      </trkpt>
      <trkpt lat="47.82191" lon="1.81137">
        <ele>100</ele>
        <time>2017-11-08T15:06:53Z</time>
      </trkpt>
      <trkpt lat="47.82188" lon="1.81136">
        <ele>100</ele>
        <time>2017-11-08T15:06:54Z</time>
      </trkpt>
      <trkpt lat="47.82185" lon="1.81135">
        <ele>100</ele>
        <time>2017-11-08T15:06:55Z</time>
      </trkpt>
      <trkpt lat="47.82182" lon="1.81133">
        <ele>100</ele>
        <time>2017-11-08T15:06:56Z</time>
      </trkpt>
      <trkpt lat="47.82178" lon="1.8113">
        <ele>100</ele>
        <time>2017-11-08T15:06:57Z</time>
      </trkpt>
      <trkpt lat="47.82173" lon="1.81127">
        <ele>100</ele>
        <time>2017-11-08T15:06:59Z</time>
      </trkpt>
      <trkpt lat="47.82169" lon="1.81124">
        <ele>100</ele>
        <time>2017-11-08T15:07:00Z</time>
      </trkpt>
      <trkpt lat="47.82166" lon="1.81122">
        <ele>101</ele>
        <time>2017-11-08T15:07:01Z</time>
      </trkpt>
      <trkpt lat="47.82164" lon="1.8112">
        <ele>101</ele>
        <time>2017-11-08T15:07:02Z</time>
      </trkpt>
      <trkpt lat="47.82159" lon="1.81118">
        <ele>101</ele>
        <time>2017-11-08T15:07:04Z</time>
      </trkpt>
      <trkpt lat="47.82156" lon="1.81116">
        <ele>101</ele>
        <time>2017-11-08T15:07:06Z</time>
      </trkpt>
      <trkpt lat="47.82151" lon="1.81114">
        <ele>101</ele>
        <time>2017-11-08T15:07:08Z</time>
      </trkpt>
      <trkpt lat="47.82146" lon="1.81112">
        <ele>101</ele>
        <time>2017-11-08T15:07:10Z</time>
      </trkpt>
      <trkpt lat="47.82144" lon="1.81111">
        <ele>101</ele>
        <time>2017-11-08T15:07:11Z</time>
      </trkpt>
      <trkpt lat="47.82141" lon="1.81109">
        <ele>101</ele>
        <time>2017-11-08T15:07:12Z</time>
      </trkpt>
      <trkpt lat="47.82137" lon="1.81105">
        <ele>101</ele>
        <time>2017-11-08T15:07:13Z</time>
      </trkpt>
      <trkpt lat="47.82134" lon="1.81103">
        <ele>101</ele>
        <time>2017-11-08T15:07:14Z</time>
      </trkpt>
      <trkpt lat="47.82131" lon="1.81102">
        <ele>101</ele>
        <time>2017-11-08T15:07:15Z</time>
      </trkpt>
      <trkpt lat="47.82127" lon="1.81099">
        <ele>101</ele>
        <time>2017-11-08T15:07:17Z</time>
      </trkpt>
      <trkpt lat="47.8212" lon="1.81093">
        <ele>101</ele>
        <time>2017-11-08T15:07:19Z</time>
      </trkpt>
      <trkpt lat="47.82117" lon="1.81092">
        <ele>101</ele>
        <time>2017-11-08T15:07:20Z</time>
      </trkpt>
      <trkpt lat="47.82112" lon="1.81089">
        <ele>101</ele>
        <time>2017-11-08T15:07:21Z</time>
      </trkpt>
      <trkpt lat="47.82109" lon="1.81088">
        <ele>102</ele>
        <time>2017-11-08T15:07:22Z</time>
      </trkpt>
      <trkpt lat="47.82106" lon="1.81087">
        <ele>102</ele>
        <time>2017-11-08T15:07:23Z</time>
      </trkpt>
      <trkpt lat="47.82103" lon="1.81085">
        <ele>102</ele>
        <time>2017-11-08T15:07:24Z</time>
      </trkpt>
      <trkpt lat="47.821" lon="1.81082">
        <ele>100</ele>
        <time>2017-11-08T15:07:25Z</time>
      </trkpt>
      <trkpt lat="47.82096" lon="1.81079">
        <ele>100</ele>
        <time>2017-11-08T15:07:27Z</time>
      </trkpt>
      <trkpt lat="47.82093" lon="1.81076">
        <ele>101</ele>
        <time>2017-11-08T15:07:28Z</time>
      </trkpt>
      <trkpt lat="47.82089" lon="1.81074">
        <ele>101</ele>
        <time>2017-11-08T15:07:30Z</time>
      </trkpt>
      <trkpt lat="47.82084" lon="1.81071">
        <ele>101</ele>
        <time>2017-11-08T15:07:32Z</time>
      </trkpt>
      <trkpt lat="47.8208" lon="1.8107">
        <ele>102</ele>
        <time>2017-11-08T15:07:33Z</time>
      </trkpt>
      <trkpt lat="47.82075" lon="1.81067">
        <ele>102</ele>
        <time>2017-11-08T15:07:35Z</time>
      </trkpt>
      <trkpt lat="47.82071" lon="1.81065">
        <ele>102</ele>
        <time>2017-11-08T15:07:36Z</time>
      </trkpt>
      <trkpt lat="47.82067" lon="1.81063">
        <ele>102</ele>
        <time>2017-11-08T15:07:37Z</time>
      </trkpt>
      <trkpt lat="47.82064" lon="1.81061">
        <ele>102</ele>
        <time>2017-11-08T15:07:38Z</time>
      </trkpt>
      <trkpt lat="47.8206" lon="1.81058">
        <ele>102</ele>
        <time>2017-11-08T15:07:39Z</time>
      </trkpt>
      <trkpt lat="47.82057" lon="1.81055">
        <ele>102</ele>
        <time>2017-11-08T15:07:40Z</time>
      </trkpt>
      <trkpt lat="47.82053" lon="1.81051">
        <ele>102</ele>
        <time>2017-11-08T15:07:41Z</time>
      </trkpt>
      <trkpt lat="47.8205" lon="1.81047">
        <ele>102</ele>
        <time>2017-11-08T15:07:42Z</time>
      </trkpt>
      <trkpt lat="47.82047" lon="1.81043">
        <ele>102</ele>
        <time>2017-11-08T15:07:43Z</time>
      </trkpt>
      <trkpt lat="47.82044" lon="1.8104">
        <ele>102</ele>
        <time>2017-11-08T15:07:44Z</time>
      </trkpt>
      <trkpt lat="47.82041" lon="1.81037">
        <ele>102</ele>
        <time>2017-11-08T15:07:45Z</time>
      </trkpt>
      <trkpt lat="47.82038" lon="1.81032">
        <ele>102</ele>
        <time>2017-11-08T15:07:46Z</time>
      </trkpt>
      <trkpt lat="47.82036" lon="1.81028">
        <ele>102</ele>
        <time>2017-11-08T15:07:47Z</time>
      </trkpt>
      <trkpt lat="47.82032" lon="1.81023">
        <ele>102</ele>
        <time>2017-11-08T15:07:48Z</time>
      </trkpt>
      <trkpt lat="47.8203" lon="1.8102">
        <ele>102</ele>
        <time>2017-11-08T15:07:49Z</time>
      </trkpt>
      <trkpt lat="47.82028" lon="1.81017">
        <ele>102</ele>
        <time>2017-11-08T15:07:50Z</time>
      </trkpt>
      <trkpt lat="47.82025" lon="1.81014">
        <ele>102</ele>
        <time>2017-11-08T15:07:51Z</time>
      </trkpt>
      <trkpt lat="47.8202" lon="1.81008">
        <ele>102</ele>
        <time>2017-11-08T15:07:53Z</time>
      </trkpt>
      <trkpt lat="47.82018" lon="1.81004">
        <ele>102</ele>
        <time>2017-11-08T15:07:54Z</time>
      </trkpt>
      <trkpt lat="47.82014" lon="1.80999">
        <ele>101</ele>
        <time>2017-11-08T15:07:56Z</time>
      </trkpt>
      <trkpt lat="47.82011" lon="1.80996">
        <ele>101</ele>
        <time>2017-11-08T15:07:57Z</time>
      </trkpt>
      <trkpt lat="47.82009" lon="1.80993">
        <ele>101</ele>
        <time>2017-11-08T15:07:58Z</time>
      </trkpt>
      <trkpt lat="47.82006" lon="1.8099">
        <ele>101</ele>
        <time>2017-11-08T15:07:59Z</time>
      </trkpt>
      <trkpt lat="47.82003" lon="1.80987">
        <ele>101</ele>
        <time>2017-11-08T15:08:00Z</time>
      </trkpt>
      <trkpt lat="47.82001" lon="1.80985">
        <ele>100</ele>
        <time>2017-11-08T15:08:01Z</time>
      </trkpt>
      <trkpt lat="47.81996" lon="1.80981">
        <ele>103</ele>
        <time>2017-11-08T15:08:03Z</time>
      </trkpt>
      <trkpt lat="47.81993" lon="1.80979">
        <ele>103</ele>
        <time>2017-11-08T15:08:04Z</time>
      </trkpt>
      <trkpt lat="47.8199" lon="1.80976">
        <ele>103</ele>
        <time>2017-11-08T15:08:05Z</time>
      </trkpt>
      <trkpt lat="47.81987" lon="1.80973">
        <ele>103</ele>
        <time>2017-11-08T15:08:07Z</time>
      </trkpt>
      <trkpt lat="47.81984" lon="1.80969">
        <ele>103</ele>
        <time>2017-11-08T15:08:09Z</time>
      </trkpt>
      <trkpt lat="47.81982" lon="1.80966">
        <ele>103</ele>
        <time>2017-11-08T15:08:11Z</time>
      </trkpt>
      <trkpt lat="47.81979" lon="1.80961">
        <ele>103</ele>
        <time>2017-11-08T15:08:13Z</time>
      </trkpt>
      <trkpt lat="47.81975" lon="1.80953">
        <ele>103</ele>
        <time>2017-11-08T15:08:14Z</time>
      </trkpt>
      <trkpt lat="47.81972" lon="1.80948">
        <ele>103</ele>
        <time>2017-11-08T15:08:15Z</time>
      </trkpt>
      <trkpt lat="47.81969" lon="1.80941">
        <ele>103</ele>
        <time>2017-11-08T15:08:17Z</time>
      </trkpt>
      <trkpt lat="47.81967" lon="1.80937">
        <ele>103</ele>
        <time>2017-11-08T15:08:18Z</time>
      </trkpt>
      <trkpt lat="47.81965" lon="1.80933">
        <ele>103</ele>
        <time>2017-11-08T15:08:19Z</time>
      </trkpt>
      <trkpt lat="47.81963" lon="1.80929">
        <ele>103</ele>
        <time>2017-11-08T15:08:20Z</time>
      </trkpt>
      <trkpt lat="47.8196" lon="1.80925">
        <ele>103</ele>
        <time>2017-11-08T15:08:21Z</time>
      </trkpt>
      <trkpt lat="47.81959" lon="1.80919">
        <ele>103</ele>
        <time>2017-11-08T15:08:23Z</time>
      </trkpt>
      <trkpt lat="47.81957" lon="1.80916">
        <ele>103</ele>
        <time>2017-11-08T15:08:25Z</time>
      </trkpt>
      <trkpt lat="47.81954" lon="1.80912">
        <ele>103</ele>
        <time>2017-11-08T15:08:27Z</time>
      </trkpt>
      <trkpt lat="47.8195" lon="1.80908">
        <ele>103</ele>
        <time>2017-11-08T15:08:29Z</time>
      </trkpt>
      <trkpt lat="47.81948" lon="1.80901">
        <ele>103</ele>
        <time>2017-11-08T15:08:31Z</time>
      </trkpt>
      <trkpt lat="47.81946" lon="1.80896">
        <ele>103</ele>
        <time>2017-11-08T15:08:33Z</time>
      </trkpt>
      <trkpt lat="47.81945" lon="1.80892">
        <ele>104</ele>
        <time>2017-11-08T15:08:35Z</time>
      </trkpt>
      <trkpt lat="47.81942" lon="1.80886">
        <ele>104</ele>
        <time>2017-11-08T15:08:37Z</time>
      </trkpt>
      <trkpt lat="47.81939" lon="1.8088">
        <ele>104</ele>
        <time>2017-11-08T15:08:39Z</time>
      </trkpt>
      <trkpt lat="47.81937" lon="1.80875">
        <ele>104</ele>
        <time>2017-11-08T15:08:41Z</time>
      </trkpt>
      <trkpt lat="47.81934" lon="1.8087">
        <ele>104</ele>
        <time>2017-11-08T15:08:43Z</time>
      </trkpt>
      <trkpt lat="47.81933" lon="1.80863">
        <ele>104</ele>
        <time>2017-11-08T15:08:45Z</time>
      </trkpt>
      <trkpt lat="47.81931" lon="1.80858">
        <ele>104</ele>
        <time>2017-11-08T15:08:47Z</time>
      </trkpt>
      <trkpt lat="47.81929" lon="1.80853">
        <ele>104</ele>
        <time>2017-11-08T15:08:49Z</time>
      </trkpt>
      <trkpt lat="47.81926" lon="1.80847">
        <ele>105</ele>
        <time>2017-11-08T15:08:51Z</time>
      </trkpt>
      <trkpt lat="47.81923" lon="1.80841">
        <ele>105</ele>
        <time>2017-11-08T15:08:53Z</time>
      </trkpt>
      <trkpt lat="47.81922" lon="1.80837">
        <ele>105</ele>
        <time>2017-11-08T15:08:54Z</time>
      </trkpt>
      <trkpt lat="47.81919" lon="1.8083">
        <ele>106</ele>
        <time>2017-11-08T15:08:56Z</time>
      </trkpt>
      <trkpt lat="47.81917" lon="1.80824">
        <ele>105</ele>
        <time>2017-11-08T15:08:58Z</time>
      </trkpt>
      <trkpt lat="47.81915" lon="1.80818">
        <ele>106</ele>
        <time>2017-11-08T15:09:00Z</time>
      </trkpt>
      <trkpt lat="47.81913" lon="1.80813">
        <ele>105</ele>
        <time>2017-11-08T15:09:02Z</time>
      </trkpt>
      <trkpt lat="47.8191" lon="1.80806">
        <ele>105</ele>
        <time>2017-11-08T15:09:04Z</time>
      </trkpt>
      <trkpt lat="47.81908" lon="1.80802">
        <ele>105</ele>
        <time>2017-11-08T15:09:05Z</time>
      </trkpt>
      <trkpt lat="47.81905" lon="1.80794">
        <ele>105</ele>
        <time>2017-11-08T15:09:06Z</time>
      </trkpt>
      <trkpt lat="47.81903" lon="1.80789">
        <ele>105</ele>
        <time>2017-11-08T15:09:08Z</time>
      </trkpt>
      <trkpt lat="47.819" lon="1.80781">
        <ele>105</ele>
        <time>2017-11-08T15:09:10Z</time>
      </trkpt>
      <trkpt lat="47.81898" lon="1.80774">
        <ele>105</ele>
        <time>2017-11-08T15:09:12Z</time>
      </trkpt>
      <trkpt lat="47.81895" lon="1.80768">
        <ele>105</ele>
        <time>2017-11-08T15:09:14Z</time>
      </trkpt>
      <trkpt lat="47.81893" lon="1.80764">
        <ele>105</ele>
        <time>2017-11-08T15:09:15Z</time>
      </trkpt>
      <trkpt lat="47.8189" lon="1.80757">
        <ele>105</ele>
        <time>2017-11-08T15:09:17Z</time>
      </trkpt>
      <trkpt lat="47.81887" lon="1.80751">
        <ele>105</ele>
        <time>2017-11-08T15:09:19Z</time>
      </trkpt>
      <trkpt lat="47.81884" lon="1.80745">
        <ele>105</ele>
        <time>2017-11-08T15:09:21Z</time>
      </trkpt>
      <trkpt lat="47.81882" lon="1.80738">
        <ele>105</ele>
        <time>2017-11-08T15:09:23Z</time>
      </trkpt>
      <trkpt lat="47.81879" lon="1.80732">
        <ele>105</ele>
        <time>2017-11-08T15:09:25Z</time>
      </trkpt>
      <trkpt lat="47.81878" lon="1.80727">
        <ele>105</ele>
        <time>2017-11-08T15:09:27Z</time>
      </trkpt>
      <trkpt lat="47.81876" lon="1.8072">
        <ele>105</ele>
        <time>2017-11-08T15:09:29Z</time>
      </trkpt>
      <trkpt lat="47.81874" lon="1.80716">
        <ele>105</ele>
        <time>2017-11-08T15:09:30Z</time>
      </trkpt>
      <trkpt lat="47.81871" lon="1.80709">
        <ele>106</ele>
        <time>2017-11-08T15:09:32Z</time>
      </trkpt>
      <trkpt lat="47.81869" lon="1.80706">
        <ele>106</ele>
        <time>2017-11-08T15:09:33Z</time>
      </trkpt>
      <trkpt lat="47.81867" lon="1.80702">
        <ele>106</ele>
        <time>2017-11-08T15:09:34Z</time>
      </trkpt>
      <trkpt lat="47.81865" lon="1.80698">
        <ele>106</ele>
        <time>2017-11-08T15:09:35Z</time>
      </trkpt>
      <trkpt lat="47.81864" lon="1.80694">
        <ele>106</ele>
        <time>2017-11-08T15:09:36Z</time>
      </trkpt>
      <trkpt lat="47.81862" lon="1.8069">
        <ele>106</ele>
        <time>2017-11-08T15:09:37Z</time>
      </trkpt>
      <trkpt lat="47.81861" lon="1.80686">
        <ele>106</ele>
        <time>2017-11-08T15:09:38Z</time>
      </trkpt>
      <trkpt lat="47.81858" lon="1.80683">
        <ele>106</ele>
        <time>2017-11-08T15:09:39Z</time>
      </trkpt>
      <trkpt lat="47.81856" lon="1.80679">
        <ele>106</ele>
        <time>2017-11-08T15:09:40Z</time>
      </trkpt>
      <trkpt lat="47.81854" lon="1.80675">
        <ele>106</ele>
        <time>2017-11-08T15:09:41Z</time>
      </trkpt>
      <trkpt lat="47.81851" lon="1.8067">
        <ele>106</ele>
        <time>2017-11-08T15:09:43Z</time>
      </trkpt>
      <trkpt lat="47.81849" lon="1.80666">
        <ele>106</ele>
        <time>2017-11-08T15:09:44Z</time>
      </trkpt>
      <trkpt lat="47.81846" lon="1.8066">
        <ele>106</ele>
        <time>2017-11-08T15:09:46Z</time>
      </trkpt>
      <trkpt lat="47.81844" lon="1.80656">
        <ele>106</ele>
        <time>2017-11-08T15:09:47Z</time>
      </trkpt>
      <trkpt lat="47.81842" lon="1.80651">
        <ele>106</ele>
        <time>2017-11-08T15:09:48Z</time>
      </trkpt>
      <trkpt lat="47.81841" lon="1.80647">
        <ele>106</ele>
        <time>2017-11-08T15:09:49Z</time>
      </trkpt>
      <trkpt lat="47.81839" lon="1.80643">
        <ele>106</ele>
        <time>2017-11-08T15:09:50Z</time>
      </trkpt>
      <trkpt lat="47.81837" lon="1.80636">
        <ele>106</ele>
        <time>2017-11-08T15:09:52Z</time>
      </trkpt>
      <trkpt lat="47.81835" lon="1.8063">
        <ele>105</ele>
        <time>2017-11-08T15:09:54Z</time>
      </trkpt>
      <trkpt lat="47.81833" lon="1.80624">
        <ele>106</ele>
        <time>2017-11-08T15:09:56Z</time>
      </trkpt>
      <trkpt lat="47.81832" lon="1.80617">
        <ele>105</ele>
        <time>2017-11-08T15:09:58Z</time>
      </trkpt>
      <trkpt lat="47.81832" lon="1.8061">
        <ele>105</ele>
        <time>2017-11-08T15:10:00Z</time>
      </trkpt>
      <trkpt lat="47.81832" lon="1.80605">
        <ele>105</ele>
        <time>2017-11-08T15:10:01Z</time>
      </trkpt>
      <trkpt lat="47.81832" lon="1.80601">
        <ele>105</ele>
        <time>2017-11-08T15:10:02Z</time>
      </trkpt>
      <trkpt lat="47.81832" lon="1.80595">
        <ele>105</ele>
        <time>2017-11-08T15:10:03Z</time>
      </trkpt>
      <trkpt lat="47.81832" lon="1.8059">
        <ele>105</ele>
        <time>2017-11-08T15:10:04Z</time>
      </trkpt>
      <trkpt lat="47.81833" lon="1.80585">
        <ele>105</ele>
        <time>2017-11-08T15:10:05Z</time>
      </trkpt>
      <trkpt lat="47.81833" lon="1.80579">
        <ele>105</ele>
        <time>2017-11-08T15:10:06Z</time>
      </trkpt>
      <trkpt lat="47.81832" lon="1.80574">
        <ele>104</ele>
        <time>2017-11-08T15:10:07Z</time>
      </trkpt>
      <trkpt lat="47.81832" lon="1.80569">
        <ele>104</ele>
        <time>2017-11-08T15:10:08Z</time>
      </trkpt>
      <trkpt lat="47.81831" lon="1.80565">
        <ele>104</ele>
        <time>2017-11-08T15:10:09Z</time>
      </trkpt>
      <trkpt lat="47.81831" lon="1.8056">
        <ele>104</ele>
        <time>2017-11-08T15:10:10Z</time>
      </trkpt>
      <trkpt lat="47.81831" lon="1.80555">
        <ele>103</ele>
        <time>2017-11-08T15:10:11Z</time>
      </trkpt>
      <trkpt lat="47.8183" lon="1.8055">
        <ele>103</ele>
        <time>2017-11-08T15:10:12Z</time>
      </trkpt>
      <trkpt lat="47.8183" lon="1.80545">
        <ele>103</ele>
        <time>2017-11-08T15:10:13Z</time>
      </trkpt>
      <trkpt lat="47.8183" lon="1.8054">
        <ele>103</ele>
        <time>2017-11-08T15:10:14Z</time>
      </trkpt>
      <trkpt lat="47.8183" lon="1.80535">
        <ele>103</ele>
        <time>2017-11-08T15:10:15Z</time>
      </trkpt>
      <trkpt lat="47.81829" lon="1.80529">
        <ele>102</ele>
        <time>2017-11-08T15:10:16Z</time>
      </trkpt>
      <trkpt lat="47.81829" lon="1.80523">
        <ele>102</ele>
        <time>2017-11-08T15:10:17Z</time>
      </trkpt>
      <trkpt lat="47.81828" lon="1.80518">
        <ele>102</ele>
        <time>2017-11-08T15:10:18Z</time>
      </trkpt>
      <trkpt lat="47.81828" lon="1.80513">
        <ele>102</ele>
        <time>2017-11-08T15:10:19Z</time>
      </trkpt>
      <trkpt lat="47.81827" lon="1.80507">
        <ele>102</ele>
        <time>2017-11-08T15:10:20Z</time>
      </trkpt>
      <trkpt lat="47.81827" lon="1.80501">
        <ele>101</ele>
        <time>2017-11-08T15:10:21Z</time>
      </trkpt>
      <trkpt lat="47.81826" lon="1.80494">
        <ele>101</ele>
        <time>2017-11-08T15:10:22Z</time>
      </trkpt>
      <trkpt lat="47.81826" lon="1.80487">
        <ele>101</ele>
        <time>2017-11-08T15:10:23Z</time>
      </trkpt>
      <trkpt lat="47.81826" lon="1.8048">
        <ele>101</ele>
        <time>2017-11-08T15:10:24Z</time>
      </trkpt>
      <trkpt lat="47.81825" lon="1.80472">
        <ele>101</ele>
        <time>2017-11-08T15:10:25Z</time>
      </trkpt>
      <trkpt lat="47.81824" lon="1.80464">
        <ele>101</ele>
        <time>2017-11-08T15:10:26Z</time>
      </trkpt>
      <trkpt lat="47.81824" lon="1.80457">
        <ele>101</ele>
        <time>2017-11-08T15:10:27Z</time>
      </trkpt>
      <trkpt lat="47.81823" lon="1.8045">
        <ele>101</ele>
        <time>2017-11-08T15:10:28Z</time>
      </trkpt>
      <trkpt lat="47.81823" lon="1.80444">
        <ele>101</ele>
        <time>2017-11-08T15:10:29Z</time>
      </trkpt>
      <trkpt lat="47.81823" lon="1.80439">
        <ele>100</ele>
        <time>2017-11-08T15:10:30Z</time>
      </trkpt>
      <trkpt lat="47.81823" lon="1.80435">
        <ele>100</ele>
        <time>2017-11-08T15:10:31Z</time>
      </trkpt>
      <trkpt lat="47.81824" lon="1.80429">
        <ele>100</ele>
        <time>2017-11-08T15:10:32Z</time>
      </trkpt>
      <trkpt lat="47.81824" lon="1.80424">
        <ele>100</ele>
        <time>2017-11-08T15:10:33Z</time>
      </trkpt>
      <trkpt lat="47.81824" lon="1.80418">
        <ele>100</ele>
        <time>2017-11-08T15:10:34Z</time>
      </trkpt>
      <trkpt lat="47.81824" lon="1.80412">
        <ele>100</ele>
        <time>2017-11-08T15:10:35Z</time>
      </trkpt>
      <trkpt lat="47.81823" lon="1.80406">
        <ele>100</ele>
        <time>2017-11-08T15:10:36Z</time>
      </trkpt>
      <trkpt lat="47.81823" lon="1.804">
        <ele>100</ele>
        <time>2017-11-08T15:10:37Z</time>
      </trkpt>
      <trkpt lat="47.81823" lon="1.80394">
        <ele>100</ele>
        <time>2017-11-08T15:10:38Z</time>
      </trkpt>
      <trkpt lat="47.81823" lon="1.80387">
        <ele>100</ele>
        <time>2017-11-08T15:10:39Z</time>
      </trkpt>
      <trkpt lat="47.81823" lon="1.8038">
        <ele>100</ele>
        <time>2017-11-08T15:10:40Z</time>
      </trkpt>
      <trkpt lat="47.81823" lon="1.80373">
        <ele>100</ele>
        <time>2017-11-08T15:10:41Z</time>
      </trkpt>
      <trkpt lat="47.81823" lon="1.80366">
        <ele>100</ele>
        <time>2017-11-08T15:10:42Z</time>
      </trkpt>
      <trkpt lat="47.81823" lon="1.80358">
        <ele>100</ele>
        <time>2017-11-08T15:10:43Z</time>
      </trkpt>
      <trkpt lat="47.81823" lon="1.80349">
        <ele>99</ele>
        <time>2017-11-08T15:10:44Z</time>
      </trkpt>
      <trkpt lat="47.81823" lon="1.8034">
        <ele>99</ele>
        <time>2017-11-08T15:10:45Z</time>
      </trkpt>
      <trkpt lat="47.81823" lon="1.80333">
        <ele>98</ele>
        <time>2017-11-08T15:10:46Z</time>
      </trkpt>
      <trkpt lat="47.81823" lon="1.80326">
        <ele>99</ele>
        <time>2017-11-08T15:10:47Z</time>
      </trkpt>
      <trkpt lat="47.81823" lon="1.80318">
        <ele>99</ele>
        <time>2017-11-08T15:10:48Z</time>
      </trkpt>
      <trkpt lat="47.81823" lon="1.8031">
        <ele>99</ele>
        <time>2017-11-08T15:10:49Z</time>
      </trkpt>
      <trkpt lat="47.81822" lon="1.80303">
        <ele>99</ele>
        <time>2017-11-08T15:10:50Z</time>
      </trkpt>
      <trkpt lat="47.81822" lon="1.80297">
        <ele>99</ele>
        <time>2017-11-08T15:10:51Z</time>
      </trkpt>
      <trkpt lat="47.81821" lon="1.8029">
        <ele>99</ele>
        <time>2017-11-08T15:10:52Z</time>
      </trkpt>
      <trkpt lat="47.81821" lon="1.80284">
        <ele>98</ele>
        <time>2017-11-08T15:10:53Z</time>
      </trkpt>
      <trkpt lat="47.8182" lon="1.80277">
        <ele>98</ele>
        <time>2017-11-08T15:10:54Z</time>
      </trkpt>
      <trkpt lat="47.81819" lon="1.8027">
        <ele>98</ele>
        <time>2017-11-08T15:10:55Z</time>
      </trkpt>
      <trkpt lat="47.81818" lon="1.80264">
        <ele>98</ele>
        <time>2017-11-08T15:10:56Z</time>
      </trkpt>
      <trkpt lat="47.81817" lon="1.80258">
        <ele>98</ele>
        <time>2017-11-08T15:10:57Z</time>
      </trkpt>
      <trkpt lat="47.81816" lon="1.80252">
        <ele>98</ele>
        <time>2017-11-08T15:10:58Z</time>
      </trkpt>
      <trkpt lat="47.81815" lon="1.80246">
        <ele>97</ele>
        <time>2017-11-08T15:10:59Z</time>
      </trkpt>
      <trkpt lat="47.81814" lon="1.8024">
        <ele>97</ele>
        <time>2017-11-08T15:11:00Z</time>
      </trkpt>
      <trkpt lat="47.81813" lon="1.80233">
        <ele>97</ele>
        <time>2017-11-08T15:11:01Z</time>
      </trkpt>
      <trkpt lat="47.81812" lon="1.80226">
        <ele>97</ele>
        <time>2017-11-08T15:11:02Z</time>
      </trkpt>
      <trkpt lat="47.81811" lon="1.8022">
        <ele>97</ele>
        <time>2017-11-08T15:11:03Z</time>
      </trkpt>
      <trkpt lat="47.8181" lon="1.80213">
        <ele>97</ele>
        <time>2017-11-08T15:11:04Z</time>
      </trkpt>
      <trkpt lat="47.81809" lon="1.80206">
        <ele>97</ele>
        <time>2017-11-08T15:11:05Z</time>
      </trkpt>
      <trkpt lat="47.81808" lon="1.80199">
        <ele>97</ele>
        <time>2017-11-08T15:11:06Z</time>
      </trkpt>
      <trkpt lat="47.81808" lon="1.80192">
        <ele>97</ele>
        <time>2017-11-08T15:11:07Z</time>
      </trkpt>
      <trkpt lat="47.81808" lon="1.80185">
        <ele>96</ele>
        <time>2017-11-08T15:11:08Z</time>
      </trkpt>
      <trkpt lat="47.81807" lon="1.80178">
        <ele>96</ele>
        <time>2017-11-08T15:11:09Z</time>
      </trkpt>
      <trkpt lat="47.81807" lon="1.80171">
        <ele>96</ele>
        <time>2017-11-08T15:11:10Z</time>
      </trkpt>
      <trkpt lat="47.81808" lon="1.80164">
        <ele>95</ele>
        <time>2017-11-08T15:11:11Z</time>
      </trkpt>
      <trkpt lat="47.81808" lon="1.80157">
        <ele>95</ele>
        <time>2017-11-08T15:11:12Z</time>
      </trkpt>
      <trkpt lat="47.81808" lon="1.8015">
        <ele>95</ele>
        <time>2017-11-08T15:11:13Z</time>
      </trkpt>
      <trkpt lat="47.81808" lon="1.80142">
        <ele>95</ele>
        <time>2017-11-08T15:11:14Z</time>
      </trkpt>
      <trkpt lat="47.81808" lon="1.80135">
        <ele>95</ele>
        <time>2017-11-08T15:11:15Z</time>
      </trkpt>
      <trkpt lat="47.81807" lon="1.80127">
        <ele>95</ele>
        <time>2017-11-08T15:11:16Z</time>
      </trkpt>
      <trkpt lat="47.81806" lon="1.80119">
        <ele>95</ele>
        <time>2017-11-08T15:11:17Z</time>
      </trkpt>
      <trkpt lat="47.81805" lon="1.80112">
        <ele>95</ele>
        <time>2017-11-08T15:11:18Z</time>
      </trkpt>
      <trkpt lat="47.81805" lon="1.80105">
        <ele>95</ele>
        <time>2017-11-08T15:11:19Z</time>
      </trkpt>
      <trkpt lat="47.81804" lon="1.80098">
        <ele>95</ele>
        <time>2017-11-08T15:11:20Z</time>
      </trkpt>
      <trkpt lat="47.81803" lon="1.8009">
        <ele>95</ele>
        <time>2017-11-08T15:11:21Z</time>
      </trkpt>
      <trkpt lat="47.81803" lon="1.80083">
        <ele>95</ele>
        <time>2017-11-08T15:11:22Z</time>
      </trkpt>
      <trkpt lat="47.81803" lon="1.80075">
        <ele>95</ele>
        <time>2017-11-08T15:11:23Z</time>
      </trkpt>
      <trkpt lat="47.81803" lon="1.80068">
        <ele>95</ele>
        <time>2017-11-08T15:11:24Z</time>
      </trkpt>
      <trkpt lat="47.81802" lon="1.80061">
        <ele>95</ele>
        <time>2017-11-08T15:11:25Z</time>
      </trkpt>
      <trkpt lat="47.81802" lon="1.80054">
        <ele>95</ele>
        <time>2017-11-08T15:11:26Z</time>
      </trkpt>
      <trkpt lat="47.81802" lon="1.80046">
        <ele>95</ele>
        <time>2017-11-08T15:11:27Z</time>
      </trkpt>
      <trkpt lat="47.81802" lon="1.80039">
        <ele>95</ele>
        <time>2017-11-08T15:11:28Z</time>
      </trkpt>
      <trkpt lat="47.81802" lon="1.80032">
        <ele>96</ele>
        <time>2017-11-08T15:11:29Z</time>
      </trkpt>
      <trkpt lat="47.81801" lon="1.80025">
        <ele>96</ele>
        <time>2017-11-08T15:11:30Z</time>
      </trkpt>
      <trkpt lat="47.81801" lon="1.80019">
        <ele>96</ele>
        <time>2017-11-08T15:11:31Z</time>
      </trkpt>
      <trkpt lat="47.818" lon="1.80012">
        <ele>96</ele>
        <time>2017-11-08T15:11:32Z</time>
      </trkpt>
      <trkpt lat="47.818" lon="1.80005">
        <ele>96</ele>
        <time>2017-11-08T15:11:33Z</time>
      </trkpt>
      <trkpt lat="47.81799" lon="1.79999">
        <ele>96</ele>
        <time>2017-11-08T15:11:34Z</time>
      </trkpt>
      <trkpt lat="47.81799" lon="1.79992">
        <ele>96</ele>
        <time>2017-11-08T15:11:35Z</time>
      </trkpt>
      <trkpt lat="47.81799" lon="1.79985">
        <ele>96</ele>
        <time>2017-11-08T15:11:36Z</time>
      </trkpt>
      <trkpt lat="47.81798" lon="1.79979">
        <ele>96</ele>
        <time>2017-11-08T15:11:37Z</time>
      </trkpt>
      <trkpt lat="47.81798" lon="1.79973">
        <ele>96</ele>
        <time>2017-11-08T15:11:38Z</time>
      </trkpt>
      <trkpt lat="47.81797" lon="1.79967">
        <ele>96</ele>
        <time>2017-11-08T15:11:39Z</time>
      </trkpt>
      <trkpt lat="47.81798" lon="1.7996">
        <ele>96</ele>
        <time>2017-11-08T15:11:40Z</time>
      </trkpt>
      <trkpt lat="47.81798" lon="1.79954">
        <ele>96</ele>
        <time>2017-11-08T15:11:41Z</time>
      </trkpt>
      <trkpt lat="47.81798" lon="1.79947">
        <ele>96</ele>
        <time>2017-11-08T15:11:42Z</time>
      </trkpt>
      <trkpt lat="47.81798" lon="1.7994">
        <ele>96</ele>
        <time>2017-11-08T15:11:43Z</time>
      </trkpt>
      <trkpt lat="47.81797" lon="1.79933">
        <ele>96</ele>
        <time>2017-11-08T15:11:44Z</time>
      </trkpt>
      <trkpt lat="47.81797" lon="1.79927">
        <ele>96</ele>
        <time>2017-11-08T15:11:45Z</time>
      </trkpt>
      <trkpt lat="47.81797" lon="1.79921">
        <ele>96</ele>
        <time>2017-11-08T15:11:46Z</time>
      </trkpt>
      <trkpt lat="47.81797" lon="1.79914">
        <ele>96</ele>
        <time>2017-11-08T15:11:47Z</time>
      </trkpt>
      <trkpt lat="47.81796" lon="1.79908">
        <ele>96</ele>
        <time>2017-11-08T15:11:48Z</time>
      </trkpt>
      <trkpt lat="47.81796" lon="1.79902">
        <ele>96</ele>
        <time>2017-11-08T15:11:49Z</time>
      </trkpt>
      <trkpt lat="47.81795" lon="1.79895">
        <ele>96</ele>
        <time>2017-11-08T15:11:50Z</time>
      </trkpt>
      <trkpt lat="47.81795" lon="1.79888">
        <ele>96</ele>
        <time>2017-11-08T15:11:51Z</time>
      </trkpt>
      <trkpt lat="47.81795" lon="1.79881">
        <ele>96</ele>
        <time>2017-11-08T15:11:52Z</time>
      </trkpt>
      <trkpt lat="47.81794" lon="1.79874">
        <ele>96</ele>
        <time>2017-11-08T15:11:53Z</time>
      </trkpt>
      <trkpt lat="47.81794" lon="1.79866">
        <ele>96</ele>
        <time>2017-11-08T15:11:54Z</time>
      </trkpt>
      <trkpt lat="47.81794" lon="1.79859">
        <ele>96</ele>
        <time>2017-11-08T15:11:55Z</time>
      </trkpt>
      <trkpt lat="47.81793" lon="1.79852">
        <ele>96</ele>
        <time>2017-11-08T15:11:56Z</time>
      </trkpt>
      <trkpt lat="47.81793" lon="1.79845">
        <ele>96</ele>
        <time>2017-11-08T15:11:57Z</time>
      </trkpt>
      <trkpt lat="47.81793" lon="1.79837">
        <ele>96</ele>
        <time>2017-11-08T15:11:58Z</time>
      </trkpt>
      <trkpt lat="47.81792" lon="1.7983">
        <ele>95</ele>
        <time>2017-11-08T15:11:59Z</time>
      </trkpt>
      <trkpt lat="47.81792" lon="1.79823">
        <ele>95</ele>
        <time>2017-11-08T15:12:00Z</time>
      </trkpt>
      <trkpt lat="47.81791" lon="1.79816">
        <ele>95</ele>
        <time>2017-11-08T15:12:01Z</time>
      </trkpt>
      <trkpt lat="47.81791" lon="1.79809">
        <ele>95</ele>
        <time>2017-11-08T15:12:02Z</time>
      </trkpt>
      <trkpt lat="47.8179" lon="1.79801">
        <ele>95</ele>
        <time>2017-11-08T15:12:03Z</time>
      </trkpt>
      <trkpt lat="47.8179" lon="1.79793">
        <ele>95</ele>
        <time>2017-11-08T15:12:04Z</time>
      </trkpt>
      <trkpt lat="47.81789" lon="1.79785">
        <ele>95</ele>
        <time>2017-11-08T15:12:05Z</time>
      </trkpt>
      <trkpt lat="47.81788" lon="1.79777">
        <ele>95</ele>
        <time>2017-11-08T15:12:06Z</time>
      </trkpt>
      <trkpt lat="47.81788" lon="1.7977">
        <ele>95</ele>
        <time>2017-11-08T15:12:07Z</time>
      </trkpt>
      <trkpt lat="47.81787" lon="1.79762">
        <ele>95</ele>
        <time>2017-11-08T15:12:08Z</time>
      </trkpt>
      <trkpt lat="47.81787" lon="1.79754">
        <ele>95</ele>
        <time>2017-11-08T15:12:09Z</time>
      </trkpt>
      <trkpt lat="47.81786" lon="1.79747">
        <ele>95</ele>
        <time>2017-11-08T15:12:10Z</time>
      </trkpt>
      <trkpt lat="47.81786" lon="1.7974">
        <ele>95</ele>
        <time>2017-11-08T15:12:11Z</time>
      </trkpt>
      <trkpt lat="47.81785" lon="1.79733">
        <ele>95</ele>
        <time>2017-11-08T15:12:12Z</time>
      </trkpt>
      <trkpt lat="47.81785" lon="1.79726">
        <ele>95</ele>
        <time>2017-11-08T15:12:13Z</time>
      </trkpt>
      <trkpt lat="47.81784" lon="1.79719">
        <ele>95</ele>
        <time>2017-11-08T15:12:14Z</time>
      </trkpt>
      <trkpt lat="47.81783" lon="1.79712">
        <ele>95</ele>
        <time>2017-11-08T15:12:15Z</time>
      </trkpt>
      <trkpt lat="47.81783" lon="1.79705">
        <ele>94</ele>
        <time>2017-11-08T15:12:16Z</time>
      </trkpt>
      <trkpt lat="47.81783" lon="1.79698">
        <ele>94</ele>
        <time>2017-11-08T15:12:17Z</time>
      </trkpt>
      <trkpt lat="47.81782" lon="1.79692">
        <ele>94</ele>
        <time>2017-11-08T15:12:18Z</time>
      </trkpt>
      <trkpt lat="47.81782" lon="1.79685">
        <ele>94</ele>
        <time>2017-11-08T15:12:19Z</time>
      </trkpt>
      <trkpt lat="47.81781" lon="1.79679">
        <ele>94</ele>
        <time>2017-11-08T15:12:20Z</time>
      </trkpt>
      <trkpt lat="47.81781" lon="1.79673">
        <ele>94</ele>
        <time>2017-11-08T15:12:21Z</time>
      </trkpt>
      <trkpt lat="47.81783" lon="1.79668">
        <ele>94</ele>
        <time>2017-11-08T15:12:22Z</time>
      </trkpt>
      <trkpt lat="47.81787" lon="1.79666">
        <ele>94</ele>
        <time>2017-11-08T15:12:23Z</time>
      </trkpt>
      <trkpt lat="47.81792" lon="1.79668">
        <ele>94</ele>
        <time>2017-11-08T15:12:24Z</time>
      </trkpt>
      <trkpt lat="47.81798" lon="1.79673">
        <ele>94</ele>
        <time>2017-11-08T15:12:25Z</time>
      </trkpt>
      <trkpt lat="47.81803" lon="1.79678">
        <ele>94</ele>
        <time>2017-11-08T15:12:26Z</time>
      </trkpt>
      <trkpt lat="47.81808" lon="1.79683">
        <ele>94</ele>
        <time>2017-11-08T15:12:27Z</time>
      </trkpt>
      <trkpt lat="47.81813" lon="1.79687">
        <ele>94</ele>
        <time>2017-11-08T15:12:28Z</time>
      </trkpt>
      <trkpt lat="47.81817" lon="1.79691">
        <ele>94</ele>
        <time>2017-11-08T15:12:29Z</time>
      </trkpt>
      <trkpt lat="47.81822" lon="1.79696">
        <ele>94</ele>
        <time>2017-11-08T15:12:30Z</time>
      </trkpt>
      <trkpt lat="47.81826" lon="1.797">
        <ele>94</ele>
        <time>2017-11-08T15:12:31Z</time>
      </trkpt>
      <trkpt lat="47.8183" lon="1.79705">
        <ele>94</ele>
        <time>2017-11-08T15:12:32Z</time>
      </trkpt>
      <trkpt lat="47.81834" lon="1.79709">
        <ele>94</ele>
        <time>2017-11-08T15:12:33Z</time>
      </trkpt>
      <trkpt lat="47.81838" lon="1.79713">
        <ele>94</ele>
        <time>2017-11-08T15:12:34Z</time>
      </trkpt>
      <trkpt lat="47.81843" lon="1.79717">
        <ele>94</ele>
        <time>2017-11-08T15:12:35Z</time>
      </trkpt>
      <trkpt lat="47.81847" lon="1.7972">
        <ele>94</ele>
        <time>2017-11-08T15:12:36Z</time>
      </trkpt>
      <trkpt lat="47.81851" lon="1.79724">
        <ele>94</ele>
        <time>2017-11-08T15:12:37Z</time>
      </trkpt>
      <trkpt lat="47.81855" lon="1.79728">
        <ele>94</ele>
        <time>2017-11-08T15:12:38Z</time>
      </trkpt>
      <trkpt lat="47.81859" lon="1.79731">
        <ele>94</ele>
        <time>2017-11-08T15:12:39Z</time>
      </trkpt>
      <trkpt lat="47.81864" lon="1.79735">
        <ele>94</ele>
        <time>2017-11-08T15:12:40Z</time>
      </trkpt>
      <trkpt lat="47.81868" lon="1.79738">
        <ele>94</ele>
        <time>2017-11-08T15:12:41Z</time>
      </trkpt>
      <trkpt lat="47.81873" lon="1.79741">
        <ele>94</ele>
        <time>2017-11-08T15:12:42Z</time>
      </trkpt>
      <trkpt lat="47.81877" lon="1.79744">
        <ele>94</ele>
        <time>2017-11-08T15:12:43Z</time>
      </trkpt>
      <trkpt lat="47.81882" lon="1.79748">
        <ele>94</ele>
        <time>2017-11-08T15:12:44Z</time>
      </trkpt>
      <trkpt lat="47.81886" lon="1.7975">
        <ele>94</ele>
        <time>2017-11-08T15:12:45Z</time>
      </trkpt>
      <trkpt lat="47.81891" lon="1.79752">
        <ele>94</ele>
        <time>2017-11-08T15:12:46Z</time>
      </trkpt>
      <trkpt lat="47.81896" lon="1.79754">
        <ele>94</ele>
        <time>2017-11-08T15:12:47Z</time>
      </trkpt>
      <trkpt lat="47.81901" lon="1.79755">
        <ele>94</ele>
        <time>2017-11-08T15:12:48Z</time>
      </trkpt>
      <trkpt lat="47.81907" lon="1.79756">
        <ele>94</ele>
        <time>2017-11-08T15:12:49Z</time>
      </trkpt>
      <trkpt lat="47.81912" lon="1.79757">
        <ele>94</ele>
        <time>2017-11-08T15:12:50Z</time>
      </trkpt>
      <trkpt lat="47.81917" lon="1.79757">
        <ele>94</ele>
        <time>2017-11-08T15:12:51Z</time>
      </trkpt>
      <trkpt lat="47.81922" lon="1.79758">
        <ele>94</ele>
        <time>2017-11-08T15:12:52Z</time>
      </trkpt>
      <trkpt lat="47.81927" lon="1.79758">
        <ele>94</ele>
        <time>2017-11-08T15:12:53Z</time>
      </trkpt>
      <trkpt lat="47.81932" lon="1.79757">
        <ele>94</ele>
        <time>2017-11-08T15:12:54Z</time>
      </trkpt>
      <trkpt lat="47.81937" lon="1.79756">
        <ele>94</ele>
        <time>2017-11-08T15:12:55Z</time>
      </trkpt>
      <trkpt lat="47.81942" lon="1.79755">
        <ele>94</ele>
        <time>2017-11-08T15:12:56Z</time>
      </trkpt>
      <trkpt lat="47.81947" lon="1.79753">
        <ele>94</ele>
        <time>2017-11-08T15:12:57Z</time>
      </trkpt>
      <trkpt lat="47.81951" lon="1.7975">
        <ele>95</ele>
        <time>2017-11-08T15:12:58Z</time>
      </trkpt>
      <trkpt lat="47.81954" lon="1.79746">
        <ele>95</ele>
        <time>2017-11-08T15:12:59Z</time>
      </trkpt>
      <trkpt lat="47.81958" lon="1.7974">
        <ele>95</ele>
        <time>2017-11-08T15:13:00Z</time>
      </trkpt>
      <trkpt lat="47.8196" lon="1.79734">
        <ele>95</ele>
        <time>2017-11-08T15:13:01Z</time>
      </trkpt>
      <trkpt lat="47.81962" lon="1.79728">
        <ele>95</ele>
        <time>2017-11-08T15:13:02Z</time>
      </trkpt>
      <trkpt lat="47.81963" lon="1.79722">
        <ele>95</ele>
        <time>2017-11-08T15:13:03Z</time>
      </trkpt>
      <trkpt lat="47.81964" lon="1.79715">
        <ele>95</ele>
        <time>2017-11-08T15:13:04Z</time>
      </trkpt>
      <trkpt lat="47.81964" lon="1.79708">
        <ele>95</ele>
        <time>2017-11-08T15:13:05Z</time>
      </trkpt>
      <trkpt lat="47.81965" lon="1.79701">
        <ele>95</ele>
        <time>2017-11-08T15:13:06Z</time>
      </trkpt>
      <trkpt lat="47.81965" lon="1.79694">
        <ele>95</ele>
        <time>2017-11-08T15:13:07Z</time>
      </trkpt>
      <trkpt lat="47.81966" lon="1.79687">
        <ele>95</ele>
        <time>2017-11-08T15:13:08Z</time>
      </trkpt>
      <trkpt lat="47.81966" lon="1.79681">
        <ele>95</ele>
        <time>2017-11-08T15:13:09Z</time>
      </trkpt>
      <trkpt lat="47.81967" lon="1.79674">
        <ele>95</ele>
        <time>2017-11-08T15:13:10Z</time>
      </trkpt>
      <trkpt lat="47.81967" lon="1.79667">
        <ele>95</ele>
        <time>2017-11-08T15:13:11Z</time>
      </trkpt>
      <trkpt lat="47.81968" lon="1.7966">
        <ele>95</ele>
        <time>2017-11-08T15:13:12Z</time>
      </trkpt>
      <trkpt lat="47.81968" lon="1.79654">
        <ele>95</ele>
        <time>2017-11-08T15:13:13Z</time>
      </trkpt>
      <trkpt lat="47.81969" lon="1.79647">
        <ele>95</ele>
        <time>2017-11-08T15:13:14Z</time>
      </trkpt>
      <trkpt lat="47.81969" lon="1.79641">
        <ele>95</ele>
        <time>2017-11-08T15:13:15Z</time>
      </trkpt>
      <trkpt lat="47.8197" lon="1.79634">
        <ele>94</ele>
        <time>2017-11-08T15:13:16Z</time>
      </trkpt>
      <trkpt lat="47.8197" lon="1.79627">
        <ele>94</ele>
        <time>2017-11-08T15:13:17Z</time>
      </trkpt>
      <trkpt lat="47.81971" lon="1.7962">
        <ele>94</ele>
        <time>2017-11-08T15:13:18Z</time>
      </trkpt>
      <trkpt lat="47.81972" lon="1.79614">
        <ele>94</ele>
        <time>2017-11-08T15:13:19Z</time>
      </trkpt>
      <trkpt lat="47.81973" lon="1.79607">
        <ele>94</ele>
        <time>2017-11-08T15:13:20Z</time>
      </trkpt>
      <trkpt lat="47.81973" lon="1.796">
        <ele>94</ele>
        <time>2017-11-08T15:13:21Z</time>
      </trkpt>
      <trkpt lat="47.81974" lon="1.79594">
        <ele>94</ele>
        <time>2017-11-08T15:13:22Z</time>
      </trkpt>
      <trkpt lat="47.81975" lon="1.79588">
        <ele>94</ele>
        <time>2017-11-08T15:13:23Z</time>
      </trkpt>
      <trkpt lat="47.81977" lon="1.79582">
        <ele>94</ele>
        <time>2017-11-08T15:13:24Z</time>
      </trkpt>
      <trkpt lat="47.81978" lon="1.79576">
        <ele>94</ele>
        <time>2017-11-08T15:13:25Z</time>
      </trkpt>
      <trkpt lat="47.81979" lon="1.79571">
        <ele>94</ele>
        <time>2017-11-08T15:13:26Z</time>
      </trkpt>
      <trkpt lat="47.8198" lon="1.79565">
        <ele>94</ele>
        <time>2017-11-08T15:13:27Z</time>
      </trkpt>
      <trkpt lat="47.81981" lon="1.7956">
        <ele>94</ele>
        <time>2017-11-08T15:13:28Z</time>
      </trkpt>
      <trkpt lat="47.81982" lon="1.79554">
        <ele>94</ele>
        <time>2017-11-08T15:13:29Z</time>
      </trkpt>
      <trkpt lat="47.81984" lon="1.79549">
        <ele>94</ele>
        <time>2017-11-08T15:13:30Z</time>
      </trkpt>
      <trkpt lat="47.81985" lon="1.79543">
        <ele>94</ele>
        <time>2017-11-08T15:13:31Z</time>
      </trkpt>
      <trkpt lat="47.81987" lon="1.79537">
        <ele>94</ele>
        <time>2017-11-08T15:13:32Z</time>
      </trkpt>
      <trkpt lat="47.81989" lon="1.79531">
        <ele>94</ele>
        <time>2017-11-08T15:13:33Z</time>
      </trkpt>
      <trkpt lat="47.81991" lon="1.79525">
        <ele>94</ele>
        <time>2017-11-08T15:13:34Z</time>
      </trkpt>
      <trkpt lat="47.81993" lon="1.7952">
        <ele>94</ele>
        <time>2017-11-08T15:13:35Z</time>
      </trkpt>
      <trkpt lat="47.81995" lon="1.79514">
        <ele>94</ele>
        <time>2017-11-08T15:13:36Z</time>
      </trkpt>
      <trkpt lat="47.81997" lon="1.79509">
        <ele>94</ele>
        <time>2017-11-08T15:13:37Z</time>
      </trkpt>
      <trkpt lat="47.81999" lon="1.79503">
        <ele>94</ele>
        <time>2017-11-08T15:13:38Z</time>
      </trkpt>
      <trkpt lat="47.82002" lon="1.79497">
        <ele>94</ele>
        <time>2017-11-08T15:13:39Z</time>
      </trkpt>
      <trkpt lat="47.82004" lon="1.79491">
        <ele>94</ele>
        <time>2017-11-08T15:13:40Z</time>
      </trkpt>
      <trkpt lat="47.82007" lon="1.79486">
        <ele>94</ele>
        <time>2017-11-08T15:13:41Z</time>
      </trkpt>
      <trkpt lat="47.8201" lon="1.79481">
        <ele>94</ele>
        <time>2017-11-08T15:13:42Z</time>
      </trkpt>
      <trkpt lat="47.82012" lon="1.79476">
        <ele>94</ele>
        <time>2017-11-08T15:13:43Z</time>
      </trkpt>
      <trkpt lat="47.82015" lon="1.7947">
        <ele>94</ele>
        <time>2017-11-08T15:13:44Z</time>
      </trkpt>
      <trkpt lat="47.82018" lon="1.79465">
        <ele>94</ele>
        <time>2017-11-08T15:13:45Z</time>
      </trkpt>
      <trkpt lat="47.82021" lon="1.7946">
        <ele>94</ele>
        <time>2017-11-08T15:13:46Z</time>
      </trkpt>
      <trkpt lat="47.82023" lon="1.79455">
        <ele>94</ele>
        <time>2017-11-08T15:13:47Z</time>
      </trkpt>
      <trkpt lat="47.82026" lon="1.7945">
        <ele>94</ele>
        <time>2017-11-08T15:13:48Z</time>
      </trkpt>
      <trkpt lat="47.82029" lon="1.79445">
        <ele>94</ele>
        <time>2017-11-08T15:13:49Z</time>
      </trkpt>
      <trkpt lat="47.82031" lon="1.79441">
        <ele>94</ele>
        <time>2017-11-08T15:13:50Z</time>
      </trkpt>
      <trkpt lat="47.82034" lon="1.79436">
        <ele>94</ele>
        <time>2017-11-08T15:13:51Z</time>
      </trkpt>
      <trkpt lat="47.82036" lon="1.79432">
        <ele>94</ele>
        <time>2017-11-08T15:13:52Z</time>
      </trkpt>
      <trkpt lat="47.82039" lon="1.79427">
        <ele>94</ele>
        <time>2017-11-08T15:13:53Z</time>
      </trkpt>
      <trkpt lat="47.82042" lon="1.79422">
        <ele>94</ele>
        <time>2017-11-08T15:13:54Z</time>
      </trkpt>
      <trkpt lat="47.82044" lon="1.79418">
        <ele>94</ele>
        <time>2017-11-08T15:13:55Z</time>
      </trkpt>
      <trkpt lat="47.82047" lon="1.79414">
        <ele>93</ele>
        <time>2017-11-08T15:13:56Z</time>
      </trkpt>
      <trkpt lat="47.8205" lon="1.79409">
        <ele>94</ele>
        <time>2017-11-08T15:13:57Z</time>
      </trkpt>
      <trkpt lat="47.82053" lon="1.79405">
        <ele>94</ele>
        <time>2017-11-08T15:13:58Z</time>
      </trkpt>
      <trkpt lat="47.82057" lon="1.794">
        <ele>94</ele>
        <time>2017-11-08T15:13:59Z</time>
      </trkpt>
      <trkpt lat="47.82061" lon="1.79395">
        <ele>94</ele>
        <time>2017-11-08T15:14:00Z</time>
      </trkpt>
      <trkpt lat="47.82064" lon="1.79391">
        <ele>94</ele>
        <time>2017-11-08T15:14:01Z</time>
      </trkpt>
      <trkpt lat="47.82067" lon="1.79386">
        <ele>93</ele>
        <time>2017-11-08T15:14:02Z</time>
      </trkpt>
      <trkpt lat="47.8207" lon="1.79381">
        <ele>93</ele>
        <time>2017-11-08T15:14:03Z</time>
      </trkpt>
      <trkpt lat="47.82073" lon="1.79377">
        <ele>93</ele>
        <time>2017-11-08T15:14:04Z</time>
      </trkpt>
      <trkpt lat="47.82076" lon="1.79372">
        <ele>93</ele>
        <time>2017-11-08T15:14:05Z</time>
      </trkpt>
      <trkpt lat="47.82079" lon="1.79368">
        <ele>93</ele>
        <time>2017-11-08T15:14:06Z</time>
      </trkpt>
      <trkpt lat="47.82081" lon="1.79364">
        <ele>93</ele>
        <time>2017-11-08T15:14:07Z</time>
      </trkpt>
      <trkpt lat="47.82084" lon="1.79359">
        <ele>94</ele>
        <time>2017-11-08T15:14:08Z</time>
      </trkpt>
      <trkpt lat="47.82087" lon="1.79355">
        <ele>94</ele>
        <time>2017-11-08T15:14:09Z</time>
      </trkpt>
      <trkpt lat="47.82089" lon="1.79351">
        <ele>94</ele>
        <time>2017-11-08T15:14:10Z</time>
      </trkpt>
      <trkpt lat="47.82092" lon="1.79346">
        <ele>94</ele>
        <time>2017-11-08T15:14:11Z</time>
      </trkpt>
      <trkpt lat="47.82095" lon="1.79342">
        <ele>94</ele>
        <time>2017-11-08T15:14:12Z</time>
      </trkpt>
      <trkpt lat="47.82098" lon="1.79337">
        <ele>94</ele>
        <time>2017-11-08T15:14:13Z</time>
      </trkpt>
      <trkpt lat="47.82102" lon="1.79333">
        <ele>94</ele>
        <time>2017-11-08T15:14:14Z</time>
      </trkpt>
      <trkpt lat="47.82105" lon="1.79328">
        <ele>94</ele>
        <time>2017-11-08T15:14:15Z</time>
      </trkpt>
      <trkpt lat="47.82108" lon="1.79325">
        <ele>94</ele>
        <time>2017-11-08T15:14:16Z</time>
      </trkpt>
      <trkpt lat="47.82111" lon="1.79321">
        <ele>94</ele>
        <time>2017-11-08T15:14:17Z</time>
      </trkpt>
      <trkpt lat="47.82114" lon="1.79317">
        <ele>94</ele>
        <time>2017-11-08T15:14:18Z</time>
      </trkpt>
      <trkpt lat="47.82117" lon="1.79313">
        <ele>94</ele>
        <time>2017-11-08T15:14:19Z</time>
      </trkpt>
      <trkpt lat="47.8212" lon="1.79309">
        <ele>94</ele>
        <time>2017-11-08T15:14:20Z</time>
      </trkpt>
      <trkpt lat="47.82123" lon="1.79306">
        <ele>94</ele>
        <time>2017-11-08T15:14:21Z</time>
      </trkpt>
      <trkpt lat="47.82125" lon="1.79302">
        <ele>94</ele>
        <time>2017-11-08T15:14:22Z</time>
      </trkpt>
      <trkpt lat="47.82128" lon="1.79298">
        <ele>94</ele>
        <time>2017-11-08T15:14:23Z</time>
      </trkpt>
      <trkpt lat="47.82131" lon="1.79293">
        <ele>94</ele>
        <time>2017-11-08T15:14:24Z</time>
      </trkpt>
      <trkpt lat="47.82134" lon="1.79288">
        <ele>94</ele>
        <time>2017-11-08T15:14:25Z</time>
      </trkpt>
      <trkpt lat="47.82137" lon="1.79283">
        <ele>94</ele>
        <time>2017-11-08T15:14:26Z</time>
      </trkpt>
      <trkpt lat="47.82139" lon="1.79278">
        <ele>94</ele>
        <time>2017-11-08T15:14:27Z</time>
      </trkpt>
      <trkpt lat="47.82142" lon="1.79272">
        <ele>94</ele>
        <time>2017-11-08T15:14:28Z</time>
      </trkpt>
      <trkpt lat="47.82144" lon="1.79267">
        <ele>94</ele>
        <time>2017-11-08T15:14:29Z</time>
      </trkpt>
      <trkpt lat="47.82146" lon="1.79262">
        <ele>94</ele>
        <time>2017-11-08T15:14:30Z</time>
      </trkpt>
      <trkpt lat="47.82148" lon="1.79257">
        <ele>94</ele>
        <time>2017-11-08T15:14:31Z</time>
      </trkpt>
      <trkpt lat="47.8215" lon="1.79252">
        <ele>94</ele>
        <time>2017-11-08T15:14:32Z</time>
      </trkpt>
      <trkpt lat="47.82152" lon="1.79248">
        <ele>95</ele>
        <time>2017-11-08T15:14:33Z</time>
      </trkpt>
      <trkpt lat="47.82154" lon="1.79244">
        <ele>95</ele>
        <time>2017-11-08T15:14:34Z</time>
      </trkpt>
      <trkpt lat="47.82155" lon="1.7924">
        <ele>95</ele>
        <time>2017-11-08T15:14:35Z</time>
      </trkpt>
      <trkpt lat="47.82157" lon="1.79236">
        <ele>95</ele>
        <time>2017-11-08T15:14:36Z</time>
      </trkpt>
      <trkpt lat="47.82159" lon="1.79231">
        <ele>94</ele>
        <time>2017-11-08T15:14:37Z</time>
      </trkpt>
      <trkpt lat="47.82161" lon="1.79226">
        <ele>94</ele>
        <time>2017-11-08T15:14:38Z</time>
      </trkpt>
      <trkpt lat="47.82163" lon="1.79221">
        <ele>94</ele>
        <time>2017-11-08T15:14:39Z</time>
      </trkpt>
      <trkpt lat="47.82165" lon="1.79217">
        <ele>94</ele>
        <time>2017-11-08T15:14:40Z</time>
      </trkpt>
      <trkpt lat="47.82166" lon="1.79212">
        <ele>94</ele>
        <time>2017-11-08T15:14:41Z</time>
      </trkpt>
      <trkpt lat="47.82168" lon="1.79208">
        <ele>95</ele>
        <time>2017-11-08T15:14:42Z</time>
      </trkpt>
      <trkpt lat="47.82169" lon="1.79203">
        <ele>95</ele>
        <time>2017-11-08T15:14:43Z</time>
      </trkpt>
      <trkpt lat="47.82171" lon="1.792">
        <ele>95</ele>
        <time>2017-11-08T15:14:44Z</time>
      </trkpt>
      <trkpt lat="47.82172" lon="1.79196">
        <ele>95</ele>
        <time>2017-11-08T15:14:45Z</time>
      </trkpt>
      <trkpt lat="47.82173" lon="1.7919">
        <ele>95</ele>
        <time>2017-11-08T15:14:46Z</time>
      </trkpt>
      <trkpt lat="47.82174" lon="1.79183">
        <ele>95</ele>
        <time>2017-11-08T15:14:48Z</time>
      </trkpt>
      <trkpt lat="47.82175" lon="1.79176">
        <ele>95</ele>
        <time>2017-11-08T15:14:50Z</time>
      </trkpt>
      <trkpt lat="47.82176" lon="1.7917">
        <ele>95</ele>
        <time>2017-11-08T15:14:52Z</time>
      </trkpt>
      <trkpt lat="47.82178" lon="1.79167">
        <ele>95</ele>
        <time>2017-11-08T15:14:55Z</time>
      </trkpt>
      <trkpt lat="47.82181" lon="1.79162">
        <ele>95</ele>
        <time>2017-11-08T15:14:58Z</time>
      </trkpt>
      <trkpt lat="47.82182" lon="1.79156">
        <ele>95</ele>
        <time>2017-11-08T15:15:00Z</time>
      </trkpt>
      <trkpt lat="47.82181" lon="1.7915">
        <ele>95</ele>
        <time>2017-11-08T15:15:02Z</time>
      </trkpt>
      <trkpt lat="47.82181" lon="1.79144">
        <ele>95</ele>
        <time>2017-11-08T15:15:04Z</time>
      </trkpt>
      <trkpt lat="47.82181" lon="1.79137">
        <ele>95</ele>
        <time>2017-11-08T15:15:06Z</time>
      </trkpt>
      <trkpt lat="47.82182" lon="1.79131">
        <ele>95</ele>
        <time>2017-11-08T15:15:08Z</time>
      </trkpt>
      <trkpt lat="47.82183" lon="1.79124">
        <ele>94</ele>
        <time>2017-11-08T15:15:10Z</time>
      </trkpt>
      <trkpt lat="47.82184" lon="1.79116">
        <ele>94</ele>
        <time>2017-11-08T15:15:12Z</time>
      </trkpt>
      <trkpt lat="47.82185" lon="1.79112">
        <ele>94</ele>
        <time>2017-11-08T15:15:13Z</time>
      </trkpt>
      <trkpt lat="47.82186" lon="1.79108">
        <ele>94</ele>
        <time>2017-11-08T15:15:14Z</time>
      </trkpt>
      <trkpt lat="47.82186" lon="1.79103">
        <ele>94</ele>
        <time>2017-11-08T15:15:15Z</time>
      </trkpt>
      <trkpt lat="47.82187" lon="1.79098">
        <ele>94</ele>
        <time>2017-11-08T15:15:16Z</time>
      </trkpt>
      <trkpt lat="47.82188" lon="1.79092">
        <ele>94</ele>
        <time>2017-11-08T15:15:17Z</time>
      </trkpt>
      <trkpt lat="47.82189" lon="1.79087">
        <ele>94</ele>
        <time>2017-11-08T15:15:18Z</time>
      </trkpt>
      <trkpt lat="47.8219" lon="1.79082">
        <ele>94</ele>
        <time>2017-11-08T15:15:19Z</time>
      </trkpt>
      <trkpt lat="47.82191" lon="1.79076">
        <ele>94</ele>
        <time>2017-11-08T15:15:20Z</time>
      </trkpt>
      <trkpt lat="47.82191" lon="1.79071">
        <ele>94</ele>
        <time>2017-11-08T15:15:21Z</time>
      </trkpt>
      <trkpt lat="47.82192" lon="1.79066">
        <ele>94</ele>
        <time>2017-11-08T15:15:22Z</time>
      </trkpt>
      <trkpt lat="47.82193" lon="1.7906">
        <ele>94</ele>
        <time>2017-11-08T15:15:23Z</time>
      </trkpt>
      <trkpt lat="47.82193" lon="1.79056">
        <ele>94</ele>
        <time>2017-11-08T15:15:24Z</time>
      </trkpt>
      <trkpt lat="47.82194" lon="1.79052">
        <ele>94</ele>
        <time>2017-11-08T15:15:25Z</time>
      </trkpt>
      <trkpt lat="47.82194" lon="1.79047">
        <ele>94</ele>
        <time>2017-11-08T15:15:26Z</time>
      </trkpt>
      <trkpt lat="47.82194" lon="1.79042">
        <ele>94</ele>
        <time>2017-11-08T15:15:27Z</time>
      </trkpt>
      <trkpt lat="47.82195" lon="1.79037">
        <ele>94</ele>
        <time>2017-11-08T15:15:28Z</time>
      </trkpt>
      <trkpt lat="47.82196" lon="1.79033">
        <ele>94</ele>
        <time>2017-11-08T15:15:29Z</time>
      </trkpt>
      <trkpt lat="47.82196" lon="1.79028">
        <ele>94</ele>
        <time>2017-11-08T15:15:30Z</time>
      </trkpt>
      <trkpt lat="47.82196" lon="1.79023">
        <ele>94</ele>
        <time>2017-11-08T15:15:31Z</time>
      </trkpt>
      <trkpt lat="47.82197" lon="1.79018">
        <ele>94</ele>
        <time>2017-11-08T15:15:32Z</time>
      </trkpt>
      <trkpt lat="47.82198" lon="1.79013">
        <ele>94</ele>
        <time>2017-11-08T15:15:33Z</time>
      </trkpt>
      <trkpt lat="47.82198" lon="1.79008">
        <ele>94</ele>
        <time>2017-11-08T15:15:34Z</time>
      </trkpt>
      <trkpt lat="47.82198" lon="1.79003">
        <ele>94</ele>
        <time>2017-11-08T15:15:35Z</time>
      </trkpt>
      <trkpt lat="47.82198" lon="1.78998">
        <ele>94</ele>
        <time>2017-11-08T15:15:36Z</time>
      </trkpt>
      <trkpt lat="47.82199" lon="1.78993">
        <ele>94</ele>
        <time>2017-11-08T15:15:37Z</time>
      </trkpt>
      <trkpt lat="47.82199" lon="1.78988">
        <ele>94</ele>
        <time>2017-11-08T15:15:38Z</time>
      </trkpt>
      <trkpt lat="47.82199" lon="1.78983">
        <ele>94</ele>
        <time>2017-11-08T15:15:39Z</time>
      </trkpt>
      <trkpt lat="47.82199" lon="1.78978">
        <ele>94</ele>
        <time>2017-11-08T15:15:40Z</time>
      </trkpt>
      <trkpt lat="47.82199" lon="1.78972">
        <ele>94</ele>
        <time>2017-11-08T15:15:41Z</time>
      </trkpt>
      <trkpt lat="47.82199" lon="1.78967">
        <ele>94</ele>
        <time>2017-11-08T15:15:42Z</time>
      </trkpt>
      <trkpt lat="47.82199" lon="1.78962">
        <ele>94</ele>
        <time>2017-11-08T15:15:43Z</time>
      </trkpt>
      <trkpt lat="47.82199" lon="1.78957">
        <ele>94</ele>
        <time>2017-11-08T15:15:44Z</time>
      </trkpt>
      <trkpt lat="47.82199" lon="1.78952">
        <ele>94</ele>
        <time>2017-11-08T15:15:45Z</time>
      </trkpt>
      <trkpt lat="47.82199" lon="1.78947">
        <ele>94</ele>
        <time>2017-11-08T15:15:46Z</time>
      </trkpt>
      <trkpt lat="47.82199" lon="1.78941">
        <ele>94</ele>
        <time>2017-11-08T15:15:47Z</time>
      </trkpt>
      <trkpt lat="47.82199" lon="1.78935">
        <ele>94</ele>
        <time>2017-11-08T15:15:48Z</time>
      </trkpt>
      <trkpt lat="47.82198" lon="1.7893">
        <ele>94</ele>
        <time>2017-11-08T15:15:49Z</time>
      </trkpt>
      <trkpt lat="47.82198" lon="1.78923">
        <ele>94</ele>
        <time>2017-11-08T15:15:50Z</time>
      </trkpt>
      <trkpt lat="47.82198" lon="1.78917">
        <ele>94</ele>
        <time>2017-11-08T15:15:51Z</time>
      </trkpt>
      <trkpt lat="47.82197" lon="1.78911">
        <ele>94</ele>
        <time>2017-11-08T15:15:52Z</time>
      </trkpt>
      <trkpt lat="47.82197" lon="1.78905">
        <ele>94</ele>
        <time>2017-11-08T15:15:53Z</time>
      </trkpt>
      <trkpt lat="47.82196" lon="1.78899">
        <ele>94</ele>
        <time>2017-11-08T15:15:54Z</time>
      </trkpt>
      <trkpt lat="47.82195" lon="1.78893">
        <ele>94</ele>
        <time>2017-11-08T15:15:55Z</time>
      </trkpt>
      <trkpt lat="47.82194" lon="1.78887">
        <ele>94</ele>
        <time>2017-11-08T15:15:56Z</time>
      </trkpt>
      <trkpt lat="47.82192" lon="1.78882">
        <ele>94</ele>
        <time>2017-11-08T15:15:57Z</time>
      </trkpt>
      <trkpt lat="47.82191" lon="1.78877">
        <ele>94</ele>
        <time>2017-11-08T15:15:58Z</time>
      </trkpt>
      <trkpt lat="47.8219" lon="1.78872">
        <ele>93</ele>
        <time>2017-11-08T15:15:59Z</time>
      </trkpt>
      <trkpt lat="47.82189" lon="1.78866">
        <ele>93</ele>
        <time>2017-11-08T15:16:00Z</time>
      </trkpt>
      <trkpt lat="47.82187" lon="1.7886">
        <ele>93</ele>
        <time>2017-11-08T15:16:01Z</time>
      </trkpt>
      <trkpt lat="47.82186" lon="1.78855">
        <ele>93</ele>
        <time>2017-11-08T15:16:02Z</time>
      </trkpt>
      <trkpt lat="47.82184" lon="1.78848">
        <ele>93</ele>
        <time>2017-11-08T15:16:03Z</time>
      </trkpt>
      <trkpt lat="47.82183" lon="1.78841">
        <ele>93</ele>
        <time>2017-11-08T15:16:04Z</time>
      </trkpt>
      <trkpt lat="47.82183" lon="1.78834">
        <ele>93</ele>
        <time>2017-11-08T15:16:05Z</time>
      </trkpt>
      <trkpt lat="47.82183" lon="1.78827">
        <ele>93</ele>
        <time>2017-11-08T15:16:06Z</time>
      </trkpt>
      <trkpt lat="47.82183" lon="1.7882">
        <ele>93</ele>
        <time>2017-11-08T15:16:07Z</time>
      </trkpt>
      <trkpt lat="47.82183" lon="1.78813">
        <ele>93</ele>
        <time>2017-11-08T15:16:08Z</time>
      </trkpt>
      <trkpt lat="47.82183" lon="1.78808">
        <ele>93</ele>
        <time>2017-11-08T15:16:09Z</time>
      </trkpt>
      <trkpt lat="47.82184" lon="1.78801">
        <ele>93</ele>
        <time>2017-11-08T15:16:10Z</time>
      </trkpt>
      <trkpt lat="47.82185" lon="1.78795">
        <ele>93</ele>
        <time>2017-11-08T15:16:11Z</time>
      </trkpt>
      <trkpt lat="47.82186" lon="1.78788">
        <ele>93</ele>
        <time>2017-11-08T15:16:12Z</time>
      </trkpt>
      <trkpt lat="47.82187" lon="1.7878">
        <ele>93</ele>
        <time>2017-11-08T15:16:13Z</time>
      </trkpt>
      <trkpt lat="47.82188" lon="1.78773">
        <ele>93</ele>
        <time>2017-11-08T15:16:14Z</time>
      </trkpt>
      <trkpt lat="47.82189" lon="1.78766">
        <ele>93</ele>
        <time>2017-11-08T15:16:15Z</time>
      </trkpt>
      <trkpt lat="47.82191" lon="1.7876">
        <ele>93</ele>
        <time>2017-11-08T15:16:16Z</time>
      </trkpt>
      <trkpt lat="47.82192" lon="1.78752">
        <ele>93</ele>
        <time>2017-11-08T15:16:17Z</time>
      </trkpt>
      <trkpt lat="47.82193" lon="1.78746">
        <ele>93</ele>
        <time>2017-11-08T15:16:18Z</time>
      </trkpt>
      <trkpt lat="47.82194" lon="1.78739">
        <ele>93</ele>
        <time>2017-11-08T15:16:19Z</time>
      </trkpt>
      <trkpt lat="47.82195" lon="1.78732">
        <ele>93</ele>
        <time>2017-11-08T15:16:20Z</time>
      </trkpt>
      <trkpt lat="47.82196" lon="1.78725">
        <ele>93</ele>
        <time>2017-11-08T15:16:21Z</time>
      </trkpt>
      <trkpt lat="47.82197" lon="1.78718">
        <ele>93</ele>
        <time>2017-11-08T15:16:22Z</time>
      </trkpt>
      <trkpt lat="47.82198" lon="1.78712">
        <ele>93</ele>
        <time>2017-11-08T15:16:23Z</time>
      </trkpt>
      <trkpt lat="47.82199" lon="1.78705">
        <ele>93</ele>
        <time>2017-11-08T15:16:24Z</time>
      </trkpt>
      <trkpt lat="47.822" lon="1.78699">
        <ele>93</ele>
        <time>2017-11-08T15:16:25Z</time>
      </trkpt>
      <trkpt lat="47.82201" lon="1.78692">
        <ele>93</ele>
        <time>2017-11-08T15:16:26Z</time>
      </trkpt>
      <trkpt lat="47.82202" lon="1.78686">
        <ele>93</ele>
        <time>2017-11-08T15:16:27Z</time>
      </trkpt>
      <trkpt lat="47.82203" lon="1.78679">
        <ele>93</ele>
        <time>2017-11-08T15:16:28Z</time>
      </trkpt>
      <trkpt lat="47.82204" lon="1.78672">
        <ele>93</ele>
        <time>2017-11-08T15:16:29Z</time>
      </trkpt>
      <trkpt lat="47.82205" lon="1.78666">
        <ele>93</ele>
        <time>2017-11-08T15:16:30Z</time>
      </trkpt>
      <trkpt lat="47.82206" lon="1.78659">
        <ele>93</ele>
        <time>2017-11-08T15:16:31Z</time>
      </trkpt>
      <trkpt lat="47.82207" lon="1.78653">
        <ele>93</ele>
        <time>2017-11-08T15:16:32Z</time>
      </trkpt>
      <trkpt lat="47.82207" lon="1.78646">
        <ele>93</ele>
        <time>2017-11-08T15:16:33Z</time>
      </trkpt>
      <trkpt lat="47.82208" lon="1.7864">
        <ele>93</ele>
        <time>2017-11-08T15:16:34Z</time>
      </trkpt>
      <trkpt lat="47.82209" lon="1.78634">
        <ele>94</ele>
        <time>2017-11-08T15:16:35Z</time>
      </trkpt>
      <trkpt lat="47.8221" lon="1.78628">
        <ele>94</ele>
        <time>2017-11-08T15:16:36Z</time>
      </trkpt>
      <trkpt lat="47.82211" lon="1.78621">
        <ele>94</ele>
        <time>2017-11-08T15:16:37Z</time>
      </trkpt>
      <trkpt lat="47.82212" lon="1.78614">
        <ele>94</ele>
        <time>2017-11-08T15:16:38Z</time>
      </trkpt>
      <trkpt lat="47.82213" lon="1.78608">
        <ele>94</ele>
        <time>2017-11-08T15:16:39Z</time>
      </trkpt>
      <trkpt lat="47.82215" lon="1.78601">
        <ele>94</ele>
        <time>2017-11-08T15:16:40Z</time>
      </trkpt>
      <trkpt lat="47.82216" lon="1.78595">
        <ele>94</ele>
        <time>2017-11-08T15:16:41Z</time>
      </trkpt>
      <trkpt lat="47.82217" lon="1.78589">
        <ele>94</ele>
        <time>2017-11-08T15:16:42Z</time>
      </trkpt>
      <trkpt lat="47.82219" lon="1.78582">
        <ele>94</ele>
        <time>2017-11-08T15:16:43Z</time>
      </trkpt>
      <trkpt lat="47.8222" lon="1.78577">
        <ele>94</ele>
        <time>2017-11-08T15:16:44Z</time>
      </trkpt>
      <trkpt lat="47.82222" lon="1.78571">
        <ele>94</ele>
        <time>2017-11-08T15:16:45Z</time>
      </trkpt>
      <trkpt lat="47.82224" lon="1.78566">
        <ele>94</ele>
        <time>2017-11-08T15:16:46Z</time>
      </trkpt>
      <trkpt lat="47.82225" lon="1.78559">
        <ele>94</ele>
        <time>2017-11-08T15:16:47Z</time>
      </trkpt>
      <trkpt lat="47.82226" lon="1.78553">
        <ele>94</ele>
        <time>2017-11-08T15:16:48Z</time>
      </trkpt>
      <trkpt lat="47.82228" lon="1.78547">
        <ele>94</ele>
        <time>2017-11-08T15:16:49Z</time>
      </trkpt>
      <trkpt lat="47.8223" lon="1.78542">
        <ele>94</ele>
        <time>2017-11-08T15:16:50Z</time>
      </trkpt>
      <trkpt lat="47.82232" lon="1.78535">
        <ele>94</ele>
        <time>2017-11-08T15:16:51Z</time>
      </trkpt>
      <trkpt lat="47.82234" lon="1.78529">
        <ele>94</ele>
        <time>2017-11-08T15:16:52Z</time>
      </trkpt>
      <trkpt lat="47.82237" lon="1.78524">
        <ele>94</ele>
        <time>2017-11-08T15:16:53Z</time>
      </trkpt>
      <trkpt lat="47.82239" lon="1.78519">
        <ele>94</ele>
        <time>2017-11-08T15:16:54Z</time>
      </trkpt>
      <trkpt lat="47.82242" lon="1.78514">
        <ele>94</ele>
        <time>2017-11-08T15:16:55Z</time>
      </trkpt>
      <trkpt lat="47.82245" lon="1.78509">
        <ele>94</ele>
        <time>2017-11-08T15:16:56Z</time>
      </trkpt>
      <trkpt lat="47.82248" lon="1.78504">
        <ele>94</ele>
        <time>2017-11-08T15:16:57Z</time>
      </trkpt>
      <trkpt lat="47.82251" lon="1.78499">
        <ele>94</ele>
        <time>2017-11-08T15:16:58Z</time>
      </trkpt>
      <trkpt lat="47.82253" lon="1.78494">
        <ele>94</ele>
        <time>2017-11-08T15:16:59Z</time>
      </trkpt>
      <trkpt lat="47.82256" lon="1.78488">
        <ele>94</ele>
        <time>2017-11-08T15:17:00Z</time>
      </trkpt>
      <trkpt lat="47.82259" lon="1.78483">
        <ele>94</ele>
        <time>2017-11-08T15:17:01Z</time>
      </trkpt>
      <trkpt lat="47.82262" lon="1.78477">
        <ele>94</ele>
        <time>2017-11-08T15:17:02Z</time>
      </trkpt>
      <trkpt lat="47.82265" lon="1.78471">
        <ele>94</ele>
        <time>2017-11-08T15:17:03Z</time>
      </trkpt>
      <trkpt lat="47.82268" lon="1.78466">
        <ele>94</ele>
        <time>2017-11-08T15:17:04Z</time>
      </trkpt>
      <trkpt lat="47.82271" lon="1.78461">
        <ele>94</ele>
        <time>2017-11-08T15:17:05Z</time>
      </trkpt>
      <trkpt lat="47.82273" lon="1.78455">
        <ele>94</ele>
        <time>2017-11-08T15:17:06Z</time>
      </trkpt>
      <trkpt lat="47.82276" lon="1.7845">
        <ele>94</ele>
        <time>2017-11-08T15:17:07Z</time>
      </trkpt>
      <trkpt lat="47.82279" lon="1.78444">
        <ele>94</ele>
        <time>2017-11-08T15:17:08Z</time>
      </trkpt>
      <trkpt lat="47.82281" lon="1.78438">
        <ele>94</ele>
        <time>2017-11-08T15:17:09Z</time>
      </trkpt>
      <trkpt lat="47.82284" lon="1.78432">
        <ele>94</ele>
        <time>2017-11-08T15:17:10Z</time>
      </trkpt>
      <trkpt lat="47.82287" lon="1.78426">
        <ele>94</ele>
        <time>2017-11-08T15:17:11Z</time>
      </trkpt>
      <trkpt lat="47.82289" lon="1.7842">
        <ele>94</ele>
        <time>2017-11-08T15:17:12Z</time>
      </trkpt>
      <trkpt lat="47.82292" lon="1.78414">
        <ele>94</ele>
        <time>2017-11-08T15:17:13Z</time>
      </trkpt>
      <trkpt lat="47.82294" lon="1.78407">
        <ele>94</ele>
        <time>2017-11-08T15:17:14Z</time>
      </trkpt>
      <trkpt lat="47.82297" lon="1.78401">
        <ele>94</ele>
        <time>2017-11-08T15:17:15Z</time>
      </trkpt>
      <trkpt lat="47.82299" lon="1.78395">
        <ele>94</ele>
        <time>2017-11-08T15:17:16Z</time>
      </trkpt>
      <trkpt lat="47.82302" lon="1.78389">
        <ele>94</ele>
        <time>2017-11-08T15:17:17Z</time>
      </trkpt>
      <trkpt lat="47.82304" lon="1.78382">
        <ele>94</ele>
        <time>2017-11-08T15:17:18Z</time>
      </trkpt>
      <trkpt lat="47.82307" lon="1.78376">
        <ele>94</ele>
        <time>2017-11-08T15:17:19Z</time>
      </trkpt>
      <trkpt lat="47.82309" lon="1.7837">
        <ele>94</ele>
        <time>2017-11-08T15:17:20Z</time>
      </trkpt>
      <trkpt lat="47.82311" lon="1.78364">
        <ele>94</ele>
        <time>2017-11-08T15:17:21Z</time>
      </trkpt>
      <trkpt lat="47.82312" lon="1.78359">
        <ele>94</ele>
        <time>2017-11-08T15:17:22Z</time>
      </trkpt>
      <trkpt lat="47.82314" lon="1.78354">
        <ele>94</ele>
        <time>2017-11-08T15:17:23Z</time>
      </trkpt>
      <trkpt lat="47.82315" lon="1.78347">
        <ele>94</ele>
        <time>2017-11-08T15:17:24Z</time>
      </trkpt>
      <trkpt lat="47.82317" lon="1.78341">
        <ele>94</ele>
        <time>2017-11-08T15:17:25Z</time>
      </trkpt>
      <trkpt lat="47.82319" lon="1.78334">
        <ele>94</ele>
        <time>2017-11-08T15:17:26Z</time>
      </trkpt>
      <trkpt lat="47.82321" lon="1.78328">
        <ele>94</ele>
        <time>2017-11-08T15:17:27Z</time>
      </trkpt>
      <trkpt lat="47.82324" lon="1.78322">
        <ele>94</ele>
        <time>2017-11-08T15:17:28Z</time>
      </trkpt>
      <trkpt lat="47.82327" lon="1.78316">
        <ele>94</ele>
        <time>2017-11-08T15:17:29Z</time>
      </trkpt>
      <trkpt lat="47.8233" lon="1.78311">
        <ele>94</ele>
        <time>2017-11-08T15:17:30Z</time>
      </trkpt>
      <trkpt lat="47.82333" lon="1.78306">
        <ele>94</ele>
        <time>2017-11-08T15:17:31Z</time>
      </trkpt>
      <trkpt lat="47.82335" lon="1.78302">
        <ele>95</ele>
        <time>2017-11-08T15:17:32Z</time>
      </trkpt>
      <trkpt lat="47.82335" lon="1.78296">
        <ele>95</ele>
        <time>2017-11-08T15:17:33Z</time>
      </trkpt>
      <trkpt lat="47.82333" lon="1.78291">
        <ele>94</ele>
        <time>2017-11-08T15:17:34Z</time>
      </trkpt>
      <trkpt lat="47.82331" lon="1.78286">
        <ele>94</ele>
        <time>2017-11-08T15:17:35Z</time>
      </trkpt>
      <trkpt lat="47.82329" lon="1.7828">
        <ele>94</ele>
        <time>2017-11-08T15:17:36Z</time>
      </trkpt>
      <trkpt lat="47.82327" lon="1.78275">
        <ele>94</ele>
        <time>2017-11-08T15:17:37Z</time>
      </trkpt>
      <trkpt lat="47.82325" lon="1.7827">
        <ele>95</ele>
        <time>2017-11-08T15:17:38Z</time>
      </trkpt>
      <trkpt lat="47.82322" lon="1.78265">
        <ele>95</ele>
        <time>2017-11-08T15:17:39Z</time>
      </trkpt>
      <trkpt lat="47.8232" lon="1.7826">
        <ele>95</ele>
        <time>2017-11-08T15:17:40Z</time>
      </trkpt>
      <trkpt lat="47.82318" lon="1.78256">
        <ele>95</ele>
        <time>2017-11-08T15:17:41Z</time>
      </trkpt>
      <trkpt lat="47.82317" lon="1.78252">
        <ele>95</ele>
        <time>2017-11-08T15:17:42Z</time>
      </trkpt>
      <trkpt lat="47.82315" lon="1.78247">
        <ele>95</ele>
        <time>2017-11-08T15:17:43Z</time>
      </trkpt>
      <trkpt lat="47.82313" lon="1.78243">
        <ele>95</ele>
        <time>2017-11-08T15:17:44Z</time>
      </trkpt>
      <trkpt lat="47.82311" lon="1.78237">
        <ele>95</ele>
        <time>2017-11-08T15:17:45Z</time>
      </trkpt>
      <trkpt lat="47.82309" lon="1.78232">
        <ele>95</ele>
        <time>2017-11-08T15:17:46Z</time>
      </trkpt>
      <trkpt lat="47.82307" lon="1.78227">
        <ele>95</ele>
        <time>2017-11-08T15:17:47Z</time>
      </trkpt>
      <trkpt lat="47.82305" lon="1.78223">
        <ele>95</ele>
        <time>2017-11-08T15:17:48Z</time>
      </trkpt>
      <trkpt lat="47.82303" lon="1.78218">
        <ele>95</ele>
        <time>2017-11-08T15:17:49Z</time>
      </trkpt>
      <trkpt lat="47.82301" lon="1.78214">
        <ele>95</ele>
        <time>2017-11-08T15:17:50Z</time>
      </trkpt>
      <trkpt lat="47.82299" lon="1.7821">
        <ele>95</ele>
        <time>2017-11-08T15:17:51Z</time>
      </trkpt>
      <trkpt lat="47.82297" lon="1.78205">
        <ele>95</ele>
        <time>2017-11-08T15:17:52Z</time>
      </trkpt>
      <trkpt lat="47.82295" lon="1.78201">
        <ele>95</ele>
        <time>2017-11-08T15:17:53Z</time>
      </trkpt>
      <trkpt lat="47.82293" lon="1.78196">
        <ele>95</ele>
        <time>2017-11-08T15:17:54Z</time>
      </trkpt>
      <trkpt lat="47.82291" lon="1.78191">
        <ele>95</ele>
        <time>2017-11-08T15:17:55Z</time>
      </trkpt>
      <trkpt lat="47.8229" lon="1.78187">
        <ele>95</ele>
        <time>2017-11-08T15:17:56Z</time>
      </trkpt>
      <trkpt lat="47.82288" lon="1.78182">
        <ele>95</ele>
        <time>2017-11-08T15:17:57Z</time>
      </trkpt>
      <trkpt lat="47.82287" lon="1.78177">
        <ele>95</ele>
        <time>2017-11-08T15:17:58Z</time>
      </trkpt>
      <trkpt lat="47.82285" lon="1.78173">
        <ele>96</ele>
        <time>2017-11-08T15:17:59Z</time>
      </trkpt>
      <trkpt lat="47.82283" lon="1.78169">
        <ele>96</ele>
        <time>2017-11-08T15:18:00Z</time>
      </trkpt>
      <trkpt lat="47.82281" lon="1.78165">
        <ele>96</ele>
        <time>2017-11-08T15:18:01Z</time>
      </trkpt>
      <trkpt lat="47.82279" lon="1.78161">
        <ele>96</ele>
        <time>2017-11-08T15:18:02Z</time>
      </trkpt>
      <trkpt lat="47.82277" lon="1.78158">
        <ele>96</ele>
        <time>2017-11-08T15:18:03Z</time>
      </trkpt>
      <trkpt lat="47.82275" lon="1.78154">
        <ele>96</ele>
        <time>2017-11-08T15:18:04Z</time>
      </trkpt>
      <trkpt lat="47.82274" lon="1.7815">
        <ele>96</ele>
        <time>2017-11-08T15:18:05Z</time>
      </trkpt>
      <trkpt lat="47.82272" lon="1.78145">
        <ele>96</ele>
        <time>2017-11-08T15:18:06Z</time>
      </trkpt>
      <trkpt lat="47.8227" lon="1.78141">
        <ele>96</ele>
        <time>2017-11-08T15:18:07Z</time>
      </trkpt>
      <trkpt lat="47.82269" lon="1.78137">
        <ele>96</ele>
        <time>2017-11-08T15:18:08Z</time>
      </trkpt>
      <trkpt lat="47.82267" lon="1.78132">
        <ele>96</ele>
        <time>2017-11-08T15:18:09Z</time>
      </trkpt>
      <trkpt lat="47.82266" lon="1.78128">
        <ele>96</ele>
        <time>2017-11-08T15:18:10Z</time>
      </trkpt>
      <trkpt lat="47.82264" lon="1.78124">
        <ele>96</ele>
        <time>2017-11-08T15:18:11Z</time>
      </trkpt>
      <trkpt lat="47.82262" lon="1.7812">
        <ele>96</ele>
        <time>2017-11-08T15:18:12Z</time>
      </trkpt>
      <trkpt lat="47.82261" lon="1.78115">
        <ele>96</ele>
        <time>2017-11-08T15:18:13Z</time>
      </trkpt>
      <trkpt lat="47.82259" lon="1.78111">
        <ele>96</ele>
        <time>2017-11-08T15:18:14Z</time>
      </trkpt>
      <trkpt lat="47.82257" lon="1.78107">
        <ele>96</ele>
        <time>2017-11-08T15:18:15Z</time>
      </trkpt>
      <trkpt lat="47.82255" lon="1.78102">
        <ele>96</ele>
        <time>2017-11-08T15:18:16Z</time>
      </trkpt>
      <trkpt lat="47.82253" lon="1.78098">
        <ele>96</ele>
        <time>2017-11-08T15:18:17Z</time>
      </trkpt>
      <trkpt lat="47.82251" lon="1.78094">
        <ele>96</ele>
        <time>2017-11-08T15:18:18Z</time>
      </trkpt>
      <trkpt lat="47.82249" lon="1.7809">
        <ele>96</ele>
        <time>2017-11-08T15:18:19Z</time>
      </trkpt>
      <trkpt lat="47.82247" lon="1.78086">
        <ele>96</ele>
        <time>2017-11-08T15:18:20Z</time>
      </trkpt>
      <trkpt lat="47.82246" lon="1.78081">
        <ele>96</ele>
        <time>2017-11-08T15:18:21Z</time>
      </trkpt>
      <trkpt lat="47.82244" lon="1.78077">
        <ele>95</ele>
        <time>2017-11-08T15:18:22Z</time>
      </trkpt>
      <trkpt lat="47.82242" lon="1.78072">
        <ele>95</ele>
        <time>2017-11-08T15:18:23Z</time>
      </trkpt>
      <trkpt lat="47.8224" lon="1.78068">
        <ele>95</ele>
        <time>2017-11-08T15:18:24Z</time>
      </trkpt>
      <trkpt lat="47.82238" lon="1.78063">
        <ele>95</ele>
        <time>2017-11-08T15:18:25Z</time>
      </trkpt>
      <trkpt lat="47.82236" lon="1.78059">
        <ele>95</ele>
        <time>2017-11-08T15:18:26Z</time>
      </trkpt>
      <trkpt lat="47.82234" lon="1.78054">
        <ele>94</ele>
        <time>2017-11-08T15:18:27Z</time>
      </trkpt>
      <trkpt lat="47.82232" lon="1.78049">
        <ele>94</ele>
        <time>2017-11-08T15:18:28Z</time>
      </trkpt>
      <trkpt lat="47.82231" lon="1.78044">
        <ele>94</ele>
        <time>2017-11-08T15:18:29Z</time>
      </trkpt>
      <trkpt lat="47.82229" lon="1.78039">
        <ele>94</ele>
        <time>2017-11-08T15:18:30Z</time>
      </trkpt>
      <trkpt lat="47.82227" lon="1.78035">
        <ele>94</ele>
        <time>2017-11-08T15:18:31Z</time>
      </trkpt>
      <trkpt lat="47.82225" lon="1.78029">
        <ele>94</ele>
        <time>2017-11-08T15:18:32Z</time>
      </trkpt>
      <trkpt lat="47.82224" lon="1.78025">
        <ele>94</ele>
        <time>2017-11-08T15:18:33Z</time>
      </trkpt>
      <trkpt lat="47.82222" lon="1.78019">
        <ele>94</ele>
        <time>2017-11-08T15:18:34Z</time>
      </trkpt>
      <trkpt lat="47.8222" lon="1.78015">
        <ele>94</ele>
        <time>2017-11-08T15:18:35Z</time>
      </trkpt>
      <trkpt lat="47.82218" lon="1.7801">
        <ele>94</ele>
        <time>2017-11-08T15:18:36Z</time>
      </trkpt>
      <trkpt lat="47.82216" lon="1.78005">
        <ele>94</ele>
        <time>2017-11-08T15:18:37Z</time>
      </trkpt>
      <trkpt lat="47.82215" lon="1.78">
        <ele>94</ele>
        <time>2017-11-08T15:18:38Z</time>
      </trkpt>
      <trkpt lat="47.82213" lon="1.77996">
        <ele>94</ele>
        <time>2017-11-08T15:18:39Z</time>
      </trkpt>
      <trkpt lat="47.82211" lon="1.77992">
        <ele>94</ele>
        <time>2017-11-08T15:18:40Z</time>
      </trkpt>
      <trkpt lat="47.82209" lon="1.77987">
        <ele>94</ele>
        <time>2017-11-08T15:18:41Z</time>
      </trkpt>
      <trkpt lat="47.82208" lon="1.77983">
        <ele>93</ele>
        <time>2017-11-08T15:18:42Z</time>
      </trkpt>
      <trkpt lat="47.82206" lon="1.77979">
        <ele>93</ele>
        <time>2017-11-08T15:18:43Z</time>
      </trkpt>
      <trkpt lat="47.82204" lon="1.77974">
        <ele>93</ele>
        <time>2017-11-08T15:18:44Z</time>
      </trkpt>
      <trkpt lat="47.82202" lon="1.7797">
        <ele>93</ele>
        <time>2017-11-08T15:18:45Z</time>
      </trkpt>
      <trkpt lat="47.822" lon="1.77966">
        <ele>93</ele>
        <time>2017-11-08T15:18:46Z</time>
      </trkpt>
      <trkpt lat="47.82198" lon="1.77963">
        <ele>93</ele>
        <time>2017-11-08T15:18:47Z</time>
      </trkpt>
      <trkpt lat="47.82196" lon="1.77959">
        <ele>93</ele>
        <time>2017-11-08T15:18:48Z</time>
      </trkpt>
      <trkpt lat="47.82194" lon="1.77956">
        <ele>93</ele>
        <time>2017-11-08T15:18:49Z</time>
      </trkpt>
      <trkpt lat="47.82188" lon="1.77956">
        <ele>93</ele>
        <time>2017-11-08T15:18:51Z</time>
      </trkpt>
      <trkpt lat="47.82185" lon="1.77958">
        <ele>93</ele>
        <time>2017-11-08T15:18:52Z</time>
      </trkpt>
      <trkpt lat="47.82182" lon="1.7796">
        <ele>93</ele>
        <time>2017-11-08T15:18:53Z</time>
      </trkpt>
      <trkpt lat="47.82178" lon="1.77962">
        <ele>93</ele>
        <time>2017-11-08T15:18:54Z</time>
      </trkpt>
      <trkpt lat="47.82174" lon="1.77965">
        <ele>93</ele>
        <time>2017-11-08T15:18:55Z</time>
      </trkpt>
      <trkpt lat="47.8217" lon="1.77967">
        <ele>93</ele>
        <time>2017-11-08T15:18:56Z</time>
      </trkpt>
      <trkpt lat="47.82165" lon="1.77969">
        <ele>92</ele>
        <time>2017-11-08T15:18:57Z</time>
      </trkpt>
      <trkpt lat="47.82161" lon="1.7797">
        <ele>92</ele>
        <time>2017-11-08T15:18:58Z</time>
      </trkpt>
      <trkpt lat="47.82157" lon="1.77972">
        <ele>92</ele>
        <time>2017-11-08T15:18:59Z</time>
      </trkpt>
      <trkpt lat="47.82153" lon="1.77974">
        <ele>92</ele>
        <time>2017-11-08T15:19:00Z</time>
      </trkpt>
      <trkpt lat="47.82149" lon="1.77976">
        <ele>92</ele>
        <time>2017-11-08T15:19:01Z</time>
      </trkpt>
      <trkpt lat="47.82145" lon="1.77979">
        <ele>92</ele>
        <time>2017-11-08T15:19:02Z</time>
      </trkpt>
      <trkpt lat="47.82141" lon="1.77981">
        <ele>92</ele>
        <time>2017-11-08T15:19:03Z</time>
      </trkpt>
      <trkpt lat="47.82137" lon="1.77983">
        <ele>92</ele>
        <time>2017-11-08T15:19:04Z</time>
      </trkpt>
      <trkpt lat="47.82133" lon="1.77985">
        <ele>92</ele>
        <time>2017-11-08T15:19:05Z</time>
      </trkpt>
      <trkpt lat="47.82129" lon="1.77987">
        <ele>92</ele>
        <time>2017-11-08T15:19:06Z</time>
      </trkpt>
      <trkpt lat="47.82126" lon="1.77988">
        <ele>92</ele>
        <time>2017-11-08T15:19:07Z</time>
      </trkpt>
      <trkpt lat="47.82122" lon="1.77989">
        <ele>92</ele>
        <time>2017-11-08T15:19:08Z</time>
      </trkpt>
      <trkpt lat="47.82118" lon="1.7799">
        <ele>92</ele>
        <time>2017-11-08T15:19:09Z</time>
      </trkpt>
      <trkpt lat="47.82115" lon="1.7799">
        <ele>91</ele>
        <time>2017-11-08T15:19:10Z</time>
      </trkpt>
      <trkpt lat="47.82111" lon="1.77989">
        <ele>91</ele>
        <time>2017-11-08T15:19:11Z</time>
      </trkpt>
      <trkpt lat="47.82108" lon="1.77987">
        <ele>91</ele>
        <time>2017-11-08T15:19:12Z</time>
      </trkpt>
      <trkpt lat="47.82105" lon="1.77984">
        <ele>91</ele>
        <time>2017-11-08T15:19:13Z</time>
      </trkpt>
      <trkpt lat="47.82103" lon="1.77981">
        <ele>91</ele>
        <time>2017-11-08T15:19:14Z</time>
      </trkpt>
      <trkpt lat="47.82102" lon="1.77976">
        <ele>91</ele>
        <time>2017-11-08T15:19:15Z</time>
      </trkpt>
      <trkpt lat="47.82101" lon="1.77971">
        <ele>91</ele>
        <time>2017-11-08T15:19:16Z</time>
      </trkpt>
      <trkpt lat="47.821" lon="1.77967">
        <ele>91</ele>
        <time>2017-11-08T15:19:17Z</time>
      </trkpt>
      <trkpt lat="47.82099" lon="1.77962">
        <ele>91</ele>
        <time>2017-11-08T15:19:18Z</time>
      </trkpt>
      <trkpt lat="47.82098" lon="1.77956">
        <ele>91</ele>
        <time>2017-11-08T15:19:19Z</time>
      </trkpt>
      <trkpt lat="47.82098" lon="1.77951">
        <ele>91</ele>
        <time>2017-11-08T15:19:20Z</time>
      </trkpt>
      <trkpt lat="47.82097" lon="1.77946">
        <ele>91</ele>
        <time>2017-11-08T15:19:21Z</time>
      </trkpt>
      <trkpt lat="47.82097" lon="1.77941">
        <ele>91</ele>
        <time>2017-11-08T15:19:22Z</time>
      </trkpt>
      <trkpt lat="47.82096" lon="1.77935">
        <ele>91</ele>
        <time>2017-11-08T15:19:23Z</time>
      </trkpt>
      <trkpt lat="47.82096" lon="1.7793">
        <ele>91</ele>
        <time>2017-11-08T15:19:24Z</time>
      </trkpt>
      <trkpt lat="47.82096" lon="1.77925">
        <ele>91</ele>
        <time>2017-11-08T15:19:25Z</time>
      </trkpt>
      <trkpt lat="47.82095" lon="1.77919">
        <ele>91</ele>
        <time>2017-11-08T15:19:26Z</time>
      </trkpt>
      <trkpt lat="47.82094" lon="1.77914">
        <ele>92</ele>
        <time>2017-11-08T15:19:27Z</time>
      </trkpt>
      <trkpt lat="47.82094" lon="1.77908">
        <ele>92</ele>
        <time>2017-11-08T15:19:28Z</time>
      </trkpt>
      <trkpt lat="47.82093" lon="1.77903">
        <ele>92</ele>
        <time>2017-11-08T15:19:29Z</time>
      </trkpt>
      <trkpt lat="47.82093" lon="1.77898">
        <ele>92</ele>
        <time>2017-11-08T15:19:30Z</time>
      </trkpt>
      <trkpt lat="47.82092" lon="1.77893">
        <ele>92</ele>
        <time>2017-11-08T15:19:31Z</time>
      </trkpt>
      <trkpt lat="47.82092" lon="1.77889">
        <ele>92</ele>
        <time>2017-11-08T15:19:32Z</time>
      </trkpt>
      <trkpt lat="47.82091" lon="1.77881">
        <ele>92</ele>
        <time>2017-11-08T15:19:34Z</time>
      </trkpt>
      <trkpt lat="47.8209" lon="1.77877">
        <ele>92</ele>
        <time>2017-11-08T15:19:35Z</time>
      </trkpt>
      <trkpt lat="47.82089" lon="1.77872">
        <ele>93</ele>
        <time>2017-11-08T15:19:36Z</time>
      </trkpt>
      <trkpt lat="47.82089" lon="1.77867">
        <ele>93</ele>
        <time>2017-11-08T15:19:37Z</time>
      </trkpt>
      <trkpt lat="47.82088" lon="1.77862">
        <ele>93</ele>
        <time>2017-11-08T15:19:38Z</time>
      </trkpt>
      <trkpt lat="47.82088" lon="1.77857">
        <ele>93</ele>
        <time>2017-11-08T15:19:39Z</time>
      </trkpt>
      <trkpt lat="47.82087" lon="1.77852">
        <ele>93</ele>
        <time>2017-11-08T15:19:40Z</time>
      </trkpt>
      <trkpt lat="47.82087" lon="1.77848">
        <ele>93</ele>
        <time>2017-11-08T15:19:41Z</time>
      </trkpt>
      <trkpt lat="47.82086" lon="1.77842">
        <ele>93</ele>
        <time>2017-11-08T15:19:42Z</time>
      </trkpt>
      <trkpt lat="47.82086" lon="1.77837">
        <ele>93</ele>
        <time>2017-11-08T15:19:43Z</time>
      </trkpt>
      <trkpt lat="47.82086" lon="1.77833">
        <ele>93</ele>
        <time>2017-11-08T15:19:44Z</time>
      </trkpt>
      <trkpt lat="47.82085" lon="1.77828">
        <ele>93</ele>
        <time>2017-11-08T15:19:45Z</time>
      </trkpt>
      <trkpt lat="47.82084" lon="1.77823">
        <ele>93</ele>
        <time>2017-11-08T15:19:46Z</time>
      </trkpt>
      <trkpt lat="47.82084" lon="1.77818">
        <ele>93</ele>
        <time>2017-11-08T15:19:47Z</time>
      </trkpt>
      <trkpt lat="47.82083" lon="1.77814">
        <ele>92</ele>
        <time>2017-11-08T15:19:48Z</time>
      </trkpt>
      <trkpt lat="47.82082" lon="1.7781">
        <ele>92</ele>
        <time>2017-11-08T15:19:49Z</time>
      </trkpt>
      <trkpt lat="47.82082" lon="1.77807">
        <ele>92</ele>
        <time>2017-11-08T15:19:50Z</time>
      </trkpt>
      <trkpt lat="47.82081" lon="1.77802">
        <ele>92</ele>
        <time>2017-11-08T15:19:51Z</time>
      </trkpt>
      <trkpt lat="47.8208" lon="1.77798">
        <ele>92</ele>
        <time>2017-11-08T15:19:52Z</time>
      </trkpt>
      <trkpt lat="47.82079" lon="1.77794">
        <ele>92</ele>
        <time>2017-11-08T15:19:53Z</time>
      </trkpt>
      <trkpt lat="47.82078" lon="1.77789">
        <ele>92</ele>
        <time>2017-11-08T15:19:54Z</time>
      </trkpt>
      <trkpt lat="47.82077" lon="1.77784">
        <ele>92</ele>
        <time>2017-11-08T15:19:55Z</time>
      </trkpt>
      <trkpt lat="47.82076" lon="1.77779">
        <ele>92</ele>
        <time>2017-11-08T15:19:56Z</time>
      </trkpt>
      <trkpt lat="47.82075" lon="1.77774">
        <ele>92</ele>
        <time>2017-11-08T15:19:57Z</time>
      </trkpt>
      <trkpt lat="47.82075" lon="1.77769">
        <ele>92</ele>
        <time>2017-11-08T15:19:58Z</time>
      </trkpt>
      <trkpt lat="47.82074" lon="1.77764">
        <ele>92</ele>
        <time>2017-11-08T15:19:59Z</time>
      </trkpt>
      <trkpt lat="47.82073" lon="1.77759">
        <ele>92</ele>
        <time>2017-11-08T15:20:00Z</time>
      </trkpt>
      <trkpt lat="47.82072" lon="1.77754">
        <ele>92</ele>
        <time>2017-11-08T15:20:01Z</time>
      </trkpt>
      <trkpt lat="47.82071" lon="1.77749">
        <ele>92</ele>
        <time>2017-11-08T15:20:02Z</time>
      </trkpt>
      <trkpt lat="47.82071" lon="1.77744">
        <ele>92</ele>
        <time>2017-11-08T15:20:03Z</time>
      </trkpt>
      <trkpt lat="47.8207" lon="1.77739">
        <ele>92</ele>
        <time>2017-11-08T15:20:04Z</time>
      </trkpt>
      <trkpt lat="47.82069" lon="1.77734">
        <ele>92</ele>
        <time>2017-11-08T15:20:05Z</time>
      </trkpt>
      <trkpt lat="47.82068" lon="1.7773">
        <ele>92</ele>
        <time>2017-11-08T15:20:06Z</time>
      </trkpt>
      <trkpt lat="47.82068" lon="1.77725">
        <ele>92</ele>
        <time>2017-11-08T15:20:07Z</time>
      </trkpt>
      <trkpt lat="47.82067" lon="1.7772">
        <ele>92</ele>
        <time>2017-11-08T15:20:08Z</time>
      </trkpt>
      <trkpt lat="47.82067" lon="1.77715">
        <ele>91</ele>
        <time>2017-11-08T15:20:09Z</time>
      </trkpt>
      <trkpt lat="47.82066" lon="1.77709">
        <ele>91</ele>
        <time>2017-11-08T15:20:10Z</time>
      </trkpt>
      <trkpt lat="47.82065" lon="1.77704">
        <ele>91</ele>
        <time>2017-11-08T15:20:11Z</time>
      </trkpt>
      <trkpt lat="47.82063" lon="1.77699">
        <ele>91</ele>
        <time>2017-11-08T15:20:12Z</time>
      </trkpt>
      <trkpt lat="47.82062" lon="1.77694">
        <ele>91</ele>
        <time>2017-11-08T15:20:13Z</time>
      </trkpt>
      <trkpt lat="47.82061" lon="1.77689">
        <ele>91</ele>
        <time>2017-11-08T15:20:14Z</time>
      </trkpt>
      <trkpt lat="47.82059" lon="1.77685">
        <ele>91</ele>
        <time>2017-11-08T15:20:15Z</time>
      </trkpt>
      <trkpt lat="47.82058" lon="1.7768">
        <ele>91</ele>
        <time>2017-11-08T15:20:16Z</time>
      </trkpt>
      <trkpt lat="47.82056" lon="1.77676">
        <ele>91</ele>
        <time>2017-11-08T15:20:17Z</time>
      </trkpt>
      <trkpt lat="47.82054" lon="1.77672">
        <ele>91</ele>
        <time>2017-11-08T15:20:18Z</time>
      </trkpt>
      <trkpt lat="47.82051" lon="1.77666">
        <ele>91</ele>
        <time>2017-11-08T15:20:19Z</time>
      </trkpt>
      <trkpt lat="47.8205" lon="1.77662">
        <ele>91</ele>
        <time>2017-11-08T15:20:20Z</time>
      </trkpt>
      <trkpt lat="47.82048" lon="1.77658">
        <ele>91</ele>
        <time>2017-11-08T15:20:21Z</time>
      </trkpt>
      <trkpt lat="47.82046" lon="1.77654">
        <ele>91</ele>
        <time>2017-11-08T15:20:22Z</time>
      </trkpt>
      <trkpt lat="47.82044" lon="1.7765">
        <ele>91</ele>
        <time>2017-11-08T15:20:23Z</time>
      </trkpt>
      <trkpt lat="47.82042" lon="1.77645">
        <ele>91</ele>
        <time>2017-11-08T15:20:24Z</time>
      </trkpt>
      <trkpt lat="47.8204" lon="1.7764">
        <ele>91</ele>
        <time>2017-11-08T15:20:25Z</time>
      </trkpt>
      <trkpt lat="47.82038" lon="1.77636">
        <ele>91</ele>
        <time>2017-11-08T15:20:26Z</time>
      </trkpt>
      <trkpt lat="47.82036" lon="1.77633">
        <ele>91</ele>
        <time>2017-11-08T15:20:27Z</time>
      </trkpt>
      <trkpt lat="47.82034" lon="1.7763">
        <ele>91</ele>
        <time>2017-11-08T15:20:28Z</time>
      </trkpt>
      <trkpt lat="47.82031" lon="1.77625">
        <ele>91</ele>
        <time>2017-11-08T15:20:29Z</time>
      </trkpt>
      <trkpt lat="47.82029" lon="1.77622">
        <ele>91</ele>
        <time>2017-11-08T15:20:30Z</time>
      </trkpt>
      <trkpt lat="47.82027" lon="1.77617">
        <ele>91</ele>
        <time>2017-11-08T15:20:31Z</time>
      </trkpt>
      <trkpt lat="47.82025" lon="1.77612">
        <ele>91</ele>
        <time>2017-11-08T15:20:32Z</time>
      </trkpt>
      <trkpt lat="47.82023" lon="1.77608">
        <ele>91</ele>
        <time>2017-11-08T15:20:33Z</time>
      </trkpt>
      <trkpt lat="47.8202" lon="1.77604">
        <ele>91</ele>
        <time>2017-11-08T15:20:34Z</time>
      </trkpt>
      <trkpt lat="47.82019" lon="1.776">
        <ele>91</ele>
        <time>2017-11-08T15:20:35Z</time>
      </trkpt>
      <trkpt lat="47.82017" lon="1.77595">
        <ele>91</ele>
        <time>2017-11-08T15:20:36Z</time>
      </trkpt>
      <trkpt lat="47.82017" lon="1.77591">
        <ele>91</ele>
        <time>2017-11-08T15:20:37Z</time>
      </trkpt>
      <trkpt lat="47.82016" lon="1.77587">
        <ele>91</ele>
        <time>2017-11-08T15:20:38Z</time>
      </trkpt>
      <trkpt lat="47.82015" lon="1.77583">
        <ele>92</ele>
        <time>2017-11-08T15:20:39Z</time>
      </trkpt>
      <trkpt lat="47.82014" lon="1.77578">
        <ele>92</ele>
        <time>2017-11-08T15:20:40Z</time>
      </trkpt>
      <trkpt lat="47.82013" lon="1.77574">
        <ele>92</ele>
        <time>2017-11-08T15:20:41Z</time>
      </trkpt>
      <trkpt lat="47.82011" lon="1.77567">
        <ele>92</ele>
        <time>2017-11-08T15:20:43Z</time>
      </trkpt>
      <trkpt lat="47.8201" lon="1.77562">
        <ele>92</ele>
        <time>2017-11-08T15:20:44Z</time>
      </trkpt>
      <trkpt lat="47.82009" lon="1.77557">
        <ele>92</ele>
        <time>2017-11-08T15:20:45Z</time>
      </trkpt>
      <trkpt lat="47.82008" lon="1.77553">
        <ele>92</ele>
        <time>2017-11-08T15:20:46Z</time>
      </trkpt>
      <trkpt lat="47.82008" lon="1.77548">
        <ele>92</ele>
        <time>2017-11-08T15:20:47Z</time>
      </trkpt>
      <trkpt lat="47.82007" lon="1.77543">
        <ele>92</ele>
        <time>2017-11-08T15:20:48Z</time>
      </trkpt>
      <trkpt lat="47.82007" lon="1.77539">
        <ele>92</ele>
        <time>2017-11-08T15:20:49Z</time>
      </trkpt>
      <trkpt lat="47.82006" lon="1.77534">
        <ele>92</ele>
        <time>2017-11-08T15:20:50Z</time>
      </trkpt>
      <trkpt lat="47.82006" lon="1.7753">
        <ele>93</ele>
        <time>2017-11-08T15:20:51Z</time>
      </trkpt>
      <trkpt lat="47.82005" lon="1.77525">
        <ele>93</ele>
        <time>2017-11-08T15:20:52Z</time>
      </trkpt>
      <trkpt lat="47.82005" lon="1.7752">
        <ele>93</ele>
        <time>2017-11-08T15:20:53Z</time>
      </trkpt>
      <trkpt lat="47.82004" lon="1.77516">
        <ele>93</ele>
        <time>2017-11-08T15:20:54Z</time>
      </trkpt>
      <trkpt lat="47.82003" lon="1.77511">
        <ele>93</ele>
        <time>2017-11-08T15:20:55Z</time>
      </trkpt>
      <trkpt lat="47.82003" lon="1.77506">
        <ele>93</ele>
        <time>2017-11-08T15:20:56Z</time>
      </trkpt>
      <trkpt lat="47.82001" lon="1.77502">
        <ele>93</ele>
        <time>2017-11-08T15:20:57Z</time>
      </trkpt>
      <trkpt lat="47.81999" lon="1.77498">
        <ele>93</ele>
        <time>2017-11-08T15:20:58Z</time>
      </trkpt>
      <trkpt lat="47.81998" lon="1.77493">
        <ele>93</ele>
        <time>2017-11-08T15:20:59Z</time>
      </trkpt>
      <trkpt lat="47.81997" lon="1.77488">
        <ele>92</ele>
        <time>2017-11-08T15:21:00Z</time>
      </trkpt>
      <trkpt lat="47.81996" lon="1.77481">
        <ele>92</ele>
        <time>2017-11-08T15:21:02Z</time>
      </trkpt>
      <trkpt lat="47.81994" lon="1.77475">
        <ele>92</ele>
        <time>2017-11-08T15:21:04Z</time>
      </trkpt>
      <trkpt lat="47.81993" lon="1.77469">
        <ele>92</ele>
        <time>2017-11-08T15:21:06Z</time>
      </trkpt>
      <trkpt lat="47.81991" lon="1.77462">
        <ele>92</ele>
        <time>2017-11-08T15:21:08Z</time>
      </trkpt>
      <trkpt lat="47.8199" lon="1.77458">
        <ele>92</ele>
        <time>2017-11-08T15:21:09Z</time>
      </trkpt>
      <trkpt lat="47.81989" lon="1.77453">
        <ele>92</ele>
        <time>2017-11-08T15:21:10Z</time>
      </trkpt>
      <trkpt lat="47.81988" lon="1.77449">
        <ele>92</ele>
        <time>2017-11-08T15:21:11Z</time>
      </trkpt>
      <trkpt lat="47.81986" lon="1.77446">
        <ele>92</ele>
        <time>2017-11-08T15:21:12Z</time>
      </trkpt>
      <trkpt lat="47.81985" lon="1.77442">
        <ele>92</ele>
        <time>2017-11-08T15:21:13Z</time>
      </trkpt>
      <trkpt lat="47.81983" lon="1.77438">
        <ele>92</ele>
        <time>2017-11-08T15:21:14Z</time>
      </trkpt>
      <trkpt lat="47.81982" lon="1.77433">
        <ele>92</ele>
        <time>2017-11-08T15:21:15Z</time>
      </trkpt>
      <trkpt lat="47.81981" lon="1.77429">
        <ele>92</ele>
        <time>2017-11-08T15:21:16Z</time>
      </trkpt>
      <trkpt lat="47.8198" lon="1.77425">
        <ele>92</ele>
        <time>2017-11-08T15:21:17Z</time>
      </trkpt>
      <trkpt lat="47.81979" lon="1.77421">
        <ele>92</ele>
        <time>2017-11-08T15:21:18Z</time>
      </trkpt>
      <trkpt lat="47.81978" lon="1.77417">
        <ele>92</ele>
        <time>2017-11-08T15:21:19Z</time>
      </trkpt>
      <trkpt lat="47.81976" lon="1.77412">
        <ele>91</ele>
        <time>2017-11-08T15:21:20Z</time>
      </trkpt>
      <trkpt lat="47.81975" lon="1.77407">
        <ele>91</ele>
        <time>2017-11-08T15:21:21Z</time>
      </trkpt>
      <trkpt lat="47.81974" lon="1.77404">
        <ele>91</ele>
        <time>2017-11-08T15:21:22Z</time>
      </trkpt>
      <trkpt lat="47.81973" lon="1.77399">
        <ele>91</ele>
        <time>2017-11-08T15:21:23Z</time>
      </trkpt>
      <trkpt lat="47.81972" lon="1.77395">
        <ele>91</ele>
        <time>2017-11-08T15:21:24Z</time>
      </trkpt>
      <trkpt lat="47.8197" lon="1.7739">
        <ele>91</ele>
        <time>2017-11-08T15:21:25Z</time>
      </trkpt>
      <trkpt lat="47.81969" lon="1.77386">
        <ele>91</ele>
        <time>2017-11-08T15:21:26Z</time>
      </trkpt>
      <trkpt lat="47.81967" lon="1.77381">
        <ele>91</ele>
        <time>2017-11-08T15:21:27Z</time>
      </trkpt>
      <trkpt lat="47.81966" lon="1.77377">
        <ele>91</ele>
        <time>2017-11-08T15:21:28Z</time>
      </trkpt>
      <trkpt lat="47.81965" lon="1.77372">
        <ele>91</ele>
        <time>2017-11-08T15:21:29Z</time>
      </trkpt>
      <trkpt lat="47.81964" lon="1.77368">
        <ele>91</ele>
        <time>2017-11-08T15:21:30Z</time>
      </trkpt>
      <trkpt lat="47.81962" lon="1.77363">
        <ele>91</ele>
        <time>2017-11-08T15:21:31Z</time>
      </trkpt>
      <trkpt lat="47.81961" lon="1.77359">
        <ele>91</ele>
        <time>2017-11-08T15:21:32Z</time>
      </trkpt>
      <trkpt lat="47.81959" lon="1.77354">
        <ele>91</ele>
        <time>2017-11-08T15:21:33Z</time>
      </trkpt>
      <trkpt lat="47.81958" lon="1.7735">
        <ele>91</ele>
        <time>2017-11-08T15:21:34Z</time>
      </trkpt>
      <trkpt lat="47.81957" lon="1.77346">
        <ele>91</ele>
        <time>2017-11-08T15:21:35Z</time>
      </trkpt>
      <trkpt lat="47.81956" lon="1.77341">
        <ele>91</ele>
        <time>2017-11-08T15:21:36Z</time>
      </trkpt>
      <trkpt lat="47.81954" lon="1.77336">
        <ele>91</ele>
        <time>2017-11-08T15:21:37Z</time>
      </trkpt>
      <trkpt lat="47.81953" lon="1.77332">
        <ele>91</ele>
        <time>2017-11-08T15:21:38Z</time>
      </trkpt>
      <trkpt lat="47.81951" lon="1.77327">
        <ele>91</ele>
        <time>2017-11-08T15:21:39Z</time>
      </trkpt>
      <trkpt lat="47.81948" lon="1.77318">
        <ele>91</ele>
        <time>2017-11-08T15:21:41Z</time>
      </trkpt>
      <trkpt lat="47.81947" lon="1.77314">
        <ele>91</ele>
        <time>2017-11-08T15:21:42Z</time>
      </trkpt>
      <trkpt lat="47.81946" lon="1.7731">
        <ele>91</ele>
        <time>2017-11-08T15:21:43Z</time>
      </trkpt>
      <trkpt lat="47.81944" lon="1.77305">
        <ele>91</ele>
        <time>2017-11-08T15:21:44Z</time>
      </trkpt>
      <trkpt lat="47.81943" lon="1.77301">
        <ele>91</ele>
        <time>2017-11-08T15:21:45Z</time>
      </trkpt>
      <trkpt lat="47.81941" lon="1.77297">
        <ele>91</ele>
        <time>2017-11-08T15:21:46Z</time>
      </trkpt>
      <trkpt lat="47.8194" lon="1.77292">
        <ele>91</ele>
        <time>2017-11-08T15:21:47Z</time>
      </trkpt>
      <trkpt lat="47.81939" lon="1.77288">
        <ele>91</ele>
        <time>2017-11-08T15:21:48Z</time>
      </trkpt>
      <trkpt lat="47.81938" lon="1.77284">
        <ele>91</ele>
        <time>2017-11-08T15:21:49Z</time>
      </trkpt>
      <trkpt lat="47.81936" lon="1.77278">
        <ele>91</ele>
        <time>2017-11-08T15:21:50Z</time>
      </trkpt>
      <trkpt lat="47.81935" lon="1.77274">
        <ele>91</ele>
        <time>2017-11-08T15:21:51Z</time>
      </trkpt>
      <trkpt lat="47.81933" lon="1.7727">
        <ele>91</ele>
        <time>2017-11-08T15:21:52Z</time>
      </trkpt>
      <trkpt lat="47.81932" lon="1.77266">
        <ele>91</ele>
        <time>2017-11-08T15:21:53Z</time>
      </trkpt>
      <trkpt lat="47.81931" lon="1.77262">
        <ele>91</ele>
        <time>2017-11-08T15:21:54Z</time>
      </trkpt>
      <trkpt lat="47.8193" lon="1.77258">
        <ele>91</ele>
        <time>2017-11-08T15:21:55Z</time>
      </trkpt>
      <trkpt lat="47.81928" lon="1.77253">
        <ele>91</ele>
        <time>2017-11-08T15:21:56Z</time>
      </trkpt>
      <trkpt lat="47.81927" lon="1.77249">
        <ele>92</ele>
        <time>2017-11-08T15:21:57Z</time>
      </trkpt>
      <trkpt lat="47.81926" lon="1.77243">
        <ele>92</ele>
        <time>2017-11-08T15:21:58Z</time>
      </trkpt>
      <trkpt lat="47.81924" lon="1.77238">
        <ele>92</ele>
        <time>2017-11-08T15:21:59Z</time>
      </trkpt>
      <trkpt lat="47.81923" lon="1.77234">
        <ele>92</ele>
        <time>2017-11-08T15:22:00Z</time>
      </trkpt>
      <trkpt lat="47.81922" lon="1.77229">
        <ele>92</ele>
        <time>2017-11-08T15:22:01Z</time>
      </trkpt>
      <trkpt lat="47.8192" lon="1.77225">
        <ele>92</ele>
        <time>2017-11-08T15:22:02Z</time>
      </trkpt>
      <trkpt lat="47.81919" lon="1.7722">
        <ele>92</ele>
        <time>2017-11-08T15:22:03Z</time>
      </trkpt>
      <trkpt lat="47.81917" lon="1.77216">
        <ele>92</ele>
        <time>2017-11-08T15:22:04Z</time>
      </trkpt>
      <trkpt lat="47.81915" lon="1.77211">
        <ele>92</ele>
        <time>2017-11-08T15:22:05Z</time>
      </trkpt>
      <trkpt lat="47.81914" lon="1.77207">
        <ele>92</ele>
        <time>2017-11-08T15:22:06Z</time>
      </trkpt>
      <trkpt lat="47.81912" lon="1.77199">
        <ele>92</ele>
        <time>2017-11-08T15:22:08Z</time>
      </trkpt>
      <trkpt lat="47.8191" lon="1.77195">
        <ele>92</ele>
        <time>2017-11-08T15:22:09Z</time>
      </trkpt>
      <trkpt lat="47.81907" lon="1.77188">
        <ele>92</ele>
        <time>2017-11-08T15:22:11Z</time>
      </trkpt>
      <trkpt lat="47.81906" lon="1.77185">
        <ele>92</ele>
        <time>2017-11-08T15:22:12Z</time>
      </trkpt>
      <trkpt lat="47.81904" lon="1.7718">
        <ele>92</ele>
        <time>2017-11-08T15:22:13Z</time>
      </trkpt>
      <trkpt lat="47.81903" lon="1.77174">
        <ele>92</ele>
        <time>2017-11-08T15:22:14Z</time>
      </trkpt>
      <trkpt lat="47.81901" lon="1.77169">
        <ele>92</ele>
        <time>2017-11-08T15:22:15Z</time>
      </trkpt>
      <trkpt lat="47.81898" lon="1.77162">
        <ele>92</ele>
        <time>2017-11-08T15:22:17Z</time>
      </trkpt>
      <trkpt lat="47.81897" lon="1.77157">
        <ele>92</ele>
        <time>2017-11-08T15:22:18Z</time>
      </trkpt>
      <trkpt lat="47.81895" lon="1.77152">
        <ele>92</ele>
        <time>2017-11-08T15:22:19Z</time>
      </trkpt>
      <trkpt lat="47.81894" lon="1.77148">
        <ele>92</ele>
        <time>2017-11-08T15:22:20Z</time>
      </trkpt>
      <trkpt lat="47.81893" lon="1.77144">
        <ele>92</ele>
        <time>2017-11-08T15:22:21Z</time>
      </trkpt>
      <trkpt lat="47.81891" lon="1.77139">
        <ele>92</ele>
        <time>2017-11-08T15:22:22Z</time>
      </trkpt>
      <trkpt lat="47.8189" lon="1.77135">
        <ele>92</ele>
        <time>2017-11-08T15:22:23Z</time>
      </trkpt>
      <trkpt lat="47.81889" lon="1.77127">
        <ele>92</ele>
        <time>2017-11-08T15:22:25Z</time>
      </trkpt>
      <trkpt lat="47.81888" lon="1.77123">
        <ele>92</ele>
        <time>2017-11-08T15:22:26Z</time>
      </trkpt>
      <trkpt lat="47.81888" lon="1.77118">
        <ele>92</ele>
        <time>2017-11-08T15:22:27Z</time>
      </trkpt>
      <trkpt lat="47.81887" lon="1.77113">
        <ele>92</ele>
        <time>2017-11-08T15:22:28Z</time>
      </trkpt>
      <trkpt lat="47.81886" lon="1.77108">
        <ele>92</ele>
        <time>2017-11-08T15:22:29Z</time>
      </trkpt>
      <trkpt lat="47.81885" lon="1.77102">
        <ele>92</ele>
        <time>2017-11-08T15:22:30Z</time>
      </trkpt>
      <trkpt lat="47.81884" lon="1.77096">
        <ele>92</ele>
        <time>2017-11-08T15:22:31Z</time>
      </trkpt>
      <trkpt lat="47.81883" lon="1.77091">
        <ele>92</ele>
        <time>2017-11-08T15:22:32Z</time>
      </trkpt>
      <trkpt lat="47.81882" lon="1.77086">
        <ele>92</ele>
        <time>2017-11-08T15:22:33Z</time>
      </trkpt>
      <trkpt lat="47.81881" lon="1.7708">
        <ele>92</ele>
        <time>2017-11-08T15:22:34Z</time>
      </trkpt>
      <trkpt lat="47.81879" lon="1.77074">
        <ele>92</ele>
        <time>2017-11-08T15:22:35Z</time>
      </trkpt>
      <trkpt lat="47.81878" lon="1.77069">
        <ele>92</ele>
        <time>2017-11-08T15:22:36Z</time>
      </trkpt>
      <trkpt lat="47.81877" lon="1.77064">
        <ele>92</ele>
        <time>2017-11-08T15:22:37Z</time>
      </trkpt>
      <trkpt lat="47.81875" lon="1.77059">
        <ele>92</ele>
        <time>2017-11-08T15:22:38Z</time>
      </trkpt>
      <trkpt lat="47.81874" lon="1.77054">
        <ele>92</ele>
        <time>2017-11-08T15:22:39Z</time>
      </trkpt>
      <trkpt lat="47.81873" lon="1.77049">
        <ele>92</ele>
        <time>2017-11-08T15:22:40Z</time>
      </trkpt>
      <trkpt lat="47.81871" lon="1.77044">
        <ele>92</ele>
        <time>2017-11-08T15:22:41Z</time>
      </trkpt>
      <trkpt lat="47.8187" lon="1.77039">
        <ele>92</ele>
        <time>2017-11-08T15:22:42Z</time>
      </trkpt>
      <trkpt lat="47.8187" lon="1.77035">
        <ele>92</ele>
        <time>2017-11-08T15:22:43Z</time>
      </trkpt>
      <trkpt lat="47.81871" lon="1.77031">
        <ele>92</ele>
        <time>2017-11-08T15:22:44Z</time>
      </trkpt>
      <trkpt lat="47.81875" lon="1.77026">
        <ele>92</ele>
        <time>2017-11-08T15:22:46Z</time>
      </trkpt>
      <trkpt lat="47.8188" lon="1.77023">
        <ele>92</ele>
        <time>2017-11-08T15:22:48Z</time>
      </trkpt>
      <trkpt lat="47.81883" lon="1.77023">
        <ele>92</ele>
        <time>2017-11-08T15:22:49Z</time>
      </trkpt>
      <trkpt lat="47.81887" lon="1.77022">
        <ele>93</ele>
        <time>2017-11-08T15:22:50Z</time>
      </trkpt>
      <trkpt lat="47.8189" lon="1.77023">
        <ele>93</ele>
        <time>2017-11-08T15:22:51Z</time>
      </trkpt>
      <trkpt lat="47.81894" lon="1.77021">
        <ele>93</ele>
        <time>2017-11-08T15:22:52Z</time>
      </trkpt>
      <trkpt lat="47.81898" lon="1.77019">
        <ele>93</ele>
        <time>2017-11-08T15:22:53Z</time>
      </trkpt>
      <trkpt lat="47.81902" lon="1.77017">
        <ele>93</ele>
        <time>2017-11-08T15:22:54Z</time>
      </trkpt>
      <trkpt lat="47.81906" lon="1.77015">
        <ele>93</ele>
        <time>2017-11-08T15:22:55Z</time>
      </trkpt>
      <trkpt lat="47.8191" lon="1.77013">
        <ele>93</ele>
        <time>2017-11-08T15:22:56Z</time>
      </trkpt>
      <trkpt lat="47.81914" lon="1.77012">
        <ele>93</ele>
        <time>2017-11-08T15:22:57Z</time>
      </trkpt>
      <trkpt lat="47.81918" lon="1.77009">
        <ele>94</ele>
        <time>2017-11-08T15:22:58Z</time>
      </trkpt>
      <trkpt lat="47.81921" lon="1.77008">
        <ele>94</ele>
        <time>2017-11-08T15:22:59Z</time>
      </trkpt>
      <trkpt lat="47.81925" lon="1.77006">
        <ele>94</ele>
        <time>2017-11-08T15:23:00Z</time>
      </trkpt>
      <trkpt lat="47.81929" lon="1.77004">
        <ele>94</ele>
        <time>2017-11-08T15:23:01Z</time>
      </trkpt>
      <trkpt lat="47.81932" lon="1.77002">
        <ele>94</ele>
        <time>2017-11-08T15:23:02Z</time>
      </trkpt>
      <trkpt lat="47.81935" lon="1.76999">
        <ele>95</ele>
        <time>2017-11-08T15:23:03Z</time>
      </trkpt>
      <trkpt lat="47.81939" lon="1.76997">
        <ele>95</ele>
        <time>2017-11-08T15:23:04Z</time>
      </trkpt>
      <trkpt lat="47.81942" lon="1.76995">
        <ele>95</ele>
        <time>2017-11-08T15:23:05Z</time>
      </trkpt>
      <trkpt lat="47.81945" lon="1.76992">
        <ele>95</ele>
        <time>2017-11-08T15:23:06Z</time>
      </trkpt>
      <trkpt lat="47.81948" lon="1.7699">
        <ele>95</ele>
        <time>2017-11-08T15:23:07Z</time>
      </trkpt>
      <trkpt lat="47.81951" lon="1.76987">
        <ele>95</ele>
        <time>2017-11-08T15:23:08Z</time>
      </trkpt>
      <trkpt lat="47.81954" lon="1.76984">
        <ele>95</ele>
        <time>2017-11-08T15:23:09Z</time>
      </trkpt>
      <trkpt lat="47.81957" lon="1.76982">
        <ele>95</ele>
        <time>2017-11-08T15:23:10Z</time>
      </trkpt>
      <trkpt lat="47.8196" lon="1.76979">
        <ele>95</ele>
        <time>2017-11-08T15:23:11Z</time>
      </trkpt>
      <trkpt lat="47.81964" lon="1.76976">
        <ele>95</ele>
        <time>2017-11-08T15:23:12Z</time>
      </trkpt>
      <trkpt lat="47.81966" lon="1.76973">
        <ele>95</ele>
        <time>2017-11-08T15:23:13Z</time>
      </trkpt>
      <trkpt lat="47.81969" lon="1.7697">
        <ele>95</ele>
        <time>2017-11-08T15:23:14Z</time>
      </trkpt>
      <trkpt lat="47.81972" lon="1.76967">
        <ele>95</ele>
        <time>2017-11-08T15:23:15Z</time>
      </trkpt>
      <trkpt lat="47.81975" lon="1.76964">
        <ele>95</ele>
        <time>2017-11-08T15:23:16Z</time>
      </trkpt>
      <trkpt lat="47.81978" lon="1.7696">
        <ele>95</ele>
        <time>2017-11-08T15:23:17Z</time>
      </trkpt>
      <trkpt lat="47.8198" lon="1.76956">
        <ele>95</ele>
        <time>2017-11-08T15:23:18Z</time>
      </trkpt>
      <trkpt lat="47.81982" lon="1.76953">
        <ele>95</ele>
        <time>2017-11-08T15:23:19Z</time>
      </trkpt>
      <trkpt lat="47.81985" lon="1.7695">
        <ele>95</ele>
        <time>2017-11-08T15:23:20Z</time>
      </trkpt>
      <trkpt lat="47.81987" lon="1.76947">
        <ele>96</ele>
        <time>2017-11-08T15:23:21Z</time>
      </trkpt>
      <trkpt lat="47.8199" lon="1.76942">
        <ele>96</ele>
        <time>2017-11-08T15:23:23Z</time>
      </trkpt>
      <trkpt lat="47.81993" lon="1.76936">
        <ele>96</ele>
        <time>2017-11-08T15:23:25Z</time>
      </trkpt>
      <trkpt lat="47.81995" lon="1.76933">
        <ele>96</ele>
        <time>2017-11-08T15:23:26Z</time>
      </trkpt>
      <trkpt lat="47.81997" lon="1.7693">
        <ele>96</ele>
        <time>2017-11-08T15:23:27Z</time>
      </trkpt>
      <trkpt lat="47.82" lon="1.76926">
        <ele>96</ele>
        <time>2017-11-08T15:23:28Z</time>
      </trkpt>
      <trkpt lat="47.82002" lon="1.76921">
        <ele>96</ele>
        <time>2017-11-08T15:23:29Z</time>
      </trkpt>
      <trkpt lat="47.82005" lon="1.76918">
        <ele>96</ele>
        <time>2017-11-08T15:23:30Z</time>
      </trkpt>
      <trkpt lat="47.82006" lon="1.76914">
        <ele>96</ele>
        <time>2017-11-08T15:23:31Z</time>
      </trkpt>
      <trkpt lat="47.82009" lon="1.7691">
        <ele>96</ele>
        <time>2017-11-08T15:23:32Z</time>
      </trkpt>
      <trkpt lat="47.82011" lon="1.76907">
        <ele>96</ele>
        <time>2017-11-08T15:23:33Z</time>
      </trkpt>
      <trkpt lat="47.82014" lon="1.76903">
        <ele>97</ele>
        <time>2017-11-08T15:23:34Z</time>
      </trkpt>
      <trkpt lat="47.82016" lon="1.76899">
        <ele>97</ele>
        <time>2017-11-08T15:23:35Z</time>
      </trkpt>
      <trkpt lat="47.82018" lon="1.76896">
        <ele>97</ele>
        <time>2017-11-08T15:23:36Z</time>
      </trkpt>
      <trkpt lat="47.8202" lon="1.76892">
        <ele>97</ele>
        <time>2017-11-08T15:23:37Z</time>
      </trkpt>
      <trkpt lat="47.82022" lon="1.76888">
        <ele>97</ele>
        <time>2017-11-08T15:23:38Z</time>
      </trkpt>
      <trkpt lat="47.82024" lon="1.76884">
        <ele>97</ele>
        <time>2017-11-08T15:23:39Z</time>
      </trkpt>
      <trkpt lat="47.82026" lon="1.7688">
        <ele>97</ele>
        <time>2017-11-08T15:23:40Z</time>
      </trkpt>
      <trkpt lat="47.82028" lon="1.76876">
        <ele>97</ele>
        <time>2017-11-08T15:23:41Z</time>
      </trkpt>
      <trkpt lat="47.8203" lon="1.76873">
        <ele>97</ele>
        <time>2017-11-08T15:23:42Z</time>
      </trkpt>
      <trkpt lat="47.82032" lon="1.7687">
        <ele>97</ele>
        <time>2017-11-08T15:23:43Z</time>
      </trkpt>
      <trkpt lat="47.82034" lon="1.76867">
        <ele>97</ele>
        <time>2017-11-08T15:23:44Z</time>
      </trkpt>
      <trkpt lat="47.82038" lon="1.76861">
        <ele>97</ele>
        <time>2017-11-08T15:23:46Z</time>
      </trkpt>
      <trkpt lat="47.82039" lon="1.76854">
        <ele>97</ele>
        <time>2017-11-08T15:23:48Z</time>
      </trkpt>
      <trkpt lat="47.82037" lon="1.7685">
        <ele>97</ele>
        <time>2017-11-08T15:23:49Z</time>
      </trkpt>
      <trkpt lat="47.82036" lon="1.76847">
        <ele>97</ele>
        <time>2017-11-08T15:23:50Z</time>
      </trkpt>
      <trkpt lat="47.82034" lon="1.76843">
        <ele>97</ele>
        <time>2017-11-08T15:23:51Z</time>
      </trkpt>
      <trkpt lat="47.82033" lon="1.76839">
        <ele>97</ele>
        <time>2017-11-08T15:23:52Z</time>
      </trkpt>
      <trkpt lat="47.82031" lon="1.76834">
        <ele>97</ele>
        <time>2017-11-08T15:23:53Z</time>
      </trkpt>
      <trkpt lat="47.8203" lon="1.7683">
        <ele>97</ele>
        <time>2017-11-08T15:23:54Z</time>
      </trkpt>
      <trkpt lat="47.82029" lon="1.76825">
        <ele>97</ele>
        <time>2017-11-08T15:23:55Z</time>
      </trkpt>
      <trkpt lat="47.82028" lon="1.76821">
        <ele>97</ele>
        <time>2017-11-08T15:23:56Z</time>
      </trkpt>
      <trkpt lat="47.82026" lon="1.76817">
        <ele>97</ele>
        <time>2017-11-08T15:23:57Z</time>
      </trkpt>
      <trkpt lat="47.82025" lon="1.76813">
        <ele>97</ele>
        <time>2017-11-08T15:23:58Z</time>
      </trkpt>
      <trkpt lat="47.82024" lon="1.76808">
        <ele>97</ele>
        <time>2017-11-08T15:23:59Z</time>
      </trkpt>
      <trkpt lat="47.82022" lon="1.76804">
        <ele>97</ele>
        <time>2017-11-08T15:24:00Z</time>
      </trkpt>
      <trkpt lat="47.82021" lon="1.76799">
        <ele>97</ele>
        <time>2017-11-08T15:24:01Z</time>
      </trkpt>
      <trkpt lat="47.82019" lon="1.76795">
        <ele>97</ele>
        <time>2017-11-08T15:24:02Z</time>
      </trkpt>
      <trkpt lat="47.82018" lon="1.7679">
        <ele>97</ele>
        <time>2017-11-08T15:24:03Z</time>
      </trkpt>
      <trkpt lat="47.82017" lon="1.76786">
        <ele>97</ele>
        <time>2017-11-08T15:24:04Z</time>
      </trkpt>
      <trkpt lat="47.82015" lon="1.76782">
        <ele>97</ele>
        <time>2017-11-08T15:24:05Z</time>
      </trkpt>
      <trkpt lat="47.82014" lon="1.76778">
        <ele>97</ele>
        <time>2017-11-08T15:24:06Z</time>
      </trkpt>
      <trkpt lat="47.82013" lon="1.76774">
        <ele>97</ele>
        <time>2017-11-08T15:24:07Z</time>
      </trkpt>
      <trkpt lat="47.82011" lon="1.7677">
        <ele>97</ele>
        <time>2017-11-08T15:24:08Z</time>
      </trkpt>
      <trkpt lat="47.8201" lon="1.76765">
        <ele>97</ele>
        <time>2017-11-08T15:24:09Z</time>
      </trkpt>
      <trkpt lat="47.82009" lon="1.76761">
        <ele>97</ele>
        <time>2017-11-08T15:24:10Z</time>
      </trkpt>
      <trkpt lat="47.82007" lon="1.76756">
        <ele>96</ele>
        <time>2017-11-08T15:24:11Z</time>
      </trkpt>
      <trkpt lat="47.82005" lon="1.76751">
        <ele>96</ele>
        <time>2017-11-08T15:24:12Z</time>
      </trkpt>
      <trkpt lat="47.82004" lon="1.76746">
        <ele>96</ele>
        <time>2017-11-08T15:24:13Z</time>
      </trkpt>
      <trkpt lat="47.82002" lon="1.76741">
        <ele>96</ele>
        <time>2017-11-08T15:24:14Z</time>
      </trkpt>
      <trkpt lat="47.82" lon="1.76735">
        <ele>96</ele>
        <time>2017-11-08T15:24:15Z</time>
      </trkpt>
      <trkpt lat="47.81999" lon="1.7673">
        <ele>96</ele>
        <time>2017-11-08T15:24:16Z</time>
      </trkpt>
      <trkpt lat="47.81997" lon="1.76725">
        <ele>95</ele>
        <time>2017-11-08T15:24:17Z</time>
      </trkpt>
      <trkpt lat="47.81996" lon="1.7672">
        <ele>95</ele>
        <time>2017-11-08T15:24:18Z</time>
      </trkpt>
      <trkpt lat="47.81994" lon="1.76716">
        <ele>95</ele>
        <time>2017-11-08T15:24:19Z</time>
      </trkpt>
      <trkpt lat="47.81992" lon="1.7671">
        <ele>95</ele>
        <time>2017-11-08T15:24:20Z</time>
      </trkpt>
      <trkpt lat="47.81991" lon="1.76706">
        <ele>95</ele>
        <time>2017-11-08T15:24:21Z</time>
      </trkpt>
      <trkpt lat="47.81989" lon="1.76701">
        <ele>95</ele>
        <time>2017-11-08T15:24:22Z</time>
      </trkpt>
      <trkpt lat="47.81987" lon="1.76696">
        <ele>95</ele>
        <time>2017-11-08T15:24:23Z</time>
      </trkpt>
      <trkpt lat="47.81986" lon="1.76691">
        <ele>95</ele>
        <time>2017-11-08T15:24:24Z</time>
      </trkpt>
      <trkpt lat="47.81985" lon="1.76687">
        <ele>95</ele>
        <time>2017-11-08T15:24:25Z</time>
      </trkpt>
      <trkpt lat="47.81983" lon="1.76682">
        <ele>95</ele>
        <time>2017-11-08T15:24:26Z</time>
      </trkpt>
      <trkpt lat="47.81982" lon="1.76678">
        <ele>95</ele>
        <time>2017-11-08T15:24:27Z</time>
      </trkpt>
      <trkpt lat="47.8198" lon="1.76675">
        <ele>95</ele>
        <time>2017-11-08T15:24:28Z</time>
      </trkpt>
      <trkpt lat="47.81979" lon="1.76671">
        <ele>95</ele>
        <time>2017-11-08T15:24:29Z</time>
      </trkpt>
      <trkpt lat="47.81978" lon="1.76667">
        <ele>96</ele>
        <time>2017-11-08T15:24:30Z</time>
      </trkpt>
      <trkpt lat="47.81977" lon="1.76662">
        <ele>96</ele>
        <time>2017-11-08T15:24:31Z</time>
      </trkpt>
      <trkpt lat="47.81975" lon="1.76658">
        <ele>96</ele>
        <time>2017-11-08T15:24:32Z</time>
      </trkpt>
      <trkpt lat="47.81974" lon="1.76654">
        <ele>96</ele>
        <time>2017-11-08T15:24:33Z</time>
      </trkpt>
      <trkpt lat="47.81973" lon="1.76649">
        <ele>96</ele>
        <time>2017-11-08T15:24:34Z</time>
      </trkpt>
      <trkpt lat="47.81971" lon="1.76644">
        <ele>96</ele>
        <time>2017-11-08T15:24:35Z</time>
      </trkpt>
      <trkpt lat="47.81969" lon="1.7664">
        <ele>96</ele>
        <time>2017-11-08T15:24:36Z</time>
      </trkpt>
      <trkpt lat="47.81968" lon="1.76635">
        <ele>96</ele>
        <time>2017-11-08T15:24:37Z</time>
      </trkpt>
      <trkpt lat="47.81967" lon="1.76631">
        <ele>96</ele>
        <time>2017-11-08T15:24:38Z</time>
      </trkpt>
      <trkpt lat="47.81966" lon="1.76626">
        <ele>96</ele>
        <time>2017-11-08T15:24:39Z</time>
      </trkpt>
      <trkpt lat="47.81965" lon="1.76622">
        <ele>96</ele>
        <time>2017-11-08T15:24:40Z</time>
      </trkpt>
      <trkpt lat="47.81963" lon="1.76615">
        <ele>96</ele>
        <time>2017-11-08T15:24:42Z</time>
      </trkpt>
      <trkpt lat="47.81961" lon="1.76607">
        <ele>96</ele>
        <time>2017-11-08T15:24:44Z</time>
      </trkpt>
      <trkpt lat="47.81959" lon="1.76602">
        <ele>96</ele>
        <time>2017-11-08T15:24:45Z</time>
      </trkpt>
      <trkpt lat="47.81958" lon="1.76598">
        <ele>96</ele>
        <time>2017-11-08T15:24:46Z</time>
      </trkpt>
      <trkpt lat="47.81957" lon="1.76593">
        <ele>96</ele>
        <time>2017-11-08T15:24:47Z</time>
      </trkpt>
      <trkpt lat="47.81956" lon="1.76588">
        <ele>96</ele>
        <time>2017-11-08T15:24:48Z</time>
      </trkpt>
      <trkpt lat="47.81954" lon="1.76584">
        <ele>96</ele>
        <time>2017-11-08T15:24:49Z</time>
      </trkpt>
      <trkpt lat="47.81953" lon="1.7658">
        <ele>96</ele>
        <time>2017-11-08T15:24:50Z</time>
      </trkpt>
      <trkpt lat="47.81952" lon="1.76576">
        <ele>96</ele>
        <time>2017-11-08T15:24:51Z</time>
      </trkpt>
      <trkpt lat="47.81949" lon="1.76568">
        <ele>96</ele>
        <time>2017-11-08T15:24:53Z</time>
      </trkpt>
      <trkpt lat="47.81948" lon="1.76564">
        <ele>96</ele>
        <time>2017-11-08T15:24:54Z</time>
      </trkpt>
      <trkpt lat="47.81947" lon="1.7656">
        <ele>96</ele>
        <time>2017-11-08T15:24:55Z</time>
      </trkpt>
      <trkpt lat="47.81945" lon="1.76556">
        <ele>96</ele>
        <time>2017-11-08T15:24:56Z</time>
      </trkpt>
      <trkpt lat="47.81944" lon="1.76552">
        <ele>96</ele>
        <time>2017-11-08T15:24:57Z</time>
      </trkpt>
      <trkpt lat="47.81943" lon="1.76547">
        <ele>96</ele>
        <time>2017-11-08T15:24:58Z</time>
      </trkpt>
      <trkpt lat="47.81942" lon="1.76542">
        <ele>96</ele>
        <time>2017-11-08T15:24:59Z</time>
      </trkpt>
      <trkpt lat="47.81941" lon="1.76539">
        <ele>96</ele>
        <time>2017-11-08T15:25:00Z</time>
      </trkpt>
      <trkpt lat="47.81938" lon="1.76532">
        <ele>96</ele>
        <time>2017-11-08T15:25:02Z</time>
      </trkpt>
      <trkpt lat="47.81937" lon="1.76528">
        <ele>96</ele>
        <time>2017-11-08T15:25:03Z</time>
      </trkpt>
      <trkpt lat="47.81935" lon="1.76521">
        <ele>96</ele>
        <time>2017-11-08T15:25:05Z</time>
      </trkpt>
      <trkpt lat="47.81932" lon="1.76515">
        <ele>96</ele>
        <time>2017-11-08T15:25:07Z</time>
      </trkpt>
      <trkpt lat="47.81931" lon="1.7651">
        <ele>96</ele>
        <time>2017-11-08T15:25:09Z</time>
      </trkpt>
      <trkpt lat="47.81929" lon="1.76503">
        <ele>96</ele>
        <time>2017-11-08T15:25:11Z</time>
      </trkpt>
      <trkpt lat="47.81927" lon="1.76497">
        <ele>96</ele>
        <time>2017-11-08T15:25:13Z</time>
      </trkpt>
      <trkpt lat="47.81925" lon="1.76492">
        <ele>96</ele>
        <time>2017-11-08T15:25:15Z</time>
      </trkpt>
      <trkpt lat="47.81923" lon="1.76487">
        <ele>96</ele>
        <time>2017-11-08T15:25:17Z</time>
      </trkpt>
      <trkpt lat="47.81922" lon="1.76483">
        <ele>96</ele>
        <time>2017-11-08T15:25:19Z</time>
      </trkpt>
      <trkpt lat="47.81921" lon="1.76478">
        <ele>96</ele>
        <time>2017-11-08T15:25:21Z</time>
      </trkpt>
      <trkpt lat="47.81917" lon="1.76475">
        <ele>96</ele>
        <time>2017-11-08T15:25:23Z</time>
      </trkpt>
      <trkpt lat="47.81914" lon="1.76476">
        <ele>95</ele>
        <time>2017-11-08T15:25:24Z</time>
      </trkpt>
      <trkpt lat="47.81909" lon="1.76481">
        <ele>95</ele>
        <time>2017-11-08T15:25:26Z</time>
      </trkpt>
      <trkpt lat="47.81906" lon="1.76484">
        <ele>95</ele>
        <time>2017-11-08T15:25:27Z</time>
      </trkpt>
      <trkpt lat="47.81903" lon="1.76486">
        <ele>95</ele>
        <time>2017-11-08T15:25:28Z</time>
      </trkpt>
      <trkpt lat="47.819" lon="1.76488">
        <ele>95</ele>
        <time>2017-11-08T15:25:29Z</time>
      </trkpt>
      <trkpt lat="47.81897" lon="1.7649">
        <ele>95</ele>
        <time>2017-11-08T15:25:30Z</time>
      </trkpt>
      <trkpt lat="47.81894" lon="1.76492">
        <ele>95</ele>
        <time>2017-11-08T15:25:31Z</time>
      </trkpt>
      <trkpt lat="47.81891" lon="1.76494">
        <ele>95</ele>
        <time>2017-11-08T15:25:32Z</time>
      </trkpt>
      <trkpt lat="47.81887" lon="1.76495">
        <ele>95</ele>
        <time>2017-11-08T15:25:33Z</time>
      </trkpt>
      <trkpt lat="47.81884" lon="1.76497">
        <ele>95</ele>
        <time>2017-11-08T15:25:34Z</time>
      </trkpt>
      <trkpt lat="47.81881" lon="1.76499">
        <ele>95</ele>
        <time>2017-11-08T15:25:35Z</time>
      </trkpt>
      <trkpt lat="47.81878" lon="1.765">
        <ele>94</ele>
        <time>2017-11-08T15:25:36Z</time>
      </trkpt>
      <trkpt lat="47.81875" lon="1.76502">
        <ele>94</ele>
        <time>2017-11-08T15:25:37Z</time>
      </trkpt>
      <trkpt lat="47.81872" lon="1.76503">
        <ele>94</ele>
        <time>2017-11-08T15:25:38Z</time>
      </trkpt>
      <trkpt lat="47.81868" lon="1.76505">
        <ele>94</ele>
        <time>2017-11-08T15:25:39Z</time>
      </trkpt>
      <trkpt lat="47.81864" lon="1.76507">
        <ele>94</ele>
        <time>2017-11-08T15:25:40Z</time>
      </trkpt>
      <trkpt lat="47.81861" lon="1.76509">
        <ele>94</ele>
        <time>2017-11-08T15:25:41Z</time>
      </trkpt>
      <trkpt lat="47.81857" lon="1.76511">
        <ele>94</ele>
        <time>2017-11-08T15:25:42Z</time>
      </trkpt>
      <trkpt lat="47.81853" lon="1.76513">
        <ele>94</ele>
        <time>2017-11-08T15:25:43Z</time>
      </trkpt>
      <trkpt lat="47.81849" lon="1.76516">
        <ele>94</ele>
        <time>2017-11-08T15:25:44Z</time>
      </trkpt>
      <trkpt lat="47.81845" lon="1.76518">
        <ele>94</ele>
        <time>2017-11-08T15:25:45Z</time>
      </trkpt>
      <trkpt lat="47.81841" lon="1.7652">
        <ele>94</ele>
        <time>2017-11-08T15:25:46Z</time>
      </trkpt>
      <trkpt lat="47.81836" lon="1.76522">
        <ele>94</ele>
        <time>2017-11-08T15:25:47Z</time>
      </trkpt>
      <trkpt lat="47.81832" lon="1.76524">
        <ele>92</ele>
        <time>2017-11-08T15:25:48Z</time>
      </trkpt>
      <trkpt lat="47.81828" lon="1.76526">
        <ele>92</ele>
        <time>2017-11-08T15:25:49Z</time>
      </trkpt>
      <trkpt lat="47.81823" lon="1.76528">
        <ele>92</ele>
        <time>2017-11-08T15:25:50Z</time>
      </trkpt>
      <trkpt lat="47.81819" lon="1.7653">
        <ele>92</ele>
        <time>2017-11-08T15:25:51Z</time>
      </trkpt>
      <trkpt lat="47.81814" lon="1.76533">
        <ele>92</ele>
        <time>2017-11-08T15:25:52Z</time>
      </trkpt>
      <trkpt lat="47.8181" lon="1.76534">
        <ele>92</ele>
        <time>2017-11-08T15:25:53Z</time>
      </trkpt>
      <trkpt lat="47.81805" lon="1.76536">
        <ele>92</ele>
        <time>2017-11-08T15:25:54Z</time>
      </trkpt>
      <trkpt lat="47.81801" lon="1.76538">
        <ele>92</ele>
        <time>2017-11-08T15:25:55Z</time>
      </trkpt>
      <trkpt lat="47.81797" lon="1.7654">
        <ele>92</ele>
        <time>2017-11-08T15:25:56Z</time>
      </trkpt>
      <trkpt lat="47.81792" lon="1.76541">
        <ele>92</ele>
        <time>2017-11-08T15:25:57Z</time>
      </trkpt>
      <trkpt lat="47.81788" lon="1.76543">
        <ele>92</ele>
        <time>2017-11-08T15:25:58Z</time>
      </trkpt>
      <trkpt lat="47.81784" lon="1.76544">
        <ele>92</ele>
        <time>2017-11-08T15:25:59Z</time>
      </trkpt>
      <trkpt lat="47.81779" lon="1.76546">
        <ele>92</ele>
        <time>2017-11-08T15:26:00Z</time>
      </trkpt>
      <trkpt lat="47.81774" lon="1.76548">
        <ele>92</ele>
        <time>2017-11-08T15:26:01Z</time>
      </trkpt>
      <trkpt lat="47.8177" lon="1.7655">
        <ele>92</ele>
        <time>2017-11-08T15:26:02Z</time>
      </trkpt>
      <trkpt lat="47.81766" lon="1.76552">
        <ele>92</ele>
        <time>2017-11-08T15:26:03Z</time>
      </trkpt>
      <trkpt lat="47.81761" lon="1.76554">
        <ele>92</ele>
        <time>2017-11-08T15:26:04Z</time>
      </trkpt>
      <trkpt lat="47.81758" lon="1.76555">
        <ele>92</ele>
        <time>2017-11-08T15:26:05Z</time>
      </trkpt>
      <trkpt lat="47.81755" lon="1.76556">
        <ele>92</ele>
        <time>2017-11-08T15:26:06Z</time>
      </trkpt>
      <trkpt lat="47.81752" lon="1.76558">
        <ele>92</ele>
        <time>2017-11-08T15:26:08Z</time>
      </trkpt>
      <trkpt lat="47.81748" lon="1.76561">
        <ele>91</ele>
        <time>2017-11-08T15:26:10Z</time>
      </trkpt>
      <trkpt lat="47.8175" lon="1.76565">
        <ele>92</ele>
        <time>2017-11-08T15:26:34Z</time>
      </trkpt>
      <trkpt lat="47.81752" lon="1.76567">
        <ele>92</ele>
        <time>2017-11-08T15:26:38Z</time>
      </trkpt>
      <trkpt lat="47.81749" lon="1.76568">
        <ele>91</ele>
        <time>2017-11-08T15:27:23Z</time>
      </trkpt>
    </trkseg>
  </trk>
</gpx>